<?xml version="1.0" encoding="UTF-8" standalone="no" ?>
<gpx xmlns="http://www.topografix.com/GPX/1/1" xmlns:xsi="http://www.w3.org/2001/XMLSchema-instance" xsi:schemaLocation="http://www.topografix.com/GPX/1/1 http://www.topografix.com/GPX/1/1/gpx.xsd" version="1.1" creator="VisuGPX - https://www.visugpx.com">
  <metadata>
    <name>Olot- Banyoles- Olot</name>
    <desc><![CDATA[Olot- Banyoles- Olot ----------------]]></desc>
  </metadata>
  <trk>
    <name><![CDATA[olot-Banyoles -olot on GPSies.com]]></name>
    <trkseg>
      <trkpt lat="42.16355" lon="2.48029">
        <ele>481</ele>
        <time>2010-01-01T00:00:00Z</time>
      </trkpt>
      <trkpt lat="42.16353" lon="2.48035">
        <ele>481</ele>
        <time>2010-01-01T00:00:01Z</time>
      </trkpt>
      <trkpt lat="42.16352" lon="2.48038">
        <ele>481</ele>
        <time>2010-01-01T00:00:03Z</time>
      </trkpt>
      <trkpt lat="42.16351" lon="2.4804">
        <ele>481</ele>
        <time>2010-01-01T00:00:03Z</time>
      </trkpt>
      <trkpt lat="42.16346" lon="2.48052">
        <ele>481</ele>
        <time>2010-01-01T00:00:07Z</time>
      </trkpt>
      <trkpt lat="42.16342" lon="2.48063">
        <ele>482</ele>
        <time>2010-01-01T00:00:11Z</time>
      </trkpt>
      <trkpt lat="42.16329" lon="2.48095">
        <ele>482</ele>
        <time>2010-01-01T00:00:22Z</time>
      </trkpt>
      <trkpt lat="42.16327" lon="2.48099">
        <ele>482</ele>
        <time>2010-01-01T00:00:23Z</time>
      </trkpt>
      <trkpt lat="42.16319" lon="2.48099">
        <ele>482</ele>
        <time>2010-01-01T00:00:26Z</time>
      </trkpt>
      <trkpt lat="42.16298" lon="2.48081">
        <ele>480</ele>
        <time>2010-01-01T00:00:36Z</time>
      </trkpt>
      <trkpt lat="42.16278" lon="2.48068">
        <ele>480</ele>
        <time>2010-01-01T00:00:45Z</time>
      </trkpt>
      <trkpt lat="42.16261" lon="2.48075">
        <ele>482</ele>
        <time>2010-01-01T00:00:52Z</time>
      </trkpt>
      <trkpt lat="42.16237" lon="2.48088">
        <ele>483</ele>
        <time>2010-01-01T00:01:02Z</time>
      </trkpt>
      <trkpt lat="42.16219" lon="2.48096">
        <ele>485</ele>
        <time>2010-01-01T00:01:10Z</time>
      </trkpt>
      <trkpt lat="42.16195" lon="2.48107">
        <ele>485</ele>
        <time>2010-01-01T00:01:20Z</time>
      </trkpt>
      <trkpt lat="42.16172" lon="2.48123">
        <ele>483</ele>
        <time>2010-01-01T00:01:31Z</time>
      </trkpt>
      <trkpt lat="42.16142" lon="2.48138">
        <ele>481</ele>
        <time>2010-01-01T00:01:43Z</time>
      </trkpt>
      <trkpt lat="42.16117" lon="2.48145">
        <ele>480</ele>
        <time>2010-01-01T00:01:54Z</time>
      </trkpt>
      <trkpt lat="42.1609" lon="2.48145">
        <ele>481</ele>
        <time>2010-01-01T00:02:04Z</time>
      </trkpt>
      <trkpt lat="42.16067" lon="2.48156">
        <ele>480</ele>
        <time>2010-01-01T00:02:14Z</time>
      </trkpt>
      <trkpt lat="42.16039" lon="2.48159">
        <ele>481</ele>
        <time>2010-01-01T00:02:25Z</time>
      </trkpt>
      <trkpt lat="42.16014" lon="2.48165">
        <ele>482</ele>
        <time>2010-01-01T00:02:36Z</time>
      </trkpt>
      <trkpt lat="42.15984" lon="2.48175">
        <ele>481</ele>
        <time>2010-01-01T00:02:48Z</time>
      </trkpt>
      <trkpt lat="42.15963" lon="2.48191">
        <ele>481</ele>
        <time>2010-01-01T00:02:58Z</time>
      </trkpt>
      <trkpt lat="42.15944" lon="2.48191">
        <ele>482</ele>
        <time>2010-01-01T00:03:05Z</time>
      </trkpt>
      <trkpt lat="42.15919" lon="2.48193">
        <ele>484</ele>
        <time>2010-01-01T00:03:15Z</time>
      </trkpt>
      <trkpt lat="42.15895" lon="2.48189">
        <ele>486</ele>
        <time>2010-01-01T00:03:25Z</time>
      </trkpt>
      <trkpt lat="42.15877" lon="2.48192">
        <ele>486</ele>
        <time>2010-01-01T00:03:32Z</time>
      </trkpt>
      <trkpt lat="42.1586" lon="2.482">
        <ele>487</ele>
        <time>2010-01-01T00:03:39Z</time>
      </trkpt>
      <trkpt lat="42.15837" lon="2.48193">
        <ele>486</ele>
        <time>2010-01-01T00:03:49Z</time>
      </trkpt>
      <trkpt lat="42.15817" lon="2.48188">
        <ele>487</ele>
        <time>2010-01-01T00:03:57Z</time>
      </trkpt>
      <trkpt lat="42.15812" lon="2.48192">
        <ele>488</ele>
        <time>2010-01-01T00:03:59Z</time>
      </trkpt>
      <trkpt lat="42.15802" lon="2.48205">
        <ele>489</ele>
        <time>2010-01-01T00:04:05Z</time>
      </trkpt>
      <trkpt lat="42.158" lon="2.48208">
        <ele>490</ele>
        <time>2010-01-01T00:04:06Z</time>
      </trkpt>
      <trkpt lat="42.15789" lon="2.48227">
        <ele>491</ele>
        <time>2010-01-01T00:04:13Z</time>
      </trkpt>
      <trkpt lat="42.15772" lon="2.4825">
        <ele>491</ele>
        <time>2010-01-01T00:04:23Z</time>
      </trkpt>
      <trkpt lat="42.15755" lon="2.48278">
        <ele>491</ele>
        <time>2010-01-01T00:04:34Z</time>
      </trkpt>
      <trkpt lat="42.15746" lon="2.48305">
        <ele>490</ele>
        <time>2010-01-01T00:04:43Z</time>
      </trkpt>
      <trkpt lat="42.15736" lon="2.48322">
        <ele>490</ele>
        <time>2010-01-01T00:04:49Z</time>
      </trkpt>
      <trkpt lat="42.15734" lon="2.48325">
        <ele>490</ele>
        <time>2010-01-01T00:04:50Z</time>
      </trkpt>
      <trkpt lat="42.15725" lon="2.48346">
        <ele>491</ele>
        <time>2010-01-01T00:04:57Z</time>
      </trkpt>
      <trkpt lat="42.15723" lon="2.48364">
        <ele>492</ele>
        <time>2010-01-01T00:05:03Z</time>
      </trkpt>
      <trkpt lat="42.15723" lon="2.48378">
        <ele>492</ele>
        <time>2010-01-01T00:05:07Z</time>
      </trkpt>
      <trkpt lat="42.1573" lon="2.48402">
        <ele>492</ele>
        <time>2010-01-01T00:05:15Z</time>
      </trkpt>
      <trkpt lat="42.15742" lon="2.48437">
        <ele>491</ele>
        <time>2010-01-01T00:05:26Z</time>
      </trkpt>
      <trkpt lat="42.15747" lon="2.48463">
        <ele>490</ele>
        <time>2010-01-01T00:05:34Z</time>
      </trkpt>
      <trkpt lat="42.15743" lon="2.48483">
        <ele>490</ele>
        <time>2010-01-01T00:05:40Z</time>
      </trkpt>
      <trkpt lat="42.15741" lon="2.48485">
        <ele>490</ele>
        <time>2010-01-01T00:05:41Z</time>
      </trkpt>
      <trkpt lat="42.15735" lon="2.48499">
        <ele>490</ele>
        <time>2010-01-01T00:05:46Z</time>
      </trkpt>
      <trkpt lat="42.15734" lon="2.48524">
        <ele>490</ele>
        <time>2010-01-01T00:05:53Z</time>
      </trkpt>
      <trkpt lat="42.1573" lon="2.48552">
        <ele>488</ele>
        <time>2010-01-01T00:06:02Z</time>
      </trkpt>
      <trkpt lat="42.15726" lon="2.48585">
        <ele>486</ele>
        <time>2010-01-01T00:06:12Z</time>
      </trkpt>
      <trkpt lat="42.15724" lon="2.48615">
        <ele>485</ele>
        <time>2010-01-01T00:06:21Z</time>
      </trkpt>
      <trkpt lat="42.15721" lon="2.48642">
        <ele>486</ele>
        <time>2010-01-01T00:06:29Z</time>
      </trkpt>
      <trkpt lat="42.15718" lon="2.48669">
        <ele>487</ele>
        <time>2010-01-01T00:06:37Z</time>
      </trkpt>
      <trkpt lat="42.15716" lon="2.48672">
        <ele>487</ele>
        <time>2010-01-01T00:06:38Z</time>
      </trkpt>
      <trkpt lat="42.15715" lon="2.48675">
        <ele>487</ele>
        <time>2010-01-01T00:06:39Z</time>
      </trkpt>
      <trkpt lat="42.157" lon="2.48696">
        <ele>487</ele>
        <time>2010-01-01T00:06:48Z</time>
      </trkpt>
      <trkpt lat="42.15698" lon="2.48702">
        <ele>487</ele>
        <time>2010-01-01T00:06:50Z</time>
      </trkpt>
      <trkpt lat="42.1569" lon="2.48724">
        <ele>488</ele>
        <time>2010-01-01T00:06:57Z</time>
      </trkpt>
      <trkpt lat="42.15689" lon="2.48731">
        <ele>488</ele>
        <time>2010-01-01T00:06:59Z</time>
      </trkpt>
      <trkpt lat="42.15689" lon="2.48758">
        <ele>490</ele>
        <time>2010-01-01T00:07:07Z</time>
      </trkpt>
      <trkpt lat="42.1569" lon="2.48786">
        <ele>491</ele>
        <time>2010-01-01T00:07:15Z</time>
      </trkpt>
      <trkpt lat="42.15686" lon="2.48804">
        <ele>491</ele>
        <time>2010-01-01T00:07:21Z</time>
      </trkpt>
      <trkpt lat="42.15685" lon="2.48807">
        <ele>491</ele>
        <time>2010-01-01T00:07:22Z</time>
      </trkpt>
      <trkpt lat="42.15678" lon="2.48824">
        <ele>492</ele>
        <time>2010-01-01T00:07:27Z</time>
      </trkpt>
      <trkpt lat="42.15669" lon="2.48858">
        <ele>492</ele>
        <time>2010-01-01T00:07:38Z</time>
      </trkpt>
      <trkpt lat="42.15661" lon="2.48887">
        <ele>493</ele>
        <time>2010-01-01T00:07:47Z</time>
      </trkpt>
      <trkpt lat="42.1565" lon="2.48921">
        <ele>491</ele>
        <time>2010-01-01T00:07:58Z</time>
      </trkpt>
      <trkpt lat="42.15636" lon="2.48965">
        <ele>491</ele>
        <time>2010-01-01T00:08:13Z</time>
      </trkpt>
      <trkpt lat="42.1562" lon="2.49006">
        <ele>491</ele>
        <time>2010-01-01T00:08:26Z</time>
      </trkpt>
      <trkpt lat="42.15607" lon="2.49035">
        <ele>493</ele>
        <time>2010-01-01T00:08:36Z</time>
      </trkpt>
      <trkpt lat="42.15586" lon="2.49054">
        <ele>494</ele>
        <time>2010-01-01T00:08:47Z</time>
      </trkpt>
      <trkpt lat="42.15561" lon="2.49071">
        <ele>497</ele>
        <time>2010-01-01T00:08:58Z</time>
      </trkpt>
      <trkpt lat="42.15537" lon="2.49088">
        <ele>498</ele>
        <time>2010-01-01T00:09:09Z</time>
      </trkpt>
      <trkpt lat="42.15527" lon="2.49106">
        <ele>500</ele>
        <time>2010-01-01T00:09:15Z</time>
      </trkpt>
      <trkpt lat="42.15511" lon="2.49121">
        <ele>503</ele>
        <time>2010-01-01T00:09:23Z</time>
      </trkpt>
      <trkpt lat="42.15495" lon="2.49136">
        <ele>506</ele>
        <time>2010-01-01T00:09:31Z</time>
      </trkpt>
      <trkpt lat="42.15487" lon="2.49151">
        <ele>506</ele>
        <time>2010-01-01T00:09:36Z</time>
      </trkpt>
      <trkpt lat="42.15469" lon="2.49166">
        <ele>506</ele>
        <time>2010-01-01T00:09:45Z</time>
      </trkpt>
      <trkpt lat="42.15453" lon="2.49178">
        <ele>507</ele>
        <time>2010-01-01T00:09:52Z</time>
      </trkpt>
      <trkpt lat="42.15447" lon="2.49183">
        <ele>507</ele>
        <time>2010-01-01T00:09:55Z</time>
      </trkpt>
      <trkpt lat="42.15434" lon="2.49201">
        <ele>508</ele>
        <time>2010-01-01T00:10:02Z</time>
      </trkpt>
      <trkpt lat="42.15422" lon="2.49226">
        <ele>508</ele>
        <time>2010-01-01T00:10:11Z</time>
      </trkpt>
      <trkpt lat="42.15409" lon="2.49264">
        <ele>509</ele>
        <time>2010-01-01T00:10:24Z</time>
      </trkpt>
      <trkpt lat="42.154" lon="2.4929">
        <ele>508</ele>
        <time>2010-01-01T00:10:32Z</time>
      </trkpt>
      <trkpt lat="42.15389" lon="2.49314">
        <ele>507</ele>
        <time>2010-01-01T00:10:41Z</time>
      </trkpt>
      <trkpt lat="42.15381" lon="2.4933">
        <ele>508</ele>
        <time>2010-01-01T00:10:46Z</time>
      </trkpt>
      <trkpt lat="42.15368" lon="2.49353">
        <ele>512</ele>
        <time>2010-01-01T00:10:55Z</time>
      </trkpt>
      <trkpt lat="42.15359" lon="2.49377">
        <ele>514</ele>
        <time>2010-01-01T00:11:03Z</time>
      </trkpt>
      <trkpt lat="42.15347" lon="2.49402">
        <ele>517</ele>
        <time>2010-01-01T00:11:12Z</time>
      </trkpt>
      <trkpt lat="42.15336" lon="2.49423">
        <ele>518</ele>
        <time>2010-01-01T00:11:19Z</time>
      </trkpt>
      <trkpt lat="42.15325" lon="2.49438">
        <ele>519</ele>
        <time>2010-01-01T00:11:26Z</time>
      </trkpt>
      <trkpt lat="42.15317" lon="2.49456">
        <ele>519</ele>
        <time>2010-01-01T00:11:32Z</time>
      </trkpt>
      <trkpt lat="42.15315" lon="2.4948">
        <ele>519</ele>
        <time>2010-01-01T00:11:39Z</time>
      </trkpt>
      <trkpt lat="42.15311" lon="2.49501">
        <ele>519</ele>
        <time>2010-01-01T00:11:45Z</time>
      </trkpt>
      <trkpt lat="42.15313" lon="2.49519">
        <ele>518</ele>
        <time>2010-01-01T00:11:51Z</time>
      </trkpt>
      <trkpt lat="42.15315" lon="2.49533">
        <ele>518</ele>
        <time>2010-01-01T00:11:55Z</time>
      </trkpt>
      <trkpt lat="42.15311" lon="2.49556">
        <ele>519</ele>
        <time>2010-01-01T00:12:02Z</time>
      </trkpt>
      <trkpt lat="42.15307" lon="2.49564">
        <ele>519</ele>
        <time>2010-01-01T00:12:05Z</time>
      </trkpt>
      <trkpt lat="42.15297" lon="2.49588">
        <ele>522</ele>
        <time>2010-01-01T00:12:13Z</time>
      </trkpt>
      <trkpt lat="42.15296" lon="2.49591">
        <ele>522</ele>
        <time>2010-01-01T00:12:14Z</time>
      </trkpt>
      <trkpt lat="42.15294" lon="2.49616">
        <ele>523</ele>
        <time>2010-01-01T00:12:22Z</time>
      </trkpt>
      <trkpt lat="42.15292" lon="2.49636">
        <ele>523</ele>
        <time>2010-01-01T00:12:28Z</time>
      </trkpt>
      <trkpt lat="42.15292" lon="2.4964">
        <ele>523</ele>
        <time>2010-01-01T00:12:29Z</time>
      </trkpt>
      <trkpt lat="42.15282" lon="2.49655">
        <ele>525</ele>
        <time>2010-01-01T00:12:35Z</time>
      </trkpt>
      <trkpt lat="42.15281" lon="2.49656">
        <ele>525</ele>
        <time>2010-01-01T00:12:35Z</time>
      </trkpt>
      <trkpt lat="42.15263" lon="2.49666">
        <ele>526</ele>
        <time>2010-01-01T00:12:43Z</time>
      </trkpt>
      <trkpt lat="42.15247" lon="2.49673">
        <ele>527</ele>
        <time>2010-01-01T00:12:50Z</time>
      </trkpt>
      <trkpt lat="42.15232" lon="2.49679">
        <ele>528</ele>
        <time>2010-01-01T00:12:56Z</time>
      </trkpt>
      <trkpt lat="42.15216" lon="2.4969">
        <ele>529</ele>
        <time>2010-01-01T00:13:03Z</time>
      </trkpt>
      <trkpt lat="42.15198" lon="2.49686">
        <ele>529</ele>
        <time>2010-01-01T00:13:10Z</time>
      </trkpt>
      <trkpt lat="42.15181" lon="2.49684">
        <ele>530</ele>
        <time>2010-01-01T00:13:17Z</time>
      </trkpt>
      <trkpt lat="42.15158" lon="2.49687">
        <ele>531</ele>
        <time>2010-01-01T00:13:27Z</time>
      </trkpt>
      <trkpt lat="42.15139" lon="2.49682">
        <ele>531</ele>
        <time>2010-01-01T00:13:34Z</time>
      </trkpt>
      <trkpt lat="42.15129" lon="2.49676">
        <ele>531</ele>
        <time>2010-01-01T00:13:39Z</time>
      </trkpt>
      <trkpt lat="42.15112" lon="2.49665">
        <ele>530</ele>
        <time>2010-01-01T00:13:47Z</time>
      </trkpt>
      <trkpt lat="42.15106" lon="2.49674">
        <ele>531</ele>
        <time>2010-01-01T00:13:50Z</time>
      </trkpt>
      <trkpt lat="42.15101" lon="2.49697">
        <ele>531</ele>
        <time>2010-01-01T00:13:57Z</time>
      </trkpt>
      <trkpt lat="42.15098" lon="2.49709">
        <ele>531</ele>
        <time>2010-01-01T00:14:01Z</time>
      </trkpt>
      <trkpt lat="42.151" lon="2.49734">
        <ele>532</ele>
        <time>2010-01-01T00:14:08Z</time>
      </trkpt>
      <trkpt lat="42.15108" lon="2.49762">
        <ele>532</ele>
        <time>2010-01-01T00:14:17Z</time>
      </trkpt>
      <trkpt lat="42.1511" lon="2.49792">
        <ele>532</ele>
        <time>2010-01-01T00:14:26Z</time>
      </trkpt>
      <trkpt lat="42.15111" lon="2.49812">
        <ele>532</ele>
        <time>2010-01-01T00:14:32Z</time>
      </trkpt>
      <trkpt lat="42.15111" lon="2.49826">
        <ele>532</ele>
        <time>2010-01-01T00:14:36Z</time>
      </trkpt>
      <trkpt lat="42.15103" lon="2.49852">
        <ele>533</ele>
        <time>2010-01-01T00:14:45Z</time>
      </trkpt>
      <trkpt lat="42.15094" lon="2.49879">
        <ele>535</ele>
        <time>2010-01-01T00:14:53Z</time>
      </trkpt>
      <trkpt lat="42.15092" lon="2.49885">
        <ele>535</ele>
        <time>2010-01-01T00:14:55Z</time>
      </trkpt>
      <trkpt lat="42.15092" lon="2.49908">
        <ele>536</ele>
        <time>2010-01-01T00:15:02Z</time>
      </trkpt>
      <trkpt lat="42.15096" lon="2.49927">
        <ele>537</ele>
        <time>2010-01-01T00:15:08Z</time>
      </trkpt>
      <trkpt lat="42.15102" lon="2.49948">
        <ele>539</ele>
        <time>2010-01-01T00:15:15Z</time>
      </trkpt>
      <trkpt lat="42.15108" lon="2.4998">
        <ele>541</ele>
        <time>2010-01-01T00:15:25Z</time>
      </trkpt>
      <trkpt lat="42.15108" lon="2.49982">
        <ele>541</ele>
        <time>2010-01-01T00:15:25Z</time>
      </trkpt>
      <trkpt lat="42.15099" lon="2.50003">
        <ele>542</ele>
        <time>2010-01-01T00:15:32Z</time>
      </trkpt>
      <trkpt lat="42.15099" lon="2.50011">
        <ele>542</ele>
        <time>2010-01-01T00:15:35Z</time>
      </trkpt>
      <trkpt lat="42.151" lon="2.50019">
        <ele>542</ele>
        <time>2010-01-01T00:15:37Z</time>
      </trkpt>
      <trkpt lat="42.15078" lon="2.50032">
        <ele>542</ele>
        <time>2010-01-01T00:15:46Z</time>
      </trkpt>
      <trkpt lat="42.15062" lon="2.50047">
        <ele>545</ele>
        <time>2010-01-01T00:15:54Z</time>
      </trkpt>
      <trkpt lat="42.15053" lon="2.50053">
        <ele>545</ele>
        <time>2010-01-01T00:15:58Z</time>
      </trkpt>
      <trkpt lat="42.15037" lon="2.50073">
        <ele>548</ele>
        <time>2010-01-01T00:16:07Z</time>
      </trkpt>
      <trkpt lat="42.15031" lon="2.50082">
        <ele>549</ele>
        <time>2010-01-01T00:16:11Z</time>
      </trkpt>
      <trkpt lat="42.15013" lon="2.50098">
        <ele>551</ele>
        <time>2010-01-01T00:16:19Z</time>
      </trkpt>
      <trkpt lat="42.14993" lon="2.50111">
        <ele>552</ele>
        <time>2010-01-01T00:16:28Z</time>
      </trkpt>
      <trkpt lat="42.14976" lon="2.5012">
        <ele>553</ele>
        <time>2010-01-01T00:16:36Z</time>
      </trkpt>
      <trkpt lat="42.14969" lon="2.5012">
        <ele>554</ele>
        <time>2010-01-01T00:16:38Z</time>
      </trkpt>
      <trkpt lat="42.14972" lon="2.5012">
        <ele>553</ele>
        <time>2010-01-01T00:16:40Z</time>
      </trkpt>
      <trkpt lat="42.14974" lon="2.50124">
        <ele>554</ele>
        <time>2010-01-01T00:16:41Z</time>
      </trkpt>
      <trkpt lat="42.14974" lon="2.50128">
        <ele>554</ele>
        <time>2010-01-01T00:16:42Z</time>
      </trkpt>
      <trkpt lat="42.14959" lon="2.50135">
        <ele>556</ele>
        <time>2010-01-01T00:16:48Z</time>
      </trkpt>
      <trkpt lat="42.14945" lon="2.50147">
        <ele>556</ele>
        <time>2010-01-01T00:16:55Z</time>
      </trkpt>
      <trkpt lat="42.14934" lon="2.5016">
        <ele>557</ele>
        <time>2010-01-01T00:17:01Z</time>
      </trkpt>
      <trkpt lat="42.14924" lon="2.50183">
        <ele>556</ele>
        <time>2010-01-01T00:17:09Z</time>
      </trkpt>
      <trkpt lat="42.14924" lon="2.50202">
        <ele>556</ele>
        <time>2010-01-01T00:17:14Z</time>
      </trkpt>
      <trkpt lat="42.14916" lon="2.50229">
        <ele>556</ele>
        <time>2010-01-01T00:17:23Z</time>
      </trkpt>
      <trkpt lat="42.14911" lon="2.50259">
        <ele>556</ele>
        <time>2010-01-01T00:17:32Z</time>
      </trkpt>
      <trkpt lat="42.14915" lon="2.50285">
        <ele>555</ele>
        <time>2010-01-01T00:17:40Z</time>
      </trkpt>
      <trkpt lat="42.14924" lon="2.50308">
        <ele>555</ele>
        <time>2010-01-01T00:17:48Z</time>
      </trkpt>
      <trkpt lat="42.14934" lon="2.50333">
        <ele>555</ele>
        <time>2010-01-01T00:17:56Z</time>
      </trkpt>
      <trkpt lat="42.14938" lon="2.50336">
        <ele>555</ele>
        <time>2010-01-01T00:17:58Z</time>
      </trkpt>
      <trkpt lat="42.14943" lon="2.50344">
        <ele>555</ele>
        <time>2010-01-01T00:18:01Z</time>
      </trkpt>
      <trkpt lat="42.14947" lon="2.50354">
        <ele>555</ele>
        <time>2010-01-01T00:18:05Z</time>
      </trkpt>
      <trkpt lat="42.14946" lon="2.50369">
        <ele>555</ele>
        <time>2010-01-01T00:18:09Z</time>
      </trkpt>
      <trkpt lat="42.14928" lon="2.50377">
        <ele>556</ele>
        <time>2010-01-01T00:18:16Z</time>
      </trkpt>
      <trkpt lat="42.14927" lon="2.50379">
        <ele>556</ele>
        <time>2010-01-01T00:18:17Z</time>
      </trkpt>
      <trkpt lat="42.14925" lon="2.50387">
        <ele>556</ele>
        <time>2010-01-01T00:18:20Z</time>
      </trkpt>
      <trkpt lat="42.14928" lon="2.50394">
        <ele>557</ele>
        <time>2010-01-01T00:18:22Z</time>
      </trkpt>
      <trkpt lat="42.14934" lon="2.50415">
        <ele>557</ele>
        <time>2010-01-01T00:18:28Z</time>
      </trkpt>
      <trkpt lat="42.14938" lon="2.50423">
        <ele>558</ele>
        <time>2010-01-01T00:18:31Z</time>
      </trkpt>
      <trkpt lat="42.14943" lon="2.50447">
        <ele>559</ele>
        <time>2010-01-01T00:18:39Z</time>
      </trkpt>
      <trkpt lat="42.1495" lon="2.50471">
        <ele>558</ele>
        <time>2010-01-01T00:18:46Z</time>
      </trkpt>
      <trkpt lat="42.14956" lon="2.5049">
        <ele>559</ele>
        <time>2010-01-01T00:18:53Z</time>
      </trkpt>
      <trkpt lat="42.14963" lon="2.50512">
        <ele>560</ele>
        <time>2010-01-01T00:19:00Z</time>
      </trkpt>
      <trkpt lat="42.14967" lon="2.5053">
        <ele>561</ele>
        <time>2010-01-01T00:19:05Z</time>
      </trkpt>
      <trkpt lat="42.14969" lon="2.50546">
        <ele>562</ele>
        <time>2010-01-01T00:19:10Z</time>
      </trkpt>
      <trkpt lat="42.14975" lon="2.50565">
        <ele>562</ele>
        <time>2010-01-01T00:19:16Z</time>
      </trkpt>
      <trkpt lat="42.14979" lon="2.50589">
        <ele>562</ele>
        <time>2010-01-01T00:19:24Z</time>
      </trkpt>
      <trkpt lat="42.14984" lon="2.50622">
        <ele>561</ele>
        <time>2010-01-01T00:19:33Z</time>
      </trkpt>
      <trkpt lat="42.14982" lon="2.50646">
        <ele>561</ele>
        <time>2010-01-01T00:19:41Z</time>
      </trkpt>
      <trkpt lat="42.1498" lon="2.50672">
        <ele>562</ele>
        <time>2010-01-01T00:19:48Z</time>
      </trkpt>
      <trkpt lat="42.14973" lon="2.50697">
        <ele>564</ele>
        <time>2010-01-01T00:19:56Z</time>
      </trkpt>
      <trkpt lat="42.1497" lon="2.50719">
        <ele>565</ele>
        <time>2010-01-01T00:20:03Z</time>
      </trkpt>
      <trkpt lat="42.14969" lon="2.50747">
        <ele>566</ele>
        <time>2010-01-01T00:20:11Z</time>
      </trkpt>
      <trkpt lat="42.14968" lon="2.50769">
        <ele>567</ele>
        <time>2010-01-01T00:20:18Z</time>
      </trkpt>
      <trkpt lat="42.14963" lon="2.50791">
        <ele>568</ele>
        <time>2010-01-01T00:20:25Z</time>
      </trkpt>
      <trkpt lat="42.14956" lon="2.50821">
        <ele>568</ele>
        <time>2010-01-01T00:20:34Z</time>
      </trkpt>
      <trkpt lat="42.14952" lon="2.50849">
        <ele>567</ele>
        <time>2010-01-01T00:20:42Z</time>
      </trkpt>
      <trkpt lat="42.14945" lon="2.50877">
        <ele>567</ele>
        <time>2010-01-01T00:20:51Z</time>
      </trkpt>
      <trkpt lat="42.1494" lon="2.50897">
        <ele>567</ele>
        <time>2010-01-01T00:20:57Z</time>
      </trkpt>
      <trkpt lat="42.14933" lon="2.5092">
        <ele>567</ele>
        <time>2010-01-01T00:21:05Z</time>
      </trkpt>
      <trkpt lat="42.14928" lon="2.50944">
        <ele>567</ele>
        <time>2010-01-01T00:21:12Z</time>
      </trkpt>
      <trkpt lat="42.14926" lon="2.50954">
        <ele>567</ele>
        <time>2010-01-01T00:21:15Z</time>
      </trkpt>
      <trkpt lat="42.14918" lon="2.50983">
        <ele>566</ele>
        <time>2010-01-01T00:21:24Z</time>
      </trkpt>
      <trkpt lat="42.14913" lon="2.51006">
        <ele>567</ele>
        <time>2010-01-01T00:21:32Z</time>
      </trkpt>
      <trkpt lat="42.14911" lon="2.5103">
        <ele>567</ele>
        <time>2010-01-01T00:21:39Z</time>
      </trkpt>
      <trkpt lat="42.14904" lon="2.51058">
        <ele>568</ele>
        <time>2010-01-01T00:21:47Z</time>
      </trkpt>
      <trkpt lat="42.14904" lon="2.5107">
        <ele>569</ele>
        <time>2010-01-01T00:21:51Z</time>
      </trkpt>
      <trkpt lat="42.14902" lon="2.51089">
        <ele>570</ele>
        <time>2010-01-01T00:21:57Z</time>
      </trkpt>
      <trkpt lat="42.14898" lon="2.51111">
        <ele>572</ele>
        <time>2010-01-01T00:22:04Z</time>
      </trkpt>
      <trkpt lat="42.14896" lon="2.51138">
        <ele>573</ele>
        <time>2010-01-01T00:22:12Z</time>
      </trkpt>
      <trkpt lat="42.14897" lon="2.51147">
        <ele>573</ele>
        <time>2010-01-01T00:22:14Z</time>
      </trkpt>
      <trkpt lat="42.14897" lon="2.51174">
        <ele>574</ele>
        <time>2010-01-01T00:22:22Z</time>
      </trkpt>
      <trkpt lat="42.14894" lon="2.51181">
        <ele>575</ele>
        <time>2010-01-01T00:22:25Z</time>
      </trkpt>
      <trkpt lat="42.14883" lon="2.51204">
        <ele>576</ele>
        <time>2010-01-01T00:22:33Z</time>
      </trkpt>
      <trkpt lat="42.14878" lon="2.51221">
        <ele>576</ele>
        <time>2010-01-01T00:22:38Z</time>
      </trkpt>
      <trkpt lat="42.14876" lon="2.51224">
        <ele>576</ele>
        <time>2010-01-01T00:22:39Z</time>
      </trkpt>
      <trkpt lat="42.14866" lon="2.51251">
        <ele>576</ele>
        <time>2010-01-01T00:22:48Z</time>
      </trkpt>
      <trkpt lat="42.14856" lon="2.51272">
        <ele>576</ele>
        <time>2010-01-01T00:22:56Z</time>
      </trkpt>
      <trkpt lat="42.14849" lon="2.51293">
        <ele>576</ele>
        <time>2010-01-01T00:23:03Z</time>
      </trkpt>
      <trkpt lat="42.14839" lon="2.51318">
        <ele>576</ele>
        <time>2010-01-01T00:23:11Z</time>
      </trkpt>
      <trkpt lat="42.14831" lon="2.51339">
        <ele>576</ele>
        <time>2010-01-01T00:23:18Z</time>
      </trkpt>
      <trkpt lat="42.14821" lon="2.51356">
        <ele>577</ele>
        <time>2010-01-01T00:23:25Z</time>
      </trkpt>
      <trkpt lat="42.14805" lon="2.51368">
        <ele>578</ele>
        <time>2010-01-01T00:23:32Z</time>
      </trkpt>
      <trkpt lat="42.14786" lon="2.51385">
        <ele>580</ele>
        <time>2010-01-01T00:23:41Z</time>
      </trkpt>
      <trkpt lat="42.14765" lon="2.51395">
        <ele>582</ele>
        <time>2010-01-01T00:23:50Z</time>
      </trkpt>
      <trkpt lat="42.14756" lon="2.51398">
        <ele>583</ele>
        <time>2010-01-01T00:23:54Z</time>
      </trkpt>
      <trkpt lat="42.14746" lon="2.51413">
        <ele>582</ele>
        <time>2010-01-01T00:24:00Z</time>
      </trkpt>
      <trkpt lat="42.14733" lon="2.5142">
        <ele>581</ele>
        <time>2010-01-01T00:24:05Z</time>
      </trkpt>
      <trkpt lat="42.14719" lon="2.51426">
        <ele>581</ele>
        <time>2010-01-01T00:24:11Z</time>
      </trkpt>
      <trkpt lat="42.14696" lon="2.51436">
        <ele>580</ele>
        <time>2010-01-01T00:24:21Z</time>
      </trkpt>
      <trkpt lat="42.14679" lon="2.51446">
        <ele>581</ele>
        <time>2010-01-01T00:24:28Z</time>
      </trkpt>
      <trkpt lat="42.14662" lon="2.51459">
        <ele>581</ele>
        <time>2010-01-01T00:24:36Z</time>
      </trkpt>
      <trkpt lat="42.14644" lon="2.51469">
        <ele>581</ele>
        <time>2010-01-01T00:24:44Z</time>
      </trkpt>
      <trkpt lat="42.14625" lon="2.51481">
        <ele>581</ele>
        <time>2010-01-01T00:24:52Z</time>
      </trkpt>
      <trkpt lat="42.1461" lon="2.51491">
        <ele>582</ele>
        <time>2010-01-01T00:24:59Z</time>
      </trkpt>
      <trkpt lat="42.14597" lon="2.51506">
        <ele>581</ele>
        <time>2010-01-01T00:25:06Z</time>
      </trkpt>
      <trkpt lat="42.14582" lon="2.51522">
        <ele>583</ele>
        <time>2010-01-01T00:25:13Z</time>
      </trkpt>
      <trkpt lat="42.14568" lon="2.5153">
        <ele>583</ele>
        <time>2010-01-01T00:25:19Z</time>
      </trkpt>
      <trkpt lat="42.14557" lon="2.51543">
        <ele>584</ele>
        <time>2010-01-01T00:25:25Z</time>
      </trkpt>
      <trkpt lat="42.1454" lon="2.51551">
        <ele>586</ele>
        <time>2010-01-01T00:25:32Z</time>
      </trkpt>
      <trkpt lat="42.14527" lon="2.51563">
        <ele>587</ele>
        <time>2010-01-01T00:25:39Z</time>
      </trkpt>
      <trkpt lat="42.14507" lon="2.51563">
        <ele>590</ele>
        <time>2010-01-01T00:25:47Z</time>
      </trkpt>
      <trkpt lat="42.14505" lon="2.51562">
        <ele>590</ele>
        <time>2010-01-01T00:25:48Z</time>
      </trkpt>
      <trkpt lat="42.14486" lon="2.51557">
        <ele>591</ele>
        <time>2010-01-01T00:25:55Z</time>
      </trkpt>
      <trkpt lat="42.14472" lon="2.51562">
        <ele>591</ele>
        <time>2010-01-01T00:26:01Z</time>
      </trkpt>
      <trkpt lat="42.14468" lon="2.51562">
        <ele>591</ele>
        <time>2010-01-01T00:26:03Z</time>
      </trkpt>
      <trkpt lat="42.14448" lon="2.5157">
        <ele>590</ele>
        <time>2010-01-01T00:26:11Z</time>
      </trkpt>
      <trkpt lat="42.14431" lon="2.51579">
        <ele>589</ele>
        <time>2010-01-01T00:26:18Z</time>
      </trkpt>
      <trkpt lat="42.14418" lon="2.51588">
        <ele>588</ele>
        <time>2010-01-01T00:26:24Z</time>
      </trkpt>
      <trkpt lat="42.14401" lon="2.51588">
        <ele>587</ele>
        <time>2010-01-01T00:26:31Z</time>
      </trkpt>
      <trkpt lat="42.14395" lon="2.51601">
        <ele>586</ele>
        <time>2010-01-01T00:26:36Z</time>
      </trkpt>
      <trkpt lat="42.14389" lon="2.51601">
        <ele>586</ele>
        <time>2010-01-01T00:26:38Z</time>
      </trkpt>
      <trkpt lat="42.14382" lon="2.516">
        <ele>585</ele>
        <time>2010-01-01T00:26:41Z</time>
      </trkpt>
      <trkpt lat="42.14369" lon="2.51599">
        <ele>585</ele>
        <time>2010-01-01T00:26:46Z</time>
      </trkpt>
      <trkpt lat="42.14353" lon="2.51594">
        <ele>584</ele>
        <time>2010-01-01T00:26:53Z</time>
      </trkpt>
      <trkpt lat="42.14338" lon="2.51589">
        <ele>583</ele>
        <time>2010-01-01T00:26:59Z</time>
      </trkpt>
      <trkpt lat="42.14318" lon="2.51574">
        <ele>582</ele>
        <time>2010-01-01T00:27:08Z</time>
      </trkpt>
      <trkpt lat="42.14303" lon="2.51565">
        <ele>581</ele>
        <time>2010-01-01T00:27:14Z</time>
      </trkpt>
      <trkpt lat="42.14279" lon="2.51559">
        <ele>581</ele>
        <time>2010-01-01T00:27:25Z</time>
      </trkpt>
      <trkpt lat="42.14259" lon="2.51557">
        <ele>580</ele>
        <time>2010-01-01T00:27:32Z</time>
      </trkpt>
      <trkpt lat="42.14237" lon="2.51561">
        <ele>580</ele>
        <time>2010-01-01T00:27:41Z</time>
      </trkpt>
      <trkpt lat="42.14214" lon="2.51581">
        <ele>579</ele>
        <time>2010-01-01T00:27:52Z</time>
      </trkpt>
      <trkpt lat="42.14192" lon="2.51595">
        <ele>578</ele>
        <time>2010-01-01T00:28:02Z</time>
      </trkpt>
      <trkpt lat="42.1417" lon="2.51606">
        <ele>577</ele>
        <time>2010-01-01T00:28:11Z</time>
      </trkpt>
      <trkpt lat="42.14156" lon="2.51617">
        <ele>577</ele>
        <time>2010-01-01T00:28:18Z</time>
      </trkpt>
      <trkpt lat="42.14149" lon="2.51622">
        <ele>577</ele>
        <time>2010-01-01T00:28:21Z</time>
      </trkpt>
      <trkpt lat="42.1413" lon="2.51643">
        <ele>576</ele>
        <time>2010-01-01T00:28:31Z</time>
      </trkpt>
      <trkpt lat="42.14114" lon="2.51664">
        <ele>576</ele>
        <time>2010-01-01T00:28:40Z</time>
      </trkpt>
      <trkpt lat="42.141" lon="2.51691">
        <ele>575</ele>
        <time>2010-01-01T00:28:50Z</time>
      </trkpt>
      <trkpt lat="42.14088" lon="2.51713">
        <ele>575</ele>
        <time>2010-01-01T00:28:58Z</time>
      </trkpt>
      <trkpt lat="42.14072" lon="2.51734">
        <ele>576</ele>
        <time>2010-01-01T00:29:07Z</time>
      </trkpt>
      <trkpt lat="42.14059" lon="2.51749">
        <ele>576</ele>
        <time>2010-01-01T00:29:13Z</time>
      </trkpt>
      <trkpt lat="42.14041" lon="2.51767">
        <ele>576</ele>
        <time>2010-01-01T00:29:22Z</time>
      </trkpt>
      <trkpt lat="42.14023" lon="2.51788">
        <ele>576</ele>
        <time>2010-01-01T00:29:32Z</time>
      </trkpt>
      <trkpt lat="42.14008" lon="2.51809">
        <ele>576</ele>
        <time>2010-01-01T00:29:41Z</time>
      </trkpt>
      <trkpt lat="42.1399" lon="2.51838">
        <ele>576</ele>
        <time>2010-01-01T00:29:52Z</time>
      </trkpt>
      <trkpt lat="42.13975" lon="2.51856">
        <ele>575</ele>
        <time>2010-01-01T00:30:00Z</time>
      </trkpt>
      <trkpt lat="42.13965" lon="2.5188">
        <ele>574</ele>
        <time>2010-01-01T00:30:08Z</time>
      </trkpt>
      <trkpt lat="42.13956" lon="2.51908">
        <ele>573</ele>
        <time>2010-01-01T00:30:17Z</time>
      </trkpt>
      <trkpt lat="42.13954" lon="2.51918">
        <ele>573</ele>
        <time>2010-01-01T00:30:20Z</time>
      </trkpt>
      <trkpt lat="42.13957" lon="2.51957">
        <ele>573</ele>
        <time>2010-01-01T00:30:32Z</time>
      </trkpt>
      <trkpt lat="42.13958" lon="2.51987">
        <ele>573</ele>
        <time>2010-01-01T00:30:41Z</time>
      </trkpt>
      <trkpt lat="42.1396" lon="2.52016">
        <ele>573</ele>
        <time>2010-01-01T00:30:49Z</time>
      </trkpt>
      <trkpt lat="42.13963" lon="2.52043">
        <ele>574</ele>
        <time>2010-01-01T00:30:57Z</time>
      </trkpt>
      <trkpt lat="42.13962" lon="2.52069">
        <ele>574</ele>
        <time>2010-01-01T00:31:05Z</time>
      </trkpt>
      <trkpt lat="42.1396" lon="2.52074">
        <ele>574</ele>
        <time>2010-01-01T00:31:07Z</time>
      </trkpt>
      <trkpt lat="42.13959" lon="2.52076">
        <ele>574</ele>
        <time>2010-01-01T00:31:08Z</time>
      </trkpt>
      <trkpt lat="42.13958" lon="2.52103">
        <ele>575</ele>
        <time>2010-01-01T00:31:16Z</time>
      </trkpt>
      <trkpt lat="42.13954" lon="2.52128">
        <ele>573</ele>
        <time>2010-01-01T00:31:23Z</time>
      </trkpt>
      <trkpt lat="42.1395" lon="2.52144">
        <ele>572</ele>
        <time>2010-01-01T00:31:28Z</time>
      </trkpt>
      <trkpt lat="42.13931" lon="2.52161">
        <ele>570</ele>
        <time>2010-01-01T00:31:37Z</time>
      </trkpt>
      <trkpt lat="42.13903" lon="2.52178">
        <ele>570</ele>
        <time>2010-01-01T00:31:50Z</time>
      </trkpt>
      <trkpt lat="42.13891" lon="2.522">
        <ele>570</ele>
        <time>2010-01-01T00:31:58Z</time>
      </trkpt>
      <trkpt lat="42.13892" lon="2.5224">
        <ele>568</ele>
        <time>2010-01-01T00:32:09Z</time>
      </trkpt>
      <trkpt lat="42.13886" lon="2.52274">
        <ele>567</ele>
        <time>2010-01-01T00:32:20Z</time>
      </trkpt>
      <trkpt lat="42.13881" lon="2.52287">
        <ele>567</ele>
        <time>2010-01-01T00:32:24Z</time>
      </trkpt>
      <trkpt lat="42.13876" lon="2.52298">
        <ele>567</ele>
        <time>2010-01-01T00:32:28Z</time>
      </trkpt>
      <trkpt lat="42.13872" lon="2.52331">
        <ele>567</ele>
        <time>2010-01-01T00:32:38Z</time>
      </trkpt>
      <trkpt lat="42.13866" lon="2.52344">
        <ele>567</ele>
        <time>2010-01-01T00:32:43Z</time>
      </trkpt>
      <trkpt lat="42.13856" lon="2.5235">
        <ele>567</ele>
        <time>2010-01-01T00:32:47Z</time>
      </trkpt>
      <trkpt lat="42.13833" lon="2.52363">
        <ele>570</ele>
        <time>2010-01-01T00:32:57Z</time>
      </trkpt>
      <trkpt lat="42.1383" lon="2.52367">
        <ele>570</ele>
        <time>2010-01-01T00:32:59Z</time>
      </trkpt>
      <trkpt lat="42.13828" lon="2.52395">
        <ele>572</ele>
        <time>2010-01-01T00:33:07Z</time>
      </trkpt>
      <trkpt lat="42.13825" lon="2.52411">
        <ele>575</ele>
        <time>2010-01-01T00:33:12Z</time>
      </trkpt>
      <trkpt lat="42.13821" lon="2.52423">
        <ele>577</ele>
        <time>2010-01-01T00:33:16Z</time>
      </trkpt>
      <trkpt lat="42.13824" lon="2.52449">
        <ele>581</ele>
        <time>2010-01-01T00:33:24Z</time>
      </trkpt>
      <trkpt lat="42.1383" lon="2.52471">
        <ele>582</ele>
        <time>2010-01-01T00:33:30Z</time>
      </trkpt>
      <trkpt lat="42.13833" lon="2.52492">
        <ele>583</ele>
        <time>2010-01-01T00:33:37Z</time>
      </trkpt>
      <trkpt lat="42.13833" lon="2.52501">
        <ele>583</ele>
        <time>2010-01-01T00:33:40Z</time>
      </trkpt>
      <trkpt lat="42.13835" lon="2.5253">
        <ele>582</ele>
        <time>2010-01-01T00:33:48Z</time>
      </trkpt>
      <trkpt lat="42.13833" lon="2.52559">
        <ele>580</ele>
        <time>2010-01-01T00:33:57Z</time>
      </trkpt>
      <trkpt lat="42.13834" lon="2.52588">
        <ele>578</ele>
        <time>2010-01-01T00:34:05Z</time>
      </trkpt>
      <trkpt lat="42.13833" lon="2.52599">
        <ele>579</ele>
        <time>2010-01-01T00:34:09Z</time>
      </trkpt>
      <trkpt lat="42.13831" lon="2.52629">
        <ele>581</ele>
        <time>2010-01-01T00:34:18Z</time>
      </trkpt>
      <trkpt lat="42.13827" lon="2.52644">
        <ele>583</ele>
        <time>2010-01-01T00:34:23Z</time>
      </trkpt>
      <trkpt lat="42.13828" lon="2.52666">
        <ele>581</ele>
        <time>2010-01-01T00:34:29Z</time>
      </trkpt>
      <trkpt lat="42.13827" lon="2.52671">
        <ele>582</ele>
        <time>2010-01-01T00:34:31Z</time>
      </trkpt>
      <trkpt lat="42.13829" lon="2.52678">
        <ele>582</ele>
        <time>2010-01-01T00:34:33Z</time>
      </trkpt>
      <trkpt lat="42.13829" lon="2.52681">
        <ele>582</ele>
        <time>2010-01-01T00:34:34Z</time>
      </trkpt>
      <trkpt lat="42.13832" lon="2.52697">
        <ele>582</ele>
        <time>2010-01-01T00:34:39Z</time>
      </trkpt>
      <trkpt lat="42.13835" lon="2.52706">
        <ele>583</ele>
        <time>2010-01-01T00:34:42Z</time>
      </trkpt>
      <trkpt lat="42.1384" lon="2.52718">
        <ele>584</ele>
        <time>2010-01-01T00:34:46Z</time>
      </trkpt>
      <trkpt lat="42.13834" lon="2.52727">
        <ele>586</ele>
        <time>2010-01-01T00:34:49Z</time>
      </trkpt>
      <trkpt lat="42.13833" lon="2.5274">
        <ele>588</ele>
        <time>2010-01-01T00:34:53Z</time>
      </trkpt>
      <trkpt lat="42.13831" lon="2.5275">
        <ele>590</ele>
        <time>2010-01-01T00:34:56Z</time>
      </trkpt>
      <trkpt lat="42.13825" lon="2.52761">
        <ele>592</ele>
        <time>2010-01-01T00:35:01Z</time>
      </trkpt>
      <trkpt lat="42.13818" lon="2.52767">
        <ele>594</ele>
        <time>2010-01-01T00:35:04Z</time>
      </trkpt>
      <trkpt lat="42.1381" lon="2.52773">
        <ele>595</ele>
        <time>2010-01-01T00:35:07Z</time>
      </trkpt>
      <trkpt lat="42.13807" lon="2.52775">
        <ele>596</ele>
        <time>2010-01-01T00:35:09Z</time>
      </trkpt>
      <trkpt lat="42.13812" lon="2.52776">
        <ele>596</ele>
        <time>2010-01-01T00:35:11Z</time>
      </trkpt>
      <trkpt lat="42.13816" lon="2.52778">
        <ele>596</ele>
        <time>2010-01-01T00:35:13Z</time>
      </trkpt>
      <trkpt lat="42.13821" lon="2.52782">
        <ele>597</ele>
        <time>2010-01-01T00:35:15Z</time>
      </trkpt>
      <trkpt lat="42.13816" lon="2.52785">
        <ele>598</ele>
        <time>2010-01-01T00:35:17Z</time>
      </trkpt>
      <trkpt lat="42.13809" lon="2.52791">
        <ele>600</ele>
        <time>2010-01-01T00:35:21Z</time>
      </trkpt>
      <trkpt lat="42.13807" lon="2.528">
        <ele>602</ele>
        <time>2010-01-01T00:35:23Z</time>
      </trkpt>
      <trkpt lat="42.13814" lon="2.528">
        <ele>602</ele>
        <time>2010-01-01T00:35:26Z</time>
      </trkpt>
      <trkpt lat="42.13823" lon="2.52808">
        <ele>604</ele>
        <time>2010-01-01T00:35:30Z</time>
      </trkpt>
      <trkpt lat="42.13832" lon="2.52815">
        <ele>606</ele>
        <time>2010-01-01T00:35:35Z</time>
      </trkpt>
      <trkpt lat="42.13836" lon="2.52821">
        <ele>608</ele>
        <time>2010-01-01T00:35:37Z</time>
      </trkpt>
      <trkpt lat="42.13843" lon="2.52835">
        <ele>612</ele>
        <time>2010-01-01T00:35:42Z</time>
      </trkpt>
      <trkpt lat="42.1385" lon="2.52854">
        <ele>618</ele>
        <time>2010-01-01T00:35:48Z</time>
      </trkpt>
      <trkpt lat="42.13856" lon="2.52869">
        <ele>622</ele>
        <time>2010-01-01T00:35:53Z</time>
      </trkpt>
      <trkpt lat="42.13863" lon="2.52883">
        <ele>625</ele>
        <time>2010-01-01T00:35:58Z</time>
      </trkpt>
      <trkpt lat="42.13866" lon="2.52887">
        <ele>626</ele>
        <time>2010-01-01T00:36:00Z</time>
      </trkpt>
      <trkpt lat="42.13866" lon="2.52887">
        <ele>626</ele>
        <time>2010-01-01T00:36:00Z</time>
      </trkpt>
      <trkpt lat="42.13874" lon="2.52896">
        <ele>627</ele>
        <time>2010-01-01T00:36:04Z</time>
      </trkpt>
      <trkpt lat="42.13881" lon="2.52903">
        <ele>628</ele>
        <time>2010-01-01T00:36:08Z</time>
      </trkpt>
      <trkpt lat="42.13888" lon="2.52908">
        <ele>629</ele>
        <time>2010-01-01T00:36:11Z</time>
      </trkpt>
      <trkpt lat="42.13897" lon="2.52912">
        <ele>629</ele>
        <time>2010-01-01T00:36:15Z</time>
      </trkpt>
      <trkpt lat="42.13903" lon="2.52927">
        <ele>633</ele>
        <time>2010-01-01T00:36:19Z</time>
      </trkpt>
      <trkpt lat="42.13909" lon="2.52942">
        <ele>637</ele>
        <time>2010-01-01T00:36:25Z</time>
      </trkpt>
      <trkpt lat="42.13907" lon="2.52955">
        <ele>640</ele>
        <time>2010-01-01T00:36:29Z</time>
      </trkpt>
      <trkpt lat="42.13905" lon="2.52964">
        <ele>642</ele>
        <time>2010-01-01T00:36:32Z</time>
      </trkpt>
      <trkpt lat="42.13902" lon="2.52977">
        <ele>645</ele>
        <time>2010-01-01T00:36:36Z</time>
      </trkpt>
      <trkpt lat="42.13902" lon="2.52996">
        <ele>649</ele>
        <time>2010-01-01T00:36:41Z</time>
      </trkpt>
      <trkpt lat="42.13906" lon="2.53005">
        <ele>650</ele>
        <time>2010-01-01T00:36:44Z</time>
      </trkpt>
      <trkpt lat="42.13917" lon="2.53019">
        <ele>653</ele>
        <time>2010-01-01T00:36:50Z</time>
      </trkpt>
      <trkpt lat="42.13925" lon="2.53036">
        <ele>656</ele>
        <time>2010-01-01T00:36:56Z</time>
      </trkpt>
      <trkpt lat="42.13925" lon="2.53054">
        <ele>658</ele>
        <time>2010-01-01T00:37:02Z</time>
      </trkpt>
      <trkpt lat="42.13925" lon="2.53068">
        <ele>659</ele>
        <time>2010-01-01T00:37:06Z</time>
      </trkpt>
      <trkpt lat="42.13924" lon="2.53086">
        <ele>660</ele>
        <time>2010-01-01T00:37:11Z</time>
      </trkpt>
      <trkpt lat="42.13917" lon="2.53087">
        <ele>658</ele>
        <time>2010-01-01T00:37:14Z</time>
      </trkpt>
      <trkpt lat="42.13914" lon="2.53084">
        <ele>658</ele>
        <time>2010-01-01T00:37:16Z</time>
      </trkpt>
      <trkpt lat="42.13914" lon="2.53086">
        <ele>658</ele>
        <time>2010-01-01T00:37:17Z</time>
      </trkpt>
      <trkpt lat="42.13912" lon="2.53087">
        <ele>657</ele>
        <time>2010-01-01T00:37:17Z</time>
      </trkpt>
      <trkpt lat="42.13905" lon="2.53085">
        <ele>656</ele>
        <time>2010-01-01T00:37:20Z</time>
      </trkpt>
      <trkpt lat="42.13904" lon="2.53085">
        <ele>656</ele>
        <time>2010-01-01T00:37:20Z</time>
      </trkpt>
      <trkpt lat="42.13875" lon="2.53086">
        <ele>654</ele>
        <time>2010-01-01T00:37:32Z</time>
      </trkpt>
      <trkpt lat="42.13858" lon="2.5309">
        <ele>656</ele>
        <time>2010-01-01T00:37:39Z</time>
      </trkpt>
      <trkpt lat="42.1383" lon="2.53096">
        <ele>658</ele>
        <time>2010-01-01T00:37:51Z</time>
      </trkpt>
      <trkpt lat="42.1381" lon="2.53101">
        <ele>659</ele>
        <time>2010-01-01T00:37:59Z</time>
      </trkpt>
      <trkpt lat="42.13784" lon="2.53098">
        <ele>661</ele>
        <time>2010-01-01T00:38:09Z</time>
      </trkpt>
      <trkpt lat="42.13759" lon="2.53094">
        <ele>663</ele>
        <time>2010-01-01T00:38:19Z</time>
      </trkpt>
      <trkpt lat="42.13748" lon="2.53093">
        <ele>665</ele>
        <time>2010-01-01T00:38:23Z</time>
      </trkpt>
      <trkpt lat="42.13728" lon="2.53092">
        <ele>668</ele>
        <time>2010-01-01T00:38:31Z</time>
      </trkpt>
      <trkpt lat="42.13707" lon="2.5309">
        <ele>671</ele>
        <time>2010-01-01T00:38:40Z</time>
      </trkpt>
      <trkpt lat="42.1369" lon="2.53089">
        <ele>672</ele>
        <time>2010-01-01T00:38:47Z</time>
      </trkpt>
      <trkpt lat="42.1367" lon="2.53085">
        <ele>677</ele>
        <time>2010-01-01T00:38:55Z</time>
      </trkpt>
      <trkpt lat="42.13659" lon="2.53085">
        <ele>679</ele>
        <time>2010-01-01T00:38:59Z</time>
      </trkpt>
      <trkpt lat="42.13634" lon="2.53079">
        <ele>682</ele>
        <time>2010-01-01T00:39:09Z</time>
      </trkpt>
      <trkpt lat="42.13613" lon="2.53078">
        <ele>682</ele>
        <time>2010-01-01T00:39:18Z</time>
      </trkpt>
      <trkpt lat="42.13596" lon="2.53073">
        <ele>684</ele>
        <time>2010-01-01T00:39:25Z</time>
      </trkpt>
      <trkpt lat="42.13581" lon="2.53068">
        <ele>687</ele>
        <time>2010-01-01T00:39:31Z</time>
      </trkpt>
      <trkpt lat="42.13561" lon="2.53071">
        <ele>688</ele>
        <time>2010-01-01T00:39:39Z</time>
      </trkpt>
      <trkpt lat="42.1354" lon="2.53078">
        <ele>689</ele>
        <time>2010-01-01T00:39:48Z</time>
      </trkpt>
      <trkpt lat="42.13522" lon="2.53084">
        <ele>690</ele>
        <time>2010-01-01T00:39:55Z</time>
      </trkpt>
      <trkpt lat="42.13513" lon="2.53095">
        <ele>690</ele>
        <time>2010-01-01T00:40:00Z</time>
      </trkpt>
      <trkpt lat="42.13501" lon="2.53119">
        <ele>688</ele>
        <time>2010-01-01T00:40:09Z</time>
      </trkpt>
      <trkpt lat="42.13497" lon="2.53145">
        <ele>685</ele>
        <time>2010-01-01T00:40:16Z</time>
      </trkpt>
      <trkpt lat="42.13494" lon="2.53162">
        <ele>684</ele>
        <time>2010-01-01T00:40:22Z</time>
      </trkpt>
      <trkpt lat="42.1348" lon="2.53181">
        <ele>685</ele>
        <time>2010-01-01T00:40:29Z</time>
      </trkpt>
      <trkpt lat="42.13466" lon="2.53194">
        <ele>688</ele>
        <time>2010-01-01T00:40:36Z</time>
      </trkpt>
      <trkpt lat="42.13456" lon="2.53209">
        <ele>689</ele>
        <time>2010-01-01T00:40:42Z</time>
      </trkpt>
      <trkpt lat="42.13449" lon="2.53224">
        <ele>689</ele>
        <time>2010-01-01T00:40:47Z</time>
      </trkpt>
      <trkpt lat="42.13442" lon="2.53247">
        <ele>691</ele>
        <time>2010-01-01T00:40:55Z</time>
      </trkpt>
      <trkpt lat="42.13438" lon="2.53261">
        <ele>692</ele>
        <time>2010-01-01T00:40:59Z</time>
      </trkpt>
      <trkpt lat="42.1343" lon="2.53273">
        <ele>695</ele>
        <time>2010-01-01T00:41:04Z</time>
      </trkpt>
      <trkpt lat="42.13421" lon="2.53288">
        <ele>699</ele>
        <time>2010-01-01T00:41:10Z</time>
      </trkpt>
      <trkpt lat="42.13412" lon="2.53304">
        <ele>703</ele>
        <time>2010-01-01T00:41:16Z</time>
      </trkpt>
      <trkpt lat="42.13408" lon="2.53317">
        <ele>705</ele>
        <time>2010-01-01T00:41:20Z</time>
      </trkpt>
      <trkpt lat="42.13402" lon="2.53337">
        <ele>707</ele>
        <time>2010-01-01T00:41:26Z</time>
      </trkpt>
      <trkpt lat="42.13407" lon="2.53349">
        <ele>706</ele>
        <time>2010-01-01T00:41:30Z</time>
      </trkpt>
      <trkpt lat="42.13406" lon="2.53359">
        <ele>706</ele>
        <time>2010-01-01T00:41:33Z</time>
      </trkpt>
      <trkpt lat="42.13405" lon="2.53362">
        <ele>707</ele>
        <time>2010-01-01T00:41:34Z</time>
      </trkpt>
      <trkpt lat="42.13404" lon="2.5337">
        <ele>709</ele>
        <time>2010-01-01T00:41:37Z</time>
      </trkpt>
      <trkpt lat="42.13405" lon="2.53371">
        <ele>709</ele>
        <time>2010-01-01T00:41:37Z</time>
      </trkpt>
      <trkpt lat="42.13403" lon="2.53388">
        <ele>713</ele>
        <time>2010-01-01T00:41:42Z</time>
      </trkpt>
      <trkpt lat="42.13402" lon="2.53401">
        <ele>716</ele>
        <time>2010-01-01T00:41:46Z</time>
      </trkpt>
      <trkpt lat="42.13398" lon="2.53411">
        <ele>720</ele>
        <time>2010-01-01T00:41:49Z</time>
      </trkpt>
      <trkpt lat="42.134" lon="2.5342">
        <ele>721</ele>
        <time>2010-01-01T00:41:52Z</time>
      </trkpt>
      <trkpt lat="42.13404" lon="2.5343">
        <ele>721</ele>
        <time>2010-01-01T00:41:55Z</time>
      </trkpt>
      <trkpt lat="42.13402" lon="2.53439">
        <ele>723</ele>
        <time>2010-01-01T00:41:58Z</time>
      </trkpt>
      <trkpt lat="42.13402" lon="2.53439">
        <ele>723</ele>
        <time>2010-01-01T00:41:58Z</time>
      </trkpt>
      <trkpt lat="42.13406" lon="2.53447">
        <ele>722</ele>
        <time>2010-01-01T00:42:01Z</time>
      </trkpt>
      <trkpt lat="42.13411" lon="2.53456">
        <ele>721</ele>
        <time>2010-01-01T00:42:04Z</time>
      </trkpt>
      <trkpt lat="42.13417" lon="2.53461">
        <ele>720</ele>
        <time>2010-01-01T00:42:07Z</time>
      </trkpt>
      <trkpt lat="42.13418" lon="2.53473">
        <ele>721</ele>
        <time>2010-01-01T00:42:10Z</time>
      </trkpt>
      <trkpt lat="42.13414" lon="2.53489">
        <ele>724</ele>
        <time>2010-01-01T00:42:15Z</time>
      </trkpt>
      <trkpt lat="42.13409" lon="2.53504">
        <ele>727</ele>
        <time>2010-01-01T00:42:20Z</time>
      </trkpt>
      <trkpt lat="42.13407" lon="2.53518">
        <ele>727</ele>
        <time>2010-01-01T00:42:25Z</time>
      </trkpt>
      <trkpt lat="42.134" lon="2.53534">
        <ele>728</ele>
        <time>2010-01-01T00:42:30Z</time>
      </trkpt>
      <trkpt lat="42.13394" lon="2.5355">
        <ele>728</ele>
        <time>2010-01-01T00:42:35Z</time>
      </trkpt>
      <trkpt lat="42.13387" lon="2.53565">
        <ele>727</ele>
        <time>2010-01-01T00:42:41Z</time>
      </trkpt>
      <trkpt lat="42.13379" lon="2.53582">
        <ele>727</ele>
        <time>2010-01-01T00:42:47Z</time>
      </trkpt>
      <trkpt lat="42.13366" lon="2.53595">
        <ele>728</ele>
        <time>2010-01-01T00:42:53Z</time>
      </trkpt>
      <trkpt lat="42.13353" lon="2.5361">
        <ele>730</ele>
        <time>2010-01-01T00:43:00Z</time>
      </trkpt>
      <trkpt lat="42.13346" lon="2.53615">
        <ele>730</ele>
        <time>2010-01-01T00:43:03Z</time>
      </trkpt>
      <trkpt lat="42.13331" lon="2.53632">
        <ele>730</ele>
        <time>2010-01-01T00:43:11Z</time>
      </trkpt>
      <trkpt lat="42.13327" lon="2.53645">
        <ele>728</ele>
        <time>2010-01-01T00:43:15Z</time>
      </trkpt>
      <trkpt lat="42.13311" lon="2.53654">
        <ele>730</ele>
        <time>2010-01-01T00:43:22Z</time>
      </trkpt>
      <trkpt lat="42.13308" lon="2.53665">
        <ele>729</ele>
        <time>2010-01-01T00:43:26Z</time>
      </trkpt>
      <trkpt lat="42.13315" lon="2.53672">
        <ele>727</ele>
        <time>2010-01-01T00:43:29Z</time>
      </trkpt>
      <trkpt lat="42.13318" lon="2.5369">
        <ele>726</ele>
        <time>2010-01-01T00:43:35Z</time>
      </trkpt>
      <trkpt lat="42.13323" lon="2.53703">
        <ele>725</ele>
        <time>2010-01-01T00:43:39Z</time>
      </trkpt>
      <trkpt lat="42.13334" lon="2.53723">
        <ele>724</ele>
        <time>2010-01-01T00:43:46Z</time>
      </trkpt>
      <trkpt lat="42.13341" lon="2.53741">
        <ele>722</ele>
        <time>2010-01-01T00:43:53Z</time>
      </trkpt>
      <trkpt lat="42.13348" lon="2.53763">
        <ele>721</ele>
        <time>2010-01-01T00:44:00Z</time>
      </trkpt>
      <trkpt lat="42.13352" lon="2.53781">
        <ele>721</ele>
        <time>2010-01-01T00:44:05Z</time>
      </trkpt>
      <trkpt lat="42.13358" lon="2.53791">
        <ele>719</ele>
        <time>2010-01-01T00:44:09Z</time>
      </trkpt>
      <trkpt lat="42.13359" lon="2.53809">
        <ele>719</ele>
        <time>2010-01-01T00:44:14Z</time>
      </trkpt>
      <trkpt lat="42.13359" lon="2.53831">
        <ele>719</ele>
        <time>2010-01-01T00:44:21Z</time>
      </trkpt>
      <trkpt lat="42.13362" lon="2.53851">
        <ele>717</ele>
        <time>2010-01-01T00:44:27Z</time>
      </trkpt>
      <trkpt lat="42.13355" lon="2.53868">
        <ele>719</ele>
        <time>2010-01-01T00:44:33Z</time>
      </trkpt>
      <trkpt lat="42.1335" lon="2.53884">
        <ele>721</ele>
        <time>2010-01-01T00:44:38Z</time>
      </trkpt>
      <trkpt lat="42.13342" lon="2.53896">
        <ele>722</ele>
        <time>2010-01-01T00:44:43Z</time>
      </trkpt>
      <trkpt lat="42.13342" lon="2.53899">
        <ele>722</ele>
        <time>2010-01-01T00:44:43Z</time>
      </trkpt>
      <trkpt lat="42.13339" lon="2.53911">
        <ele>721</ele>
        <time>2010-01-01T00:44:47Z</time>
      </trkpt>
      <trkpt lat="42.13332" lon="2.53933">
        <ele>718</ele>
        <time>2010-01-01T00:44:54Z</time>
      </trkpt>
      <trkpt lat="42.13335" lon="2.53957">
        <ele>713</ele>
        <time>2010-01-01T00:45:02Z</time>
      </trkpt>
      <trkpt lat="42.1334" lon="2.53975">
        <ele>709</ele>
        <time>2010-01-01T00:45:07Z</time>
      </trkpt>
      <trkpt lat="42.13344" lon="2.53993">
        <ele>708</ele>
        <time>2010-01-01T00:45:13Z</time>
      </trkpt>
      <trkpt lat="42.13346" lon="2.54006">
        <ele>707</ele>
        <time>2010-01-01T00:45:17Z</time>
      </trkpt>
      <trkpt lat="42.13347" lon="2.54016">
        <ele>706</ele>
        <time>2010-01-01T00:45:20Z</time>
      </trkpt>
      <trkpt lat="42.13347" lon="2.54025">
        <ele>706</ele>
        <time>2010-01-01T00:45:22Z</time>
      </trkpt>
      <trkpt lat="42.13344" lon="2.54041">
        <ele>707</ele>
        <time>2010-01-01T00:45:27Z</time>
      </trkpt>
      <trkpt lat="42.13342" lon="2.54055">
        <ele>707</ele>
        <time>2010-01-01T00:45:32Z</time>
      </trkpt>
      <trkpt lat="42.13351" lon="2.54078">
        <ele>705</ele>
        <time>2010-01-01T00:45:39Z</time>
      </trkpt>
      <trkpt lat="42.1336" lon="2.54097">
        <ele>704</ele>
        <time>2010-01-01T00:45:46Z</time>
      </trkpt>
      <trkpt lat="42.13365" lon="2.54116">
        <ele>703</ele>
        <time>2010-01-01T00:45:52Z</time>
      </trkpt>
      <trkpt lat="42.13378" lon="2.54134">
        <ele>700</ele>
        <time>2010-01-01T00:45:59Z</time>
      </trkpt>
      <trkpt lat="42.13384" lon="2.54153">
        <ele>699</ele>
        <time>2010-01-01T00:46:05Z</time>
      </trkpt>
      <trkpt lat="42.13385" lon="2.54158">
        <ele>699</ele>
        <time>2010-01-01T00:46:07Z</time>
      </trkpt>
      <trkpt lat="42.13386" lon="2.54169">
        <ele>699</ele>
        <time>2010-01-01T00:46:10Z</time>
      </trkpt>
      <trkpt lat="42.13387" lon="2.5417">
        <ele>699</ele>
        <time>2010-01-01T00:46:11Z</time>
      </trkpt>
      <trkpt lat="42.13386" lon="2.5417">
        <ele>699</ele>
        <time>2010-01-01T00:46:11Z</time>
      </trkpt>
      <trkpt lat="42.13386" lon="2.54171">
        <ele>699</ele>
        <time>2010-01-01T00:46:11Z</time>
      </trkpt>
      <trkpt lat="42.13385" lon="2.54171">
        <ele>700</ele>
        <time>2010-01-01T00:46:11Z</time>
      </trkpt>
      <trkpt lat="42.13384" lon="2.5418">
        <ele>700</ele>
        <time>2010-01-01T00:46:14Z</time>
      </trkpt>
      <trkpt lat="42.13385" lon="2.54196">
        <ele>701</ele>
        <time>2010-01-01T00:46:19Z</time>
      </trkpt>
      <trkpt lat="42.13382" lon="2.54218">
        <ele>700</ele>
        <time>2010-01-01T00:46:25Z</time>
      </trkpt>
      <trkpt lat="42.13381" lon="2.5423">
        <ele>699</ele>
        <time>2010-01-01T00:46:29Z</time>
      </trkpt>
      <trkpt lat="42.13376" lon="2.54234">
        <ele>700</ele>
        <time>2010-01-01T00:46:31Z</time>
      </trkpt>
      <trkpt lat="42.13359" lon="2.54241">
        <ele>703</ele>
        <time>2010-01-01T00:46:38Z</time>
      </trkpt>
      <trkpt lat="42.13342" lon="2.54247">
        <ele>708</ele>
        <time>2010-01-01T00:46:45Z</time>
      </trkpt>
      <trkpt lat="42.13328" lon="2.54252">
        <ele>712</ele>
        <time>2010-01-01T00:46:51Z</time>
      </trkpt>
      <trkpt lat="42.13324" lon="2.54255">
        <ele>713</ele>
        <time>2010-01-01T00:46:53Z</time>
      </trkpt>
      <trkpt lat="42.13308" lon="2.54266">
        <ele>716</ele>
        <time>2010-01-01T00:47:00Z</time>
      </trkpt>
      <trkpt lat="42.13294" lon="2.54282">
        <ele>719</ele>
        <time>2010-01-01T00:47:08Z</time>
      </trkpt>
      <trkpt lat="42.13286" lon="2.54289">
        <ele>722</ele>
        <time>2010-01-01T00:47:11Z</time>
      </trkpt>
      <trkpt lat="42.13275" lon="2.5431">
        <ele>725</ele>
        <time>2010-01-01T00:47:19Z</time>
      </trkpt>
      <trkpt lat="42.13271" lon="2.5432">
        <ele>725</ele>
        <time>2010-01-01T00:47:22Z</time>
      </trkpt>
      <trkpt lat="42.13266" lon="2.54343">
        <ele>723</ele>
        <time>2010-01-01T00:47:29Z</time>
      </trkpt>
      <trkpt lat="42.13259" lon="2.54356">
        <ele>723</ele>
        <time>2010-01-01T00:47:34Z</time>
      </trkpt>
      <trkpt lat="42.13251" lon="2.54371">
        <ele>724</ele>
        <time>2010-01-01T00:47:40Z</time>
      </trkpt>
      <trkpt lat="42.13242" lon="2.54381">
        <ele>723</ele>
        <time>2010-01-01T00:47:44Z</time>
      </trkpt>
      <trkpt lat="42.13229" lon="2.54392">
        <ele>723</ele>
        <time>2010-01-01T00:47:51Z</time>
      </trkpt>
      <trkpt lat="42.13212" lon="2.54387">
        <ele>727</ele>
        <time>2010-01-01T00:47:58Z</time>
      </trkpt>
      <trkpt lat="42.13208" lon="2.54385">
        <ele>728</ele>
        <time>2010-01-01T00:47:59Z</time>
      </trkpt>
      <trkpt lat="42.13192" lon="2.54378">
        <ele>731</ele>
        <time>2010-01-01T00:48:06Z</time>
      </trkpt>
      <trkpt lat="42.13181" lon="2.54371">
        <ele>734</ele>
        <time>2010-01-01T00:48:11Z</time>
      </trkpt>
      <trkpt lat="42.13168" lon="2.5436">
        <ele>738</ele>
        <time>2010-01-01T00:48:17Z</time>
      </trkpt>
      <trkpt lat="42.13157" lon="2.54347">
        <ele>742</ele>
        <time>2010-01-01T00:48:23Z</time>
      </trkpt>
      <trkpt lat="42.13146" lon="2.54337">
        <ele>746</ele>
        <time>2010-01-01T00:48:28Z</time>
      </trkpt>
      <trkpt lat="42.13135" lon="2.54332">
        <ele>748</ele>
        <time>2010-01-01T00:48:33Z</time>
      </trkpt>
      <trkpt lat="42.13123" lon="2.54331">
        <ele>750</ele>
        <time>2010-01-01T00:48:38Z</time>
      </trkpt>
      <trkpt lat="42.13111" lon="2.54331">
        <ele>750</ele>
        <time>2010-01-01T00:48:42Z</time>
      </trkpt>
      <trkpt lat="42.13097" lon="2.54331">
        <ele>753</ele>
        <time>2010-01-01T00:48:48Z</time>
      </trkpt>
      <trkpt lat="42.13088" lon="2.5433">
        <ele>755</ele>
        <time>2010-01-01T00:48:52Z</time>
      </trkpt>
      <trkpt lat="42.13077" lon="2.54337">
        <ele>756</ele>
        <time>2010-01-01T00:48:56Z</time>
      </trkpt>
      <trkpt lat="42.13073" lon="2.54339">
        <ele>757</ele>
        <time>2010-01-01T00:48:58Z</time>
      </trkpt>
      <trkpt lat="42.13055" lon="2.54339">
        <ele>763</ele>
        <time>2010-01-01T00:49:05Z</time>
      </trkpt>
      <trkpt lat="42.13042" lon="2.54342">
        <ele>766</ele>
        <time>2010-01-01T00:49:11Z</time>
      </trkpt>
      <trkpt lat="42.13039" lon="2.54343">
        <ele>766</ele>
        <time>2010-01-01T00:49:12Z</time>
      </trkpt>
      <trkpt lat="42.1303" lon="2.54345">
        <ele>768</ele>
        <time>2010-01-01T00:49:16Z</time>
      </trkpt>
      <trkpt lat="42.13023" lon="2.54348">
        <ele>769</ele>
        <time>2010-01-01T00:49:18Z</time>
      </trkpt>
      <trkpt lat="42.13013" lon="2.5435">
        <ele>770</ele>
        <time>2010-01-01T00:49:23Z</time>
      </trkpt>
      <trkpt lat="42.13003" lon="2.54353">
        <ele>771</ele>
        <time>2010-01-01T00:49:27Z</time>
      </trkpt>
      <trkpt lat="42.12993" lon="2.54355">
        <ele>773</ele>
        <time>2010-01-01T00:49:31Z</time>
      </trkpt>
      <trkpt lat="42.12985" lon="2.54354">
        <ele>776</ele>
        <time>2010-01-01T00:49:34Z</time>
      </trkpt>
      <trkpt lat="42.12983" lon="2.54344">
        <ele>783</ele>
        <time>2010-01-01T00:49:37Z</time>
      </trkpt>
      <trkpt lat="42.12974" lon="2.54341">
        <ele>787</ele>
        <time>2010-01-01T00:49:41Z</time>
      </trkpt>
      <trkpt lat="42.12967" lon="2.54342">
        <ele>789</ele>
        <time>2010-01-01T00:49:44Z</time>
      </trkpt>
      <trkpt lat="42.12956" lon="2.54347">
        <ele>791</ele>
        <time>2010-01-01T00:49:48Z</time>
      </trkpt>
      <trkpt lat="42.12948" lon="2.54352">
        <ele>792</ele>
        <time>2010-01-01T00:49:52Z</time>
      </trkpt>
      <trkpt lat="42.12943" lon="2.54354">
        <ele>793</ele>
        <time>2010-01-01T00:49:54Z</time>
      </trkpt>
      <trkpt lat="42.12936" lon="2.54356">
        <ele>794</ele>
        <time>2010-01-01T00:49:57Z</time>
      </trkpt>
      <trkpt lat="42.12927" lon="2.54362">
        <ele>794</ele>
        <time>2010-01-01T00:50:01Z</time>
      </trkpt>
      <trkpt lat="42.1292" lon="2.54364">
        <ele>795</ele>
        <time>2010-01-01T00:50:03Z</time>
      </trkpt>
      <trkpt lat="42.12912" lon="2.5437">
        <ele>794</ele>
        <time>2010-01-01T00:50:07Z</time>
      </trkpt>
      <trkpt lat="42.12905" lon="2.5437">
        <ele>796</ele>
        <time>2010-01-01T00:50:10Z</time>
      </trkpt>
      <trkpt lat="42.12895" lon="2.5437">
        <ele>800</ele>
        <time>2010-01-01T00:50:14Z</time>
      </trkpt>
      <trkpt lat="42.12887" lon="2.54371">
        <ele>802</ele>
        <time>2010-01-01T00:50:17Z</time>
      </trkpt>
      <trkpt lat="42.12878" lon="2.54369">
        <ele>805</ele>
        <time>2010-01-01T00:50:21Z</time>
      </trkpt>
      <trkpt lat="42.12866" lon="2.54365">
        <ele>810</ele>
        <time>2010-01-01T00:50:26Z</time>
      </trkpt>
      <trkpt lat="42.12854" lon="2.54365">
        <ele>815</ele>
        <time>2010-01-01T00:50:30Z</time>
      </trkpt>
      <trkpt lat="42.12846" lon="2.54367">
        <ele>817</ele>
        <time>2010-01-01T00:50:34Z</time>
      </trkpt>
      <trkpt lat="42.1284" lon="2.54368">
        <ele>819</ele>
        <time>2010-01-01T00:50:36Z</time>
      </trkpt>
      <trkpt lat="42.12835" lon="2.54368">
        <ele>822</ele>
        <time>2010-01-01T00:50:38Z</time>
      </trkpt>
      <trkpt lat="42.12828" lon="2.54371">
        <ele>824</ele>
        <time>2010-01-01T00:50:41Z</time>
      </trkpt>
      <trkpt lat="42.12821" lon="2.54377">
        <ele>824</ele>
        <time>2010-01-01T00:50:45Z</time>
      </trkpt>
      <trkpt lat="42.12813" lon="2.54387">
        <ele>824</ele>
        <time>2010-01-01T00:50:49Z</time>
      </trkpt>
      <trkpt lat="42.12808" lon="2.54393">
        <ele>825</ele>
        <time>2010-01-01T00:50:52Z</time>
      </trkpt>
      <trkpt lat="42.12798" lon="2.54393">
        <ele>829</ele>
        <time>2010-01-01T00:50:56Z</time>
      </trkpt>
      <trkpt lat="42.1279" lon="2.54392">
        <ele>832</ele>
        <time>2010-01-01T00:50:59Z</time>
      </trkpt>
      <trkpt lat="42.12784" lon="2.54396">
        <ele>833</ele>
        <time>2010-01-01T00:51:02Z</time>
      </trkpt>
      <trkpt lat="42.12775" lon="2.54394">
        <ele>837</ele>
        <time>2010-01-01T00:51:05Z</time>
      </trkpt>
      <trkpt lat="42.12775" lon="2.54394">
        <ele>837</ele>
        <time>2010-01-01T00:51:06Z</time>
      </trkpt>
      <trkpt lat="42.12774" lon="2.54393">
        <ele>838</ele>
        <time>2010-01-01T00:51:06Z</time>
      </trkpt>
      <trkpt lat="42.12776" lon="2.54392">
        <ele>837</ele>
        <time>2010-01-01T00:51:06Z</time>
      </trkpt>
      <trkpt lat="42.12781" lon="2.54403">
        <ele>833</ele>
        <time>2010-01-01T00:51:10Z</time>
      </trkpt>
      <trkpt lat="42.1278" lon="2.54403">
        <ele>833</ele>
        <time>2010-01-01T00:51:10Z</time>
      </trkpt>
      <trkpt lat="42.12779" lon="2.54404">
        <ele>833</ele>
        <time>2010-01-01T00:51:11Z</time>
      </trkpt>
      <trkpt lat="42.12782" lon="2.54392">
        <ele>835</ele>
        <time>2010-01-01T00:51:15Z</time>
      </trkpt>
      <trkpt lat="42.12779" lon="2.54377">
        <ele>839</ele>
        <time>2010-01-01T00:51:19Z</time>
      </trkpt>
      <trkpt lat="42.12776" lon="2.54378">
        <ele>840</ele>
        <time>2010-01-01T00:51:20Z</time>
      </trkpt>
      <trkpt lat="42.12765" lon="2.54392">
        <ele>843</ele>
        <time>2010-01-01T00:51:26Z</time>
      </trkpt>
      <trkpt lat="42.12755" lon="2.54417">
        <ele>844</ele>
        <time>2010-01-01T00:51:35Z</time>
      </trkpt>
      <trkpt lat="42.12749" lon="2.54434">
        <ele>844</ele>
        <time>2010-01-01T00:51:40Z</time>
      </trkpt>
      <trkpt lat="42.1274" lon="2.54451">
        <ele>845</ele>
        <time>2010-01-01T00:51:47Z</time>
      </trkpt>
      <trkpt lat="42.12727" lon="2.54468">
        <ele>846</ele>
        <time>2010-01-01T00:51:54Z</time>
      </trkpt>
      <trkpt lat="42.12714" lon="2.54474">
        <ele>849</ele>
        <time>2010-01-01T00:51:59Z</time>
      </trkpt>
      <trkpt lat="42.12713" lon="2.54475">
        <ele>849</ele>
        <time>2010-01-01T00:52:00Z</time>
      </trkpt>
      <trkpt lat="42.12695" lon="2.54487">
        <ele>851</ele>
        <time>2010-01-01T00:52:08Z</time>
      </trkpt>
      <trkpt lat="42.12684" lon="2.54496">
        <ele>852</ele>
        <time>2010-01-01T00:52:13Z</time>
      </trkpt>
      <trkpt lat="42.12667" lon="2.54507">
        <ele>853</ele>
        <time>2010-01-01T00:52:21Z</time>
      </trkpt>
      <trkpt lat="42.12651" lon="2.54513">
        <ele>856</ele>
        <time>2010-01-01T00:52:27Z</time>
      </trkpt>
      <trkpt lat="42.12636" lon="2.54516">
        <ele>859</ele>
        <time>2010-01-01T00:52:33Z</time>
      </trkpt>
      <trkpt lat="42.12632" lon="2.54513">
        <ele>861</ele>
        <time>2010-01-01T00:52:35Z</time>
      </trkpt>
      <trkpt lat="42.12618" lon="2.54515">
        <ele>863</ele>
        <time>2010-01-01T00:52:41Z</time>
      </trkpt>
      <trkpt lat="42.12601" lon="2.54512">
        <ele>867</ele>
        <time>2010-01-01T00:52:47Z</time>
      </trkpt>
      <trkpt lat="42.12588" lon="2.54507">
        <ele>871</ele>
        <time>2010-01-01T00:52:53Z</time>
      </trkpt>
      <trkpt lat="42.12584" lon="2.54508">
        <ele>871</ele>
        <time>2010-01-01T00:52:54Z</time>
      </trkpt>
      <trkpt lat="42.1257" lon="2.5451">
        <ele>875</ele>
        <time>2010-01-01T00:53:00Z</time>
      </trkpt>
      <trkpt lat="42.12554" lon="2.54514">
        <ele>879</ele>
        <time>2010-01-01T00:53:07Z</time>
      </trkpt>
      <trkpt lat="42.12539" lon="2.54511">
        <ele>884</ele>
        <time>2010-01-01T00:53:13Z</time>
      </trkpt>
      <trkpt lat="42.12535" lon="2.54517">
        <ele>885</ele>
        <time>2010-01-01T00:53:15Z</time>
      </trkpt>
      <trkpt lat="42.12533" lon="2.54527">
        <ele>884</ele>
        <time>2010-01-01T00:53:18Z</time>
      </trkpt>
      <trkpt lat="42.12535" lon="2.54523">
        <ele>884</ele>
        <time>2010-01-01T00:53:20Z</time>
      </trkpt>
      <trkpt lat="42.12547" lon="2.54534">
        <ele>879</ele>
        <time>2010-01-01T00:53:26Z</time>
      </trkpt>
      <trkpt lat="42.12551" lon="2.54535">
        <ele>878</ele>
        <time>2010-01-01T00:53:27Z</time>
      </trkpt>
      <trkpt lat="42.12555" lon="2.54548">
        <ele>876</ele>
        <time>2010-01-01T00:53:31Z</time>
      </trkpt>
      <trkpt lat="42.12553" lon="2.54563">
        <ele>877</ele>
        <time>2010-01-01T00:53:36Z</time>
      </trkpt>
      <trkpt lat="42.12553" lon="2.54566">
        <ele>877</ele>
        <time>2010-01-01T00:53:37Z</time>
      </trkpt>
      <trkpt lat="42.12555" lon="2.54582">
        <ele>879</ele>
        <time>2010-01-01T00:53:42Z</time>
      </trkpt>
      <trkpt lat="42.12555" lon="2.54594">
        <ele>881</ele>
        <time>2010-01-01T00:53:45Z</time>
      </trkpt>
      <trkpt lat="42.12557" lon="2.546">
        <ele>883</ele>
        <time>2010-01-01T00:53:47Z</time>
      </trkpt>
      <trkpt lat="42.12562" lon="2.54612">
        <ele>885</ele>
        <time>2010-01-01T00:53:52Z</time>
      </trkpt>
      <trkpt lat="42.12573" lon="2.54621">
        <ele>886</ele>
        <time>2010-01-01T00:53:57Z</time>
      </trkpt>
      <trkpt lat="42.12583" lon="2.54631">
        <ele>887</ele>
        <time>2010-01-01T00:54:02Z</time>
      </trkpt>
      <trkpt lat="42.126" lon="2.5463">
        <ele>884</ele>
        <time>2010-01-01T00:54:08Z</time>
      </trkpt>
      <trkpt lat="42.12602" lon="2.5463">
        <ele>884</ele>
        <time>2010-01-01T00:54:09Z</time>
      </trkpt>
      <trkpt lat="42.12617" lon="2.54644">
        <ele>884</ele>
        <time>2010-01-01T00:54:16Z</time>
      </trkpt>
      <trkpt lat="42.12623" lon="2.5465">
        <ele>883</ele>
        <time>2010-01-01T00:54:19Z</time>
      </trkpt>
      <trkpt lat="42.1264" lon="2.54655">
        <ele>878</ele>
        <time>2010-01-01T00:54:26Z</time>
      </trkpt>
      <trkpt lat="42.12652" lon="2.54662">
        <ele>875</ele>
        <time>2010-01-01T00:54:32Z</time>
      </trkpt>
      <trkpt lat="42.12665" lon="2.54667">
        <ele>872</ele>
        <time>2010-01-01T00:54:37Z</time>
      </trkpt>
      <trkpt lat="42.12677" lon="2.54672">
        <ele>870</ele>
        <time>2010-01-01T00:54:42Z</time>
      </trkpt>
      <trkpt lat="42.12686" lon="2.5468">
        <ele>868</ele>
        <time>2010-01-01T00:54:46Z</time>
      </trkpt>
      <trkpt lat="42.12703" lon="2.54667">
        <ele>864</ele>
        <time>2010-01-01T00:54:54Z</time>
      </trkpt>
      <trkpt lat="42.12717" lon="2.54656">
        <ele>860</ele>
        <time>2010-01-01T00:55:01Z</time>
      </trkpt>
      <trkpt lat="42.12722" lon="2.54655">
        <ele>858</ele>
        <time>2010-01-01T00:55:03Z</time>
      </trkpt>
      <trkpt lat="42.12726" lon="2.54658">
        <ele>855</ele>
        <time>2010-01-01T00:55:05Z</time>
      </trkpt>
      <trkpt lat="42.12726" lon="2.54658">
        <ele>855</ele>
        <time>2010-01-01T00:55:05Z</time>
      </trkpt>
      <trkpt lat="42.12726" lon="2.54658">
        <ele>855</ele>
        <time>2010-01-01T00:55:05Z</time>
      </trkpt>
      <trkpt lat="42.12727" lon="2.54658">
        <ele>855</ele>
        <time>2010-01-01T00:55:05Z</time>
      </trkpt>
      <trkpt lat="42.12726" lon="2.54657">
        <ele>856</ele>
        <time>2010-01-01T00:55:05Z</time>
      </trkpt>
      <trkpt lat="42.12726" lon="2.54658">
        <ele>855</ele>
        <time>2010-01-01T00:55:06Z</time>
      </trkpt>
      <trkpt lat="42.12726" lon="2.5466">
        <ele>855</ele>
        <time>2010-01-01T00:55:06Z</time>
      </trkpt>
      <trkpt lat="42.12728" lon="2.54659">
        <ele>854</ele>
        <time>2010-01-01T00:55:07Z</time>
      </trkpt>
      <trkpt lat="42.12725" lon="2.54659">
        <ele>856</ele>
        <time>2010-01-01T00:55:08Z</time>
      </trkpt>
      <trkpt lat="42.12725" lon="2.54658">
        <ele>856</ele>
        <time>2010-01-01T00:55:08Z</time>
      </trkpt>
      <trkpt lat="42.12725" lon="2.54662">
        <ele>855</ele>
        <time>2010-01-01T00:55:10Z</time>
      </trkpt>
      <trkpt lat="42.12725" lon="2.54667">
        <ele>855</ele>
        <time>2010-01-01T00:55:11Z</time>
      </trkpt>
      <trkpt lat="42.12723" lon="2.54673">
        <ele>855</ele>
        <time>2010-01-01T00:55:13Z</time>
      </trkpt>
      <trkpt lat="42.12724" lon="2.54668">
        <ele>855</ele>
        <time>2010-01-01T00:55:14Z</time>
      </trkpt>
      <trkpt lat="42.12724" lon="2.54666">
        <ele>855</ele>
        <time>2010-01-01T00:55:15Z</time>
      </trkpt>
      <trkpt lat="42.12725" lon="2.54668">
        <ele>855</ele>
        <time>2010-01-01T00:55:16Z</time>
      </trkpt>
      <trkpt lat="42.12724" lon="2.54668">
        <ele>855</ele>
        <time>2010-01-01T00:55:16Z</time>
      </trkpt>
      <trkpt lat="42.12724" lon="2.54663">
        <ele>856</ele>
        <time>2010-01-01T00:55:17Z</time>
      </trkpt>
      <trkpt lat="42.12728" lon="2.54667">
        <ele>853</ele>
        <time>2010-01-01T00:55:19Z</time>
      </trkpt>
      <trkpt lat="42.12725" lon="2.54662">
        <ele>856</ele>
        <time>2010-01-01T00:55:21Z</time>
      </trkpt>
      <trkpt lat="42.12725" lon="2.54662">
        <ele>856</ele>
        <time>2010-01-01T00:55:21Z</time>
      </trkpt>
      <trkpt lat="42.12725" lon="2.54662">
        <ele>855</ele>
        <time>2010-01-01T00:55:21Z</time>
      </trkpt>
      <trkpt lat="42.12725" lon="2.54662">
        <ele>855</ele>
        <time>2010-01-01T00:55:21Z</time>
      </trkpt>
      <trkpt lat="42.12726" lon="2.5466">
        <ele>855</ele>
        <time>2010-01-01T00:55:22Z</time>
      </trkpt>
      <trkpt lat="42.12726" lon="2.5466">
        <ele>855</ele>
        <time>2010-01-01T00:55:22Z</time>
      </trkpt>
      <trkpt lat="42.12725" lon="2.54659">
        <ele>856</ele>
        <time>2010-01-01T00:55:22Z</time>
      </trkpt>
      <trkpt lat="42.1272" lon="2.54656">
        <ele>859</ele>
        <time>2010-01-01T00:55:25Z</time>
      </trkpt>
      <trkpt lat="42.12711" lon="2.54658">
        <ele>861</ele>
        <time>2010-01-01T00:55:28Z</time>
      </trkpt>
      <trkpt lat="42.12703" lon="2.54662">
        <ele>864</ele>
        <time>2010-01-01T00:55:32Z</time>
      </trkpt>
      <trkpt lat="42.12697" lon="2.54686">
        <ele>865</ele>
        <time>2010-01-01T00:55:39Z</time>
      </trkpt>
      <trkpt lat="42.12688" lon="2.54703">
        <ele>866</ele>
        <time>2010-01-01T00:55:46Z</time>
      </trkpt>
      <trkpt lat="42.12681" lon="2.54713">
        <ele>868</ele>
        <time>2010-01-01T00:55:50Z</time>
      </trkpt>
      <trkpt lat="42.12669" lon="2.54716">
        <ele>873</ele>
        <time>2010-01-01T00:55:55Z</time>
      </trkpt>
      <trkpt lat="42.12661" lon="2.54732">
        <ele>874</ele>
        <time>2010-01-01T00:56:00Z</time>
      </trkpt>
      <trkpt lat="42.12654" lon="2.54752">
        <ele>873</ele>
        <time>2010-01-01T00:56:07Z</time>
      </trkpt>
      <trkpt lat="42.12654" lon="2.54771">
        <ele>866</ele>
        <time>2010-01-01T00:56:12Z</time>
      </trkpt>
      <trkpt lat="42.12647" lon="2.54774">
        <ele>868</ele>
        <time>2010-01-01T00:56:15Z</time>
      </trkpt>
      <trkpt lat="42.12638" lon="2.54776">
        <ele>872</ele>
        <time>2010-01-01T00:56:19Z</time>
      </trkpt>
      <trkpt lat="42.12634" lon="2.5478">
        <ele>871</ele>
        <time>2010-01-01T00:56:21Z</time>
      </trkpt>
      <trkpt lat="42.12628" lon="2.54798">
        <ele>865</ele>
        <time>2010-01-01T00:56:27Z</time>
      </trkpt>
      <trkpt lat="42.12615" lon="2.54809">
        <ele>867</ele>
        <time>2010-01-01T00:56:33Z</time>
      </trkpt>
      <trkpt lat="42.12609" lon="2.54817">
        <ele>866</ele>
        <time>2010-01-01T00:56:36Z</time>
      </trkpt>
      <trkpt lat="42.12609" lon="2.54818">
        <ele>865</ele>
        <time>2010-01-01T00:56:37Z</time>
      </trkpt>
      <trkpt lat="42.12603" lon="2.54829">
        <ele>862</ele>
        <time>2010-01-01T00:56:41Z</time>
      </trkpt>
      <trkpt lat="42.12594" lon="2.54844">
        <ele>857</ele>
        <time>2010-01-01T00:56:46Z</time>
      </trkpt>
      <trkpt lat="42.12589" lon="2.54852">
        <ele>855</ele>
        <time>2010-01-01T00:56:49Z</time>
      </trkpt>
      <trkpt lat="42.1258" lon="2.54863">
        <ele>854</ele>
        <time>2010-01-01T00:56:55Z</time>
      </trkpt>
      <trkpt lat="42.12575" lon="2.54879">
        <ele>850</ele>
        <time>2010-01-01T00:57:00Z</time>
      </trkpt>
      <trkpt lat="42.12575" lon="2.54882">
        <ele>849</ele>
        <time>2010-01-01T00:57:00Z</time>
      </trkpt>
      <trkpt lat="42.12577" lon="2.54902">
        <ele>841</ele>
        <time>2010-01-01T00:57:06Z</time>
      </trkpt>
      <trkpt lat="42.12576" lon="2.54923">
        <ele>835</ele>
        <time>2010-01-01T00:57:13Z</time>
      </trkpt>
      <trkpt lat="42.12564" lon="2.54935">
        <ele>837</ele>
        <time>2010-01-01T00:57:19Z</time>
      </trkpt>
      <trkpt lat="42.12563" lon="2.54935">
        <ele>838</ele>
        <time>2010-01-01T00:57:19Z</time>
      </trkpt>
      <trkpt lat="42.12551" lon="2.54936">
        <ele>844</ele>
        <time>2010-01-01T00:57:24Z</time>
      </trkpt>
      <trkpt lat="42.1254" lon="2.54944">
        <ele>846</ele>
        <time>2010-01-01T00:57:29Z</time>
      </trkpt>
      <trkpt lat="42.12534" lon="2.54958">
        <ele>845</ele>
        <time>2010-01-01T00:57:34Z</time>
      </trkpt>
      <trkpt lat="42.12527" lon="2.54975">
        <ele>842</ele>
        <time>2010-01-01T00:57:39Z</time>
      </trkpt>
      <trkpt lat="42.12516" lon="2.54988">
        <ele>840</ele>
        <time>2010-01-01T00:57:45Z</time>
      </trkpt>
      <trkpt lat="42.12505" lon="2.54992">
        <ele>842</ele>
        <time>2010-01-01T00:57:50Z</time>
      </trkpt>
      <trkpt lat="42.12491" lon="2.54998">
        <ele>844</ele>
        <time>2010-01-01T00:57:56Z</time>
      </trkpt>
      <trkpt lat="42.12475" lon="2.55011">
        <ele>843</ele>
        <time>2010-01-01T00:58:03Z</time>
      </trkpt>
      <trkpt lat="42.12469" lon="2.55025">
        <ele>840</ele>
        <time>2010-01-01T00:58:08Z</time>
      </trkpt>
      <trkpt lat="42.12467" lon="2.55034">
        <ele>838</ele>
        <time>2010-01-01T00:58:11Z</time>
      </trkpt>
      <trkpt lat="42.12463" lon="2.55047">
        <ele>836</ele>
        <time>2010-01-01T00:58:15Z</time>
      </trkpt>
      <trkpt lat="42.12461" lon="2.5505">
        <ele>836</ele>
        <time>2010-01-01T00:58:16Z</time>
      </trkpt>
      <trkpt lat="42.12443" lon="2.55061">
        <ele>840</ele>
        <time>2010-01-01T00:58:24Z</time>
      </trkpt>
      <trkpt lat="42.12433" lon="2.55067">
        <ele>841</ele>
        <time>2010-01-01T00:58:29Z</time>
      </trkpt>
      <trkpt lat="42.12422" lon="2.55083">
        <ele>839</ele>
        <time>2010-01-01T00:58:35Z</time>
      </trkpt>
      <trkpt lat="42.12419" lon="2.55087">
        <ele>838</ele>
        <time>2010-01-01T00:58:37Z</time>
      </trkpt>
      <trkpt lat="42.12406" lon="2.55094">
        <ele>841</ele>
        <time>2010-01-01T00:58:42Z</time>
      </trkpt>
      <trkpt lat="42.12398" lon="2.55112">
        <ele>838</ele>
        <time>2010-01-01T00:58:48Z</time>
      </trkpt>
      <trkpt lat="42.12384" lon="2.55137">
        <ele>836</ele>
        <time>2010-01-01T00:58:58Z</time>
      </trkpt>
      <trkpt lat="42.1237" lon="2.55158">
        <ele>842</ele>
        <time>2010-01-01T00:59:06Z</time>
      </trkpt>
      <trkpt lat="42.12365" lon="2.55168">
        <ele>843</ele>
        <time>2010-01-01T00:59:10Z</time>
      </trkpt>
      <trkpt lat="42.12361" lon="2.55184">
        <ele>844</ele>
        <time>2010-01-01T00:59:15Z</time>
      </trkpt>
      <trkpt lat="42.1236" lon="2.55187">
        <ele>845</ele>
        <time>2010-01-01T00:59:16Z</time>
      </trkpt>
      <trkpt lat="42.12355" lon="2.55203">
        <ele>848</ele>
        <time>2010-01-01T00:59:21Z</time>
      </trkpt>
      <trkpt lat="42.12359" lon="2.55206">
        <ele>845</ele>
        <time>2010-01-01T00:59:23Z</time>
      </trkpt>
      <trkpt lat="42.12361" lon="2.55215">
        <ele>845</ele>
        <time>2010-01-01T00:59:25Z</time>
      </trkpt>
      <trkpt lat="42.12369" lon="2.55222">
        <ele>842</ele>
        <time>2010-01-01T00:59:29Z</time>
      </trkpt>
      <trkpt lat="42.12376" lon="2.55237">
        <ele>844</ele>
        <time>2010-01-01T00:59:34Z</time>
      </trkpt>
      <trkpt lat="42.12379" lon="2.55249">
        <ele>846</ele>
        <time>2010-01-01T00:59:38Z</time>
      </trkpt>
      <trkpt lat="42.12379" lon="2.55261">
        <ele>848</ele>
        <time>2010-01-01T00:59:42Z</time>
      </trkpt>
      <trkpt lat="42.12379" lon="2.55274">
        <ele>851</ele>
        <time>2010-01-01T00:59:46Z</time>
      </trkpt>
      <trkpt lat="42.12384" lon="2.55285">
        <ele>852</ele>
        <time>2010-01-01T00:59:50Z</time>
      </trkpt>
      <trkpt lat="42.12396" lon="2.55299">
        <ele>851</ele>
        <time>2010-01-01T00:59:56Z</time>
      </trkpt>
      <trkpt lat="42.12404" lon="2.55313">
        <ele>852</ele>
        <time>2010-01-01T01:00:01Z</time>
      </trkpt>
      <trkpt lat="42.12415" lon="2.55322">
        <ele>852</ele>
        <time>2010-01-01T01:00:06Z</time>
      </trkpt>
      <trkpt lat="42.12425" lon="2.55334">
        <ele>853</ele>
        <time>2010-01-01T01:00:12Z</time>
      </trkpt>
      <trkpt lat="42.12438" lon="2.55351">
        <ele>856</ele>
        <time>2010-01-01T01:00:19Z</time>
      </trkpt>
      <trkpt lat="42.12441" lon="2.55363">
        <ele>859</ele>
        <time>2010-01-01T01:00:23Z</time>
      </trkpt>
      <trkpt lat="42.12441" lon="2.55377">
        <ele>861</ele>
        <time>2010-01-01T01:00:27Z</time>
      </trkpt>
      <trkpt lat="42.12444" lon="2.55387">
        <ele>863</ele>
        <time>2010-01-01T01:00:30Z</time>
      </trkpt>
      <trkpt lat="42.12446" lon="2.55405">
        <ele>866</ele>
        <time>2010-01-01T01:00:36Z</time>
      </trkpt>
      <trkpt lat="42.12453" lon="2.55418">
        <ele>868</ele>
        <time>2010-01-01T01:00:40Z</time>
      </trkpt>
      <trkpt lat="42.12462" lon="2.55433">
        <ele>871</ele>
        <time>2010-01-01T01:00:46Z</time>
      </trkpt>
      <trkpt lat="42.12467" lon="2.55444">
        <ele>873</ele>
        <time>2010-01-01T01:00:50Z</time>
      </trkpt>
      <trkpt lat="42.12472" lon="2.55458">
        <ele>876</ele>
        <time>2010-01-01T01:00:55Z</time>
      </trkpt>
      <trkpt lat="42.12469" lon="2.55473">
        <ele>878</ele>
        <time>2010-01-01T01:00:59Z</time>
      </trkpt>
      <trkpt lat="42.12466" lon="2.5548">
        <ele>877</ele>
        <time>2010-01-01T01:01:01Z</time>
      </trkpt>
      <trkpt lat="42.12465" lon="2.55491">
        <ele>878</ele>
        <time>2010-01-01T01:01:05Z</time>
      </trkpt>
      <trkpt lat="42.12457" lon="2.5551">
        <ele>878</ele>
        <time>2010-01-01T01:01:11Z</time>
      </trkpt>
      <trkpt lat="42.1246" lon="2.55523">
        <ele>880</ele>
        <time>2010-01-01T01:01:15Z</time>
      </trkpt>
      <trkpt lat="42.12469" lon="2.55539">
        <ele>885</ele>
        <time>2010-01-01T01:01:21Z</time>
      </trkpt>
      <trkpt lat="42.12476" lon="2.55549">
        <ele>888</ele>
        <time>2010-01-01T01:01:25Z</time>
      </trkpt>
      <trkpt lat="42.12484" lon="2.5556">
        <ele>890</ele>
        <time>2010-01-01T01:01:30Z</time>
      </trkpt>
      <trkpt lat="42.12489" lon="2.55569">
        <ele>892</ele>
        <time>2010-01-01T01:01:33Z</time>
      </trkpt>
      <trkpt lat="42.125" lon="2.55583">
        <ele>895</ele>
        <time>2010-01-01T01:01:39Z</time>
      </trkpt>
      <trkpt lat="42.12512" lon="2.55598">
        <ele>898</ele>
        <time>2010-01-01T01:01:46Z</time>
      </trkpt>
      <trkpt lat="42.12522" lon="2.55603">
        <ele>900</ele>
        <time>2010-01-01T01:01:50Z</time>
      </trkpt>
      <trkpt lat="42.12533" lon="2.55606">
        <ele>903</ele>
        <time>2010-01-01T01:01:54Z</time>
      </trkpt>
      <trkpt lat="42.12536" lon="2.55612">
        <ele>904</ele>
        <time>2010-01-01T01:01:57Z</time>
      </trkpt>
      <trkpt lat="42.12542" lon="2.55626">
        <ele>906</ele>
        <time>2010-01-01T01:02:01Z</time>
      </trkpt>
      <trkpt lat="42.12539" lon="2.55641">
        <ele>906</ele>
        <time>2010-01-01T01:02:06Z</time>
      </trkpt>
      <trkpt lat="42.12534" lon="2.55656">
        <ele>907</ele>
        <time>2010-01-01T01:02:11Z</time>
      </trkpt>
      <trkpt lat="42.12534" lon="2.55658">
        <ele>907</ele>
        <time>2010-01-01T01:02:11Z</time>
      </trkpt>
      <trkpt lat="42.12519" lon="2.55673">
        <ele>906</ele>
        <time>2010-01-01T01:02:19Z</time>
      </trkpt>
      <trkpt lat="42.12511" lon="2.55686">
        <ele>907</ele>
        <time>2010-01-01T01:02:24Z</time>
      </trkpt>
      <trkpt lat="42.12513" lon="2.55703">
        <ele>909</ele>
        <time>2010-01-01T01:02:29Z</time>
      </trkpt>
      <trkpt lat="42.12514" lon="2.55723">
        <ele>912</ele>
        <time>2010-01-01T01:02:35Z</time>
      </trkpt>
      <trkpt lat="42.12509" lon="2.55736">
        <ele>913</ele>
        <time>2010-01-01T01:02:39Z</time>
      </trkpt>
      <trkpt lat="42.12501" lon="2.55758">
        <ele>915</ele>
        <time>2010-01-01T01:02:46Z</time>
      </trkpt>
      <trkpt lat="42.12497" lon="2.55772">
        <ele>917</ele>
        <time>2010-01-01T01:02:51Z</time>
      </trkpt>
      <trkpt lat="42.12496" lon="2.55776">
        <ele>918</ele>
        <time>2010-01-01T01:02:52Z</time>
      </trkpt>
      <trkpt lat="42.12487" lon="2.55786">
        <ele>918</ele>
        <time>2010-01-01T01:02:56Z</time>
      </trkpt>
      <trkpt lat="42.12483" lon="2.55806">
        <ele>921</ele>
        <time>2010-01-01T01:03:03Z</time>
      </trkpt>
      <trkpt lat="42.1248" lon="2.5582">
        <ele>924</ele>
        <time>2010-01-01T01:03:07Z</time>
      </trkpt>
      <trkpt lat="42.12478" lon="2.55834">
        <ele>925</ele>
        <time>2010-01-01T01:03:11Z</time>
      </trkpt>
      <trkpt lat="42.12477" lon="2.55851">
        <ele>927</ele>
        <time>2010-01-01T01:03:16Z</time>
      </trkpt>
      <trkpt lat="42.12477" lon="2.55859">
        <ele>928</ele>
        <time>2010-01-01T01:03:19Z</time>
      </trkpt>
      <trkpt lat="42.1248" lon="2.55878">
        <ele>931</ele>
        <time>2010-01-01T01:03:24Z</time>
      </trkpt>
      <trkpt lat="42.12481" lon="2.55895">
        <ele>933</ele>
        <time>2010-01-01T01:03:30Z</time>
      </trkpt>
      <trkpt lat="42.12482" lon="2.55917">
        <ele>936</ele>
        <time>2010-01-01T01:03:36Z</time>
      </trkpt>
      <trkpt lat="42.12482" lon="2.55926">
        <ele>937</ele>
        <time>2010-01-01T01:03:39Z</time>
      </trkpt>
      <trkpt lat="42.12482" lon="2.55941">
        <ele>939</ele>
        <time>2010-01-01T01:03:43Z</time>
      </trkpt>
      <trkpt lat="42.12483" lon="2.55955">
        <ele>940</ele>
        <time>2010-01-01T01:03:48Z</time>
      </trkpt>
      <trkpt lat="42.12485" lon="2.55971">
        <ele>942</ele>
        <time>2010-01-01T01:03:52Z</time>
      </trkpt>
      <trkpt lat="42.12485" lon="2.5598">
        <ele>942</ele>
        <time>2010-01-01T01:03:55Z</time>
      </trkpt>
      <trkpt lat="42.12478" lon="2.55996">
        <ele>940</ele>
        <time>2010-01-01T01:04:00Z</time>
      </trkpt>
      <trkpt lat="42.12476" lon="2.56014">
        <ele>941</ele>
        <time>2010-01-01T01:04:06Z</time>
      </trkpt>
      <trkpt lat="42.12477" lon="2.56035">
        <ele>943</ele>
        <time>2010-01-01T01:04:12Z</time>
      </trkpt>
      <trkpt lat="42.12478" lon="2.56051">
        <ele>945</ele>
        <time>2010-01-01T01:04:17Z</time>
      </trkpt>
      <trkpt lat="42.12477" lon="2.56056">
        <ele>945</ele>
        <time>2010-01-01T01:04:18Z</time>
      </trkpt>
      <trkpt lat="42.12478" lon="2.56064">
        <ele>946</ele>
        <time>2010-01-01T01:04:21Z</time>
      </trkpt>
      <trkpt lat="42.12478" lon="2.56085">
        <ele>947</ele>
        <time>2010-01-01T01:04:27Z</time>
      </trkpt>
      <trkpt lat="42.12477" lon="2.56099">
        <ele>949</ele>
        <time>2010-01-01T01:04:31Z</time>
      </trkpt>
      <trkpt lat="42.12475" lon="2.56113">
        <ele>950</ele>
        <time>2010-01-01T01:04:35Z</time>
      </trkpt>
      <trkpt lat="42.12463" lon="2.56134">
        <ele>951</ele>
        <time>2010-01-01T01:04:43Z</time>
      </trkpt>
      <trkpt lat="42.12458" lon="2.56139">
        <ele>951</ele>
        <time>2010-01-01T01:04:46Z</time>
      </trkpt>
      <trkpt lat="42.12453" lon="2.56141">
        <ele>951</ele>
        <time>2010-01-01T01:04:48Z</time>
      </trkpt>
      <trkpt lat="42.12437" lon="2.56155">
        <ele>950</ele>
        <time>2010-01-01T01:04:55Z</time>
      </trkpt>
      <trkpt lat="42.12436" lon="2.56155">
        <ele>950</ele>
        <time>2010-01-01T01:04:56Z</time>
      </trkpt>
      <trkpt lat="42.12424" lon="2.56168">
        <ele>949</ele>
        <time>2010-01-01T01:05:02Z</time>
      </trkpt>
      <trkpt lat="42.12421" lon="2.56172">
        <ele>949</ele>
        <time>2010-01-01T01:05:03Z</time>
      </trkpt>
      <trkpt lat="42.12412" lon="2.562">
        <ele>951</ele>
        <time>2010-01-01T01:05:13Z</time>
      </trkpt>
      <trkpt lat="42.12409" lon="2.56206">
        <ele>951</ele>
        <time>2010-01-01T01:05:15Z</time>
      </trkpt>
      <trkpt lat="42.12402" lon="2.56222">
        <ele>951</ele>
        <time>2010-01-01T01:05:20Z</time>
      </trkpt>
      <trkpt lat="42.124" lon="2.56228">
        <ele>951</ele>
        <time>2010-01-01T01:05:22Z</time>
      </trkpt>
      <trkpt lat="42.12396" lon="2.56234">
        <ele>950</ele>
        <time>2010-01-01T01:05:25Z</time>
      </trkpt>
      <trkpt lat="42.12385" lon="2.56259">
        <ele>949</ele>
        <time>2010-01-01T01:05:33Z</time>
      </trkpt>
      <trkpt lat="42.12374" lon="2.56276">
        <ele>950</ele>
        <time>2010-01-01T01:05:40Z</time>
      </trkpt>
      <trkpt lat="42.12365" lon="2.56299">
        <ele>950</ele>
        <time>2010-01-01T01:05:48Z</time>
      </trkpt>
      <trkpt lat="42.12361" lon="2.56317">
        <ele>949</ele>
        <time>2010-01-01T01:05:53Z</time>
      </trkpt>
      <trkpt lat="42.1236" lon="2.56327">
        <ele>948</ele>
        <time>2010-01-01T01:05:56Z</time>
      </trkpt>
      <trkpt lat="42.12354" lon="2.56337">
        <ele>947</ele>
        <time>2010-01-01T01:06:00Z</time>
      </trkpt>
      <trkpt lat="42.12339" lon="2.56355">
        <ele>944</ele>
        <time>2010-01-01T01:06:08Z</time>
      </trkpt>
      <trkpt lat="42.1233" lon="2.56368">
        <ele>941</ele>
        <time>2010-01-01T01:06:13Z</time>
      </trkpt>
      <trkpt lat="42.1234" lon="2.56375">
        <ele>939</ele>
        <time>2010-01-01T01:06:18Z</time>
      </trkpt>
      <trkpt lat="42.12352" lon="2.56367">
        <ele>939</ele>
        <time>2010-01-01T01:06:23Z</time>
      </trkpt>
      <trkpt lat="42.12365" lon="2.56356">
        <ele>940</ele>
        <time>2010-01-01T01:06:29Z</time>
      </trkpt>
      <trkpt lat="42.12379" lon="2.56343">
        <ele>941</ele>
        <time>2010-01-01T01:06:36Z</time>
      </trkpt>
      <trkpt lat="42.1239" lon="2.56333">
        <ele>942</ele>
        <time>2010-01-01T01:06:41Z</time>
      </trkpt>
      <trkpt lat="42.12401" lon="2.5634">
        <ele>941</ele>
        <time>2010-01-01T01:06:46Z</time>
      </trkpt>
      <trkpt lat="42.12406" lon="2.56345">
        <ele>940</ele>
        <time>2010-01-01T01:06:49Z</time>
      </trkpt>
      <trkpt lat="42.1242" lon="2.56375">
        <ele>933</ele>
        <time>2010-01-01T01:06:59Z</time>
      </trkpt>
      <trkpt lat="42.12421" lon="2.56379">
        <ele>932</ele>
        <time>2010-01-01T01:07:01Z</time>
      </trkpt>
      <trkpt lat="42.12429" lon="2.564">
        <ele>928</ele>
        <time>2010-01-01T01:07:07Z</time>
      </trkpt>
      <trkpt lat="42.12436" lon="2.56411">
        <ele>926</ele>
        <time>2010-01-01T01:07:12Z</time>
      </trkpt>
      <trkpt lat="42.1244" lon="2.56421">
        <ele>925</ele>
        <time>2010-01-01T01:07:15Z</time>
      </trkpt>
      <trkpt lat="42.12445" lon="2.56438">
        <ele>924</ele>
        <time>2010-01-01T01:07:20Z</time>
      </trkpt>
      <trkpt lat="42.12447" lon="2.56466">
        <ele>922</ele>
        <time>2010-01-01T01:07:29Z</time>
      </trkpt>
      <trkpt lat="42.12445" lon="2.5649">
        <ele>920</ele>
        <time>2010-01-01T01:07:36Z</time>
      </trkpt>
      <trkpt lat="42.12447" lon="2.56497">
        <ele>920</ele>
        <time>2010-01-01T01:07:38Z</time>
      </trkpt>
      <trkpt lat="42.12451" lon="2.56524">
        <ele>918</ele>
        <time>2010-01-01T01:07:46Z</time>
      </trkpt>
      <trkpt lat="42.12457" lon="2.56548">
        <ele>914</ele>
        <time>2010-01-01T01:07:54Z</time>
      </trkpt>
      <trkpt lat="42.12458" lon="2.56554">
        <ele>913</ele>
        <time>2010-01-01T01:07:56Z</time>
      </trkpt>
      <trkpt lat="42.12461" lon="2.56577">
        <ele>911</ele>
        <time>2010-01-01T01:08:03Z</time>
      </trkpt>
      <trkpt lat="42.12461" lon="2.56584">
        <ele>910</ele>
        <time>2010-01-01T01:08:05Z</time>
      </trkpt>
      <trkpt lat="42.12458" lon="2.56612">
        <ele>908</ele>
        <time>2010-01-01T01:08:13Z</time>
      </trkpt>
      <trkpt lat="42.12453" lon="2.56638">
        <ele>904</ele>
        <time>2010-01-01T01:08:21Z</time>
      </trkpt>
      <trkpt lat="42.12452" lon="2.56639">
        <ele>904</ele>
        <time>2010-01-01T01:08:22Z</time>
      </trkpt>
      <trkpt lat="42.12448" lon="2.56656">
        <ele>902</ele>
        <time>2010-01-01T01:08:27Z</time>
      </trkpt>
      <trkpt lat="42.12445" lon="2.56666">
        <ele>901</ele>
        <time>2010-01-01T01:08:30Z</time>
      </trkpt>
      <trkpt lat="42.12443" lon="2.56692">
        <ele>897</ele>
        <time>2010-01-01T01:08:38Z</time>
      </trkpt>
      <trkpt lat="42.12443" lon="2.56694">
        <ele>897</ele>
        <time>2010-01-01T01:08:38Z</time>
      </trkpt>
      <trkpt lat="42.12436" lon="2.56717">
        <ele>893</ele>
        <time>2010-01-01T01:08:46Z</time>
      </trkpt>
      <trkpt lat="42.12429" lon="2.56735">
        <ele>890</ele>
        <time>2010-01-01T01:08:52Z</time>
      </trkpt>
      <trkpt lat="42.12429" lon="2.56749">
        <ele>887</ele>
        <time>2010-01-01T01:08:56Z</time>
      </trkpt>
      <trkpt lat="42.12429" lon="2.56752">
        <ele>887</ele>
        <time>2010-01-01T01:08:57Z</time>
      </trkpt>
      <trkpt lat="42.12429" lon="2.56764">
        <ele>885</ele>
        <time>2010-01-01T01:09:00Z</time>
      </trkpt>
      <trkpt lat="42.12436" lon="2.5677">
        <ele>884</ele>
        <time>2010-01-01T01:09:04Z</time>
      </trkpt>
      <trkpt lat="42.1245" lon="2.56772">
        <ele>883</ele>
        <time>2010-01-01T01:09:09Z</time>
      </trkpt>
      <trkpt lat="42.1246" lon="2.56773">
        <ele>882</ele>
        <time>2010-01-01T01:09:13Z</time>
      </trkpt>
      <trkpt lat="42.12472" lon="2.56769">
        <ele>882</ele>
        <time>2010-01-01T01:09:18Z</time>
      </trkpt>
      <trkpt lat="42.12485" lon="2.56756">
        <ele>885</ele>
        <time>2010-01-01T01:09:25Z</time>
      </trkpt>
      <trkpt lat="42.12495" lon="2.56752">
        <ele>885</ele>
        <time>2010-01-01T01:09:29Z</time>
      </trkpt>
      <trkpt lat="42.12504" lon="2.56754">
        <ele>884</ele>
        <time>2010-01-01T01:09:33Z</time>
      </trkpt>
      <trkpt lat="42.12515" lon="2.56769">
        <ele>879</ele>
        <time>2010-01-01T01:09:39Z</time>
      </trkpt>
      <trkpt lat="42.12518" lon="2.56772">
        <ele>877</ele>
        <time>2010-01-01T01:09:40Z</time>
      </trkpt>
      <trkpt lat="42.12527" lon="2.56786">
        <ele>872</ele>
        <time>2010-01-01T01:09:46Z</time>
      </trkpt>
      <trkpt lat="42.12538" lon="2.56804">
        <ele>867</ele>
        <time>2010-01-01T01:09:53Z</time>
      </trkpt>
      <trkpt lat="42.1255" lon="2.56822">
        <ele>863</ele>
        <time>2010-01-01T01:10:00Z</time>
      </trkpt>
      <trkpt lat="42.12551" lon="2.56823">
        <ele>863</ele>
        <time>2010-01-01T01:10:00Z</time>
      </trkpt>
      <trkpt lat="42.12565" lon="2.56838">
        <ele>860</ele>
        <time>2010-01-01T01:10:07Z</time>
      </trkpt>
      <trkpt lat="42.1258" lon="2.56843">
        <ele>860</ele>
        <time>2010-01-01T01:10:14Z</time>
      </trkpt>
      <trkpt lat="42.12586" lon="2.56853">
        <ele>857</ele>
        <time>2010-01-01T01:10:18Z</time>
      </trkpt>
      <trkpt lat="42.12594" lon="2.5688">
        <ele>850</ele>
        <time>2010-01-01T01:10:26Z</time>
      </trkpt>
      <trkpt lat="42.12594" lon="2.56903">
        <ele>846</ele>
        <time>2010-01-01T01:10:33Z</time>
      </trkpt>
      <trkpt lat="42.12591" lon="2.56917">
        <ele>845</ele>
        <time>2010-01-01T01:10:37Z</time>
      </trkpt>
      <trkpt lat="42.12582" lon="2.5694">
        <ele>851</ele>
        <time>2010-01-01T01:10:45Z</time>
      </trkpt>
      <trkpt lat="42.12573" lon="2.56962">
        <ele>854</ele>
        <time>2010-01-01T01:10:53Z</time>
      </trkpt>
      <trkpt lat="42.12568" lon="2.56979">
        <ele>856</ele>
        <time>2010-01-01T01:10:58Z</time>
      </trkpt>
      <trkpt lat="42.12564" lon="2.57001">
        <ele>859</ele>
        <time>2010-01-01T01:11:05Z</time>
      </trkpt>
      <trkpt lat="42.12556" lon="2.57019">
        <ele>861</ele>
        <time>2010-01-01T01:11:11Z</time>
      </trkpt>
      <trkpt lat="42.1255" lon="2.57033">
        <ele>862</ele>
        <time>2010-01-01T01:11:16Z</time>
      </trkpt>
      <trkpt lat="42.12546" lon="2.5705">
        <ele>864</ele>
        <time>2010-01-01T01:11:21Z</time>
      </trkpt>
      <trkpt lat="42.12541" lon="2.57066">
        <ele>865</ele>
        <time>2010-01-01T01:11:26Z</time>
      </trkpt>
      <trkpt lat="42.12538" lon="2.5708">
        <ele>866</ele>
        <time>2010-01-01T01:11:30Z</time>
      </trkpt>
      <trkpt lat="42.12531" lon="2.57099">
        <ele>869</ele>
        <time>2010-01-01T01:11:37Z</time>
      </trkpt>
      <trkpt lat="42.12531" lon="2.57106">
        <ele>869</ele>
        <time>2010-01-01T01:11:39Z</time>
      </trkpt>
      <trkpt lat="42.12532" lon="2.57138">
        <ele>869</ele>
        <time>2010-01-01T01:11:48Z</time>
      </trkpt>
      <trkpt lat="42.12532" lon="2.5714">
        <ele>869</ele>
        <time>2010-01-01T01:11:49Z</time>
      </trkpt>
      <trkpt lat="42.12532" lon="2.57171">
        <ele>868</ele>
        <time>2010-01-01T01:11:58Z</time>
      </trkpt>
      <trkpt lat="42.12535" lon="2.57194">
        <ele>868</ele>
        <time>2010-01-01T01:12:05Z</time>
      </trkpt>
      <trkpt lat="42.12542" lon="2.57215">
        <ele>868</ele>
        <time>2010-01-01T01:12:12Z</time>
      </trkpt>
      <trkpt lat="42.12545" lon="2.57233">
        <ele>868</ele>
        <time>2010-01-01T01:12:17Z</time>
      </trkpt>
      <trkpt lat="42.12544" lon="2.57248">
        <ele>868</ele>
        <time>2010-01-01T01:12:22Z</time>
      </trkpt>
      <trkpt lat="42.12541" lon="2.57261">
        <ele>869</ele>
        <time>2010-01-01T01:12:26Z</time>
      </trkpt>
      <trkpt lat="42.12527" lon="2.57289">
        <ele>872</ele>
        <time>2010-01-01T01:12:36Z</time>
      </trkpt>
      <trkpt lat="42.12515" lon="2.57308">
        <ele>871</ele>
        <time>2010-01-01T01:12:43Z</time>
      </trkpt>
      <trkpt lat="42.12492" lon="2.57331">
        <ele>869</ele>
        <time>2010-01-01T01:12:55Z</time>
      </trkpt>
      <trkpt lat="42.12464" lon="2.57347">
        <ele>871</ele>
        <time>2010-01-01T01:13:07Z</time>
      </trkpt>
      <trkpt lat="42.12444" lon="2.5735">
        <ele>873</ele>
        <time>2010-01-01T01:13:15Z</time>
      </trkpt>
      <trkpt lat="42.12427" lon="2.57349">
        <ele>877</ele>
        <time>2010-01-01T01:13:22Z</time>
      </trkpt>
      <trkpt lat="42.1242" lon="2.5735">
        <ele>879</ele>
        <time>2010-01-01T01:13:24Z</time>
      </trkpt>
      <trkpt lat="42.12417" lon="2.57353">
        <ele>880</ele>
        <time>2010-01-01T01:13:26Z</time>
      </trkpt>
      <trkpt lat="42.12406" lon="2.57363">
        <ele>883</ele>
        <time>2010-01-01T01:13:31Z</time>
      </trkpt>
      <trkpt lat="42.124" lon="2.57376">
        <ele>883</ele>
        <time>2010-01-01T01:13:36Z</time>
      </trkpt>
      <trkpt lat="42.12399" lon="2.57378">
        <ele>882</ele>
        <time>2010-01-01T01:13:37Z</time>
      </trkpt>
      <trkpt lat="42.12394" lon="2.57392">
        <ele>880</ele>
        <time>2010-01-01T01:13:41Z</time>
      </trkpt>
      <trkpt lat="42.12388" lon="2.57407">
        <ele>876</ele>
        <time>2010-01-01T01:13:46Z</time>
      </trkpt>
      <trkpt lat="42.1238" lon="2.57417">
        <ele>875</ele>
        <time>2010-01-01T01:13:51Z</time>
      </trkpt>
      <trkpt lat="42.12372" lon="2.57422">
        <ele>877</ele>
        <time>2010-01-01T01:13:54Z</time>
      </trkpt>
      <trkpt lat="42.12367" lon="2.57425">
        <ele>879</ele>
        <time>2010-01-01T01:13:56Z</time>
      </trkpt>
      <trkpt lat="42.12356" lon="2.57444">
        <ele>878</ele>
        <time>2010-01-01T01:14:04Z</time>
      </trkpt>
      <trkpt lat="42.12349" lon="2.57456">
        <ele>876</ele>
        <time>2010-01-01T01:14:08Z</time>
      </trkpt>
      <trkpt lat="42.12337" lon="2.57474">
        <ele>875</ele>
        <time>2010-01-01T01:14:15Z</time>
      </trkpt>
      <trkpt lat="42.12328" lon="2.57487">
        <ele>873</ele>
        <time>2010-01-01T01:14:20Z</time>
      </trkpt>
      <trkpt lat="42.12323" lon="2.57498">
        <ele>870</ele>
        <time>2010-01-01T01:14:24Z</time>
      </trkpt>
      <trkpt lat="42.12315" lon="2.57508">
        <ele>868</ele>
        <time>2010-01-01T01:14:29Z</time>
      </trkpt>
      <trkpt lat="42.12313" lon="2.57511">
        <ele>868</ele>
        <time>2010-01-01T01:14:30Z</time>
      </trkpt>
      <trkpt lat="42.12298" lon="2.57531">
        <ele>868</ele>
        <time>2010-01-01T01:14:38Z</time>
      </trkpt>
      <trkpt lat="42.12295" lon="2.57532">
        <ele>868</ele>
        <time>2010-01-01T01:14:39Z</time>
      </trkpt>
      <trkpt lat="42.12289" lon="2.57537">
        <ele>869</ele>
        <time>2010-01-01T01:14:42Z</time>
      </trkpt>
      <trkpt lat="42.12284" lon="2.5755">
        <ele>867</ele>
        <time>2010-01-01T01:14:47Z</time>
      </trkpt>
      <trkpt lat="42.12278" lon="2.57568">
        <ele>862</ele>
        <time>2010-01-01T01:14:53Z</time>
      </trkpt>
      <trkpt lat="42.12272" lon="2.5759">
        <ele>856</ele>
        <time>2010-01-01T01:15:00Z</time>
      </trkpt>
      <trkpt lat="42.12273" lon="2.57599">
        <ele>852</ele>
        <time>2010-01-01T01:15:02Z</time>
      </trkpt>
      <trkpt lat="42.12256" lon="2.57617">
        <ele>849</ele>
        <time>2010-01-01T01:15:11Z</time>
      </trkpt>
      <trkpt lat="42.12253" lon="2.57618">
        <ele>850</ele>
        <time>2010-01-01T01:15:12Z</time>
      </trkpt>
      <trkpt lat="42.12243" lon="2.5762">
        <ele>852</ele>
        <time>2010-01-01T01:15:16Z</time>
      </trkpt>
      <trkpt lat="42.12234" lon="2.57618">
        <ele>855</ele>
        <time>2010-01-01T01:15:19Z</time>
      </trkpt>
      <trkpt lat="42.12215" lon="2.5763">
        <ele>856</ele>
        <time>2010-01-01T01:15:28Z</time>
      </trkpt>
      <trkpt lat="42.12204" lon="2.57643">
        <ele>855</ele>
        <time>2010-01-01T01:15:34Z</time>
      </trkpt>
      <trkpt lat="42.12204" lon="2.57645">
        <ele>855</ele>
        <time>2010-01-01T01:15:34Z</time>
      </trkpt>
      <trkpt lat="42.12197" lon="2.57658">
        <ele>853</ele>
        <time>2010-01-01T01:15:39Z</time>
      </trkpt>
      <trkpt lat="42.12193" lon="2.5768">
        <ele>849</ele>
        <time>2010-01-01T01:15:46Z</time>
      </trkpt>
      <trkpt lat="42.12191" lon="2.57687">
        <ele>848</ele>
        <time>2010-01-01T01:15:48Z</time>
      </trkpt>
      <trkpt lat="42.12179" lon="2.57701">
        <ele>850</ele>
        <time>2010-01-01T01:15:55Z</time>
      </trkpt>
      <trkpt lat="42.12176" lon="2.57701">
        <ele>850</ele>
        <time>2010-01-01T01:15:56Z</time>
      </trkpt>
      <trkpt lat="42.12171" lon="2.57704">
        <ele>851</ele>
        <time>2010-01-01T01:15:58Z</time>
      </trkpt>
      <trkpt lat="42.1216" lon="2.57728">
        <ele>849</ele>
        <time>2010-01-01T01:16:06Z</time>
      </trkpt>
      <trkpt lat="42.12154" lon="2.5775">
        <ele>847</ele>
        <time>2010-01-01T01:16:13Z</time>
      </trkpt>
      <trkpt lat="42.12144" lon="2.57769">
        <ele>845</ele>
        <time>2010-01-01T01:16:20Z</time>
      </trkpt>
      <trkpt lat="42.12139" lon="2.57787">
        <ele>843</ele>
        <time>2010-01-01T01:16:26Z</time>
      </trkpt>
      <trkpt lat="42.12136" lon="2.57798">
        <ele>842</ele>
        <time>2010-01-01T01:16:29Z</time>
      </trkpt>
      <trkpt lat="42.12129" lon="2.57817">
        <ele>840</ele>
        <time>2010-01-01T01:16:36Z</time>
      </trkpt>
      <trkpt lat="42.12129" lon="2.57821">
        <ele>839</ele>
        <time>2010-01-01T01:16:37Z</time>
      </trkpt>
      <trkpt lat="42.12128" lon="2.57824">
        <ele>838</ele>
        <time>2010-01-01T01:16:38Z</time>
      </trkpt>
      <trkpt lat="42.12124" lon="2.57835">
        <ele>837</ele>
        <time>2010-01-01T01:16:41Z</time>
      </trkpt>
      <trkpt lat="42.12115" lon="2.57843">
        <ele>836</ele>
        <time>2010-01-01T01:16:46Z</time>
      </trkpt>
      <trkpt lat="42.12107" lon="2.57848">
        <ele>835</ele>
        <time>2010-01-01T01:16:49Z</time>
      </trkpt>
      <trkpt lat="42.12091" lon="2.57856">
        <ele>834</ele>
        <time>2010-01-01T01:16:56Z</time>
      </trkpt>
      <trkpt lat="42.12079" lon="2.57869">
        <ele>830</ele>
        <time>2010-01-01T01:17:02Z</time>
      </trkpt>
      <trkpt lat="42.12066" lon="2.57883">
        <ele>827</ele>
        <time>2010-01-01T01:17:09Z</time>
      </trkpt>
      <trkpt lat="42.12052" lon="2.57888">
        <ele>828</ele>
        <time>2010-01-01T01:17:15Z</time>
      </trkpt>
      <trkpt lat="42.1204" lon="2.57899">
        <ele>831</ele>
        <time>2010-01-01T01:17:20Z</time>
      </trkpt>
      <trkpt lat="42.12027" lon="2.57909">
        <ele>833</ele>
        <time>2010-01-01T01:17:26Z</time>
      </trkpt>
      <trkpt lat="42.12021" lon="2.57927">
        <ele>831</ele>
        <time>2010-01-01T01:17:32Z</time>
      </trkpt>
      <trkpt lat="42.12022" lon="2.57945">
        <ele>825</ele>
        <time>2010-01-01T01:17:38Z</time>
      </trkpt>
      <trkpt lat="42.12019" lon="2.57962">
        <ele>821</ele>
        <time>2010-01-01T01:17:43Z</time>
      </trkpt>
      <trkpt lat="42.12017" lon="2.57965">
        <ele>820</ele>
        <time>2010-01-01T01:17:44Z</time>
      </trkpt>
      <trkpt lat="42.12006" lon="2.57977">
        <ele>819</ele>
        <time>2010-01-01T01:17:49Z</time>
      </trkpt>
      <trkpt lat="42.11994" lon="2.57985">
        <ele>820</ele>
        <time>2010-01-01T01:17:55Z</time>
      </trkpt>
      <trkpt lat="42.11979" lon="2.57998">
        <ele>819</ele>
        <time>2010-01-01T01:18:02Z</time>
      </trkpt>
      <trkpt lat="42.11962" lon="2.58006">
        <ele>822</ele>
        <time>2010-01-01T01:18:09Z</time>
      </trkpt>
      <trkpt lat="42.11946" lon="2.58017">
        <ele>823</ele>
        <time>2010-01-01T01:18:16Z</time>
      </trkpt>
      <trkpt lat="42.11941" lon="2.58035">
        <ele>817</ele>
        <time>2010-01-01T01:18:22Z</time>
      </trkpt>
      <trkpt lat="42.11938" lon="2.58057">
        <ele>810</ele>
        <time>2010-01-01T01:18:29Z</time>
      </trkpt>
      <trkpt lat="42.11933" lon="2.58083">
        <ele>804</ele>
        <time>2010-01-01T01:18:37Z</time>
      </trkpt>
      <trkpt lat="42.11913" lon="2.58092">
        <ele>806</ele>
        <time>2010-01-01T01:18:45Z</time>
      </trkpt>
      <trkpt lat="42.11908" lon="2.58088">
        <ele>808</ele>
        <time>2010-01-01T01:18:47Z</time>
      </trkpt>
      <trkpt lat="42.11894" lon="2.58087">
        <ele>812</ele>
        <time>2010-01-01T01:18:53Z</time>
      </trkpt>
      <trkpt lat="42.11878" lon="2.58091">
        <ele>815</ele>
        <time>2010-01-01T01:18:59Z</time>
      </trkpt>
      <trkpt lat="42.1187" lon="2.58097">
        <ele>815</ele>
        <time>2010-01-01T01:19:03Z</time>
      </trkpt>
      <trkpt lat="42.11854" lon="2.5811">
        <ele>814</ele>
        <time>2010-01-01T01:19:11Z</time>
      </trkpt>
      <trkpt lat="42.11853" lon="2.5811">
        <ele>814</ele>
        <time>2010-01-01T01:19:11Z</time>
      </trkpt>
      <trkpt lat="42.11841" lon="2.58123">
        <ele>813</ele>
        <time>2010-01-01T01:19:17Z</time>
      </trkpt>
      <trkpt lat="42.11827" lon="2.58138">
        <ele>812</ele>
        <time>2010-01-01T01:19:24Z</time>
      </trkpt>
      <trkpt lat="42.11823" lon="2.58143">
        <ele>812</ele>
        <time>2010-01-01T01:19:26Z</time>
      </trkpt>
      <trkpt lat="42.11815" lon="2.58165">
        <ele>804</ele>
        <time>2010-01-01T01:19:34Z</time>
      </trkpt>
      <trkpt lat="42.1181" lon="2.58182">
        <ele>799</ele>
        <time>2010-01-01T01:19:39Z</time>
      </trkpt>
      <trkpt lat="42.11808" lon="2.58184">
        <ele>798</ele>
        <time>2010-01-01T01:19:40Z</time>
      </trkpt>
      <trkpt lat="42.11795" lon="2.58187">
        <ele>802</ele>
        <time>2010-01-01T01:19:46Z</time>
      </trkpt>
      <trkpt lat="42.11794" lon="2.58187">
        <ele>802</ele>
        <time>2010-01-01T01:19:46Z</time>
      </trkpt>
      <trkpt lat="42.11774" lon="2.58194">
        <ele>805</ele>
        <time>2010-01-01T01:19:54Z</time>
      </trkpt>
      <trkpt lat="42.11757" lon="2.58207">
        <ele>806</ele>
        <time>2010-01-01T01:20:02Z</time>
      </trkpt>
      <trkpt lat="42.11744" lon="2.58207">
        <ele>811</ele>
        <time>2010-01-01T01:20:07Z</time>
      </trkpt>
      <trkpt lat="42.11737" lon="2.58216">
        <ele>810</ele>
        <time>2010-01-01T01:20:11Z</time>
      </trkpt>
      <trkpt lat="42.11732" lon="2.58233">
        <ele>807</ele>
        <time>2010-01-01T01:20:17Z</time>
      </trkpt>
      <trkpt lat="42.11726" lon="2.58254">
        <ele>802</ele>
        <time>2010-01-01T01:20:23Z</time>
      </trkpt>
      <trkpt lat="42.11725" lon="2.58269">
        <ele>798</ele>
        <time>2010-01-01T01:20:28Z</time>
      </trkpt>
      <trkpt lat="42.11722" lon="2.58283">
        <ele>795</ele>
        <time>2010-01-01T01:20:32Z</time>
      </trkpt>
      <trkpt lat="42.11721" lon="2.58285">
        <ele>796</ele>
        <time>2010-01-01T01:20:33Z</time>
      </trkpt>
      <trkpt lat="42.11713" lon="2.58293">
        <ele>796</ele>
        <time>2010-01-01T01:20:37Z</time>
      </trkpt>
      <trkpt lat="42.11696" lon="2.58304">
        <ele>797</ele>
        <time>2010-01-01T01:20:44Z</time>
      </trkpt>
      <trkpt lat="42.11692" lon="2.58304">
        <ele>798</ele>
        <time>2010-01-01T01:20:46Z</time>
      </trkpt>
      <trkpt lat="42.11686" lon="2.58303">
        <ele>802</ele>
        <time>2010-01-01T01:20:49Z</time>
      </trkpt>
      <trkpt lat="42.11683" lon="2.58302">
        <ele>805</ele>
        <time>2010-01-01T01:20:50Z</time>
      </trkpt>
      <trkpt lat="42.11679" lon="2.58302">
        <ele>807</ele>
        <time>2010-01-01T01:20:51Z</time>
      </trkpt>
      <trkpt lat="42.11673" lon="2.58303">
        <ele>810</ele>
        <time>2010-01-01T01:20:54Z</time>
      </trkpt>
      <trkpt lat="42.11657" lon="2.58318">
        <ele>813</ele>
        <time>2010-01-01T01:21:01Z</time>
      </trkpt>
      <trkpt lat="42.11649" lon="2.58335">
        <ele>812</ele>
        <time>2010-01-01T01:21:08Z</time>
      </trkpt>
      <trkpt lat="42.11649" lon="2.58348">
        <ele>808</ele>
        <time>2010-01-01T01:21:11Z</time>
      </trkpt>
      <trkpt lat="42.1165" lon="2.58371">
        <ele>801</ele>
        <time>2010-01-01T01:21:18Z</time>
      </trkpt>
      <trkpt lat="42.11646" lon="2.58383">
        <ele>801</ele>
        <time>2010-01-01T01:21:22Z</time>
      </trkpt>
      <trkpt lat="42.11636" lon="2.58402">
        <ele>802</ele>
        <time>2010-01-01T01:21:29Z</time>
      </trkpt>
      <trkpt lat="42.11626" lon="2.58413">
        <ele>805</ele>
        <time>2010-01-01T01:21:34Z</time>
      </trkpt>
      <trkpt lat="42.11615" lon="2.58424">
        <ele>808</ele>
        <time>2010-01-01T01:21:40Z</time>
      </trkpt>
      <trkpt lat="42.11594" lon="2.5844">
        <ele>810</ele>
        <time>2010-01-01T01:21:49Z</time>
      </trkpt>
      <trkpt lat="42.11575" lon="2.58451">
        <ele>814</ele>
        <time>2010-01-01T01:21:58Z</time>
      </trkpt>
      <trkpt lat="42.1156" lon="2.5846">
        <ele>819</ele>
        <time>2010-01-01T01:22:04Z</time>
      </trkpt>
      <trkpt lat="42.1155" lon="2.58473">
        <ele>823</ele>
        <time>2010-01-01T01:22:10Z</time>
      </trkpt>
      <trkpt lat="42.1154" lon="2.58483">
        <ele>830</ele>
        <time>2010-01-01T01:22:15Z</time>
      </trkpt>
      <trkpt lat="42.11536" lon="2.58493">
        <ele>833</ele>
        <time>2010-01-01T01:22:18Z</time>
      </trkpt>
      <trkpt lat="42.11542" lon="2.58497">
        <ele>828</ele>
        <time>2010-01-01T01:22:20Z</time>
      </trkpt>
      <trkpt lat="42.11551" lon="2.585">
        <ele>819</ele>
        <time>2010-01-01T01:22:24Z</time>
      </trkpt>
      <trkpt lat="42.11557" lon="2.5851">
        <ele>812</ele>
        <time>2010-01-01T01:22:28Z</time>
      </trkpt>
      <trkpt lat="42.11564" lon="2.58523">
        <ele>805</ele>
        <time>2010-01-01T01:22:33Z</time>
      </trkpt>
      <trkpt lat="42.11569" lon="2.58546">
        <ele>803</ele>
        <time>2010-01-01T01:22:40Z</time>
      </trkpt>
      <trkpt lat="42.11576" lon="2.58564">
        <ele>800</ele>
        <time>2010-01-01T01:22:46Z</time>
      </trkpt>
      <trkpt lat="42.11578" lon="2.58582">
        <ele>800</ele>
        <time>2010-01-01T01:22:51Z</time>
      </trkpt>
      <trkpt lat="42.11578" lon="2.58584">
        <ele>800</ele>
        <time>2010-01-01T01:22:52Z</time>
      </trkpt>
      <trkpt lat="42.11572" lon="2.58605">
        <ele>805</ele>
        <time>2010-01-01T01:22:59Z</time>
      </trkpt>
      <trkpt lat="42.1157" lon="2.58609">
        <ele>806</ele>
        <time>2010-01-01T01:23:00Z</time>
      </trkpt>
      <trkpt lat="42.11568" lon="2.58625">
        <ele>808</ele>
        <time>2010-01-01T01:23:05Z</time>
      </trkpt>
      <trkpt lat="42.11566" lon="2.58643">
        <ele>809</ele>
        <time>2010-01-01T01:23:10Z</time>
      </trkpt>
      <trkpt lat="42.11572" lon="2.58659">
        <ele>808</ele>
        <time>2010-01-01T01:23:16Z</time>
      </trkpt>
      <trkpt lat="42.11578" lon="2.58672">
        <ele>807</ele>
        <time>2010-01-01T01:23:20Z</time>
      </trkpt>
      <trkpt lat="42.11586" lon="2.5868">
        <ele>804</ele>
        <time>2010-01-01T01:23:24Z</time>
      </trkpt>
      <trkpt lat="42.11595" lon="2.58694">
        <ele>804</ele>
        <time>2010-01-01T01:23:30Z</time>
      </trkpt>
      <trkpt lat="42.116" lon="2.58706">
        <ele>805</ele>
        <time>2010-01-01T01:23:34Z</time>
      </trkpt>
      <trkpt lat="42.11607" lon="2.58731">
        <ele>808</ele>
        <time>2010-01-01T01:23:42Z</time>
      </trkpt>
      <trkpt lat="42.11607" lon="2.58736">
        <ele>808</ele>
        <time>2010-01-01T01:23:43Z</time>
      </trkpt>
      <trkpt lat="42.11613" lon="2.58762">
        <ele>809</ele>
        <time>2010-01-01T01:23:51Z</time>
      </trkpt>
      <trkpt lat="42.11613" lon="2.58783">
        <ele>809</ele>
        <time>2010-01-01T01:23:58Z</time>
      </trkpt>
      <trkpt lat="42.11612" lon="2.58807">
        <ele>806</ele>
        <time>2010-01-01T01:24:05Z</time>
      </trkpt>
      <trkpt lat="42.11608" lon="2.58827">
        <ele>804</ele>
        <time>2010-01-01T01:24:11Z</time>
      </trkpt>
      <trkpt lat="42.116" lon="2.58834">
        <ele>806</ele>
        <time>2010-01-01T01:24:15Z</time>
      </trkpt>
      <trkpt lat="42.11587" lon="2.58851">
        <ele>806</ele>
        <time>2010-01-01T01:24:22Z</time>
      </trkpt>
      <trkpt lat="42.11577" lon="2.58863">
        <ele>808</ele>
        <time>2010-01-01T01:24:27Z</time>
      </trkpt>
      <trkpt lat="42.11576" lon="2.58863">
        <ele>808</ele>
        <time>2010-01-01T01:24:28Z</time>
      </trkpt>
      <trkpt lat="42.11561" lon="2.5888">
        <ele>814</ele>
        <time>2010-01-01T01:24:35Z</time>
      </trkpt>
      <trkpt lat="42.1155" lon="2.58897">
        <ele>819</ele>
        <time>2010-01-01T01:24:42Z</time>
      </trkpt>
      <trkpt lat="42.11545" lon="2.58925">
        <ele>816</ele>
        <time>2010-01-01T01:24:51Z</time>
      </trkpt>
      <trkpt lat="42.11545" lon="2.58926">
        <ele>817</ele>
        <time>2010-01-01T01:24:51Z</time>
      </trkpt>
      <trkpt lat="42.11543" lon="2.58943">
        <ele>815</ele>
        <time>2010-01-01T01:24:56Z</time>
      </trkpt>
      <trkpt lat="42.11543" lon="2.58946">
        <ele>815</ele>
        <time>2010-01-01T01:24:57Z</time>
      </trkpt>
      <trkpt lat="42.11535" lon="2.58975">
        <ele>815</ele>
        <time>2010-01-01T01:25:06Z</time>
      </trkpt>
      <trkpt lat="42.11527" lon="2.58994">
        <ele>817</ele>
        <time>2010-01-01T01:25:13Z</time>
      </trkpt>
      <trkpt lat="42.11526" lon="2.59">
        <ele>817</ele>
        <time>2010-01-01T01:25:14Z</time>
      </trkpt>
      <trkpt lat="42.1153" lon="2.59023">
        <ele>811</ele>
        <time>2010-01-01T01:25:22Z</time>
      </trkpt>
      <trkpt lat="42.11531" lon="2.59027">
        <ele>811</ele>
        <time>2010-01-01T01:25:23Z</time>
      </trkpt>
      <trkpt lat="42.11529" lon="2.59034">
        <ele>810</ele>
        <time>2010-01-01T01:25:25Z</time>
      </trkpt>
      <trkpt lat="42.11519" lon="2.59056">
        <ele>812</ele>
        <time>2010-01-01T01:25:32Z</time>
      </trkpt>
      <trkpt lat="42.11514" lon="2.59073">
        <ele>813</ele>
        <time>2010-01-01T01:25:38Z</time>
      </trkpt>
      <trkpt lat="42.11513" lon="2.59098">
        <ele>811</ele>
        <time>2010-01-01T01:25:46Z</time>
      </trkpt>
      <trkpt lat="42.11514" lon="2.59115">
        <ele>809</ele>
        <time>2010-01-01T01:25:51Z</time>
      </trkpt>
      <trkpt lat="42.11512" lon="2.5914">
        <ele>808</ele>
        <time>2010-01-01T01:25:58Z</time>
      </trkpt>
      <trkpt lat="42.115" lon="2.59159">
        <ele>813</ele>
        <time>2010-01-01T01:26:05Z</time>
      </trkpt>
      <trkpt lat="42.11491" lon="2.5918">
        <ele>817</ele>
        <time>2010-01-01T01:26:13Z</time>
      </trkpt>
      <trkpt lat="42.11487" lon="2.59193">
        <ele>818</ele>
        <time>2010-01-01T01:26:17Z</time>
      </trkpt>
      <trkpt lat="42.11485" lon="2.59217">
        <ele>820</ele>
        <time>2010-01-01T01:26:24Z</time>
      </trkpt>
      <trkpt lat="42.11488" lon="2.5922">
        <ele>819</ele>
        <time>2010-01-01T01:26:25Z</time>
      </trkpt>
      <trkpt lat="42.11495" lon="2.59227">
        <ele>817</ele>
        <time>2010-01-01T01:26:29Z</time>
      </trkpt>
      <trkpt lat="42.11501" lon="2.59229">
        <ele>814</ele>
        <time>2010-01-01T01:26:31Z</time>
      </trkpt>
      <trkpt lat="42.11509" lon="2.59241">
        <ele>812</ele>
        <time>2010-01-01T01:26:36Z</time>
      </trkpt>
      <trkpt lat="42.11514" lon="2.59245">
        <ele>810</ele>
        <time>2010-01-01T01:26:38Z</time>
      </trkpt>
      <trkpt lat="42.11525" lon="2.59248">
        <ele>806</ele>
        <time>2010-01-01T01:26:43Z</time>
      </trkpt>
      <trkpt lat="42.1153" lon="2.59248">
        <ele>805</ele>
        <time>2010-01-01T01:26:45Z</time>
      </trkpt>
      <trkpt lat="42.11535" lon="2.59243">
        <ele>802</ele>
        <time>2010-01-01T01:26:47Z</time>
      </trkpt>
      <trkpt lat="42.11537" lon="2.59242">
        <ele>801</ele>
        <time>2010-01-01T01:26:48Z</time>
      </trkpt>
      <trkpt lat="42.11546" lon="2.59235">
        <ele>797</ele>
        <time>2010-01-01T01:26:53Z</time>
      </trkpt>
      <trkpt lat="42.11561" lon="2.59227">
        <ele>792</ele>
        <time>2010-01-01T01:26:59Z</time>
      </trkpt>
      <trkpt lat="42.11569" lon="2.59221">
        <ele>789</ele>
        <time>2010-01-01T01:27:02Z</time>
      </trkpt>
      <trkpt lat="42.11579" lon="2.59213">
        <ele>786</ele>
        <time>2010-01-01T01:27:07Z</time>
      </trkpt>
      <trkpt lat="42.11592" lon="2.59204">
        <ele>782</ele>
        <time>2010-01-01T01:27:13Z</time>
      </trkpt>
      <trkpt lat="42.11593" lon="2.59204">
        <ele>782</ele>
        <time>2010-01-01T01:27:13Z</time>
      </trkpt>
      <trkpt lat="42.11611" lon="2.59196">
        <ele>776</ele>
        <time>2010-01-01T01:27:21Z</time>
      </trkpt>
      <trkpt lat="42.11627" lon="2.59189">
        <ele>772</ele>
        <time>2010-01-01T01:27:28Z</time>
      </trkpt>
      <trkpt lat="42.11638" lon="2.59195">
        <ele>771</ele>
        <time>2010-01-01T01:27:32Z</time>
      </trkpt>
      <trkpt lat="42.11639" lon="2.59217">
        <ele>775</ele>
        <time>2010-01-01T01:27:39Z</time>
      </trkpt>
      <trkpt lat="42.11639" lon="2.59243">
        <ele>780</ele>
        <time>2010-01-01T01:27:47Z</time>
      </trkpt>
      <trkpt lat="42.11642" lon="2.5927">
        <ele>783</ele>
        <time>2010-01-01T01:27:55Z</time>
      </trkpt>
      <trkpt lat="42.11643" lon="2.59286">
        <ele>782</ele>
        <time>2010-01-01T01:28:00Z</time>
      </trkpt>
      <trkpt lat="42.11646" lon="2.59296">
        <ele>778</ele>
        <time>2010-01-01T01:28:03Z</time>
      </trkpt>
      <trkpt lat="42.11648" lon="2.59303">
        <ele>777</ele>
        <time>2010-01-01T01:28:05Z</time>
      </trkpt>
      <trkpt lat="42.11655" lon="2.59316">
        <ele>772</ele>
        <time>2010-01-01T01:28:10Z</time>
      </trkpt>
      <trkpt lat="42.11658" lon="2.59325">
        <ele>769</ele>
        <time>2010-01-01T01:28:13Z</time>
      </trkpt>
      <trkpt lat="42.11666" lon="2.5934">
        <ele>765</ele>
        <time>2010-01-01T01:28:18Z</time>
      </trkpt>
      <trkpt lat="42.11672" lon="2.59365">
        <ele>766</ele>
        <time>2010-01-01T01:28:26Z</time>
      </trkpt>
      <trkpt lat="42.11674" lon="2.59371">
        <ele>765</ele>
        <time>2010-01-01T01:28:28Z</time>
      </trkpt>
      <trkpt lat="42.11683" lon="2.59398">
        <ele>763</ele>
        <time>2010-01-01T01:28:37Z</time>
      </trkpt>
      <trkpt lat="42.11684" lon="2.59399">
        <ele>763</ele>
        <time>2010-01-01T01:28:37Z</time>
      </trkpt>
      <trkpt lat="42.11703" lon="2.59404">
        <ele>762</ele>
        <time>2010-01-01T01:28:45Z</time>
      </trkpt>
      <trkpt lat="42.1172" lon="2.59408">
        <ele>763</ele>
        <time>2010-01-01T01:28:52Z</time>
      </trkpt>
      <trkpt lat="42.11725" lon="2.59413">
        <ele>763</ele>
        <time>2010-01-01T01:28:54Z</time>
      </trkpt>
      <trkpt lat="42.11722" lon="2.59423">
        <ele>761</ele>
        <time>2010-01-01T01:28:57Z</time>
      </trkpt>
      <trkpt lat="42.11703" lon="2.59429">
        <ele>759</ele>
        <time>2010-01-01T01:29:05Z</time>
      </trkpt>
      <trkpt lat="42.11687" lon="2.59428">
        <ele>758</ele>
        <time>2010-01-01T01:29:12Z</time>
      </trkpt>
      <trkpt lat="42.11682" lon="2.59429">
        <ele>758</ele>
        <time>2010-01-01T01:29:14Z</time>
      </trkpt>
      <trkpt lat="42.11667" lon="2.59429">
        <ele>757</ele>
        <time>2010-01-01T01:29:20Z</time>
      </trkpt>
      <trkpt lat="42.11658" lon="2.59431">
        <ele>759</ele>
        <time>2010-01-01T01:29:24Z</time>
      </trkpt>
      <trkpt lat="42.11638" lon="2.59441">
        <ele>759</ele>
        <time>2010-01-01T01:29:32Z</time>
      </trkpt>
      <trkpt lat="42.11635" lon="2.59444">
        <ele>759</ele>
        <time>2010-01-01T01:29:33Z</time>
      </trkpt>
      <trkpt lat="42.11622" lon="2.59457">
        <ele>758</ele>
        <time>2010-01-01T01:29:40Z</time>
      </trkpt>
      <trkpt lat="42.11612" lon="2.59469">
        <ele>757</ele>
        <time>2010-01-01T01:29:45Z</time>
      </trkpt>
      <trkpt lat="42.116" lon="2.59483">
        <ele>756</ele>
        <time>2010-01-01T01:29:51Z</time>
      </trkpt>
      <trkpt lat="42.11591" lon="2.59507">
        <ele>752</ele>
        <time>2010-01-01T01:30:00Z</time>
      </trkpt>
      <trkpt lat="42.11577" lon="2.59525">
        <ele>752</ele>
        <time>2010-01-01T01:30:07Z</time>
      </trkpt>
      <trkpt lat="42.11576" lon="2.59525">
        <ele>753</ele>
        <time>2010-01-01T01:30:07Z</time>
      </trkpt>
      <trkpt lat="42.11567" lon="2.59531">
        <ele>755</ele>
        <time>2010-01-01T01:30:12Z</time>
      </trkpt>
      <trkpt lat="42.1156" lon="2.59537">
        <ele>757</ele>
        <time>2010-01-01T01:30:15Z</time>
      </trkpt>
      <trkpt lat="42.11552" lon="2.59554">
        <ele>757</ele>
        <time>2010-01-01T01:30:21Z</time>
      </trkpt>
      <trkpt lat="42.11547" lon="2.59578">
        <ele>757</ele>
        <time>2010-01-01T01:30:28Z</time>
      </trkpt>
      <trkpt lat="42.11545" lon="2.59606">
        <ele>757</ele>
        <time>2010-01-01T01:30:36Z</time>
      </trkpt>
      <trkpt lat="42.11547" lon="2.59634">
        <ele>754</ele>
        <time>2010-01-01T01:30:45Z</time>
      </trkpt>
      <trkpt lat="42.11551" lon="2.59659">
        <ele>751</ele>
        <time>2010-01-01T01:30:52Z</time>
      </trkpt>
      <trkpt lat="42.1155" lon="2.59688">
        <ele>751</ele>
        <time>2010-01-01T01:31:01Z</time>
      </trkpt>
      <trkpt lat="42.11553" lon="2.59708">
        <ele>748</ele>
        <time>2010-01-01T01:31:07Z</time>
      </trkpt>
      <trkpt lat="42.11554" lon="2.59719">
        <ele>746</ele>
        <time>2010-01-01T01:31:10Z</time>
      </trkpt>
      <trkpt lat="42.11552" lon="2.59719">
        <ele>747</ele>
        <time>2010-01-01T01:31:11Z</time>
      </trkpt>
      <trkpt lat="42.11552" lon="2.59721">
        <ele>747</ele>
        <time>2010-01-01T01:31:11Z</time>
      </trkpt>
      <trkpt lat="42.11547" lon="2.5972">
        <ele>748</ele>
        <time>2010-01-01T01:31:14Z</time>
      </trkpt>
      <trkpt lat="42.11523" lon="2.59719">
        <ele>755</ele>
        <time>2010-01-01T01:31:23Z</time>
      </trkpt>
      <trkpt lat="42.11512" lon="2.59715">
        <ele>759</ele>
        <time>2010-01-01T01:31:28Z</time>
      </trkpt>
      <trkpt lat="42.11491" lon="2.59726">
        <ele>763</ele>
        <time>2010-01-01T01:31:37Z</time>
      </trkpt>
      <trkpt lat="42.11477" lon="2.5974">
        <ele>763</ele>
        <time>2010-01-01T01:31:44Z</time>
      </trkpt>
      <trkpt lat="42.11458" lon="2.59759">
        <ele>766</ele>
        <time>2010-01-01T01:31:53Z</time>
      </trkpt>
      <trkpt lat="42.1145" lon="2.59762">
        <ele>769</ele>
        <time>2010-01-01T01:31:56Z</time>
      </trkpt>
      <trkpt lat="42.11435" lon="2.59766">
        <ele>775</ele>
        <time>2010-01-01T01:32:02Z</time>
      </trkpt>
      <trkpt lat="42.11433" lon="2.59771">
        <ele>774</ele>
        <time>2010-01-01T01:32:04Z</time>
      </trkpt>
      <trkpt lat="42.1142" lon="2.5979">
        <ele>773</ele>
        <time>2010-01-01T01:32:12Z</time>
      </trkpt>
      <trkpt lat="42.11411" lon="2.59806">
        <ele>772</ele>
        <time>2010-01-01T01:32:18Z</time>
      </trkpt>
      <trkpt lat="42.11398" lon="2.59828">
        <ele>770</ele>
        <time>2010-01-01T01:32:26Z</time>
      </trkpt>
      <trkpt lat="42.11377" lon="2.5985">
        <ele>772</ele>
        <time>2010-01-01T01:32:37Z</time>
      </trkpt>
      <trkpt lat="42.11374" lon="2.59851">
        <ele>773</ele>
        <time>2010-01-01T01:32:38Z</time>
      </trkpt>
      <trkpt lat="42.11357" lon="2.5986">
        <ele>778</ele>
        <time>2010-01-01T01:32:45Z</time>
      </trkpt>
      <trkpt lat="42.11345" lon="2.59881">
        <ele>781</ele>
        <time>2010-01-01T01:32:53Z</time>
      </trkpt>
      <trkpt lat="42.11338" lon="2.59891">
        <ele>783</ele>
        <time>2010-01-01T01:32:57Z</time>
      </trkpt>
      <trkpt lat="42.11336" lon="2.59897">
        <ele>783</ele>
        <time>2010-01-01T01:32:59Z</time>
      </trkpt>
      <trkpt lat="42.11337" lon="2.59929">
        <ele>774</ele>
        <time>2010-01-01T01:33:09Z</time>
      </trkpt>
      <trkpt lat="42.11343" lon="2.59952">
        <ele>768</ele>
        <time>2010-01-01T01:33:16Z</time>
      </trkpt>
      <trkpt lat="42.1134" lon="2.59974">
        <ele>769</ele>
        <time>2010-01-01T01:33:22Z</time>
      </trkpt>
      <trkpt lat="42.11341" lon="2.5999">
        <ele>768</ele>
        <time>2010-01-01T01:33:27Z</time>
      </trkpt>
      <trkpt lat="42.11346" lon="2.60017">
        <ele>764</ele>
        <time>2010-01-01T01:33:35Z</time>
      </trkpt>
      <trkpt lat="42.1134" lon="2.6003">
        <ele>768</ele>
        <time>2010-01-01T01:33:40Z</time>
      </trkpt>
      <trkpt lat="42.1133" lon="2.6004">
        <ele>774</ele>
        <time>2010-01-01T01:33:45Z</time>
      </trkpt>
      <trkpt lat="42.1133" lon="2.6006">
        <ele>772</ele>
        <time>2010-01-01T01:33:51Z</time>
      </trkpt>
      <trkpt lat="42.1133" lon="2.60072">
        <ele>771</ele>
        <time>2010-01-01T01:33:54Z</time>
      </trkpt>
      <trkpt lat="42.11334" lon="2.60107">
        <ele>767</ele>
        <time>2010-01-01T01:34:05Z</time>
      </trkpt>
      <trkpt lat="42.11337" lon="2.60122">
        <ele>764</ele>
        <time>2010-01-01T01:34:10Z</time>
      </trkpt>
      <trkpt lat="42.1133" lon="2.60138">
        <ele>766</ele>
        <time>2010-01-01T01:34:15Z</time>
      </trkpt>
      <trkpt lat="42.11323" lon="2.60142">
        <ele>767</ele>
        <time>2010-01-01T01:34:18Z</time>
      </trkpt>
      <trkpt lat="42.11322" lon="2.60146">
        <ele>767</ele>
        <time>2010-01-01T01:34:19Z</time>
      </trkpt>
      <trkpt lat="42.11311" lon="2.60155">
        <ele>768</ele>
        <time>2010-01-01T01:34:24Z</time>
      </trkpt>
      <trkpt lat="42.11296" lon="2.60173">
        <ele>767</ele>
        <time>2010-01-01T01:34:32Z</time>
      </trkpt>
      <trkpt lat="42.11293" lon="2.60178">
        <ele>767</ele>
        <time>2010-01-01T01:34:34Z</time>
      </trkpt>
      <trkpt lat="42.11289" lon="2.60191">
        <ele>767</ele>
        <time>2010-01-01T01:34:38Z</time>
      </trkpt>
      <trkpt lat="42.11288" lon="2.60212">
        <ele>767</ele>
        <time>2010-01-01T01:34:45Z</time>
      </trkpt>
      <trkpt lat="42.11283" lon="2.60235">
        <ele>768</ele>
        <time>2010-01-01T01:34:52Z</time>
      </trkpt>
      <trkpt lat="42.11274" lon="2.60253">
        <ele>768</ele>
        <time>2010-01-01T01:34:58Z</time>
      </trkpt>
      <trkpt lat="42.11259" lon="2.60272">
        <ele>767</ele>
        <time>2010-01-01T01:35:06Z</time>
      </trkpt>
      <trkpt lat="42.11246" lon="2.60287">
        <ele>765</ele>
        <time>2010-01-01T01:35:13Z</time>
      </trkpt>
      <trkpt lat="42.11244" lon="2.60288">
        <ele>765</ele>
        <time>2010-01-01T01:35:14Z</time>
      </trkpt>
      <trkpt lat="42.11241" lon="2.60292">
        <ele>765</ele>
        <time>2010-01-01T01:35:16Z</time>
      </trkpt>
      <trkpt lat="42.11229" lon="2.60313">
        <ele>764</ele>
        <time>2010-01-01T01:35:24Z</time>
      </trkpt>
      <trkpt lat="42.11226" lon="2.60317">
        <ele>764</ele>
        <time>2010-01-01T01:35:25Z</time>
      </trkpt>
      <trkpt lat="42.11211" lon="2.60342">
        <ele>762</ele>
        <time>2010-01-01T01:35:35Z</time>
      </trkpt>
      <trkpt lat="42.11194" lon="2.60361">
        <ele>758</ele>
        <time>2010-01-01T01:35:44Z</time>
      </trkpt>
      <trkpt lat="42.11176" lon="2.60386">
        <ele>755</ele>
        <time>2010-01-01T01:35:54Z</time>
      </trkpt>
      <trkpt lat="42.11156" lon="2.60404">
        <ele>751</ele>
        <time>2010-01-01T01:36:04Z</time>
      </trkpt>
      <trkpt lat="42.11134" lon="2.60421">
        <ele>747</ele>
        <time>2010-01-01T01:36:14Z</time>
      </trkpt>
      <trkpt lat="42.11115" lon="2.60442">
        <ele>751</ele>
        <time>2010-01-01T01:36:24Z</time>
      </trkpt>
      <trkpt lat="42.11092" lon="2.60461">
        <ele>749</ele>
        <time>2010-01-01T01:36:35Z</time>
      </trkpt>
      <trkpt lat="42.11072" lon="2.60486">
        <ele>746</ele>
        <time>2010-01-01T01:36:46Z</time>
      </trkpt>
      <trkpt lat="42.11066" lon="2.60495">
        <ele>745</ele>
        <time>2010-01-01T01:36:49Z</time>
      </trkpt>
      <trkpt lat="42.11049" lon="2.60515">
        <ele>740</ele>
        <time>2010-01-01T01:36:58Z</time>
      </trkpt>
      <trkpt lat="42.1103" lon="2.6054">
        <ele>734</ele>
        <time>2010-01-01T01:37:09Z</time>
      </trkpt>
      <trkpt lat="42.11011" lon="2.60559">
        <ele>730</ele>
        <time>2010-01-01T01:37:18Z</time>
      </trkpt>
      <trkpt lat="42.11002" lon="2.60567">
        <ele>728</ele>
        <time>2010-01-01T01:37:22Z</time>
      </trkpt>
      <trkpt lat="42.10996" lon="2.60572">
        <ele>727</ele>
        <time>2010-01-01T01:37:26Z</time>
      </trkpt>
      <trkpt lat="42.10976" lon="2.60588">
        <ele>727</ele>
        <time>2010-01-01T01:37:35Z</time>
      </trkpt>
      <trkpt lat="42.10951" lon="2.60606">
        <ele>729</ele>
        <time>2010-01-01T01:37:46Z</time>
      </trkpt>
      <trkpt lat="42.1094" lon="2.60612">
        <ele>730</ele>
        <time>2010-01-01T01:37:51Z</time>
      </trkpt>
      <trkpt lat="42.10933" lon="2.60613">
        <ele>730</ele>
        <time>2010-01-01T01:37:54Z</time>
      </trkpt>
      <trkpt lat="42.10914" lon="2.60625">
        <ele>731</ele>
        <time>2010-01-01T01:38:02Z</time>
      </trkpt>
      <trkpt lat="42.10898" lon="2.60643">
        <ele>729</ele>
        <time>2010-01-01T01:38:11Z</time>
      </trkpt>
      <trkpt lat="42.10885" lon="2.60668">
        <ele>728</ele>
        <time>2010-01-01T01:38:19Z</time>
      </trkpt>
      <trkpt lat="42.1087" lon="2.60698">
        <ele>722</ele>
        <time>2010-01-01T01:38:30Z</time>
      </trkpt>
      <trkpt lat="42.10858" lon="2.60724">
        <ele>720</ele>
        <time>2010-01-01T01:38:39Z</time>
      </trkpt>
      <trkpt lat="42.10844" lon="2.60743">
        <ele>719</ele>
        <time>2010-01-01T01:38:47Z</time>
      </trkpt>
      <trkpt lat="42.10845" lon="2.60747">
        <ele>718</ele>
        <time>2010-01-01T01:38:49Z</time>
      </trkpt>
      <trkpt lat="42.10846" lon="2.60746">
        <ele>718</ele>
        <time>2010-01-01T01:38:49Z</time>
      </trkpt>
      <trkpt lat="42.10845" lon="2.60745">
        <ele>718</ele>
        <time>2010-01-01T01:38:49Z</time>
      </trkpt>
      <trkpt lat="42.10846" lon="2.60748">
        <ele>718</ele>
        <time>2010-01-01T01:38:50Z</time>
      </trkpt>
      <trkpt lat="42.10845" lon="2.60748">
        <ele>718</ele>
        <time>2010-01-01T01:38:50Z</time>
      </trkpt>
      <trkpt lat="42.10836" lon="2.60756">
        <ele>718</ele>
        <time>2010-01-01T01:38:55Z</time>
      </trkpt>
      <trkpt lat="42.10817" lon="2.60769">
        <ele>716</ele>
        <time>2010-01-01T01:39:03Z</time>
      </trkpt>
      <trkpt lat="42.10798" lon="2.60786">
        <ele>715</ele>
        <time>2010-01-01T01:39:12Z</time>
      </trkpt>
      <trkpt lat="42.1077" lon="2.60804">
        <ele>716</ele>
        <time>2010-01-01T01:39:25Z</time>
      </trkpt>
      <trkpt lat="42.10752" lon="2.60815">
        <ele>715</ele>
        <time>2010-01-01T01:39:33Z</time>
      </trkpt>
      <trkpt lat="42.10731" lon="2.60835">
        <ele>712</ele>
        <time>2010-01-01T01:39:43Z</time>
      </trkpt>
      <trkpt lat="42.10722" lon="2.60836">
        <ele>711</ele>
        <time>2010-01-01T01:39:47Z</time>
      </trkpt>
      <trkpt lat="42.1072" lon="2.60829">
        <ele>711</ele>
        <time>2010-01-01T01:39:49Z</time>
      </trkpt>
      <trkpt lat="42.10721" lon="2.60793">
        <ele>710</ele>
        <time>2010-01-01T01:40:00Z</time>
      </trkpt>
      <trkpt lat="42.10719" lon="2.60767">
        <ele>708</ele>
        <time>2010-01-01T01:40:07Z</time>
      </trkpt>
      <trkpt lat="42.1071" lon="2.60744">
        <ele>704</ele>
        <time>2010-01-01T01:40:15Z</time>
      </trkpt>
      <trkpt lat="42.10701" lon="2.60741">
        <ele>702</ele>
        <time>2010-01-01T01:40:19Z</time>
      </trkpt>
      <trkpt lat="42.10699" lon="2.6074">
        <ele>701</ele>
        <time>2010-01-01T01:40:20Z</time>
      </trkpt>
      <trkpt lat="42.10699" lon="2.60741">
        <ele>701</ele>
        <time>2010-01-01T01:40:20Z</time>
      </trkpt>
      <trkpt lat="42.10698" lon="2.60743">
        <ele>701</ele>
        <time>2010-01-01T01:40:21Z</time>
      </trkpt>
      <trkpt lat="42.10692" lon="2.60764">
        <ele>700</ele>
        <time>2010-01-01T01:40:28Z</time>
      </trkpt>
      <trkpt lat="42.10691" lon="2.60766">
        <ele>700</ele>
        <time>2010-01-01T01:40:28Z</time>
      </trkpt>
      <trkpt lat="42.10684" lon="2.60791">
        <ele>698</ele>
        <time>2010-01-01T01:40:36Z</time>
      </trkpt>
      <trkpt lat="42.10669" lon="2.60818">
        <ele>696</ele>
        <time>2010-01-01T01:40:46Z</time>
      </trkpt>
      <trkpt lat="42.1065" lon="2.60837">
        <ele>694</ele>
        <time>2010-01-01T01:40:55Z</time>
      </trkpt>
      <trkpt lat="42.1063" lon="2.60857">
        <ele>688</ele>
        <time>2010-01-01T01:41:06Z</time>
      </trkpt>
      <trkpt lat="42.10619" lon="2.60881">
        <ele>686</ele>
        <time>2010-01-01T01:41:14Z</time>
      </trkpt>
      <trkpt lat="42.10617" lon="2.60891">
        <ele>686</ele>
        <time>2010-01-01T01:41:17Z</time>
      </trkpt>
      <trkpt lat="42.10608" lon="2.6092">
        <ele>684</ele>
        <time>2010-01-01T01:41:26Z</time>
      </trkpt>
      <trkpt lat="42.10593" lon="2.60948">
        <ele>680</ele>
        <time>2010-01-01T01:41:37Z</time>
      </trkpt>
      <trkpt lat="42.10582" lon="2.60967">
        <ele>678</ele>
        <time>2010-01-01T01:41:44Z</time>
      </trkpt>
      <trkpt lat="42.10567" lon="2.60983">
        <ele>675</ele>
        <time>2010-01-01T01:41:51Z</time>
      </trkpt>
      <trkpt lat="42.1055" lon="2.60996">
        <ele>672</ele>
        <time>2010-01-01T01:41:59Z</time>
      </trkpt>
      <trkpt lat="42.10551" lon="2.61008">
        <ele>673</ele>
        <time>2010-01-01T01:42:03Z</time>
      </trkpt>
      <trkpt lat="42.10563" lon="2.61013">
        <ele>675</ele>
        <time>2010-01-01T01:42:08Z</time>
      </trkpt>
      <trkpt lat="42.10576" lon="2.61017">
        <ele>677</ele>
        <time>2010-01-01T01:42:13Z</time>
      </trkpt>
      <trkpt lat="42.10579" lon="2.6102">
        <ele>677</ele>
        <time>2010-01-01T01:42:15Z</time>
      </trkpt>
      <trkpt lat="42.10576" lon="2.61047">
        <ele>675</ele>
        <time>2010-01-01T01:42:23Z</time>
      </trkpt>
      <trkpt lat="42.10572" lon="2.61071">
        <ele>672</ele>
        <time>2010-01-01T01:42:30Z</time>
      </trkpt>
      <trkpt lat="42.10573" lon="2.61096">
        <ele>670</ele>
        <time>2010-01-01T01:42:37Z</time>
      </trkpt>
      <trkpt lat="42.10574" lon="2.61127">
        <ele>669</ele>
        <time>2010-01-01T01:42:47Z</time>
      </trkpt>
      <trkpt lat="42.10575" lon="2.61136">
        <ele>669</ele>
        <time>2010-01-01T01:42:50Z</time>
      </trkpt>
      <trkpt lat="42.10579" lon="2.61164">
        <ele>666</ele>
        <time>2010-01-01T01:42:58Z</time>
      </trkpt>
      <trkpt lat="42.1058" lon="2.61172">
        <ele>665</ele>
        <time>2010-01-01T01:43:00Z</time>
      </trkpt>
      <trkpt lat="42.10578" lon="2.61211">
        <ele>660</ele>
        <time>2010-01-01T01:43:12Z</time>
      </trkpt>
      <trkpt lat="42.10579" lon="2.61239">
        <ele>656</ele>
        <time>2010-01-01T01:43:20Z</time>
      </trkpt>
      <trkpt lat="42.10578" lon="2.61252">
        <ele>654</ele>
        <time>2010-01-01T01:43:24Z</time>
      </trkpt>
      <trkpt lat="42.10575" lon="2.61281">
        <ele>651</ele>
        <time>2010-01-01T01:43:33Z</time>
      </trkpt>
      <trkpt lat="42.10574" lon="2.61317">
        <ele>649</ele>
        <time>2010-01-01T01:43:44Z</time>
      </trkpt>
      <trkpt lat="42.10583" lon="2.61347">
        <ele>648</ele>
        <time>2010-01-01T01:43:53Z</time>
      </trkpt>
      <trkpt lat="42.10593" lon="2.61358">
        <ele>650</ele>
        <time>2010-01-01T01:43:58Z</time>
      </trkpt>
      <trkpt lat="42.10599" lon="2.61366">
        <ele>650</ele>
        <time>2010-01-01T01:44:02Z</time>
      </trkpt>
      <trkpt lat="42.10607" lon="2.61391">
        <ele>648</ele>
        <time>2010-01-01T01:44:10Z</time>
      </trkpt>
      <trkpt lat="42.1061" lon="2.61433">
        <ele>645</ele>
        <time>2010-01-01T01:44:22Z</time>
      </trkpt>
      <trkpt lat="42.1061" lon="2.61438">
        <ele>645</ele>
        <time>2010-01-01T01:44:24Z</time>
      </trkpt>
      <trkpt lat="42.10611" lon="2.61455">
        <ele>644</ele>
        <time>2010-01-01T01:44:29Z</time>
      </trkpt>
      <trkpt lat="42.10612" lon="2.61485">
        <ele>642</ele>
        <time>2010-01-01T01:44:38Z</time>
      </trkpt>
      <trkpt lat="42.10613" lon="2.61512">
        <ele>641</ele>
        <time>2010-01-01T01:44:46Z</time>
      </trkpt>
      <trkpt lat="42.10613" lon="2.61538">
        <ele>641</ele>
        <time>2010-01-01T01:44:54Z</time>
      </trkpt>
      <trkpt lat="42.10612" lon="2.61561">
        <ele>641</ele>
        <time>2010-01-01T01:45:01Z</time>
      </trkpt>
      <trkpt lat="42.1061" lon="2.61569">
        <ele>640</ele>
        <time>2010-01-01T01:45:03Z</time>
      </trkpt>
      <trkpt lat="42.10595" lon="2.61603">
        <ele>640</ele>
        <time>2010-01-01T01:45:15Z</time>
      </trkpt>
      <trkpt lat="42.10589" lon="2.61614">
        <ele>640</ele>
        <time>2010-01-01T01:45:19Z</time>
      </trkpt>
      <trkpt lat="42.10587" lon="2.61616">
        <ele>640</ele>
        <time>2010-01-01T01:45:20Z</time>
      </trkpt>
      <trkpt lat="42.10576" lon="2.6162">
        <ele>640</ele>
        <time>2010-01-01T01:45:24Z</time>
      </trkpt>
      <trkpt lat="42.10566" lon="2.61642">
        <ele>640</ele>
        <time>2010-01-01T01:45:32Z</time>
      </trkpt>
      <trkpt lat="42.10563" lon="2.61659">
        <ele>640</ele>
        <time>2010-01-01T01:45:37Z</time>
      </trkpt>
      <trkpt lat="42.10565" lon="2.61684">
        <ele>641</ele>
        <time>2010-01-01T01:45:44Z</time>
      </trkpt>
      <trkpt lat="42.10575" lon="2.61699">
        <ele>640</ele>
        <time>2010-01-01T01:45:51Z</time>
      </trkpt>
      <trkpt lat="42.10581" lon="2.61703">
        <ele>641</ele>
        <time>2010-01-01T01:45:53Z</time>
      </trkpt>
      <trkpt lat="42.10593" lon="2.61719">
        <ele>642</ele>
        <time>2010-01-01T01:46:00Z</time>
      </trkpt>
      <trkpt lat="42.10592" lon="2.61724">
        <ele>642</ele>
        <time>2010-01-01T01:46:02Z</time>
      </trkpt>
      <trkpt lat="42.10588" lon="2.61738">
        <ele>644</ele>
        <time>2010-01-01T01:46:06Z</time>
      </trkpt>
      <trkpt lat="42.10578" lon="2.61764">
        <ele>646</ele>
        <time>2010-01-01T01:46:15Z</time>
      </trkpt>
      <trkpt lat="42.1057" lon="2.61785">
        <ele>647</ele>
        <time>2010-01-01T01:46:22Z</time>
      </trkpt>
      <trkpt lat="42.10563" lon="2.61807">
        <ele>649</ele>
        <time>2010-01-01T01:46:29Z</time>
      </trkpt>
      <trkpt lat="42.10556" lon="2.61818">
        <ele>651</ele>
        <time>2010-01-01T01:46:33Z</time>
      </trkpt>
      <trkpt lat="42.10544" lon="2.6183">
        <ele>653</ele>
        <time>2010-01-01T01:46:39Z</time>
      </trkpt>
      <trkpt lat="42.10528" lon="2.6184">
        <ele>654</ele>
        <time>2010-01-01T01:46:46Z</time>
      </trkpt>
      <trkpt lat="42.10511" lon="2.61852">
        <ele>655</ele>
        <time>2010-01-01T01:46:54Z</time>
      </trkpt>
      <trkpt lat="42.10489" lon="2.61863">
        <ele>656</ele>
        <time>2010-01-01T01:47:03Z</time>
      </trkpt>
      <trkpt lat="42.10469" lon="2.61873">
        <ele>658</ele>
        <time>2010-01-01T01:47:12Z</time>
      </trkpt>
      <trkpt lat="42.1046" lon="2.61876">
        <ele>659</ele>
        <time>2010-01-01T01:47:15Z</time>
      </trkpt>
      <trkpt lat="42.1044" lon="2.61877">
        <ele>660</ele>
        <time>2010-01-01T01:47:24Z</time>
      </trkpt>
      <trkpt lat="42.10436" lon="2.61877">
        <ele>660</ele>
        <time>2010-01-01T01:47:25Z</time>
      </trkpt>
      <trkpt lat="42.10431" lon="2.61879">
        <ele>660</ele>
        <time>2010-01-01T01:47:27Z</time>
      </trkpt>
      <trkpt lat="42.10416" lon="2.6189">
        <ele>662</ele>
        <time>2010-01-01T01:47:34Z</time>
      </trkpt>
      <trkpt lat="42.104" lon="2.61902">
        <ele>662</ele>
        <time>2010-01-01T01:47:41Z</time>
      </trkpt>
      <trkpt lat="42.10388" lon="2.61932">
        <ele>662</ele>
        <time>2010-01-01T01:47:51Z</time>
      </trkpt>
      <trkpt lat="42.10377" lon="2.61958">
        <ele>660</ele>
        <time>2010-01-01T01:48:00Z</time>
      </trkpt>
      <trkpt lat="42.10371" lon="2.6198">
        <ele>659</ele>
        <time>2010-01-01T01:48:07Z</time>
      </trkpt>
      <trkpt lat="42.10367" lon="2.62002">
        <ele>659</ele>
        <time>2010-01-01T01:48:14Z</time>
      </trkpt>
      <trkpt lat="42.10361" lon="2.62031">
        <ele>657</ele>
        <time>2010-01-01T01:48:23Z</time>
      </trkpt>
      <trkpt lat="42.10344" lon="2.62049">
        <ele>653</ele>
        <time>2010-01-01T01:48:31Z</time>
      </trkpt>
      <trkpt lat="42.10328" lon="2.62058">
        <ele>652</ele>
        <time>2010-01-01T01:48:38Z</time>
      </trkpt>
      <trkpt lat="42.10312" lon="2.62073">
        <ele>650</ele>
        <time>2010-01-01T01:48:46Z</time>
      </trkpt>
      <trkpt lat="42.10294" lon="2.62099">
        <ele>649</ele>
        <time>2010-01-01T01:48:57Z</time>
      </trkpt>
      <trkpt lat="42.10279" lon="2.62129">
        <ele>650</ele>
        <time>2010-01-01T01:49:08Z</time>
      </trkpt>
      <trkpt lat="42.10267" lon="2.62164">
        <ele>649</ele>
        <time>2010-01-01T01:49:19Z</time>
      </trkpt>
      <trkpt lat="42.10265" lon="2.62169">
        <ele>649</ele>
        <time>2010-01-01T01:49:21Z</time>
      </trkpt>
      <trkpt lat="42.10255" lon="2.62187">
        <ele>649</ele>
        <time>2010-01-01T01:49:27Z</time>
      </trkpt>
      <trkpt lat="42.10242" lon="2.62207">
        <ele>647</ele>
        <time>2010-01-01T01:49:35Z</time>
      </trkpt>
      <trkpt lat="42.10231" lon="2.62226">
        <ele>645</ele>
        <time>2010-01-01T01:49:43Z</time>
      </trkpt>
      <trkpt lat="42.10221" lon="2.62237">
        <ele>645</ele>
        <time>2010-01-01T01:49:48Z</time>
      </trkpt>
      <trkpt lat="42.10204" lon="2.6226">
        <ele>641</ele>
        <time>2010-01-01T01:49:57Z</time>
      </trkpt>
      <trkpt lat="42.10201" lon="2.62262">
        <ele>640</ele>
        <time>2010-01-01T01:49:58Z</time>
      </trkpt>
      <trkpt lat="42.10182" lon="2.62288">
        <ele>637</ele>
        <time>2010-01-01T01:50:09Z</time>
      </trkpt>
      <trkpt lat="42.1018" lon="2.62321">
        <ele>638</ele>
        <time>2010-01-01T01:50:19Z</time>
      </trkpt>
      <trkpt lat="42.1018" lon="2.62333">
        <ele>639</ele>
        <time>2010-01-01T01:50:23Z</time>
      </trkpt>
      <trkpt lat="42.10181" lon="2.62337">
        <ele>639</ele>
        <time>2010-01-01T01:50:24Z</time>
      </trkpt>
      <trkpt lat="42.1019" lon="2.62368">
        <ele>640</ele>
        <time>2010-01-01T01:50:34Z</time>
      </trkpt>
      <trkpt lat="42.10196" lon="2.62397">
        <ele>638</ele>
        <time>2010-01-01T01:50:43Z</time>
      </trkpt>
      <trkpt lat="42.10199" lon="2.62401">
        <ele>637</ele>
        <time>2010-01-01T01:50:44Z</time>
      </trkpt>
      <trkpt lat="42.10208" lon="2.62419">
        <ele>635</ele>
        <time>2010-01-01T01:50:51Z</time>
      </trkpt>
      <trkpt lat="42.10213" lon="2.62425">
        <ele>635</ele>
        <time>2010-01-01T01:50:53Z</time>
      </trkpt>
      <trkpt lat="42.10219" lon="2.62443">
        <ele>634</ele>
        <time>2010-01-01T01:50:59Z</time>
      </trkpt>
      <trkpt lat="42.10222" lon="2.62477">
        <ele>634</ele>
        <time>2010-01-01T01:51:10Z</time>
      </trkpt>
      <trkpt lat="42.1022" lon="2.62494">
        <ele>634</ele>
        <time>2010-01-01T01:51:15Z</time>
      </trkpt>
      <trkpt lat="42.10208" lon="2.6252">
        <ele>634</ele>
        <time>2010-01-01T01:51:24Z</time>
      </trkpt>
      <trkpt lat="42.10204" lon="2.62526">
        <ele>635</ele>
        <time>2010-01-01T01:51:26Z</time>
      </trkpt>
      <trkpt lat="42.10193" lon="2.62553">
        <ele>637</ele>
        <time>2010-01-01T01:51:35Z</time>
      </trkpt>
      <trkpt lat="42.10184" lon="2.6258">
        <ele>639</ele>
        <time>2010-01-01T01:51:44Z</time>
      </trkpt>
      <trkpt lat="42.10171" lon="2.62595">
        <ele>641</ele>
        <time>2010-01-01T01:51:51Z</time>
      </trkpt>
      <trkpt lat="42.10155" lon="2.62616">
        <ele>643</ele>
        <time>2010-01-01T01:52:00Z</time>
      </trkpt>
      <trkpt lat="42.10148" lon="2.6263">
        <ele>645</ele>
        <time>2010-01-01T01:52:05Z</time>
      </trkpt>
      <trkpt lat="42.10141" lon="2.62642">
        <ele>648</ele>
        <time>2010-01-01T01:52:09Z</time>
      </trkpt>
      <trkpt lat="42.10134" lon="2.62649">
        <ele>648</ele>
        <time>2010-01-01T01:52:13Z</time>
      </trkpt>
      <trkpt lat="42.10118" lon="2.6267">
        <ele>649</ele>
        <time>2010-01-01T01:52:22Z</time>
      </trkpt>
      <trkpt lat="42.10108" lon="2.62679">
        <ele>649</ele>
        <time>2010-01-01T01:52:27Z</time>
      </trkpt>
      <trkpt lat="42.10087" lon="2.62704">
        <ele>648</ele>
        <time>2010-01-01T01:52:38Z</time>
      </trkpt>
      <trkpt lat="42.10067" lon="2.62727">
        <ele>647</ele>
        <time>2010-01-01T01:52:49Z</time>
      </trkpt>
      <trkpt lat="42.10039" lon="2.62745">
        <ele>647</ele>
        <time>2010-01-01T01:53:01Z</time>
      </trkpt>
      <trkpt lat="42.10016" lon="2.62759">
        <ele>647</ele>
        <time>2010-01-01T01:53:11Z</time>
      </trkpt>
      <trkpt lat="42.1" lon="2.62766">
        <ele>647</ele>
        <time>2010-01-01T01:53:18Z</time>
      </trkpt>
      <trkpt lat="42.09975" lon="2.62769">
        <ele>645</ele>
        <time>2010-01-01T01:53:28Z</time>
      </trkpt>
      <trkpt lat="42.09962" lon="2.62766">
        <ele>642</ele>
        <time>2010-01-01T01:53:33Z</time>
      </trkpt>
      <trkpt lat="42.09964" lon="2.62759">
        <ele>641</ele>
        <time>2010-01-01T01:53:35Z</time>
      </trkpt>
      <trkpt lat="42.09968" lon="2.62748">
        <ele>639</ele>
        <time>2010-01-01T01:53:39Z</time>
      </trkpt>
      <trkpt lat="42.09949" lon="2.62747">
        <ele>636</ele>
        <time>2010-01-01T01:53:46Z</time>
      </trkpt>
      <trkpt lat="42.09941" lon="2.62748">
        <ele>635</ele>
        <time>2010-01-01T01:53:50Z</time>
      </trkpt>
      <trkpt lat="42.09938" lon="2.62748">
        <ele>635</ele>
        <time>2010-01-01T01:53:51Z</time>
      </trkpt>
      <trkpt lat="42.09933" lon="2.62748">
        <ele>634</ele>
        <time>2010-01-01T01:53:53Z</time>
      </trkpt>
      <trkpt lat="42.09933" lon="2.62736">
        <ele>633</ele>
        <time>2010-01-01T01:53:56Z</time>
      </trkpt>
      <trkpt lat="42.09933" lon="2.62735">
        <ele>633</ele>
        <time>2010-01-01T01:53:57Z</time>
      </trkpt>
      <trkpt lat="42.09921" lon="2.6272">
        <ele>631</ele>
        <time>2010-01-01T01:54:03Z</time>
      </trkpt>
      <trkpt lat="42.09923" lon="2.62705">
        <ele>628</ele>
        <time>2010-01-01T01:54:07Z</time>
      </trkpt>
      <trkpt lat="42.09931" lon="2.62705">
        <ele>629</ele>
        <time>2010-01-01T01:54:10Z</time>
      </trkpt>
      <trkpt lat="42.09929" lon="2.62702">
        <ele>628</ele>
        <time>2010-01-01T01:54:11Z</time>
      </trkpt>
      <trkpt lat="42.09926" lon="2.62702">
        <ele>628</ele>
        <time>2010-01-01T01:54:13Z</time>
      </trkpt>
      <trkpt lat="42.09923" lon="2.62719">
        <ele>631</ele>
        <time>2010-01-01T01:54:18Z</time>
      </trkpt>
      <trkpt lat="42.09933" lon="2.62734">
        <ele>633</ele>
        <time>2010-01-01T01:54:24Z</time>
      </trkpt>
      <trkpt lat="42.09931" lon="2.62748">
        <ele>634</ele>
        <time>2010-01-01T01:54:28Z</time>
      </trkpt>
      <trkpt lat="42.09932" lon="2.6275">
        <ele>634</ele>
        <time>2010-01-01T01:54:29Z</time>
      </trkpt>
      <trkpt lat="42.09928" lon="2.62753">
        <ele>634</ele>
        <time>2010-01-01T01:54:31Z</time>
      </trkpt>
      <trkpt lat="42.09927" lon="2.62753">
        <ele>634</ele>
        <time>2010-01-01T01:54:31Z</time>
      </trkpt>
      <trkpt lat="42.09908" lon="2.6277">
        <ele>633</ele>
        <time>2010-01-01T01:54:40Z</time>
      </trkpt>
      <trkpt lat="42.09889" lon="2.62798">
        <ele>635</ele>
        <time>2010-01-01T01:54:52Z</time>
      </trkpt>
      <trkpt lat="42.09865" lon="2.62818">
        <ele>636</ele>
        <time>2010-01-01T01:55:03Z</time>
      </trkpt>
      <trkpt lat="42.09838" lon="2.6283">
        <ele>637</ele>
        <time>2010-01-01T01:55:14Z</time>
      </trkpt>
      <trkpt lat="42.09819" lon="2.62833">
        <ele>638</ele>
        <time>2010-01-01T01:55:22Z</time>
      </trkpt>
      <trkpt lat="42.09817" lon="2.62833">
        <ele>639</ele>
        <time>2010-01-01T01:55:23Z</time>
      </trkpt>
      <trkpt lat="42.09804" lon="2.62836">
        <ele>640</ele>
        <time>2010-01-01T01:55:28Z</time>
      </trkpt>
      <trkpt lat="42.0979" lon="2.62845">
        <ele>643</ele>
        <time>2010-01-01T01:55:34Z</time>
      </trkpt>
      <trkpt lat="42.09778" lon="2.62853">
        <ele>646</ele>
        <time>2010-01-01T01:55:39Z</time>
      </trkpt>
      <trkpt lat="42.09765" lon="2.62862">
        <ele>646</ele>
        <time>2010-01-01T01:55:45Z</time>
      </trkpt>
      <trkpt lat="42.09745" lon="2.62878">
        <ele>646</ele>
        <time>2010-01-01T01:55:54Z</time>
      </trkpt>
      <trkpt lat="42.09735" lon="2.62889">
        <ele>646</ele>
        <time>2010-01-01T01:56:00Z</time>
      </trkpt>
      <trkpt lat="42.09728" lon="2.62905">
        <ele>648</ele>
        <time>2010-01-01T01:56:05Z</time>
      </trkpt>
      <trkpt lat="42.0971" lon="2.62921">
        <ele>649</ele>
        <time>2010-01-01T01:56:14Z</time>
      </trkpt>
      <trkpt lat="42.09704" lon="2.62923">
        <ele>648</ele>
        <time>2010-01-01T01:56:17Z</time>
      </trkpt>
      <trkpt lat="42.09688" lon="2.62937">
        <ele>648</ele>
        <time>2010-01-01T01:56:24Z</time>
      </trkpt>
      <trkpt lat="42.09677" lon="2.62958">
        <ele>650</ele>
        <time>2010-01-01T01:56:32Z</time>
      </trkpt>
      <trkpt lat="42.09669" lon="2.62982">
        <ele>652</ele>
        <time>2010-01-01T01:56:40Z</time>
      </trkpt>
      <trkpt lat="42.09664" lon="2.62993">
        <ele>653</ele>
        <time>2010-01-01T01:56:44Z</time>
      </trkpt>
      <trkpt lat="42.09655" lon="2.63002">
        <ele>652</ele>
        <time>2010-01-01T01:56:48Z</time>
      </trkpt>
      <trkpt lat="42.09631" lon="2.63025">
        <ele>653</ele>
        <time>2010-01-01T01:57:00Z</time>
      </trkpt>
      <trkpt lat="42.09624" lon="2.63039">
        <ele>654</ele>
        <time>2010-01-01T01:57:05Z</time>
      </trkpt>
      <trkpt lat="42.09617" lon="2.63059">
        <ele>657</ele>
        <time>2010-01-01T01:57:11Z</time>
      </trkpt>
      <trkpt lat="42.09603" lon="2.63073">
        <ele>657</ele>
        <time>2010-01-01T01:57:18Z</time>
      </trkpt>
      <trkpt lat="42.09585" lon="2.63096">
        <ele>658</ele>
        <time>2010-01-01T01:57:28Z</time>
      </trkpt>
      <trkpt lat="42.09581" lon="2.63099">
        <ele>657</ele>
        <time>2010-01-01T01:57:30Z</time>
      </trkpt>
      <trkpt lat="42.09569" lon="2.63117">
        <ele>658</ele>
        <time>2010-01-01T01:57:37Z</time>
      </trkpt>
      <trkpt lat="42.09554" lon="2.63142">
        <ele>661</ele>
        <time>2010-01-01T01:57:47Z</time>
      </trkpt>
      <trkpt lat="42.09533" lon="2.63162">
        <ele>662</ele>
        <time>2010-01-01T01:57:57Z</time>
      </trkpt>
      <trkpt lat="42.09514" lon="2.63183">
        <ele>663</ele>
        <time>2010-01-01T01:58:07Z</time>
      </trkpt>
      <trkpt lat="42.09506" lon="2.632">
        <ele>664</ele>
        <time>2010-01-01T01:58:13Z</time>
      </trkpt>
      <trkpt lat="42.09501" lon="2.63215">
        <ele>665</ele>
        <time>2010-01-01T01:58:18Z</time>
      </trkpt>
      <trkpt lat="42.0949" lon="2.63234">
        <ele>667</ele>
        <time>2010-01-01T01:58:25Z</time>
      </trkpt>
      <trkpt lat="42.09487" lon="2.63236">
        <ele>667</ele>
        <time>2010-01-01T01:58:26Z</time>
      </trkpt>
      <trkpt lat="42.09471" lon="2.63251">
        <ele>669</ele>
        <time>2010-01-01T01:58:34Z</time>
      </trkpt>
      <trkpt lat="42.09454" lon="2.63267">
        <ele>670</ele>
        <time>2010-01-01T01:58:42Z</time>
      </trkpt>
      <trkpt lat="42.09442" lon="2.63284">
        <ele>672</ele>
        <time>2010-01-01T01:58:49Z</time>
      </trkpt>
      <trkpt lat="42.09428" lon="2.63302">
        <ele>674</ele>
        <time>2010-01-01T01:58:57Z</time>
      </trkpt>
      <trkpt lat="42.09418" lon="2.63312">
        <ele>674</ele>
        <time>2010-01-01T01:59:02Z</time>
      </trkpt>
      <trkpt lat="42.09403" lon="2.63321">
        <ele>674</ele>
        <time>2010-01-01T01:59:08Z</time>
      </trkpt>
      <trkpt lat="42.09384" lon="2.63329">
        <ele>674</ele>
        <time>2010-01-01T01:59:16Z</time>
      </trkpt>
      <trkpt lat="42.09366" lon="2.63328">
        <ele>675</ele>
        <time>2010-01-01T01:59:24Z</time>
      </trkpt>
      <trkpt lat="42.09345" lon="2.63323">
        <ele>678</ele>
        <time>2010-01-01T01:59:32Z</time>
      </trkpt>
      <trkpt lat="42.09334" lon="2.63319">
        <ele>680</ele>
        <time>2010-01-01T01:59:37Z</time>
      </trkpt>
      <trkpt lat="42.09325" lon="2.63298">
        <ele>683</ele>
        <time>2010-01-01T01:59:44Z</time>
      </trkpt>
      <trkpt lat="42.09316" lon="2.63301">
        <ele>685</ele>
        <time>2010-01-01T01:59:48Z</time>
      </trkpt>
      <trkpt lat="42.0931" lon="2.6329">
        <ele>688</ele>
        <time>2010-01-01T01:59:52Z</time>
      </trkpt>
      <trkpt lat="42.09312" lon="2.63273">
        <ele>688</ele>
        <time>2010-01-01T01:59:57Z</time>
      </trkpt>
      <trkpt lat="42.09313" lon="2.63255">
        <ele>689</ele>
        <time>2010-01-01T02:00:02Z</time>
      </trkpt>
      <trkpt lat="42.0931" lon="2.63243">
        <ele>692</ele>
        <time>2010-01-01T02:00:06Z</time>
      </trkpt>
      <trkpt lat="42.09302" lon="2.63225">
        <ele>697</ele>
        <time>2010-01-01T02:00:12Z</time>
      </trkpt>
      <trkpt lat="42.09296" lon="2.63205">
        <ele>703</ele>
        <time>2010-01-01T02:00:19Z</time>
      </trkpt>
      <trkpt lat="42.0929" lon="2.63203">
        <ele>706</ele>
        <time>2010-01-01T02:00:21Z</time>
      </trkpt>
      <trkpt lat="42.0929" lon="2.63205">
        <ele>706</ele>
        <time>2010-01-01T02:00:22Z</time>
      </trkpt>
      <trkpt lat="42.09284" lon="2.63222">
        <ele>706</ele>
        <time>2010-01-01T02:00:27Z</time>
      </trkpt>
      <trkpt lat="42.09275" lon="2.63239">
        <ele>707</ele>
        <time>2010-01-01T02:00:33Z</time>
      </trkpt>
      <trkpt lat="42.09269" lon="2.6326">
        <ele>707</ele>
        <time>2010-01-01T02:00:40Z</time>
      </trkpt>
      <trkpt lat="42.09261" lon="2.63277">
        <ele>708</ele>
        <time>2010-01-01T02:00:46Z</time>
      </trkpt>
      <trkpt lat="42.09254" lon="2.63294">
        <ele>707</ele>
        <time>2010-01-01T02:00:52Z</time>
      </trkpt>
      <trkpt lat="42.09245" lon="2.63313">
        <ele>708</ele>
        <time>2010-01-01T02:00:59Z</time>
      </trkpt>
      <trkpt lat="42.0923" lon="2.63341">
        <ele>709</ele>
        <time>2010-01-01T02:01:09Z</time>
      </trkpt>
      <trkpt lat="42.09226" lon="2.63352">
        <ele>709</ele>
        <time>2010-01-01T02:01:12Z</time>
      </trkpt>
      <trkpt lat="42.09217" lon="2.63375">
        <ele>708</ele>
        <time>2010-01-01T02:01:20Z</time>
      </trkpt>
      <trkpt lat="42.09213" lon="2.63382">
        <ele>707</ele>
        <time>2010-01-01T02:01:23Z</time>
      </trkpt>
      <trkpt lat="42.09195" lon="2.63389">
        <ele>706</ele>
        <time>2010-01-01T02:01:30Z</time>
      </trkpt>
      <trkpt lat="42.09178" lon="2.63379">
        <ele>707</ele>
        <time>2010-01-01T02:01:38Z</time>
      </trkpt>
      <trkpt lat="42.09157" lon="2.63366">
        <ele>710</ele>
        <time>2010-01-01T02:01:47Z</time>
      </trkpt>
      <trkpt lat="42.09139" lon="2.63356">
        <ele>714</ele>
        <time>2010-01-01T02:01:55Z</time>
      </trkpt>
      <trkpt lat="42.09121" lon="2.63356">
        <ele>714</ele>
        <time>2010-01-01T02:02:02Z</time>
      </trkpt>
      <trkpt lat="42.091" lon="2.63352">
        <ele>721</ele>
        <time>2010-01-01T02:02:10Z</time>
      </trkpt>
      <trkpt lat="42.09086" lon="2.63355">
        <ele>723</ele>
        <time>2010-01-01T02:02:16Z</time>
      </trkpt>
      <trkpt lat="42.0908" lon="2.63358">
        <ele>723</ele>
        <time>2010-01-01T02:02:19Z</time>
      </trkpt>
      <trkpt lat="42.09076" lon="2.63359">
        <ele>723</ele>
        <time>2010-01-01T02:02:21Z</time>
      </trkpt>
      <trkpt lat="42.09047" lon="2.63393">
        <ele>713</ele>
        <time>2010-01-01T02:02:36Z</time>
      </trkpt>
      <trkpt lat="42.09032" lon="2.63412">
        <ele>709</ele>
        <time>2010-01-01T02:02:44Z</time>
      </trkpt>
      <trkpt lat="42.09025" lon="2.63421">
        <ele>707</ele>
        <time>2010-01-01T02:02:48Z</time>
      </trkpt>
      <trkpt lat="42.09012" lon="2.63435">
        <ele>706</ele>
        <time>2010-01-01T02:02:55Z</time>
      </trkpt>
      <trkpt lat="42.08998" lon="2.63447">
        <ele>707</ele>
        <time>2010-01-01T02:03:01Z</time>
      </trkpt>
      <trkpt lat="42.0898" lon="2.63465">
        <ele>707</ele>
        <time>2010-01-01T02:03:10Z</time>
      </trkpt>
      <trkpt lat="42.08962" lon="2.63485">
        <ele>706</ele>
        <time>2010-01-01T02:03:20Z</time>
      </trkpt>
      <trkpt lat="42.08947" lon="2.63485">
        <ele>709</ele>
        <time>2010-01-01T02:03:25Z</time>
      </trkpt>
      <trkpt lat="42.08927" lon="2.63491">
        <ele>711</ele>
        <time>2010-01-01T02:03:34Z</time>
      </trkpt>
      <trkpt lat="42.0892" lon="2.63498">
        <ele>709</ele>
        <time>2010-01-01T02:03:37Z</time>
      </trkpt>
      <trkpt lat="42.08908" lon="2.63508">
        <ele>709</ele>
        <time>2010-01-01T02:03:43Z</time>
      </trkpt>
      <trkpt lat="42.08895" lon="2.63512">
        <ele>712</ele>
        <time>2010-01-01T02:03:48Z</time>
      </trkpt>
      <trkpt lat="42.08876" lon="2.63529">
        <ele>710</ele>
        <time>2010-01-01T02:03:57Z</time>
      </trkpt>
      <trkpt lat="42.08859" lon="2.63543">
        <ele>711</ele>
        <time>2010-01-01T02:04:05Z</time>
      </trkpt>
      <trkpt lat="42.08837" lon="2.63561">
        <ele>711</ele>
        <time>2010-01-01T02:04:16Z</time>
      </trkpt>
      <trkpt lat="42.08819" lon="2.63568">
        <ele>711</ele>
        <time>2010-01-01T02:04:23Z</time>
      </trkpt>
      <trkpt lat="42.08799" lon="2.63579">
        <ele>709</ele>
        <time>2010-01-01T02:04:32Z</time>
      </trkpt>
      <trkpt lat="42.08781" lon="2.63595">
        <ele>710</ele>
        <time>2010-01-01T02:04:40Z</time>
      </trkpt>
      <trkpt lat="42.08767" lon="2.63604">
        <ele>710</ele>
        <time>2010-01-01T02:04:47Z</time>
      </trkpt>
      <trkpt lat="42.08756" lon="2.63624">
        <ele>707</ele>
        <time>2010-01-01T02:04:54Z</time>
      </trkpt>
      <trkpt lat="42.08753" lon="2.63628">
        <ele>706</ele>
        <time>2010-01-01T02:04:56Z</time>
      </trkpt>
      <trkpt lat="42.0875" lon="2.63636">
        <ele>705</ele>
        <time>2010-01-01T02:04:58Z</time>
      </trkpt>
      <trkpt lat="42.08746" lon="2.63647">
        <ele>704</ele>
        <time>2010-01-01T02:05:02Z</time>
      </trkpt>
      <trkpt lat="42.08738" lon="2.63657">
        <ele>705</ele>
        <time>2010-01-01T02:05:06Z</time>
      </trkpt>
      <trkpt lat="42.08734" lon="2.63679">
        <ele>708</ele>
        <time>2010-01-01T02:05:13Z</time>
      </trkpt>
      <trkpt lat="42.08732" lon="2.63693">
        <ele>711</ele>
        <time>2010-01-01T02:05:17Z</time>
      </trkpt>
      <trkpt lat="42.08723" lon="2.63697">
        <ele>714</ele>
        <time>2010-01-01T02:05:21Z</time>
      </trkpt>
      <trkpt lat="42.0871" lon="2.63703">
        <ele>717</ele>
        <time>2010-01-01T02:05:26Z</time>
      </trkpt>
      <trkpt lat="42.08709" lon="2.63704">
        <ele>717</ele>
        <time>2010-01-01T02:05:27Z</time>
      </trkpt>
      <trkpt lat="42.08702" lon="2.6371">
        <ele>719</ele>
        <time>2010-01-01T02:05:30Z</time>
      </trkpt>
      <trkpt lat="42.08691" lon="2.63724">
        <ele>723</ele>
        <time>2010-01-01T02:05:36Z</time>
      </trkpt>
      <trkpt lat="42.08681" lon="2.63735">
        <ele>724</ele>
        <time>2010-01-01T02:05:41Z</time>
      </trkpt>
      <trkpt lat="42.08671" lon="2.63749">
        <ele>727</ele>
        <time>2010-01-01T02:05:47Z</time>
      </trkpt>
      <trkpt lat="42.08665" lon="2.63755">
        <ele>726</ele>
        <time>2010-01-01T02:05:50Z</time>
      </trkpt>
      <trkpt lat="42.08657" lon="2.63782">
        <ele>725</ele>
        <time>2010-01-01T02:05:59Z</time>
      </trkpt>
      <trkpt lat="42.08658" lon="2.6379">
        <ele>726</ele>
        <time>2010-01-01T02:06:01Z</time>
      </trkpt>
      <trkpt lat="42.08666" lon="2.63809">
        <ele>729</ele>
        <time>2010-01-01T02:06:08Z</time>
      </trkpt>
      <trkpt lat="42.08673" lon="2.63832">
        <ele>730</ele>
        <time>2010-01-01T02:06:15Z</time>
      </trkpt>
      <trkpt lat="42.08673" lon="2.63835">
        <ele>731</ele>
        <time>2010-01-01T02:06:16Z</time>
      </trkpt>
      <trkpt lat="42.08674" lon="2.63844">
        <ele>732</ele>
        <time>2010-01-01T02:06:19Z</time>
      </trkpt>
      <trkpt lat="42.08673" lon="2.63868">
        <ele>734</ele>
        <time>2010-01-01T02:06:26Z</time>
      </trkpt>
      <trkpt lat="42.08669" lon="2.6389">
        <ele>736</ele>
        <time>2010-01-01T02:06:32Z</time>
      </trkpt>
      <trkpt lat="42.08666" lon="2.63905">
        <ele>738</ele>
        <time>2010-01-01T02:06:37Z</time>
      </trkpt>
      <trkpt lat="42.08658" lon="2.6393">
        <ele>741</ele>
        <time>2010-01-01T02:06:45Z</time>
      </trkpt>
      <trkpt lat="42.08648" lon="2.63954">
        <ele>743</ele>
        <time>2010-01-01T02:06:53Z</time>
      </trkpt>
      <trkpt lat="42.08647" lon="2.63955">
        <ele>743</ele>
        <time>2010-01-01T02:06:54Z</time>
      </trkpt>
      <trkpt lat="42.08632" lon="2.63977">
        <ele>743</ele>
        <time>2010-01-01T02:07:03Z</time>
      </trkpt>
      <trkpt lat="42.08629" lon="2.63984">
        <ele>743</ele>
        <time>2010-01-01T02:07:05Z</time>
      </trkpt>
      <trkpt lat="42.08617" lon="2.6401">
        <ele>745</ele>
        <time>2010-01-01T02:07:14Z</time>
      </trkpt>
      <trkpt lat="42.0861" lon="2.64039">
        <ele>747</ele>
        <time>2010-01-01T02:07:23Z</time>
      </trkpt>
      <trkpt lat="42.08603" lon="2.64067">
        <ele>750</ele>
        <time>2010-01-01T02:07:32Z</time>
      </trkpt>
      <trkpt lat="42.08596" lon="2.64089">
        <ele>750</ele>
        <time>2010-01-01T02:07:39Z</time>
      </trkpt>
      <trkpt lat="42.08587" lon="2.64114">
        <ele>749</ele>
        <time>2010-01-01T02:07:47Z</time>
      </trkpt>
      <trkpt lat="42.08577" lon="2.64137">
        <ele>749</ele>
        <time>2010-01-01T02:07:55Z</time>
      </trkpt>
      <trkpt lat="42.08567" lon="2.64164">
        <ele>749</ele>
        <time>2010-01-01T02:08:04Z</time>
      </trkpt>
      <trkpt lat="42.08564" lon="2.64176">
        <ele>748</ele>
        <time>2010-01-01T02:08:08Z</time>
      </trkpt>
      <trkpt lat="42.08561" lon="2.64204">
        <ele>747</ele>
        <time>2010-01-01T02:08:16Z</time>
      </trkpt>
      <trkpt lat="42.08562" lon="2.64232">
        <ele>747</ele>
        <time>2010-01-01T02:08:25Z</time>
      </trkpt>
      <trkpt lat="42.08564" lon="2.6425">
        <ele>746</ele>
        <time>2010-01-01T02:08:30Z</time>
      </trkpt>
      <trkpt lat="42.08569" lon="2.64277">
        <ele>745</ele>
        <time>2010-01-01T02:08:38Z</time>
      </trkpt>
      <trkpt lat="42.08575" lon="2.64301">
        <ele>746</ele>
        <time>2010-01-01T02:08:46Z</time>
      </trkpt>
      <trkpt lat="42.08581" lon="2.64322">
        <ele>747</ele>
        <time>2010-01-01T02:08:53Z</time>
      </trkpt>
      <trkpt lat="42.08591" lon="2.64348">
        <ele>747</ele>
        <time>2010-01-01T02:09:01Z</time>
      </trkpt>
      <trkpt lat="42.08597" lon="2.64372">
        <ele>746</ele>
        <time>2010-01-01T02:09:09Z</time>
      </trkpt>
      <trkpt lat="42.08599" lon="2.64396">
        <ele>745</ele>
        <time>2010-01-01T02:09:16Z</time>
      </trkpt>
      <trkpt lat="42.086" lon="2.64417">
        <ele>746</ele>
        <time>2010-01-01T02:09:22Z</time>
      </trkpt>
      <trkpt lat="42.08594" lon="2.64441">
        <ele>745</ele>
        <time>2010-01-01T02:09:30Z</time>
      </trkpt>
      <trkpt lat="42.08587" lon="2.64457">
        <ele>742</ele>
        <time>2010-01-01T02:09:35Z</time>
      </trkpt>
      <trkpt lat="42.08585" lon="2.64465">
        <ele>741</ele>
        <time>2010-01-01T02:09:38Z</time>
      </trkpt>
      <trkpt lat="42.08583" lon="2.64486">
        <ele>739</ele>
        <time>2010-01-01T02:09:44Z</time>
      </trkpt>
      <trkpt lat="42.08588" lon="2.64498">
        <ele>739</ele>
        <time>2010-01-01T02:09:48Z</time>
      </trkpt>
      <trkpt lat="42.0859" lon="2.64506">
        <ele>739</ele>
        <time>2010-01-01T02:09:51Z</time>
      </trkpt>
      <trkpt lat="42.08597" lon="2.6453">
        <ele>738</ele>
        <time>2010-01-01T02:09:58Z</time>
      </trkpt>
      <trkpt lat="42.08598" lon="2.64538">
        <ele>738</ele>
        <time>2010-01-01T02:10:01Z</time>
      </trkpt>
      <trkpt lat="42.08597" lon="2.64562">
        <ele>736</ele>
        <time>2010-01-01T02:10:08Z</time>
      </trkpt>
      <trkpt lat="42.08596" lon="2.64573">
        <ele>735</ele>
        <time>2010-01-01T02:10:11Z</time>
      </trkpt>
      <trkpt lat="42.08595" lon="2.64576">
        <ele>734</ele>
        <time>2010-01-01T02:10:12Z</time>
      </trkpt>
      <trkpt lat="42.08591" lon="2.64575">
        <ele>733</ele>
        <time>2010-01-01T02:10:14Z</time>
      </trkpt>
      <trkpt lat="42.08588" lon="2.6457">
        <ele>732</ele>
        <time>2010-01-01T02:10:16Z</time>
      </trkpt>
      <trkpt lat="42.08576" lon="2.64566">
        <ele>728</ele>
        <time>2010-01-01T02:10:21Z</time>
      </trkpt>
      <trkpt lat="42.08575" lon="2.64566">
        <ele>728</ele>
        <time>2010-01-01T02:10:21Z</time>
      </trkpt>
      <trkpt lat="42.08566" lon="2.64574">
        <ele>725</ele>
        <time>2010-01-01T02:10:25Z</time>
      </trkpt>
      <trkpt lat="42.08558" lon="2.64583">
        <ele>722</ele>
        <time>2010-01-01T02:10:30Z</time>
      </trkpt>
      <trkpt lat="42.08541" lon="2.64588">
        <ele>717</ele>
        <time>2010-01-01T02:10:36Z</time>
      </trkpt>
      <trkpt lat="42.08536" lon="2.6459">
        <ele>715</ele>
        <time>2010-01-01T02:10:39Z</time>
      </trkpt>
      <trkpt lat="42.08525" lon="2.64595">
        <ele>712</ele>
        <time>2010-01-01T02:10:43Z</time>
      </trkpt>
      <trkpt lat="42.08524" lon="2.64595">
        <ele>711</ele>
        <time>2010-01-01T02:10:44Z</time>
      </trkpt>
      <trkpt lat="42.08518" lon="2.64607">
        <ele>709</ele>
        <time>2010-01-01T02:10:48Z</time>
      </trkpt>
      <trkpt lat="42.08522" lon="2.64629">
        <ele>711</ele>
        <time>2010-01-01T02:10:55Z</time>
      </trkpt>
      <trkpt lat="42.08526" lon="2.64652">
        <ele>712</ele>
        <time>2010-01-01T02:11:02Z</time>
      </trkpt>
      <trkpt lat="42.08519" lon="2.64671">
        <ele>711</ele>
        <time>2010-01-01T02:11:08Z</time>
      </trkpt>
      <trkpt lat="42.08513" lon="2.64698">
        <ele>708</ele>
        <time>2010-01-01T02:11:16Z</time>
      </trkpt>
      <trkpt lat="42.08507" lon="2.6472">
        <ele>707</ele>
        <time>2010-01-01T02:11:23Z</time>
      </trkpt>
      <trkpt lat="42.08504" lon="2.6474">
        <ele>707</ele>
        <time>2010-01-01T02:11:29Z</time>
      </trkpt>
      <trkpt lat="42.08501" lon="2.64756">
        <ele>708</ele>
        <time>2010-01-01T02:11:34Z</time>
      </trkpt>
      <trkpt lat="42.08489" lon="2.64774">
        <ele>706</ele>
        <time>2010-01-01T02:11:42Z</time>
      </trkpt>
      <trkpt lat="42.08475" lon="2.64792">
        <ele>704</ele>
        <time>2010-01-01T02:11:49Z</time>
      </trkpt>
      <trkpt lat="42.08462" lon="2.64804">
        <ele>701</ele>
        <time>2010-01-01T02:11:56Z</time>
      </trkpt>
      <trkpt lat="42.08452" lon="2.64815">
        <ele>700</ele>
        <time>2010-01-01T02:12:01Z</time>
      </trkpt>
      <trkpt lat="42.08438" lon="2.64837">
        <ele>701</ele>
        <time>2010-01-01T02:12:09Z</time>
      </trkpt>
      <trkpt lat="42.08421" lon="2.6485">
        <ele>701</ele>
        <time>2010-01-01T02:12:18Z</time>
      </trkpt>
      <trkpt lat="42.08407" lon="2.64859">
        <ele>699</ele>
        <time>2010-01-01T02:12:24Z</time>
      </trkpt>
      <trkpt lat="42.08396" lon="2.64872">
        <ele>699</ele>
        <time>2010-01-01T02:12:29Z</time>
      </trkpt>
      <trkpt lat="42.08382" lon="2.64886">
        <ele>697</ele>
        <time>2010-01-01T02:12:36Z</time>
      </trkpt>
      <trkpt lat="42.08372" lon="2.64901">
        <ele>696</ele>
        <time>2010-01-01T02:12:42Z</time>
      </trkpt>
      <trkpt lat="42.08365" lon="2.64918">
        <ele>696</ele>
        <time>2010-01-01T02:12:48Z</time>
      </trkpt>
      <trkpt lat="42.08356" lon="2.64939">
        <ele>699</ele>
        <time>2010-01-01T02:12:55Z</time>
      </trkpt>
      <trkpt lat="42.08348" lon="2.64942">
        <ele>698</ele>
        <time>2010-01-01T02:12:58Z</time>
      </trkpt>
      <trkpt lat="42.08345" lon="2.64941">
        <ele>697</ele>
        <time>2010-01-01T02:13:00Z</time>
      </trkpt>
      <trkpt lat="42.08334" lon="2.64945">
        <ele>695</ele>
        <time>2010-01-01T02:13:04Z</time>
      </trkpt>
      <trkpt lat="42.08324" lon="2.64945">
        <ele>692</ele>
        <time>2010-01-01T02:13:08Z</time>
      </trkpt>
      <trkpt lat="42.08315" lon="2.64958">
        <ele>695</ele>
        <time>2010-01-01T02:13:14Z</time>
      </trkpt>
      <trkpt lat="42.08305" lon="2.64973">
        <ele>698</ele>
        <time>2010-01-01T02:13:20Z</time>
      </trkpt>
      <trkpt lat="42.08293" lon="2.64986">
        <ele>699</ele>
        <time>2010-01-01T02:13:26Z</time>
      </trkpt>
      <trkpt lat="42.08278" lon="2.64993">
        <ele>698</ele>
        <time>2010-01-01T02:13:32Z</time>
      </trkpt>
      <trkpt lat="42.0826" lon="2.65002">
        <ele>698</ele>
        <time>2010-01-01T02:13:40Z</time>
      </trkpt>
      <trkpt lat="42.08241" lon="2.6501">
        <ele>697</ele>
        <time>2010-01-01T02:13:48Z</time>
      </trkpt>
      <trkpt lat="42.08223" lon="2.65018">
        <ele>696</ele>
        <time>2010-01-01T02:13:55Z</time>
      </trkpt>
      <trkpt lat="42.08208" lon="2.65027">
        <ele>695</ele>
        <time>2010-01-01T02:14:02Z</time>
      </trkpt>
      <trkpt lat="42.08203" lon="2.65031">
        <ele>695</ele>
        <time>2010-01-01T02:14:04Z</time>
      </trkpt>
      <trkpt lat="42.08187" lon="2.65048">
        <ele>694</ele>
        <time>2010-01-01T02:14:12Z</time>
      </trkpt>
      <trkpt lat="42.08171" lon="2.65061">
        <ele>691</ele>
        <time>2010-01-01T02:14:20Z</time>
      </trkpt>
      <trkpt lat="42.08166" lon="2.65069">
        <ele>691</ele>
        <time>2010-01-01T02:14:23Z</time>
      </trkpt>
      <trkpt lat="42.0815" lon="2.65092">
        <ele>692</ele>
        <time>2010-01-01T02:14:32Z</time>
      </trkpt>
      <trkpt lat="42.08139" lon="2.65101">
        <ele>691</ele>
        <time>2010-01-01T02:14:38Z</time>
      </trkpt>
      <trkpt lat="42.08128" lon="2.65106">
        <ele>690</ele>
        <time>2010-01-01T02:14:42Z</time>
      </trkpt>
      <trkpt lat="42.08108" lon="2.65115">
        <ele>688</ele>
        <time>2010-01-01T02:14:50Z</time>
      </trkpt>
      <trkpt lat="42.08092" lon="2.65123">
        <ele>687</ele>
        <time>2010-01-01T02:14:57Z</time>
      </trkpt>
      <trkpt lat="42.08075" lon="2.65129">
        <ele>685</ele>
        <time>2010-01-01T02:15:05Z</time>
      </trkpt>
      <trkpt lat="42.08071" lon="2.6513">
        <ele>685</ele>
        <time>2010-01-01T02:15:06Z</time>
      </trkpt>
      <trkpt lat="42.08056" lon="2.65134">
        <ele>684</ele>
        <time>2010-01-01T02:15:12Z</time>
      </trkpt>
      <trkpt lat="42.08042" lon="2.65146">
        <ele>682</ele>
        <time>2010-01-01T02:15:19Z</time>
      </trkpt>
      <trkpt lat="42.08027" lon="2.65158">
        <ele>679</ele>
        <time>2010-01-01T02:15:26Z</time>
      </trkpt>
      <trkpt lat="42.08023" lon="2.65166">
        <ele>680</ele>
        <time>2010-01-01T02:15:29Z</time>
      </trkpt>
      <trkpt lat="42.08005" lon="2.6519">
        <ele>678</ele>
        <time>2010-01-01T02:15:39Z</time>
      </trkpt>
      <trkpt lat="42.07992" lon="2.65213">
        <ele>676</ele>
        <time>2010-01-01T02:15:48Z</time>
      </trkpt>
      <trkpt lat="42.07982" lon="2.65233">
        <ele>674</ele>
        <time>2010-01-01T02:15:55Z</time>
      </trkpt>
      <trkpt lat="42.07983" lon="2.65237">
        <ele>674</ele>
        <time>2010-01-01T02:15:56Z</time>
      </trkpt>
      <trkpt lat="42.07998" lon="2.65251">
        <ele>680</ele>
        <time>2010-01-01T02:16:03Z</time>
      </trkpt>
      <trkpt lat="42.08006" lon="2.6527">
        <ele>681</ele>
        <time>2010-01-01T02:16:09Z</time>
      </trkpt>
      <trkpt lat="42.08015" lon="2.6528">
        <ele>683</ele>
        <time>2010-01-01T02:16:14Z</time>
      </trkpt>
      <trkpt lat="42.08026" lon="2.65296">
        <ele>684</ele>
        <time>2010-01-01T02:16:21Z</time>
      </trkpt>
      <trkpt lat="42.08035" lon="2.65311">
        <ele>685</ele>
        <time>2010-01-01T02:16:26Z</time>
      </trkpt>
      <trkpt lat="42.08046" lon="2.65326">
        <ele>687</ele>
        <time>2010-01-01T02:16:32Z</time>
      </trkpt>
      <trkpt lat="42.08049" lon="2.65333">
        <ele>687</ele>
        <time>2010-01-01T02:16:35Z</time>
      </trkpt>
      <trkpt lat="42.08047" lon="2.65356">
        <ele>684</ele>
        <time>2010-01-01T02:16:42Z</time>
      </trkpt>
      <trkpt lat="42.08044" lon="2.6538">
        <ele>682</ele>
        <time>2010-01-01T02:16:49Z</time>
      </trkpt>
      <trkpt lat="42.08043" lon="2.65404">
        <ele>683</ele>
        <time>2010-01-01T02:16:56Z</time>
      </trkpt>
      <trkpt lat="42.08042" lon="2.65431">
        <ele>684</ele>
        <time>2010-01-01T02:17:04Z</time>
      </trkpt>
      <trkpt lat="42.08045" lon="2.65453">
        <ele>686</ele>
        <time>2010-01-01T02:17:11Z</time>
      </trkpt>
      <trkpt lat="42.08046" lon="2.65464">
        <ele>687</ele>
        <time>2010-01-01T02:17:14Z</time>
      </trkpt>
      <trkpt lat="42.08037" lon="2.65488">
        <ele>687</ele>
        <time>2010-01-01T02:17:22Z</time>
      </trkpt>
      <trkpt lat="42.08027" lon="2.65506">
        <ele>688</ele>
        <time>2010-01-01T02:17:29Z</time>
      </trkpt>
      <trkpt lat="42.08024" lon="2.6551">
        <ele>689</ele>
        <time>2010-01-01T02:17:31Z</time>
      </trkpt>
      <trkpt lat="42.0801" lon="2.65526">
        <ele>691</ele>
        <time>2010-01-01T02:17:38Z</time>
      </trkpt>
      <trkpt lat="42.07994" lon="2.65541">
        <ele>692</ele>
        <time>2010-01-01T02:17:46Z</time>
      </trkpt>
      <trkpt lat="42.07981" lon="2.65555">
        <ele>693</ele>
        <time>2010-01-01T02:17:53Z</time>
      </trkpt>
      <trkpt lat="42.0797" lon="2.65577">
        <ele>696</ele>
        <time>2010-01-01T02:18:00Z</time>
      </trkpt>
      <trkpt lat="42.07962" lon="2.656">
        <ele>697</ele>
        <time>2010-01-01T02:18:08Z</time>
      </trkpt>
      <trkpt lat="42.0796" lon="2.65622">
        <ele>698</ele>
        <time>2010-01-01T02:18:15Z</time>
      </trkpt>
      <trkpt lat="42.07962" lon="2.65648">
        <ele>699</ele>
        <time>2010-01-01T02:18:22Z</time>
      </trkpt>
      <trkpt lat="42.07963" lon="2.65667">
        <ele>701</ele>
        <time>2010-01-01T02:18:28Z</time>
      </trkpt>
      <trkpt lat="42.07961" lon="2.65685">
        <ele>700</ele>
        <time>2010-01-01T02:18:33Z</time>
      </trkpt>
      <trkpt lat="42.07963" lon="2.6571">
        <ele>702</ele>
        <time>2010-01-01T02:18:41Z</time>
      </trkpt>
      <trkpt lat="42.07968" lon="2.65726">
        <ele>704</ele>
        <time>2010-01-01T02:18:46Z</time>
      </trkpt>
      <trkpt lat="42.07971" lon="2.65736">
        <ele>705</ele>
        <time>2010-01-01T02:18:49Z</time>
      </trkpt>
      <trkpt lat="42.07979" lon="2.65758">
        <ele>706</ele>
        <time>2010-01-01T02:18:57Z</time>
      </trkpt>
      <trkpt lat="42.07986" lon="2.65774">
        <ele>708</ele>
        <time>2010-01-01T02:19:02Z</time>
      </trkpt>
      <trkpt lat="42.07996" lon="2.65787">
        <ele>710</ele>
        <time>2010-01-01T02:19:08Z</time>
      </trkpt>
      <trkpt lat="42.08011" lon="2.65803">
        <ele>711</ele>
        <time>2010-01-01T02:19:15Z</time>
      </trkpt>
      <trkpt lat="42.08023" lon="2.65816">
        <ele>711</ele>
        <time>2010-01-01T02:19:21Z</time>
      </trkpt>
      <trkpt lat="42.08034" lon="2.65826">
        <ele>712</ele>
        <time>2010-01-01T02:19:27Z</time>
      </trkpt>
      <trkpt lat="42.08042" lon="2.65839">
        <ele>712</ele>
        <time>2010-01-01T02:19:32Z</time>
      </trkpt>
      <trkpt lat="42.08055" lon="2.65849">
        <ele>713</ele>
        <time>2010-01-01T02:19:38Z</time>
      </trkpt>
      <trkpt lat="42.0807" lon="2.65855">
        <ele>714</ele>
        <time>2010-01-01T02:19:44Z</time>
      </trkpt>
      <trkpt lat="42.08079" lon="2.65861">
        <ele>715</ele>
        <time>2010-01-01T02:19:48Z</time>
      </trkpt>
      <trkpt lat="42.08099" lon="2.65869">
        <ele>718</ele>
        <time>2010-01-01T02:19:57Z</time>
      </trkpt>
      <trkpt lat="42.08119" lon="2.65877">
        <ele>722</ele>
        <time>2010-01-01T02:20:05Z</time>
      </trkpt>
      <trkpt lat="42.08138" lon="2.65889">
        <ele>724</ele>
        <time>2010-01-01T02:20:13Z</time>
      </trkpt>
      <trkpt lat="42.08149" lon="2.65897">
        <ele>724</ele>
        <time>2010-01-01T02:20:18Z</time>
      </trkpt>
      <trkpt lat="42.08166" lon="2.65906">
        <ele>723</ele>
        <time>2010-01-01T02:20:25Z</time>
      </trkpt>
      <trkpt lat="42.08178" lon="2.65908">
        <ele>724</ele>
        <time>2010-01-01T02:20:30Z</time>
      </trkpt>
      <trkpt lat="42.08186" lon="2.65909">
        <ele>725</ele>
        <time>2010-01-01T02:20:33Z</time>
      </trkpt>
      <trkpt lat="42.082" lon="2.6591">
        <ele>727</ele>
        <time>2010-01-01T02:20:39Z</time>
      </trkpt>
      <trkpt lat="42.08221" lon="2.65914">
        <ele>728</ele>
        <time>2010-01-01T02:20:47Z</time>
      </trkpt>
      <trkpt lat="42.08234" lon="2.65921">
        <ele>725</ele>
        <time>2010-01-01T02:20:53Z</time>
      </trkpt>
      <trkpt lat="42.08244" lon="2.65926">
        <ele>723</ele>
        <time>2010-01-01T02:20:58Z</time>
      </trkpt>
      <trkpt lat="42.08255" lon="2.65924">
        <ele>724</ele>
        <time>2010-01-01T02:21:02Z</time>
      </trkpt>
      <trkpt lat="42.08266" lon="2.65913">
        <ele>729</ele>
        <time>2010-01-01T02:21:07Z</time>
      </trkpt>
      <trkpt lat="42.08284" lon="2.65908">
        <ele>731</ele>
        <time>2010-01-01T02:21:15Z</time>
      </trkpt>
      <trkpt lat="42.08287" lon="2.65908">
        <ele>730</ele>
        <time>2010-01-01T02:21:16Z</time>
      </trkpt>
      <trkpt lat="42.08293" lon="2.65907">
        <ele>729</ele>
        <time>2010-01-01T02:21:18Z</time>
      </trkpt>
      <trkpt lat="42.08312" lon="2.65898">
        <ele>728</ele>
        <time>2010-01-01T02:21:27Z</time>
      </trkpt>
      <trkpt lat="42.08314" lon="2.65897">
        <ele>727</ele>
        <time>2010-01-01T02:21:27Z</time>
      </trkpt>
      <trkpt lat="42.08322" lon="2.65884">
        <ele>728</ele>
        <time>2010-01-01T02:21:32Z</time>
      </trkpt>
      <trkpt lat="42.08328" lon="2.65872">
        <ele>730</ele>
        <time>2010-01-01T02:21:37Z</time>
      </trkpt>
      <trkpt lat="42.08332" lon="2.65853">
        <ele>734</ele>
        <time>2010-01-01T02:21:42Z</time>
      </trkpt>
      <trkpt lat="42.08334" lon="2.65849">
        <ele>734</ele>
        <time>2010-01-01T02:21:44Z</time>
      </trkpt>
      <trkpt lat="42.08347" lon="2.65841">
        <ele>733</ele>
        <time>2010-01-01T02:21:50Z</time>
      </trkpt>
      <trkpt lat="42.08348" lon="2.65841">
        <ele>733</ele>
        <time>2010-01-01T02:21:50Z</time>
      </trkpt>
      <trkpt lat="42.08379" lon="2.6585">
        <ele>726</ele>
        <time>2010-01-01T02:22:03Z</time>
      </trkpt>
      <trkpt lat="42.08393" lon="2.65849">
        <ele>728</ele>
        <time>2010-01-01T02:22:08Z</time>
      </trkpt>
      <trkpt lat="42.08406" lon="2.65858">
        <ele>727</ele>
        <time>2010-01-01T02:22:14Z</time>
      </trkpt>
      <trkpt lat="42.0842" lon="2.65867">
        <ele>727</ele>
        <time>2010-01-01T02:22:20Z</time>
      </trkpt>
      <trkpt lat="42.08435" lon="2.65879">
        <ele>724</ele>
        <time>2010-01-01T02:22:27Z</time>
      </trkpt>
      <trkpt lat="42.08444" lon="2.65885">
        <ele>724</ele>
        <time>2010-01-01T02:22:32Z</time>
      </trkpt>
      <trkpt lat="42.08461" lon="2.6589">
        <ele>723</ele>
        <time>2010-01-01T02:22:38Z</time>
      </trkpt>
      <trkpt lat="42.08471" lon="2.65892">
        <ele>723</ele>
        <time>2010-01-01T02:22:43Z</time>
      </trkpt>
      <trkpt lat="42.08485" lon="2.65893">
        <ele>725</ele>
        <time>2010-01-01T02:22:48Z</time>
      </trkpt>
      <trkpt lat="42.08498" lon="2.65903">
        <ele>723</ele>
        <time>2010-01-01T02:22:54Z</time>
      </trkpt>
      <trkpt lat="42.08498" lon="2.65924">
        <ele>719</ele>
        <time>2010-01-01T02:23:00Z</time>
      </trkpt>
      <trkpt lat="42.08498" lon="2.65925">
        <ele>719</ele>
        <time>2010-01-01T02:23:01Z</time>
      </trkpt>
      <trkpt lat="42.08495" lon="2.65945">
        <ele>716</ele>
        <time>2010-01-01T02:23:07Z</time>
      </trkpt>
      <trkpt lat="42.08493" lon="2.65953">
        <ele>716</ele>
        <time>2010-01-01T02:23:09Z</time>
      </trkpt>
      <trkpt lat="42.08485" lon="2.65975">
        <ele>714</ele>
        <time>2010-01-01T02:23:17Z</time>
      </trkpt>
      <trkpt lat="42.08477" lon="2.65996">
        <ele>712</ele>
        <time>2010-01-01T02:23:24Z</time>
      </trkpt>
      <trkpt lat="42.08468" lon="2.66015">
        <ele>710</ele>
        <time>2010-01-01T02:23:30Z</time>
      </trkpt>
      <trkpt lat="42.08456" lon="2.66031">
        <ele>708</ele>
        <time>2010-01-01T02:23:37Z</time>
      </trkpt>
      <trkpt lat="42.08442" lon="2.66045">
        <ele>705</ele>
        <time>2010-01-01T02:23:44Z</time>
      </trkpt>
      <trkpt lat="42.08433" lon="2.66072">
        <ele>703</ele>
        <time>2010-01-01T02:23:53Z</time>
      </trkpt>
      <trkpt lat="42.08433" lon="2.6608">
        <ele>703</ele>
        <time>2010-01-01T02:23:55Z</time>
      </trkpt>
      <trkpt lat="42.08433" lon="2.66086">
        <ele>703</ele>
        <time>2010-01-01T02:23:57Z</time>
      </trkpt>
      <trkpt lat="42.08444" lon="2.66099">
        <ele>704</ele>
        <time>2010-01-01T02:24:03Z</time>
      </trkpt>
      <trkpt lat="42.08445" lon="2.66104">
        <ele>704</ele>
        <time>2010-01-01T02:24:04Z</time>
      </trkpt>
      <trkpt lat="42.08449" lon="2.66107">
        <ele>705</ele>
        <time>2010-01-01T02:24:06Z</time>
      </trkpt>
      <trkpt lat="42.08462" lon="2.66123">
        <ele>704</ele>
        <time>2010-01-01T02:24:13Z</time>
      </trkpt>
      <trkpt lat="42.08478" lon="2.66142">
        <ele>704</ele>
        <time>2010-01-01T02:24:21Z</time>
      </trkpt>
      <trkpt lat="42.08488" lon="2.66158">
        <ele>702</ele>
        <time>2010-01-01T02:24:28Z</time>
      </trkpt>
      <trkpt lat="42.08501" lon="2.66174">
        <ele>701</ele>
        <time>2010-01-01T02:24:35Z</time>
      </trkpt>
      <trkpt lat="42.08515" lon="2.6619">
        <ele>700</ele>
        <time>2010-01-01T02:24:42Z</time>
      </trkpt>
      <trkpt lat="42.08526" lon="2.66208">
        <ele>699</ele>
        <time>2010-01-01T02:24:49Z</time>
      </trkpt>
      <trkpt lat="42.08538" lon="2.6622">
        <ele>699</ele>
        <time>2010-01-01T02:24:55Z</time>
      </trkpt>
      <trkpt lat="42.0854" lon="2.66224">
        <ele>698</ele>
        <time>2010-01-01T02:24:56Z</time>
      </trkpt>
      <trkpt lat="42.0855" lon="2.66246">
        <ele>696</ele>
        <time>2010-01-01T02:25:04Z</time>
      </trkpt>
      <trkpt lat="42.08559" lon="2.66256">
        <ele>696</ele>
        <time>2010-01-01T02:25:09Z</time>
      </trkpt>
      <trkpt lat="42.08574" lon="2.66274">
        <ele>695</ele>
        <time>2010-01-01T02:25:17Z</time>
      </trkpt>
      <trkpt lat="42.08579" lon="2.66289">
        <ele>693</ele>
        <time>2010-01-01T02:25:22Z</time>
      </trkpt>
      <trkpt lat="42.08583" lon="2.66322">
        <ele>690</ele>
        <time>2010-01-01T02:25:32Z</time>
      </trkpt>
      <trkpt lat="42.08587" lon="2.66331">
        <ele>690</ele>
        <time>2010-01-01T02:25:35Z</time>
      </trkpt>
      <trkpt lat="42.08591" lon="2.66337">
        <ele>690</ele>
        <time>2010-01-01T02:25:37Z</time>
      </trkpt>
      <trkpt lat="42.08593" lon="2.66336">
        <ele>690</ele>
        <time>2010-01-01T02:25:38Z</time>
      </trkpt>
      <trkpt lat="42.08588" lon="2.66341">
        <ele>691</ele>
        <time>2010-01-01T02:25:41Z</time>
      </trkpt>
      <trkpt lat="42.08582" lon="2.66357">
        <ele>692</ele>
        <time>2010-01-01T02:25:46Z</time>
      </trkpt>
      <trkpt lat="42.08574" lon="2.66368">
        <ele>694</ele>
        <time>2010-01-01T02:25:51Z</time>
      </trkpt>
      <trkpt lat="42.08563" lon="2.66367">
        <ele>695</ele>
        <time>2010-01-01T02:25:55Z</time>
      </trkpt>
      <trkpt lat="42.08545" lon="2.66358">
        <ele>695</ele>
        <time>2010-01-01T02:26:03Z</time>
      </trkpt>
      <trkpt lat="42.08533" lon="2.66358">
        <ele>697</ele>
        <time>2010-01-01T02:26:08Z</time>
      </trkpt>
      <trkpt lat="42.08519" lon="2.66358">
        <ele>699</ele>
        <time>2010-01-01T02:26:13Z</time>
      </trkpt>
      <trkpt lat="42.085" lon="2.66351">
        <ele>700</ele>
        <time>2010-01-01T02:26:21Z</time>
      </trkpt>
      <trkpt lat="42.0849" lon="2.66345">
        <ele>698</ele>
        <time>2010-01-01T02:26:26Z</time>
      </trkpt>
      <trkpt lat="42.08471" lon="2.6634">
        <ele>698</ele>
        <time>2010-01-01T02:26:33Z</time>
      </trkpt>
      <trkpt lat="42.08452" lon="2.6633">
        <ele>696</ele>
        <time>2010-01-01T02:26:41Z</time>
      </trkpt>
      <trkpt lat="42.08446" lon="2.66329">
        <ele>696</ele>
        <time>2010-01-01T02:26:44Z</time>
      </trkpt>
      <trkpt lat="42.08435" lon="2.66336">
        <ele>697</ele>
        <time>2010-01-01T02:26:49Z</time>
      </trkpt>
      <trkpt lat="42.08423" lon="2.66348">
        <ele>699</ele>
        <time>2010-01-01T02:26:55Z</time>
      </trkpt>
      <trkpt lat="42.0841" lon="2.66364">
        <ele>700</ele>
        <time>2010-01-01T02:27:02Z</time>
      </trkpt>
      <trkpt lat="42.084" lon="2.66386">
        <ele>703</ele>
        <time>2010-01-01T02:27:09Z</time>
      </trkpt>
      <trkpt lat="42.0839" lon="2.66411">
        <ele>705</ele>
        <time>2010-01-01T02:27:18Z</time>
      </trkpt>
      <trkpt lat="42.08388" lon="2.66425">
        <ele>707</ele>
        <time>2010-01-01T02:27:22Z</time>
      </trkpt>
      <trkpt lat="42.08386" lon="2.66445">
        <ele>710</ele>
        <time>2010-01-01T02:27:28Z</time>
      </trkpt>
      <trkpt lat="42.08386" lon="2.66454">
        <ele>712</ele>
        <time>2010-01-01T02:27:31Z</time>
      </trkpt>
      <trkpt lat="42.08387" lon="2.66481">
        <ele>718</ele>
        <time>2010-01-01T02:27:39Z</time>
      </trkpt>
      <trkpt lat="42.08389" lon="2.66494">
        <ele>721</ele>
        <time>2010-01-01T02:27:43Z</time>
      </trkpt>
      <trkpt lat="42.08385" lon="2.66515">
        <ele>723</ele>
        <time>2010-01-01T02:27:49Z</time>
      </trkpt>
      <trkpt lat="42.08382" lon="2.66521">
        <ele>724</ele>
        <time>2010-01-01T02:27:51Z</time>
      </trkpt>
      <trkpt lat="42.08378" lon="2.66547">
        <ele>727</ele>
        <time>2010-01-01T02:27:59Z</time>
      </trkpt>
      <trkpt lat="42.08372" lon="2.66544">
        <ele>726</ele>
        <time>2010-01-01T02:28:02Z</time>
      </trkpt>
      <trkpt lat="42.08364" lon="2.66528">
        <ele>724</ele>
        <time>2010-01-01T02:28:08Z</time>
      </trkpt>
      <trkpt lat="42.08359" lon="2.6652">
        <ele>723</ele>
        <time>2010-01-01T02:28:11Z</time>
      </trkpt>
      <trkpt lat="42.0835" lon="2.66502">
        <ele>722</ele>
        <time>2010-01-01T02:28:17Z</time>
      </trkpt>
      <trkpt lat="42.08346" lon="2.66483">
        <ele>719</ele>
        <time>2010-01-01T02:28:23Z</time>
      </trkpt>
      <trkpt lat="42.08339" lon="2.6647">
        <ele>718</ele>
        <time>2010-01-01T02:28:28Z</time>
      </trkpt>
      <trkpt lat="42.08332" lon="2.66457">
        <ele>716</ele>
        <time>2010-01-01T02:28:32Z</time>
      </trkpt>
      <trkpt lat="42.08319" lon="2.66437">
        <ele>718</ele>
        <time>2010-01-01T02:28:40Z</time>
      </trkpt>
      <trkpt lat="42.08311" lon="2.6642">
        <ele>718</ele>
        <time>2010-01-01T02:28:46Z</time>
      </trkpt>
      <trkpt lat="42.08308" lon="2.66416">
        <ele>718</ele>
        <time>2010-01-01T02:28:48Z</time>
      </trkpt>
      <trkpt lat="42.08304" lon="2.66409">
        <ele>718</ele>
        <time>2010-01-01T02:28:50Z</time>
      </trkpt>
      <trkpt lat="42.08291" lon="2.66395">
        <ele>719</ele>
        <time>2010-01-01T02:28:57Z</time>
      </trkpt>
      <trkpt lat="42.08287" lon="2.66386">
        <ele>718</ele>
        <time>2010-01-01T02:29:00Z</time>
      </trkpt>
      <trkpt lat="42.08277" lon="2.6637">
        <ele>717</ele>
        <time>2010-01-01T02:29:07Z</time>
      </trkpt>
      <trkpt lat="42.08262" lon="2.66354">
        <ele>712</ele>
        <time>2010-01-01T02:29:14Z</time>
      </trkpt>
      <trkpt lat="42.08261" lon="2.66354">
        <ele>712</ele>
        <time>2010-01-01T02:29:14Z</time>
      </trkpt>
      <trkpt lat="42.08259" lon="2.66354">
        <ele>712</ele>
        <time>2010-01-01T02:29:15Z</time>
      </trkpt>
      <trkpt lat="42.08247" lon="2.66372">
        <ele>716</ele>
        <time>2010-01-01T02:29:23Z</time>
      </trkpt>
      <trkpt lat="42.08241" lon="2.66385">
        <ele>718</ele>
        <time>2010-01-01T02:29:27Z</time>
      </trkpt>
      <trkpt lat="42.08231" lon="2.66398">
        <ele>721</ele>
        <time>2010-01-01T02:29:33Z</time>
      </trkpt>
      <trkpt lat="42.08223" lon="2.66416">
        <ele>726</ele>
        <time>2010-01-01T02:29:39Z</time>
      </trkpt>
      <trkpt lat="42.0822" lon="2.66432">
        <ele>731</ele>
        <time>2010-01-01T02:29:44Z</time>
      </trkpt>
      <trkpt lat="42.08216" lon="2.66447">
        <ele>735</ele>
        <time>2010-01-01T02:29:48Z</time>
      </trkpt>
      <trkpt lat="42.08208" lon="2.66451">
        <ele>735</ele>
        <time>2010-01-01T02:29:52Z</time>
      </trkpt>
      <trkpt lat="42.08192" lon="2.66443">
        <ele>731</ele>
        <time>2010-01-01T02:29:59Z</time>
      </trkpt>
      <trkpt lat="42.08173" lon="2.66432">
        <ele>727</ele>
        <time>2010-01-01T02:30:07Z</time>
      </trkpt>
      <trkpt lat="42.08168" lon="2.66429">
        <ele>726</ele>
        <time>2010-01-01T02:30:09Z</time>
      </trkpt>
      <trkpt lat="42.08159" lon="2.66434">
        <ele>725</ele>
        <time>2010-01-01T02:30:13Z</time>
      </trkpt>
      <trkpt lat="42.08157" lon="2.66441">
        <ele>726</ele>
        <time>2010-01-01T02:30:15Z</time>
      </trkpt>
      <trkpt lat="42.08154" lon="2.66465">
        <ele>730</ele>
        <time>2010-01-01T02:30:23Z</time>
      </trkpt>
      <trkpt lat="42.08148" lon="2.66483">
        <ele>732</ele>
        <time>2010-01-01T02:30:29Z</time>
      </trkpt>
      <trkpt lat="42.08142" lon="2.66507">
        <ele>735</ele>
        <time>2010-01-01T02:30:36Z</time>
      </trkpt>
      <trkpt lat="42.08146" lon="2.6653">
        <ele>741</ele>
        <time>2010-01-01T02:30:43Z</time>
      </trkpt>
      <trkpt lat="42.08147" lon="2.66533">
        <ele>742</ele>
        <time>2010-01-01T02:30:44Z</time>
      </trkpt>
      <trkpt lat="42.08143" lon="2.66569">
        <ele>745</ele>
        <time>2010-01-01T02:30:55Z</time>
      </trkpt>
      <trkpt lat="42.08144" lon="2.66587">
        <ele>747</ele>
        <time>2010-01-01T02:31:00Z</time>
      </trkpt>
      <trkpt lat="42.08137" lon="2.66601">
        <ele>749</ele>
        <time>2010-01-01T02:31:05Z</time>
      </trkpt>
      <trkpt lat="42.08127" lon="2.66593">
        <ele>747</ele>
        <time>2010-01-01T02:31:10Z</time>
      </trkpt>
      <trkpt lat="42.08109" lon="2.66586">
        <ele>744</ele>
        <time>2010-01-01T02:31:17Z</time>
      </trkpt>
      <trkpt lat="42.08092" lon="2.66582">
        <ele>743</ele>
        <time>2010-01-01T02:31:24Z</time>
      </trkpt>
      <trkpt lat="42.08076" lon="2.66581">
        <ele>743</ele>
        <time>2010-01-01T02:31:30Z</time>
      </trkpt>
      <trkpt lat="42.08062" lon="2.66581">
        <ele>744</ele>
        <time>2010-01-01T02:31:36Z</time>
      </trkpt>
      <trkpt lat="42.08048" lon="2.66591">
        <ele>746</ele>
        <time>2010-01-01T02:31:42Z</time>
      </trkpt>
      <trkpt lat="42.08048" lon="2.66595">
        <ele>747</ele>
        <time>2010-01-01T02:31:43Z</time>
      </trkpt>
      <trkpt lat="42.08047" lon="2.66612">
        <ele>749</ele>
        <time>2010-01-01T02:31:48Z</time>
      </trkpt>
      <trkpt lat="42.08052" lon="2.66621">
        <ele>752</ele>
        <time>2010-01-01T02:31:52Z</time>
      </trkpt>
      <trkpt lat="42.08052" lon="2.66629">
        <ele>753</ele>
        <time>2010-01-01T02:31:54Z</time>
      </trkpt>
      <trkpt lat="42.08047" lon="2.66643">
        <ele>754</ele>
        <time>2010-01-01T02:31:59Z</time>
      </trkpt>
      <trkpt lat="42.08046" lon="2.66647">
        <ele>754</ele>
        <time>2010-01-01T02:32:00Z</time>
      </trkpt>
      <trkpt lat="42.08042" lon="2.66659">
        <ele>755</ele>
        <time>2010-01-01T02:32:04Z</time>
      </trkpt>
      <trkpt lat="42.0804" lon="2.66662">
        <ele>755</ele>
        <time>2010-01-01T02:32:05Z</time>
      </trkpt>
      <trkpt lat="42.08037" lon="2.66667">
        <ele>754</ele>
        <time>2010-01-01T02:32:07Z</time>
      </trkpt>
      <trkpt lat="42.08036" lon="2.66688">
        <ele>756</ele>
        <time>2010-01-01T02:32:13Z</time>
      </trkpt>
      <trkpt lat="42.08038" lon="2.667">
        <ele>758</ele>
        <time>2010-01-01T02:32:17Z</time>
      </trkpt>
      <trkpt lat="42.08038" lon="2.66721">
        <ele>760</ele>
        <time>2010-01-01T02:32:23Z</time>
      </trkpt>
      <trkpt lat="42.0804" lon="2.66736">
        <ele>761</ele>
        <time>2010-01-01T02:32:28Z</time>
      </trkpt>
      <trkpt lat="42.08046" lon="2.66755">
        <ele>764</ele>
        <time>2010-01-01T02:32:34Z</time>
      </trkpt>
      <trkpt lat="42.08051" lon="2.66778">
        <ele>766</ele>
        <time>2010-01-01T02:32:41Z</time>
      </trkpt>
      <trkpt lat="42.08059" lon="2.66806">
        <ele>769</ele>
        <time>2010-01-01T02:32:50Z</time>
      </trkpt>
      <trkpt lat="42.08071" lon="2.66823">
        <ele>773</ele>
        <time>2010-01-01T02:32:57Z</time>
      </trkpt>
      <trkpt lat="42.0808" lon="2.66835">
        <ele>776</ele>
        <time>2010-01-01T02:33:02Z</time>
      </trkpt>
      <trkpt lat="42.08087" lon="2.66845">
        <ele>778</ele>
        <time>2010-01-01T02:33:06Z</time>
      </trkpt>
      <trkpt lat="42.08098" lon="2.66853">
        <ele>781</ele>
        <time>2010-01-01T02:33:11Z</time>
      </trkpt>
      <trkpt lat="42.0811" lon="2.66859">
        <ele>785</ele>
        <time>2010-01-01T02:33:17Z</time>
      </trkpt>
      <trkpt lat="42.08118" lon="2.66866">
        <ele>787</ele>
        <time>2010-01-01T02:33:20Z</time>
      </trkpt>
      <trkpt lat="42.08126" lon="2.66878">
        <ele>790</ele>
        <time>2010-01-01T02:33:25Z</time>
      </trkpt>
      <trkpt lat="42.0813" lon="2.66883">
        <ele>791</ele>
        <time>2010-01-01T02:33:27Z</time>
      </trkpt>
      <trkpt lat="42.08132" lon="2.66889">
        <ele>792</ele>
        <time>2010-01-01T02:33:29Z</time>
      </trkpt>
      <trkpt lat="42.08135" lon="2.66894">
        <ele>793</ele>
        <time>2010-01-01T02:33:31Z</time>
      </trkpt>
      <trkpt lat="42.08142" lon="2.66907">
        <ele>795</ele>
        <time>2010-01-01T02:33:36Z</time>
      </trkpt>
      <trkpt lat="42.08146" lon="2.66931">
        <ele>798</ele>
        <time>2010-01-01T02:33:43Z</time>
      </trkpt>
      <trkpt lat="42.08139" lon="2.66946">
        <ele>797</ele>
        <time>2010-01-01T02:33:49Z</time>
      </trkpt>
      <trkpt lat="42.08126" lon="2.66972">
        <ele>796</ele>
        <time>2010-01-01T02:33:58Z</time>
      </trkpt>
      <trkpt lat="42.08117" lon="2.6699">
        <ele>794</ele>
        <time>2010-01-01T02:34:04Z</time>
      </trkpt>
      <trkpt lat="42.0811" lon="2.66998">
        <ele>792</ele>
        <time>2010-01-01T02:34:08Z</time>
      </trkpt>
      <trkpt lat="42.08105" lon="2.66993">
        <ele>790</ele>
        <time>2010-01-01T02:34:10Z</time>
      </trkpt>
      <trkpt lat="42.08109" lon="2.67">
        <ele>792</ele>
        <time>2010-01-01T02:34:13Z</time>
      </trkpt>
      <trkpt lat="42.08114" lon="2.67011">
        <ele>793</ele>
        <time>2010-01-01T02:34:17Z</time>
      </trkpt>
      <trkpt lat="42.0812" lon="2.67028">
        <ele>795</ele>
        <time>2010-01-01T02:34:23Z</time>
      </trkpt>
      <trkpt lat="42.08131" lon="2.67043">
        <ele>798</ele>
        <time>2010-01-01T02:34:29Z</time>
      </trkpt>
      <trkpt lat="42.08134" lon="2.67048">
        <ele>799</ele>
        <time>2010-01-01T02:34:31Z</time>
      </trkpt>
      <trkpt lat="42.08148" lon="2.6707">
        <ele>803</ele>
        <time>2010-01-01T02:34:39Z</time>
      </trkpt>
      <trkpt lat="42.08147" lon="2.67104">
        <ele>804</ele>
        <time>2010-01-01T02:34:49Z</time>
      </trkpt>
      <trkpt lat="42.08149" lon="2.67129">
        <ele>805</ele>
        <time>2010-01-01T02:34:57Z</time>
      </trkpt>
      <trkpt lat="42.0815" lon="2.67135">
        <ele>806</ele>
        <time>2010-01-01T02:34:59Z</time>
      </trkpt>
      <trkpt lat="42.08154" lon="2.67159">
        <ele>809</ele>
        <time>2010-01-01T02:35:06Z</time>
      </trkpt>
      <trkpt lat="42.08148" lon="2.67179">
        <ele>809</ele>
        <time>2010-01-01T02:35:13Z</time>
      </trkpt>
      <trkpt lat="42.08145" lon="2.67186">
        <ele>809</ele>
        <time>2010-01-01T02:35:15Z</time>
      </trkpt>
      <trkpt lat="42.08141" lon="2.67197">
        <ele>809</ele>
        <time>2010-01-01T02:35:19Z</time>
      </trkpt>
      <trkpt lat="42.08142" lon="2.67212">
        <ele>813</ele>
        <time>2010-01-01T02:35:23Z</time>
      </trkpt>
      <trkpt lat="42.08141" lon="2.67213">
        <ele>813</ele>
        <time>2010-01-01T02:35:23Z</time>
      </trkpt>
      <trkpt lat="42.08143" lon="2.67226">
        <ele>816</ele>
        <time>2010-01-01T02:35:27Z</time>
      </trkpt>
      <trkpt lat="42.08142" lon="2.67238">
        <ele>817</ele>
        <time>2010-01-01T02:35:31Z</time>
      </trkpt>
      <trkpt lat="42.08143" lon="2.67246">
        <ele>818</ele>
        <time>2010-01-01T02:35:33Z</time>
      </trkpt>
      <trkpt lat="42.08143" lon="2.67252">
        <ele>818</ele>
        <time>2010-01-01T02:35:35Z</time>
      </trkpt>
      <trkpt lat="42.08139" lon="2.67268">
        <ele>819</ele>
        <time>2010-01-01T02:35:40Z</time>
      </trkpt>
      <trkpt lat="42.08134" lon="2.67297">
        <ele>820</ele>
        <time>2010-01-01T02:35:49Z</time>
      </trkpt>
      <trkpt lat="42.08128" lon="2.67322">
        <ele>822</ele>
        <time>2010-01-01T02:35:57Z</time>
      </trkpt>
      <trkpt lat="42.08124" lon="2.67335">
        <ele>824</ele>
        <time>2010-01-01T02:36:01Z</time>
      </trkpt>
      <trkpt lat="42.08127" lon="2.67341">
        <ele>824</ele>
        <time>2010-01-01T02:36:03Z</time>
      </trkpt>
      <trkpt lat="42.08125" lon="2.67348">
        <ele>825</ele>
        <time>2010-01-01T02:36:05Z</time>
      </trkpt>
      <trkpt lat="42.08118" lon="2.67352">
        <ele>825</ele>
        <time>2010-01-01T02:36:08Z</time>
      </trkpt>
      <trkpt lat="42.08099" lon="2.67353">
        <ele>824</ele>
        <time>2010-01-01T02:36:16Z</time>
      </trkpt>
      <trkpt lat="42.08082" lon="2.67356">
        <ele>824</ele>
        <time>2010-01-01T02:36:23Z</time>
      </trkpt>
      <trkpt lat="42.08062" lon="2.67378">
        <ele>822</ele>
        <time>2010-01-01T02:36:33Z</time>
      </trkpt>
      <trkpt lat="42.08044" lon="2.67398">
        <ele>821</ele>
        <time>2010-01-01T02:36:43Z</time>
      </trkpt>
      <trkpt lat="42.0802" lon="2.67404">
        <ele>820</ele>
        <time>2010-01-01T02:36:52Z</time>
      </trkpt>
      <trkpt lat="42.08019" lon="2.67405">
        <ele>820</ele>
        <time>2010-01-01T02:36:53Z</time>
      </trkpt>
      <trkpt lat="42.0802" lon="2.67406">
        <ele>820</ele>
        <time>2010-01-01T02:36:53Z</time>
      </trkpt>
      <trkpt lat="42.0802" lon="2.67406">
        <ele>820</ele>
        <time>2010-01-01T02:36:54Z</time>
      </trkpt>
      <trkpt lat="42.08012" lon="2.67403">
        <ele>819</ele>
        <time>2010-01-01T02:36:57Z</time>
      </trkpt>
      <trkpt lat="42.0802" lon="2.67407">
        <ele>820</ele>
        <time>2010-01-01T02:37:00Z</time>
      </trkpt>
      <trkpt lat="42.08018" lon="2.67405">
        <ele>820</ele>
        <time>2010-01-01T02:37:01Z</time>
      </trkpt>
      <trkpt lat="42.08015" lon="2.67401">
        <ele>820</ele>
        <time>2010-01-01T02:37:03Z</time>
      </trkpt>
      <trkpt lat="42.08016" lon="2.67406">
        <ele>820</ele>
        <time>2010-01-01T02:37:05Z</time>
      </trkpt>
      <trkpt lat="42.08015" lon="2.67405">
        <ele>820</ele>
        <time>2010-01-01T02:37:05Z</time>
      </trkpt>
      <trkpt lat="42.08017" lon="2.67406">
        <ele>820</ele>
        <time>2010-01-01T02:37:06Z</time>
      </trkpt>
      <trkpt lat="42.08016" lon="2.67407">
        <ele>820</ele>
        <time>2010-01-01T02:37:06Z</time>
      </trkpt>
      <trkpt lat="42.08015" lon="2.67407">
        <ele>820</ele>
        <time>2010-01-01T02:37:07Z</time>
      </trkpt>
      <trkpt lat="42.08016" lon="2.67406">
        <ele>820</ele>
        <time>2010-01-01T02:37:07Z</time>
      </trkpt>
      <trkpt lat="42.08016" lon="2.67407">
        <ele>820</ele>
        <time>2010-01-01T02:37:07Z</time>
      </trkpt>
      <trkpt lat="42.08016" lon="2.67408">
        <ele>820</ele>
        <time>2010-01-01T02:37:07Z</time>
      </trkpt>
      <trkpt lat="42.08016" lon="2.67408">
        <ele>820</ele>
        <time>2010-01-01T02:37:08Z</time>
      </trkpt>
      <trkpt lat="42.08014" lon="2.67407">
        <ele>820</ele>
        <time>2010-01-01T02:37:08Z</time>
      </trkpt>
      <trkpt lat="42.08014" lon="2.67405">
        <ele>820</ele>
        <time>2010-01-01T02:37:09Z</time>
      </trkpt>
      <trkpt lat="42.08015" lon="2.67407">
        <ele>820</ele>
        <time>2010-01-01T02:37:09Z</time>
      </trkpt>
      <trkpt lat="42.08015" lon="2.67405">
        <ele>820</ele>
        <time>2010-01-01T02:37:10Z</time>
      </trkpt>
      <trkpt lat="42.08016" lon="2.67407">
        <ele>820</ele>
        <time>2010-01-01T02:37:10Z</time>
      </trkpt>
      <trkpt lat="42.08016" lon="2.67408">
        <ele>820</ele>
        <time>2010-01-01T02:37:10Z</time>
      </trkpt>
      <trkpt lat="42.08016" lon="2.67409">
        <ele>820</ele>
        <time>2010-01-01T02:37:11Z</time>
      </trkpt>
      <trkpt lat="42.08016" lon="2.67407">
        <ele>820</ele>
        <time>2010-01-01T02:37:11Z</time>
      </trkpt>
      <trkpt lat="42.08016" lon="2.67407">
        <ele>820</ele>
        <time>2010-01-01T02:37:11Z</time>
      </trkpt>
      <trkpt lat="42.08016" lon="2.67407">
        <ele>820</ele>
        <time>2010-01-01T02:37:12Z</time>
      </trkpt>
      <trkpt lat="42.08019" lon="2.67407">
        <ele>820</ele>
        <time>2010-01-01T02:37:13Z</time>
      </trkpt>
      <trkpt lat="42.08018" lon="2.67407">
        <ele>820</ele>
        <time>2010-01-01T02:37:13Z</time>
      </trkpt>
      <trkpt lat="42.08017" lon="2.67405">
        <ele>820</ele>
        <time>2010-01-01T02:37:14Z</time>
      </trkpt>
      <trkpt lat="42.08015" lon="2.67404">
        <ele>820</ele>
        <time>2010-01-01T02:37:15Z</time>
      </trkpt>
      <trkpt lat="42.08012" lon="2.67405">
        <ele>819</ele>
        <time>2010-01-01T02:37:16Z</time>
      </trkpt>
      <trkpt lat="42.08009" lon="2.67407">
        <ele>819</ele>
        <time>2010-01-01T02:37:17Z</time>
      </trkpt>
      <trkpt lat="42.07999" lon="2.67412">
        <ele>819</ele>
        <time>2010-01-01T02:37:22Z</time>
      </trkpt>
      <trkpt lat="42.07989" lon="2.67419">
        <ele>820</ele>
        <time>2010-01-01T02:37:26Z</time>
      </trkpt>
      <trkpt lat="42.0798" lon="2.6744">
        <ele>821</ele>
        <time>2010-01-01T02:37:33Z</time>
      </trkpt>
      <trkpt lat="42.07978" lon="2.67459">
        <ele>822</ele>
        <time>2010-01-01T02:37:39Z</time>
      </trkpt>
      <trkpt lat="42.0798" lon="2.67474">
        <ele>823</ele>
        <time>2010-01-01T02:37:44Z</time>
      </trkpt>
      <trkpt lat="42.07982" lon="2.6748">
        <ele>823</ele>
        <time>2010-01-01T02:37:46Z</time>
      </trkpt>
      <trkpt lat="42.07986" lon="2.67498">
        <ele>824</ele>
        <time>2010-01-01T02:37:51Z</time>
      </trkpt>
      <trkpt lat="42.07984" lon="2.67515">
        <ele>826</ele>
        <time>2010-01-01T02:37:56Z</time>
      </trkpt>
      <trkpt lat="42.0798" lon="2.67534">
        <ele>827</ele>
        <time>2010-01-01T02:38:02Z</time>
      </trkpt>
      <trkpt lat="42.07973" lon="2.67556">
        <ele>827</ele>
        <time>2010-01-01T02:38:09Z</time>
      </trkpt>
      <trkpt lat="42.07964" lon="2.67575">
        <ele>824</ele>
        <time>2010-01-01T02:38:16Z</time>
      </trkpt>
      <trkpt lat="42.07962" lon="2.67577">
        <ele>824</ele>
        <time>2010-01-01T02:38:17Z</time>
      </trkpt>
      <trkpt lat="42.07955" lon="2.67578">
        <ele>823</ele>
        <time>2010-01-01T02:38:20Z</time>
      </trkpt>
      <trkpt lat="42.0794" lon="2.67579">
        <ele>823</ele>
        <time>2010-01-01T02:38:26Z</time>
      </trkpt>
      <trkpt lat="42.07926" lon="2.6758">
        <ele>822</ele>
        <time>2010-01-01T02:38:31Z</time>
      </trkpt>
      <trkpt lat="42.07924" lon="2.67581">
        <ele>821</ele>
        <time>2010-01-01T02:38:32Z</time>
      </trkpt>
      <trkpt lat="42.07917" lon="2.67583">
        <ele>821</ele>
        <time>2010-01-01T02:38:35Z</time>
      </trkpt>
      <trkpt lat="42.07904" lon="2.67587">
        <ele>818</ele>
        <time>2010-01-01T02:38:41Z</time>
      </trkpt>
      <trkpt lat="42.07892" lon="2.67593">
        <ele>816</ele>
        <time>2010-01-01T02:38:45Z</time>
      </trkpt>
      <trkpt lat="42.07881" lon="2.67599">
        <ele>814</ele>
        <time>2010-01-01T02:38:50Z</time>
      </trkpt>
      <trkpt lat="42.0788" lon="2.676">
        <ele>813</ele>
        <time>2010-01-01T02:38:51Z</time>
      </trkpt>
      <trkpt lat="42.07871" lon="2.67601">
        <ele>813</ele>
        <time>2010-01-01T02:38:54Z</time>
      </trkpt>
      <trkpt lat="42.07853" lon="2.67601">
        <ele>813</ele>
        <time>2010-01-01T02:39:02Z</time>
      </trkpt>
      <trkpt lat="42.07841" lon="2.67614">
        <ele>811</ele>
        <time>2010-01-01T02:39:08Z</time>
      </trkpt>
      <trkpt lat="42.07828" lon="2.67633">
        <ele>806</ele>
        <time>2010-01-01T02:39:16Z</time>
      </trkpt>
      <trkpt lat="42.07816" lon="2.67651">
        <ele>801</ele>
        <time>2010-01-01T02:39:23Z</time>
      </trkpt>
      <trkpt lat="42.0781" lon="2.67658">
        <ele>799</ele>
        <time>2010-01-01T02:39:26Z</time>
      </trkpt>
      <trkpt lat="42.07801" lon="2.6766">
        <ele>797</ele>
        <time>2010-01-01T02:39:30Z</time>
      </trkpt>
      <trkpt lat="42.0779" lon="2.67662">
        <ele>795</ele>
        <time>2010-01-01T02:39:34Z</time>
      </trkpt>
      <trkpt lat="42.07782" lon="2.67668">
        <ele>792</ele>
        <time>2010-01-01T02:39:38Z</time>
      </trkpt>
      <trkpt lat="42.07777" lon="2.67676">
        <ele>790</ele>
        <time>2010-01-01T02:39:41Z</time>
      </trkpt>
      <trkpt lat="42.07773" lon="2.67682">
        <ele>789</ele>
        <time>2010-01-01T02:39:43Z</time>
      </trkpt>
      <trkpt lat="42.07771" lon="2.67686">
        <ele>788</ele>
        <time>2010-01-01T02:39:44Z</time>
      </trkpt>
      <trkpt lat="42.07764" lon="2.67696">
        <ele>786</ele>
        <time>2010-01-01T02:39:48Z</time>
      </trkpt>
      <trkpt lat="42.07761" lon="2.67708">
        <ele>784</ele>
        <time>2010-01-01T02:39:52Z</time>
      </trkpt>
      <trkpt lat="42.07753" lon="2.67722">
        <ele>781</ele>
        <time>2010-01-01T02:39:58Z</time>
      </trkpt>
      <trkpt lat="42.07751" lon="2.67722">
        <ele>781</ele>
        <time>2010-01-01T02:39:59Z</time>
      </trkpt>
      <trkpt lat="42.07742" lon="2.67717">
        <ele>779</ele>
        <time>2010-01-01T02:40:02Z</time>
      </trkpt>
      <trkpt lat="42.07725" lon="2.67714">
        <ele>776</ele>
        <time>2010-01-01T02:40:09Z</time>
      </trkpt>
      <trkpt lat="42.0772" lon="2.67715">
        <ele>775</ele>
        <time>2010-01-01T02:40:11Z</time>
      </trkpt>
      <trkpt lat="42.07709" lon="2.67718">
        <ele>774</ele>
        <time>2010-01-01T02:40:16Z</time>
      </trkpt>
      <trkpt lat="42.07706" lon="2.67723">
        <ele>773</ele>
        <time>2010-01-01T02:40:18Z</time>
      </trkpt>
      <trkpt lat="42.077" lon="2.67732">
        <ele>770</ele>
        <time>2010-01-01T02:40:21Z</time>
      </trkpt>
      <trkpt lat="42.07684" lon="2.67733">
        <ele>770</ele>
        <time>2010-01-01T02:40:28Z</time>
      </trkpt>
      <trkpt lat="42.07675" lon="2.67736">
        <ele>770</ele>
        <time>2010-01-01T02:40:31Z</time>
      </trkpt>
      <trkpt lat="42.07674" lon="2.67747">
        <ele>767</ele>
        <time>2010-01-01T02:40:35Z</time>
      </trkpt>
      <trkpt lat="42.07667" lon="2.67757">
        <ele>765</ele>
        <time>2010-01-01T02:40:39Z</time>
      </trkpt>
      <trkpt lat="42.0766" lon="2.67767">
        <ele>763</ele>
        <time>2010-01-01T02:40:43Z</time>
      </trkpt>
      <trkpt lat="42.0765" lon="2.67773">
        <ele>760</ele>
        <time>2010-01-01T02:40:47Z</time>
      </trkpt>
      <trkpt lat="42.07648" lon="2.67775">
        <ele>760</ele>
        <time>2010-01-01T02:40:48Z</time>
      </trkpt>
      <trkpt lat="42.07636" lon="2.67777">
        <ele>758</ele>
        <time>2010-01-01T02:40:53Z</time>
      </trkpt>
      <trkpt lat="42.07627" lon="2.6778">
        <ele>756</ele>
        <time>2010-01-01T02:40:57Z</time>
      </trkpt>
      <trkpt lat="42.07615" lon="2.67786">
        <ele>754</ele>
        <time>2010-01-01T02:41:02Z</time>
      </trkpt>
      <trkpt lat="42.07605" lon="2.67792">
        <ele>751</ele>
        <time>2010-01-01T02:41:06Z</time>
      </trkpt>
      <trkpt lat="42.07597" lon="2.67797">
        <ele>749</ele>
        <time>2010-01-01T02:41:10Z</time>
      </trkpt>
      <trkpt lat="42.07588" lon="2.67802">
        <ele>748</ele>
        <time>2010-01-01T02:41:14Z</time>
      </trkpt>
      <trkpt lat="42.07575" lon="2.67807">
        <ele>745</ele>
        <time>2010-01-01T02:41:19Z</time>
      </trkpt>
      <trkpt lat="42.07573" lon="2.67807">
        <ele>745</ele>
        <time>2010-01-01T02:41:20Z</time>
      </trkpt>
      <trkpt lat="42.07561" lon="2.6781">
        <ele>742</ele>
        <time>2010-01-01T02:41:25Z</time>
      </trkpt>
      <trkpt lat="42.07556" lon="2.67812">
        <ele>741</ele>
        <time>2010-01-01T02:41:27Z</time>
      </trkpt>
      <trkpt lat="42.07543" lon="2.67816">
        <ele>738</ele>
        <time>2010-01-01T02:41:32Z</time>
      </trkpt>
      <trkpt lat="42.07533" lon="2.6782">
        <ele>735</ele>
        <time>2010-01-01T02:41:36Z</time>
      </trkpt>
      <trkpt lat="42.07525" lon="2.67824">
        <ele>733</ele>
        <time>2010-01-01T02:41:40Z</time>
      </trkpt>
      <trkpt lat="42.07518" lon="2.67821">
        <ele>733</ele>
        <time>2010-01-01T02:41:43Z</time>
      </trkpt>
      <trkpt lat="42.07508" lon="2.67812">
        <ele>733</ele>
        <time>2010-01-01T02:41:47Z</time>
      </trkpt>
      <trkpt lat="42.07497" lon="2.67807">
        <ele>732</ele>
        <time>2010-01-01T02:41:52Z</time>
      </trkpt>
      <trkpt lat="42.07488" lon="2.67807">
        <ele>732</ele>
        <time>2010-01-01T02:41:56Z</time>
      </trkpt>
      <trkpt lat="42.07471" lon="2.67802">
        <ele>733</ele>
        <time>2010-01-01T02:42:02Z</time>
      </trkpt>
      <trkpt lat="42.07456" lon="2.67795">
        <ele>733</ele>
        <time>2010-01-01T02:42:09Z</time>
      </trkpt>
      <trkpt lat="42.07441" lon="2.67792">
        <ele>731</ele>
        <time>2010-01-01T02:42:15Z</time>
      </trkpt>
      <trkpt lat="42.07431" lon="2.67789">
        <ele>729</ele>
        <time>2010-01-01T02:42:19Z</time>
      </trkpt>
      <trkpt lat="42.07524" lon="2.67892">
        <ele>730</ele>
        <time>2010-01-01T02:43:07Z</time>
      </trkpt>
      <trkpt lat="42.07522" lon="2.67905">
        <ele>731</ele>
        <time>2010-01-01T02:43:11Z</time>
      </trkpt>
      <trkpt lat="42.07522" lon="2.67906">
        <ele>731</ele>
        <time>2010-01-01T02:43:12Z</time>
      </trkpt>
      <trkpt lat="42.07522" lon="2.67907">
        <ele>731</ele>
        <time>2010-01-01T02:43:12Z</time>
      </trkpt>
      <trkpt lat="42.0752" lon="2.67921">
        <ele>733</ele>
        <time>2010-01-01T02:43:16Z</time>
      </trkpt>
      <trkpt lat="42.0752" lon="2.67922">
        <ele>733</ele>
        <time>2010-01-01T02:43:16Z</time>
      </trkpt>
      <trkpt lat="42.07518" lon="2.67943">
        <ele>736</ele>
        <time>2010-01-01T02:43:23Z</time>
      </trkpt>
      <trkpt lat="42.07518" lon="2.67956">
        <ele>738</ele>
        <time>2010-01-01T02:43:26Z</time>
      </trkpt>
      <trkpt lat="42.07519" lon="2.67969">
        <ele>740</ele>
        <time>2010-01-01T02:43:30Z</time>
      </trkpt>
      <trkpt lat="42.07522" lon="2.67996">
        <ele>745</ele>
        <time>2010-01-01T02:43:39Z</time>
      </trkpt>
      <trkpt lat="42.07534" lon="2.68046">
        <ele>752</ele>
        <time>2010-01-01T02:43:54Z</time>
      </trkpt>
      <trkpt lat="42.07534" lon="2.68056">
        <ele>753</ele>
        <time>2010-01-01T02:43:57Z</time>
      </trkpt>
      <trkpt lat="42.07528" lon="2.68066">
        <ele>754</ele>
        <time>2010-01-01T02:44:01Z</time>
      </trkpt>
      <trkpt lat="42.07515" lon="2.68091">
        <ele>756</ele>
        <time>2010-01-01T02:44:10Z</time>
      </trkpt>
      <trkpt lat="42.07504" lon="2.68113">
        <ele>759</ele>
        <time>2010-01-01T02:44:18Z</time>
      </trkpt>
      <trkpt lat="42.07499" lon="2.68124">
        <ele>760</ele>
        <time>2010-01-01T02:44:22Z</time>
      </trkpt>
      <trkpt lat="42.07489" lon="2.68129">
        <ele>760</ele>
        <time>2010-01-01T02:44:26Z</time>
      </trkpt>
      <trkpt lat="42.07481" lon="2.6814">
        <ele>760</ele>
        <time>2010-01-01T02:44:30Z</time>
      </trkpt>
      <trkpt lat="42.07475" lon="2.68156">
        <ele>762</ele>
        <time>2010-01-01T02:44:36Z</time>
      </trkpt>
      <trkpt lat="42.07464" lon="2.68175">
        <ele>766</ele>
        <time>2010-01-01T02:44:43Z</time>
      </trkpt>
      <trkpt lat="42.07456" lon="2.68178">
        <ele>767</ele>
        <time>2010-01-01T02:44:46Z</time>
      </trkpt>
      <trkpt lat="42.0745" lon="2.68181">
        <ele>767</ele>
        <time>2010-01-01T02:44:49Z</time>
      </trkpt>
      <trkpt lat="42.07445" lon="2.68185">
        <ele>768</ele>
        <time>2010-01-01T02:44:51Z</time>
      </trkpt>
      <trkpt lat="42.07443" lon="2.68195">
        <ele>771</ele>
        <time>2010-01-01T02:44:54Z</time>
      </trkpt>
      <trkpt lat="42.07446" lon="2.68204">
        <ele>773</ele>
        <time>2010-01-01T02:44:57Z</time>
      </trkpt>
      <trkpt lat="42.07453" lon="2.6821">
        <ele>774</ele>
        <time>2010-01-01T02:45:01Z</time>
      </trkpt>
      <trkpt lat="42.07461" lon="2.68222">
        <ele>776</ele>
        <time>2010-01-01T02:45:05Z</time>
      </trkpt>
      <trkpt lat="42.07468" lon="2.68236">
        <ele>780</ele>
        <time>2010-01-01T02:45:10Z</time>
      </trkpt>
      <trkpt lat="42.07479" lon="2.68252">
        <ele>785</ele>
        <time>2010-01-01T02:45:17Z</time>
      </trkpt>
      <trkpt lat="42.07479" lon="2.68252">
        <ele>785</ele>
        <time>2010-01-01T02:45:17Z</time>
      </trkpt>
      <trkpt lat="42.07491" lon="2.68264">
        <ele>787</ele>
        <time>2010-01-01T02:45:23Z</time>
      </trkpt>
      <trkpt lat="42.075" lon="2.68271">
        <ele>788</ele>
        <time>2010-01-01T02:45:27Z</time>
      </trkpt>
      <trkpt lat="42.07506" lon="2.68286">
        <ele>790</ele>
        <time>2010-01-01T02:45:32Z</time>
      </trkpt>
      <trkpt lat="42.07513" lon="2.68298">
        <ele>791</ele>
        <time>2010-01-01T02:45:37Z</time>
      </trkpt>
      <trkpt lat="42.07527" lon="2.68324">
        <ele>794</ele>
        <time>2010-01-01T02:45:46Z</time>
      </trkpt>
      <trkpt lat="42.07528" lon="2.68333">
        <ele>795</ele>
        <time>2010-01-01T02:45:49Z</time>
      </trkpt>
      <trkpt lat="42.07515" lon="2.68347">
        <ele>799</ele>
        <time>2010-01-01T02:45:56Z</time>
      </trkpt>
      <trkpt lat="42.07513" lon="2.68358">
        <ele>801</ele>
        <time>2010-01-01T02:45:59Z</time>
      </trkpt>
      <trkpt lat="42.07515" lon="2.68366">
        <ele>802</ele>
        <time>2010-01-01T02:46:02Z</time>
      </trkpt>
      <trkpt lat="42.07526" lon="2.68378">
        <ele>802</ele>
        <time>2010-01-01T02:46:07Z</time>
      </trkpt>
      <trkpt lat="42.07539" lon="2.68398">
        <ele>804</ele>
        <time>2010-01-01T02:46:15Z</time>
      </trkpt>
      <trkpt lat="42.07545" lon="2.68406">
        <ele>805</ele>
        <time>2010-01-01T02:46:19Z</time>
      </trkpt>
      <trkpt lat="42.07546" lon="2.68407">
        <ele>805</ele>
        <time>2010-01-01T02:46:19Z</time>
      </trkpt>
      <trkpt lat="42.07551" lon="2.68416">
        <ele>806</ele>
        <time>2010-01-01T02:46:22Z</time>
      </trkpt>
      <trkpt lat="42.07553" lon="2.68461">
        <ele>812</ele>
        <time>2010-01-01T02:46:36Z</time>
      </trkpt>
      <trkpt lat="42.0755" lon="2.68473">
        <ele>815</ele>
        <time>2010-01-01T02:46:39Z</time>
      </trkpt>
      <trkpt lat="42.07548" lon="2.68484">
        <ele>817</ele>
        <time>2010-01-01T02:46:43Z</time>
      </trkpt>
      <trkpt lat="42.0755" lon="2.68493">
        <ele>819</ele>
        <time>2010-01-01T02:46:45Z</time>
      </trkpt>
      <trkpt lat="42.07554" lon="2.68509">
        <ele>821</ele>
        <time>2010-01-01T02:46:50Z</time>
      </trkpt>
      <trkpt lat="42.07555" lon="2.68509">
        <ele>821</ele>
        <time>2010-01-01T02:46:51Z</time>
      </trkpt>
      <trkpt lat="42.07558" lon="2.6852">
        <ele>822</ele>
        <time>2010-01-01T02:46:54Z</time>
      </trkpt>
      <trkpt lat="42.07558" lon="2.6852">
        <ele>822</ele>
        <time>2010-01-01T02:46:54Z</time>
      </trkpt>
      <trkpt lat="42.07562" lon="2.68532">
        <ele>824</ele>
        <time>2010-01-01T02:46:58Z</time>
      </trkpt>
      <trkpt lat="42.07567" lon="2.68544">
        <ele>824</ele>
        <time>2010-01-01T02:47:02Z</time>
      </trkpt>
      <trkpt lat="42.07571" lon="2.68555">
        <ele>825</ele>
        <time>2010-01-01T02:47:06Z</time>
      </trkpt>
      <trkpt lat="42.07579" lon="2.68572">
        <ele>826</ele>
        <time>2010-01-01T02:47:12Z</time>
      </trkpt>
      <trkpt lat="42.07598" lon="2.68604">
        <ele>829</ele>
        <time>2010-01-01T02:47:24Z</time>
      </trkpt>
      <trkpt lat="42.07604" lon="2.68615">
        <ele>830</ele>
        <time>2010-01-01T02:47:28Z</time>
      </trkpt>
      <trkpt lat="42.07612" lon="2.68634">
        <ele>831</ele>
        <time>2010-01-01T02:47:34Z</time>
      </trkpt>
      <trkpt lat="42.07619" lon="2.68647">
        <ele>831</ele>
        <time>2010-01-01T02:47:39Z</time>
      </trkpt>
      <trkpt lat="42.07624" lon="2.68657">
        <ele>832</ele>
        <time>2010-01-01T02:47:43Z</time>
      </trkpt>
      <trkpt lat="42.0762" lon="2.68659">
        <ele>831</ele>
        <time>2010-01-01T02:47:44Z</time>
      </trkpt>
      <trkpt lat="42.07607" lon="2.68659">
        <ele>831</ele>
        <time>2010-01-01T02:47:49Z</time>
      </trkpt>
      <trkpt lat="42.07605" lon="2.68657">
        <ele>831</ele>
        <time>2010-01-01T02:47:51Z</time>
      </trkpt>
      <trkpt lat="42.076" lon="2.68652">
        <ele>831</ele>
        <time>2010-01-01T02:47:53Z</time>
      </trkpt>
      <trkpt lat="42.07596" lon="2.68648">
        <ele>830</ele>
        <time>2010-01-01T02:47:55Z</time>
      </trkpt>
      <trkpt lat="42.0759" lon="2.68645">
        <ele>830</ele>
        <time>2010-01-01T02:47:58Z</time>
      </trkpt>
      <trkpt lat="42.07585" lon="2.68645">
        <ele>830</ele>
        <time>2010-01-01T02:48:00Z</time>
      </trkpt>
      <trkpt lat="42.07573" lon="2.68655">
        <ele>833</ele>
        <time>2010-01-01T02:48:05Z</time>
      </trkpt>
      <trkpt lat="42.07563" lon="2.68662">
        <ele>836</ele>
        <time>2010-01-01T02:48:10Z</time>
      </trkpt>
      <trkpt lat="42.07555" lon="2.68667">
        <ele>838</ele>
        <time>2010-01-01T02:48:13Z</time>
      </trkpt>
      <trkpt lat="42.07542" lon="2.68676">
        <ele>842</ele>
        <time>2010-01-01T02:48:19Z</time>
      </trkpt>
      <trkpt lat="42.07532" lon="2.68683">
        <ele>844</ele>
        <time>2010-01-01T02:48:23Z</time>
      </trkpt>
      <trkpt lat="42.07525" lon="2.68685">
        <ele>846</ele>
        <time>2010-01-01T02:48:26Z</time>
      </trkpt>
      <trkpt lat="42.07515" lon="2.68689">
        <ele>849</ele>
        <time>2010-01-01T02:48:31Z</time>
      </trkpt>
      <trkpt lat="42.07501" lon="2.68686">
        <ele>853</ele>
        <time>2010-01-01T02:48:36Z</time>
      </trkpt>
      <trkpt lat="42.07475" lon="2.68675">
        <ele>861</ele>
        <time>2010-01-01T02:48:47Z</time>
      </trkpt>
      <trkpt lat="42.07468" lon="2.68661">
        <ele>863</ele>
        <time>2010-01-01T02:48:52Z</time>
      </trkpt>
      <trkpt lat="42.07467" lon="2.68661">
        <ele>864</ele>
        <time>2010-01-01T02:48:52Z</time>
      </trkpt>
      <trkpt lat="42.07461" lon="2.68647">
        <ele>866</ele>
        <time>2010-01-01T02:48:57Z</time>
      </trkpt>
      <trkpt lat="42.07456" lon="2.68637">
        <ele>867</ele>
        <time>2010-01-01T02:49:01Z</time>
      </trkpt>
      <trkpt lat="42.07454" lon="2.68623">
        <ele>867</ele>
        <time>2010-01-01T02:49:05Z</time>
      </trkpt>
      <trkpt lat="42.0745" lon="2.6861">
        <ele>867</ele>
        <time>2010-01-01T02:49:09Z</time>
      </trkpt>
      <trkpt lat="42.07448" lon="2.68598">
        <ele>866</ele>
        <time>2010-01-01T02:49:13Z</time>
      </trkpt>
      <trkpt lat="42.07446" lon="2.6859">
        <ele>865</ele>
        <time>2010-01-01T02:49:15Z</time>
      </trkpt>
      <trkpt lat="42.07444" lon="2.6858">
        <ele>864</ele>
        <time>2010-01-01T02:49:18Z</time>
      </trkpt>
      <trkpt lat="42.07424" lon="2.68558">
        <ele>870</ele>
        <time>2010-01-01T02:49:29Z</time>
      </trkpt>
      <trkpt lat="42.07415" lon="2.68541">
        <ele>872</ele>
        <time>2010-01-01T02:49:35Z</time>
      </trkpt>
      <trkpt lat="42.07412" lon="2.6852">
        <ele>868</ele>
        <time>2010-01-01T02:49:41Z</time>
      </trkpt>
      <trkpt lat="42.07411" lon="2.68504">
        <ele>866</ele>
        <time>2010-01-01T02:49:46Z</time>
      </trkpt>
      <trkpt lat="42.07411" lon="2.68503">
        <ele>866</ele>
        <time>2010-01-01T02:49:46Z</time>
      </trkpt>
      <trkpt lat="42.07408" lon="2.68486">
        <ele>865</ele>
        <time>2010-01-01T02:49:52Z</time>
      </trkpt>
      <trkpt lat="42.07407" lon="2.68485">
        <ele>865</ele>
        <time>2010-01-01T02:49:52Z</time>
      </trkpt>
      <trkpt lat="42.07403" lon="2.68472">
        <ele>866</ele>
        <time>2010-01-01T02:49:56Z</time>
      </trkpt>
      <trkpt lat="42.07403" lon="2.68471">
        <ele>866</ele>
        <time>2010-01-01T02:49:56Z</time>
      </trkpt>
      <trkpt lat="42.07401" lon="2.68457">
        <ele>865</ele>
        <time>2010-01-01T02:50:01Z</time>
      </trkpt>
      <trkpt lat="42.07397" lon="2.68443">
        <ele>865</ele>
        <time>2010-01-01T02:50:05Z</time>
      </trkpt>
      <trkpt lat="42.07391" lon="2.68428">
        <ele>864</ele>
        <time>2010-01-01T02:50:10Z</time>
      </trkpt>
      <trkpt lat="42.07385" lon="2.68412">
        <ele>864</ele>
        <time>2010-01-01T02:50:16Z</time>
      </trkpt>
      <trkpt lat="42.07367" lon="2.68377">
        <ele>868</ele>
        <time>2010-01-01T02:50:28Z</time>
      </trkpt>
      <trkpt lat="42.07358" lon="2.68375">
        <ele>873</ele>
        <time>2010-01-01T02:50:32Z</time>
      </trkpt>
      <trkpt lat="42.07351" lon="2.68374">
        <ele>875</ele>
        <time>2010-01-01T02:50:35Z</time>
      </trkpt>
      <trkpt lat="42.07338" lon="2.68377">
        <ele>881</ele>
        <time>2010-01-01T02:50:40Z</time>
      </trkpt>
      <trkpt lat="42.07321" lon="2.68389">
        <ele>888</ele>
        <time>2010-01-01T02:50:48Z</time>
      </trkpt>
      <trkpt lat="42.07295" lon="2.68411">
        <ele>898</ele>
        <time>2010-01-01T02:51:00Z</time>
      </trkpt>
      <trkpt lat="42.07289" lon="2.68413">
        <ele>900</ele>
        <time>2010-01-01T02:51:02Z</time>
      </trkpt>
      <trkpt lat="42.07281" lon="2.68421">
        <ele>903</ele>
        <time>2010-01-01T02:51:06Z</time>
      </trkpt>
      <trkpt lat="42.07273" lon="2.68421">
        <ele>903</ele>
        <time>2010-01-01T02:51:09Z</time>
      </trkpt>
      <trkpt lat="42.07265" lon="2.68421">
        <ele>901</ele>
        <time>2010-01-01T02:51:13Z</time>
      </trkpt>
      <trkpt lat="42.07255" lon="2.68419">
        <ele>899</ele>
        <time>2010-01-01T02:51:16Z</time>
      </trkpt>
      <trkpt lat="42.07249" lon="2.68413">
        <ele>895</ele>
        <time>2010-01-01T02:51:20Z</time>
      </trkpt>
      <trkpt lat="42.07226" lon="2.68397">
        <ele>893</ele>
        <time>2010-01-01T02:51:30Z</time>
      </trkpt>
      <trkpt lat="42.07215" lon="2.6839">
        <ele>895</ele>
        <time>2010-01-01T02:51:35Z</time>
      </trkpt>
      <trkpt lat="42.07208" lon="2.68388">
        <ele>897</ele>
        <time>2010-01-01T02:51:38Z</time>
      </trkpt>
      <trkpt lat="42.07207" lon="2.68388">
        <ele>898</ele>
        <time>2010-01-01T02:51:38Z</time>
      </trkpt>
      <trkpt lat="42.07199" lon="2.68383">
        <ele>901</ele>
        <time>2010-01-01T02:51:42Z</time>
      </trkpt>
      <trkpt lat="42.07198" lon="2.68382">
        <ele>901</ele>
        <time>2010-01-01T02:51:42Z</time>
      </trkpt>
      <trkpt lat="42.07188" lon="2.68375">
        <ele>901</ele>
        <time>2010-01-01T02:51:46Z</time>
      </trkpt>
      <trkpt lat="42.07188" lon="2.68375">
        <ele>900</ele>
        <time>2010-01-01T02:51:47Z</time>
      </trkpt>
      <trkpt lat="42.07187" lon="2.68374">
        <ele>900</ele>
        <time>2010-01-01T02:51:47Z</time>
      </trkpt>
      <trkpt lat="42.07182" lon="2.68369">
        <ele>898</ele>
        <time>2010-01-01T02:51:50Z</time>
      </trkpt>
      <trkpt lat="42.07175" lon="2.68361">
        <ele>896</ele>
        <time>2010-01-01T02:51:53Z</time>
      </trkpt>
      <trkpt lat="42.07174" lon="2.68361">
        <ele>896</ele>
        <time>2010-01-01T02:51:54Z</time>
      </trkpt>
      <trkpt lat="42.0717" lon="2.68356">
        <ele>894</ele>
        <time>2010-01-01T02:51:56Z</time>
      </trkpt>
      <trkpt lat="42.07169" lon="2.68355">
        <ele>894</ele>
        <time>2010-01-01T02:51:56Z</time>
      </trkpt>
      <trkpt lat="42.07164" lon="2.68348">
        <ele>891</ele>
        <time>2010-01-01T02:51:59Z</time>
      </trkpt>
      <trkpt lat="42.07155" lon="2.68367">
        <ele>891</ele>
        <time>2010-01-01T02:52:06Z</time>
      </trkpt>
      <trkpt lat="42.07153" lon="2.68381">
        <ele>894</ele>
        <time>2010-01-01T02:52:10Z</time>
      </trkpt>
      <trkpt lat="42.07151" lon="2.68402">
        <ele>899</ele>
        <time>2010-01-01T02:52:16Z</time>
      </trkpt>
      <trkpt lat="42.07148" lon="2.68414">
        <ele>902</ele>
        <time>2010-01-01T02:52:20Z</time>
      </trkpt>
      <trkpt lat="42.07147" lon="2.68422">
        <ele>904</ele>
        <time>2010-01-01T02:52:23Z</time>
      </trkpt>
      <trkpt lat="42.07146" lon="2.68437">
        <ele>909</ele>
        <time>2010-01-01T02:52:27Z</time>
      </trkpt>
      <trkpt lat="42.07145" lon="2.68448">
        <ele>912</ele>
        <time>2010-01-01T02:52:30Z</time>
      </trkpt>
      <trkpt lat="42.07142" lon="2.68464">
        <ele>916</ele>
        <time>2010-01-01T02:52:35Z</time>
      </trkpt>
      <trkpt lat="42.0714" lon="2.68475">
        <ele>919</ele>
        <time>2010-01-01T02:52:39Z</time>
      </trkpt>
      <trkpt lat="42.07135" lon="2.68488">
        <ele>921</ele>
        <time>2010-01-01T02:52:43Z</time>
      </trkpt>
      <trkpt lat="42.07129" lon="2.68497">
        <ele>923</ele>
        <time>2010-01-01T02:52:46Z</time>
      </trkpt>
      <trkpt lat="42.07122" lon="2.68502">
        <ele>924</ele>
        <time>2010-01-01T02:52:50Z</time>
      </trkpt>
      <trkpt lat="42.07113" lon="2.6851">
        <ele>926</ele>
        <time>2010-01-01T02:52:54Z</time>
      </trkpt>
      <trkpt lat="42.07108" lon="2.68509">
        <ele>926</ele>
        <time>2010-01-01T02:52:56Z</time>
      </trkpt>
      <trkpt lat="42.07096" lon="2.68513">
        <ele>927</ele>
        <time>2010-01-01T02:53:01Z</time>
      </trkpt>
      <trkpt lat="42.07088" lon="2.68508">
        <ele>926</ele>
        <time>2010-01-01T02:53:04Z</time>
      </trkpt>
      <trkpt lat="42.07081" lon="2.68504">
        <ele>925</ele>
        <time>2010-01-01T02:53:07Z</time>
      </trkpt>
      <trkpt lat="42.07073" lon="2.68502">
        <ele>924</ele>
        <time>2010-01-01T02:53:11Z</time>
      </trkpt>
      <trkpt lat="42.07043" lon="2.68507">
        <ele>924</ele>
        <time>2010-01-01T02:53:23Z</time>
      </trkpt>
      <trkpt lat="42.07032" lon="2.68507">
        <ele>924</ele>
        <time>2010-01-01T02:53:27Z</time>
      </trkpt>
      <trkpt lat="42.07024" lon="2.68505">
        <ele>923</ele>
        <time>2010-01-01T02:53:30Z</time>
      </trkpt>
      <trkpt lat="42.07018" lon="2.68503">
        <ele>922</ele>
        <time>2010-01-01T02:53:33Z</time>
      </trkpt>
      <trkpt lat="42.07008" lon="2.68505">
        <ele>923</ele>
        <time>2010-01-01T02:53:37Z</time>
      </trkpt>
      <trkpt lat="42.06996" lon="2.68502">
        <ele>922</ele>
        <time>2010-01-01T02:53:42Z</time>
      </trkpt>
      <trkpt lat="42.06987" lon="2.68509">
        <ele>922</ele>
        <time>2010-01-01T02:53:46Z</time>
      </trkpt>
      <trkpt lat="42.06979" lon="2.68518">
        <ele>922</ele>
        <time>2010-01-01T02:53:50Z</time>
      </trkpt>
      <trkpt lat="42.06973" lon="2.68527">
        <ele>922</ele>
        <time>2010-01-01T02:53:54Z</time>
      </trkpt>
      <trkpt lat="42.06968" lon="2.6854">
        <ele>922</ele>
        <time>2010-01-01T02:53:58Z</time>
      </trkpt>
      <trkpt lat="42.06965" lon="2.68549">
        <ele>922</ele>
        <time>2010-01-01T02:54:01Z</time>
      </trkpt>
      <trkpt lat="42.06972" lon="2.68545">
        <ele>924</ele>
        <time>2010-01-01T02:54:04Z</time>
      </trkpt>
      <trkpt lat="42.06978" lon="2.68537">
        <ele>924</ele>
        <time>2010-01-01T02:54:08Z</time>
      </trkpt>
      <trkpt lat="42.06984" lon="2.68531">
        <ele>925</ele>
        <time>2010-01-01T02:54:11Z</time>
      </trkpt>
      <trkpt lat="42.0699" lon="2.68525">
        <ele>925</ele>
        <time>2010-01-01T02:54:14Z</time>
      </trkpt>
      <trkpt lat="42.06998" lon="2.68523">
        <ele>926</ele>
        <time>2010-01-01T02:54:17Z</time>
      </trkpt>
      <trkpt lat="42.07003" lon="2.68524">
        <ele>927</ele>
        <time>2010-01-01T02:54:19Z</time>
      </trkpt>
      <trkpt lat="42.07012" lon="2.68531">
        <ele>929</ele>
        <time>2010-01-01T02:54:23Z</time>
      </trkpt>
      <trkpt lat="42.07001" lon="2.68535">
        <ele>929</ele>
        <time>2010-01-01T02:54:28Z</time>
      </trkpt>
      <trkpt lat="42.06997" lon="2.68546">
        <ele>930</ele>
        <time>2010-01-01T02:54:31Z</time>
      </trkpt>
      <trkpt lat="42.06995" lon="2.68557">
        <ele>931</ele>
        <time>2010-01-01T02:54:35Z</time>
      </trkpt>
      <trkpt lat="42.06996" lon="2.68568">
        <ele>932</ele>
        <time>2010-01-01T02:54:38Z</time>
      </trkpt>
      <trkpt lat="42.07" lon="2.68575">
        <ele>934</ele>
        <time>2010-01-01T02:54:41Z</time>
      </trkpt>
      <trkpt lat="42.07006" lon="2.68586">
        <ele>936</ele>
        <time>2010-01-01T02:54:44Z</time>
      </trkpt>
      <trkpt lat="42.07011" lon="2.68597">
        <ele>940</ele>
        <time>2010-01-01T02:54:48Z</time>
      </trkpt>
      <trkpt lat="42.07014" lon="2.68613">
        <ele>943</ele>
        <time>2010-01-01T02:54:53Z</time>
      </trkpt>
      <trkpt lat="42.07015" lon="2.68626">
        <ele>944</ele>
        <time>2010-01-01T02:54:57Z</time>
      </trkpt>
      <trkpt lat="42.07016" lon="2.68637">
        <ele>946</ele>
        <time>2010-01-01T02:55:00Z</time>
      </trkpt>
      <trkpt lat="42.07015" lon="2.68648">
        <ele>946</ele>
        <time>2010-01-01T02:55:04Z</time>
      </trkpt>
      <trkpt lat="42.07015" lon="2.68649">
        <ele>946</ele>
        <time>2010-01-01T02:55:04Z</time>
      </trkpt>
      <trkpt lat="42.07012" lon="2.68659">
        <ele>945</ele>
        <time>2010-01-01T02:55:07Z</time>
      </trkpt>
      <trkpt lat="42.0701" lon="2.68671">
        <ele>944</ele>
        <time>2010-01-01T02:55:11Z</time>
      </trkpt>
      <trkpt lat="42.07009" lon="2.68679">
        <ele>944</ele>
        <time>2010-01-01T02:55:13Z</time>
      </trkpt>
      <trkpt lat="42.07009" lon="2.6868">
        <ele>944</ele>
        <time>2010-01-01T02:55:14Z</time>
      </trkpt>
      <trkpt lat="42.07011" lon="2.68686">
        <ele>944</ele>
        <time>2010-01-01T02:55:16Z</time>
      </trkpt>
      <trkpt lat="42.07015" lon="2.68688">
        <ele>945</ele>
        <time>2010-01-01T02:55:17Z</time>
      </trkpt>
      <trkpt lat="42.0702" lon="2.68688">
        <ele>946</ele>
        <time>2010-01-01T02:55:19Z</time>
      </trkpt>
      <trkpt lat="42.07024" lon="2.68685">
        <ele>947</ele>
        <time>2010-01-01T02:55:21Z</time>
      </trkpt>
      <trkpt lat="42.07027" lon="2.68674">
        <ele>949</ele>
        <time>2010-01-01T02:55:25Z</time>
      </trkpt>
      <trkpt lat="42.07029" lon="2.68665">
        <ele>951</ele>
        <time>2010-01-01T02:55:28Z</time>
      </trkpt>
      <trkpt lat="42.07032" lon="2.68652">
        <ele>953</ele>
        <time>2010-01-01T02:55:31Z</time>
      </trkpt>
      <trkpt lat="42.07034" lon="2.68643">
        <ele>954</ele>
        <time>2010-01-01T02:55:34Z</time>
      </trkpt>
      <trkpt lat="42.0704" lon="2.68623">
        <ele>955</ele>
        <time>2010-01-01T02:55:41Z</time>
      </trkpt>
      <trkpt lat="42.07044" lon="2.68615">
        <ele>956</ele>
        <time>2010-01-01T02:55:43Z</time>
      </trkpt>
      <trkpt lat="42.07048" lon="2.68609">
        <ele>956</ele>
        <time>2010-01-01T02:55:46Z</time>
      </trkpt>
      <trkpt lat="42.07056" lon="2.68605">
        <ele>958</ele>
        <time>2010-01-01T02:55:49Z</time>
      </trkpt>
      <trkpt lat="42.07062" lon="2.6861">
        <ele>960</ele>
        <time>2010-01-01T02:55:52Z</time>
      </trkpt>
      <trkpt lat="42.07063" lon="2.6861">
        <ele>960</ele>
        <time>2010-01-01T02:55:52Z</time>
      </trkpt>
      <trkpt lat="42.07069" lon="2.68614">
        <ele>962</ele>
        <time>2010-01-01T02:55:55Z</time>
      </trkpt>
      <trkpt lat="42.0708" lon="2.6862">
        <ele>965</ele>
        <time>2010-01-01T02:56:00Z</time>
      </trkpt>
      <trkpt lat="42.07088" lon="2.68625">
        <ele>966</ele>
        <time>2010-01-01T02:56:04Z</time>
      </trkpt>
      <trkpt lat="42.07094" lon="2.6863">
        <ele>967</ele>
        <time>2010-01-01T02:56:06Z</time>
      </trkpt>
      <trkpt lat="42.07102" lon="2.68635">
        <ele>967</ele>
        <time>2010-01-01T02:56:10Z</time>
      </trkpt>
      <trkpt lat="42.07108" lon="2.68639">
        <ele>967</ele>
        <time>2010-01-01T02:56:12Z</time>
      </trkpt>
      <trkpt lat="42.07115" lon="2.68642">
        <ele>966</ele>
        <time>2010-01-01T02:56:15Z</time>
      </trkpt>
      <trkpt lat="42.07123" lon="2.68644">
        <ele>965</ele>
        <time>2010-01-01T02:56:19Z</time>
      </trkpt>
      <trkpt lat="42.0713" lon="2.68649">
        <ele>963</ele>
        <time>2010-01-01T02:56:22Z</time>
      </trkpt>
      <trkpt lat="42.07135" lon="2.6865">
        <ele>962</ele>
        <time>2010-01-01T02:56:24Z</time>
      </trkpt>
      <trkpt lat="42.07146" lon="2.68651">
        <ele>961</ele>
        <time>2010-01-01T02:56:28Z</time>
      </trkpt>
      <trkpt lat="42.07153" lon="2.68649">
        <ele>962</ele>
        <time>2010-01-01T02:56:31Z</time>
      </trkpt>
      <trkpt lat="42.0716" lon="2.68646">
        <ele>963</ele>
        <time>2010-01-01T02:56:34Z</time>
      </trkpt>
      <trkpt lat="42.07164" lon="2.68645">
        <ele>963</ele>
        <time>2010-01-01T02:56:35Z</time>
      </trkpt>
      <trkpt lat="42.07156" lon="2.68647">
        <ele>962</ele>
        <time>2010-01-01T02:56:39Z</time>
      </trkpt>
      <trkpt lat="42.07151" lon="2.68649">
        <ele>962</ele>
        <time>2010-01-01T02:56:41Z</time>
      </trkpt>
      <trkpt lat="42.07145" lon="2.68651">
        <ele>961</ele>
        <time>2010-01-01T02:56:43Z</time>
      </trkpt>
      <trkpt lat="42.07141" lon="2.68657">
        <ele>960</ele>
        <time>2010-01-01T02:56:46Z</time>
      </trkpt>
      <trkpt lat="42.07142" lon="2.68659">
        <ele>960</ele>
        <time>2010-01-01T02:56:46Z</time>
      </trkpt>
      <trkpt lat="42.07141" lon="2.68665">
        <ele>959</ele>
        <time>2010-01-01T02:56:48Z</time>
      </trkpt>
      <trkpt lat="42.07133" lon="2.68655">
        <ele>962</ele>
        <time>2010-01-01T02:56:53Z</time>
      </trkpt>
      <trkpt lat="42.07144" lon="2.68656">
        <ele>960</ele>
        <time>2010-01-01T02:56:57Z</time>
      </trkpt>
      <trkpt lat="42.07138" lon="2.68659">
        <ele>960</ele>
        <time>2010-01-01T02:56:59Z</time>
      </trkpt>
      <trkpt lat="42.07139" lon="2.68654">
        <ele>960</ele>
        <time>2010-01-01T02:57:01Z</time>
      </trkpt>
      <trkpt lat="42.07129" lon="2.68662">
        <ele>963</ele>
        <time>2010-01-01T02:57:05Z</time>
      </trkpt>
      <trkpt lat="42.0714" lon="2.68657">
        <ele>960</ele>
        <time>2010-01-01T02:57:10Z</time>
      </trkpt>
      <trkpt lat="42.0713" lon="2.68656">
        <ele>963</ele>
        <time>2010-01-01T02:57:14Z</time>
      </trkpt>
      <trkpt lat="42.07129" lon="2.68656">
        <ele>963</ele>
        <time>2010-01-01T02:57:14Z</time>
      </trkpt>
      <trkpt lat="42.07139" lon="2.68665">
        <ele>959</ele>
        <time>2010-01-01T02:57:19Z</time>
      </trkpt>
      <trkpt lat="42.07145" lon="2.68656">
        <ele>960</ele>
        <time>2010-01-01T02:57:23Z</time>
      </trkpt>
      <trkpt lat="42.07136" lon="2.68649">
        <ele>962</ele>
        <time>2010-01-01T02:57:27Z</time>
      </trkpt>
      <trkpt lat="42.07127" lon="2.68646">
        <ele>964</ele>
        <time>2010-01-01T02:57:30Z</time>
      </trkpt>
      <trkpt lat="42.07118" lon="2.68642">
        <ele>966</ele>
        <time>2010-01-01T02:57:34Z</time>
      </trkpt>
      <trkpt lat="42.07112" lon="2.6864">
        <ele>966</ele>
        <time>2010-01-01T02:57:37Z</time>
      </trkpt>
      <trkpt lat="42.07106" lon="2.68636">
        <ele>967</ele>
        <time>2010-01-01T02:57:39Z</time>
      </trkpt>
      <trkpt lat="42.07097" lon="2.68631">
        <ele>966</ele>
        <time>2010-01-01T02:57:44Z</time>
      </trkpt>
      <trkpt lat="42.07088" lon="2.68624">
        <ele>966</ele>
        <time>2010-01-01T02:57:47Z</time>
      </trkpt>
      <trkpt lat="42.07075" lon="2.68616">
        <ele>963</ele>
        <time>2010-01-01T02:57:53Z</time>
      </trkpt>
      <trkpt lat="42.07066" lon="2.68609">
        <ele>960</ele>
        <time>2010-01-01T02:57:57Z</time>
      </trkpt>
      <trkpt lat="42.0706" lon="2.68606">
        <ele>959</ele>
        <time>2010-01-01T02:58:00Z</time>
      </trkpt>
      <trkpt lat="42.07054" lon="2.68606">
        <ele>957</ele>
        <time>2010-01-01T02:58:02Z</time>
      </trkpt>
      <trkpt lat="42.07044" lon="2.68611">
        <ele>955</ele>
        <time>2010-01-01T02:58:07Z</time>
      </trkpt>
      <trkpt lat="42.07037" lon="2.68631">
        <ele>955</ele>
        <time>2010-01-01T02:58:13Z</time>
      </trkpt>
      <trkpt lat="42.07033" lon="2.68647">
        <ele>953</ele>
        <time>2010-01-01T02:58:18Z</time>
      </trkpt>
      <trkpt lat="42.07031" lon="2.68657">
        <ele>952</ele>
        <time>2010-01-01T02:58:21Z</time>
      </trkpt>
      <trkpt lat="42.07028" lon="2.68671">
        <ele>950</ele>
        <time>2010-01-01T02:58:26Z</time>
      </trkpt>
      <trkpt lat="42.07026" lon="2.68682">
        <ele>948</ele>
        <time>2010-01-01T02:58:29Z</time>
      </trkpt>
      <trkpt lat="42.07022" lon="2.6869">
        <ele>946</ele>
        <time>2010-01-01T02:58:32Z</time>
      </trkpt>
      <trkpt lat="42.07016" lon="2.68693">
        <ele>945</ele>
        <time>2010-01-01T02:58:34Z</time>
      </trkpt>
      <trkpt lat="42.07012" lon="2.6869">
        <ele>944</ele>
        <time>2010-01-01T02:58:36Z</time>
      </trkpt>
      <trkpt lat="42.07009" lon="2.68687">
        <ele>943</ele>
        <time>2010-01-01T02:58:38Z</time>
      </trkpt>
      <trkpt lat="42.07004" lon="2.68686">
        <ele>942</ele>
        <time>2010-01-01T02:58:40Z</time>
      </trkpt>
      <trkpt lat="42.07" lon="2.68688">
        <ele>941</ele>
        <time>2010-01-01T02:58:41Z</time>
      </trkpt>
      <trkpt lat="42.06996" lon="2.6869">
        <ele>941</ele>
        <time>2010-01-01T02:58:43Z</time>
      </trkpt>
      <trkpt lat="42.06994" lon="2.68696">
        <ele>940</ele>
        <time>2010-01-01T02:58:45Z</time>
      </trkpt>
      <trkpt lat="42.06991" lon="2.68702">
        <ele>939</ele>
        <time>2010-01-01T02:58:47Z</time>
      </trkpt>
      <trkpt lat="42.06985" lon="2.68707">
        <ele>938</ele>
        <time>2010-01-01T02:58:50Z</time>
      </trkpt>
      <trkpt lat="42.0698" lon="2.68712">
        <ele>937</ele>
        <time>2010-01-01T02:58:52Z</time>
      </trkpt>
      <trkpt lat="42.06974" lon="2.68717">
        <ele>936</ele>
        <time>2010-01-01T02:58:55Z</time>
      </trkpt>
      <trkpt lat="42.06967" lon="2.68721">
        <ele>934</ele>
        <time>2010-01-01T02:58:58Z</time>
      </trkpt>
      <trkpt lat="42.06962" lon="2.68725">
        <ele>932</ele>
        <time>2010-01-01T02:59:01Z</time>
      </trkpt>
      <trkpt lat="42.06958" lon="2.68726">
        <ele>930</ele>
        <time>2010-01-01T02:59:02Z</time>
      </trkpt>
      <trkpt lat="42.06952" lon="2.68726">
        <ele>928</ele>
        <time>2010-01-01T02:59:04Z</time>
      </trkpt>
      <trkpt lat="42.06947" lon="2.68728">
        <ele>926</ele>
        <time>2010-01-01T02:59:07Z</time>
      </trkpt>
      <trkpt lat="42.06945" lon="2.68731">
        <ele>924</ele>
        <time>2010-01-01T02:59:08Z</time>
      </trkpt>
      <trkpt lat="42.0694" lon="2.68731">
        <ele>923</ele>
        <time>2010-01-01T02:59:10Z</time>
      </trkpt>
      <trkpt lat="42.06933" lon="2.6873">
        <ele>923</ele>
        <time>2010-01-01T02:59:12Z</time>
      </trkpt>
      <trkpt lat="42.06926" lon="2.6873">
        <ele>921</ele>
        <time>2010-01-01T02:59:15Z</time>
      </trkpt>
      <trkpt lat="42.06922" lon="2.68733">
        <ele>920</ele>
        <time>2010-01-01T02:59:17Z</time>
      </trkpt>
      <trkpt lat="42.06914" lon="2.68736">
        <ele>918</ele>
        <time>2010-01-01T02:59:20Z</time>
      </trkpt>
      <trkpt lat="42.0691" lon="2.68741">
        <ele>917</ele>
        <time>2010-01-01T02:59:23Z</time>
      </trkpt>
      <trkpt lat="42.06905" lon="2.68746">
        <ele>917</ele>
        <time>2010-01-01T02:59:25Z</time>
      </trkpt>
      <trkpt lat="42.069" lon="2.68748">
        <ele>916</ele>
        <time>2010-01-01T02:59:27Z</time>
      </trkpt>
      <trkpt lat="42.06895" lon="2.68749">
        <ele>916</ele>
        <time>2010-01-01T02:59:29Z</time>
      </trkpt>
      <trkpt lat="42.06891" lon="2.6875">
        <ele>916</ele>
        <time>2010-01-01T02:59:31Z</time>
      </trkpt>
      <trkpt lat="42.06886" lon="2.68752">
        <ele>915</ele>
        <time>2010-01-01T02:59:33Z</time>
      </trkpt>
      <trkpt lat="42.0688" lon="2.68753">
        <ele>914</ele>
        <time>2010-01-01T02:59:35Z</time>
      </trkpt>
      <trkpt lat="42.06875" lon="2.68754">
        <ele>913</ele>
        <time>2010-01-01T02:59:37Z</time>
      </trkpt>
      <trkpt lat="42.06869" lon="2.68758">
        <ele>911</ele>
        <time>2010-01-01T02:59:40Z</time>
      </trkpt>
      <trkpt lat="42.06865" lon="2.68761">
        <ele>910</ele>
        <time>2010-01-01T02:59:42Z</time>
      </trkpt>
      <trkpt lat="42.06862" lon="2.68762">
        <ele>910</ele>
        <time>2010-01-01T02:59:43Z</time>
      </trkpt>
      <trkpt lat="42.06857" lon="2.68762">
        <ele>909</ele>
        <time>2010-01-01T02:59:45Z</time>
      </trkpt>
      <trkpt lat="42.06854" lon="2.6876">
        <ele>909</ele>
        <time>2010-01-01T02:59:46Z</time>
      </trkpt>
      <trkpt lat="42.06854" lon="2.6876">
        <ele>909</ele>
        <time>2010-01-01T02:59:46Z</time>
      </trkpt>
      <trkpt lat="42.0685" lon="2.68758">
        <ele>908</ele>
        <time>2010-01-01T02:59:48Z</time>
      </trkpt>
      <trkpt lat="42.06848" lon="2.68756">
        <ele>908</ele>
        <time>2010-01-01T02:59:49Z</time>
      </trkpt>
      <trkpt lat="42.06842" lon="2.68756">
        <ele>907</ele>
        <time>2010-01-01T02:59:52Z</time>
      </trkpt>
      <trkpt lat="42.06836" lon="2.68757">
        <ele>906</ele>
        <time>2010-01-01T02:59:54Z</time>
      </trkpt>
      <trkpt lat="42.06827" lon="2.68759">
        <ele>904</ele>
        <time>2010-01-01T02:59:58Z</time>
      </trkpt>
      <trkpt lat="42.06812" lon="2.68763">
        <ele>902</ele>
        <time>2010-01-01T03:00:04Z</time>
      </trkpt>
      <trkpt lat="42.06805" lon="2.68764">
        <ele>901</ele>
        <time>2010-01-01T03:00:07Z</time>
      </trkpt>
      <trkpt lat="42.06798" lon="2.68767">
        <ele>901</ele>
        <time>2010-01-01T03:00:10Z</time>
      </trkpt>
      <trkpt lat="42.06793" lon="2.68768">
        <ele>900</ele>
        <time>2010-01-01T03:00:12Z</time>
      </trkpt>
      <trkpt lat="42.06783" lon="2.6876">
        <ele>899</ele>
        <time>2010-01-01T03:00:16Z</time>
      </trkpt>
      <trkpt lat="42.06777" lon="2.68758">
        <ele>898</ele>
        <time>2010-01-01T03:00:19Z</time>
      </trkpt>
      <trkpt lat="42.06773" lon="2.68757">
        <ele>898</ele>
        <time>2010-01-01T03:00:20Z</time>
      </trkpt>
      <trkpt lat="42.06769" lon="2.68755">
        <ele>898</ele>
        <time>2010-01-01T03:00:22Z</time>
      </trkpt>
      <trkpt lat="42.06758" lon="2.68754">
        <ele>898</ele>
        <time>2010-01-01T03:00:26Z</time>
      </trkpt>
      <trkpt lat="42.06753" lon="2.68754">
        <ele>898</ele>
        <time>2010-01-01T03:00:29Z</time>
      </trkpt>
      <trkpt lat="42.06746" lon="2.68757">
        <ele>898</ele>
        <time>2010-01-01T03:00:31Z</time>
      </trkpt>
      <trkpt lat="42.06742" lon="2.68759">
        <ele>898</ele>
        <time>2010-01-01T03:00:33Z</time>
      </trkpt>
      <trkpt lat="42.06737" lon="2.68759">
        <ele>898</ele>
        <time>2010-01-01T03:00:35Z</time>
      </trkpt>
      <trkpt lat="42.06734" lon="2.6876">
        <ele>898</ele>
        <time>2010-01-01T03:00:37Z</time>
      </trkpt>
      <trkpt lat="42.06731" lon="2.68761">
        <ele>898</ele>
        <time>2010-01-01T03:00:38Z</time>
      </trkpt>
      <trkpt lat="42.06729" lon="2.68761">
        <ele>898</ele>
        <time>2010-01-01T03:00:38Z</time>
      </trkpt>
      <trkpt lat="42.06732" lon="2.68765">
        <ele>898</ele>
        <time>2010-01-01T03:00:40Z</time>
      </trkpt>
      <trkpt lat="42.06738" lon="2.68764">
        <ele>898</ele>
        <time>2010-01-01T03:00:42Z</time>
      </trkpt>
      <trkpt lat="42.06738" lon="2.68764">
        <ele>898</ele>
        <time>2010-01-01T03:00:42Z</time>
      </trkpt>
      <trkpt lat="42.06731" lon="2.68764">
        <ele>898</ele>
        <time>2010-01-01T03:00:45Z</time>
      </trkpt>
      <trkpt lat="42.06725" lon="2.68765">
        <ele>898</ele>
        <time>2010-01-01T03:00:47Z</time>
      </trkpt>
      <trkpt lat="42.06731" lon="2.68764">
        <ele>898</ele>
        <time>2010-01-01T03:00:50Z</time>
      </trkpt>
      <trkpt lat="42.06732" lon="2.6876">
        <ele>898</ele>
        <time>2010-01-01T03:00:51Z</time>
      </trkpt>
      <trkpt lat="42.06743" lon="2.68757">
        <ele>898</ele>
        <time>2010-01-01T03:00:56Z</time>
      </trkpt>
      <trkpt lat="42.06755" lon="2.68755">
        <ele>898</ele>
        <time>2010-01-01T03:01:00Z</time>
      </trkpt>
      <trkpt lat="42.06764" lon="2.68759">
        <ele>898</ele>
        <time>2010-01-01T03:01:04Z</time>
      </trkpt>
      <trkpt lat="42.06766" lon="2.68762">
        <ele>898</ele>
        <time>2010-01-01T03:01:05Z</time>
      </trkpt>
      <trkpt lat="42.06767" lon="2.68766">
        <ele>899</ele>
        <time>2010-01-01T03:01:06Z</time>
      </trkpt>
      <trkpt lat="42.06767" lon="2.6877">
        <ele>899</ele>
        <time>2010-01-01T03:01:08Z</time>
      </trkpt>
      <trkpt lat="42.06765" lon="2.68774">
        <ele>899</ele>
        <time>2010-01-01T03:01:09Z</time>
      </trkpt>
      <trkpt lat="42.06762" lon="2.68775">
        <ele>899</ele>
        <time>2010-01-01T03:01:10Z</time>
      </trkpt>
      <trkpt lat="42.06767" lon="2.68769">
        <ele>899</ele>
        <time>2010-01-01T03:01:13Z</time>
      </trkpt>
      <trkpt lat="42.0677" lon="2.68768">
        <ele>899</ele>
        <time>2010-01-01T03:01:14Z</time>
      </trkpt>
      <trkpt lat="42.06772" lon="2.68769">
        <ele>899</ele>
        <time>2010-01-01T03:01:15Z</time>
      </trkpt>
      <trkpt lat="42.06777" lon="2.68768">
        <ele>899</ele>
        <time>2010-01-01T03:01:17Z</time>
      </trkpt>
      <trkpt lat="42.06781" lon="2.68768">
        <ele>899</ele>
        <time>2010-01-01T03:01:18Z</time>
      </trkpt>
      <trkpt lat="42.06786" lon="2.68772">
        <ele>899</ele>
        <time>2010-01-01T03:01:21Z</time>
      </trkpt>
      <trkpt lat="42.06789" lon="2.68776">
        <ele>899</ele>
        <time>2010-01-01T03:01:22Z</time>
      </trkpt>
      <trkpt lat="42.06783" lon="2.68781">
        <ele>898</ele>
        <time>2010-01-01T03:01:25Z</time>
      </trkpt>
      <trkpt lat="42.06774" lon="2.68789">
        <ele>897</ele>
        <time>2010-01-01T03:01:29Z</time>
      </trkpt>
      <trkpt lat="42.06768" lon="2.68791">
        <ele>896</ele>
        <time>2010-01-01T03:01:32Z</time>
      </trkpt>
      <trkpt lat="42.06761" lon="2.68796">
        <ele>895</ele>
        <time>2010-01-01T03:01:35Z</time>
      </trkpt>
      <trkpt lat="42.06755" lon="2.68801">
        <ele>894</ele>
        <time>2010-01-01T03:01:38Z</time>
      </trkpt>
      <trkpt lat="42.06751" lon="2.68805">
        <ele>894</ele>
        <time>2010-01-01T03:01:40Z</time>
      </trkpt>
      <trkpt lat="42.06746" lon="2.68808">
        <ele>892</ele>
        <time>2010-01-01T03:01:42Z</time>
      </trkpt>
      <trkpt lat="42.06736" lon="2.68811">
        <ele>890</ele>
        <time>2010-01-01T03:01:46Z</time>
      </trkpt>
      <trkpt lat="42.06731" lon="2.68812">
        <ele>890</ele>
        <time>2010-01-01T03:01:48Z</time>
      </trkpt>
      <trkpt lat="42.06726" lon="2.68813">
        <ele>889</ele>
        <time>2010-01-01T03:01:50Z</time>
      </trkpt>
      <trkpt lat="42.06708" lon="2.68817">
        <ele>888</ele>
        <time>2010-01-01T03:01:58Z</time>
      </trkpt>
      <trkpt lat="42.06702" lon="2.68817">
        <ele>888</ele>
        <time>2010-01-01T03:02:00Z</time>
      </trkpt>
      <trkpt lat="42.06695" lon="2.68817">
        <ele>889</ele>
        <time>2010-01-01T03:02:03Z</time>
      </trkpt>
      <trkpt lat="42.0669" lon="2.68818">
        <ele>890</ele>
        <time>2010-01-01T03:02:05Z</time>
      </trkpt>
      <trkpt lat="42.06685" lon="2.6882">
        <ele>890</ele>
        <time>2010-01-01T03:02:07Z</time>
      </trkpt>
      <trkpt lat="42.06681" lon="2.68824">
        <ele>889</ele>
        <time>2010-01-01T03:02:09Z</time>
      </trkpt>
      <trkpt lat="42.06678" lon="2.68826">
        <ele>889</ele>
        <time>2010-01-01T03:02:10Z</time>
      </trkpt>
      <trkpt lat="42.06685" lon="2.68833">
        <ele>883</ele>
        <time>2010-01-01T03:02:13Z</time>
      </trkpt>
      <trkpt lat="42.06694" lon="2.68839">
        <ele>878</ele>
        <time>2010-01-01T03:02:18Z</time>
      </trkpt>
      <trkpt lat="42.06695" lon="2.6884">
        <ele>877</ele>
        <time>2010-01-01T03:02:18Z</time>
      </trkpt>
      <trkpt lat="42.06697" lon="2.68841">
        <ele>876</ele>
        <time>2010-01-01T03:02:19Z</time>
      </trkpt>
      <trkpt lat="42.06694" lon="2.68844">
        <ele>874</ele>
        <time>2010-01-01T03:02:20Z</time>
      </trkpt>
      <trkpt lat="42.0669" lon="2.68848">
        <ele>873</ele>
        <time>2010-01-01T03:02:22Z</time>
      </trkpt>
      <trkpt lat="42.0669" lon="2.68849">
        <ele>873</ele>
        <time>2010-01-01T03:02:23Z</time>
      </trkpt>
      <trkpt lat="42.06686" lon="2.6885">
        <ele>873</ele>
        <time>2010-01-01T03:02:24Z</time>
      </trkpt>
      <trkpt lat="42.0668" lon="2.68853">
        <ele>873</ele>
        <time>2010-01-01T03:02:27Z</time>
      </trkpt>
      <trkpt lat="42.06672" lon="2.6886">
        <ele>871</ele>
        <time>2010-01-01T03:02:30Z</time>
      </trkpt>
      <trkpt lat="42.06662" lon="2.68868">
        <ele>869</ele>
        <time>2010-01-01T03:02:35Z</time>
      </trkpt>
      <trkpt lat="42.06662" lon="2.68874">
        <ele>864</ele>
        <time>2010-01-01T03:02:37Z</time>
      </trkpt>
      <trkpt lat="42.06662" lon="2.68878">
        <ele>861</ele>
        <time>2010-01-01T03:02:38Z</time>
      </trkpt>
      <trkpt lat="42.06665" lon="2.68882">
        <ele>856</ele>
        <time>2010-01-01T03:02:40Z</time>
      </trkpt>
      <trkpt lat="42.06668" lon="2.68885">
        <ele>853</ele>
        <time>2010-01-01T03:02:41Z</time>
      </trkpt>
      <trkpt lat="42.06679" lon="2.68889">
        <ele>850</ele>
        <time>2010-01-01T03:02:46Z</time>
      </trkpt>
      <trkpt lat="42.06685" lon="2.68892">
        <ele>847</ele>
        <time>2010-01-01T03:02:49Z</time>
      </trkpt>
      <trkpt lat="42.06691" lon="2.68897">
        <ele>843</ele>
        <time>2010-01-01T03:02:51Z</time>
      </trkpt>
      <trkpt lat="42.06699" lon="2.689">
        <ele>840</ele>
        <time>2010-01-01T03:02:55Z</time>
      </trkpt>
      <trkpt lat="42.06707" lon="2.68903">
        <ele>837</ele>
        <time>2010-01-01T03:02:58Z</time>
      </trkpt>
      <trkpt lat="42.06713" lon="2.68906">
        <ele>834</ele>
        <time>2010-01-01T03:03:01Z</time>
      </trkpt>
      <trkpt lat="42.0672" lon="2.68911">
        <ele>830</ele>
        <time>2010-01-01T03:03:04Z</time>
      </trkpt>
      <trkpt lat="42.0673" lon="2.68915">
        <ele>827</ele>
        <time>2010-01-01T03:03:08Z</time>
      </trkpt>
      <trkpt lat="42.0674" lon="2.6892">
        <ele>823</ele>
        <time>2010-01-01T03:03:12Z</time>
      </trkpt>
      <trkpt lat="42.06746" lon="2.68925">
        <ele>820</ele>
        <time>2010-01-01T03:03:15Z</time>
      </trkpt>
      <trkpt lat="42.06748" lon="2.68928">
        <ele>818</ele>
        <time>2010-01-01T03:03:16Z</time>
      </trkpt>
      <trkpt lat="42.06748" lon="2.68933">
        <ele>816</ele>
        <time>2010-01-01T03:03:18Z</time>
      </trkpt>
      <trkpt lat="42.06745" lon="2.68937">
        <ele>814</ele>
        <time>2010-01-01T03:03:19Z</time>
      </trkpt>
      <trkpt lat="42.06736" lon="2.6894">
        <ele>813</ele>
        <time>2010-01-01T03:03:23Z</time>
      </trkpt>
      <trkpt lat="42.06736" lon="2.68943">
        <ele>811</ele>
        <time>2010-01-01T03:03:24Z</time>
      </trkpt>
      <trkpt lat="42.0674" lon="2.68953">
        <ele>805</ele>
        <time>2010-01-01T03:03:27Z</time>
      </trkpt>
      <trkpt lat="42.06742" lon="2.68962">
        <ele>800</ele>
        <time>2010-01-01T03:03:30Z</time>
      </trkpt>
      <trkpt lat="42.0674" lon="2.68966">
        <ele>798</ele>
        <time>2010-01-01T03:03:31Z</time>
      </trkpt>
      <trkpt lat="42.06735" lon="2.68969">
        <ele>796</ele>
        <time>2010-01-01T03:03:34Z</time>
      </trkpt>
      <trkpt lat="42.06725" lon="2.68966">
        <ele>798</ele>
        <time>2010-01-01T03:03:37Z</time>
      </trkpt>
      <trkpt lat="42.06715" lon="2.68966">
        <ele>799</ele>
        <time>2010-01-01T03:03:42Z</time>
      </trkpt>
      <trkpt lat="42.06708" lon="2.68969">
        <ele>797</ele>
        <time>2010-01-01T03:03:45Z</time>
      </trkpt>
      <trkpt lat="42.06699" lon="2.68973">
        <ele>796</ele>
        <time>2010-01-01T03:03:48Z</time>
      </trkpt>
      <trkpt lat="42.06687" lon="2.68979">
        <ele>793</ele>
        <time>2010-01-01T03:03:53Z</time>
      </trkpt>
      <trkpt lat="42.06679" lon="2.68985">
        <ele>792</ele>
        <time>2010-01-01T03:03:57Z</time>
      </trkpt>
      <trkpt lat="42.06677" lon="2.68992">
        <ele>789</ele>
        <time>2010-01-01T03:03:59Z</time>
      </trkpt>
      <trkpt lat="42.06676" lon="2.69003">
        <ele>784</ele>
        <time>2010-01-01T03:04:03Z</time>
      </trkpt>
      <trkpt lat="42.06677" lon="2.69012">
        <ele>780</ele>
        <time>2010-01-01T03:04:05Z</time>
      </trkpt>
      <trkpt lat="42.06684" lon="2.6901">
        <ele>778</ele>
        <time>2010-01-01T03:04:08Z</time>
      </trkpt>
      <trkpt lat="42.06691" lon="2.6901">
        <ele>775</ele>
        <time>2010-01-01T03:04:11Z</time>
      </trkpt>
      <trkpt lat="42.06698" lon="2.69009">
        <ele>773</ele>
        <time>2010-01-01T03:04:14Z</time>
      </trkpt>
      <trkpt lat="42.06704" lon="2.6901">
        <ele>771</ele>
        <time>2010-01-01T03:04:16Z</time>
      </trkpt>
      <trkpt lat="42.06711" lon="2.69011">
        <ele>769</ele>
        <time>2010-01-01T03:04:19Z</time>
      </trkpt>
      <trkpt lat="42.06719" lon="2.69016">
        <ele>764</ele>
        <time>2010-01-01T03:04:22Z</time>
      </trkpt>
      <trkpt lat="42.06731" lon="2.69025">
        <ele>756</ele>
        <time>2010-01-01T03:04:28Z</time>
      </trkpt>
      <trkpt lat="42.06737" lon="2.69029">
        <ele>753</ele>
        <time>2010-01-01T03:04:31Z</time>
      </trkpt>
      <trkpt lat="42.06743" lon="2.69034">
        <ele>749</ele>
        <time>2010-01-01T03:04:34Z</time>
      </trkpt>
      <trkpt lat="42.06756" lon="2.69044">
        <ele>744</ele>
        <time>2010-01-01T03:04:39Z</time>
      </trkpt>
      <trkpt lat="42.06765" lon="2.69046">
        <ele>743</ele>
        <time>2010-01-01T03:04:43Z</time>
      </trkpt>
      <trkpt lat="42.06773" lon="2.69051">
        <ele>741</ele>
        <time>2010-01-01T03:04:47Z</time>
      </trkpt>
      <trkpt lat="42.06783" lon="2.69058">
        <ele>738</ele>
        <time>2010-01-01T03:04:51Z</time>
      </trkpt>
      <trkpt lat="42.06791" lon="2.69061">
        <ele>735</ele>
        <time>2010-01-01T03:04:55Z</time>
      </trkpt>
      <trkpt lat="42.06798" lon="2.69079">
        <ele>726</ele>
        <time>2010-01-01T03:05:01Z</time>
      </trkpt>
      <trkpt lat="42.068" lon="2.69088">
        <ele>722</ele>
        <time>2010-01-01T03:05:03Z</time>
      </trkpt>
      <trkpt lat="42.068" lon="2.69096">
        <ele>719</ele>
        <time>2010-01-01T03:05:06Z</time>
      </trkpt>
      <trkpt lat="42.068" lon="2.69102">
        <ele>716</ele>
        <time>2010-01-01T03:05:08Z</time>
      </trkpt>
      <trkpt lat="42.06801" lon="2.69112">
        <ele>713</ele>
        <time>2010-01-01T03:05:11Z</time>
      </trkpt>
      <trkpt lat="42.06807" lon="2.69124">
        <ele>708</ele>
        <time>2010-01-01T03:05:15Z</time>
      </trkpt>
      <trkpt lat="42.06805" lon="2.69129">
        <ele>707</ele>
        <time>2010-01-01T03:05:16Z</time>
      </trkpt>
      <trkpt lat="42.06797" lon="2.69132">
        <ele>706</ele>
        <time>2010-01-01T03:05:20Z</time>
      </trkpt>
      <trkpt lat="42.06789" lon="2.69132">
        <ele>706</ele>
        <time>2010-01-01T03:05:23Z</time>
      </trkpt>
      <trkpt lat="42.06777" lon="2.6913">
        <ele>708</ele>
        <time>2010-01-01T03:05:28Z</time>
      </trkpt>
      <trkpt lat="42.06762" lon="2.69125">
        <ele>708</ele>
        <time>2010-01-01T03:05:34Z</time>
      </trkpt>
      <trkpt lat="42.0675" lon="2.69123">
        <ele>708</ele>
        <time>2010-01-01T03:05:39Z</time>
      </trkpt>
      <trkpt lat="42.06741" lon="2.69122">
        <ele>708</ele>
        <time>2010-01-01T03:05:43Z</time>
      </trkpt>
      <trkpt lat="42.06732" lon="2.69124">
        <ele>707</ele>
        <time>2010-01-01T03:05:46Z</time>
      </trkpt>
      <trkpt lat="42.06721" lon="2.6913">
        <ele>705</ele>
        <time>2010-01-01T03:05:51Z</time>
      </trkpt>
      <trkpt lat="42.06703" lon="2.69138">
        <ele>704</ele>
        <time>2010-01-01T03:05:58Z</time>
      </trkpt>
      <trkpt lat="42.067" lon="2.69143">
        <ele>703</ele>
        <time>2010-01-01T03:06:00Z</time>
      </trkpt>
      <trkpt lat="42.06696" lon="2.69151">
        <ele>700</ele>
        <time>2010-01-01T03:06:03Z</time>
      </trkpt>
      <trkpt lat="42.06693" lon="2.69168">
        <ele>695</ele>
        <time>2010-01-01T03:06:08Z</time>
      </trkpt>
      <trkpt lat="42.06689" lon="2.69181">
        <ele>693</ele>
        <time>2010-01-01T03:06:12Z</time>
      </trkpt>
      <trkpt lat="42.06689" lon="2.69182">
        <ele>693</ele>
        <time>2010-01-01T03:06:13Z</time>
      </trkpt>
      <trkpt lat="42.06685" lon="2.6919">
        <ele>691</ele>
        <time>2010-01-01T03:06:16Z</time>
      </trkpt>
      <trkpt lat="42.06673" lon="2.69193">
        <ele>693</ele>
        <time>2010-01-01T03:06:20Z</time>
      </trkpt>
      <trkpt lat="42.06659" lon="2.69194">
        <ele>694</ele>
        <time>2010-01-01T03:06:26Z</time>
      </trkpt>
      <trkpt lat="42.06649" lon="2.69197">
        <ele>695</ele>
        <time>2010-01-01T03:06:30Z</time>
      </trkpt>
      <trkpt lat="42.06636" lon="2.692">
        <ele>695</ele>
        <time>2010-01-01T03:06:35Z</time>
      </trkpt>
      <trkpt lat="42.06625" lon="2.69203">
        <ele>695</ele>
        <time>2010-01-01T03:06:40Z</time>
      </trkpt>
      <trkpt lat="42.06616" lon="2.69209">
        <ele>695</ele>
        <time>2010-01-01T03:06:44Z</time>
      </trkpt>
      <trkpt lat="42.06611" lon="2.69218">
        <ele>693</ele>
        <time>2010-01-01T03:06:47Z</time>
      </trkpt>
      <trkpt lat="42.06605" lon="2.69235">
        <ele>690</ele>
        <time>2010-01-01T03:06:53Z</time>
      </trkpt>
      <trkpt lat="42.066" lon="2.69252">
        <ele>688</ele>
        <time>2010-01-01T03:06:58Z</time>
      </trkpt>
      <trkpt lat="42.06598" lon="2.69271">
        <ele>686</ele>
        <time>2010-01-01T03:07:04Z</time>
      </trkpt>
      <trkpt lat="42.06597" lon="2.69287">
        <ele>683</ele>
        <time>2010-01-01T03:07:09Z</time>
      </trkpt>
      <trkpt lat="42.06597" lon="2.69287">
        <ele>683</ele>
        <time>2010-01-01T03:07:09Z</time>
      </trkpt>
      <trkpt lat="42.06596" lon="2.69305">
        <ele>679</ele>
        <time>2010-01-01T03:07:14Z</time>
      </trkpt>
      <trkpt lat="42.06596" lon="2.69306">
        <ele>679</ele>
        <time>2010-01-01T03:07:14Z</time>
      </trkpt>
      <trkpt lat="42.06594" lon="2.6932">
        <ele>677</ele>
        <time>2010-01-01T03:07:19Z</time>
      </trkpt>
      <trkpt lat="42.06594" lon="2.69321">
        <ele>677</ele>
        <time>2010-01-01T03:07:19Z</time>
      </trkpt>
      <trkpt lat="42.06594" lon="2.69329">
        <ele>676</ele>
        <time>2010-01-01T03:07:21Z</time>
      </trkpt>
      <trkpt lat="42.06593" lon="2.69337">
        <ele>675</ele>
        <time>2010-01-01T03:07:24Z</time>
      </trkpt>
      <trkpt lat="42.06599" lon="2.69352">
        <ele>674</ele>
        <time>2010-01-01T03:07:29Z</time>
      </trkpt>
      <trkpt lat="42.06603" lon="2.69367">
        <ele>674</ele>
        <time>2010-01-01T03:07:33Z</time>
      </trkpt>
      <trkpt lat="42.0661" lon="2.69398">
        <ele>673</ele>
        <time>2010-01-01T03:07:43Z</time>
      </trkpt>
      <trkpt lat="42.0661" lon="2.69415">
        <ele>672</ele>
        <time>2010-01-01T03:07:48Z</time>
      </trkpt>
      <trkpt lat="42.06612" lon="2.6943">
        <ele>673</ele>
        <time>2010-01-01T03:07:53Z</time>
      </trkpt>
      <trkpt lat="42.06611" lon="2.69441">
        <ele>672</ele>
        <time>2010-01-01T03:07:56Z</time>
      </trkpt>
      <trkpt lat="42.06607" lon="2.69454">
        <ele>671</ele>
        <time>2010-01-01T03:08:00Z</time>
      </trkpt>
      <trkpt lat="42.06604" lon="2.69466">
        <ele>670</ele>
        <time>2010-01-01T03:08:04Z</time>
      </trkpt>
      <trkpt lat="42.06604" lon="2.69467">
        <ele>670</ele>
        <time>2010-01-01T03:08:04Z</time>
      </trkpt>
      <trkpt lat="42.06604" lon="2.69479">
        <ele>670</ele>
        <time>2010-01-01T03:08:08Z</time>
      </trkpt>
      <trkpt lat="42.06604" lon="2.6948">
        <ele>670</ele>
        <time>2010-01-01T03:08:08Z</time>
      </trkpt>
      <trkpt lat="42.06606" lon="2.69493">
        <ele>670</ele>
        <time>2010-01-01T03:08:12Z</time>
      </trkpt>
      <trkpt lat="42.06611" lon="2.69504">
        <ele>671</ele>
        <time>2010-01-01T03:08:16Z</time>
      </trkpt>
      <trkpt lat="42.06623" lon="2.69507">
        <ele>671</ele>
        <time>2010-01-01T03:08:21Z</time>
      </trkpt>
      <trkpt lat="42.06629" lon="2.69512">
        <ele>671</ele>
        <time>2010-01-01T03:08:23Z</time>
      </trkpt>
      <trkpt lat="42.06633" lon="2.69517">
        <ele>671</ele>
        <time>2010-01-01T03:08:26Z</time>
      </trkpt>
      <trkpt lat="42.06638" lon="2.69528">
        <ele>670</ele>
        <time>2010-01-01T03:08:29Z</time>
      </trkpt>
      <trkpt lat="42.06641" lon="2.69535">
        <ele>668</ele>
        <time>2010-01-01T03:08:32Z</time>
      </trkpt>
      <trkpt lat="42.06645" lon="2.69548">
        <ele>664</ele>
        <time>2010-01-01T03:08:36Z</time>
      </trkpt>
      <trkpt lat="42.06647" lon="2.69557">
        <ele>662</ele>
        <time>2010-01-01T03:08:39Z</time>
      </trkpt>
      <trkpt lat="42.06647" lon="2.69569">
        <ele>660</ele>
        <time>2010-01-01T03:08:42Z</time>
      </trkpt>
      <trkpt lat="42.06643" lon="2.69586">
        <ele>658</ele>
        <time>2010-01-01T03:08:48Z</time>
      </trkpt>
      <trkpt lat="42.0664" lon="2.69599">
        <ele>656</ele>
        <time>2010-01-01T03:08:52Z</time>
      </trkpt>
      <trkpt lat="42.06638" lon="2.69612">
        <ele>654</ele>
        <time>2010-01-01T03:08:56Z</time>
      </trkpt>
      <trkpt lat="42.06639" lon="2.69629">
        <ele>652</ele>
        <time>2010-01-01T03:09:01Z</time>
      </trkpt>
      <trkpt lat="42.06642" lon="2.69641">
        <ele>650</ele>
        <time>2010-01-01T03:09:05Z</time>
      </trkpt>
      <trkpt lat="42.06646" lon="2.69653">
        <ele>647</ele>
        <time>2010-01-01T03:09:08Z</time>
      </trkpt>
      <trkpt lat="42.0666" lon="2.69679">
        <ele>644</ele>
        <time>2010-01-01T03:09:18Z</time>
      </trkpt>
      <trkpt lat="42.06665" lon="2.69692">
        <ele>644</ele>
        <time>2010-01-01T03:09:22Z</time>
      </trkpt>
      <trkpt lat="42.06671" lon="2.69705">
        <ele>642</ele>
        <time>2010-01-01T03:09:27Z</time>
      </trkpt>
      <trkpt lat="42.06676" lon="2.69715">
        <ele>640</ele>
        <time>2010-01-01T03:09:30Z</time>
      </trkpt>
      <trkpt lat="42.06683" lon="2.69721">
        <ele>639</ele>
        <time>2010-01-01T03:09:34Z</time>
      </trkpt>
      <trkpt lat="42.06686" lon="2.69732">
        <ele>638</ele>
        <time>2010-01-01T03:09:37Z</time>
      </trkpt>
      <trkpt lat="42.06691" lon="2.69739">
        <ele>637</ele>
        <time>2010-01-01T03:09:40Z</time>
      </trkpt>
      <trkpt lat="42.06696" lon="2.69751">
        <ele>636</ele>
        <time>2010-01-01T03:09:44Z</time>
      </trkpt>
      <trkpt lat="42.06702" lon="2.69764">
        <ele>635</ele>
        <time>2010-01-01T03:09:49Z</time>
      </trkpt>
      <trkpt lat="42.06702" lon="2.69774">
        <ele>635</ele>
        <time>2010-01-01T03:09:52Z</time>
      </trkpt>
      <trkpt lat="42.06703" lon="2.69786">
        <ele>634</ele>
        <time>2010-01-01T03:09:55Z</time>
      </trkpt>
      <trkpt lat="42.06704" lon="2.69799">
        <ele>633</ele>
        <time>2010-01-01T03:09:59Z</time>
      </trkpt>
      <trkpt lat="42.06703" lon="2.69799">
        <ele>633</ele>
        <time>2010-01-01T03:09:59Z</time>
      </trkpt>
      <trkpt lat="42.06702" lon="2.69812">
        <ele>632</ele>
        <time>2010-01-01T03:10:03Z</time>
      </trkpt>
      <trkpt lat="42.067" lon="2.69825">
        <ele>630</ele>
        <time>2010-01-01T03:10:07Z</time>
      </trkpt>
      <trkpt lat="42.06699" lon="2.69836">
        <ele>629</ele>
        <time>2010-01-01T03:10:10Z</time>
      </trkpt>
      <trkpt lat="42.067" lon="2.69845">
        <ele>628</ele>
        <time>2010-01-01T03:10:13Z</time>
      </trkpt>
      <trkpt lat="42.067" lon="2.69846">
        <ele>628</ele>
        <time>2010-01-01T03:10:13Z</time>
      </trkpt>
      <trkpt lat="42.06702" lon="2.69855">
        <ele>627</ele>
        <time>2010-01-01T03:10:16Z</time>
      </trkpt>
      <trkpt lat="42.06709" lon="2.69873">
        <ele>626</ele>
        <time>2010-01-01T03:10:22Z</time>
      </trkpt>
      <trkpt lat="42.06716" lon="2.69887">
        <ele>625</ele>
        <time>2010-01-01T03:10:27Z</time>
      </trkpt>
      <trkpt lat="42.06722" lon="2.699">
        <ele>625</ele>
        <time>2010-01-01T03:10:32Z</time>
      </trkpt>
      <trkpt lat="42.06727" lon="2.69908">
        <ele>624</ele>
        <time>2010-01-01T03:10:35Z</time>
      </trkpt>
      <trkpt lat="42.06731" lon="2.69918">
        <ele>623</ele>
        <time>2010-01-01T03:10:38Z</time>
      </trkpt>
      <trkpt lat="42.06733" lon="2.69924">
        <ele>622</ele>
        <time>2010-01-01T03:10:40Z</time>
      </trkpt>
      <trkpt lat="42.06732" lon="2.69934">
        <ele>622</ele>
        <time>2010-01-01T03:10:43Z</time>
      </trkpt>
      <trkpt lat="42.06732" lon="2.69935">
        <ele>622</ele>
        <time>2010-01-01T03:10:43Z</time>
      </trkpt>
      <trkpt lat="42.06731" lon="2.69949">
        <ele>621</ele>
        <time>2010-01-01T03:10:48Z</time>
      </trkpt>
      <trkpt lat="42.06728" lon="2.6996">
        <ele>620</ele>
        <time>2010-01-01T03:10:51Z</time>
      </trkpt>
      <trkpt lat="42.06726" lon="2.69967">
        <ele>620</ele>
        <time>2010-01-01T03:10:53Z</time>
      </trkpt>
      <trkpt lat="42.06722" lon="2.69977">
        <ele>619</ele>
        <time>2010-01-01T03:10:56Z</time>
      </trkpt>
      <trkpt lat="42.06721" lon="2.69981">
        <ele>618</ele>
        <time>2010-01-01T03:10:58Z</time>
      </trkpt>
      <trkpt lat="42.0672" lon="2.69993">
        <ele>617</ele>
        <time>2010-01-01T03:11:01Z</time>
      </trkpt>
      <trkpt lat="42.06722" lon="2.70003">
        <ele>616</ele>
        <time>2010-01-01T03:11:04Z</time>
      </trkpt>
      <trkpt lat="42.06725" lon="2.70018">
        <ele>614</ele>
        <time>2010-01-01T03:11:09Z</time>
      </trkpt>
      <trkpt lat="42.06727" lon="2.70033">
        <ele>612</ele>
        <time>2010-01-01T03:11:14Z</time>
      </trkpt>
      <trkpt lat="42.06735" lon="2.70052">
        <ele>610</ele>
        <time>2010-01-01T03:11:20Z</time>
      </trkpt>
      <trkpt lat="42.06738" lon="2.70058">
        <ele>610</ele>
        <time>2010-01-01T03:11:22Z</time>
      </trkpt>
      <trkpt lat="42.0674" lon="2.70066">
        <ele>609</ele>
        <time>2010-01-01T03:11:25Z</time>
      </trkpt>
      <trkpt lat="42.06744" lon="2.70072">
        <ele>609</ele>
        <time>2010-01-01T03:11:27Z</time>
      </trkpt>
      <trkpt lat="42.06744" lon="2.70073">
        <ele>609</ele>
        <time>2010-01-01T03:11:27Z</time>
      </trkpt>
      <trkpt lat="42.06749" lon="2.70081">
        <ele>609</ele>
        <time>2010-01-01T03:11:30Z</time>
      </trkpt>
      <trkpt lat="42.06753" lon="2.70087">
        <ele>608</ele>
        <time>2010-01-01T03:11:33Z</time>
      </trkpt>
      <trkpt lat="42.06756" lon="2.70094">
        <ele>606</ele>
        <time>2010-01-01T03:11:35Z</time>
      </trkpt>
      <trkpt lat="42.06759" lon="2.70106">
        <ele>604</ele>
        <time>2010-01-01T03:11:39Z</time>
      </trkpt>
      <trkpt lat="42.06759" lon="2.70106">
        <ele>604</ele>
        <time>2010-01-01T03:11:39Z</time>
      </trkpt>
      <trkpt lat="42.0676" lon="2.70116">
        <ele>604</ele>
        <time>2010-01-01T03:11:42Z</time>
      </trkpt>
      <trkpt lat="42.06759" lon="2.70125">
        <ele>604</ele>
        <time>2010-01-01T03:11:45Z</time>
      </trkpt>
      <trkpt lat="42.06756" lon="2.70134">
        <ele>604</ele>
        <time>2010-01-01T03:11:48Z</time>
      </trkpt>
      <trkpt lat="42.06756" lon="2.70134">
        <ele>604</ele>
        <time>2010-01-01T03:11:48Z</time>
      </trkpt>
      <trkpt lat="42.06752" lon="2.70142">
        <ele>604</ele>
        <time>2010-01-01T03:11:51Z</time>
      </trkpt>
      <trkpt lat="42.06752" lon="2.70143">
        <ele>604</ele>
        <time>2010-01-01T03:11:51Z</time>
      </trkpt>
      <trkpt lat="42.06746" lon="2.70153">
        <ele>603</ele>
        <time>2010-01-01T03:11:55Z</time>
      </trkpt>
      <trkpt lat="42.0674" lon="2.70162">
        <ele>602</ele>
        <time>2010-01-01T03:11:58Z</time>
      </trkpt>
      <trkpt lat="42.06737" lon="2.70168">
        <ele>602</ele>
        <time>2010-01-01T03:12:00Z</time>
      </trkpt>
      <trkpt lat="42.06737" lon="2.70168">
        <ele>602</ele>
        <time>2010-01-01T03:12:01Z</time>
      </trkpt>
      <trkpt lat="42.06731" lon="2.70174">
        <ele>601</ele>
        <time>2010-01-01T03:12:03Z</time>
      </trkpt>
      <trkpt lat="42.06724" lon="2.70179">
        <ele>601</ele>
        <time>2010-01-01T03:12:07Z</time>
      </trkpt>
      <trkpt lat="42.06713" lon="2.70185">
        <ele>599</ele>
        <time>2010-01-01T03:12:11Z</time>
      </trkpt>
      <trkpt lat="42.06707" lon="2.7019">
        <ele>598</ele>
        <time>2010-01-01T03:12:14Z</time>
      </trkpt>
      <trkpt lat="42.06702" lon="2.70194">
        <ele>597</ele>
        <time>2010-01-01T03:12:17Z</time>
      </trkpt>
      <trkpt lat="42.06696" lon="2.70202">
        <ele>595</ele>
        <time>2010-01-01T03:12:20Z</time>
      </trkpt>
      <trkpt lat="42.06694" lon="2.70209">
        <ele>594</ele>
        <time>2010-01-01T03:12:22Z</time>
      </trkpt>
      <trkpt lat="42.06694" lon="2.70209">
        <ele>594</ele>
        <time>2010-01-01T03:12:22Z</time>
      </trkpt>
      <trkpt lat="42.06694" lon="2.70217">
        <ele>593</ele>
        <time>2010-01-01T03:12:24Z</time>
      </trkpt>
      <trkpt lat="42.06694" lon="2.70218">
        <ele>593</ele>
        <time>2010-01-01T03:12:25Z</time>
      </trkpt>
      <trkpt lat="42.06697" lon="2.70229">
        <ele>592</ele>
        <time>2010-01-01T03:12:28Z</time>
      </trkpt>
      <trkpt lat="42.06702" lon="2.70246">
        <ele>591</ele>
        <time>2010-01-01T03:12:34Z</time>
      </trkpt>
      <trkpt lat="42.06702" lon="2.70258">
        <ele>591</ele>
        <time>2010-01-01T03:12:37Z</time>
      </trkpt>
      <trkpt lat="42.067" lon="2.70267">
        <ele>590</ele>
        <time>2010-01-01T03:12:40Z</time>
      </trkpt>
      <trkpt lat="42.06695" lon="2.7028">
        <ele>588</ele>
        <time>2010-01-01T03:12:44Z</time>
      </trkpt>
      <trkpt lat="42.06691" lon="2.70296">
        <ele>587</ele>
        <time>2010-01-01T03:12:49Z</time>
      </trkpt>
      <trkpt lat="42.06684" lon="2.70302">
        <ele>585</ele>
        <time>2010-01-01T03:12:53Z</time>
      </trkpt>
      <trkpt lat="42.0668" lon="2.70309">
        <ele>584</ele>
        <time>2010-01-01T03:12:55Z</time>
      </trkpt>
      <trkpt lat="42.06676" lon="2.70317">
        <ele>583</ele>
        <time>2010-01-01T03:12:58Z</time>
      </trkpt>
      <trkpt lat="42.06673" lon="2.70327">
        <ele>583</ele>
        <time>2010-01-01T03:13:01Z</time>
      </trkpt>
      <trkpt lat="42.06673" lon="2.7034">
        <ele>585</ele>
        <time>2010-01-01T03:13:05Z</time>
      </trkpt>
      <trkpt lat="42.06673" lon="2.70349">
        <ele>586</ele>
        <time>2010-01-01T03:13:08Z</time>
      </trkpt>
      <trkpt lat="42.0667" lon="2.70357">
        <ele>585</ele>
        <time>2010-01-01T03:13:10Z</time>
      </trkpt>
      <trkpt lat="42.06667" lon="2.70362">
        <ele>585</ele>
        <time>2010-01-01T03:13:12Z</time>
      </trkpt>
      <trkpt lat="42.06662" lon="2.70366">
        <ele>583</ele>
        <time>2010-01-01T03:13:15Z</time>
      </trkpt>
      <trkpt lat="42.06657" lon="2.70371">
        <ele>581</ele>
        <time>2010-01-01T03:13:17Z</time>
      </trkpt>
      <trkpt lat="42.06651" lon="2.70376">
        <ele>579</ele>
        <time>2010-01-01T03:13:20Z</time>
      </trkpt>
      <trkpt lat="42.06651" lon="2.70376">
        <ele>579</ele>
        <time>2010-01-01T03:13:20Z</time>
      </trkpt>
      <trkpt lat="42.06646" lon="2.70382">
        <ele>577</ele>
        <time>2010-01-01T03:13:22Z</time>
      </trkpt>
      <trkpt lat="42.06639" lon="2.70391">
        <ele>575</ele>
        <time>2010-01-01T03:13:26Z</time>
      </trkpt>
      <trkpt lat="42.06637" lon="2.70406">
        <ele>573</ele>
        <time>2010-01-01T03:13:31Z</time>
      </trkpt>
      <trkpt lat="42.06638" lon="2.70417">
        <ele>573</ele>
        <time>2010-01-01T03:13:34Z</time>
      </trkpt>
      <trkpt lat="42.06639" lon="2.7043">
        <ele>571</ele>
        <time>2010-01-01T03:13:38Z</time>
      </trkpt>
      <trkpt lat="42.06643" lon="2.70449">
        <ele>570</ele>
        <time>2010-01-01T03:13:44Z</time>
      </trkpt>
      <trkpt lat="42.06652" lon="2.70477">
        <ele>568</ele>
        <time>2010-01-01T03:13:53Z</time>
      </trkpt>
      <trkpt lat="42.06655" lon="2.70486">
        <ele>568</ele>
        <time>2010-01-01T03:13:56Z</time>
      </trkpt>
      <trkpt lat="42.06659" lon="2.70493">
        <ele>568</ele>
        <time>2010-01-01T03:13:59Z</time>
      </trkpt>
      <trkpt lat="42.06662" lon="2.70499">
        <ele>569</ele>
        <time>2010-01-01T03:14:01Z</time>
      </trkpt>
      <trkpt lat="42.06669" lon="2.70504">
        <ele>570</ele>
        <time>2010-01-01T03:14:04Z</time>
      </trkpt>
      <trkpt lat="42.06675" lon="2.70512">
        <ele>570</ele>
        <time>2010-01-01T03:14:07Z</time>
      </trkpt>
      <trkpt lat="42.06683" lon="2.70518">
        <ele>572</ele>
        <time>2010-01-01T03:14:11Z</time>
      </trkpt>
      <trkpt lat="42.0669" lon="2.70523">
        <ele>573</ele>
        <time>2010-01-01T03:14:14Z</time>
      </trkpt>
      <trkpt lat="42.06696" lon="2.70529">
        <ele>573</ele>
        <time>2010-01-01T03:14:17Z</time>
      </trkpt>
      <trkpt lat="42.06701" lon="2.70537">
        <ele>572</ele>
        <time>2010-01-01T03:14:20Z</time>
      </trkpt>
      <trkpt lat="42.06706" lon="2.7055">
        <ele>567</ele>
        <time>2010-01-01T03:14:24Z</time>
      </trkpt>
      <trkpt lat="42.06711" lon="2.70566">
        <ele>564</ele>
        <time>2010-01-01T03:14:30Z</time>
      </trkpt>
      <trkpt lat="42.06715" lon="2.70577">
        <ele>562</ele>
        <time>2010-01-01T03:14:33Z</time>
      </trkpt>
      <trkpt lat="42.06719" lon="2.7059">
        <ele>560</ele>
        <time>2010-01-01T03:14:38Z</time>
      </trkpt>
      <trkpt lat="42.06724" lon="2.70603">
        <ele>560</ele>
        <time>2010-01-01T03:14:42Z</time>
      </trkpt>
      <trkpt lat="42.06732" lon="2.70619">
        <ele>561</ele>
        <time>2010-01-01T03:14:48Z</time>
      </trkpt>
      <trkpt lat="42.06742" lon="2.70643">
        <ele>562</ele>
        <time>2010-01-01T03:14:56Z</time>
      </trkpt>
      <trkpt lat="42.06747" lon="2.70657">
        <ele>562</ele>
        <time>2010-01-01T03:15:00Z</time>
      </trkpt>
      <trkpt lat="42.06754" lon="2.70684">
        <ele>560</ele>
        <time>2010-01-01T03:15:09Z</time>
      </trkpt>
      <trkpt lat="42.06761" lon="2.7071">
        <ele>560</ele>
        <time>2010-01-01T03:15:17Z</time>
      </trkpt>
      <trkpt lat="42.06765" lon="2.70729">
        <ele>559</ele>
        <time>2010-01-01T03:15:23Z</time>
      </trkpt>
      <trkpt lat="42.06768" lon="2.70744">
        <ele>557</ele>
        <time>2010-01-01T03:15:28Z</time>
      </trkpt>
      <trkpt lat="42.06768" lon="2.70746">
        <ele>557</ele>
        <time>2010-01-01T03:15:28Z</time>
      </trkpt>
      <trkpt lat="42.0677" lon="2.70756">
        <ele>555</ele>
        <time>2010-01-01T03:15:31Z</time>
      </trkpt>
      <trkpt lat="42.06769" lon="2.70769">
        <ele>552</ele>
        <time>2010-01-01T03:15:35Z</time>
      </trkpt>
      <trkpt lat="42.06769" lon="2.70783">
        <ele>549</ele>
        <time>2010-01-01T03:15:39Z</time>
      </trkpt>
      <trkpt lat="42.06773" lon="2.70796">
        <ele>548</ele>
        <time>2010-01-01T03:15:44Z</time>
      </trkpt>
      <trkpt lat="42.06779" lon="2.70806">
        <ele>549</ele>
        <time>2010-01-01T03:15:47Z</time>
      </trkpt>
      <trkpt lat="42.06785" lon="2.70816">
        <ele>547</ele>
        <time>2010-01-01T03:15:51Z</time>
      </trkpt>
      <trkpt lat="42.0679" lon="2.70826">
        <ele>545</ele>
        <time>2010-01-01T03:15:55Z</time>
      </trkpt>
      <trkpt lat="42.06792" lon="2.70838">
        <ele>543</ele>
        <time>2010-01-01T03:15:58Z</time>
      </trkpt>
      <trkpt lat="42.06791" lon="2.70854">
        <ele>539</ele>
        <time>2010-01-01T03:16:03Z</time>
      </trkpt>
      <trkpt lat="42.06789" lon="2.70864">
        <ele>538</ele>
        <time>2010-01-01T03:16:06Z</time>
      </trkpt>
      <trkpt lat="42.06788" lon="2.70864">
        <ele>538</ele>
        <time>2010-01-01T03:16:06Z</time>
      </trkpt>
      <trkpt lat="42.06784" lon="2.70882">
        <ele>536</ele>
        <time>2010-01-01T03:16:12Z</time>
      </trkpt>
      <trkpt lat="42.06779" lon="2.70896">
        <ele>535</ele>
        <time>2010-01-01T03:16:17Z</time>
      </trkpt>
      <trkpt lat="42.06774" lon="2.70907">
        <ele>533</ele>
        <time>2010-01-01T03:16:21Z</time>
      </trkpt>
      <trkpt lat="42.06768" lon="2.7092">
        <ele>531</ele>
        <time>2010-01-01T03:16:25Z</time>
      </trkpt>
      <trkpt lat="42.06766" lon="2.70938">
        <ele>531</ele>
        <time>2010-01-01T03:16:30Z</time>
      </trkpt>
      <trkpt lat="42.06762" lon="2.70946">
        <ele>531</ele>
        <time>2010-01-01T03:16:33Z</time>
      </trkpt>
      <trkpt lat="42.06759" lon="2.70953">
        <ele>530</ele>
        <time>2010-01-01T03:16:35Z</time>
      </trkpt>
      <trkpt lat="42.06755" lon="2.70961">
        <ele>530</ele>
        <time>2010-01-01T03:16:38Z</time>
      </trkpt>
      <trkpt lat="42.06752" lon="2.70966">
        <ele>530</ele>
        <time>2010-01-01T03:16:40Z</time>
      </trkpt>
      <trkpt lat="42.06752" lon="2.70967">
        <ele>530</ele>
        <time>2010-01-01T03:16:41Z</time>
      </trkpt>
      <trkpt lat="42.06748" lon="2.70971">
        <ele>530</ele>
        <time>2010-01-01T03:16:43Z</time>
      </trkpt>
      <trkpt lat="42.06739" lon="2.70974">
        <ele>528</ele>
        <time>2010-01-01T03:16:46Z</time>
      </trkpt>
      <trkpt lat="42.06731" lon="2.70979">
        <ele>527</ele>
        <time>2010-01-01T03:16:50Z</time>
      </trkpt>
      <trkpt lat="42.06723" lon="2.70994">
        <ele>528</ele>
        <time>2010-01-01T03:16:55Z</time>
      </trkpt>
      <trkpt lat="42.06719" lon="2.71002">
        <ele>527</ele>
        <time>2010-01-01T03:16:58Z</time>
      </trkpt>
      <trkpt lat="42.06713" lon="2.71011">
        <ele>526</ele>
        <time>2010-01-01T03:17:02Z</time>
      </trkpt>
      <trkpt lat="42.06706" lon="2.7102">
        <ele>525</ele>
        <time>2010-01-01T03:17:06Z</time>
      </trkpt>
      <trkpt lat="42.067" lon="2.71027">
        <ele>524</ele>
        <time>2010-01-01T03:17:09Z</time>
      </trkpt>
      <trkpt lat="42.06695" lon="2.71037">
        <ele>522</ele>
        <time>2010-01-01T03:17:12Z</time>
      </trkpt>
      <trkpt lat="42.06691" lon="2.71046">
        <ele>521</ele>
        <time>2010-01-01T03:17:15Z</time>
      </trkpt>
      <trkpt lat="42.0669" lon="2.71057">
        <ele>521</ele>
        <time>2010-01-01T03:17:19Z</time>
      </trkpt>
      <trkpt lat="42.06691" lon="2.7106">
        <ele>521</ele>
        <time>2010-01-01T03:17:20Z</time>
      </trkpt>
      <trkpt lat="42.06693" lon="2.71066">
        <ele>521</ele>
        <time>2010-01-01T03:17:22Z</time>
      </trkpt>
      <trkpt lat="42.06698" lon="2.7107">
        <ele>521</ele>
        <time>2010-01-01T03:17:24Z</time>
      </trkpt>
      <trkpt lat="42.06704" lon="2.71074">
        <ele>522</ele>
        <time>2010-01-01T03:17:27Z</time>
      </trkpt>
      <trkpt lat="42.06713" lon="2.71077">
        <ele>522</ele>
        <time>2010-01-01T03:17:30Z</time>
      </trkpt>
      <trkpt lat="42.06719" lon="2.71077">
        <ele>522</ele>
        <time>2010-01-01T03:17:33Z</time>
      </trkpt>
      <trkpt lat="42.06731" lon="2.71079">
        <ele>522</ele>
        <time>2010-01-01T03:17:38Z</time>
      </trkpt>
      <trkpt lat="42.06741" lon="2.71079">
        <ele>522</ele>
        <time>2010-01-01T03:17:41Z</time>
      </trkpt>
      <trkpt lat="42.0675" lon="2.71077">
        <ele>522</ele>
        <time>2010-01-01T03:17:45Z</time>
      </trkpt>
      <trkpt lat="42.0676" lon="2.71076">
        <ele>521</ele>
        <time>2010-01-01T03:17:49Z</time>
      </trkpt>
      <trkpt lat="42.06769" lon="2.71077">
        <ele>519</ele>
        <time>2010-01-01T03:17:53Z</time>
      </trkpt>
      <trkpt lat="42.06776" lon="2.71078">
        <ele>518</ele>
        <time>2010-01-01T03:17:56Z</time>
      </trkpt>
      <trkpt lat="42.06785" lon="2.7108">
        <ele>516</ele>
        <time>2010-01-01T03:17:59Z</time>
      </trkpt>
      <trkpt lat="42.06798" lon="2.7108">
        <ele>514</ele>
        <time>2010-01-01T03:18:04Z</time>
      </trkpt>
      <trkpt lat="42.06808" lon="2.71078">
        <ele>512</ele>
        <time>2010-01-01T03:18:08Z</time>
      </trkpt>
      <trkpt lat="42.06815" lon="2.71078">
        <ele>511</ele>
        <time>2010-01-01T03:18:11Z</time>
      </trkpt>
      <trkpt lat="42.06823" lon="2.71077">
        <ele>509</ele>
        <time>2010-01-01T03:18:14Z</time>
      </trkpt>
      <trkpt lat="42.0683" lon="2.71074">
        <ele>509</ele>
        <time>2010-01-01T03:18:17Z</time>
      </trkpt>
      <trkpt lat="42.06835" lon="2.7107">
        <ele>508</ele>
        <time>2010-01-01T03:18:20Z</time>
      </trkpt>
      <trkpt lat="42.0684" lon="2.71063">
        <ele>508</ele>
        <time>2010-01-01T03:18:23Z</time>
      </trkpt>
      <trkpt lat="42.06844" lon="2.71057">
        <ele>509</ele>
        <time>2010-01-01T03:18:25Z</time>
      </trkpt>
      <trkpt lat="42.0685" lon="2.71048">
        <ele>510</ele>
        <time>2010-01-01T03:18:28Z</time>
      </trkpt>
      <trkpt lat="42.06855" lon="2.71045">
        <ele>510</ele>
        <time>2010-01-01T03:18:31Z</time>
      </trkpt>
      <trkpt lat="42.06862" lon="2.71044">
        <ele>509</ele>
        <time>2010-01-01T03:18:34Z</time>
      </trkpt>
      <trkpt lat="42.06869" lon="2.71047">
        <ele>508</ele>
        <time>2010-01-01T03:18:37Z</time>
      </trkpt>
      <trkpt lat="42.06875" lon="2.71047">
        <ele>507</ele>
        <time>2010-01-01T03:18:39Z</time>
      </trkpt>
      <trkpt lat="42.06881" lon="2.71045">
        <ele>506</ele>
        <time>2010-01-01T03:18:41Z</time>
      </trkpt>
      <trkpt lat="42.06894" lon="2.71046">
        <ele>504</ele>
        <time>2010-01-01T03:18:47Z</time>
      </trkpt>
      <trkpt lat="42.06902" lon="2.71042">
        <ele>504</ele>
        <time>2010-01-01T03:18:50Z</time>
      </trkpt>
      <trkpt lat="42.06906" lon="2.71039">
        <ele>504</ele>
        <time>2010-01-01T03:18:52Z</time>
      </trkpt>
      <trkpt lat="42.06912" lon="2.71036">
        <ele>503</ele>
        <time>2010-01-01T03:18:54Z</time>
      </trkpt>
      <trkpt lat="42.06918" lon="2.71033">
        <ele>503</ele>
        <time>2010-01-01T03:18:57Z</time>
      </trkpt>
      <trkpt lat="42.06927" lon="2.71034">
        <ele>500</ele>
        <time>2010-01-01T03:19:01Z</time>
      </trkpt>
      <trkpt lat="42.06936" lon="2.71037">
        <ele>496</ele>
        <time>2010-01-01T03:19:04Z</time>
      </trkpt>
      <trkpt lat="42.06946" lon="2.71041">
        <ele>493</ele>
        <time>2010-01-01T03:19:09Z</time>
      </trkpt>
      <trkpt lat="42.06955" lon="2.71043">
        <ele>490</ele>
        <time>2010-01-01T03:19:12Z</time>
      </trkpt>
      <trkpt lat="42.06958" lon="2.71046">
        <ele>489</ele>
        <time>2010-01-01T03:19:14Z</time>
      </trkpt>
      <trkpt lat="42.06957" lon="2.71051">
        <ele>489</ele>
        <time>2010-01-01T03:19:15Z</time>
      </trkpt>
      <trkpt lat="42.06954" lon="2.71058">
        <ele>489</ele>
        <time>2010-01-01T03:19:18Z</time>
      </trkpt>
      <trkpt lat="42.06947" lon="2.71067">
        <ele>489</ele>
        <time>2010-01-01T03:19:21Z</time>
      </trkpt>
      <trkpt lat="42.06939" lon="2.71074">
        <ele>490</ele>
        <time>2010-01-01T03:19:25Z</time>
      </trkpt>
      <trkpt lat="42.06932" lon="2.7108">
        <ele>489</ele>
        <time>2010-01-01T03:19:29Z</time>
      </trkpt>
      <trkpt lat="42.06923" lon="2.71085">
        <ele>489</ele>
        <time>2010-01-01T03:19:32Z</time>
      </trkpt>
      <trkpt lat="42.06918" lon="2.71089">
        <ele>489</ele>
        <time>2010-01-01T03:19:35Z</time>
      </trkpt>
      <trkpt lat="42.06911" lon="2.71095">
        <ele>489</ele>
        <time>2010-01-01T03:19:38Z</time>
      </trkpt>
      <trkpt lat="42.06906" lon="2.711">
        <ele>489</ele>
        <time>2010-01-01T03:19:41Z</time>
      </trkpt>
      <trkpt lat="42.06902" lon="2.71106">
        <ele>488</ele>
        <time>2010-01-01T03:19:43Z</time>
      </trkpt>
      <trkpt lat="42.06899" lon="2.71115">
        <ele>487</ele>
        <time>2010-01-01T03:19:46Z</time>
      </trkpt>
      <trkpt lat="42.06896" lon="2.71127">
        <ele>484</ele>
        <time>2010-01-01T03:19:50Z</time>
      </trkpt>
      <trkpt lat="42.06895" lon="2.71128">
        <ele>484</ele>
        <time>2010-01-01T03:19:50Z</time>
      </trkpt>
      <trkpt lat="42.06892" lon="2.71135">
        <ele>483</ele>
        <time>2010-01-01T03:19:52Z</time>
      </trkpt>
      <trkpt lat="42.06886" lon="2.71138">
        <ele>484</ele>
        <time>2010-01-01T03:19:55Z</time>
      </trkpt>
      <trkpt lat="42.06874" lon="2.71144">
        <ele>485</ele>
        <time>2010-01-01T03:20:00Z</time>
      </trkpt>
      <trkpt lat="42.06864" lon="2.71155">
        <ele>484</ele>
        <time>2010-01-01T03:20:05Z</time>
      </trkpt>
      <trkpt lat="42.0686" lon="2.71162">
        <ele>483</ele>
        <time>2010-01-01T03:20:08Z</time>
      </trkpt>
      <trkpt lat="42.06855" lon="2.71171">
        <ele>481</ele>
        <time>2010-01-01T03:20:11Z</time>
      </trkpt>
      <trkpt lat="42.06851" lon="2.71179">
        <ele>480</ele>
        <time>2010-01-01T03:20:14Z</time>
      </trkpt>
      <trkpt lat="42.06851" lon="2.71179">
        <ele>480</ele>
        <time>2010-01-01T03:20:14Z</time>
      </trkpt>
      <trkpt lat="42.06841" lon="2.71191">
        <ele>478</ele>
        <time>2010-01-01T03:20:19Z</time>
      </trkpt>
      <trkpt lat="42.06835" lon="2.71192">
        <ele>478</ele>
        <time>2010-01-01T03:20:22Z</time>
      </trkpt>
      <trkpt lat="42.06829" lon="2.71197">
        <ele>476</ele>
        <time>2010-01-01T03:20:25Z</time>
      </trkpt>
      <trkpt lat="42.06827" lon="2.71198">
        <ele>475</ele>
        <time>2010-01-01T03:20:26Z</time>
      </trkpt>
      <trkpt lat="42.06831" lon="2.71204">
        <ele>474</ele>
        <time>2010-01-01T03:20:28Z</time>
      </trkpt>
      <trkpt lat="42.06833" lon="2.71207">
        <ele>473</ele>
        <time>2010-01-01T03:20:30Z</time>
      </trkpt>
      <trkpt lat="42.06839" lon="2.71211">
        <ele>471</ele>
        <time>2010-01-01T03:20:32Z</time>
      </trkpt>
      <trkpt lat="42.06847" lon="2.71214">
        <ele>469</ele>
        <time>2010-01-01T03:20:36Z</time>
      </trkpt>
      <trkpt lat="42.06856" lon="2.71211">
        <ele>470</ele>
        <time>2010-01-01T03:20:39Z</time>
      </trkpt>
      <trkpt lat="42.06871" lon="2.71213">
        <ele>467</ele>
        <time>2010-01-01T03:20:45Z</time>
      </trkpt>
      <trkpt lat="42.06879" lon="2.71206">
        <ele>467</ele>
        <time>2010-01-01T03:20:49Z</time>
      </trkpt>
      <trkpt lat="42.06887" lon="2.71203">
        <ele>466</ele>
        <time>2010-01-01T03:20:52Z</time>
      </trkpt>
      <trkpt lat="42.069" lon="2.71201">
        <ele>464</ele>
        <time>2010-01-01T03:20:58Z</time>
      </trkpt>
      <trkpt lat="42.0691" lon="2.71194">
        <ele>464</ele>
        <time>2010-01-01T03:21:02Z</time>
      </trkpt>
      <trkpt lat="42.06917" lon="2.7119">
        <ele>464</ele>
        <time>2010-01-01T03:21:05Z</time>
      </trkpt>
      <trkpt lat="42.0693" lon="2.71184">
        <ele>463</ele>
        <time>2010-01-01T03:21:11Z</time>
      </trkpt>
      <trkpt lat="42.06937" lon="2.71182">
        <ele>463</ele>
        <time>2010-01-01T03:21:13Z</time>
      </trkpt>
      <trkpt lat="42.06943" lon="2.71188">
        <ele>461</ele>
        <time>2010-01-01T03:21:16Z</time>
      </trkpt>
      <trkpt lat="42.06955" lon="2.71203">
        <ele>456</ele>
        <time>2010-01-01T03:21:23Z</time>
      </trkpt>
      <trkpt lat="42.06961" lon="2.71208">
        <ele>455</ele>
        <time>2010-01-01T03:21:26Z</time>
      </trkpt>
      <trkpt lat="42.06966" lon="2.71215">
        <ele>453</ele>
        <time>2010-01-01T03:21:29Z</time>
      </trkpt>
      <trkpt lat="42.06971" lon="2.71222">
        <ele>452</ele>
        <time>2010-01-01T03:21:32Z</time>
      </trkpt>
      <trkpt lat="42.0698" lon="2.71229">
        <ele>450</ele>
        <time>2010-01-01T03:21:36Z</time>
      </trkpt>
      <trkpt lat="42.06989" lon="2.71235">
        <ele>449</ele>
        <time>2010-01-01T03:21:40Z</time>
      </trkpt>
      <trkpt lat="42.07" lon="2.71242">
        <ele>447</ele>
        <time>2010-01-01T03:21:45Z</time>
      </trkpt>
      <trkpt lat="42.07008" lon="2.71242">
        <ele>446</ele>
        <time>2010-01-01T03:21:48Z</time>
      </trkpt>
      <trkpt lat="42.07018" lon="2.71239">
        <ele>446</ele>
        <time>2010-01-01T03:21:52Z</time>
      </trkpt>
      <trkpt lat="42.07028" lon="2.71236">
        <ele>446</ele>
        <time>2010-01-01T03:21:56Z</time>
      </trkpt>
      <trkpt lat="42.07034" lon="2.71234">
        <ele>445</ele>
        <time>2010-01-01T03:21:59Z</time>
      </trkpt>
      <trkpt lat="42.07045" lon="2.71234">
        <ele>444</ele>
        <time>2010-01-01T03:22:03Z</time>
      </trkpt>
      <trkpt lat="42.07058" lon="2.71237">
        <ele>442</ele>
        <time>2010-01-01T03:22:08Z</time>
      </trkpt>
      <trkpt lat="42.0707" lon="2.7124">
        <ele>440</ele>
        <time>2010-01-01T03:22:13Z</time>
      </trkpt>
      <trkpt lat="42.07079" lon="2.71241">
        <ele>439</ele>
        <time>2010-01-01T03:22:17Z</time>
      </trkpt>
      <trkpt lat="42.07085" lon="2.71242">
        <ele>439</ele>
        <time>2010-01-01T03:22:19Z</time>
      </trkpt>
      <trkpt lat="42.07091" lon="2.71247">
        <ele>437</ele>
        <time>2010-01-01T03:22:22Z</time>
      </trkpt>
      <trkpt lat="42.07095" lon="2.71256">
        <ele>436</ele>
        <time>2010-01-01T03:22:25Z</time>
      </trkpt>
      <trkpt lat="42.071" lon="2.7127">
        <ele>433</ele>
        <time>2010-01-01T03:22:30Z</time>
      </trkpt>
      <trkpt lat="42.07103" lon="2.71285">
        <ele>431</ele>
        <time>2010-01-01T03:22:34Z</time>
      </trkpt>
      <trkpt lat="42.07109" lon="2.71298">
        <ele>430</ele>
        <time>2010-01-01T03:22:39Z</time>
      </trkpt>
      <trkpt lat="42.07113" lon="2.7131">
        <ele>429</ele>
        <time>2010-01-01T03:22:43Z</time>
      </trkpt>
      <trkpt lat="42.07116" lon="2.71316">
        <ele>429</ele>
        <time>2010-01-01T03:22:45Z</time>
      </trkpt>
      <trkpt lat="42.07121" lon="2.71318">
        <ele>430</ele>
        <time>2010-01-01T03:22:47Z</time>
      </trkpt>
      <trkpt lat="42.07125" lon="2.71312">
        <ele>430</ele>
        <time>2010-01-01T03:22:49Z</time>
      </trkpt>
      <trkpt lat="42.07133" lon="2.71298">
        <ele>431</ele>
        <time>2010-01-01T03:22:55Z</time>
      </trkpt>
      <trkpt lat="42.07137" lon="2.71285">
        <ele>431</ele>
        <time>2010-01-01T03:22:59Z</time>
      </trkpt>
      <trkpt lat="42.0714" lon="2.71274">
        <ele>432</ele>
        <time>2010-01-01T03:23:02Z</time>
      </trkpt>
      <trkpt lat="42.07145" lon="2.71264">
        <ele>432</ele>
        <time>2010-01-01T03:23:06Z</time>
      </trkpt>
      <trkpt lat="42.07152" lon="2.71256">
        <ele>432</ele>
        <time>2010-01-01T03:23:09Z</time>
      </trkpt>
      <trkpt lat="42.0716" lon="2.71253">
        <ele>430</ele>
        <time>2010-01-01T03:23:13Z</time>
      </trkpt>
      <trkpt lat="42.07166" lon="2.71251">
        <ele>430</ele>
        <time>2010-01-01T03:23:15Z</time>
      </trkpt>
      <trkpt lat="42.07173" lon="2.71249">
        <ele>429</ele>
        <time>2010-01-01T03:23:18Z</time>
      </trkpt>
      <trkpt lat="42.07173" lon="2.71248">
        <ele>429</ele>
        <time>2010-01-01T03:23:18Z</time>
      </trkpt>
      <trkpt lat="42.07183" lon="2.71244">
        <ele>428</ele>
        <time>2010-01-01T03:23:23Z</time>
      </trkpt>
      <trkpt lat="42.0719" lon="2.71243">
        <ele>428</ele>
        <time>2010-01-01T03:23:25Z</time>
      </trkpt>
      <trkpt lat="42.0719" lon="2.71243">
        <ele>428</ele>
        <time>2010-01-01T03:23:25Z</time>
      </trkpt>
      <trkpt lat="42.07198" lon="2.7124">
        <ele>427</ele>
        <time>2010-01-01T03:23:29Z</time>
      </trkpt>
      <trkpt lat="42.07202" lon="2.71234">
        <ele>427</ele>
        <time>2010-01-01T03:23:31Z</time>
      </trkpt>
      <trkpt lat="42.07202" lon="2.71228">
        <ele>427</ele>
        <time>2010-01-01T03:23:33Z</time>
      </trkpt>
      <trkpt lat="42.07201" lon="2.7122">
        <ele>427</ele>
        <time>2010-01-01T03:23:35Z</time>
      </trkpt>
      <trkpt lat="42.07199" lon="2.71214">
        <ele>428</ele>
        <time>2010-01-01T03:23:37Z</time>
      </trkpt>
      <trkpt lat="42.07195" lon="2.71205">
        <ele>429</ele>
        <time>2010-01-01T03:23:40Z</time>
      </trkpt>
      <trkpt lat="42.07191" lon="2.71195">
        <ele>430</ele>
        <time>2010-01-01T03:23:44Z</time>
      </trkpt>
      <trkpt lat="42.07191" lon="2.71187">
        <ele>430</ele>
        <time>2010-01-01T03:23:46Z</time>
      </trkpt>
      <trkpt lat="42.07191" lon="2.71187">
        <ele>430</ele>
        <time>2010-01-01T03:23:46Z</time>
      </trkpt>
      <trkpt lat="42.07193" lon="2.71184">
        <ele>430</ele>
        <time>2010-01-01T03:23:47Z</time>
      </trkpt>
      <trkpt lat="42.072" lon="2.71176">
        <ele>429</ele>
        <time>2010-01-01T03:23:51Z</time>
      </trkpt>
      <trkpt lat="42.07208" lon="2.71173">
        <ele>428</ele>
        <time>2010-01-01T03:23:54Z</time>
      </trkpt>
      <trkpt lat="42.07213" lon="2.7117">
        <ele>427</ele>
        <time>2010-01-01T03:23:56Z</time>
      </trkpt>
      <trkpt lat="42.07223" lon="2.71155">
        <ele>426</ele>
        <time>2010-01-01T03:24:02Z</time>
      </trkpt>
      <trkpt lat="42.07232" lon="2.71147">
        <ele>425</ele>
        <time>2010-01-01T03:24:07Z</time>
      </trkpt>
      <trkpt lat="42.07241" lon="2.71135">
        <ele>424</ele>
        <time>2010-01-01T03:24:12Z</time>
      </trkpt>
      <trkpt lat="42.07249" lon="2.71126">
        <ele>424</ele>
        <time>2010-01-01T03:24:16Z</time>
      </trkpt>
      <trkpt lat="42.07258" lon="2.71118">
        <ele>424</ele>
        <time>2010-01-01T03:24:20Z</time>
      </trkpt>
      <trkpt lat="42.07264" lon="2.71109">
        <ele>424</ele>
        <time>2010-01-01T03:24:24Z</time>
      </trkpt>
      <trkpt lat="42.07265" lon="2.71109">
        <ele>424</ele>
        <time>2010-01-01T03:24:24Z</time>
      </trkpt>
      <trkpt lat="42.07273" lon="2.711">
        <ele>423</ele>
        <time>2010-01-01T03:24:28Z</time>
      </trkpt>
      <trkpt lat="42.07278" lon="2.71093">
        <ele>423</ele>
        <time>2010-01-01T03:24:31Z</time>
      </trkpt>
      <trkpt lat="42.07284" lon="2.71083">
        <ele>423</ele>
        <time>2010-01-01T03:24:35Z</time>
      </trkpt>
      <trkpt lat="42.07289" lon="2.71075">
        <ele>423</ele>
        <time>2010-01-01T03:24:38Z</time>
      </trkpt>
      <trkpt lat="42.07291" lon="2.71069">
        <ele>423</ele>
        <time>2010-01-01T03:24:40Z</time>
      </trkpt>
      <trkpt lat="42.07291" lon="2.71058">
        <ele>423</ele>
        <time>2010-01-01T03:24:44Z</time>
      </trkpt>
      <trkpt lat="42.07289" lon="2.71049">
        <ele>424</ele>
        <time>2010-01-01T03:24:46Z</time>
      </trkpt>
      <trkpt lat="42.07288" lon="2.71036">
        <ele>425</ele>
        <time>2010-01-01T03:24:50Z</time>
      </trkpt>
      <trkpt lat="42.07286" lon="2.71028">
        <ele>425</ele>
        <time>2010-01-01T03:24:53Z</time>
      </trkpt>
      <trkpt lat="42.07283" lon="2.71021">
        <ele>425</ele>
        <time>2010-01-01T03:24:55Z</time>
      </trkpt>
      <trkpt lat="42.07283" lon="2.71015">
        <ele>426</ele>
        <time>2010-01-01T03:24:57Z</time>
      </trkpt>
      <trkpt lat="42.07284" lon="2.71009">
        <ele>426</ele>
        <time>2010-01-01T03:24:58Z</time>
      </trkpt>
      <trkpt lat="42.07291" lon="2.71008">
        <ele>425</ele>
        <time>2010-01-01T03:25:01Z</time>
      </trkpt>
      <trkpt lat="42.07296" lon="2.71004">
        <ele>425</ele>
        <time>2010-01-01T03:25:04Z</time>
      </trkpt>
      <trkpt lat="42.073" lon="2.71001">
        <ele>425</ele>
        <time>2010-01-01T03:25:05Z</time>
      </trkpt>
      <trkpt lat="42.07307" lon="2.71">
        <ele>424</ele>
        <time>2010-01-01T03:25:08Z</time>
      </trkpt>
      <trkpt lat="42.07313" lon="2.70998">
        <ele>424</ele>
        <time>2010-01-01T03:25:11Z</time>
      </trkpt>
      <trkpt lat="42.07313" lon="2.70997">
        <ele>424</ele>
        <time>2010-01-01T03:25:11Z</time>
      </trkpt>
      <trkpt lat="42.07317" lon="2.70997">
        <ele>423</ele>
        <time>2010-01-01T03:25:12Z</time>
      </trkpt>
      <trkpt lat="42.07317" lon="2.70997">
        <ele>423</ele>
        <time>2010-01-01T03:25:12Z</time>
      </trkpt>
      <trkpt lat="42.07322" lon="2.70998">
        <ele>423</ele>
        <time>2010-01-01T03:25:14Z</time>
      </trkpt>
      <trkpt lat="42.07331" lon="2.71003">
        <ele>422</ele>
        <time>2010-01-01T03:25:18Z</time>
      </trkpt>
      <trkpt lat="42.07339" lon="2.71007">
        <ele>421</ele>
        <time>2010-01-01T03:25:22Z</time>
      </trkpt>
      <trkpt lat="42.0735" lon="2.71013">
        <ele>420</ele>
        <time>2010-01-01T03:25:27Z</time>
      </trkpt>
      <trkpt lat="42.07359" lon="2.71016">
        <ele>419</ele>
        <time>2010-01-01T03:25:30Z</time>
      </trkpt>
      <trkpt lat="42.07364" lon="2.71016">
        <ele>419</ele>
        <time>2010-01-01T03:25:32Z</time>
      </trkpt>
      <trkpt lat="42.0737" lon="2.71015">
        <ele>418</ele>
        <time>2010-01-01T03:25:35Z</time>
      </trkpt>
      <trkpt lat="42.07376" lon="2.71013">
        <ele>417</ele>
        <time>2010-01-01T03:25:37Z</time>
      </trkpt>
      <trkpt lat="42.07377" lon="2.71007">
        <ele>417</ele>
        <time>2010-01-01T03:25:39Z</time>
      </trkpt>
      <trkpt lat="42.07376" lon="2.70999">
        <ele>416</ele>
        <time>2010-01-01T03:25:41Z</time>
      </trkpt>
      <trkpt lat="42.07372" lon="2.70991">
        <ele>416</ele>
        <time>2010-01-01T03:25:44Z</time>
      </trkpt>
      <trkpt lat="42.07364" lon="2.70988">
        <ele>416</ele>
        <time>2010-01-01T03:25:48Z</time>
      </trkpt>
      <trkpt lat="42.07357" lon="2.70983">
        <ele>417</ele>
        <time>2010-01-01T03:25:51Z</time>
      </trkpt>
      <trkpt lat="42.0735" lon="2.70981">
        <ele>417</ele>
        <time>2010-01-01T03:25:54Z</time>
      </trkpt>
      <trkpt lat="42.07342" lon="2.70979">
        <ele>418</ele>
        <time>2010-01-01T03:25:57Z</time>
      </trkpt>
      <trkpt lat="42.07336" lon="2.70977">
        <ele>419</ele>
        <time>2010-01-01T03:25:59Z</time>
      </trkpt>
      <trkpt lat="42.0733" lon="2.70975">
        <ele>420</ele>
        <time>2010-01-01T03:26:02Z</time>
      </trkpt>
      <trkpt lat="42.07325" lon="2.70971">
        <ele>420</ele>
        <time>2010-01-01T03:26:04Z</time>
      </trkpt>
      <trkpt lat="42.07323" lon="2.70965">
        <ele>421</ele>
        <time>2010-01-01T03:26:06Z</time>
      </trkpt>
      <trkpt lat="42.07323" lon="2.70956">
        <ele>420</ele>
        <time>2010-01-01T03:26:09Z</time>
      </trkpt>
      <trkpt lat="42.07328" lon="2.70948">
        <ele>419</ele>
        <time>2010-01-01T03:26:12Z</time>
      </trkpt>
      <trkpt lat="42.07335" lon="2.70949">
        <ele>418</ele>
        <time>2010-01-01T03:26:15Z</time>
      </trkpt>
      <trkpt lat="42.07344" lon="2.70952">
        <ele>417</ele>
        <time>2010-01-01T03:26:19Z</time>
      </trkpt>
      <trkpt lat="42.07358" lon="2.70952">
        <ele>415</ele>
        <time>2010-01-01T03:26:24Z</time>
      </trkpt>
      <trkpt lat="42.07364" lon="2.70953">
        <ele>414</ele>
        <time>2010-01-01T03:26:27Z</time>
      </trkpt>
      <trkpt lat="42.07373" lon="2.70953">
        <ele>413</ele>
        <time>2010-01-01T03:26:30Z</time>
      </trkpt>
      <trkpt lat="42.07379" lon="2.70953">
        <ele>412</ele>
        <time>2010-01-01T03:26:33Z</time>
      </trkpt>
      <trkpt lat="42.07387" lon="2.70951">
        <ele>411</ele>
        <time>2010-01-01T03:26:36Z</time>
      </trkpt>
      <trkpt lat="42.0739" lon="2.70948">
        <ele>411</ele>
        <time>2010-01-01T03:26:37Z</time>
      </trkpt>
      <trkpt lat="42.07395" lon="2.70935">
        <ele>410</ele>
        <time>2010-01-01T03:26:42Z</time>
      </trkpt>
      <trkpt lat="42.07397" lon="2.70929">
        <ele>410</ele>
        <time>2010-01-01T03:26:44Z</time>
      </trkpt>
      <trkpt lat="42.07401" lon="2.70924">
        <ele>410</ele>
        <time>2010-01-01T03:26:46Z</time>
      </trkpt>
      <trkpt lat="42.07407" lon="2.70914">
        <ele>409</ele>
        <time>2010-01-01T03:26:50Z</time>
      </trkpt>
      <trkpt lat="42.07415" lon="2.7091">
        <ele>408</ele>
        <time>2010-01-01T03:26:53Z</time>
      </trkpt>
      <trkpt lat="42.07424" lon="2.70908">
        <ele>408</ele>
        <time>2010-01-01T03:26:57Z</time>
      </trkpt>
      <trkpt lat="42.07431" lon="2.70904">
        <ele>407</ele>
        <time>2010-01-01T03:27:00Z</time>
      </trkpt>
      <trkpt lat="42.07447" lon="2.70903">
        <ele>407</ele>
        <time>2010-01-01T03:27:06Z</time>
      </trkpt>
      <trkpt lat="42.07458" lon="2.70904">
        <ele>407</ele>
        <time>2010-01-01T03:27:11Z</time>
      </trkpt>
      <trkpt lat="42.07466" lon="2.70905">
        <ele>406</ele>
        <time>2010-01-01T03:27:14Z</time>
      </trkpt>
      <trkpt lat="42.07477" lon="2.70907">
        <ele>406</ele>
        <time>2010-01-01T03:27:18Z</time>
      </trkpt>
      <trkpt lat="42.07484" lon="2.70907">
        <ele>406</ele>
        <time>2010-01-01T03:27:21Z</time>
      </trkpt>
      <trkpt lat="42.07494" lon="2.70908">
        <ele>406</ele>
        <time>2010-01-01T03:27:25Z</time>
      </trkpt>
      <trkpt lat="42.07502" lon="2.70906">
        <ele>407</ele>
        <time>2010-01-01T03:27:28Z</time>
      </trkpt>
      <trkpt lat="42.07514" lon="2.70902">
        <ele>407</ele>
        <time>2010-01-01T03:27:33Z</time>
      </trkpt>
      <trkpt lat="42.07514" lon="2.70902">
        <ele>407</ele>
        <time>2010-01-01T03:27:33Z</time>
      </trkpt>
      <trkpt lat="42.07523" lon="2.70898">
        <ele>408</ele>
        <time>2010-01-01T03:27:37Z</time>
      </trkpt>
      <trkpt lat="42.07536" lon="2.70894">
        <ele>408</ele>
        <time>2010-01-01T03:27:42Z</time>
      </trkpt>
      <trkpt lat="42.07547" lon="2.70892">
        <ele>407</ele>
        <time>2010-01-01T03:27:47Z</time>
      </trkpt>
      <trkpt lat="42.07555" lon="2.70892">
        <ele>407</ele>
        <time>2010-01-01T03:27:50Z</time>
      </trkpt>
      <trkpt lat="42.07575" lon="2.70882">
        <ele>406</ele>
        <time>2010-01-01T03:27:59Z</time>
      </trkpt>
      <trkpt lat="42.07582" lon="2.70879">
        <ele>406</ele>
        <time>2010-01-01T03:28:02Z</time>
      </trkpt>
      <trkpt lat="42.07593" lon="2.70873">
        <ele>406</ele>
        <time>2010-01-01T03:28:06Z</time>
      </trkpt>
      <trkpt lat="42.07599" lon="2.70868">
        <ele>406</ele>
        <time>2010-01-01T03:28:09Z</time>
      </trkpt>
      <trkpt lat="42.07609" lon="2.70858">
        <ele>407</ele>
        <time>2010-01-01T03:28:14Z</time>
      </trkpt>
      <trkpt lat="42.07617" lon="2.70844">
        <ele>407</ele>
        <time>2010-01-01T03:28:19Z</time>
      </trkpt>
      <trkpt lat="42.07622" lon="2.70839">
        <ele>407</ele>
        <time>2010-01-01T03:28:22Z</time>
      </trkpt>
      <trkpt lat="42.0763" lon="2.70834">
        <ele>407</ele>
        <time>2010-01-01T03:28:25Z</time>
      </trkpt>
      <trkpt lat="42.07638" lon="2.70827">
        <ele>407</ele>
        <time>2010-01-01T03:28:29Z</time>
      </trkpt>
      <trkpt lat="42.07647" lon="2.7082">
        <ele>408</ele>
        <time>2010-01-01T03:28:33Z</time>
      </trkpt>
      <trkpt lat="42.07654" lon="2.70813">
        <ele>408</ele>
        <time>2010-01-01T03:28:37Z</time>
      </trkpt>
      <trkpt lat="42.07662" lon="2.70805">
        <ele>409</ele>
        <time>2010-01-01T03:28:41Z</time>
      </trkpt>
      <trkpt lat="42.07676" lon="2.70794">
        <ele>408</ele>
        <time>2010-01-01T03:28:47Z</time>
      </trkpt>
      <trkpt lat="42.07682" lon="2.70787">
        <ele>407</ele>
        <time>2010-01-01T03:28:50Z</time>
      </trkpt>
      <trkpt lat="42.07689" lon="2.70781">
        <ele>406</ele>
        <time>2010-01-01T03:28:54Z</time>
      </trkpt>
      <trkpt lat="42.07694" lon="2.70777">
        <ele>405</ele>
        <time>2010-01-01T03:28:56Z</time>
      </trkpt>
      <trkpt lat="42.07698" lon="2.7077">
        <ele>404</ele>
        <time>2010-01-01T03:28:59Z</time>
      </trkpt>
      <trkpt lat="42.07699" lon="2.70762">
        <ele>405</ele>
        <time>2010-01-01T03:29:01Z</time>
      </trkpt>
      <trkpt lat="42.07704" lon="2.70753">
        <ele>404</ele>
        <time>2010-01-01T03:29:04Z</time>
      </trkpt>
      <trkpt lat="42.07714" lon="2.70741">
        <ele>404</ele>
        <time>2010-01-01T03:29:10Z</time>
      </trkpt>
      <trkpt lat="42.07717" lon="2.70735">
        <ele>404</ele>
        <time>2010-01-01T03:29:12Z</time>
      </trkpt>
      <trkpt lat="42.07723" lon="2.70724">
        <ele>404</ele>
        <time>2010-01-01T03:29:16Z</time>
      </trkpt>
      <trkpt lat="42.07729" lon="2.70716">
        <ele>404</ele>
        <time>2010-01-01T03:29:19Z</time>
      </trkpt>
      <trkpt lat="42.07737" lon="2.7071">
        <ele>403</ele>
        <time>2010-01-01T03:29:23Z</time>
      </trkpt>
      <trkpt lat="42.07744" lon="2.707">
        <ele>403</ele>
        <time>2010-01-01T03:29:27Z</time>
      </trkpt>
      <trkpt lat="42.07751" lon="2.70693">
        <ele>401</ele>
        <time>2010-01-01T03:29:31Z</time>
      </trkpt>
      <trkpt lat="42.07758" lon="2.70681">
        <ele>401</ele>
        <time>2010-01-01T03:29:35Z</time>
      </trkpt>
      <trkpt lat="42.07761" lon="2.70669">
        <ele>401</ele>
        <time>2010-01-01T03:29:39Z</time>
      </trkpt>
      <trkpt lat="42.07761" lon="2.70662">
        <ele>402</ele>
        <time>2010-01-01T03:29:41Z</time>
      </trkpt>
      <trkpt lat="42.0776" lon="2.70651">
        <ele>403</ele>
        <time>2010-01-01T03:29:44Z</time>
      </trkpt>
      <trkpt lat="42.07754" lon="2.70642">
        <ele>405</ele>
        <time>2010-01-01T03:29:48Z</time>
      </trkpt>
      <trkpt lat="42.07753" lon="2.70637">
        <ele>406</ele>
        <time>2010-01-01T03:29:50Z</time>
      </trkpt>
      <trkpt lat="42.07757" lon="2.70633">
        <ele>406</ele>
        <time>2010-01-01T03:29:52Z</time>
      </trkpt>
      <trkpt lat="42.07763" lon="2.7063">
        <ele>405</ele>
        <time>2010-01-01T03:29:54Z</time>
      </trkpt>
      <trkpt lat="42.07774" lon="2.70625">
        <ele>404</ele>
        <time>2010-01-01T03:29:59Z</time>
      </trkpt>
      <trkpt lat="42.0779" lon="2.7062">
        <ele>404</ele>
        <time>2010-01-01T03:30:05Z</time>
      </trkpt>
      <trkpt lat="42.078" lon="2.70618">
        <ele>403</ele>
        <time>2010-01-01T03:30:10Z</time>
      </trkpt>
      <trkpt lat="42.07805" lon="2.70618">
        <ele>403</ele>
        <time>2010-01-01T03:30:12Z</time>
      </trkpt>
      <trkpt lat="42.07818" lon="2.70619">
        <ele>403</ele>
        <time>2010-01-01T03:30:17Z</time>
      </trkpt>
      <trkpt lat="42.07824" lon="2.70622">
        <ele>403</ele>
        <time>2010-01-01T03:30:19Z</time>
      </trkpt>
      <trkpt lat="42.07831" lon="2.70623">
        <ele>402</ele>
        <time>2010-01-01T03:30:22Z</time>
      </trkpt>
      <trkpt lat="42.07839" lon="2.70624">
        <ele>402</ele>
        <time>2010-01-01T03:30:25Z</time>
      </trkpt>
      <trkpt lat="42.0784" lon="2.70624">
        <ele>402</ele>
        <time>2010-01-01T03:30:26Z</time>
      </trkpt>
      <trkpt lat="42.07848" lon="2.70623">
        <ele>402</ele>
        <time>2010-01-01T03:30:29Z</time>
      </trkpt>
      <trkpt lat="42.07855" lon="2.7062">
        <ele>402</ele>
        <time>2010-01-01T03:30:32Z</time>
      </trkpt>
      <trkpt lat="42.07864" lon="2.70618">
        <ele>402</ele>
        <time>2010-01-01T03:30:36Z</time>
      </trkpt>
      <trkpt lat="42.07871" lon="2.70614">
        <ele>402</ele>
        <time>2010-01-01T03:30:39Z</time>
      </trkpt>
      <trkpt lat="42.07882" lon="2.70611">
        <ele>401</ele>
        <time>2010-01-01T03:30:43Z</time>
      </trkpt>
      <trkpt lat="42.07899" lon="2.7061">
        <ele>399</ele>
        <time>2010-01-01T03:30:50Z</time>
      </trkpt>
      <trkpt lat="42.0791" lon="2.70612">
        <ele>397</ele>
        <time>2010-01-01T03:30:54Z</time>
      </trkpt>
      <trkpt lat="42.07916" lon="2.70614">
        <ele>396</ele>
        <time>2010-01-01T03:30:57Z</time>
      </trkpt>
      <trkpt lat="42.07927" lon="2.70623">
        <ele>396</ele>
        <time>2010-01-01T03:31:02Z</time>
      </trkpt>
      <trkpt lat="42.07932" lon="2.70631">
        <ele>395</ele>
        <time>2010-01-01T03:31:05Z</time>
      </trkpt>
      <trkpt lat="42.07937" lon="2.70639">
        <ele>395</ele>
        <time>2010-01-01T03:31:08Z</time>
      </trkpt>
      <trkpt lat="42.07941" lon="2.70647">
        <ele>395</ele>
        <time>2010-01-01T03:31:11Z</time>
      </trkpt>
      <trkpt lat="42.07945" lon="2.70658">
        <ele>396</ele>
        <time>2010-01-01T03:31:15Z</time>
      </trkpt>
      <trkpt lat="42.07949" lon="2.70668">
        <ele>396</ele>
        <time>2010-01-01T03:31:18Z</time>
      </trkpt>
      <trkpt lat="42.07954" lon="2.70682">
        <ele>396</ele>
        <time>2010-01-01T03:31:23Z</time>
      </trkpt>
      <trkpt lat="42.0796" lon="2.70693">
        <ele>396</ele>
        <time>2010-01-01T03:31:27Z</time>
      </trkpt>
      <trkpt lat="42.07964" lon="2.70702">
        <ele>396</ele>
        <time>2010-01-01T03:31:30Z</time>
      </trkpt>
      <trkpt lat="42.07968" lon="2.70714">
        <ele>395</ele>
        <time>2010-01-01T03:31:34Z</time>
      </trkpt>
      <trkpt lat="42.07975" lon="2.70724">
        <ele>395</ele>
        <time>2010-01-01T03:31:38Z</time>
      </trkpt>
      <trkpt lat="42.07979" lon="2.70729">
        <ele>395</ele>
        <time>2010-01-01T03:31:40Z</time>
      </trkpt>
      <trkpt lat="42.07982" lon="2.70732">
        <ele>395</ele>
        <time>2010-01-01T03:31:41Z</time>
      </trkpt>
      <trkpt lat="42.07986" lon="2.70738">
        <ele>395</ele>
        <time>2010-01-01T03:31:44Z</time>
      </trkpt>
      <trkpt lat="42.07988" lon="2.70743">
        <ele>395</ele>
        <time>2010-01-01T03:31:46Z</time>
      </trkpt>
      <trkpt lat="42.07988" lon="2.70743">
        <ele>395</ele>
        <time>2010-01-01T03:31:46Z</time>
      </trkpt>
      <trkpt lat="42.07988" lon="2.70755">
        <ele>396</ele>
        <time>2010-01-01T03:31:49Z</time>
      </trkpt>
      <trkpt lat="42.07987" lon="2.70766">
        <ele>396</ele>
        <time>2010-01-01T03:31:52Z</time>
      </trkpt>
      <trkpt lat="42.07987" lon="2.70787">
        <ele>396</ele>
        <time>2010-01-01T03:31:59Z</time>
      </trkpt>
      <trkpt lat="42.07987" lon="2.70762">
        <ele>396</ele>
        <time>2010-01-01T03:32:06Z</time>
      </trkpt>
      <trkpt lat="42.07992" lon="2.70759">
        <ele>396</ele>
        <time>2010-01-01T03:32:09Z</time>
      </trkpt>
      <trkpt lat="42.07988" lon="2.7075">
        <ele>396</ele>
        <time>2010-01-01T03:32:12Z</time>
      </trkpt>
      <trkpt lat="42.07987" lon="2.7074">
        <ele>395</ele>
        <time>2010-01-01T03:32:15Z</time>
      </trkpt>
      <trkpt lat="42.07984" lon="2.70729">
        <ele>395</ele>
        <time>2010-01-01T03:32:18Z</time>
      </trkpt>
      <trkpt lat="42.07981" lon="2.70722">
        <ele>395</ele>
        <time>2010-01-01T03:32:20Z</time>
      </trkpt>
      <trkpt lat="42.07975" lon="2.70717">
        <ele>395</ele>
        <time>2010-01-01T03:32:23Z</time>
      </trkpt>
      <trkpt lat="42.07964" lon="2.70706">
        <ele>395</ele>
        <time>2010-01-01T03:32:29Z</time>
      </trkpt>
      <trkpt lat="42.07958" lon="2.70693">
        <ele>395</ele>
        <time>2010-01-01T03:32:33Z</time>
      </trkpt>
      <trkpt lat="42.07951" lon="2.70672">
        <ele>396</ele>
        <time>2010-01-01T03:32:40Z</time>
      </trkpt>
      <trkpt lat="42.07942" lon="2.7065">
        <ele>395</ele>
        <time>2010-01-01T03:32:48Z</time>
      </trkpt>
      <trkpt lat="42.07939" lon="2.70642">
        <ele>395</ele>
        <time>2010-01-01T03:32:50Z</time>
      </trkpt>
      <trkpt lat="42.07933" lon="2.70635">
        <ele>395</ele>
        <time>2010-01-01T03:32:53Z</time>
      </trkpt>
      <trkpt lat="42.07928" lon="2.70629">
        <ele>395</ele>
        <time>2010-01-01T03:32:56Z</time>
      </trkpt>
      <trkpt lat="42.07925" lon="2.70624">
        <ele>396</ele>
        <time>2010-01-01T03:32:58Z</time>
      </trkpt>
      <trkpt lat="42.07923" lon="2.7062">
        <ele>396</ele>
        <time>2010-01-01T03:32:59Z</time>
      </trkpt>
      <trkpt lat="42.07922" lon="2.70617">
        <ele>396</ele>
        <time>2010-01-01T03:33:00Z</time>
      </trkpt>
      <trkpt lat="42.07925" lon="2.70616">
        <ele>396</ele>
        <time>2010-01-01T03:33:01Z</time>
      </trkpt>
      <trkpt lat="42.07929" lon="2.70614">
        <ele>396</ele>
        <time>2010-01-01T03:33:03Z</time>
      </trkpt>
      <trkpt lat="42.07935" lon="2.70613">
        <ele>396</ele>
        <time>2010-01-01T03:33:06Z</time>
      </trkpt>
      <trkpt lat="42.07941" lon="2.7061">
        <ele>396</ele>
        <time>2010-01-01T03:33:08Z</time>
      </trkpt>
      <trkpt lat="42.07948" lon="2.70606">
        <ele>395</ele>
        <time>2010-01-01T03:33:11Z</time>
      </trkpt>
      <trkpt lat="42.07953" lon="2.706">
        <ele>395</ele>
        <time>2010-01-01T03:33:14Z</time>
      </trkpt>
      <trkpt lat="42.07954" lon="2.70596">
        <ele>394</ele>
        <time>2010-01-01T03:33:15Z</time>
      </trkpt>
      <trkpt lat="42.07967" lon="2.70593">
        <ele>394</ele>
        <time>2010-01-01T03:33:20Z</time>
      </trkpt>
      <trkpt lat="42.07974" lon="2.70589">
        <ele>393</ele>
        <time>2010-01-01T03:33:24Z</time>
      </trkpt>
      <trkpt lat="42.07982" lon="2.70584">
        <ele>391</ele>
        <time>2010-01-01T03:33:27Z</time>
      </trkpt>
      <trkpt lat="42.0799" lon="2.7058">
        <ele>390</ele>
        <time>2010-01-01T03:33:31Z</time>
      </trkpt>
      <trkpt lat="42.07997" lon="2.70581">
        <ele>390</ele>
        <time>2010-01-01T03:33:33Z</time>
      </trkpt>
      <trkpt lat="42.08005" lon="2.70589">
        <ele>389</ele>
        <time>2010-01-01T03:33:37Z</time>
      </trkpt>
      <trkpt lat="42.08014" lon="2.70598">
        <ele>388</ele>
        <time>2010-01-01T03:33:42Z</time>
      </trkpt>
      <trkpt lat="42.08028" lon="2.7061">
        <ele>386</ele>
        <time>2010-01-01T03:33:48Z</time>
      </trkpt>
      <trkpt lat="42.08039" lon="2.70619">
        <ele>385</ele>
        <time>2010-01-01T03:33:54Z</time>
      </trkpt>
      <trkpt lat="42.08044" lon="2.70624">
        <ele>384</ele>
        <time>2010-01-01T03:33:56Z</time>
      </trkpt>
      <trkpt lat="42.08057" lon="2.70636">
        <ele>382</ele>
        <time>2010-01-01T03:34:03Z</time>
      </trkpt>
      <trkpt lat="42.08061" lon="2.70645">
        <ele>381</ele>
        <time>2010-01-01T03:34:06Z</time>
      </trkpt>
      <trkpt lat="42.08069" lon="2.70656">
        <ele>380</ele>
        <time>2010-01-01T03:34:10Z</time>
      </trkpt>
      <trkpt lat="42.08077" lon="2.70665">
        <ele>378</ele>
        <time>2010-01-01T03:34:14Z</time>
      </trkpt>
      <trkpt lat="42.0808" lon="2.70672">
        <ele>378</ele>
        <time>2010-01-01T03:34:17Z</time>
      </trkpt>
      <trkpt lat="42.08085" lon="2.70683">
        <ele>378</ele>
        <time>2010-01-01T03:34:21Z</time>
      </trkpt>
      <trkpt lat="42.08088" lon="2.70693">
        <ele>378</ele>
        <time>2010-01-01T03:34:24Z</time>
      </trkpt>
      <trkpt lat="42.0809" lon="2.70704">
        <ele>377</ele>
        <time>2010-01-01T03:34:27Z</time>
      </trkpt>
      <trkpt lat="42.08095" lon="2.70709">
        <ele>375</ele>
        <time>2010-01-01T03:34:30Z</time>
      </trkpt>
      <trkpt lat="42.08102" lon="2.70708">
        <ele>373</ele>
        <time>2010-01-01T03:34:33Z</time>
      </trkpt>
      <trkpt lat="42.08115" lon="2.70701">
        <ele>370</ele>
        <time>2010-01-01T03:34:38Z</time>
      </trkpt>
      <trkpt lat="42.08125" lon="2.70695">
        <ele>367</ele>
        <time>2010-01-01T03:34:43Z</time>
      </trkpt>
      <trkpt lat="42.08137" lon="2.70699">
        <ele>364</ele>
        <time>2010-01-01T03:34:48Z</time>
      </trkpt>
      <trkpt lat="42.08145" lon="2.70703">
        <ele>363</ele>
        <time>2010-01-01T03:34:51Z</time>
      </trkpt>
      <trkpt lat="42.08151" lon="2.70713">
        <ele>362</ele>
        <time>2010-01-01T03:34:55Z</time>
      </trkpt>
      <trkpt lat="42.08159" lon="2.70729">
        <ele>360</ele>
        <time>2010-01-01T03:35:00Z</time>
      </trkpt>
      <trkpt lat="42.08165" lon="2.70741">
        <ele>359</ele>
        <time>2010-01-01T03:35:05Z</time>
      </trkpt>
      <trkpt lat="42.0817" lon="2.70762">
        <ele>358</ele>
        <time>2010-01-01T03:35:11Z</time>
      </trkpt>
      <trkpt lat="42.0817" lon="2.70774">
        <ele>357</ele>
        <time>2010-01-01T03:35:15Z</time>
      </trkpt>
      <trkpt lat="42.08168" lon="2.70791">
        <ele>358</ele>
        <time>2010-01-01T03:35:20Z</time>
      </trkpt>
      <trkpt lat="42.08166" lon="2.70807">
        <ele>357</ele>
        <time>2010-01-01T03:35:25Z</time>
      </trkpt>
      <trkpt lat="42.08166" lon="2.70823">
        <ele>356</ele>
        <time>2010-01-01T03:35:30Z</time>
      </trkpt>
      <trkpt lat="42.08167" lon="2.70824">
        <ele>356</ele>
        <time>2010-01-01T03:35:30Z</time>
      </trkpt>
      <trkpt lat="42.08167" lon="2.70834">
        <ele>356</ele>
        <time>2010-01-01T03:35:33Z</time>
      </trkpt>
      <trkpt lat="42.08168" lon="2.70845">
        <ele>355</ele>
        <time>2010-01-01T03:35:36Z</time>
      </trkpt>
      <trkpt lat="42.08171" lon="2.7086">
        <ele>354</ele>
        <time>2010-01-01T03:35:41Z</time>
      </trkpt>
      <trkpt lat="42.08175" lon="2.70867">
        <ele>352</ele>
        <time>2010-01-01T03:35:43Z</time>
      </trkpt>
      <trkpt lat="42.0818" lon="2.70875">
        <ele>349</ele>
        <time>2010-01-01T03:35:47Z</time>
      </trkpt>
      <trkpt lat="42.08186" lon="2.70887">
        <ele>345</ele>
        <time>2010-01-01T03:35:51Z</time>
      </trkpt>
      <trkpt lat="42.08192" lon="2.70899">
        <ele>341</ele>
        <time>2010-01-01T03:35:55Z</time>
      </trkpt>
      <trkpt lat="42.08197" lon="2.70914">
        <ele>339</ele>
        <time>2010-01-01T03:36:00Z</time>
      </trkpt>
      <trkpt lat="42.082" lon="2.7093">
        <ele>337</ele>
        <time>2010-01-01T03:36:05Z</time>
      </trkpt>
      <trkpt lat="42.08204" lon="2.70951">
        <ele>336</ele>
        <time>2010-01-01T03:36:11Z</time>
      </trkpt>
      <trkpt lat="42.0821" lon="2.70967">
        <ele>335</ele>
        <time>2010-01-01T03:36:17Z</time>
      </trkpt>
      <trkpt lat="42.08224" lon="2.70975">
        <ele>331</ele>
        <time>2010-01-01T03:36:23Z</time>
      </trkpt>
      <trkpt lat="42.08236" lon="2.70982">
        <ele>331</ele>
        <time>2010-01-01T03:36:28Z</time>
      </trkpt>
      <trkpt lat="42.08253" lon="2.70998">
        <ele>331</ele>
        <time>2010-01-01T03:36:37Z</time>
      </trkpt>
      <trkpt lat="42.08261" lon="2.71012">
        <ele>334</ele>
        <time>2010-01-01T03:36:42Z</time>
      </trkpt>
      <trkpt lat="42.08266" lon="2.71021">
        <ele>336</ele>
        <time>2010-01-01T03:36:45Z</time>
      </trkpt>
      <trkpt lat="42.08271" lon="2.7103">
        <ele>337</ele>
        <time>2010-01-01T03:36:48Z</time>
      </trkpt>
      <trkpt lat="42.08276" lon="2.71041">
        <ele>337</ele>
        <time>2010-01-01T03:36:52Z</time>
      </trkpt>
      <trkpt lat="42.08276" lon="2.71041">
        <ele>337</ele>
        <time>2010-01-01T03:36:52Z</time>
      </trkpt>
      <trkpt lat="42.0828" lon="2.71052">
        <ele>338</ele>
        <time>2010-01-01T03:36:56Z</time>
      </trkpt>
      <trkpt lat="42.08281" lon="2.71053">
        <ele>338</ele>
        <time>2010-01-01T03:36:56Z</time>
      </trkpt>
      <trkpt lat="42.08287" lon="2.71071">
        <ele>338</ele>
        <time>2010-01-01T03:37:02Z</time>
      </trkpt>
      <trkpt lat="42.08294" lon="2.71082">
        <ele>338</ele>
        <time>2010-01-01T03:37:06Z</time>
      </trkpt>
      <trkpt lat="42.08301" lon="2.71089">
        <ele>339</ele>
        <time>2010-01-01T03:37:10Z</time>
      </trkpt>
      <trkpt lat="42.08312" lon="2.71097">
        <ele>340</ele>
        <time>2010-01-01T03:37:15Z</time>
      </trkpt>
      <trkpt lat="42.08323" lon="2.71107">
        <ele>341</ele>
        <time>2010-01-01T03:37:20Z</time>
      </trkpt>
      <trkpt lat="42.08334" lon="2.7111">
        <ele>344</ele>
        <time>2010-01-01T03:37:25Z</time>
      </trkpt>
      <trkpt lat="42.08342" lon="2.71114">
        <ele>345</ele>
        <time>2010-01-01T03:37:28Z</time>
      </trkpt>
      <trkpt lat="42.08352" lon="2.71115">
        <ele>347</ele>
        <time>2010-01-01T03:37:32Z</time>
      </trkpt>
      <trkpt lat="42.08361" lon="2.71115">
        <ele>350</ele>
        <time>2010-01-01T03:37:36Z</time>
      </trkpt>
      <trkpt lat="42.08369" lon="2.71116">
        <ele>351</ele>
        <time>2010-01-01T03:37:39Z</time>
      </trkpt>
      <trkpt lat="42.08377" lon="2.71119">
        <ele>352</ele>
        <time>2010-01-01T03:37:42Z</time>
      </trkpt>
      <trkpt lat="42.08378" lon="2.71119">
        <ele>352</ele>
        <time>2010-01-01T03:37:43Z</time>
      </trkpt>
      <trkpt lat="42.08386" lon="2.71123">
        <ele>353</ele>
        <time>2010-01-01T03:37:46Z</time>
      </trkpt>
      <trkpt lat="42.08396" lon="2.71131">
        <ele>353</ele>
        <time>2010-01-01T03:37:51Z</time>
      </trkpt>
      <trkpt lat="42.08405" lon="2.71133">
        <ele>354</ele>
        <time>2010-01-01T03:37:54Z</time>
      </trkpt>
      <trkpt lat="42.08422" lon="2.71138">
        <ele>356</ele>
        <time>2010-01-01T03:38:02Z</time>
      </trkpt>
      <trkpt lat="42.08436" lon="2.7114">
        <ele>357</ele>
        <time>2010-01-01T03:38:07Z</time>
      </trkpt>
      <trkpt lat="42.08445" lon="2.71144">
        <ele>358</ele>
        <time>2010-01-01T03:38:11Z</time>
      </trkpt>
      <trkpt lat="42.08457" lon="2.71145">
        <ele>358</ele>
        <time>2010-01-01T03:38:16Z</time>
      </trkpt>
      <trkpt lat="42.08469" lon="2.7115">
        <ele>358</ele>
        <time>2010-01-01T03:38:20Z</time>
      </trkpt>
      <trkpt lat="42.08479" lon="2.71145">
        <ele>360</ele>
        <time>2010-01-01T03:38:25Z</time>
      </trkpt>
      <trkpt lat="42.08489" lon="2.71141">
        <ele>361</ele>
        <time>2010-01-01T03:38:29Z</time>
      </trkpt>
      <trkpt lat="42.08497" lon="2.71137">
        <ele>363</ele>
        <time>2010-01-01T03:38:32Z</time>
      </trkpt>
      <trkpt lat="42.08506" lon="2.71132">
        <ele>366</ele>
        <time>2010-01-01T03:38:36Z</time>
      </trkpt>
      <trkpt lat="42.08519" lon="2.71122">
        <ele>371</ele>
        <time>2010-01-01T03:38:42Z</time>
      </trkpt>
      <trkpt lat="42.08527" lon="2.71117">
        <ele>373</ele>
        <time>2010-01-01T03:38:46Z</time>
      </trkpt>
      <trkpt lat="42.08534" lon="2.7111">
        <ele>375</ele>
        <time>2010-01-01T03:38:49Z</time>
      </trkpt>
      <trkpt lat="42.0854" lon="2.71107">
        <ele>376</ele>
        <time>2010-01-01T03:38:52Z</time>
      </trkpt>
      <trkpt lat="42.0855" lon="2.71101">
        <ele>378</ele>
        <time>2010-01-01T03:38:56Z</time>
      </trkpt>
      <trkpt lat="42.08558" lon="2.711">
        <ele>378</ele>
        <time>2010-01-01T03:39:00Z</time>
      </trkpt>
      <trkpt lat="42.08569" lon="2.711">
        <ele>378</ele>
        <time>2010-01-01T03:39:04Z</time>
      </trkpt>
      <trkpt lat="42.08579" lon="2.71101">
        <ele>378</ele>
        <time>2010-01-01T03:39:08Z</time>
      </trkpt>
      <trkpt lat="42.08586" lon="2.71103">
        <ele>378</ele>
        <time>2010-01-01T03:39:11Z</time>
      </trkpt>
      <trkpt lat="42.08592" lon="2.71106">
        <ele>378</ele>
        <time>2010-01-01T03:39:13Z</time>
      </trkpt>
      <trkpt lat="42.08596" lon="2.71117">
        <ele>379</ele>
        <time>2010-01-01T03:39:17Z</time>
      </trkpt>
      <trkpt lat="42.08593" lon="2.71128">
        <ele>379</ele>
        <time>2010-01-01T03:39:20Z</time>
      </trkpt>
      <trkpt lat="42.08588" lon="2.71137">
        <ele>378</ele>
        <time>2010-01-01T03:39:24Z</time>
      </trkpt>
      <trkpt lat="42.08582" lon="2.71154">
        <ele>377</ele>
        <time>2010-01-01T03:39:29Z</time>
      </trkpt>
      <trkpt lat="42.08578" lon="2.71166">
        <ele>377</ele>
        <time>2010-01-01T03:39:33Z</time>
      </trkpt>
      <trkpt lat="42.08574" lon="2.71177">
        <ele>375</ele>
        <time>2010-01-01T03:39:37Z</time>
      </trkpt>
      <trkpt lat="42.08573" lon="2.71189">
        <ele>375</ele>
        <time>2010-01-01T03:39:40Z</time>
      </trkpt>
      <trkpt lat="42.08572" lon="2.71198">
        <ele>375</ele>
        <time>2010-01-01T03:39:43Z</time>
      </trkpt>
      <trkpt lat="42.08576" lon="2.712">
        <ele>375</ele>
        <time>2010-01-01T03:39:45Z</time>
      </trkpt>
      <trkpt lat="42.08586" lon="2.71195">
        <ele>377</ele>
        <time>2010-01-01T03:39:49Z</time>
      </trkpt>
      <trkpt lat="42.0859" lon="2.71192">
        <ele>377</ele>
        <time>2010-01-01T03:39:51Z</time>
      </trkpt>
      <trkpt lat="42.08595" lon="2.71185">
        <ele>378</ele>
        <time>2010-01-01T03:39:54Z</time>
      </trkpt>
      <trkpt lat="42.08606" lon="2.7117">
        <ele>381</ele>
        <time>2010-01-01T03:40:00Z</time>
      </trkpt>
      <trkpt lat="42.08612" lon="2.71161">
        <ele>382</ele>
        <time>2010-01-01T03:40:04Z</time>
      </trkpt>
      <trkpt lat="42.08617" lon="2.71148">
        <ele>382</ele>
        <time>2010-01-01T03:40:08Z</time>
      </trkpt>
      <trkpt lat="42.08631" lon="2.71132">
        <ele>384</ele>
        <time>2010-01-01T03:40:16Z</time>
      </trkpt>
      <trkpt lat="42.0864" lon="2.71122">
        <ele>385</ele>
        <time>2010-01-01T03:40:20Z</time>
      </trkpt>
      <trkpt lat="42.08651" lon="2.71107">
        <ele>387</ele>
        <time>2010-01-01T03:40:26Z</time>
      </trkpt>
      <trkpt lat="42.08657" lon="2.71102">
        <ele>388</ele>
        <time>2010-01-01T03:40:29Z</time>
      </trkpt>
      <trkpt lat="42.08666" lon="2.71102">
        <ele>390</ele>
        <time>2010-01-01T03:40:33Z</time>
      </trkpt>
      <trkpt lat="42.08667" lon="2.71106">
        <ele>390</ele>
        <time>2010-01-01T03:40:34Z</time>
      </trkpt>
      <trkpt lat="42.08672" lon="2.71116">
        <ele>390</ele>
        <time>2010-01-01T03:40:37Z</time>
      </trkpt>
      <trkpt lat="42.08679" lon="2.71126">
        <ele>391</ele>
        <time>2010-01-01T03:40:41Z</time>
      </trkpt>
      <trkpt lat="42.08683" lon="2.71132">
        <ele>391</ele>
        <time>2010-01-01T03:40:44Z</time>
      </trkpt>
      <trkpt lat="42.0869" lon="2.71139">
        <ele>392</ele>
        <time>2010-01-01T03:40:47Z</time>
      </trkpt>
      <trkpt lat="42.08697" lon="2.71145">
        <ele>392</ele>
        <time>2010-01-01T03:40:51Z</time>
      </trkpt>
      <trkpt lat="42.08707" lon="2.71148">
        <ele>394</ele>
        <time>2010-01-01T03:40:55Z</time>
      </trkpt>
      <trkpt lat="42.08717" lon="2.71152">
        <ele>395</ele>
        <time>2010-01-01T03:40:59Z</time>
      </trkpt>
      <trkpt lat="42.08728" lon="2.71157">
        <ele>397</ele>
        <time>2010-01-01T03:41:04Z</time>
      </trkpt>
      <trkpt lat="42.08735" lon="2.7116">
        <ele>398</ele>
        <time>2010-01-01T03:41:07Z</time>
      </trkpt>
      <trkpt lat="42.0874" lon="2.71164">
        <ele>398</ele>
        <time>2010-01-01T03:41:09Z</time>
      </trkpt>
      <trkpt lat="42.08746" lon="2.7117">
        <ele>398</ele>
        <time>2010-01-01T03:41:12Z</time>
      </trkpt>
      <trkpt lat="42.08751" lon="2.71177">
        <ele>398</ele>
        <time>2010-01-01T03:41:15Z</time>
      </trkpt>
      <trkpt lat="42.08759" lon="2.71186">
        <ele>398</ele>
        <time>2010-01-01T03:41:19Z</time>
      </trkpt>
      <trkpt lat="42.08764" lon="2.71192">
        <ele>398</ele>
        <time>2010-01-01T03:41:22Z</time>
      </trkpt>
      <trkpt lat="42.08771" lon="2.71197">
        <ele>398</ele>
        <time>2010-01-01T03:41:25Z</time>
      </trkpt>
      <trkpt lat="42.08776" lon="2.71203">
        <ele>398</ele>
        <time>2010-01-01T03:41:28Z</time>
      </trkpt>
      <trkpt lat="42.08781" lon="2.71211">
        <ele>398</ele>
        <time>2010-01-01T03:41:31Z</time>
      </trkpt>
      <trkpt lat="42.08782" lon="2.71211">
        <ele>398</ele>
        <time>2010-01-01T03:41:31Z</time>
      </trkpt>
      <trkpt lat="42.08788" lon="2.7122">
        <ele>398</ele>
        <time>2010-01-01T03:41:34Z</time>
      </trkpt>
      <trkpt lat="42.08792" lon="2.71223">
        <ele>398</ele>
        <time>2010-01-01T03:41:37Z</time>
      </trkpt>
      <trkpt lat="42.08793" lon="2.71223">
        <ele>399</ele>
        <time>2010-01-01T03:41:37Z</time>
      </trkpt>
      <trkpt lat="42.08799" lon="2.71227">
        <ele>399</ele>
        <time>2010-01-01T03:41:39Z</time>
      </trkpt>
      <trkpt lat="42.08806" lon="2.71227">
        <ele>401</ele>
        <time>2010-01-01T03:41:42Z</time>
      </trkpt>
      <trkpt lat="42.08815" lon="2.71226">
        <ele>403</ele>
        <time>2010-01-01T03:41:46Z</time>
      </trkpt>
      <trkpt lat="42.0882" lon="2.71222">
        <ele>404</ele>
        <time>2010-01-01T03:41:48Z</time>
      </trkpt>
      <trkpt lat="42.08829" lon="2.71221">
        <ele>406</ele>
        <time>2010-01-01T03:41:52Z</time>
      </trkpt>
      <trkpt lat="42.08838" lon="2.71222">
        <ele>407</ele>
        <time>2010-01-01T03:41:55Z</time>
      </trkpt>
      <trkpt lat="42.08844" lon="2.7122">
        <ele>408</ele>
        <time>2010-01-01T03:41:58Z</time>
      </trkpt>
      <trkpt lat="42.08848" lon="2.71217">
        <ele>408</ele>
        <time>2010-01-01T03:41:59Z</time>
      </trkpt>
      <trkpt lat="42.08849" lon="2.71214">
        <ele>409</ele>
        <time>2010-01-01T03:42:01Z</time>
      </trkpt>
      <trkpt lat="42.08847" lon="2.71209">
        <ele>409</ele>
        <time>2010-01-01T03:42:03Z</time>
      </trkpt>
      <trkpt lat="42.08844" lon="2.71204">
        <ele>410</ele>
        <time>2010-01-01T03:42:04Z</time>
      </trkpt>
      <trkpt lat="42.08838" lon="2.71197">
        <ele>411</ele>
        <time>2010-01-01T03:42:07Z</time>
      </trkpt>
      <trkpt lat="42.08834" lon="2.71191">
        <ele>411</ele>
        <time>2010-01-01T03:42:10Z</time>
      </trkpt>
      <trkpt lat="42.08827" lon="2.7118">
        <ele>411</ele>
        <time>2010-01-01T03:42:14Z</time>
      </trkpt>
      <trkpt lat="42.08821" lon="2.71172">
        <ele>411</ele>
        <time>2010-01-01T03:42:18Z</time>
      </trkpt>
      <trkpt lat="42.08817" lon="2.71166">
        <ele>411</ele>
        <time>2010-01-01T03:42:20Z</time>
      </trkpt>
      <trkpt lat="42.08815" lon="2.71157">
        <ele>412</ele>
        <time>2010-01-01T03:42:23Z</time>
      </trkpt>
      <trkpt lat="42.08811" lon="2.71149">
        <ele>413</ele>
        <time>2010-01-01T03:42:26Z</time>
      </trkpt>
      <trkpt lat="42.08807" lon="2.71141">
        <ele>413</ele>
        <time>2010-01-01T03:42:28Z</time>
      </trkpt>
      <trkpt lat="42.08804" lon="2.71135">
        <ele>414</ele>
        <time>2010-01-01T03:42:31Z</time>
      </trkpt>
      <trkpt lat="42.08802" lon="2.71129">
        <ele>414</ele>
        <time>2010-01-01T03:42:33Z</time>
      </trkpt>
      <trkpt lat="42.088" lon="2.71122">
        <ele>415</ele>
        <time>2010-01-01T03:42:35Z</time>
      </trkpt>
      <trkpt lat="42.08803" lon="2.71116">
        <ele>416</ele>
        <time>2010-01-01T03:42:37Z</time>
      </trkpt>
      <trkpt lat="42.08805" lon="2.71112">
        <ele>417</ele>
        <time>2010-01-01T03:42:38Z</time>
      </trkpt>
      <trkpt lat="42.08809" lon="2.7111">
        <ele>419</ele>
        <time>2010-01-01T03:42:40Z</time>
      </trkpt>
      <trkpt lat="42.08815" lon="2.7111">
        <ele>421</ele>
        <time>2010-01-01T03:42:42Z</time>
      </trkpt>
      <trkpt lat="42.08815" lon="2.7111">
        <ele>421</ele>
        <time>2010-01-01T03:42:42Z</time>
      </trkpt>
      <trkpt lat="42.08822" lon="2.71116">
        <ele>422</ele>
        <time>2010-01-01T03:42:46Z</time>
      </trkpt>
      <trkpt lat="42.08828" lon="2.71121">
        <ele>423</ele>
        <time>2010-01-01T03:42:49Z</time>
      </trkpt>
      <trkpt lat="42.08829" lon="2.71121">
        <ele>423</ele>
        <time>2010-01-01T03:42:49Z</time>
      </trkpt>
      <trkpt lat="42.08837" lon="2.71124">
        <ele>424</ele>
        <time>2010-01-01T03:42:52Z</time>
      </trkpt>
      <trkpt lat="42.08845" lon="2.71128">
        <ele>425</ele>
        <time>2010-01-01T03:42:56Z</time>
      </trkpt>
      <trkpt lat="42.08854" lon="2.71128">
        <ele>427</ele>
        <time>2010-01-01T03:42:59Z</time>
      </trkpt>
      <trkpt lat="42.08854" lon="2.71128">
        <ele>427</ele>
        <time>2010-01-01T03:42:59Z</time>
      </trkpt>
      <trkpt lat="42.08862" lon="2.7113">
        <ele>429</ele>
        <time>2010-01-01T03:43:02Z</time>
      </trkpt>
      <trkpt lat="42.0887" lon="2.7113">
        <ele>430</ele>
        <time>2010-01-01T03:43:05Z</time>
      </trkpt>
      <trkpt lat="42.08878" lon="2.71134">
        <ele>430</ele>
        <time>2010-01-01T03:43:09Z</time>
      </trkpt>
      <trkpt lat="42.0889" lon="2.71134">
        <ele>432</ele>
        <time>2010-01-01T03:43:14Z</time>
      </trkpt>
      <trkpt lat="42.089" lon="2.71138">
        <ele>434</ele>
        <time>2010-01-01T03:43:18Z</time>
      </trkpt>
      <trkpt lat="42.08906" lon="2.7114">
        <ele>436</ele>
        <time>2010-01-01T03:43:21Z</time>
      </trkpt>
      <trkpt lat="42.08916" lon="2.71145">
        <ele>437</ele>
        <time>2010-01-01T03:43:25Z</time>
      </trkpt>
      <trkpt lat="42.08922" lon="2.71145">
        <ele>439</ele>
        <time>2010-01-01T03:43:27Z</time>
      </trkpt>
      <trkpt lat="42.08925" lon="2.71146">
        <ele>441</ele>
        <time>2010-01-01T03:43:28Z</time>
      </trkpt>
      <trkpt lat="42.08927" lon="2.71155">
        <ele>438</ele>
        <time>2010-01-01T03:43:31Z</time>
      </trkpt>
      <trkpt lat="42.08931" lon="2.71165">
        <ele>436</ele>
        <time>2010-01-01T03:43:35Z</time>
      </trkpt>
      <trkpt lat="42.08934" lon="2.71174">
        <ele>435</ele>
        <time>2010-01-01T03:43:38Z</time>
      </trkpt>
      <trkpt lat="42.08937" lon="2.71184">
        <ele>434</ele>
        <time>2010-01-01T03:43:41Z</time>
      </trkpt>
      <trkpt lat="42.08939" lon="2.71191">
        <ele>434</ele>
        <time>2010-01-01T03:43:43Z</time>
      </trkpt>
      <trkpt lat="42.08941" lon="2.71198">
        <ele>433</ele>
        <time>2010-01-01T03:43:45Z</time>
      </trkpt>
      <trkpt lat="42.08944" lon="2.71219">
        <ele>432</ele>
        <time>2010-01-01T03:43:51Z</time>
      </trkpt>
      <trkpt lat="42.08947" lon="2.71226">
        <ele>432</ele>
        <time>2010-01-01T03:43:54Z</time>
      </trkpt>
      <trkpt lat="42.08949" lon="2.71233">
        <ele>432</ele>
        <time>2010-01-01T03:43:56Z</time>
      </trkpt>
      <trkpt lat="42.08952" lon="2.71241">
        <ele>432</ele>
        <time>2010-01-01T03:43:59Z</time>
      </trkpt>
      <trkpt lat="42.08955" lon="2.71253">
        <ele>432</ele>
        <time>2010-01-01T03:44:02Z</time>
      </trkpt>
      <trkpt lat="42.0896" lon="2.7126">
        <ele>432</ele>
        <time>2010-01-01T03:44:05Z</time>
      </trkpt>
      <trkpt lat="42.08962" lon="2.71265">
        <ele>433</ele>
        <time>2010-01-01T03:44:07Z</time>
      </trkpt>
      <trkpt lat="42.08963" lon="2.71266">
        <ele>433</ele>
        <time>2010-01-01T03:44:07Z</time>
      </trkpt>
      <trkpt lat="42.08966" lon="2.71273">
        <ele>433</ele>
        <time>2010-01-01T03:44:10Z</time>
      </trkpt>
      <trkpt lat="42.08966" lon="2.71274">
        <ele>433</ele>
        <time>2010-01-01T03:44:10Z</time>
      </trkpt>
      <trkpt lat="42.08969" lon="2.71281">
        <ele>433</ele>
        <time>2010-01-01T03:44:12Z</time>
      </trkpt>
      <trkpt lat="42.08974" lon="2.71285">
        <ele>434</ele>
        <time>2010-01-01T03:44:15Z</time>
      </trkpt>
      <trkpt lat="42.0898" lon="2.71288">
        <ele>435</ele>
        <time>2010-01-01T03:44:17Z</time>
      </trkpt>
      <trkpt lat="42.08992" lon="2.71294">
        <ele>438</ele>
        <time>2010-01-01T03:44:22Z</time>
      </trkpt>
      <trkpt lat="42.08999" lon="2.71297">
        <ele>440</ele>
        <time>2010-01-01T03:44:25Z</time>
      </trkpt>
      <trkpt lat="42.09002" lon="2.71299">
        <ele>441</ele>
        <time>2010-01-01T03:44:27Z</time>
      </trkpt>
      <trkpt lat="42.09006" lon="2.71304">
        <ele>442</ele>
        <time>2010-01-01T03:44:29Z</time>
      </trkpt>
      <trkpt lat="42.09014" lon="2.71308">
        <ele>443</ele>
        <time>2010-01-01T03:44:32Z</time>
      </trkpt>
      <trkpt lat="42.0902" lon="2.71312">
        <ele>444</ele>
        <time>2010-01-01T03:44:35Z</time>
      </trkpt>
      <trkpt lat="42.09021" lon="2.71312">
        <ele>444</ele>
        <time>2010-01-01T03:44:35Z</time>
      </trkpt>
      <trkpt lat="42.09026" lon="2.71315">
        <ele>445</ele>
        <time>2010-01-01T03:44:38Z</time>
      </trkpt>
      <trkpt lat="42.09027" lon="2.71315">
        <ele>445</ele>
        <time>2010-01-01T03:44:38Z</time>
      </trkpt>
      <trkpt lat="42.09033" lon="2.71317">
        <ele>447</ele>
        <time>2010-01-01T03:44:40Z</time>
      </trkpt>
      <trkpt lat="42.09039" lon="2.71318">
        <ele>448</ele>
        <time>2010-01-01T03:44:43Z</time>
      </trkpt>
      <trkpt lat="42.09047" lon="2.71321">
        <ele>450</ele>
        <time>2010-01-01T03:44:46Z</time>
      </trkpt>
      <trkpt lat="42.09058" lon="2.71324">
        <ele>452</ele>
        <time>2010-01-01T03:44:51Z</time>
      </trkpt>
      <trkpt lat="42.09063" lon="2.71324">
        <ele>453</ele>
        <time>2010-01-01T03:44:53Z</time>
      </trkpt>
      <trkpt lat="42.0907" lon="2.71324">
        <ele>455</ele>
        <time>2010-01-01T03:44:55Z</time>
      </trkpt>
      <trkpt lat="42.09076" lon="2.71325">
        <ele>456</ele>
        <time>2010-01-01T03:44:58Z</time>
      </trkpt>
      <trkpt lat="42.09076" lon="2.71325">
        <ele>456</ele>
        <time>2010-01-01T03:44:58Z</time>
      </trkpt>
      <trkpt lat="42.09081" lon="2.71324">
        <ele>457</ele>
        <time>2010-01-01T03:45:00Z</time>
      </trkpt>
      <trkpt lat="42.09088" lon="2.71324">
        <ele>459</ele>
        <time>2010-01-01T03:45:03Z</time>
      </trkpt>
      <trkpt lat="42.09092" lon="2.71327">
        <ele>460</ele>
        <time>2010-01-01T03:45:04Z</time>
      </trkpt>
      <trkpt lat="42.09097" lon="2.71331">
        <ele>461</ele>
        <time>2010-01-01T03:45:07Z</time>
      </trkpt>
      <trkpt lat="42.091" lon="2.71336">
        <ele>461</ele>
        <time>2010-01-01T03:45:09Z</time>
      </trkpt>
      <trkpt lat="42.09104" lon="2.71343">
        <ele>461</ele>
        <time>2010-01-01T03:45:11Z</time>
      </trkpt>
      <trkpt lat="42.09108" lon="2.71347">
        <ele>462</ele>
        <time>2010-01-01T03:45:13Z</time>
      </trkpt>
      <trkpt lat="42.09117" lon="2.71352">
        <ele>464</ele>
        <time>2010-01-01T03:45:17Z</time>
      </trkpt>
      <trkpt lat="42.09123" lon="2.71353">
        <ele>467</ele>
        <time>2010-01-01T03:45:20Z</time>
      </trkpt>
      <trkpt lat="42.09133" lon="2.71359">
        <ele>470</ele>
        <time>2010-01-01T03:45:24Z</time>
      </trkpt>
      <trkpt lat="42.09133" lon="2.71359">
        <ele>470</ele>
        <time>2010-01-01T03:45:24Z</time>
      </trkpt>
      <trkpt lat="42.09139" lon="2.71364">
        <ele>471</ele>
        <time>2010-01-01T03:45:27Z</time>
      </trkpt>
      <trkpt lat="42.09141" lon="2.71371">
        <ele>471</ele>
        <time>2010-01-01T03:45:29Z</time>
      </trkpt>
      <trkpt lat="42.09141" lon="2.71372">
        <ele>471</ele>
        <time>2010-01-01T03:45:29Z</time>
      </trkpt>
      <trkpt lat="42.09141" lon="2.71384">
        <ele>470</ele>
        <time>2010-01-01T03:45:33Z</time>
      </trkpt>
      <trkpt lat="42.09136" lon="2.71398">
        <ele>468</ele>
        <time>2010-01-01T03:45:37Z</time>
      </trkpt>
      <trkpt lat="42.09131" lon="2.71416">
        <ele>467</ele>
        <time>2010-01-01T03:45:43Z</time>
      </trkpt>
      <trkpt lat="42.09129" lon="2.71429">
        <ele>468</ele>
        <time>2010-01-01T03:45:47Z</time>
      </trkpt>
      <trkpt lat="42.09125" lon="2.71439">
        <ele>469</ele>
        <time>2010-01-01T03:45:50Z</time>
      </trkpt>
      <trkpt lat="42.09121" lon="2.71452">
        <ele>470</ele>
        <time>2010-01-01T03:45:54Z</time>
      </trkpt>
      <trkpt lat="42.09116" lon="2.71458">
        <ele>470</ele>
        <time>2010-01-01T03:45:57Z</time>
      </trkpt>
      <trkpt lat="42.09116" lon="2.71458">
        <ele>470</ele>
        <time>2010-01-01T03:45:57Z</time>
      </trkpt>
      <trkpt lat="42.09112" lon="2.71467">
        <ele>470</ele>
        <time>2010-01-01T03:46:00Z</time>
      </trkpt>
      <trkpt lat="42.09106" lon="2.71476">
        <ele>471</ele>
        <time>2010-01-01T03:46:04Z</time>
      </trkpt>
      <trkpt lat="42.09112" lon="2.71476">
        <ele>473</ele>
        <time>2010-01-01T03:46:06Z</time>
      </trkpt>
      <trkpt lat="42.09116" lon="2.71474">
        <ele>474</ele>
        <time>2010-01-01T03:46:08Z</time>
      </trkpt>
      <trkpt lat="42.09121" lon="2.71472">
        <ele>476</ele>
        <time>2010-01-01T03:46:10Z</time>
      </trkpt>
      <trkpt lat="42.09132" lon="2.71465">
        <ele>478</ele>
        <time>2010-01-01T03:46:15Z</time>
      </trkpt>
      <trkpt lat="42.09138" lon="2.7146">
        <ele>479</ele>
        <time>2010-01-01T03:46:18Z</time>
      </trkpt>
      <trkpt lat="42.09148" lon="2.71455">
        <ele>481</ele>
        <time>2010-01-01T03:46:22Z</time>
      </trkpt>
      <trkpt lat="42.09153" lon="2.71454">
        <ele>482</ele>
        <time>2010-01-01T03:46:24Z</time>
      </trkpt>
      <trkpt lat="42.09162" lon="2.71452">
        <ele>484</ele>
        <time>2010-01-01T03:46:28Z</time>
      </trkpt>
      <trkpt lat="42.09168" lon="2.71449">
        <ele>485</ele>
        <time>2010-01-01T03:46:30Z</time>
      </trkpt>
      <trkpt lat="42.09173" lon="2.71445">
        <ele>486</ele>
        <time>2010-01-01T03:46:33Z</time>
      </trkpt>
      <trkpt lat="42.09181" lon="2.71443">
        <ele>487</ele>
        <time>2010-01-01T03:46:36Z</time>
      </trkpt>
      <trkpt lat="42.09189" lon="2.71441">
        <ele>489</ele>
        <time>2010-01-01T03:46:39Z</time>
      </trkpt>
      <trkpt lat="42.09201" lon="2.71439">
        <ele>492</ele>
        <time>2010-01-01T03:46:44Z</time>
      </trkpt>
      <trkpt lat="42.09207" lon="2.71438">
        <ele>493</ele>
        <time>2010-01-01T03:46:46Z</time>
      </trkpt>
      <trkpt lat="42.09211" lon="2.71438">
        <ele>493</ele>
        <time>2010-01-01T03:46:48Z</time>
      </trkpt>
      <trkpt lat="42.09216" lon="2.71437">
        <ele>494</ele>
        <time>2010-01-01T03:46:50Z</time>
      </trkpt>
      <trkpt lat="42.09223" lon="2.71436">
        <ele>495</ele>
        <time>2010-01-01T03:46:53Z</time>
      </trkpt>
      <trkpt lat="42.0923" lon="2.71442">
        <ele>495</ele>
        <time>2010-01-01T03:46:56Z</time>
      </trkpt>
      <trkpt lat="42.09235" lon="2.71447">
        <ele>495</ele>
        <time>2010-01-01T03:46:58Z</time>
      </trkpt>
      <trkpt lat="42.0924" lon="2.71449">
        <ele>495</ele>
        <time>2010-01-01T03:47:01Z</time>
      </trkpt>
      <trkpt lat="42.09246" lon="2.71453">
        <ele>496</ele>
        <time>2010-01-01T03:47:03Z</time>
      </trkpt>
      <trkpt lat="42.09253" lon="2.71454">
        <ele>495</ele>
        <time>2010-01-01T03:47:06Z</time>
      </trkpt>
      <trkpt lat="42.09259" lon="2.71456">
        <ele>494</ele>
        <time>2010-01-01T03:47:09Z</time>
      </trkpt>
      <trkpt lat="42.09265" lon="2.71458">
        <ele>493</ele>
        <time>2010-01-01T03:47:11Z</time>
      </trkpt>
      <trkpt lat="42.09269" lon="2.71462">
        <ele>491</ele>
        <time>2010-01-01T03:47:13Z</time>
      </trkpt>
      <trkpt lat="42.09276" lon="2.71468">
        <ele>489</ele>
        <time>2010-01-01T03:47:16Z</time>
      </trkpt>
      <trkpt lat="42.09277" lon="2.71469">
        <ele>489</ele>
        <time>2010-01-01T03:47:17Z</time>
      </trkpt>
      <trkpt lat="42.09282" lon="2.71472">
        <ele>488</ele>
        <time>2010-01-01T03:47:19Z</time>
      </trkpt>
      <trkpt lat="42.09287" lon="2.71476">
        <ele>487</ele>
        <time>2010-01-01T03:47:21Z</time>
      </trkpt>
      <trkpt lat="42.09292" lon="2.71481">
        <ele>486</ele>
        <time>2010-01-01T03:47:24Z</time>
      </trkpt>
      <trkpt lat="42.09298" lon="2.71487">
        <ele>485</ele>
        <time>2010-01-01T03:47:27Z</time>
      </trkpt>
      <trkpt lat="42.09306" lon="2.71494">
        <ele>484</ele>
        <time>2010-01-01T03:47:31Z</time>
      </trkpt>
      <trkpt lat="42.09311" lon="2.715">
        <ele>483</ele>
        <time>2010-01-01T03:47:33Z</time>
      </trkpt>
      <trkpt lat="42.09319" lon="2.71505">
        <ele>482</ele>
        <time>2010-01-01T03:47:37Z</time>
      </trkpt>
      <trkpt lat="42.09325" lon="2.7151">
        <ele>480</ele>
        <time>2010-01-01T03:47:40Z</time>
      </trkpt>
      <trkpt lat="42.0933" lon="2.71512">
        <ele>479</ele>
        <time>2010-01-01T03:47:42Z</time>
      </trkpt>
      <trkpt lat="42.09334" lon="2.71515">
        <ele>478</ele>
        <time>2010-01-01T03:47:44Z</time>
      </trkpt>
      <trkpt lat="42.0935" lon="2.71526">
        <ele>473</ele>
        <time>2010-01-01T03:47:51Z</time>
      </trkpt>
      <trkpt lat="42.09353" lon="2.71531">
        <ele>473</ele>
        <time>2010-01-01T03:47:53Z</time>
      </trkpt>
      <trkpt lat="42.09358" lon="2.71535">
        <ele>472</ele>
        <time>2010-01-01T03:47:55Z</time>
      </trkpt>
      <trkpt lat="42.09367" lon="2.71541">
        <ele>469</ele>
        <time>2010-01-01T03:47:59Z</time>
      </trkpt>
      <trkpt lat="42.09374" lon="2.71547">
        <ele>467</ele>
        <time>2010-01-01T03:48:02Z</time>
      </trkpt>
      <trkpt lat="42.09381" lon="2.71554">
        <ele>465</ele>
        <time>2010-01-01T03:48:06Z</time>
      </trkpt>
      <trkpt lat="42.09388" lon="2.7156">
        <ele>463</ele>
        <time>2010-01-01T03:48:09Z</time>
      </trkpt>
      <trkpt lat="42.09405" lon="2.71576">
        <ele>460</ele>
        <time>2010-01-01T03:48:17Z</time>
      </trkpt>
      <trkpt lat="42.09413" lon="2.71586">
        <ele>459</ele>
        <time>2010-01-01T03:48:22Z</time>
      </trkpt>
      <trkpt lat="42.09417" lon="2.71589">
        <ele>458</ele>
        <time>2010-01-01T03:48:23Z</time>
      </trkpt>
      <trkpt lat="42.09421" lon="2.71591">
        <ele>457</ele>
        <time>2010-01-01T03:48:25Z</time>
      </trkpt>
      <trkpt lat="42.09426" lon="2.71594">
        <ele>456</ele>
        <time>2010-01-01T03:48:27Z</time>
      </trkpt>
      <trkpt lat="42.09431" lon="2.71596">
        <ele>455</ele>
        <time>2010-01-01T03:48:29Z</time>
      </trkpt>
      <trkpt lat="42.09438" lon="2.71599">
        <ele>452</ele>
        <time>2010-01-01T03:48:33Z</time>
      </trkpt>
      <trkpt lat="42.09446" lon="2.71602">
        <ele>449</ele>
        <time>2010-01-01T03:48:36Z</time>
      </trkpt>
      <trkpt lat="42.09461" lon="2.71609">
        <ele>445</ele>
        <time>2010-01-01T03:48:42Z</time>
      </trkpt>
      <trkpt lat="42.09462" lon="2.71609">
        <ele>445</ele>
        <time>2010-01-01T03:48:42Z</time>
      </trkpt>
      <trkpt lat="42.09468" lon="2.71614">
        <ele>443</ele>
        <time>2010-01-01T03:48:45Z</time>
      </trkpt>
      <trkpt lat="42.09475" lon="2.71616">
        <ele>441</ele>
        <time>2010-01-01T03:48:48Z</time>
      </trkpt>
      <trkpt lat="42.09481" lon="2.71617">
        <ele>438</ele>
        <time>2010-01-01T03:48:51Z</time>
      </trkpt>
      <trkpt lat="42.09482" lon="2.71617">
        <ele>438</ele>
        <time>2010-01-01T03:48:51Z</time>
      </trkpt>
      <trkpt lat="42.09495" lon="2.71638">
        <ele>434</ele>
        <time>2010-01-01T03:48:59Z</time>
      </trkpt>
      <trkpt lat="42.09503" lon="2.71646">
        <ele>431</ele>
        <time>2010-01-01T03:49:03Z</time>
      </trkpt>
      <trkpt lat="42.09506" lon="2.71657">
        <ele>431</ele>
        <time>2010-01-01T03:49:07Z</time>
      </trkpt>
      <trkpt lat="42.09507" lon="2.71663">
        <ele>430</ele>
        <time>2010-01-01T03:49:08Z</time>
      </trkpt>
      <trkpt lat="42.09509" lon="2.7167">
        <ele>430</ele>
        <time>2010-01-01T03:49:11Z</time>
      </trkpt>
      <trkpt lat="42.09509" lon="2.71671">
        <ele>430</ele>
        <time>2010-01-01T03:49:11Z</time>
      </trkpt>
      <trkpt lat="42.09509" lon="2.71683">
        <ele>430</ele>
        <time>2010-01-01T03:49:14Z</time>
      </trkpt>
      <trkpt lat="42.09508" lon="2.71693">
        <ele>431</ele>
        <time>2010-01-01T03:49:18Z</time>
      </trkpt>
      <trkpt lat="42.09507" lon="2.71703">
        <ele>431</ele>
        <time>2010-01-01T03:49:20Z</time>
      </trkpt>
      <trkpt lat="42.09507" lon="2.71703">
        <ele>431</ele>
        <time>2010-01-01T03:49:20Z</time>
      </trkpt>
      <trkpt lat="42.09507" lon="2.71708">
        <ele>431</ele>
        <time>2010-01-01T03:49:22Z</time>
      </trkpt>
      <trkpt lat="42.09506" lon="2.71708">
        <ele>431</ele>
        <time>2010-01-01T03:49:22Z</time>
      </trkpt>
      <trkpt lat="42.09507" lon="2.71711">
        <ele>431</ele>
        <time>2010-01-01T03:49:23Z</time>
      </trkpt>
      <trkpt lat="42.09508" lon="2.71721">
        <ele>430</ele>
        <time>2010-01-01T03:49:26Z</time>
      </trkpt>
      <trkpt lat="42.09509" lon="2.7173">
        <ele>429</ele>
        <time>2010-01-01T03:49:28Z</time>
      </trkpt>
      <trkpt lat="42.09515" lon="2.71737">
        <ele>427</ele>
        <time>2010-01-01T03:49:32Z</time>
      </trkpt>
      <trkpt lat="42.09519" lon="2.71741">
        <ele>425</ele>
        <time>2010-01-01T03:49:34Z</time>
      </trkpt>
      <trkpt lat="42.09524" lon="2.71746">
        <ele>423</ele>
        <time>2010-01-01T03:49:36Z</time>
      </trkpt>
      <trkpt lat="42.09527" lon="2.71745">
        <ele>422</ele>
        <time>2010-01-01T03:49:38Z</time>
      </trkpt>
      <trkpt lat="42.09535" lon="2.7174">
        <ele>419</ele>
        <time>2010-01-01T03:49:41Z</time>
      </trkpt>
      <trkpt lat="42.09539" lon="2.71738">
        <ele>418</ele>
        <time>2010-01-01T03:49:43Z</time>
      </trkpt>
      <trkpt lat="42.09542" lon="2.7174">
        <ele>417</ele>
        <time>2010-01-01T03:49:44Z</time>
      </trkpt>
      <trkpt lat="42.09544" lon="2.71747">
        <ele>415</ele>
        <time>2010-01-01T03:49:46Z</time>
      </trkpt>
      <trkpt lat="42.09545" lon="2.71751">
        <ele>415</ele>
        <time>2010-01-01T03:49:47Z</time>
      </trkpt>
      <trkpt lat="42.09544" lon="2.71766">
        <ele>414</ele>
        <time>2010-01-01T03:49:52Z</time>
      </trkpt>
      <trkpt lat="42.09543" lon="2.71776">
        <ele>414</ele>
        <time>2010-01-01T03:49:55Z</time>
      </trkpt>
      <trkpt lat="42.0954" lon="2.71788">
        <ele>415</ele>
        <time>2010-01-01T03:49:59Z</time>
      </trkpt>
      <trkpt lat="42.0954" lon="2.71799">
        <ele>415</ele>
        <time>2010-01-01T03:50:02Z</time>
      </trkpt>
      <trkpt lat="42.09539" lon="2.71804">
        <ele>415</ele>
        <time>2010-01-01T03:50:03Z</time>
      </trkpt>
      <trkpt lat="42.09544" lon="2.7181">
        <ele>413</ele>
        <time>2010-01-01T03:50:06Z</time>
      </trkpt>
      <trkpt lat="42.09548" lon="2.71819">
        <ele>411</ele>
        <time>2010-01-01T03:50:09Z</time>
      </trkpt>
      <trkpt lat="42.09552" lon="2.71825">
        <ele>409</ele>
        <time>2010-01-01T03:50:12Z</time>
      </trkpt>
      <trkpt lat="42.09556" lon="2.7183">
        <ele>406</ele>
        <time>2010-01-01T03:50:14Z</time>
      </trkpt>
      <trkpt lat="42.0956" lon="2.71837">
        <ele>404</ele>
        <time>2010-01-01T03:50:16Z</time>
      </trkpt>
      <trkpt lat="42.09564" lon="2.71845">
        <ele>402</ele>
        <time>2010-01-01T03:50:19Z</time>
      </trkpt>
      <trkpt lat="42.09569" lon="2.71853">
        <ele>399</ele>
        <time>2010-01-01T03:50:23Z</time>
      </trkpt>
      <trkpt lat="42.09569" lon="2.71853">
        <ele>399</ele>
        <time>2010-01-01T03:50:23Z</time>
      </trkpt>
      <trkpt lat="42.09576" lon="2.71862">
        <ele>395</ele>
        <time>2010-01-01T03:50:27Z</time>
      </trkpt>
      <trkpt lat="42.0958" lon="2.7187">
        <ele>393</ele>
        <time>2010-01-01T03:50:29Z</time>
      </trkpt>
      <trkpt lat="42.09582" lon="2.71875">
        <ele>392</ele>
        <time>2010-01-01T03:50:31Z</time>
      </trkpt>
      <trkpt lat="42.09583" lon="2.71881">
        <ele>391</ele>
        <time>2010-01-01T03:50:33Z</time>
      </trkpt>
      <trkpt lat="42.09585" lon="2.71915">
        <ele>389</ele>
        <time>2010-01-01T03:50:43Z</time>
      </trkpt>
      <trkpt lat="42.09584" lon="2.71925">
        <ele>389</ele>
        <time>2010-01-01T03:50:46Z</time>
      </trkpt>
      <trkpt lat="42.09591" lon="2.71918">
        <ele>386</ele>
        <time>2010-01-01T03:50:49Z</time>
      </trkpt>
      <trkpt lat="42.09595" lon="2.71914">
        <ele>384</ele>
        <time>2010-01-01T03:50:52Z</time>
      </trkpt>
      <trkpt lat="42.096" lon="2.7191">
        <ele>382</ele>
        <time>2010-01-01T03:50:54Z</time>
      </trkpt>
      <trkpt lat="42.09603" lon="2.71906">
        <ele>380</ele>
        <time>2010-01-01T03:50:56Z</time>
      </trkpt>
      <trkpt lat="42.09604" lon="2.71911">
        <ele>379</ele>
        <time>2010-01-01T03:50:57Z</time>
      </trkpt>
      <trkpt lat="42.09605" lon="2.71926">
        <ele>378</ele>
        <time>2010-01-01T03:51:02Z</time>
      </trkpt>
      <trkpt lat="42.09606" lon="2.7195">
        <ele>375</ele>
        <time>2010-01-01T03:51:09Z</time>
      </trkpt>
      <trkpt lat="42.09606" lon="2.7196">
        <ele>374</ele>
        <time>2010-01-01T03:51:12Z</time>
      </trkpt>
      <trkpt lat="42.09602" lon="2.71967">
        <ele>375</ele>
        <time>2010-01-01T03:51:14Z</time>
      </trkpt>
      <trkpt lat="42.09595" lon="2.71981">
        <ele>374</ele>
        <time>2010-01-01T03:51:19Z</time>
      </trkpt>
      <trkpt lat="42.09591" lon="2.71987">
        <ele>374</ele>
        <time>2010-01-01T03:51:22Z</time>
      </trkpt>
      <trkpt lat="42.09587" lon="2.71995">
        <ele>373</ele>
        <time>2010-01-01T03:51:25Z</time>
      </trkpt>
      <trkpt lat="42.09587" lon="2.72015">
        <ele>369</ele>
        <time>2010-01-01T03:51:31Z</time>
      </trkpt>
      <trkpt lat="42.09587" lon="2.72028">
        <ele>367</ele>
        <time>2010-01-01T03:51:35Z</time>
      </trkpt>
      <trkpt lat="42.09586" lon="2.7204">
        <ele>366</ele>
        <time>2010-01-01T03:51:38Z</time>
      </trkpt>
      <trkpt lat="42.09588" lon="2.72045">
        <ele>365</ele>
        <time>2010-01-01T03:51:40Z</time>
      </trkpt>
      <trkpt lat="42.09587" lon="2.7206">
        <ele>364</ele>
        <time>2010-01-01T03:51:44Z</time>
      </trkpt>
      <trkpt lat="42.09586" lon="2.72068">
        <ele>364</ele>
        <time>2010-01-01T03:51:47Z</time>
      </trkpt>
      <trkpt lat="42.09588" lon="2.72077">
        <ele>364</ele>
        <time>2010-01-01T03:51:49Z</time>
      </trkpt>
      <trkpt lat="42.09588" lon="2.72089">
        <ele>364</ele>
        <time>2010-01-01T03:51:53Z</time>
      </trkpt>
      <trkpt lat="42.0959" lon="2.721">
        <ele>365</ele>
        <time>2010-01-01T03:51:56Z</time>
      </trkpt>
      <trkpt lat="42.09595" lon="2.72107">
        <ele>363</ele>
        <time>2010-01-01T03:51:59Z</time>
      </trkpt>
      <trkpt lat="42.096" lon="2.72112">
        <ele>361</ele>
        <time>2010-01-01T03:52:02Z</time>
      </trkpt>
      <trkpt lat="42.09609" lon="2.72119">
        <ele>359</ele>
        <time>2010-01-01T03:52:06Z</time>
      </trkpt>
      <trkpt lat="42.09615" lon="2.72122">
        <ele>357</ele>
        <time>2010-01-01T03:52:08Z</time>
      </trkpt>
      <trkpt lat="42.0962" lon="2.72127">
        <ele>356</ele>
        <time>2010-01-01T03:52:11Z</time>
      </trkpt>
      <trkpt lat="42.09631" lon="2.72137">
        <ele>353</ele>
        <time>2010-01-01T03:52:16Z</time>
      </trkpt>
      <trkpt lat="42.09639" lon="2.72144">
        <ele>351</ele>
        <time>2010-01-01T03:52:20Z</time>
      </trkpt>
      <trkpt lat="42.09649" lon="2.72153">
        <ele>349</ele>
        <time>2010-01-01T03:52:25Z</time>
      </trkpt>
      <trkpt lat="42.09656" lon="2.7216">
        <ele>348</ele>
        <time>2010-01-01T03:52:28Z</time>
      </trkpt>
      <trkpt lat="42.09664" lon="2.72164">
        <ele>346</ele>
        <time>2010-01-01T03:52:32Z</time>
      </trkpt>
      <trkpt lat="42.09674" lon="2.72175">
        <ele>344</ele>
        <time>2010-01-01T03:52:37Z</time>
      </trkpt>
      <trkpt lat="42.0968" lon="2.72182">
        <ele>343</ele>
        <time>2010-01-01T03:52:40Z</time>
      </trkpt>
      <trkpt lat="42.09688" lon="2.722">
        <ele>342</ele>
        <time>2010-01-01T03:52:46Z</time>
      </trkpt>
      <trkpt lat="42.09688" lon="2.72206">
        <ele>342</ele>
        <time>2010-01-01T03:52:48Z</time>
      </trkpt>
      <trkpt lat="42.09685" lon="2.72216">
        <ele>343</ele>
        <time>2010-01-01T03:52:51Z</time>
      </trkpt>
      <trkpt lat="42.09685" lon="2.72216">
        <ele>343</ele>
        <time>2010-01-01T03:52:52Z</time>
      </trkpt>
      <trkpt lat="42.09679" lon="2.72232">
        <ele>343</ele>
        <time>2010-01-01T03:52:57Z</time>
      </trkpt>
      <trkpt lat="42.09673" lon="2.72248">
        <ele>344</ele>
        <time>2010-01-01T03:53:02Z</time>
      </trkpt>
      <trkpt lat="42.09673" lon="2.72253">
        <ele>343</ele>
        <time>2010-01-01T03:53:04Z</time>
      </trkpt>
      <trkpt lat="42.09673" lon="2.72261">
        <ele>342</ele>
        <time>2010-01-01T03:53:06Z</time>
      </trkpt>
      <trkpt lat="42.09677" lon="2.72294">
        <ele>338</ele>
        <time>2010-01-01T03:53:16Z</time>
      </trkpt>
      <trkpt lat="42.09679" lon="2.72307">
        <ele>336</ele>
        <time>2010-01-01T03:53:20Z</time>
      </trkpt>
      <trkpt lat="42.09679" lon="2.72319">
        <ele>335</ele>
        <time>2010-01-01T03:53:23Z</time>
      </trkpt>
      <trkpt lat="42.09679" lon="2.72339">
        <ele>332</ele>
        <time>2010-01-01T03:53:29Z</time>
      </trkpt>
      <trkpt lat="42.09675" lon="2.72359">
        <ele>331</ele>
        <time>2010-01-01T03:53:35Z</time>
      </trkpt>
      <trkpt lat="42.09671" lon="2.72376">
        <ele>329</ele>
        <time>2010-01-01T03:53:41Z</time>
      </trkpt>
      <trkpt lat="42.09668" lon="2.7239">
        <ele>326</ele>
        <time>2010-01-01T03:53:45Z</time>
      </trkpt>
      <trkpt lat="42.09665" lon="2.72401">
        <ele>325</ele>
        <time>2010-01-01T03:53:48Z</time>
      </trkpt>
      <trkpt lat="42.0966" lon="2.7242">
        <ele>323</ele>
        <time>2010-01-01T03:53:54Z</time>
      </trkpt>
      <trkpt lat="42.09656" lon="2.72434">
        <ele>322</ele>
        <time>2010-01-01T03:53:59Z</time>
      </trkpt>
      <trkpt lat="42.0965" lon="2.72448">
        <ele>322</ele>
        <time>2010-01-01T03:54:04Z</time>
      </trkpt>
      <trkpt lat="42.09646" lon="2.72462">
        <ele>321</ele>
        <time>2010-01-01T03:54:08Z</time>
      </trkpt>
      <trkpt lat="42.09645" lon="2.72464">
        <ele>320</ele>
        <time>2010-01-01T03:54:09Z</time>
      </trkpt>
      <trkpt lat="42.09645" lon="2.72466">
        <ele>320</ele>
        <time>2010-01-01T03:54:09Z</time>
      </trkpt>
      <trkpt lat="42.09639" lon="2.72486">
        <ele>318</ele>
        <time>2010-01-01T03:54:16Z</time>
      </trkpt>
      <trkpt lat="42.0963" lon="2.72508">
        <ele>315</ele>
        <time>2010-01-01T03:54:23Z</time>
      </trkpt>
      <trkpt lat="42.09625" lon="2.72522">
        <ele>314</ele>
        <time>2010-01-01T03:54:28Z</time>
      </trkpt>
      <trkpt lat="42.09621" lon="2.72534">
        <ele>313</ele>
        <time>2010-01-01T03:54:32Z</time>
      </trkpt>
      <trkpt lat="42.0961" lon="2.72567">
        <ele>311</ele>
        <time>2010-01-01T03:54:43Z</time>
      </trkpt>
      <trkpt lat="42.09607" lon="2.72575">
        <ele>310</ele>
        <time>2010-01-01T03:54:45Z</time>
      </trkpt>
      <trkpt lat="42.09602" lon="2.72594">
        <ele>307</ele>
        <time>2010-01-01T03:54:51Z</time>
      </trkpt>
      <trkpt lat="42.09596" lon="2.72612">
        <ele>305</ele>
        <time>2010-01-01T03:54:57Z</time>
      </trkpt>
      <trkpt lat="42.09592" lon="2.72622">
        <ele>304</ele>
        <time>2010-01-01T03:55:01Z</time>
      </trkpt>
      <trkpt lat="42.09588" lon="2.7263">
        <ele>303</ele>
        <time>2010-01-01T03:55:03Z</time>
      </trkpt>
      <trkpt lat="42.09584" lon="2.72633">
        <ele>304</ele>
        <time>2010-01-01T03:55:05Z</time>
      </trkpt>
      <trkpt lat="42.09576" lon="2.72637">
        <ele>305</ele>
        <time>2010-01-01T03:55:09Z</time>
      </trkpt>
      <trkpt lat="42.09569" lon="2.72642">
        <ele>306</ele>
        <time>2010-01-01T03:55:12Z</time>
      </trkpt>
      <trkpt lat="42.09562" lon="2.72647">
        <ele>307</ele>
        <time>2010-01-01T03:55:15Z</time>
      </trkpt>
      <trkpt lat="42.09556" lon="2.7265">
        <ele>308</ele>
        <time>2010-01-01T03:55:18Z</time>
      </trkpt>
      <trkpt lat="42.09556" lon="2.72651">
        <ele>308</ele>
        <time>2010-01-01T03:55:18Z</time>
      </trkpt>
      <trkpt lat="42.09551" lon="2.72651">
        <ele>309</ele>
        <time>2010-01-01T03:55:20Z</time>
      </trkpt>
      <trkpt lat="42.09545" lon="2.72652">
        <ele>310</ele>
        <time>2010-01-01T03:55:22Z</time>
      </trkpt>
      <trkpt lat="42.09542" lon="2.72661">
        <ele>308</ele>
        <time>2010-01-01T03:55:25Z</time>
      </trkpt>
      <trkpt lat="42.09542" lon="2.72661">
        <ele>308</ele>
        <time>2010-01-01T03:55:25Z</time>
      </trkpt>
      <trkpt lat="42.0954" lon="2.72668">
        <ele>307</ele>
        <time>2010-01-01T03:55:27Z</time>
      </trkpt>
      <trkpt lat="42.0954" lon="2.72669">
        <ele>306</ele>
        <time>2010-01-01T03:55:28Z</time>
      </trkpt>
      <trkpt lat="42.0954" lon="2.72699">
        <ele>299</ele>
        <time>2010-01-01T03:55:36Z</time>
      </trkpt>
      <trkpt lat="42.09536" lon="2.72729">
        <ele>295</ele>
        <time>2010-01-01T03:55:46Z</time>
      </trkpt>
      <trkpt lat="42.09534" lon="2.72741">
        <ele>294</ele>
        <time>2010-01-01T03:55:49Z</time>
      </trkpt>
      <trkpt lat="42.09534" lon="2.72742">
        <ele>294</ele>
        <time>2010-01-01T03:55:49Z</time>
      </trkpt>
      <trkpt lat="42.09531" lon="2.72761">
        <ele>291</ele>
        <time>2010-01-01T03:55:55Z</time>
      </trkpt>
      <trkpt lat="42.09527" lon="2.7278">
        <ele>289</ele>
        <time>2010-01-01T03:56:01Z</time>
      </trkpt>
      <trkpt lat="42.09527" lon="2.72782">
        <ele>289</ele>
        <time>2010-01-01T03:56:02Z</time>
      </trkpt>
      <trkpt lat="42.09526" lon="2.72791">
        <ele>287</ele>
        <time>2010-01-01T03:56:04Z</time>
      </trkpt>
      <trkpt lat="42.09526" lon="2.72792">
        <ele>286</ele>
        <time>2010-01-01T03:56:05Z</time>
      </trkpt>
      <trkpt lat="42.09525" lon="2.72804">
        <ele>283</ele>
        <time>2010-01-01T03:56:08Z</time>
      </trkpt>
      <trkpt lat="42.09522" lon="2.72822">
        <ele>281</ele>
        <time>2010-01-01T03:56:14Z</time>
      </trkpt>
      <trkpt lat="42.09521" lon="2.72823">
        <ele>281</ele>
        <time>2010-01-01T03:56:14Z</time>
      </trkpt>
      <trkpt lat="42.09521" lon="2.72825">
        <ele>281</ele>
        <time>2010-01-01T03:56:15Z</time>
      </trkpt>
      <trkpt lat="42.09516" lon="2.72839">
        <ele>280</ele>
        <time>2010-01-01T03:56:19Z</time>
      </trkpt>
      <trkpt lat="42.09514" lon="2.72869">
        <ele>274</ele>
        <time>2010-01-01T03:56:28Z</time>
      </trkpt>
      <trkpt lat="42.09511" lon="2.7289">
        <ele>272</ele>
        <time>2010-01-01T03:56:35Z</time>
      </trkpt>
      <trkpt lat="42.09507" lon="2.72904">
        <ele>269</ele>
        <time>2010-01-01T03:56:39Z</time>
      </trkpt>
      <trkpt lat="42.09506" lon="2.72923">
        <ele>263</ele>
        <time>2010-01-01T03:56:45Z</time>
      </trkpt>
      <trkpt lat="42.09507" lon="2.72943">
        <ele>258</ele>
        <time>2010-01-01T03:56:51Z</time>
      </trkpt>
      <trkpt lat="42.09506" lon="2.72956">
        <ele>256</ele>
        <time>2010-01-01T03:56:55Z</time>
      </trkpt>
      <trkpt lat="42.09504" lon="2.72975">
        <ele>252</ele>
        <time>2010-01-01T03:57:00Z</time>
      </trkpt>
      <trkpt lat="42.09507" lon="2.72987">
        <ele>250</ele>
        <time>2010-01-01T03:57:04Z</time>
      </trkpt>
      <trkpt lat="42.09515" lon="2.73003">
        <ele>247</ele>
        <time>2010-01-01T03:57:10Z</time>
      </trkpt>
      <trkpt lat="42.0952" lon="2.7302">
        <ele>246</ele>
        <time>2010-01-01T03:57:15Z</time>
      </trkpt>
      <trkpt lat="42.09525" lon="2.73038">
        <ele>245</ele>
        <time>2010-01-01T03:57:21Z</time>
      </trkpt>
      <trkpt lat="42.09529" lon="2.73046">
        <ele>244</ele>
        <time>2010-01-01T03:57:24Z</time>
      </trkpt>
      <trkpt lat="42.09521" lon="2.73065">
        <ele>242</ele>
        <time>2010-01-01T03:57:30Z</time>
      </trkpt>
      <trkpt lat="42.09516" lon="2.73076">
        <ele>241</ele>
        <time>2010-01-01T03:57:34Z</time>
      </trkpt>
      <trkpt lat="42.09519" lon="2.73077">
        <ele>240</ele>
        <time>2010-01-01T03:57:35Z</time>
      </trkpt>
      <trkpt lat="42.09522" lon="2.7308">
        <ele>240</ele>
        <time>2010-01-01T03:57:37Z</time>
      </trkpt>
      <trkpt lat="42.0952" lon="2.73088">
        <ele>239</ele>
        <time>2010-01-01T03:57:39Z</time>
      </trkpt>
      <trkpt lat="42.0952" lon="2.73088">
        <ele>239</ele>
        <time>2010-01-01T03:57:39Z</time>
      </trkpt>
      <trkpt lat="42.09521" lon="2.73097">
        <ele>238</ele>
        <time>2010-01-01T03:57:42Z</time>
      </trkpt>
      <trkpt lat="42.09521" lon="2.73105">
        <ele>237</ele>
        <time>2010-01-01T03:57:44Z</time>
      </trkpt>
      <trkpt lat="42.09529" lon="2.73137">
        <ele>235</ele>
        <time>2010-01-01T03:57:54Z</time>
      </trkpt>
      <trkpt lat="42.09534" lon="2.73163">
        <ele>236</ele>
        <time>2010-01-01T03:58:02Z</time>
      </trkpt>
      <trkpt lat="42.09538" lon="2.73199">
        <ele>235</ele>
        <time>2010-01-01T03:58:13Z</time>
      </trkpt>
      <trkpt lat="42.09543" lon="2.73223">
        <ele>234</ele>
        <time>2010-01-01T03:58:20Z</time>
      </trkpt>
      <trkpt lat="42.09545" lon="2.73234">
        <ele>233</ele>
        <time>2010-01-01T03:58:24Z</time>
      </trkpt>
      <trkpt lat="42.09541" lon="2.7325">
        <ele>231</ele>
        <time>2010-01-01T03:58:29Z</time>
      </trkpt>
      <trkpt lat="42.0954" lon="2.73252">
        <ele>231</ele>
        <time>2010-01-01T03:58:30Z</time>
      </trkpt>
      <trkpt lat="42.09536" lon="2.73274">
        <ele>229</ele>
        <time>2010-01-01T03:58:36Z</time>
      </trkpt>
      <trkpt lat="42.09532" lon="2.73284">
        <ele>228</ele>
        <time>2010-01-01T03:58:40Z</time>
      </trkpt>
      <trkpt lat="42.09527" lon="2.7331">
        <ele>225</ele>
        <time>2010-01-01T03:58:47Z</time>
      </trkpt>
      <trkpt lat="42.09527" lon="2.7332">
        <ele>225</ele>
        <time>2010-01-01T03:58:51Z</time>
      </trkpt>
      <trkpt lat="42.09529" lon="2.73344">
        <ele>225</ele>
        <time>2010-01-01T03:58:58Z</time>
      </trkpt>
      <trkpt lat="42.09535" lon="2.73369">
        <ele>225</ele>
        <time>2010-01-01T03:59:06Z</time>
      </trkpt>
      <trkpt lat="42.09539" lon="2.73387">
        <ele>223</ele>
        <time>2010-01-01T03:59:11Z</time>
      </trkpt>
      <trkpt lat="42.09545" lon="2.73413">
        <ele>221</ele>
        <time>2010-01-01T03:59:19Z</time>
      </trkpt>
      <trkpt lat="42.0955" lon="2.73435">
        <ele>219</ele>
        <time>2010-01-01T03:59:26Z</time>
      </trkpt>
      <trkpt lat="42.09556" lon="2.73447">
        <ele>217</ele>
        <time>2010-01-01T03:59:30Z</time>
      </trkpt>
      <trkpt lat="42.09565" lon="2.73466">
        <ele>215</ele>
        <time>2010-01-01T03:59:37Z</time>
      </trkpt>
      <trkpt lat="42.09573" lon="2.73487">
        <ele>213</ele>
        <time>2010-01-01T03:59:44Z</time>
      </trkpt>
      <trkpt lat="42.09592" lon="2.73541">
        <ele>209</ele>
        <time>2010-01-01T04:00:02Z</time>
      </trkpt>
      <trkpt lat="42.09597" lon="2.73555">
        <ele>209</ele>
        <time>2010-01-01T04:00:06Z</time>
      </trkpt>
      <trkpt lat="42.096" lon="2.73566">
        <ele>209</ele>
        <time>2010-01-01T04:00:10Z</time>
      </trkpt>
      <trkpt lat="42.09603" lon="2.7357">
        <ele>209</ele>
        <time>2010-01-01T04:00:12Z</time>
      </trkpt>
      <trkpt lat="42.0961" lon="2.73573">
        <ele>209</ele>
        <time>2010-01-01T04:00:14Z</time>
      </trkpt>
      <trkpt lat="42.09614" lon="2.7358">
        <ele>210</ele>
        <time>2010-01-01T04:00:17Z</time>
      </trkpt>
      <trkpt lat="42.09621" lon="2.73589">
        <ele>211</ele>
        <time>2010-01-01T04:00:21Z</time>
      </trkpt>
      <trkpt lat="42.09627" lon="2.736">
        <ele>213</ele>
        <time>2010-01-01T04:00:25Z</time>
      </trkpt>
      <trkpt lat="42.09624" lon="2.7361">
        <ele>214</ele>
        <time>2010-01-01T04:00:28Z</time>
      </trkpt>
      <trkpt lat="42.09616" lon="2.73623">
        <ele>213</ele>
        <time>2010-01-01T04:00:33Z</time>
      </trkpt>
      <trkpt lat="42.09608" lon="2.73635">
        <ele>212</ele>
        <time>2010-01-01T04:00:38Z</time>
      </trkpt>
      <trkpt lat="42.09603" lon="2.73647">
        <ele>211</ele>
        <time>2010-01-01T04:00:42Z</time>
      </trkpt>
      <trkpt lat="42.096" lon="2.73657">
        <ele>211</ele>
        <time>2010-01-01T04:00:45Z</time>
      </trkpt>
      <trkpt lat="42.09592" lon="2.73671">
        <ele>209</ele>
        <time>2010-01-01T04:00:51Z</time>
      </trkpt>
      <trkpt lat="42.09584" lon="2.73685">
        <ele>208</ele>
        <time>2010-01-01T04:00:56Z</time>
      </trkpt>
      <trkpt lat="42.09576" lon="2.73697">
        <ele>208</ele>
        <time>2010-01-01T04:01:01Z</time>
      </trkpt>
      <trkpt lat="42.09562" lon="2.73708">
        <ele>207</ele>
        <time>2010-01-01T04:01:07Z</time>
      </trkpt>
      <trkpt lat="42.09547" lon="2.73728">
        <ele>207</ele>
        <time>2010-01-01T04:01:16Z</time>
      </trkpt>
      <trkpt lat="42.09543" lon="2.73752">
        <ele>207</ele>
        <time>2010-01-01T04:01:23Z</time>
      </trkpt>
      <trkpt lat="42.09545" lon="2.73774">
        <ele>206</ele>
        <time>2010-01-01T04:01:29Z</time>
      </trkpt>
      <trkpt lat="42.09548" lon="2.738">
        <ele>204</ele>
        <time>2010-01-01T04:01:37Z</time>
      </trkpt>
      <trkpt lat="42.09553" lon="2.73856">
        <ele>202</ele>
        <time>2010-01-01T04:01:54Z</time>
      </trkpt>
      <trkpt lat="42.09556" lon="2.73877">
        <ele>203</ele>
        <time>2010-01-01T04:02:00Z</time>
      </trkpt>
      <trkpt lat="42.0956" lon="2.73905">
        <ele>205</ele>
        <time>2010-01-01T04:02:09Z</time>
      </trkpt>
      <trkpt lat="42.09561" lon="2.73923">
        <ele>206</ele>
        <time>2010-01-01T04:02:14Z</time>
      </trkpt>
      <trkpt lat="42.09564" lon="2.73944">
        <ele>206</ele>
        <time>2010-01-01T04:02:21Z</time>
      </trkpt>
      <trkpt lat="42.09565" lon="2.73945">
        <ele>206</ele>
        <time>2010-01-01T04:02:21Z</time>
      </trkpt>
      <trkpt lat="42.0957" lon="2.73961">
        <ele>206</ele>
        <time>2010-01-01T04:02:26Z</time>
      </trkpt>
      <trkpt lat="42.09577" lon="2.73985">
        <ele>205</ele>
        <time>2010-01-01T04:02:34Z</time>
      </trkpt>
      <trkpt lat="42.09597" lon="2.74013">
        <ele>205</ele>
        <time>2010-01-01T04:02:45Z</time>
      </trkpt>
      <trkpt lat="42.09581" lon="2.74031">
        <ele>201</ele>
        <time>2010-01-01T04:02:54Z</time>
      </trkpt>
      <trkpt lat="42.09581" lon="2.74038">
        <ele>201</ele>
        <time>2010-01-01T04:02:56Z</time>
      </trkpt>
      <trkpt lat="42.09581" lon="2.74055">
        <ele>200</ele>
        <time>2010-01-01T04:03:01Z</time>
      </trkpt>
      <trkpt lat="42.09582" lon="2.74069">
        <ele>199</ele>
        <time>2010-01-01T04:03:05Z</time>
      </trkpt>
      <trkpt lat="42.09584" lon="2.74079">
        <ele>198</ele>
        <time>2010-01-01T04:03:08Z</time>
      </trkpt>
      <trkpt lat="42.09585" lon="2.74094">
        <ele>197</ele>
        <time>2010-01-01T04:03:12Z</time>
      </trkpt>
      <trkpt lat="42.09584" lon="2.74101">
        <ele>196</ele>
        <time>2010-01-01T04:03:14Z</time>
      </trkpt>
      <trkpt lat="42.0958" lon="2.74106">
        <ele>196</ele>
        <time>2010-01-01T04:03:16Z</time>
      </trkpt>
      <trkpt lat="42.09569" lon="2.74122">
        <ele>195</ele>
        <time>2010-01-01T04:03:23Z</time>
      </trkpt>
      <trkpt lat="42.09563" lon="2.74125">
        <ele>195</ele>
        <time>2010-01-01T04:03:25Z</time>
      </trkpt>
      <trkpt lat="42.09561" lon="2.74132">
        <ele>194</ele>
        <time>2010-01-01T04:03:28Z</time>
      </trkpt>
      <trkpt lat="42.09553" lon="2.74143">
        <ele>193</ele>
        <time>2010-01-01T04:03:33Z</time>
      </trkpt>
      <trkpt lat="42.09548" lon="2.74153">
        <ele>193</ele>
        <time>2010-01-01T04:03:36Z</time>
      </trkpt>
      <trkpt lat="42.09544" lon="2.7416">
        <ele>193</ele>
        <time>2010-01-01T04:03:39Z</time>
      </trkpt>
      <trkpt lat="42.0954" lon="2.74163">
        <ele>193</ele>
        <time>2010-01-01T04:03:41Z</time>
      </trkpt>
      <trkpt lat="42.09535" lon="2.7417">
        <ele>193</ele>
        <time>2010-01-01T04:03:43Z</time>
      </trkpt>
      <trkpt lat="42.09527" lon="2.74179">
        <ele>194</ele>
        <time>2010-01-01T04:03:48Z</time>
      </trkpt>
      <trkpt lat="42.0952" lon="2.74187">
        <ele>194</ele>
        <time>2010-01-01T04:03:51Z</time>
      </trkpt>
      <trkpt lat="42.09515" lon="2.74193">
        <ele>195</ele>
        <time>2010-01-01T04:03:54Z</time>
      </trkpt>
      <trkpt lat="42.09511" lon="2.74203">
        <ele>195</ele>
        <time>2010-01-01T04:03:57Z</time>
      </trkpt>
      <trkpt lat="42.09509" lon="2.7421">
        <ele>195</ele>
        <time>2010-01-01T04:03:59Z</time>
      </trkpt>
      <trkpt lat="42.09508" lon="2.74218">
        <ele>195</ele>
        <time>2010-01-01T04:04:02Z</time>
      </trkpt>
      <trkpt lat="42.09503" lon="2.74251">
        <ele>192</ele>
        <time>2010-01-01T04:04:12Z</time>
      </trkpt>
      <trkpt lat="42.09503" lon="2.7426">
        <ele>192</ele>
        <time>2010-01-01T04:04:15Z</time>
      </trkpt>
      <trkpt lat="42.09502" lon="2.74271">
        <ele>192</ele>
        <time>2010-01-01T04:04:18Z</time>
      </trkpt>
      <trkpt lat="42.09502" lon="2.74283">
        <ele>191</ele>
        <time>2010-01-01T04:04:21Z</time>
      </trkpt>
      <trkpt lat="42.09503" lon="2.74291">
        <ele>191</ele>
        <time>2010-01-01T04:04:24Z</time>
      </trkpt>
      <trkpt lat="42.09506" lon="2.74301">
        <ele>191</ele>
        <time>2010-01-01T04:04:27Z</time>
      </trkpt>
      <trkpt lat="42.09506" lon="2.74311">
        <ele>191</ele>
        <time>2010-01-01T04:04:30Z</time>
      </trkpt>
      <trkpt lat="42.09503" lon="2.74319">
        <ele>191</ele>
        <time>2010-01-01T04:04:33Z</time>
      </trkpt>
      <trkpt lat="42.09502" lon="2.74325">
        <ele>191</ele>
        <time>2010-01-01T04:04:34Z</time>
      </trkpt>
      <trkpt lat="42.09501" lon="2.74333">
        <ele>191</ele>
        <time>2010-01-01T04:04:37Z</time>
      </trkpt>
      <trkpt lat="42.095" lon="2.74341">
        <ele>191</ele>
        <time>2010-01-01T04:04:39Z</time>
      </trkpt>
      <trkpt lat="42.095" lon="2.74348">
        <ele>191</ele>
        <time>2010-01-01T04:04:41Z</time>
      </trkpt>
      <trkpt lat="42.095" lon="2.74355">
        <ele>191</ele>
        <time>2010-01-01T04:04:43Z</time>
      </trkpt>
      <trkpt lat="42.095" lon="2.74367">
        <ele>191</ele>
        <time>2010-01-01T04:04:47Z</time>
      </trkpt>
      <trkpt lat="42.095" lon="2.74381">
        <ele>191</ele>
        <time>2010-01-01T04:04:51Z</time>
      </trkpt>
      <trkpt lat="42.09502" lon="2.74399">
        <ele>190</ele>
        <time>2010-01-01T04:04:57Z</time>
      </trkpt>
      <trkpt lat="42.09503" lon="2.74407">
        <ele>190</ele>
        <time>2010-01-01T04:04:59Z</time>
      </trkpt>
      <trkpt lat="42.09507" lon="2.74427">
        <ele>189</ele>
        <time>2010-01-01T04:05:05Z</time>
      </trkpt>
      <trkpt lat="42.0951" lon="2.74436">
        <ele>189</ele>
        <time>2010-01-01T04:05:08Z</time>
      </trkpt>
      <trkpt lat="42.09512" lon="2.74445">
        <ele>189</ele>
        <time>2010-01-01T04:05:11Z</time>
      </trkpt>
      <trkpt lat="42.09516" lon="2.74457">
        <ele>188</ele>
        <time>2010-01-01T04:05:15Z</time>
      </trkpt>
      <trkpt lat="42.09518" lon="2.74473">
        <ele>188</ele>
        <time>2010-01-01T04:05:19Z</time>
      </trkpt>
      <trkpt lat="42.09525" lon="2.74493">
        <ele>188</ele>
        <time>2010-01-01T04:05:26Z</time>
      </trkpt>
      <trkpt lat="42.09527" lon="2.74507">
        <ele>188</ele>
        <time>2010-01-01T04:05:30Z</time>
      </trkpt>
      <trkpt lat="42.09529" lon="2.74519">
        <ele>188</ele>
        <time>2010-01-01T04:05:34Z</time>
      </trkpt>
      <trkpt lat="42.09529" lon="2.74532">
        <ele>189</ele>
        <time>2010-01-01T04:05:38Z</time>
      </trkpt>
      <trkpt lat="42.09528" lon="2.74547">
        <ele>189</ele>
        <time>2010-01-01T04:05:42Z</time>
      </trkpt>
      <trkpt lat="42.09528" lon="2.74559">
        <ele>190</ele>
        <time>2010-01-01T04:05:46Z</time>
      </trkpt>
      <trkpt lat="42.09528" lon="2.7456">
        <ele>190</ele>
        <time>2010-01-01T04:05:46Z</time>
      </trkpt>
      <trkpt lat="42.09527" lon="2.74571">
        <ele>190</ele>
        <time>2010-01-01T04:05:49Z</time>
      </trkpt>
      <trkpt lat="42.09526" lon="2.74584">
        <ele>190</ele>
        <time>2010-01-01T04:05:53Z</time>
      </trkpt>
      <trkpt lat="42.09526" lon="2.74596">
        <ele>191</ele>
        <time>2010-01-01T04:05:57Z</time>
      </trkpt>
      <trkpt lat="42.09526" lon="2.74597">
        <ele>191</ele>
        <time>2010-01-01T04:05:57Z</time>
      </trkpt>
      <trkpt lat="42.09525" lon="2.74608">
        <ele>191</ele>
        <time>2010-01-01T04:06:00Z</time>
      </trkpt>
      <trkpt lat="42.09525" lon="2.74622">
        <ele>191</ele>
        <time>2010-01-01T04:06:05Z</time>
      </trkpt>
      <trkpt lat="42.09526" lon="2.74634">
        <ele>191</ele>
        <time>2010-01-01T04:06:08Z</time>
      </trkpt>
      <trkpt lat="42.09526" lon="2.74635">
        <ele>191</ele>
        <time>2010-01-01T04:06:08Z</time>
      </trkpt>
      <trkpt lat="42.09525" lon="2.74647">
        <ele>191</ele>
        <time>2010-01-01T04:06:12Z</time>
      </trkpt>
      <trkpt lat="42.09526" lon="2.74655">
        <ele>191</ele>
        <time>2010-01-01T04:06:14Z</time>
      </trkpt>
      <trkpt lat="42.09527" lon="2.74661">
        <ele>191</ele>
        <time>2010-01-01T04:06:16Z</time>
      </trkpt>
      <trkpt lat="42.09529" lon="2.74669">
        <ele>190</ele>
        <time>2010-01-01T04:06:19Z</time>
      </trkpt>
      <trkpt lat="42.09544" lon="2.74685">
        <ele>189</ele>
        <time>2010-01-01T04:06:26Z</time>
      </trkpt>
      <trkpt lat="42.0955" lon="2.74688">
        <ele>189</ele>
        <time>2010-01-01T04:06:29Z</time>
      </trkpt>
      <trkpt lat="42.09554" lon="2.74692">
        <ele>189</ele>
        <time>2010-01-01T04:06:31Z</time>
      </trkpt>
      <trkpt lat="42.09559" lon="2.74696">
        <ele>188</ele>
        <time>2010-01-01T04:06:33Z</time>
      </trkpt>
      <trkpt lat="42.09564" lon="2.74699">
        <ele>188</ele>
        <time>2010-01-01T04:06:35Z</time>
      </trkpt>
      <trkpt lat="42.09572" lon="2.74699">
        <ele>188</ele>
        <time>2010-01-01T04:06:38Z</time>
      </trkpt>
      <trkpt lat="42.09579" lon="2.74698">
        <ele>187</ele>
        <time>2010-01-01T04:06:41Z</time>
      </trkpt>
      <trkpt lat="42.09586" lon="2.74699">
        <ele>187</ele>
        <time>2010-01-01T04:06:44Z</time>
      </trkpt>
      <trkpt lat="42.09592" lon="2.74698">
        <ele>187</ele>
        <time>2010-01-01T04:06:47Z</time>
      </trkpt>
      <trkpt lat="42.09603" lon="2.74695">
        <ele>187</ele>
        <time>2010-01-01T04:06:51Z</time>
      </trkpt>
      <trkpt lat="42.09614" lon="2.74694">
        <ele>187</ele>
        <time>2010-01-01T04:06:56Z</time>
      </trkpt>
      <trkpt lat="42.09623" lon="2.74688">
        <ele>187</ele>
        <time>2010-01-01T04:07:00Z</time>
      </trkpt>
      <trkpt lat="42.09628" lon="2.74686">
        <ele>187</ele>
        <time>2010-01-01T04:07:02Z</time>
      </trkpt>
      <trkpt lat="42.09635" lon="2.74682">
        <ele>187</ele>
        <time>2010-01-01T04:07:05Z</time>
      </trkpt>
      <trkpt lat="42.09642" lon="2.74681">
        <ele>187</ele>
        <time>2010-01-01T04:07:08Z</time>
      </trkpt>
      <trkpt lat="42.0965" lon="2.7468">
        <ele>187</ele>
        <time>2010-01-01T04:07:11Z</time>
      </trkpt>
      <trkpt lat="42.09663" lon="2.74678">
        <ele>187</ele>
        <time>2010-01-01T04:07:16Z</time>
      </trkpt>
      <trkpt lat="42.09669" lon="2.74677">
        <ele>187</ele>
        <time>2010-01-01T04:07:18Z</time>
      </trkpt>
      <trkpt lat="42.09675" lon="2.74676">
        <ele>188</ele>
        <time>2010-01-01T04:07:21Z</time>
      </trkpt>
      <trkpt lat="42.09682" lon="2.74673">
        <ele>188</ele>
        <time>2010-01-01T04:07:24Z</time>
      </trkpt>
      <trkpt lat="42.09689" lon="2.7467">
        <ele>188</ele>
        <time>2010-01-01T04:07:26Z</time>
      </trkpt>
      <trkpt lat="42.09694" lon="2.74665">
        <ele>188</ele>
        <time>2010-01-01T04:07:29Z</time>
      </trkpt>
      <trkpt lat="42.09706" lon="2.74658">
        <ele>189</ele>
        <time>2010-01-01T04:07:34Z</time>
      </trkpt>
      <trkpt lat="42.09712" lon="2.74653">
        <ele>189</ele>
        <time>2010-01-01T04:07:37Z</time>
      </trkpt>
      <trkpt lat="42.09718" lon="2.74652">
        <ele>189</ele>
        <time>2010-01-01T04:07:40Z</time>
      </trkpt>
      <trkpt lat="42.09729" lon="2.74649">
        <ele>190</ele>
        <time>2010-01-01T04:07:44Z</time>
      </trkpt>
      <trkpt lat="42.09735" lon="2.74646">
        <ele>190</ele>
        <time>2010-01-01T04:07:46Z</time>
      </trkpt>
      <trkpt lat="42.09744" lon="2.74644">
        <ele>190</ele>
        <time>2010-01-01T04:07:50Z</time>
      </trkpt>
      <trkpt lat="42.09754" lon="2.74639">
        <ele>191</ele>
        <time>2010-01-01T04:07:55Z</time>
      </trkpt>
      <trkpt lat="42.09761" lon="2.74635">
        <ele>191</ele>
        <time>2010-01-01T04:07:58Z</time>
      </trkpt>
      <trkpt lat="42.09771" lon="2.74632">
        <ele>191</ele>
        <time>2010-01-01T04:08:02Z</time>
      </trkpt>
      <trkpt lat="42.09779" lon="2.74627">
        <ele>192</ele>
        <time>2010-01-01T04:08:05Z</time>
      </trkpt>
      <trkpt lat="42.09785" lon="2.74626">
        <ele>192</ele>
        <time>2010-01-01T04:08:08Z</time>
      </trkpt>
      <trkpt lat="42.09792" lon="2.74623">
        <ele>192</ele>
        <time>2010-01-01T04:08:11Z</time>
      </trkpt>
      <trkpt lat="42.09799" lon="2.74622">
        <ele>192</ele>
        <time>2010-01-01T04:08:13Z</time>
      </trkpt>
      <trkpt lat="42.09822" lon="2.74613">
        <ele>193</ele>
        <time>2010-01-01T04:08:23Z</time>
      </trkpt>
      <trkpt lat="42.09829" lon="2.74613">
        <ele>193</ele>
        <time>2010-01-01T04:08:26Z</time>
      </trkpt>
      <trkpt lat="42.09835" lon="2.74612">
        <ele>194</ele>
        <time>2010-01-01T04:08:28Z</time>
      </trkpt>
      <trkpt lat="42.0984" lon="2.74611">
        <ele>194</ele>
        <time>2010-01-01T04:08:30Z</time>
      </trkpt>
      <trkpt lat="42.09848" lon="2.74611">
        <ele>194</ele>
        <time>2010-01-01T04:08:33Z</time>
      </trkpt>
      <trkpt lat="42.09857" lon="2.74612">
        <ele>194</ele>
        <time>2010-01-01T04:08:37Z</time>
      </trkpt>
      <trkpt lat="42.09866" lon="2.74612">
        <ele>193</ele>
        <time>2010-01-01T04:08:41Z</time>
      </trkpt>
      <trkpt lat="42.09873" lon="2.74613">
        <ele>193</ele>
        <time>2010-01-01T04:08:44Z</time>
      </trkpt>
      <trkpt lat="42.09893" lon="2.74615">
        <ele>193</ele>
        <time>2010-01-01T04:08:51Z</time>
      </trkpt>
      <trkpt lat="42.09901" lon="2.74615">
        <ele>193</ele>
        <time>2010-01-01T04:08:55Z</time>
      </trkpt>
      <trkpt lat="42.09906" lon="2.74616">
        <ele>193</ele>
        <time>2010-01-01T04:08:57Z</time>
      </trkpt>
      <trkpt lat="42.09914" lon="2.74617">
        <ele>193</ele>
        <time>2010-01-01T04:09:00Z</time>
      </trkpt>
      <trkpt lat="42.09919" lon="2.74617">
        <ele>193</ele>
        <time>2010-01-01T04:09:02Z</time>
      </trkpt>
      <trkpt lat="42.09924" lon="2.74617">
        <ele>193</ele>
        <time>2010-01-01T04:09:04Z</time>
      </trkpt>
      <trkpt lat="42.0993" lon="2.74616">
        <ele>193</ele>
        <time>2010-01-01T04:09:06Z</time>
      </trkpt>
      <trkpt lat="42.09936" lon="2.74612">
        <ele>193</ele>
        <time>2010-01-01T04:09:09Z</time>
      </trkpt>
      <trkpt lat="42.09942" lon="2.7461">
        <ele>192</ele>
        <time>2010-01-01T04:09:12Z</time>
      </trkpt>
      <trkpt lat="42.09959" lon="2.74607">
        <ele>194</ele>
        <time>2010-01-01T04:09:18Z</time>
      </trkpt>
      <trkpt lat="42.0997" lon="2.74606">
        <ele>194</ele>
        <time>2010-01-01T04:09:23Z</time>
      </trkpt>
      <trkpt lat="42.09977" lon="2.74606">
        <ele>195</ele>
        <time>2010-01-01T04:09:25Z</time>
      </trkpt>
      <trkpt lat="42.09999" lon="2.74605">
        <ele>195</ele>
        <time>2010-01-01T04:09:34Z</time>
      </trkpt>
      <trkpt lat="42.10008" lon="2.74602">
        <ele>195</ele>
        <time>2010-01-01T04:09:38Z</time>
      </trkpt>
      <trkpt lat="42.1002" lon="2.74603">
        <ele>195</ele>
        <time>2010-01-01T04:09:43Z</time>
      </trkpt>
      <trkpt lat="42.1004" lon="2.74601">
        <ele>195</ele>
        <time>2010-01-01T04:09:51Z</time>
      </trkpt>
      <trkpt lat="42.10047" lon="2.74601">
        <ele>195</ele>
        <time>2010-01-01T04:09:54Z</time>
      </trkpt>
      <trkpt lat="42.10054" lon="2.746">
        <ele>195</ele>
        <time>2010-01-01T04:09:56Z</time>
      </trkpt>
      <trkpt lat="42.10059" lon="2.74599">
        <ele>194</ele>
        <time>2010-01-01T04:09:58Z</time>
      </trkpt>
      <trkpt lat="42.10064" lon="2.74595">
        <ele>194</ele>
        <time>2010-01-01T04:10:01Z</time>
      </trkpt>
      <trkpt lat="42.10066" lon="2.74589">
        <ele>194</ele>
        <time>2010-01-01T04:10:03Z</time>
      </trkpt>
      <trkpt lat="42.10067" lon="2.74581">
        <ele>195</ele>
        <time>2010-01-01T04:10:05Z</time>
      </trkpt>
      <trkpt lat="42.10067" lon="2.74572">
        <ele>195</ele>
        <time>2010-01-01T04:10:08Z</time>
      </trkpt>
      <trkpt lat="42.10068" lon="2.74566">
        <ele>195</ele>
        <time>2010-01-01T04:10:10Z</time>
      </trkpt>
      <trkpt lat="42.10075" lon="2.74572">
        <ele>195</ele>
        <time>2010-01-01T04:10:13Z</time>
      </trkpt>
      <trkpt lat="42.10084" lon="2.74581">
        <ele>195</ele>
        <time>2010-01-01T04:10:18Z</time>
      </trkpt>
      <trkpt lat="42.10101" lon="2.74594">
        <ele>195</ele>
        <time>2010-01-01T04:10:25Z</time>
      </trkpt>
      <trkpt lat="42.10106" lon="2.74597">
        <ele>195</ele>
        <time>2010-01-01T04:10:28Z</time>
      </trkpt>
      <trkpt lat="42.10114" lon="2.74602">
        <ele>195</ele>
        <time>2010-01-01T04:10:31Z</time>
      </trkpt>
      <trkpt lat="42.10121" lon="2.74605">
        <ele>195</ele>
        <time>2010-01-01T04:10:34Z</time>
      </trkpt>
      <trkpt lat="42.10128" lon="2.74608">
        <ele>195</ele>
        <time>2010-01-01T04:10:37Z</time>
      </trkpt>
      <trkpt lat="42.10137" lon="2.74613">
        <ele>195</ele>
        <time>2010-01-01T04:10:41Z</time>
      </trkpt>
      <trkpt lat="42.10147" lon="2.74618">
        <ele>195</ele>
        <time>2010-01-01T04:10:45Z</time>
      </trkpt>
      <trkpt lat="42.10167" lon="2.74627">
        <ele>195</ele>
        <time>2010-01-01T04:10:53Z</time>
      </trkpt>
      <trkpt lat="42.10175" lon="2.74631">
        <ele>194</ele>
        <time>2010-01-01T04:10:57Z</time>
      </trkpt>
      <trkpt lat="42.10185" lon="2.74637">
        <ele>194</ele>
        <time>2010-01-01T04:11:01Z</time>
      </trkpt>
      <trkpt lat="42.10193" lon="2.74641">
        <ele>194</ele>
        <time>2010-01-01T04:11:05Z</time>
      </trkpt>
      <trkpt lat="42.10193" lon="2.74641">
        <ele>194</ele>
        <time>2010-01-01T04:11:05Z</time>
      </trkpt>
      <trkpt lat="42.102" lon="2.74647">
        <ele>193</ele>
        <time>2010-01-01T04:11:08Z</time>
      </trkpt>
      <trkpt lat="42.10209" lon="2.74658">
        <ele>193</ele>
        <time>2010-01-01T04:11:13Z</time>
      </trkpt>
      <trkpt lat="42.10218" lon="2.74664">
        <ele>193</ele>
        <time>2010-01-01T04:11:17Z</time>
      </trkpt>
      <trkpt lat="42.10225" lon="2.74674">
        <ele>192</ele>
        <time>2010-01-01T04:11:21Z</time>
      </trkpt>
      <trkpt lat="42.10236" lon="2.74685">
        <ele>192</ele>
        <time>2010-01-01T04:11:26Z</time>
      </trkpt>
      <trkpt lat="42.10244" lon="2.74689">
        <ele>191</ele>
        <time>2010-01-01T04:11:30Z</time>
      </trkpt>
      <trkpt lat="42.10249" lon="2.74691">
        <ele>191</ele>
        <time>2010-01-01T04:11:32Z</time>
      </trkpt>
      <trkpt lat="42.10255" lon="2.74695">
        <ele>190</ele>
        <time>2010-01-01T04:11:35Z</time>
      </trkpt>
      <trkpt lat="42.10255" lon="2.74695">
        <ele>190</ele>
        <time>2010-01-01T04:11:35Z</time>
      </trkpt>
      <trkpt lat="42.10261" lon="2.747">
        <ele>190</ele>
        <time>2010-01-01T04:11:37Z</time>
      </trkpt>
      <trkpt lat="42.10268" lon="2.74709">
        <ele>189</ele>
        <time>2010-01-01T04:11:41Z</time>
      </trkpt>
      <trkpt lat="42.10278" lon="2.74718">
        <ele>189</ele>
        <time>2010-01-01T04:11:46Z</time>
      </trkpt>
      <trkpt lat="42.10287" lon="2.74727">
        <ele>189</ele>
        <time>2010-01-01T04:11:51Z</time>
      </trkpt>
      <trkpt lat="42.10294" lon="2.74733">
        <ele>189</ele>
        <time>2010-01-01T04:11:54Z</time>
      </trkpt>
      <trkpt lat="42.103" lon="2.7474">
        <ele>190</ele>
        <time>2010-01-01T04:11:57Z</time>
      </trkpt>
      <trkpt lat="42.10319" lon="2.7476">
        <ele>191</ele>
        <time>2010-01-01T04:12:07Z</time>
      </trkpt>
      <trkpt lat="42.10336" lon="2.74783">
        <ele>191</ele>
        <time>2010-01-01T04:12:16Z</time>
      </trkpt>
      <trkpt lat="42.1034" lon="2.74787">
        <ele>191</ele>
        <time>2010-01-01T04:12:18Z</time>
      </trkpt>
      <trkpt lat="42.10346" lon="2.74792">
        <ele>191</ele>
        <time>2010-01-01T04:12:21Z</time>
      </trkpt>
      <trkpt lat="42.10346" lon="2.74793">
        <ele>191</ele>
        <time>2010-01-01T04:12:21Z</time>
      </trkpt>
      <trkpt lat="42.10351" lon="2.74798">
        <ele>191</ele>
        <time>2010-01-01T04:12:24Z</time>
      </trkpt>
      <trkpt lat="42.10358" lon="2.74805">
        <ele>190</ele>
        <time>2010-01-01T04:12:27Z</time>
      </trkpt>
      <trkpt lat="42.10364" lon="2.74811">
        <ele>190</ele>
        <time>2010-01-01T04:12:30Z</time>
      </trkpt>
      <trkpt lat="42.1037" lon="2.74816">
        <ele>190</ele>
        <time>2010-01-01T04:12:33Z</time>
      </trkpt>
      <trkpt lat="42.10378" lon="2.74822">
        <ele>190</ele>
        <time>2010-01-01T04:12:37Z</time>
      </trkpt>
      <trkpt lat="42.10385" lon="2.74827">
        <ele>191</ele>
        <time>2010-01-01T04:12:40Z</time>
      </trkpt>
      <trkpt lat="42.10396" lon="2.74837">
        <ele>190</ele>
        <time>2010-01-01T04:12:45Z</time>
      </trkpt>
      <trkpt lat="42.10412" lon="2.74852">
        <ele>190</ele>
        <time>2010-01-01T04:12:53Z</time>
      </trkpt>
      <trkpt lat="42.10417" lon="2.74857">
        <ele>189</ele>
        <time>2010-01-01T04:12:56Z</time>
      </trkpt>
      <trkpt lat="42.10425" lon="2.74862">
        <ele>189</ele>
        <time>2010-01-01T04:12:59Z</time>
      </trkpt>
      <trkpt lat="42.10432" lon="2.74868">
        <ele>189</ele>
        <time>2010-01-01T04:13:03Z</time>
      </trkpt>
      <trkpt lat="42.1044" lon="2.74873">
        <ele>189</ele>
        <time>2010-01-01T04:13:06Z</time>
      </trkpt>
      <trkpt lat="42.10445" lon="2.74872">
        <ele>188</ele>
        <time>2010-01-01T04:13:08Z</time>
      </trkpt>
      <trkpt lat="42.10448" lon="2.74874">
        <ele>188</ele>
        <time>2010-01-01T04:13:09Z</time>
      </trkpt>
      <trkpt lat="42.10455" lon="2.74872">
        <ele>188</ele>
        <time>2010-01-01T04:13:12Z</time>
      </trkpt>
      <trkpt lat="42.10463" lon="2.74872">
        <ele>188</ele>
        <time>2010-01-01T04:13:15Z</time>
      </trkpt>
      <trkpt lat="42.10473" lon="2.74866">
        <ele>187</ele>
        <time>2010-01-01T04:13:20Z</time>
      </trkpt>
      <trkpt lat="42.10486" lon="2.74862">
        <ele>187</ele>
        <time>2010-01-01T04:13:25Z</time>
      </trkpt>
      <trkpt lat="42.10499" lon="2.74863">
        <ele>186</ele>
        <time>2010-01-01T04:13:30Z</time>
      </trkpt>
      <trkpt lat="42.10505" lon="2.74868">
        <ele>185</ele>
        <time>2010-01-01T04:13:33Z</time>
      </trkpt>
      <trkpt lat="42.10515" lon="2.74877">
        <ele>185</ele>
        <time>2010-01-01T04:13:38Z</time>
      </trkpt>
      <trkpt lat="42.10519" lon="2.74886">
        <ele>185</ele>
        <time>2010-01-01T04:13:41Z</time>
      </trkpt>
      <trkpt lat="42.10525" lon="2.74901">
        <ele>186</ele>
        <time>2010-01-01T04:13:46Z</time>
      </trkpt>
      <trkpt lat="42.10532" lon="2.74922">
        <ele>187</ele>
        <time>2010-01-01T04:13:53Z</time>
      </trkpt>
      <trkpt lat="42.10538" lon="2.74945">
        <ele>187</ele>
        <time>2010-01-01T04:14:00Z</time>
      </trkpt>
      <trkpt lat="42.10554" lon="2.74989">
        <ele>188</ele>
        <time>2010-01-01T04:14:15Z</time>
      </trkpt>
      <trkpt lat="42.10559" lon="2.75007">
        <ele>188</ele>
        <time>2010-01-01T04:14:20Z</time>
      </trkpt>
      <trkpt lat="42.10566" lon="2.75024">
        <ele>188</ele>
        <time>2010-01-01T04:14:26Z</time>
      </trkpt>
      <trkpt lat="42.1058" lon="2.75041">
        <ele>187</ele>
        <time>2010-01-01T04:14:34Z</time>
      </trkpt>
      <trkpt lat="42.10589" lon="2.7505">
        <ele>187</ele>
        <time>2010-01-01T04:14:38Z</time>
      </trkpt>
      <trkpt lat="42.10597" lon="2.75054">
        <ele>188</ele>
        <time>2010-01-01T04:14:42Z</time>
      </trkpt>
      <trkpt lat="42.10607" lon="2.75059">
        <ele>189</ele>
        <time>2010-01-01T04:14:46Z</time>
      </trkpt>
      <trkpt lat="42.10627" lon="2.75067">
        <ele>189</ele>
        <time>2010-01-01T04:14:54Z</time>
      </trkpt>
      <trkpt lat="42.10642" lon="2.75069">
        <ele>189</ele>
        <time>2010-01-01T04:15:00Z</time>
      </trkpt>
      <trkpt lat="42.10654" lon="2.75066">
        <ele>188</ele>
        <time>2010-01-01T04:15:05Z</time>
      </trkpt>
      <trkpt lat="42.10672" lon="2.75065">
        <ele>187</ele>
        <time>2010-01-01T04:15:12Z</time>
      </trkpt>
      <trkpt lat="42.10684" lon="2.75061">
        <ele>187</ele>
        <time>2010-01-01T04:15:18Z</time>
      </trkpt>
      <trkpt lat="42.10704" lon="2.7506">
        <ele>186</ele>
        <time>2010-01-01T04:15:25Z</time>
      </trkpt>
      <trkpt lat="42.10722" lon="2.75061">
        <ele>187</ele>
        <time>2010-01-01T04:15:32Z</time>
      </trkpt>
      <trkpt lat="42.10731" lon="2.75061">
        <ele>186</ele>
        <time>2010-01-01T04:15:36Z</time>
      </trkpt>
      <trkpt lat="42.10744" lon="2.75063">
        <ele>184</ele>
        <time>2010-01-01T04:15:41Z</time>
      </trkpt>
      <trkpt lat="42.10752" lon="2.75065">
        <ele>183</ele>
        <time>2010-01-01T04:15:45Z</time>
      </trkpt>
      <trkpt lat="42.10775" lon="2.75071">
        <ele>182</ele>
        <time>2010-01-01T04:15:54Z</time>
      </trkpt>
      <trkpt lat="42.10785" lon="2.75076">
        <ele>182</ele>
        <time>2010-01-01T04:15:58Z</time>
      </trkpt>
      <trkpt lat="42.10801" lon="2.75085">
        <ele>182</ele>
        <time>2010-01-01T04:16:05Z</time>
      </trkpt>
      <trkpt lat="42.10818" lon="2.75089">
        <ele>181</ele>
        <time>2010-01-01T04:16:12Z</time>
      </trkpt>
      <trkpt lat="42.10833" lon="2.75099">
        <ele>181</ele>
        <time>2010-01-01T04:16:19Z</time>
      </trkpt>
      <trkpt lat="42.10863" lon="2.75112">
        <ele>180</ele>
        <time>2010-01-01T04:16:32Z</time>
      </trkpt>
      <trkpt lat="42.10879" lon="2.75123">
        <ele>180</ele>
        <time>2010-01-01T04:16:39Z</time>
      </trkpt>
      <trkpt lat="42.10893" lon="2.75129">
        <ele>180</ele>
        <time>2010-01-01T04:16:45Z</time>
      </trkpt>
      <trkpt lat="42.10905" lon="2.75135">
        <ele>180</ele>
        <time>2010-01-01T04:16:50Z</time>
      </trkpt>
      <trkpt lat="42.10915" lon="2.75142">
        <ele>180</ele>
        <time>2010-01-01T04:16:54Z</time>
      </trkpt>
      <trkpt lat="42.10937" lon="2.75157">
        <ele>180</ele>
        <time>2010-01-01T04:17:04Z</time>
      </trkpt>
      <trkpt lat="42.10964" lon="2.75171">
        <ele>180</ele>
        <time>2010-01-01T04:17:16Z</time>
      </trkpt>
      <trkpt lat="42.10984" lon="2.75185">
        <ele>181</ele>
        <time>2010-01-01T04:17:25Z</time>
      </trkpt>
      <trkpt lat="42.11001" lon="2.752">
        <ele>180</ele>
        <time>2010-01-01T04:17:33Z</time>
      </trkpt>
      <trkpt lat="42.11018" lon="2.7521">
        <ele>180</ele>
        <time>2010-01-01T04:17:40Z</time>
      </trkpt>
      <trkpt lat="42.11033" lon="2.7522">
        <ele>179</ele>
        <time>2010-01-01T04:17:47Z</time>
      </trkpt>
      <trkpt lat="42.11046" lon="2.75228">
        <ele>179</ele>
        <time>2010-01-01T04:17:53Z</time>
      </trkpt>
      <trkpt lat="42.11068" lon="2.75244">
        <ele>180</ele>
        <time>2010-01-01T04:18:03Z</time>
      </trkpt>
      <trkpt lat="42.11077" lon="2.75251">
        <ele>180</ele>
        <time>2010-01-01T04:18:07Z</time>
      </trkpt>
      <trkpt lat="42.11084" lon="2.75255">
        <ele>181</ele>
        <time>2010-01-01T04:18:10Z</time>
      </trkpt>
      <trkpt lat="42.11091" lon="2.75259">
        <ele>181</ele>
        <time>2010-01-01T04:18:13Z</time>
      </trkpt>
      <trkpt lat="42.11098" lon="2.75269">
        <ele>181</ele>
        <time>2010-01-01T04:18:17Z</time>
      </trkpt>
      <trkpt lat="42.11109" lon="2.75279">
        <ele>182</ele>
        <time>2010-01-01T04:18:22Z</time>
      </trkpt>
      <trkpt lat="42.11125" lon="2.753">
        <ele>183</ele>
        <time>2010-01-01T04:18:31Z</time>
      </trkpt>
      <trkpt lat="42.11126" lon="2.75296">
        <ele>184</ele>
        <time>2010-01-01T04:18:33Z</time>
      </trkpt>
      <trkpt lat="42.11128" lon="2.75304">
        <ele>183</ele>
        <time>2010-01-01T04:18:35Z</time>
      </trkpt>
      <trkpt lat="42.11137" lon="2.75308">
        <ele>184</ele>
        <time>2010-01-01T04:18:39Z</time>
      </trkpt>
      <trkpt lat="42.11146" lon="2.7531">
        <ele>185</ele>
        <time>2010-01-01T04:18:43Z</time>
      </trkpt>
      <trkpt lat="42.11154" lon="2.75312">
        <ele>185</ele>
        <time>2010-01-01T04:18:46Z</time>
      </trkpt>
      <trkpt lat="42.11172" lon="2.75318">
        <ele>186</ele>
        <time>2010-01-01T04:18:53Z</time>
      </trkpt>
      <trkpt lat="42.11184" lon="2.75321">
        <ele>186</ele>
        <time>2010-01-01T04:18:58Z</time>
      </trkpt>
      <trkpt lat="42.11193" lon="2.75322">
        <ele>186</ele>
        <time>2010-01-01T04:19:02Z</time>
      </trkpt>
      <trkpt lat="42.11207" lon="2.75327">
        <ele>186</ele>
        <time>2010-01-01T04:19:08Z</time>
      </trkpt>
      <trkpt lat="42.11214" lon="2.75329">
        <ele>186</ele>
        <time>2010-01-01T04:19:11Z</time>
      </trkpt>
      <trkpt lat="42.11233" lon="2.75335">
        <ele>185</ele>
        <time>2010-01-01T04:19:18Z</time>
      </trkpt>
      <trkpt lat="42.11243" lon="2.75336">
        <ele>185</ele>
        <time>2010-01-01T04:19:23Z</time>
      </trkpt>
      <trkpt lat="42.11253" lon="2.75337">
        <ele>185</ele>
        <time>2010-01-01T04:19:27Z</time>
      </trkpt>
      <trkpt lat="42.11261" lon="2.75339">
        <ele>185</ele>
        <time>2010-01-01T04:19:30Z</time>
      </trkpt>
      <trkpt lat="42.11269" lon="2.75342">
        <ele>185</ele>
        <time>2010-01-01T04:19:33Z</time>
      </trkpt>
      <trkpt lat="42.11296" lon="2.75348">
        <ele>184</ele>
        <time>2010-01-01T04:19:44Z</time>
      </trkpt>
      <trkpt lat="42.11301" lon="2.7535">
        <ele>184</ele>
        <time>2010-01-01T04:19:46Z</time>
      </trkpt>
      <trkpt lat="42.11312" lon="2.7535">
        <ele>183</ele>
        <time>2010-01-01T04:19:51Z</time>
      </trkpt>
      <trkpt lat="42.1132" lon="2.7535">
        <ele>183</ele>
        <time>2010-01-01T04:19:54Z</time>
      </trkpt>
      <trkpt lat="42.11347" lon="2.75342">
        <ele>183</ele>
        <time>2010-01-01T04:20:05Z</time>
      </trkpt>
      <trkpt lat="42.11358" lon="2.75337">
        <ele>183</ele>
        <time>2010-01-01T04:20:09Z</time>
      </trkpt>
      <trkpt lat="42.1137" lon="2.75333">
        <ele>184</ele>
        <time>2010-01-01T04:20:15Z</time>
      </trkpt>
      <trkpt lat="42.11406" lon="2.75322">
        <ele>184</ele>
        <time>2010-01-01T04:20:29Z</time>
      </trkpt>
      <trkpt lat="42.1142" lon="2.75319">
        <ele>184</ele>
        <time>2010-01-01T04:20:35Z</time>
      </trkpt>
      <trkpt lat="42.11429" lon="2.75315">
        <ele>184</ele>
        <time>2010-01-01T04:20:39Z</time>
      </trkpt>
      <trkpt lat="42.11465" lon="2.75303">
        <ele>183</ele>
        <time>2010-01-01T04:20:53Z</time>
      </trkpt>
      <trkpt lat="42.11477" lon="2.75303">
        <ele>182</ele>
        <time>2010-01-01T04:20:58Z</time>
      </trkpt>
      <trkpt lat="42.11491" lon="2.75298">
        <ele>182</ele>
        <time>2010-01-01T04:21:04Z</time>
      </trkpt>
      <trkpt lat="42.11498" lon="2.75294">
        <ele>182</ele>
        <time>2010-01-01T04:21:07Z</time>
      </trkpt>
      <trkpt lat="42.1153" lon="2.75285">
        <ele>182</ele>
        <time>2010-01-01T04:21:20Z</time>
      </trkpt>
      <trkpt lat="42.11543" lon="2.75283">
        <ele>182</ele>
        <time>2010-01-01T04:21:25Z</time>
      </trkpt>
      <trkpt lat="42.11552" lon="2.7528">
        <ele>181</ele>
        <time>2010-01-01T04:21:29Z</time>
      </trkpt>
      <trkpt lat="42.11563" lon="2.75278">
        <ele>181</ele>
        <time>2010-01-01T04:21:33Z</time>
      </trkpt>
      <trkpt lat="42.1159" lon="2.75276">
        <ele>179</ele>
        <time>2010-01-01T04:21:44Z</time>
      </trkpt>
      <trkpt lat="42.11594" lon="2.75281">
        <ele>179</ele>
        <time>2010-01-01T04:21:46Z</time>
      </trkpt>
      <trkpt lat="42.11597" lon="2.75288">
        <ele>178</ele>
        <time>2010-01-01T04:21:49Z</time>
      </trkpt>
      <trkpt lat="42.11603" lon="2.75304">
        <ele>178</ele>
        <time>2010-01-01T04:21:54Z</time>
      </trkpt>
      <trkpt lat="42.11611" lon="2.75313">
        <ele>177</ele>
        <time>2010-01-01T04:21:59Z</time>
      </trkpt>
      <trkpt lat="42.11623" lon="2.75325">
        <ele>177</ele>
        <time>2010-01-01T04:22:05Z</time>
      </trkpt>
      <trkpt lat="42.11654" lon="2.75353">
        <ele>178</ele>
        <time>2010-01-01T04:22:19Z</time>
      </trkpt>
      <trkpt lat="42.11657" lon="2.75371">
        <ele>178</ele>
        <time>2010-01-01T04:22:25Z</time>
      </trkpt>
      <trkpt lat="42.11661" lon="2.75388">
        <ele>178</ele>
        <time>2010-01-01T04:22:30Z</time>
      </trkpt>
      <trkpt lat="42.11663" lon="2.75398">
        <ele>178</ele>
        <time>2010-01-01T04:22:33Z</time>
      </trkpt>
      <trkpt lat="42.11666" lon="2.75408">
        <ele>178</ele>
        <time>2010-01-01T04:22:36Z</time>
      </trkpt>
      <trkpt lat="42.11665" lon="2.75416">
        <ele>178</ele>
        <time>2010-01-01T04:22:39Z</time>
      </trkpt>
      <trkpt lat="42.11658" lon="2.7545">
        <ele>176</ele>
        <time>2010-01-01T04:22:49Z</time>
      </trkpt>
      <trkpt lat="42.11656" lon="2.75465">
        <ele>176</ele>
        <time>2010-01-01T04:22:54Z</time>
      </trkpt>
      <trkpt lat="42.11654" lon="2.75477">
        <ele>177</ele>
        <time>2010-01-01T04:22:57Z</time>
      </trkpt>
      <trkpt lat="42.11654" lon="2.75494">
        <ele>178</ele>
        <time>2010-01-01T04:23:03Z</time>
      </trkpt>
      <trkpt lat="42.11655" lon="2.75509">
        <ele>178</ele>
        <time>2010-01-01T04:23:07Z</time>
      </trkpt>
      <trkpt lat="42.11657" lon="2.75518">
        <ele>179</ele>
        <time>2010-01-01T04:23:10Z</time>
      </trkpt>
      <trkpt lat="42.11659" lon="2.75527">
        <ele>179</ele>
        <time>2010-01-01T04:23:13Z</time>
      </trkpt>
      <trkpt lat="42.11661" lon="2.75535">
        <ele>179</ele>
        <time>2010-01-01T04:23:15Z</time>
      </trkpt>
      <trkpt lat="42.11661" lon="2.75535">
        <ele>179</ele>
        <time>2010-01-01T04:23:15Z</time>
      </trkpt>
      <trkpt lat="42.11664" lon="2.75544">
        <ele>179</ele>
        <time>2010-01-01T04:23:18Z</time>
      </trkpt>
      <trkpt lat="42.1167" lon="2.75554">
        <ele>178</ele>
        <time>2010-01-01T04:23:22Z</time>
      </trkpt>
      <trkpt lat="42.11676" lon="2.75559">
        <ele>178</ele>
        <time>2010-01-01T04:23:25Z</time>
      </trkpt>
      <trkpt lat="42.1168" lon="2.75565">
        <ele>178</ele>
        <time>2010-01-01T04:23:27Z</time>
      </trkpt>
      <trkpt lat="42.11689" lon="2.75573">
        <ele>178</ele>
        <time>2010-01-01T04:23:31Z</time>
      </trkpt>
      <trkpt lat="42.11695" lon="2.7558">
        <ele>177</ele>
        <time>2010-01-01T04:23:35Z</time>
      </trkpt>
      <trkpt lat="42.11705" lon="2.75591">
        <ele>177</ele>
        <time>2010-01-01T04:23:40Z</time>
      </trkpt>
      <trkpt lat="42.11715" lon="2.75595">
        <ele>177</ele>
        <time>2010-01-01T04:23:44Z</time>
      </trkpt>
      <trkpt lat="42.11715" lon="2.75596">
        <ele>177</ele>
        <time>2010-01-01T04:23:44Z</time>
      </trkpt>
      <trkpt lat="42.11728" lon="2.75606">
        <ele>177</ele>
        <time>2010-01-01T04:23:50Z</time>
      </trkpt>
      <trkpt lat="42.11732" lon="2.75609">
        <ele>177</ele>
        <time>2010-01-01T04:23:52Z</time>
      </trkpt>
      <trkpt lat="42.1174" lon="2.75615">
        <ele>178</ele>
        <time>2010-01-01T04:23:55Z</time>
      </trkpt>
      <trkpt lat="42.11748" lon="2.75621">
        <ele>178</ele>
        <time>2010-01-01T04:23:59Z</time>
      </trkpt>
      <trkpt lat="42.11772" lon="2.75638">
        <ele>178</ele>
        <time>2010-01-01T04:24:10Z</time>
      </trkpt>
      <trkpt lat="42.11777" lon="2.75643">
        <ele>179</ele>
        <time>2010-01-01T04:24:13Z</time>
      </trkpt>
      <trkpt lat="42.11786" lon="2.7565">
        <ele>179</ele>
        <time>2010-01-01T04:24:17Z</time>
      </trkpt>
      <trkpt lat="42.11793" lon="2.75656">
        <ele>179</ele>
        <time>2010-01-01T04:24:20Z</time>
      </trkpt>
      <trkpt lat="42.11828" lon="2.75685">
        <ele>179</ele>
        <time>2010-01-01T04:24:36Z</time>
      </trkpt>
      <trkpt lat="42.11831" lon="2.75687">
        <ele>178</ele>
        <time>2010-01-01T04:24:38Z</time>
      </trkpt>
      <trkpt lat="42.11842" lon="2.75698">
        <ele>178</ele>
        <time>2010-01-01T04:24:43Z</time>
      </trkpt>
      <trkpt lat="42.11847" lon="2.75704">
        <ele>178</ele>
        <time>2010-01-01T04:24:46Z</time>
      </trkpt>
      <trkpt lat="42.11848" lon="2.75705">
        <ele>178</ele>
        <time>2010-01-01T04:24:46Z</time>
      </trkpt>
      <trkpt lat="42.11857" lon="2.7571">
        <ele>178</ele>
        <time>2010-01-01T04:24:50Z</time>
      </trkpt>
      <trkpt lat="42.11887" lon="2.75729">
        <ele>178</ele>
        <time>2010-01-01T04:25:03Z</time>
      </trkpt>
      <trkpt lat="42.11898" lon="2.7574">
        <ele>178</ele>
        <time>2010-01-01T04:25:09Z</time>
      </trkpt>
      <trkpt lat="42.11907" lon="2.75747">
        <ele>178</ele>
        <time>2010-01-01T04:25:13Z</time>
      </trkpt>
      <trkpt lat="42.11915" lon="2.75757">
        <ele>178</ele>
        <time>2010-01-01T04:25:17Z</time>
      </trkpt>
      <trkpt lat="42.11934" lon="2.75772">
        <ele>177</ele>
        <time>2010-01-01T04:25:26Z</time>
      </trkpt>
      <trkpt lat="42.11948" lon="2.75781">
        <ele>178</ele>
        <time>2010-01-01T04:25:33Z</time>
      </trkpt>
      <trkpt lat="42.11958" lon="2.75785">
        <ele>178</ele>
        <time>2010-01-01T04:25:37Z</time>
      </trkpt>
      <trkpt lat="42.11969" lon="2.75787">
        <ele>178</ele>
        <time>2010-01-01T04:25:41Z</time>
      </trkpt>
      <trkpt lat="42.11975" lon="2.75788">
        <ele>178</ele>
        <time>2010-01-01T04:25:44Z</time>
      </trkpt>
      <trkpt lat="42.12013" lon="2.75791">
        <ele>178</ele>
        <time>2010-01-01T04:25:59Z</time>
      </trkpt>
      <trkpt lat="42.12023" lon="2.75793">
        <ele>177</ele>
        <time>2010-01-01T04:26:03Z</time>
      </trkpt>
      <trkpt lat="42.12034" lon="2.75795">
        <ele>177</ele>
        <time>2010-01-01T04:26:07Z</time>
      </trkpt>
      <trkpt lat="42.12047" lon="2.75802">
        <ele>176</ele>
        <time>2010-01-01T04:26:13Z</time>
      </trkpt>
      <trkpt lat="42.12062" lon="2.7581">
        <ele>177</ele>
        <time>2010-01-01T04:26:19Z</time>
      </trkpt>
      <trkpt lat="42.12073" lon="2.75821">
        <ele>178</ele>
        <time>2010-01-01T04:26:25Z</time>
      </trkpt>
      <trkpt lat="42.12081" lon="2.75826">
        <ele>178</ele>
        <time>2010-01-01T04:26:28Z</time>
      </trkpt>
      <trkpt lat="42.12081" lon="2.75827">
        <ele>178</ele>
        <time>2010-01-01T04:26:28Z</time>
      </trkpt>
      <trkpt lat="42.12088" lon="2.75831">
        <ele>179</ele>
        <time>2010-01-01T04:26:31Z</time>
      </trkpt>
      <trkpt lat="42.12111" lon="2.75833">
        <ele>179</ele>
        <time>2010-01-01T04:26:41Z</time>
      </trkpt>
      <trkpt lat="42.12125" lon="2.75835">
        <ele>179</ele>
        <time>2010-01-01T04:26:46Z</time>
      </trkpt>
      <trkpt lat="42.12135" lon="2.75834">
        <ele>179</ele>
        <time>2010-01-01T04:26:50Z</time>
      </trkpt>
      <trkpt lat="42.12147" lon="2.75835">
        <ele>180</ele>
        <time>2010-01-01T04:26:55Z</time>
      </trkpt>
      <trkpt lat="42.12154" lon="2.75833">
        <ele>180</ele>
        <time>2010-01-01T04:26:58Z</time>
      </trkpt>
      <trkpt lat="42.12178" lon="2.75832">
        <ele>181</ele>
        <time>2010-01-01T04:27:08Z</time>
      </trkpt>
      <trkpt lat="42.122" lon="2.75835">
        <ele>181</ele>
        <time>2010-01-01T04:27:17Z</time>
      </trkpt>
      <trkpt lat="42.12219" lon="2.75836">
        <ele>181</ele>
        <time>2010-01-01T04:27:24Z</time>
      </trkpt>
      <trkpt lat="42.12226" lon="2.75836">
        <ele>181</ele>
        <time>2010-01-01T04:27:27Z</time>
      </trkpt>
      <trkpt lat="42.12234" lon="2.75837">
        <ele>181</ele>
        <time>2010-01-01T04:27:30Z</time>
      </trkpt>
      <trkpt lat="42.1224" lon="2.75838">
        <ele>181</ele>
        <time>2010-01-01T04:27:33Z</time>
      </trkpt>
      <trkpt lat="42.12246" lon="2.75839">
        <ele>181</ele>
        <time>2010-01-01T04:27:35Z</time>
      </trkpt>
      <trkpt lat="42.12253" lon="2.75841">
        <ele>181</ele>
        <time>2010-01-01T04:27:38Z</time>
      </trkpt>
      <trkpt lat="42.12253" lon="2.75864">
        <ele>180</ele>
        <time>2010-01-01T04:27:45Z</time>
      </trkpt>
      <trkpt lat="42.12253" lon="2.75874">
        <ele>180</ele>
        <time>2010-01-01T04:27:48Z</time>
      </trkpt>
      <trkpt lat="42.12255" lon="2.75887">
        <ele>180</ele>
        <time>2010-01-01T04:27:52Z</time>
      </trkpt>
      <trkpt lat="42.12255" lon="2.75888">
        <ele>180</ele>
        <time>2010-01-01T04:27:52Z</time>
      </trkpt>
      <trkpt lat="42.12255" lon="2.75888">
        <ele>180</ele>
        <time>2010-01-01T04:27:52Z</time>
      </trkpt>
      <trkpt lat="42.12257" lon="2.75896">
        <ele>179</ele>
        <time>2010-01-01T04:27:54Z</time>
      </trkpt>
      <trkpt lat="42.12271" lon="2.75899">
        <ele>179</ele>
        <time>2010-01-01T04:28:00Z</time>
      </trkpt>
      <trkpt lat="42.12279" lon="2.75898">
        <ele>180</ele>
        <time>2010-01-01T04:28:03Z</time>
      </trkpt>
      <trkpt lat="42.12286" lon="2.75901">
        <ele>180</ele>
        <time>2010-01-01T04:28:06Z</time>
      </trkpt>
      <trkpt lat="42.12296" lon="2.75902">
        <ele>180</ele>
        <time>2010-01-01T04:28:10Z</time>
      </trkpt>
      <trkpt lat="42.12303" lon="2.75907">
        <ele>179</ele>
        <time>2010-01-01T04:28:14Z</time>
      </trkpt>
      <trkpt lat="42.12329" lon="2.75922">
        <ele>179</ele>
        <time>2010-01-01T04:28:25Z</time>
      </trkpt>
      <trkpt lat="42.12336" lon="2.75927">
        <ele>179</ele>
        <time>2010-01-01T04:28:28Z</time>
      </trkpt>
      <trkpt lat="42.1234" lon="2.7593">
        <ele>178</ele>
        <time>2010-01-01T04:28:30Z</time>
      </trkpt>
      <trkpt lat="42.12347" lon="2.75932">
        <ele>178</ele>
        <time>2010-01-01T04:28:33Z</time>
      </trkpt>
      <trkpt lat="42.12353" lon="2.75932">
        <ele>178</ele>
        <time>2010-01-01T04:28:35Z</time>
      </trkpt>
      <trkpt lat="42.1236" lon="2.75932">
        <ele>178</ele>
        <time>2010-01-01T04:28:38Z</time>
      </trkpt>
      <trkpt lat="42.12366" lon="2.75931">
        <ele>177</ele>
        <time>2010-01-01T04:28:40Z</time>
      </trkpt>
      <trkpt lat="42.12369" lon="2.75929">
        <ele>177</ele>
        <time>2010-01-01T04:28:42Z</time>
      </trkpt>
      <trkpt lat="42.12376" lon="2.75927">
        <ele>177</ele>
        <time>2010-01-01T04:28:45Z</time>
      </trkpt>
      <trkpt lat="42.12399" lon="2.75926">
        <ele>176</ele>
        <time>2010-01-01T04:28:54Z</time>
      </trkpt>
      <trkpt lat="42.1241" lon="2.75925">
        <ele>175</ele>
        <time>2010-01-01T04:28:58Z</time>
      </trkpt>
      <trkpt lat="42.1242" lon="2.75925">
        <ele>174</ele>
        <time>2010-01-01T04:29:02Z</time>
      </trkpt>
      <trkpt lat="42.12431" lon="2.75924">
        <ele>174</ele>
        <time>2010-01-01T04:29:06Z</time>
      </trkpt>
      <trkpt lat="42.12438" lon="2.75922">
        <ele>174</ele>
        <time>2010-01-01T04:29:09Z</time>
      </trkpt>
      <trkpt lat="42.12446" lon="2.75922">
        <ele>174</ele>
        <time>2010-01-01T04:29:12Z</time>
      </trkpt>
      <trkpt lat="42.12449" lon="2.75926">
        <ele>174</ele>
        <time>2010-01-01T04:29:14Z</time>
      </trkpt>
      <trkpt lat="42.12456" lon="2.75931">
        <ele>175</ele>
        <time>2010-01-01T04:29:17Z</time>
      </trkpt>
      <trkpt lat="42.12459" lon="2.75937">
        <ele>175</ele>
        <time>2010-01-01T04:29:20Z</time>
      </trkpt>
      <trkpt lat="42.1246" lon="2.75941">
        <ele>175</ele>
        <time>2010-01-01T04:29:21Z</time>
      </trkpt>
      <trkpt lat="42.1246" lon="2.75941">
        <ele>175</ele>
        <time>2010-01-01T04:29:21Z</time>
      </trkpt>
      <trkpt lat="42.1246" lon="2.7596">
        <ele>175</ele>
        <time>2010-01-01T04:29:26Z</time>
      </trkpt>
      <trkpt lat="42.1246" lon="2.7596">
        <ele>175</ele>
        <time>2010-01-01T04:29:27Z</time>
      </trkpt>
      <trkpt lat="42.1246" lon="2.7598">
        <ele>175</ele>
        <time>2010-01-01T04:29:32Z</time>
      </trkpt>
      <trkpt lat="42.12461" lon="2.75995">
        <ele>175</ele>
        <time>2010-01-01T04:29:37Z</time>
      </trkpt>
      <trkpt lat="42.12461" lon="2.75995">
        <ele>175</ele>
        <time>2010-01-01T04:29:37Z</time>
      </trkpt>
      <trkpt lat="42.12461" lon="2.76004">
        <ele>175</ele>
        <time>2010-01-01T04:29:39Z</time>
      </trkpt>
      <trkpt lat="42.12463" lon="2.76014">
        <ele>175</ele>
        <time>2010-01-01T04:29:42Z</time>
      </trkpt>
      <trkpt lat="42.12462" lon="2.76027">
        <ele>176</ele>
        <time>2010-01-01T04:29:46Z</time>
      </trkpt>
      <trkpt lat="42.12462" lon="2.76028">
        <ele>176</ele>
        <time>2010-01-01T04:29:47Z</time>
      </trkpt>
      <trkpt lat="42.12462" lon="2.76043">
        <ele>176</ele>
        <time>2010-01-01T04:29:51Z</time>
      </trkpt>
      <trkpt lat="42.12464" lon="2.76057">
        <ele>176</ele>
        <time>2010-01-01T04:29:55Z</time>
      </trkpt>
      <trkpt lat="42.12466" lon="2.76069">
        <ele>177</ele>
        <time>2010-01-01T04:29:59Z</time>
      </trkpt>
      <trkpt lat="42.12465" lon="2.76081">
        <ele>177</ele>
        <time>2010-01-01T04:30:03Z</time>
      </trkpt>
      <trkpt lat="42.12464" lon="2.76097">
        <ele>178</ele>
        <time>2010-01-01T04:30:07Z</time>
      </trkpt>
      <trkpt lat="42.12465" lon="2.76113">
        <ele>178</ele>
        <time>2010-01-01T04:30:12Z</time>
      </trkpt>
      <trkpt lat="42.12472" lon="2.76147">
        <ele>179</ele>
        <time>2010-01-01T04:30:23Z</time>
      </trkpt>
      <trkpt lat="42.12476" lon="2.76159">
        <ele>178</ele>
        <time>2010-01-01T04:30:27Z</time>
      </trkpt>
      <trkpt lat="42.12478" lon="2.76173">
        <ele>178</ele>
        <time>2010-01-01T04:30:31Z</time>
      </trkpt>
      <trkpt lat="42.12479" lon="2.76183">
        <ele>179</ele>
        <time>2010-01-01T04:30:34Z</time>
      </trkpt>
      <trkpt lat="42.12479" lon="2.76184">
        <ele>179</ele>
        <time>2010-01-01T04:30:34Z</time>
      </trkpt>
      <trkpt lat="42.1248" lon="2.76192">
        <ele>179</ele>
        <time>2010-01-01T04:30:37Z</time>
      </trkpt>
      <trkpt lat="42.12484" lon="2.76201">
        <ele>179</ele>
        <time>2010-01-01T04:30:39Z</time>
      </trkpt>
      <trkpt lat="42.125" lon="2.76236">
        <ele>178</ele>
        <time>2010-01-01T04:30:52Z</time>
      </trkpt>
      <trkpt lat="42.12503" lon="2.76244">
        <ele>178</ele>
        <time>2010-01-01T04:30:54Z</time>
      </trkpt>
      <trkpt lat="42.12507" lon="2.76248">
        <ele>178</ele>
        <time>2010-01-01T04:30:56Z</time>
      </trkpt>
      <trkpt lat="42.1251" lon="2.76253">
        <ele>178</ele>
        <time>2010-01-01T04:30:58Z</time>
      </trkpt>
      <trkpt lat="42.1252" lon="2.7626">
        <ele>178</ele>
        <time>2010-01-01T04:31:03Z</time>
      </trkpt>
      <trkpt lat="42.12524" lon="2.76264">
        <ele>178</ele>
        <time>2010-01-01T04:31:05Z</time>
      </trkpt>
      <trkpt lat="42.12529" lon="2.76265">
        <ele>178</ele>
        <time>2010-01-01T04:31:07Z</time>
      </trkpt>
      <trkpt lat="42.12532" lon="2.76266">
        <ele>178</ele>
        <time>2010-01-01T04:31:08Z</time>
      </trkpt>
      <trkpt lat="42.12535" lon="2.76272">
        <ele>179</ele>
        <time>2010-01-01T04:31:10Z</time>
      </trkpt>
      <trkpt lat="42.1254" lon="2.76296">
        <ele>179</ele>
        <time>2010-01-01T04:31:18Z</time>
      </trkpt>
      <trkpt lat="42.1254" lon="2.76304">
        <ele>179</ele>
        <time>2010-01-01T04:31:20Z</time>
      </trkpt>
      <trkpt lat="42.12554" lon="2.76336">
        <ele>178</ele>
        <time>2010-01-01T04:31:31Z</time>
      </trkpt>
      <trkpt lat="42.12558" lon="2.76346">
        <ele>178</ele>
        <time>2010-01-01T04:31:34Z</time>
      </trkpt>
      <trkpt lat="42.1256" lon="2.76351">
        <ele>178</ele>
        <time>2010-01-01T04:31:36Z</time>
      </trkpt>
      <trkpt lat="42.12561" lon="2.76358">
        <ele>178</ele>
        <time>2010-01-01T04:31:38Z</time>
      </trkpt>
      <trkpt lat="42.12564" lon="2.76367">
        <ele>178</ele>
        <time>2010-01-01T04:31:41Z</time>
      </trkpt>
      <trkpt lat="42.12564" lon="2.76368">
        <ele>178</ele>
        <time>2010-01-01T04:31:41Z</time>
      </trkpt>
      <trkpt lat="42.12567" lon="2.76376">
        <ele>179</ele>
        <time>2010-01-01T04:31:44Z</time>
      </trkpt>
      <trkpt lat="42.12568" lon="2.76382">
        <ele>179</ele>
        <time>2010-01-01T04:31:46Z</time>
      </trkpt>
      <trkpt lat="42.1257" lon="2.76386">
        <ele>179</ele>
        <time>2010-01-01T04:31:47Z</time>
      </trkpt>
      <trkpt lat="42.12568" lon="2.76394">
        <ele>180</ele>
        <time>2010-01-01T04:31:50Z</time>
      </trkpt>
      <trkpt lat="42.12565" lon="2.76398">
        <ele>181</ele>
        <time>2010-01-01T04:31:51Z</time>
      </trkpt>
      <trkpt lat="42.1256" lon="2.76403">
        <ele>181</ele>
        <time>2010-01-01T04:31:54Z</time>
      </trkpt>
      <trkpt lat="42.12555" lon="2.76408">
        <ele>182</ele>
        <time>2010-01-01T04:31:56Z</time>
      </trkpt>
      <trkpt lat="42.12557" lon="2.76404">
        <ele>182</ele>
        <time>2010-01-01T04:31:58Z</time>
      </trkpt>
      <trkpt lat="42.12582" lon="2.76436">
        <ele>184</ele>
        <time>2010-01-01T04:32:11Z</time>
      </trkpt>
      <trkpt lat="42.12602" lon="2.76437">
        <ele>185</ele>
        <time>2010-01-01T04:32:19Z</time>
      </trkpt>
      <trkpt lat="42.12624" lon="2.76436">
        <ele>188</ele>
        <time>2010-01-01T04:32:28Z</time>
      </trkpt>
      <trkpt lat="42.12652" lon="2.76438">
        <ele>191</ele>
        <time>2010-01-01T04:32:39Z</time>
      </trkpt>
      <trkpt lat="42.12687" lon="2.7644">
        <ele>194</ele>
        <time>2010-01-01T04:32:53Z</time>
      </trkpt>
      <trkpt lat="42.1272" lon="2.76436">
        <ele>194</ele>
        <time>2010-01-01T04:33:07Z</time>
      </trkpt>
      <trkpt lat="42.12747" lon="2.76431">
        <ele>198</ele>
        <time>2010-01-01T04:33:18Z</time>
      </trkpt>
      <trkpt lat="42.12764" lon="2.76427">
        <ele>200</ele>
        <time>2010-01-01T04:33:24Z</time>
      </trkpt>
      <trkpt lat="42.12786" lon="2.76422">
        <ele>203</ele>
        <time>2010-01-01T04:33:34Z</time>
      </trkpt>
      <trkpt lat="42.12809" lon="2.76417">
        <ele>205</ele>
        <time>2010-01-01T04:33:43Z</time>
      </trkpt>
      <trkpt lat="42.12829" lon="2.76408">
        <ele>206</ele>
        <time>2010-01-01T04:33:51Z</time>
      </trkpt>
      <trkpt lat="42.1285" lon="2.76394">
        <ele>208</ele>
        <time>2010-01-01T04:34:00Z</time>
      </trkpt>
      <trkpt lat="42.12868" lon="2.76382">
        <ele>211</ele>
        <time>2010-01-01T04:34:09Z</time>
      </trkpt>
      <trkpt lat="42.12873" lon="2.7638">
        <ele>212</ele>
        <time>2010-01-01T04:34:11Z</time>
      </trkpt>
      <trkpt lat="42.12891" lon="2.76381">
        <ele>214</ele>
        <time>2010-01-01T04:34:18Z</time>
      </trkpt>
      <trkpt lat="42.12895" lon="2.7638">
        <ele>215</ele>
        <time>2010-01-01T04:34:20Z</time>
      </trkpt>
      <trkpt lat="42.12897" lon="2.7638">
        <ele>215</ele>
        <time>2010-01-01T04:34:20Z</time>
      </trkpt>
      <trkpt lat="42.129" lon="2.76379">
        <ele>215</ele>
        <time>2010-01-01T04:34:22Z</time>
      </trkpt>
      <trkpt lat="42.12904" lon="2.76378">
        <ele>216</ele>
        <time>2010-01-01T04:34:23Z</time>
      </trkpt>
      <trkpt lat="42.12925" lon="2.76376">
        <ele>219</ele>
        <time>2010-01-01T04:34:32Z</time>
      </trkpt>
      <trkpt lat="42.1295" lon="2.7638">
        <ele>221</ele>
        <time>2010-01-01T04:34:42Z</time>
      </trkpt>
      <trkpt lat="42.12973" lon="2.76386">
        <ele>223</ele>
        <time>2010-01-01T04:34:51Z</time>
      </trkpt>
      <trkpt lat="42.12987" lon="2.76386">
        <ele>224</ele>
        <time>2010-01-01T04:34:57Z</time>
      </trkpt>
      <trkpt lat="42.13008" lon="2.76394">
        <ele>225</ele>
        <time>2010-01-01T04:35:06Z</time>
      </trkpt>
      <trkpt lat="42.13014" lon="2.76393">
        <ele>225</ele>
        <time>2010-01-01T04:35:08Z</time>
      </trkpt>
      <trkpt lat="42.13018" lon="2.76394">
        <ele>226</ele>
        <time>2010-01-01T04:35:09Z</time>
      </trkpt>
      <trkpt lat="42.13042" lon="2.76404">
        <ele>227</ele>
        <time>2010-01-01T04:35:20Z</time>
      </trkpt>
      <trkpt lat="42.13062" lon="2.76424">
        <ele>227</ele>
        <time>2010-01-01T04:35:30Z</time>
      </trkpt>
      <trkpt lat="42.13068" lon="2.76429">
        <ele>227</ele>
        <time>2010-01-01T04:35:32Z</time>
      </trkpt>
      <trkpt lat="42.13069" lon="2.76429">
        <ele>227</ele>
        <time>2010-01-01T04:35:33Z</time>
      </trkpt>
      <trkpt lat="42.13093" lon="2.76431">
        <ele>229</ele>
        <time>2010-01-01T04:35:42Z</time>
      </trkpt>
      <trkpt lat="42.131" lon="2.76432">
        <ele>229</ele>
        <time>2010-01-01T04:35:45Z</time>
      </trkpt>
      <trkpt lat="42.13123" lon="2.76441">
        <ele>229</ele>
        <time>2010-01-01T04:35:55Z</time>
      </trkpt>
      <trkpt lat="42.13148" lon="2.76436">
        <ele>230</ele>
        <time>2010-01-01T04:36:05Z</time>
      </trkpt>
      <trkpt lat="42.13167" lon="2.76427">
        <ele>233</ele>
        <time>2010-01-01T04:36:13Z</time>
      </trkpt>
      <trkpt lat="42.13177" lon="2.7642">
        <ele>234</ele>
        <time>2010-01-01T04:36:17Z</time>
      </trkpt>
      <trkpt lat="42.13186" lon="2.7641">
        <ele>235</ele>
        <time>2010-01-01T04:36:22Z</time>
      </trkpt>
      <trkpt lat="42.13189" lon="2.76404">
        <ele>236</ele>
        <time>2010-01-01T04:36:24Z</time>
      </trkpt>
      <trkpt lat="42.13184" lon="2.76401">
        <ele>236</ele>
        <time>2010-01-01T04:36:27Z</time>
      </trkpt>
      <trkpt lat="42.1318" lon="2.76396">
        <ele>237</ele>
        <time>2010-01-01T04:36:29Z</time>
      </trkpt>
      <trkpt lat="42.13176" lon="2.7639">
        <ele>237</ele>
        <time>2010-01-01T04:36:31Z</time>
      </trkpt>
      <trkpt lat="42.13175" lon="2.76389">
        <ele>238</ele>
        <time>2010-01-01T04:36:32Z</time>
      </trkpt>
      <trkpt lat="42.13172" lon="2.76384">
        <ele>238</ele>
        <time>2010-01-01T04:36:33Z</time>
      </trkpt>
      <trkpt lat="42.13169" lon="2.76376">
        <ele>238</ele>
        <time>2010-01-01T04:36:36Z</time>
      </trkpt>
      <trkpt lat="42.13166" lon="2.76355">
        <ele>239</ele>
        <time>2010-01-01T04:36:42Z</time>
      </trkpt>
      <trkpt lat="42.13165" lon="2.76352">
        <ele>239</ele>
        <time>2010-01-01T04:36:43Z</time>
      </trkpt>
      <trkpt lat="42.1317" lon="2.76352">
        <ele>239</ele>
        <time>2010-01-01T04:36:45Z</time>
      </trkpt>
      <trkpt lat="42.13179" lon="2.76352">
        <ele>239</ele>
        <time>2010-01-01T04:36:49Z</time>
      </trkpt>
      <trkpt lat="42.13181" lon="2.7633">
        <ele>239</ele>
        <time>2010-01-01T04:36:56Z</time>
      </trkpt>
      <trkpt lat="42.13178" lon="2.76325">
        <ele>238</ele>
        <time>2010-01-01T04:36:57Z</time>
      </trkpt>
      <trkpt lat="42.13177" lon="2.76324">
        <ele>238</ele>
        <time>2010-01-01T04:36:58Z</time>
      </trkpt>
      <trkpt lat="42.13175" lon="2.76325">
        <ele>238</ele>
        <time>2010-01-01T04:36:59Z</time>
      </trkpt>
      <trkpt lat="42.13176" lon="2.76325">
        <ele>238</ele>
        <time>2010-01-01T04:36:59Z</time>
      </trkpt>
      <trkpt lat="42.13178" lon="2.76324">
        <ele>238</ele>
        <time>2010-01-01T04:37:00Z</time>
      </trkpt>
      <trkpt lat="42.13179" lon="2.76309">
        <ele>236</ele>
        <time>2010-01-01T04:37:04Z</time>
      </trkpt>
      <trkpt lat="42.13181" lon="2.76306">
        <ele>236</ele>
        <time>2010-01-01T04:37:06Z</time>
      </trkpt>
      <trkpt lat="42.13181" lon="2.76305">
        <ele>236</ele>
        <time>2010-01-01T04:37:06Z</time>
      </trkpt>
      <trkpt lat="42.13189" lon="2.76304">
        <ele>236</ele>
        <time>2010-01-01T04:37:09Z</time>
      </trkpt>
      <trkpt lat="42.13206" lon="2.76304">
        <ele>235</ele>
        <time>2010-01-01T04:37:16Z</time>
      </trkpt>
      <trkpt lat="42.13225" lon="2.76304">
        <ele>232</ele>
        <time>2010-01-01T04:37:24Z</time>
      </trkpt>
      <trkpt lat="42.1324" lon="2.76301">
        <ele>230</ele>
        <time>2010-01-01T04:37:29Z</time>
      </trkpt>
      <trkpt lat="42.13241" lon="2.76301">
        <ele>230</ele>
        <time>2010-01-01T04:37:30Z</time>
      </trkpt>
      <trkpt lat="42.13255" lon="2.76303">
        <ele>228</ele>
        <time>2010-01-01T04:37:36Z</time>
      </trkpt>
      <trkpt lat="42.13278" lon="2.76307">
        <ele>225</ele>
        <time>2010-01-01T04:37:45Z</time>
      </trkpt>
      <trkpt lat="42.13298" lon="2.76309">
        <ele>226</ele>
        <time>2010-01-01T04:37:53Z</time>
      </trkpt>
      <trkpt lat="42.13311" lon="2.76299">
        <ele>226</ele>
        <time>2010-01-01T04:37:59Z</time>
      </trkpt>
      <trkpt lat="42.13329" lon="2.76286">
        <ele>226</ele>
        <time>2010-01-01T04:38:07Z</time>
      </trkpt>
      <trkpt lat="42.13347" lon="2.7627">
        <ele>224</ele>
        <time>2010-01-01T04:38:16Z</time>
      </trkpt>
      <trkpt lat="42.13369" lon="2.7626">
        <ele>222</ele>
        <time>2010-01-01T04:38:25Z</time>
      </trkpt>
      <trkpt lat="42.13391" lon="2.76257">
        <ele>222</ele>
        <time>2010-01-01T04:38:34Z</time>
      </trkpt>
      <trkpt lat="42.13412" lon="2.76249">
        <ele>221</ele>
        <time>2010-01-01T04:38:43Z</time>
      </trkpt>
      <trkpt lat="42.13414" lon="2.76248">
        <ele>220</ele>
        <time>2010-01-01T04:38:44Z</time>
      </trkpt>
      <trkpt lat="42.13422" lon="2.76246">
        <ele>220</ele>
        <time>2010-01-01T04:38:47Z</time>
      </trkpt>
      <trkpt lat="42.1343" lon="2.76245">
        <ele>221</ele>
        <time>2010-01-01T04:38:50Z</time>
      </trkpt>
      <trkpt lat="42.13452" lon="2.7624">
        <ele>222</ele>
        <time>2010-01-01T04:38:59Z</time>
      </trkpt>
      <trkpt lat="42.13474" lon="2.76237">
        <ele>224</ele>
        <time>2010-01-01T04:39:08Z</time>
      </trkpt>
      <trkpt lat="42.13496" lon="2.76255">
        <ele>224</ele>
        <time>2010-01-01T04:39:18Z</time>
      </trkpt>
      <trkpt lat="42.13516" lon="2.76267">
        <ele>224</ele>
        <time>2010-01-01T04:39:27Z</time>
      </trkpt>
      <trkpt lat="42.13522" lon="2.76279">
        <ele>224</ele>
        <time>2010-01-01T04:39:31Z</time>
      </trkpt>
      <trkpt lat="42.1354" lon="2.7629">
        <ele>226</ele>
        <time>2010-01-01T04:39:40Z</time>
      </trkpt>
      <trkpt lat="42.13571" lon="2.76303">
        <ele>228</ele>
        <time>2010-01-01T04:39:52Z</time>
      </trkpt>
      <trkpt lat="42.13592" lon="2.76312">
        <ele>230</ele>
        <time>2010-01-01T04:40:01Z</time>
      </trkpt>
      <trkpt lat="42.13609" lon="2.76318">
        <ele>230</ele>
        <time>2010-01-01T04:40:08Z</time>
      </trkpt>
      <trkpt lat="42.13631" lon="2.76326">
        <ele>230</ele>
        <time>2010-01-01T04:40:17Z</time>
      </trkpt>
      <trkpt lat="42.13661" lon="2.76335">
        <ele>231</ele>
        <time>2010-01-01T04:40:30Z</time>
      </trkpt>
      <trkpt lat="42.13684" lon="2.7634">
        <ele>230</ele>
        <time>2010-01-01T04:40:39Z</time>
      </trkpt>
      <trkpt lat="42.13705" lon="2.76342">
        <ele>229</ele>
        <time>2010-01-01T04:40:48Z</time>
      </trkpt>
      <trkpt lat="42.13712" lon="2.76343">
        <ele>229</ele>
        <time>2010-01-01T04:40:50Z</time>
      </trkpt>
      <trkpt lat="42.1373" lon="2.76341">
        <ele>229</ele>
        <time>2010-01-01T04:40:58Z</time>
      </trkpt>
      <trkpt lat="42.13752" lon="2.76337">
        <ele>228</ele>
        <time>2010-01-01T04:41:06Z</time>
      </trkpt>
      <trkpt lat="42.13775" lon="2.76342">
        <ele>227</ele>
        <time>2010-01-01T04:41:16Z</time>
      </trkpt>
      <trkpt lat="42.13801" lon="2.76349">
        <ele>225</ele>
        <time>2010-01-01T04:41:26Z</time>
      </trkpt>
      <trkpt lat="42.13829" lon="2.76354">
        <ele>225</ele>
        <time>2010-01-01T04:41:37Z</time>
      </trkpt>
      <trkpt lat="42.13852" lon="2.76354">
        <ele>225</ele>
        <time>2010-01-01T04:41:47Z</time>
      </trkpt>
      <trkpt lat="42.13872" lon="2.76338">
        <ele>224</ele>
        <time>2010-01-01T04:41:56Z</time>
      </trkpt>
      <trkpt lat="42.13895" lon="2.76334">
        <ele>224</ele>
        <time>2010-01-01T04:42:05Z</time>
      </trkpt>
      <trkpt lat="42.13924" lon="2.76344">
        <ele>225</ele>
        <time>2010-01-01T04:42:17Z</time>
      </trkpt>
      <trkpt lat="42.13943" lon="2.76351">
        <ele>227</ele>
        <time>2010-01-01T04:42:25Z</time>
      </trkpt>
      <trkpt lat="42.13969" lon="2.76356">
        <ele>228</ele>
        <time>2010-01-01T04:42:36Z</time>
      </trkpt>
      <trkpt lat="42.13996" lon="2.76347">
        <ele>228</ele>
        <time>2010-01-01T04:42:47Z</time>
      </trkpt>
      <trkpt lat="42.14015" lon="2.7632">
        <ele>227</ele>
        <time>2010-01-01T04:42:58Z</time>
      </trkpt>
      <trkpt lat="42.14039" lon="2.76276">
        <ele>227</ele>
        <time>2010-01-01T04:43:14Z</time>
      </trkpt>
      <trkpt lat="42.14054" lon="2.7625">
        <ele>227</ele>
        <time>2010-01-01T04:43:24Z</time>
      </trkpt>
      <trkpt lat="42.14067" lon="2.7623">
        <ele>228</ele>
        <time>2010-01-01T04:43:32Z</time>
      </trkpt>
      <trkpt lat="42.14083" lon="2.76217">
        <ele>228</ele>
        <time>2010-01-01T04:43:39Z</time>
      </trkpt>
      <trkpt lat="42.14113" lon="2.76192">
        <ele>227</ele>
        <time>2010-01-01T04:43:53Z</time>
      </trkpt>
      <trkpt lat="42.14145" lon="2.76166">
        <ele>226</ele>
        <time>2010-01-01T04:44:09Z</time>
      </trkpt>
      <trkpt lat="42.14178" lon="2.76139">
        <ele>227</ele>
        <time>2010-01-01T04:44:24Z</time>
      </trkpt>
      <trkpt lat="42.14204" lon="2.76119">
        <ele>227</ele>
        <time>2010-01-01T04:44:36Z</time>
      </trkpt>
      <trkpt lat="42.1423" lon="2.76102">
        <ele>226</ele>
        <time>2010-01-01T04:44:48Z</time>
      </trkpt>
      <trkpt lat="42.14259" lon="2.76081">
        <ele>225</ele>
        <time>2010-01-01T04:45:00Z</time>
      </trkpt>
      <trkpt lat="42.14288" lon="2.76062">
        <ele>225</ele>
        <time>2010-01-01T04:45:14Z</time>
      </trkpt>
      <trkpt lat="42.14318" lon="2.7604">
        <ele>225</ele>
        <time>2010-01-01T04:45:27Z</time>
      </trkpt>
      <trkpt lat="42.14349" lon="2.76017">
        <ele>226</ele>
        <time>2010-01-01T04:45:41Z</time>
      </trkpt>
      <trkpt lat="42.14383" lon="2.75991">
        <ele>227</ele>
        <time>2010-01-01T04:45:57Z</time>
      </trkpt>
      <trkpt lat="42.14411" lon="2.75968">
        <ele>227</ele>
        <time>2010-01-01T04:46:10Z</time>
      </trkpt>
      <trkpt lat="42.14438" lon="2.75948">
        <ele>226</ele>
        <time>2010-01-01T04:46:22Z</time>
      </trkpt>
      <trkpt lat="42.14466" lon="2.75932">
        <ele>226</ele>
        <time>2010-01-01T04:46:34Z</time>
      </trkpt>
      <trkpt lat="42.14492" lon="2.75919">
        <ele>226</ele>
        <time>2010-01-01T04:46:46Z</time>
      </trkpt>
      <trkpt lat="42.14518" lon="2.75908">
        <ele>226</ele>
        <time>2010-01-01T04:46:57Z</time>
      </trkpt>
      <trkpt lat="42.14557" lon="2.75901">
        <ele>228</ele>
        <time>2010-01-01T04:47:12Z</time>
      </trkpt>
      <trkpt lat="42.14598" lon="2.75892">
        <ele>230</ele>
        <time>2010-01-01T04:47:29Z</time>
      </trkpt>
      <trkpt lat="42.14636" lon="2.75878">
        <ele>230</ele>
        <time>2010-01-01T04:47:45Z</time>
      </trkpt>
      <trkpt lat="42.14672" lon="2.75867">
        <ele>230</ele>
        <time>2010-01-01T04:47:59Z</time>
      </trkpt>
      <trkpt lat="42.14685" lon="2.75864">
        <ele>230</ele>
        <time>2010-01-01T04:48:05Z</time>
      </trkpt>
      <trkpt lat="42.14713" lon="2.75855">
        <ele>228</ele>
        <time>2010-01-01T04:48:16Z</time>
      </trkpt>
      <trkpt lat="42.1475" lon="2.7584">
        <ele>227</ele>
        <time>2010-01-01T04:48:32Z</time>
      </trkpt>
      <trkpt lat="42.14776" lon="2.75827">
        <ele>228</ele>
        <time>2010-01-01T04:48:43Z</time>
      </trkpt>
      <trkpt lat="42.14798" lon="2.75814">
        <ele>228</ele>
        <time>2010-01-01T04:48:52Z</time>
      </trkpt>
      <trkpt lat="42.14829" lon="2.75797">
        <ele>229</ele>
        <time>2010-01-01T04:49:06Z</time>
      </trkpt>
      <trkpt lat="42.14862" lon="2.75781">
        <ele>230</ele>
        <time>2010-01-01T04:49:20Z</time>
      </trkpt>
      <trkpt lat="42.14892" lon="2.75762">
        <ele>232</ele>
        <time>2010-01-01T04:49:33Z</time>
      </trkpt>
      <trkpt lat="42.14905" lon="2.75738">
        <ele>232</ele>
        <time>2010-01-01T04:49:42Z</time>
      </trkpt>
      <trkpt lat="42.14908" lon="2.7572">
        <ele>231</ele>
        <time>2010-01-01T04:49:47Z</time>
      </trkpt>
      <trkpt lat="42.14908" lon="2.7571">
        <ele>231</ele>
        <time>2010-01-01T04:49:50Z</time>
      </trkpt>
      <trkpt lat="42.14902" lon="2.75679">
        <ele>229</ele>
        <time>2010-01-01T04:50:00Z</time>
      </trkpt>
      <trkpt lat="42.14896" lon="2.75667">
        <ele>229</ele>
        <time>2010-01-01T04:50:04Z</time>
      </trkpt>
      <trkpt lat="42.14897" lon="2.75661">
        <ele>229</ele>
        <time>2010-01-01T04:50:06Z</time>
      </trkpt>
      <trkpt lat="42.14892" lon="2.75649">
        <ele>230</ele>
        <time>2010-01-01T04:50:10Z</time>
      </trkpt>
      <trkpt lat="42.1489" lon="2.75637">
        <ele>232</ele>
        <time>2010-01-01T04:50:14Z</time>
      </trkpt>
      <trkpt lat="42.14882" lon="2.75609">
        <ele>233</ele>
        <time>2010-01-01T04:50:23Z</time>
      </trkpt>
      <trkpt lat="42.14883" lon="2.75582">
        <ele>233</ele>
        <time>2010-01-01T04:50:30Z</time>
      </trkpt>
      <trkpt lat="42.14885" lon="2.7558">
        <ele>233</ele>
        <time>2010-01-01T04:50:32Z</time>
      </trkpt>
      <trkpt lat="42.14906" lon="2.75579">
        <ele>233</ele>
        <time>2010-01-01T04:50:40Z</time>
      </trkpt>
      <trkpt lat="42.14931" lon="2.7558">
        <ele>232</ele>
        <time>2010-01-01T04:50:50Z</time>
      </trkpt>
      <trkpt lat="42.14934" lon="2.75577">
        <ele>232</ele>
        <time>2010-01-01T04:50:51Z</time>
      </trkpt>
      <trkpt lat="42.14935" lon="2.75576">
        <ele>232</ele>
        <time>2010-01-01T04:50:52Z</time>
      </trkpt>
      <trkpt lat="42.14938" lon="2.75574">
        <ele>232</ele>
        <time>2010-01-01T04:50:54Z</time>
      </trkpt>
      <trkpt lat="42.14941" lon="2.75572">
        <ele>232</ele>
        <time>2010-01-01T04:50:55Z</time>
      </trkpt>
      <trkpt lat="42.14936" lon="2.75574">
        <ele>232</ele>
        <time>2010-01-01T04:50:57Z</time>
      </trkpt>
      <trkpt lat="42.14936" lon="2.75574">
        <ele>232</ele>
        <time>2010-01-01T04:50:57Z</time>
      </trkpt>
      <trkpt lat="42.1494" lon="2.75571">
        <ele>232</ele>
        <time>2010-01-01T04:50:59Z</time>
      </trkpt>
      <trkpt lat="42.1494" lon="2.7557">
        <ele>232</ele>
        <time>2010-01-01T04:50:59Z</time>
      </trkpt>
      <trkpt lat="42.14943" lon="2.75575">
        <ele>232</ele>
        <time>2010-01-01T04:51:01Z</time>
      </trkpt>
      <trkpt lat="42.14947" lon="2.75587">
        <ele>231</ele>
        <time>2010-01-01T04:51:05Z</time>
      </trkpt>
      <trkpt lat="42.14949" lon="2.75594">
        <ele>231</ele>
        <time>2010-01-01T04:51:07Z</time>
      </trkpt>
      <trkpt lat="42.14949" lon="2.75603">
        <ele>231</ele>
        <time>2010-01-01T04:51:09Z</time>
      </trkpt>
      <trkpt lat="42.1495" lon="2.75604">
        <ele>231</ele>
        <time>2010-01-01T04:51:10Z</time>
      </trkpt>
      <trkpt lat="42.14953" lon="2.75604">
        <ele>231</ele>
        <time>2010-01-01T04:51:11Z</time>
      </trkpt>
      <trkpt lat="42.14953" lon="2.75604">
        <ele>231</ele>
        <time>2010-01-01T04:51:11Z</time>
      </trkpt>
      <trkpt lat="42.14954" lon="2.75599">
        <ele>231</ele>
        <time>2010-01-01T04:51:13Z</time>
      </trkpt>
      <trkpt lat="42.14951" lon="2.75586">
        <ele>231</ele>
        <time>2010-01-01T04:51:17Z</time>
      </trkpt>
      <trkpt lat="42.14947" lon="2.75581">
        <ele>231</ele>
        <time>2010-01-01T04:51:19Z</time>
      </trkpt>
      <trkpt lat="42.14944" lon="2.7557">
        <ele>232</ele>
        <time>2010-01-01T04:51:22Z</time>
      </trkpt>
      <trkpt lat="42.14944" lon="2.75568">
        <ele>232</ele>
        <time>2010-01-01T04:51:23Z</time>
      </trkpt>
      <trkpt lat="42.14948" lon="2.75561">
        <ele>231</ele>
        <time>2010-01-01T04:51:26Z</time>
      </trkpt>
      <trkpt lat="42.14969" lon="2.75544">
        <ele>231</ele>
        <time>2010-01-01T04:51:35Z</time>
      </trkpt>
      <trkpt lat="42.14992" lon="2.75542">
        <ele>231</ele>
        <time>2010-01-01T04:51:45Z</time>
      </trkpt>
      <trkpt lat="42.15006" lon="2.75549">
        <ele>231</ele>
        <time>2010-01-01T04:51:51Z</time>
      </trkpt>
      <trkpt lat="42.15021" lon="2.75556">
        <ele>230</ele>
        <time>2010-01-01T04:51:57Z</time>
      </trkpt>
      <trkpt lat="42.15025" lon="2.75555">
        <ele>230</ele>
        <time>2010-01-01T04:51:59Z</time>
      </trkpt>
      <trkpt lat="42.1504" lon="2.75542">
        <ele>229</ele>
        <time>2010-01-01T04:52:06Z</time>
      </trkpt>
      <trkpt lat="42.15045" lon="2.75534">
        <ele>228</ele>
        <time>2010-01-01T04:52:09Z</time>
      </trkpt>
      <trkpt lat="42.15064" lon="2.75511">
        <ele>227</ele>
        <time>2010-01-01T04:52:19Z</time>
      </trkpt>
      <trkpt lat="42.15081" lon="2.75489">
        <ele>227</ele>
        <time>2010-01-01T04:52:29Z</time>
      </trkpt>
      <trkpt lat="42.15093" lon="2.75459">
        <ele>228</ele>
        <time>2010-01-01T04:52:39Z</time>
      </trkpt>
      <trkpt lat="42.15097" lon="2.75424">
        <ele>229</ele>
        <time>2010-01-01T04:52:49Z</time>
      </trkpt>
      <trkpt lat="42.15093" lon="2.75397">
        <ele>230</ele>
        <time>2010-01-01T04:52:58Z</time>
      </trkpt>
      <trkpt lat="42.15087" lon="2.75365">
        <ele>230</ele>
        <time>2010-01-01T04:53:07Z</time>
      </trkpt>
      <trkpt lat="42.15084" lon="2.75335">
        <ele>229</ele>
        <time>2010-01-01T04:53:16Z</time>
      </trkpt>
      <trkpt lat="42.15078" lon="2.75308">
        <ele>229</ele>
        <time>2010-01-01T04:53:24Z</time>
      </trkpt>
      <trkpt lat="42.15074" lon="2.75284">
        <ele>230</ele>
        <time>2010-01-01T04:53:32Z</time>
      </trkpt>
      <trkpt lat="42.15072" lon="2.75269">
        <ele>231</ele>
        <time>2010-01-01T04:53:36Z</time>
      </trkpt>
      <trkpt lat="42.15069" lon="2.75252">
        <ele>231</ele>
        <time>2010-01-01T04:53:42Z</time>
      </trkpt>
      <trkpt lat="42.15065" lon="2.75231">
        <ele>232</ele>
        <time>2010-01-01T04:53:48Z</time>
      </trkpt>
      <trkpt lat="42.15058" lon="2.75204">
        <ele>232</ele>
        <time>2010-01-01T04:53:56Z</time>
      </trkpt>
      <trkpt lat="42.15057" lon="2.75199">
        <ele>232</ele>
        <time>2010-01-01T04:53:58Z</time>
      </trkpt>
      <trkpt lat="42.15074" lon="2.75196">
        <ele>232</ele>
        <time>2010-01-01T04:54:05Z</time>
      </trkpt>
      <trkpt lat="42.15101" lon="2.75191">
        <ele>230</ele>
        <time>2010-01-01T04:54:15Z</time>
      </trkpt>
      <trkpt lat="42.15122" lon="2.75183">
        <ele>228</ele>
        <time>2010-01-01T04:54:24Z</time>
      </trkpt>
      <trkpt lat="42.15142" lon="2.75177">
        <ele>227</ele>
        <time>2010-01-01T04:54:32Z</time>
      </trkpt>
      <trkpt lat="42.15164" lon="2.7517">
        <ele>226</ele>
        <time>2010-01-01T04:54:42Z</time>
      </trkpt>
      <trkpt lat="42.15188" lon="2.75163">
        <ele>225</ele>
        <time>2010-01-01T04:54:51Z</time>
      </trkpt>
      <trkpt lat="42.15216" lon="2.75149">
        <ele>223</ele>
        <time>2010-01-01T04:55:03Z</time>
      </trkpt>
      <trkpt lat="42.15244" lon="2.75131">
        <ele>221</ele>
        <time>2010-01-01T04:55:16Z</time>
      </trkpt>
      <trkpt lat="42.15262" lon="2.75124">
        <ele>220</ele>
        <time>2010-01-01T04:55:23Z</time>
      </trkpt>
      <trkpt lat="42.15283" lon="2.75123">
        <ele>219</ele>
        <time>2010-01-01T04:55:32Z</time>
      </trkpt>
      <trkpt lat="42.15308" lon="2.75125">
        <ele>219</ele>
        <time>2010-01-01T04:55:42Z</time>
      </trkpt>
      <trkpt lat="42.15334" lon="2.75128">
        <ele>220</ele>
        <time>2010-01-01T04:55:52Z</time>
      </trkpt>
      <trkpt lat="42.15358" lon="2.75133">
        <ele>221</ele>
        <time>2010-01-01T04:56:02Z</time>
      </trkpt>
      <trkpt lat="42.15377" lon="2.75138">
        <ele>221</ele>
        <time>2010-01-01T04:56:09Z</time>
      </trkpt>
      <trkpt lat="42.15399" lon="2.75146">
        <ele>221</ele>
        <time>2010-01-01T04:56:19Z</time>
      </trkpt>
      <trkpt lat="42.15412" lon="2.75151">
        <ele>221</ele>
        <time>2010-01-01T04:56:24Z</time>
      </trkpt>
      <trkpt lat="42.15414" lon="2.75157">
        <ele>221</ele>
        <time>2010-01-01T04:56:26Z</time>
      </trkpt>
      <trkpt lat="42.15428" lon="2.75168">
        <ele>222</ele>
        <time>2010-01-01T04:56:32Z</time>
      </trkpt>
      <trkpt lat="42.15449" lon="2.75174">
        <ele>222</ele>
        <time>2010-01-01T04:56:41Z</time>
      </trkpt>
      <trkpt lat="42.15471" lon="2.75179">
        <ele>221</ele>
        <time>2010-01-01T04:56:50Z</time>
      </trkpt>
      <trkpt lat="42.15474" lon="2.7518">
        <ele>221</ele>
        <time>2010-01-01T04:56:51Z</time>
      </trkpt>
      <trkpt lat="42.15489" lon="2.75187">
        <ele>221</ele>
        <time>2010-01-01T04:56:58Z</time>
      </trkpt>
      <trkpt lat="42.15516" lon="2.75202">
        <ele>221</ele>
        <time>2010-01-01T04:57:09Z</time>
      </trkpt>
      <trkpt lat="42.15542" lon="2.75207">
        <ele>221</ele>
        <time>2010-01-01T04:57:20Z</time>
      </trkpt>
      <trkpt lat="42.15564" lon="2.75209">
        <ele>221</ele>
        <time>2010-01-01T04:57:28Z</time>
      </trkpt>
      <trkpt lat="42.15572" lon="2.75209">
        <ele>221</ele>
        <time>2010-01-01T04:57:32Z</time>
      </trkpt>
      <trkpt lat="42.15584" lon="2.75203">
        <ele>221</ele>
        <time>2010-01-01T04:57:37Z</time>
      </trkpt>
      <trkpt lat="42.15603" lon="2.75197">
        <ele>219</ele>
        <time>2010-01-01T04:57:45Z</time>
      </trkpt>
      <trkpt lat="42.15621" lon="2.75197">
        <ele>219</ele>
        <time>2010-01-01T04:57:52Z</time>
      </trkpt>
      <trkpt lat="42.15632" lon="2.75197">
        <ele>219</ele>
        <time>2010-01-01T04:57:56Z</time>
      </trkpt>
      <trkpt lat="42.15646" lon="2.75205">
        <ele>219</ele>
        <time>2010-01-01T04:58:03Z</time>
      </trkpt>
      <trkpt lat="42.15669" lon="2.75212">
        <ele>218</ele>
        <time>2010-01-01T04:58:12Z</time>
      </trkpt>
      <trkpt lat="42.15695" lon="2.75207">
        <ele>217</ele>
        <time>2010-01-01T04:58:22Z</time>
      </trkpt>
      <trkpt lat="42.15715" lon="2.75198">
        <ele>217</ele>
        <time>2010-01-01T04:58:31Z</time>
      </trkpt>
      <trkpt lat="42.15735" lon="2.752">
        <ele>217</ele>
        <time>2010-01-01T04:58:39Z</time>
      </trkpt>
      <trkpt lat="42.15755" lon="2.75187">
        <ele>217</ele>
        <time>2010-01-01T04:58:48Z</time>
      </trkpt>
      <trkpt lat="42.15775" lon="2.75171">
        <ele>217</ele>
        <time>2010-01-01T04:58:57Z</time>
      </trkpt>
      <trkpt lat="42.15796" lon="2.75155">
        <ele>219</ele>
        <time>2010-01-01T04:59:07Z</time>
      </trkpt>
      <trkpt lat="42.15801" lon="2.75156">
        <ele>219</ele>
        <time>2010-01-01T04:59:09Z</time>
      </trkpt>
      <trkpt lat="42.15808" lon="2.75158">
        <ele>220</ele>
        <time>2010-01-01T04:59:12Z</time>
      </trkpt>
      <trkpt lat="42.1581" lon="2.75154">
        <ele>220</ele>
        <time>2010-01-01T04:59:13Z</time>
      </trkpt>
      <trkpt lat="42.15827" lon="2.75151">
        <ele>222</ele>
        <time>2010-01-01T04:59:20Z</time>
      </trkpt>
      <trkpt lat="42.15849" lon="2.75139">
        <ele>223</ele>
        <time>2010-01-01T04:59:30Z</time>
      </trkpt>
      <trkpt lat="42.1587" lon="2.7513">
        <ele>223</ele>
        <time>2010-01-01T04:59:38Z</time>
      </trkpt>
      <trkpt lat="42.15873" lon="2.75131">
        <ele>222</ele>
        <time>2010-01-01T04:59:39Z</time>
      </trkpt>
      <trkpt lat="42.15894" lon="2.75121">
        <ele>221</ele>
        <time>2010-01-01T04:59:48Z</time>
      </trkpt>
      <trkpt lat="42.15911" lon="2.75099">
        <ele>220</ele>
        <time>2010-01-01T04:59:58Z</time>
      </trkpt>
      <trkpt lat="42.15927" lon="2.75075">
        <ele>218</ele>
        <time>2010-01-01T05:00:07Z</time>
      </trkpt>
      <trkpt lat="42.15931" lon="2.75072">
        <ele>218</ele>
        <time>2010-01-01T05:00:09Z</time>
      </trkpt>
      <trkpt lat="42.15947" lon="2.75051">
        <ele>216</ele>
        <time>2010-01-01T05:00:18Z</time>
      </trkpt>
      <trkpt lat="42.15954" lon="2.75025">
        <ele>216</ele>
        <time>2010-01-01T05:00:26Z</time>
      </trkpt>
      <trkpt lat="42.1597" lon="2.75007">
        <ele>217</ele>
        <time>2010-01-01T05:00:35Z</time>
      </trkpt>
      <trkpt lat="42.15987" lon="2.74996">
        <ele>218</ele>
        <time>2010-01-01T05:00:43Z</time>
      </trkpt>
      <trkpt lat="42.15989" lon="2.74994">
        <ele>218</ele>
        <time>2010-01-01T05:00:43Z</time>
      </trkpt>
      <trkpt lat="42.16004" lon="2.74976">
        <ele>220</ele>
        <time>2010-01-01T05:00:51Z</time>
      </trkpt>
      <trkpt lat="42.16013" lon="2.74949">
        <ele>221</ele>
        <time>2010-01-01T05:01:00Z</time>
      </trkpt>
      <trkpt lat="42.16013" lon="2.74938">
        <ele>221</ele>
        <time>2010-01-01T05:01:04Z</time>
      </trkpt>
      <trkpt lat="42.16016" lon="2.74932">
        <ele>221</ele>
        <time>2010-01-01T05:01:05Z</time>
      </trkpt>
      <trkpt lat="42.16025" lon="2.74908">
        <ele>222</ele>
        <time>2010-01-01T05:01:13Z</time>
      </trkpt>
      <trkpt lat="42.16032" lon="2.74898">
        <ele>223</ele>
        <time>2010-01-01T05:01:18Z</time>
      </trkpt>
      <trkpt lat="42.1604" lon="2.74877">
        <ele>224</ele>
        <time>2010-01-01T05:01:25Z</time>
      </trkpt>
      <trkpt lat="42.16041" lon="2.74854">
        <ele>224</ele>
        <time>2010-01-01T05:01:31Z</time>
      </trkpt>
      <trkpt lat="42.16035" lon="2.74831">
        <ele>224</ele>
        <time>2010-01-01T05:01:39Z</time>
      </trkpt>
      <trkpt lat="42.16035" lon="2.74829">
        <ele>224</ele>
        <time>2010-01-01T05:01:39Z</time>
      </trkpt>
      <trkpt lat="42.16034" lon="2.74826">
        <ele>224</ele>
        <time>2010-01-01T05:01:40Z</time>
      </trkpt>
      <trkpt lat="42.16029" lon="2.74812">
        <ele>224</ele>
        <time>2010-01-01T05:01:45Z</time>
      </trkpt>
      <trkpt lat="42.16027" lon="2.74801">
        <ele>225</ele>
        <time>2010-01-01T05:01:48Z</time>
      </trkpt>
      <trkpt lat="42.16023" lon="2.74793">
        <ele>225</ele>
        <time>2010-01-01T05:01:51Z</time>
      </trkpt>
      <trkpt lat="42.16022" lon="2.74788">
        <ele>225</ele>
        <time>2010-01-01T05:01:52Z</time>
      </trkpt>
      <trkpt lat="42.16022" lon="2.74775">
        <ele>225</ele>
        <time>2010-01-01T05:01:57Z</time>
      </trkpt>
      <trkpt lat="42.16014" lon="2.74754">
        <ele>225</ele>
        <time>2010-01-01T05:02:03Z</time>
      </trkpt>
      <trkpt lat="42.16002" lon="2.74737">
        <ele>224</ele>
        <time>2010-01-01T05:02:10Z</time>
      </trkpt>
      <trkpt lat="42.15989" lon="2.74724">
        <ele>221</ele>
        <time>2010-01-01T05:02:17Z</time>
      </trkpt>
      <trkpt lat="42.1598" lon="2.74708">
        <ele>220</ele>
        <time>2010-01-01T05:02:23Z</time>
      </trkpt>
      <trkpt lat="42.15976" lon="2.74702">
        <ele>219</ele>
        <time>2010-01-01T05:02:25Z</time>
      </trkpt>
      <trkpt lat="42.15968" lon="2.74679">
        <ele>217</ele>
        <time>2010-01-01T05:02:33Z</time>
      </trkpt>
      <trkpt lat="42.15963" lon="2.74662">
        <ele>215</ele>
        <time>2010-01-01T05:02:38Z</time>
      </trkpt>
      <trkpt lat="42.15962" lon="2.74652">
        <ele>214</ele>
        <time>2010-01-01T05:02:41Z</time>
      </trkpt>
      <trkpt lat="42.15955" lon="2.74641">
        <ele>212</ele>
        <time>2010-01-01T05:02:45Z</time>
      </trkpt>
      <trkpt lat="42.1594" lon="2.74631">
        <ele>210</ele>
        <time>2010-01-01T05:02:52Z</time>
      </trkpt>
      <trkpt lat="42.15929" lon="2.7461">
        <ele>209</ele>
        <time>2010-01-01T05:03:00Z</time>
      </trkpt>
      <trkpt lat="42.15922" lon="2.7459">
        <ele>208</ele>
        <time>2010-01-01T05:03:06Z</time>
      </trkpt>
      <trkpt lat="42.1592" lon="2.74576">
        <ele>207</ele>
        <time>2010-01-01T05:03:11Z</time>
      </trkpt>
      <trkpt lat="42.15931" lon="2.74564">
        <ele>205</ele>
        <time>2010-01-01T05:03:16Z</time>
      </trkpt>
      <trkpt lat="42.15948" lon="2.74576">
        <ele>206</ele>
        <time>2010-01-01T05:03:24Z</time>
      </trkpt>
      <trkpt lat="42.15963" lon="2.74592">
        <ele>207</ele>
        <time>2010-01-01T05:03:32Z</time>
      </trkpt>
      <trkpt lat="42.15986" lon="2.74593">
        <ele>206</ele>
        <time>2010-01-01T05:03:41Z</time>
      </trkpt>
      <trkpt lat="42.15998" lon="2.74586">
        <ele>206</ele>
        <time>2010-01-01T05:03:46Z</time>
      </trkpt>
      <trkpt lat="42.16012" lon="2.74582">
        <ele>204</ele>
        <time>2010-01-01T05:03:52Z</time>
      </trkpt>
      <trkpt lat="42.16038" lon="2.74585">
        <ele>202</ele>
        <time>2010-01-01T05:04:02Z</time>
      </trkpt>
      <trkpt lat="42.16043" lon="2.74585">
        <ele>201</ele>
        <time>2010-01-01T05:04:04Z</time>
      </trkpt>
      <trkpt lat="42.16046" lon="2.74581">
        <ele>200</ele>
        <time>2010-01-01T05:04:06Z</time>
      </trkpt>
      <trkpt lat="42.16053" lon="2.74588">
        <ele>200</ele>
        <time>2010-01-01T05:04:09Z</time>
      </trkpt>
      <trkpt lat="42.16057" lon="2.7459">
        <ele>200</ele>
        <time>2010-01-01T05:04:11Z</time>
      </trkpt>
      <trkpt lat="42.16075" lon="2.74604">
        <ele>202</ele>
        <time>2010-01-01T05:04:19Z</time>
      </trkpt>
      <trkpt lat="42.16089" lon="2.74606">
        <ele>202</ele>
        <time>2010-01-01T05:04:25Z</time>
      </trkpt>
      <trkpt lat="42.16109" lon="2.74612">
        <ele>203</ele>
        <time>2010-01-01T05:04:33Z</time>
      </trkpt>
      <trkpt lat="42.16127" lon="2.74618">
        <ele>203</ele>
        <time>2010-01-01T05:04:40Z</time>
      </trkpt>
      <trkpt lat="42.16137" lon="2.74626">
        <ele>204</ele>
        <time>2010-01-01T05:04:45Z</time>
      </trkpt>
      <trkpt lat="42.16158" lon="2.74636">
        <ele>205</ele>
        <time>2010-01-01T05:04:54Z</time>
      </trkpt>
      <trkpt lat="42.1618" lon="2.74641">
        <ele>205</ele>
        <time>2010-01-01T05:05:03Z</time>
      </trkpt>
      <trkpt lat="42.16201" lon="2.74645">
        <ele>206</ele>
        <time>2010-01-01T05:05:11Z</time>
      </trkpt>
      <trkpt lat="42.16211" lon="2.74646">
        <ele>206</ele>
        <time>2010-01-01T05:05:15Z</time>
      </trkpt>
      <trkpt lat="42.16232" lon="2.74648">
        <ele>205</ele>
        <time>2010-01-01T05:05:24Z</time>
      </trkpt>
      <trkpt lat="42.16249" lon="2.74654">
        <ele>205</ele>
        <time>2010-01-01T05:05:31Z</time>
      </trkpt>
      <trkpt lat="42.16256" lon="2.74652">
        <ele>205</ele>
        <time>2010-01-01T05:05:34Z</time>
      </trkpt>
      <trkpt lat="42.16262" lon="2.74649">
        <ele>204</ele>
        <time>2010-01-01T05:05:36Z</time>
      </trkpt>
      <trkpt lat="42.16276" lon="2.74637">
        <ele>203</ele>
        <time>2010-01-01T05:05:43Z</time>
      </trkpt>
      <trkpt lat="42.16291" lon="2.74631">
        <ele>201</ele>
        <time>2010-01-01T05:05:49Z</time>
      </trkpt>
      <trkpt lat="42.16295" lon="2.74631">
        <ele>201</ele>
        <time>2010-01-01T05:05:51Z</time>
      </trkpt>
      <trkpt lat="42.16318" lon="2.74631">
        <ele>199</ele>
        <time>2010-01-01T05:06:00Z</time>
      </trkpt>
      <trkpt lat="42.16338" lon="2.74631">
        <ele>196</ele>
        <time>2010-01-01T05:06:08Z</time>
      </trkpt>
      <trkpt lat="42.16359" lon="2.74635">
        <ele>195</ele>
        <time>2010-01-01T05:06:17Z</time>
      </trkpt>
      <trkpt lat="42.1638" lon="2.74635">
        <ele>195</ele>
        <time>2010-01-01T05:06:25Z</time>
      </trkpt>
      <trkpt lat="42.164" lon="2.74636">
        <ele>195</ele>
        <time>2010-01-01T05:06:33Z</time>
      </trkpt>
      <trkpt lat="42.16409" lon="2.74629">
        <ele>195</ele>
        <time>2010-01-01T05:06:37Z</time>
      </trkpt>
      <trkpt lat="42.16423" lon="2.74609">
        <ele>195</ele>
        <time>2010-01-01T05:06:45Z</time>
      </trkpt>
      <trkpt lat="42.16424" lon="2.74608">
        <ele>195</ele>
        <time>2010-01-01T05:06:46Z</time>
      </trkpt>
      <trkpt lat="42.16439" lon="2.74595">
        <ele>195</ele>
        <time>2010-01-01T05:06:53Z</time>
      </trkpt>
      <trkpt lat="42.16459" lon="2.74591">
        <ele>194</ele>
        <time>2010-01-01T05:07:01Z</time>
      </trkpt>
      <trkpt lat="42.16477" lon="2.74588">
        <ele>194</ele>
        <time>2010-01-01T05:07:08Z</time>
      </trkpt>
      <trkpt lat="42.16493" lon="2.7458">
        <ele>193</ele>
        <time>2010-01-01T05:07:15Z</time>
      </trkpt>
      <trkpt lat="42.16514" lon="2.74566">
        <ele>193</ele>
        <time>2010-01-01T05:07:25Z</time>
      </trkpt>
      <trkpt lat="42.16536" lon="2.74556">
        <ele>193</ele>
        <time>2010-01-01T05:07:34Z</time>
      </trkpt>
      <trkpt lat="42.16558" lon="2.7455">
        <ele>193</ele>
        <time>2010-01-01T05:07:43Z</time>
      </trkpt>
      <trkpt lat="42.16579" lon="2.74544">
        <ele>193</ele>
        <time>2010-01-01T05:07:51Z</time>
      </trkpt>
      <trkpt lat="42.16588" lon="2.74541">
        <ele>192</ele>
        <time>2010-01-01T05:07:55Z</time>
      </trkpt>
      <trkpt lat="42.1661" lon="2.74537">
        <ele>192</ele>
        <time>2010-01-01T05:08:04Z</time>
      </trkpt>
      <trkpt lat="42.16629" lon="2.74538">
        <ele>192</ele>
        <time>2010-01-01T05:08:11Z</time>
      </trkpt>
      <trkpt lat="42.16643" lon="2.7454">
        <ele>192</ele>
        <time>2010-01-01T05:08:17Z</time>
      </trkpt>
      <trkpt lat="42.16649" lon="2.74539">
        <ele>192</ele>
        <time>2010-01-01T05:08:20Z</time>
      </trkpt>
      <trkpt lat="42.16656" lon="2.74539">
        <ele>191</ele>
        <time>2010-01-01T05:08:22Z</time>
      </trkpt>
      <trkpt lat="42.1667" lon="2.74538">
        <ele>191</ele>
        <time>2010-01-01T05:08:28Z</time>
      </trkpt>
      <trkpt lat="42.16676" lon="2.74509">
        <ele>191</ele>
        <time>2010-01-01T05:08:37Z</time>
      </trkpt>
      <trkpt lat="42.16676" lon="2.74504">
        <ele>191</ele>
        <time>2010-01-01T05:08:39Z</time>
      </trkpt>
      <trkpt lat="42.16675" lon="2.74498">
        <ele>191</ele>
        <time>2010-01-01T05:08:40Z</time>
      </trkpt>
      <trkpt lat="42.16674" lon="2.74497">
        <ele>191</ele>
        <time>2010-01-01T05:08:41Z</time>
      </trkpt>
      <trkpt lat="42.16682" lon="2.74488">
        <ele>191</ele>
        <time>2010-01-01T05:08:45Z</time>
      </trkpt>
      <trkpt lat="42.16692" lon="2.74482">
        <ele>191</ele>
        <time>2010-01-01T05:08:49Z</time>
      </trkpt>
      <trkpt lat="42.16709" lon="2.74488">
        <ele>190</ele>
        <time>2010-01-01T05:08:56Z</time>
      </trkpt>
      <trkpt lat="42.16721" lon="2.74499">
        <ele>190</ele>
        <time>2010-01-01T05:09:02Z</time>
      </trkpt>
      <trkpt lat="42.16737" lon="2.74496">
        <ele>190</ele>
        <time>2010-01-01T05:09:08Z</time>
      </trkpt>
      <trkpt lat="42.16752" lon="2.74485">
        <ele>189</ele>
        <time>2010-01-01T05:09:16Z</time>
      </trkpt>
      <trkpt lat="42.16755" lon="2.74478">
        <ele>189</ele>
        <time>2010-01-01T05:09:18Z</time>
      </trkpt>
      <trkpt lat="42.16751" lon="2.74453">
        <ele>190</ele>
        <time>2010-01-01T05:09:25Z</time>
      </trkpt>
      <trkpt lat="42.16748" lon="2.74431">
        <ele>191</ele>
        <time>2010-01-01T05:09:32Z</time>
      </trkpt>
      <trkpt lat="42.16753" lon="2.74407">
        <ele>190</ele>
        <time>2010-01-01T05:09:39Z</time>
      </trkpt>
      <trkpt lat="42.16755" lon="2.7438">
        <ele>191</ele>
        <time>2010-01-01T05:09:48Z</time>
      </trkpt>
      <trkpt lat="42.16755" lon="2.74374">
        <ele>191</ele>
        <time>2010-01-01T05:09:49Z</time>
      </trkpt>
      <trkpt lat="42.16755" lon="2.74372">
        <ele>191</ele>
        <time>2010-01-01T05:09:50Z</time>
      </trkpt>
      <trkpt lat="42.16756" lon="2.74373">
        <ele>191</ele>
        <time>2010-01-01T05:09:51Z</time>
      </trkpt>
      <trkpt lat="42.16756" lon="2.74374">
        <ele>191</ele>
        <time>2010-01-01T05:09:51Z</time>
      </trkpt>
      <trkpt lat="42.16758" lon="2.74373">
        <ele>191</ele>
        <time>2010-01-01T05:09:52Z</time>
      </trkpt>
      <trkpt lat="42.16756" lon="2.74375">
        <ele>191</ele>
        <time>2010-01-01T05:09:53Z</time>
      </trkpt>
      <trkpt lat="42.16755" lon="2.74377">
        <ele>191</ele>
        <time>2010-01-01T05:09:53Z</time>
      </trkpt>
      <trkpt lat="42.16755" lon="2.74375">
        <ele>191</ele>
        <time>2010-01-01T05:09:54Z</time>
      </trkpt>
      <trkpt lat="42.16758" lon="2.74404">
        <ele>190</ele>
        <time>2010-01-01T05:10:02Z</time>
      </trkpt>
      <trkpt lat="42.1676" lon="2.74405">
        <ele>190</ele>
        <time>2010-01-01T05:10:03Z</time>
      </trkpt>
      <trkpt lat="42.16772" lon="2.74411">
        <ele>190</ele>
        <time>2010-01-01T05:10:09Z</time>
      </trkpt>
      <trkpt lat="42.16797" lon="2.74414">
        <ele>190</ele>
        <time>2010-01-01T05:10:18Z</time>
      </trkpt>
      <trkpt lat="42.16819" lon="2.74417">
        <ele>190</ele>
        <time>2010-01-01T05:10:27Z</time>
      </trkpt>
      <trkpt lat="42.16848" lon="2.7442">
        <ele>189</ele>
        <time>2010-01-01T05:10:39Z</time>
      </trkpt>
      <trkpt lat="42.16856" lon="2.74421">
        <ele>189</ele>
        <time>2010-01-01T05:10:42Z</time>
      </trkpt>
      <trkpt lat="42.16878" lon="2.74425">
        <ele>189</ele>
        <time>2010-01-01T05:10:51Z</time>
      </trkpt>
      <trkpt lat="42.16877" lon="2.74431">
        <ele>189</ele>
        <time>2010-01-01T05:10:53Z</time>
      </trkpt>
      <trkpt lat="42.16874" lon="2.7445">
        <ele>188</ele>
        <time>2010-01-01T05:10:59Z</time>
      </trkpt>
      <trkpt lat="42.16871" lon="2.74456">
        <ele>188</ele>
        <time>2010-01-01T05:11:01Z</time>
      </trkpt>
      <trkpt lat="42.16863" lon="2.74471">
        <ele>188</ele>
        <time>2010-01-01T05:11:06Z</time>
      </trkpt>
      <trkpt lat="42.16865" lon="2.74472">
        <ele>188</ele>
        <time>2010-01-01T05:11:07Z</time>
      </trkpt>
      <trkpt lat="42.16872" lon="2.74477">
        <ele>188</ele>
        <time>2010-01-01T05:11:10Z</time>
      </trkpt>
      <trkpt lat="42.16876" lon="2.7448">
        <ele>188</ele>
        <time>2010-01-01T05:11:12Z</time>
      </trkpt>
      <trkpt lat="42.1688" lon="2.74483">
        <ele>188</ele>
        <time>2010-01-01T05:11:14Z</time>
      </trkpt>
      <trkpt lat="42.16877" lon="2.74497">
        <ele>188</ele>
        <time>2010-01-01T05:11:18Z</time>
      </trkpt>
      <trkpt lat="42.16876" lon="2.74484">
        <ele>188</ele>
        <time>2010-01-01T05:11:22Z</time>
      </trkpt>
      <trkpt lat="42.16883" lon="2.74487">
        <ele>188</ele>
        <time>2010-01-01T05:11:25Z</time>
      </trkpt>
      <trkpt lat="42.16886" lon="2.74494">
        <ele>188</ele>
        <time>2010-01-01T05:11:27Z</time>
      </trkpt>
      <trkpt lat="42.16891" lon="2.74498">
        <ele>188</ele>
        <time>2010-01-01T05:11:30Z</time>
      </trkpt>
      <trkpt lat="42.16892" lon="2.74491">
        <ele>188</ele>
        <time>2010-01-01T05:11:32Z</time>
      </trkpt>
      <trkpt lat="42.16894" lon="2.74485">
        <ele>188</ele>
        <time>2010-01-01T05:11:34Z</time>
      </trkpt>
      <trkpt lat="42.16897" lon="2.74478">
        <ele>188</ele>
        <time>2010-01-01T05:11:36Z</time>
      </trkpt>
      <trkpt lat="42.16899" lon="2.74478">
        <ele>188</ele>
        <time>2010-01-01T05:11:37Z</time>
      </trkpt>
      <trkpt lat="42.16899" lon="2.74477">
        <ele>188</ele>
        <time>2010-01-01T05:11:37Z</time>
      </trkpt>
      <trkpt lat="42.16902" lon="2.74474">
        <ele>188</ele>
        <time>2010-01-01T05:11:39Z</time>
      </trkpt>
      <trkpt lat="42.16908" lon="2.74458">
        <ele>189</ele>
        <time>2010-01-01T05:11:44Z</time>
      </trkpt>
      <trkpt lat="42.16908" lon="2.74455">
        <ele>189</ele>
        <time>2010-01-01T05:11:45Z</time>
      </trkpt>
      <trkpt lat="42.16912" lon="2.74452">
        <ele>189</ele>
        <time>2010-01-01T05:11:47Z</time>
      </trkpt>
      <trkpt lat="42.16918" lon="2.74448">
        <ele>188</ele>
        <time>2010-01-01T05:11:49Z</time>
      </trkpt>
      <trkpt lat="42.16908" lon="2.74448">
        <ele>189</ele>
        <time>2010-01-01T05:11:53Z</time>
      </trkpt>
      <trkpt lat="42.16904" lon="2.74435">
        <ele>189</ele>
        <time>2010-01-01T05:11:57Z</time>
      </trkpt>
      <trkpt lat="42.16901" lon="2.74449">
        <ele>189</ele>
        <time>2010-01-01T05:12:02Z</time>
      </trkpt>
      <trkpt lat="42.16903" lon="2.74446">
        <ele>189</ele>
        <time>2010-01-01T05:12:03Z</time>
      </trkpt>
      <trkpt lat="42.16903" lon="2.74441">
        <ele>189</ele>
        <time>2010-01-01T05:12:04Z</time>
      </trkpt>
      <trkpt lat="42.16905" lon="2.74429">
        <ele>189</ele>
        <time>2010-01-01T05:12:08Z</time>
      </trkpt>
      <trkpt lat="42.16905" lon="2.74428">
        <ele>189</ele>
        <time>2010-01-01T05:12:08Z</time>
      </trkpt>
      <trkpt lat="42.16896" lon="2.74417">
        <ele>189</ele>
        <time>2010-01-01T05:12:13Z</time>
      </trkpt>
      <trkpt lat="42.16881" lon="2.74411">
        <ele>190</ele>
        <time>2010-01-01T05:12:19Z</time>
      </trkpt>
      <trkpt lat="42.16874" lon="2.74418">
        <ele>189</ele>
        <time>2010-01-01T05:12:23Z</time>
      </trkpt>
      <trkpt lat="42.16873" lon="2.74417">
        <ele>190</ele>
        <time>2010-01-01T05:12:24Z</time>
      </trkpt>
      <trkpt lat="42.16879" lon="2.74415">
        <ele>190</ele>
        <time>2010-01-01T05:12:26Z</time>
      </trkpt>
      <trkpt lat="42.16885" lon="2.74395">
        <ele>190</ele>
        <time>2010-01-01T05:12:32Z</time>
      </trkpt>
      <trkpt lat="42.16887" lon="2.74387">
        <ele>191</ele>
        <time>2010-01-01T05:12:35Z</time>
      </trkpt>
      <trkpt lat="42.16885" lon="2.74379">
        <ele>191</ele>
        <time>2010-01-01T05:12:37Z</time>
      </trkpt>
      <trkpt lat="42.16881" lon="2.74368">
        <ele>191</ele>
        <time>2010-01-01T05:12:41Z</time>
      </trkpt>
      <trkpt lat="42.16881" lon="2.7436">
        <ele>192</ele>
        <time>2010-01-01T05:12:43Z</time>
      </trkpt>
      <trkpt lat="42.16881" lon="2.74359">
        <ele>192</ele>
        <time>2010-01-01T05:12:44Z</time>
      </trkpt>
      <trkpt lat="42.16879" lon="2.74356">
        <ele>192</ele>
        <time>2010-01-01T05:12:45Z</time>
      </trkpt>
      <trkpt lat="42.16878" lon="2.74354">
        <ele>192</ele>
        <time>2010-01-01T05:12:45Z</time>
      </trkpt>
      <trkpt lat="42.16878" lon="2.74332">
        <ele>193</ele>
        <time>2010-01-01T05:12:52Z</time>
      </trkpt>
      <trkpt lat="42.16875" lon="2.74325">
        <ele>193</ele>
        <time>2010-01-01T05:12:54Z</time>
      </trkpt>
      <trkpt lat="42.16874" lon="2.74321">
        <ele>193</ele>
        <time>2010-01-01T05:12:55Z</time>
      </trkpt>
      <trkpt lat="42.16872" lon="2.74312">
        <ele>193</ele>
        <time>2010-01-01T05:12:58Z</time>
      </trkpt>
      <trkpt lat="42.16874" lon="2.74303">
        <ele>192</ele>
        <time>2010-01-01T05:13:01Z</time>
      </trkpt>
      <trkpt lat="42.16873" lon="2.74295">
        <ele>192</ele>
        <time>2010-01-01T05:13:04Z</time>
      </trkpt>
      <trkpt lat="42.16876" lon="2.74289">
        <ele>192</ele>
        <time>2010-01-01T05:13:06Z</time>
      </trkpt>
      <trkpt lat="42.1688" lon="2.74285">
        <ele>192</ele>
        <time>2010-01-01T05:13:08Z</time>
      </trkpt>
      <trkpt lat="42.16887" lon="2.74279">
        <ele>192</ele>
        <time>2010-01-01T05:13:11Z</time>
      </trkpt>
      <trkpt lat="42.16891" lon="2.74276">
        <ele>191</ele>
        <time>2010-01-01T05:13:13Z</time>
      </trkpt>
      <trkpt lat="42.16893" lon="2.74274">
        <ele>191</ele>
        <time>2010-01-01T05:13:14Z</time>
      </trkpt>
      <trkpt lat="42.16894" lon="2.74273">
        <ele>191</ele>
        <time>2010-01-01T05:13:14Z</time>
      </trkpt>
      <trkpt lat="42.16894" lon="2.74272">
        <ele>191</ele>
        <time>2010-01-01T05:13:15Z</time>
      </trkpt>
      <trkpt lat="42.16898" lon="2.74266">
        <ele>190</ele>
        <time>2010-01-01T05:13:17Z</time>
      </trkpt>
      <trkpt lat="42.169" lon="2.74264">
        <ele>190</ele>
        <time>2010-01-01T05:13:18Z</time>
      </trkpt>
      <trkpt lat="42.16904" lon="2.74258">
        <ele>189</ele>
        <time>2010-01-01T05:13:20Z</time>
      </trkpt>
      <trkpt lat="42.16908" lon="2.74254">
        <ele>189</ele>
        <time>2010-01-01T05:13:22Z</time>
      </trkpt>
      <trkpt lat="42.16923" lon="2.74233">
        <ele>188</ele>
        <time>2010-01-01T05:13:31Z</time>
      </trkpt>
      <trkpt lat="42.16939" lon="2.7421">
        <ele>187</ele>
        <time>2010-01-01T05:13:40Z</time>
      </trkpt>
      <trkpt lat="42.16943" lon="2.74204">
        <ele>186</ele>
        <time>2010-01-01T05:13:43Z</time>
      </trkpt>
      <trkpt lat="42.16948" lon="2.74195">
        <ele>186</ele>
        <time>2010-01-01T05:13:46Z</time>
      </trkpt>
      <trkpt lat="42.16961" lon="2.74167">
        <ele>185</ele>
        <time>2010-01-01T05:13:56Z</time>
      </trkpt>
      <trkpt lat="42.16969" lon="2.74137">
        <ele>183</ele>
        <time>2010-01-01T05:14:05Z</time>
      </trkpt>
      <trkpt lat="42.16976" lon="2.74111">
        <ele>183</ele>
        <time>2010-01-01T05:14:13Z</time>
      </trkpt>
      <trkpt lat="42.16981" lon="2.74087">
        <ele>182</ele>
        <time>2010-01-01T05:14:21Z</time>
      </trkpt>
      <trkpt lat="42.16986" lon="2.74062">
        <ele>180</ele>
        <time>2010-01-01T05:14:29Z</time>
      </trkpt>
      <trkpt lat="42.16989" lon="2.74034">
        <ele>178</ele>
        <time>2010-01-01T05:14:37Z</time>
      </trkpt>
      <trkpt lat="42.16993" lon="2.74027">
        <ele>178</ele>
        <time>2010-01-01T05:14:39Z</time>
      </trkpt>
      <trkpt lat="42.16994" lon="2.74022">
        <ele>178</ele>
        <time>2010-01-01T05:14:41Z</time>
      </trkpt>
      <trkpt lat="42.16992" lon="2.74017">
        <ele>177</ele>
        <time>2010-01-01T05:14:43Z</time>
      </trkpt>
      <trkpt lat="42.16992" lon="2.74014">
        <ele>177</ele>
        <time>2010-01-01T05:14:44Z</time>
      </trkpt>
      <trkpt lat="42.16998" lon="2.73993">
        <ele>176</ele>
        <time>2010-01-01T05:14:50Z</time>
      </trkpt>
      <trkpt lat="42.1701" lon="2.73958">
        <ele>173</ele>
        <time>2010-01-01T05:15:02Z</time>
      </trkpt>
      <trkpt lat="42.17021" lon="2.73932">
        <ele>171</ele>
        <time>2010-01-01T05:15:11Z</time>
      </trkpt>
      <trkpt lat="42.17021" lon="2.73927">
        <ele>171</ele>
        <time>2010-01-01T05:15:12Z</time>
      </trkpt>
      <trkpt lat="42.17025" lon="2.73921">
        <ele>170</ele>
        <time>2010-01-01T05:15:15Z</time>
      </trkpt>
      <trkpt lat="42.17028" lon="2.73903">
        <ele>168</ele>
        <time>2010-01-01T05:15:20Z</time>
      </trkpt>
      <trkpt lat="42.17036" lon="2.73883">
        <ele>166</ele>
        <time>2010-01-01T05:15:27Z</time>
      </trkpt>
      <trkpt lat="42.17037" lon="2.7388">
        <ele>166</ele>
        <time>2010-01-01T05:15:28Z</time>
      </trkpt>
      <trkpt lat="42.17035" lon="2.7387">
        <ele>164</ele>
        <time>2010-01-01T05:15:31Z</time>
      </trkpt>
      <trkpt lat="42.17032" lon="2.73858">
        <ele>162</ele>
        <time>2010-01-01T05:15:34Z</time>
      </trkpt>
      <trkpt lat="42.17032" lon="2.73856">
        <ele>162</ele>
        <time>2010-01-01T05:15:35Z</time>
      </trkpt>
      <trkpt lat="42.1703" lon="2.7385">
        <ele>161</ele>
        <time>2010-01-01T05:15:37Z</time>
      </trkpt>
      <trkpt lat="42.17031" lon="2.73843">
        <ele>160</ele>
        <time>2010-01-01T05:15:39Z</time>
      </trkpt>
      <trkpt lat="42.17032" lon="2.73829">
        <ele>157</ele>
        <time>2010-01-01T05:15:43Z</time>
      </trkpt>
      <trkpt lat="42.17032" lon="2.73825">
        <ele>157</ele>
        <time>2010-01-01T05:15:44Z</time>
      </trkpt>
      <trkpt lat="42.17036" lon="2.73819">
        <ele>156</ele>
        <time>2010-01-01T05:15:47Z</time>
      </trkpt>
      <trkpt lat="42.17043" lon="2.73815">
        <ele>156</ele>
        <time>2010-01-01T05:15:50Z</time>
      </trkpt>
      <trkpt lat="42.17045" lon="2.73809">
        <ele>156</ele>
        <time>2010-01-01T05:15:52Z</time>
      </trkpt>
      <trkpt lat="42.17045" lon="2.73804">
        <ele>155</ele>
        <time>2010-01-01T05:15:53Z</time>
      </trkpt>
      <trkpt lat="42.17048" lon="2.73801">
        <ele>154</ele>
        <time>2010-01-01T05:15:54Z</time>
      </trkpt>
      <trkpt lat="42.17053" lon="2.73794">
        <ele>153</ele>
        <time>2010-01-01T05:15:57Z</time>
      </trkpt>
      <trkpt lat="42.1706" lon="2.73793">
        <ele>153</ele>
        <time>2010-01-01T05:16:00Z</time>
      </trkpt>
      <trkpt lat="42.17064" lon="2.73791">
        <ele>152</ele>
        <time>2010-01-01T05:16:02Z</time>
      </trkpt>
      <trkpt lat="42.17064" lon="2.7378">
        <ele>150</ele>
        <time>2010-01-01T05:16:05Z</time>
      </trkpt>
      <trkpt lat="42.17061" lon="2.73778">
        <ele>149</ele>
        <time>2010-01-01T05:16:07Z</time>
      </trkpt>
      <trkpt lat="42.1706" lon="2.73776">
        <ele>149</ele>
        <time>2010-01-01T05:16:07Z</time>
      </trkpt>
      <trkpt lat="42.1706" lon="2.73775">
        <ele>149</ele>
        <time>2010-01-01T05:16:08Z</time>
      </trkpt>
      <trkpt lat="42.1706" lon="2.7377">
        <ele>148</ele>
        <time>2010-01-01T05:16:09Z</time>
      </trkpt>
      <trkpt lat="42.17059" lon="2.73767">
        <ele>148</ele>
        <time>2010-01-01T05:16:10Z</time>
      </trkpt>
      <trkpt lat="42.17053" lon="2.73736">
        <ele>143</ele>
        <time>2010-01-01T05:16:20Z</time>
      </trkpt>
      <trkpt lat="42.17051" lon="2.73711">
        <ele>141</ele>
        <time>2010-01-01T05:16:27Z</time>
      </trkpt>
      <trkpt lat="42.17053" lon="2.737">
        <ele>140</ele>
        <time>2010-01-01T05:16:30Z</time>
      </trkpt>
      <trkpt lat="42.1705" lon="2.73662">
        <ele>140</ele>
        <time>2010-01-01T05:16:42Z</time>
      </trkpt>
      <trkpt lat="42.17042" lon="2.73625">
        <ele>141</ele>
        <time>2010-01-01T05:16:53Z</time>
      </trkpt>
      <trkpt lat="42.17045" lon="2.7358">
        <ele>142</ele>
        <time>2010-01-01T05:17:07Z</time>
      </trkpt>
      <trkpt lat="42.17045" lon="2.73544">
        <ele>143</ele>
        <time>2010-01-01T05:17:17Z</time>
      </trkpt>
      <trkpt lat="42.17037" lon="2.73522">
        <ele>142</ele>
        <time>2010-01-01T05:17:25Z</time>
      </trkpt>
      <trkpt lat="42.17024" lon="2.73494">
        <ele>140</ele>
        <time>2010-01-01T05:17:35Z</time>
      </trkpt>
      <trkpt lat="42.17017" lon="2.73462">
        <ele>140</ele>
        <time>2010-01-01T05:17:44Z</time>
      </trkpt>
      <trkpt lat="42.17013" lon="2.7344">
        <ele>140</ele>
        <time>2010-01-01T05:17:51Z</time>
      </trkpt>
      <trkpt lat="42.17004" lon="2.73413">
        <ele>141</ele>
        <time>2010-01-01T05:18:00Z</time>
      </trkpt>
      <trkpt lat="42.16994" lon="2.73388">
        <ele>142</ele>
        <time>2010-01-01T05:18:08Z</time>
      </trkpt>
      <trkpt lat="42.16983" lon="2.73363">
        <ele>142</ele>
        <time>2010-01-01T05:18:17Z</time>
      </trkpt>
      <trkpt lat="42.16971" lon="2.73338">
        <ele>142</ele>
        <time>2010-01-01T05:18:26Z</time>
      </trkpt>
      <trkpt lat="42.16957" lon="2.73308">
        <ele>143</ele>
        <time>2010-01-01T05:18:36Z</time>
      </trkpt>
      <trkpt lat="42.16954" lon="2.73295">
        <ele>143</ele>
        <time>2010-01-01T05:18:40Z</time>
      </trkpt>
      <trkpt lat="42.16944" lon="2.73263">
        <ele>145</ele>
        <time>2010-01-01T05:18:50Z</time>
      </trkpt>
      <trkpt lat="42.16941" lon="2.73251">
        <ele>146</ele>
        <time>2010-01-01T05:18:54Z</time>
      </trkpt>
      <trkpt lat="42.16938" lon="2.73219">
        <ele>147</ele>
        <time>2010-01-01T05:19:04Z</time>
      </trkpt>
      <trkpt lat="42.16935" lon="2.73191">
        <ele>147</ele>
        <time>2010-01-01T05:19:12Z</time>
      </trkpt>
      <trkpt lat="42.16937" lon="2.73164">
        <ele>148</ele>
        <time>2010-01-01T05:19:20Z</time>
      </trkpt>
      <trkpt lat="42.16937" lon="2.73136">
        <ele>150</ele>
        <time>2010-01-01T05:19:29Z</time>
      </trkpt>
      <trkpt lat="42.16937" lon="2.73106">
        <ele>150</ele>
        <time>2010-01-01T05:19:38Z</time>
      </trkpt>
      <trkpt lat="42.16936" lon="2.73075">
        <ele>150</ele>
        <time>2010-01-01T05:19:47Z</time>
      </trkpt>
      <trkpt lat="42.1694" lon="2.73068">
        <ele>148</ele>
        <time>2010-01-01T05:19:49Z</time>
      </trkpt>
      <trkpt lat="42.16941" lon="2.73061">
        <ele>147</ele>
        <time>2010-01-01T05:19:51Z</time>
      </trkpt>
      <trkpt lat="42.16939" lon="2.73033">
        <ele>147</ele>
        <time>2010-01-01T05:20:00Z</time>
      </trkpt>
      <trkpt lat="42.16939" lon="2.73031">
        <ele>147</ele>
        <time>2010-01-01T05:20:00Z</time>
      </trkpt>
      <trkpt lat="42.16935" lon="2.73005">
        <ele>149</ele>
        <time>2010-01-01T05:20:08Z</time>
      </trkpt>
      <trkpt lat="42.16934" lon="2.72991">
        <ele>150</ele>
        <time>2010-01-01T05:20:12Z</time>
      </trkpt>
      <trkpt lat="42.16933" lon="2.72961">
        <ele>153</ele>
        <time>2010-01-01T05:20:21Z</time>
      </trkpt>
      <trkpt lat="42.16935" lon="2.72932">
        <ele>155</ele>
        <time>2010-01-01T05:20:30Z</time>
      </trkpt>
      <trkpt lat="42.16938" lon="2.72903">
        <ele>155</ele>
        <time>2010-01-01T05:20:39Z</time>
      </trkpt>
      <trkpt lat="42.16943" lon="2.72873">
        <ele>155</ele>
        <time>2010-01-01T05:20:48Z</time>
      </trkpt>
      <trkpt lat="42.16952" lon="2.72839">
        <ele>153</ele>
        <time>2010-01-01T05:20:59Z</time>
      </trkpt>
      <trkpt lat="42.16953" lon="2.72829">
        <ele>153</ele>
        <time>2010-01-01T05:21:01Z</time>
      </trkpt>
      <trkpt lat="42.1696" lon="2.72806">
        <ele>152</ele>
        <time>2010-01-01T05:21:09Z</time>
      </trkpt>
      <trkpt lat="42.1697" lon="2.7278">
        <ele>152</ele>
        <time>2010-01-01T05:21:18Z</time>
      </trkpt>
      <trkpt lat="42.16972" lon="2.72774">
        <ele>152</ele>
        <time>2010-01-01T05:21:20Z</time>
      </trkpt>
      <trkpt lat="42.16972" lon="2.72772">
        <ele>152</ele>
        <time>2010-01-01T05:21:20Z</time>
      </trkpt>
      <trkpt lat="42.16975" lon="2.72747">
        <ele>152</ele>
        <time>2010-01-01T05:21:28Z</time>
      </trkpt>
      <trkpt lat="42.16983" lon="2.72717">
        <ele>150</ele>
        <time>2010-01-01T05:21:37Z</time>
      </trkpt>
      <trkpt lat="42.16985" lon="2.72709">
        <ele>149</ele>
        <time>2010-01-01T05:21:40Z</time>
      </trkpt>
      <trkpt lat="42.16991" lon="2.72674">
        <ele>149</ele>
        <time>2010-01-01T05:21:50Z</time>
      </trkpt>
      <trkpt lat="42.16997" lon="2.72647">
        <ele>150</ele>
        <time>2010-01-01T05:21:59Z</time>
      </trkpt>
      <trkpt lat="42.16997" lon="2.72639">
        <ele>150</ele>
        <time>2010-01-01T05:22:01Z</time>
      </trkpt>
      <trkpt lat="42.17008" lon="2.72615">
        <ele>148</ele>
        <time>2010-01-01T05:22:09Z</time>
      </trkpt>
      <trkpt lat="42.1702" lon="2.72589">
        <ele>147</ele>
        <time>2010-01-01T05:22:18Z</time>
      </trkpt>
      <trkpt lat="42.17031" lon="2.72569">
        <ele>147</ele>
        <time>2010-01-01T05:22:26Z</time>
      </trkpt>
      <trkpt lat="42.17043" lon="2.72545">
        <ele>147</ele>
        <time>2010-01-01T05:22:34Z</time>
      </trkpt>
      <trkpt lat="42.17047" lon="2.72532">
        <ele>147</ele>
        <time>2010-01-01T05:22:38Z</time>
      </trkpt>
      <trkpt lat="42.1705" lon="2.72547">
        <ele>147</ele>
        <time>2010-01-01T05:22:43Z</time>
      </trkpt>
      <trkpt lat="42.17059" lon="2.72575">
        <ele>148</ele>
        <time>2010-01-01T05:22:52Z</time>
      </trkpt>
      <trkpt lat="42.17062" lon="2.72587">
        <ele>148</ele>
        <time>2010-01-01T05:22:56Z</time>
      </trkpt>
      <trkpt lat="42.17063" lon="2.72607">
        <ele>147</ele>
        <time>2010-01-01T05:23:02Z</time>
      </trkpt>
      <trkpt lat="42.17063" lon="2.72627">
        <ele>146</ele>
        <time>2010-01-01T05:23:08Z</time>
      </trkpt>
      <trkpt lat="42.17064" lon="2.72646">
        <ele>145</ele>
        <time>2010-01-01T05:23:13Z</time>
      </trkpt>
      <trkpt lat="42.17067" lon="2.72657">
        <ele>145</ele>
        <time>2010-01-01T05:23:17Z</time>
      </trkpt>
      <trkpt lat="42.17069" lon="2.72683">
        <ele>144</ele>
        <time>2010-01-01T05:23:25Z</time>
      </trkpt>
      <trkpt lat="42.17076" lon="2.7271">
        <ele>143</ele>
        <time>2010-01-01T05:23:33Z</time>
      </trkpt>
      <trkpt lat="42.17076" lon="2.72713">
        <ele>143</ele>
        <time>2010-01-01T05:23:34Z</time>
      </trkpt>
      <trkpt lat="42.17076" lon="2.72739">
        <ele>142</ele>
        <time>2010-01-01T05:23:42Z</time>
      </trkpt>
      <trkpt lat="42.17081" lon="2.72769">
        <ele>142</ele>
        <time>2010-01-01T05:23:51Z</time>
      </trkpt>
      <trkpt lat="42.17082" lon="2.72777">
        <ele>142</ele>
        <time>2010-01-01T05:23:53Z</time>
      </trkpt>
      <trkpt lat="42.17081" lon="2.72787">
        <ele>142</ele>
        <time>2010-01-01T05:23:56Z</time>
      </trkpt>
      <trkpt lat="42.17086" lon="2.72816">
        <ele>141</ele>
        <time>2010-01-01T05:24:05Z</time>
      </trkpt>
      <trkpt lat="42.17091" lon="2.72839">
        <ele>140</ele>
        <time>2010-01-01T05:24:12Z</time>
      </trkpt>
      <trkpt lat="42.17091" lon="2.72841">
        <ele>140</ele>
        <time>2010-01-01T05:24:13Z</time>
      </trkpt>
      <trkpt lat="42.17094" lon="2.72852">
        <ele>140</ele>
        <time>2010-01-01T05:24:16Z</time>
      </trkpt>
      <trkpt lat="42.17099" lon="2.72876">
        <ele>140</ele>
        <time>2010-01-01T05:24:24Z</time>
      </trkpt>
      <trkpt lat="42.17103" lon="2.72905">
        <ele>139</ele>
        <time>2010-01-01T05:24:32Z</time>
      </trkpt>
      <trkpt lat="42.17105" lon="2.72909">
        <ele>139</ele>
        <time>2010-01-01T05:24:34Z</time>
      </trkpt>
      <trkpt lat="42.17123" lon="2.72911">
        <ele>139</ele>
        <time>2010-01-01T05:24:41Z</time>
      </trkpt>
      <trkpt lat="42.17134" lon="2.72913">
        <ele>139</ele>
        <time>2010-01-01T05:24:46Z</time>
      </trkpt>
      <trkpt lat="42.17141" lon="2.72919">
        <ele>140</ele>
        <time>2010-01-01T05:24:49Z</time>
      </trkpt>
      <trkpt lat="42.17145" lon="2.72922">
        <ele>140</ele>
        <time>2010-01-01T05:24:51Z</time>
      </trkpt>
      <trkpt lat="42.17151" lon="2.72925">
        <ele>140</ele>
        <time>2010-01-01T05:24:53Z</time>
      </trkpt>
      <trkpt lat="42.17156" lon="2.72924">
        <ele>141</ele>
        <time>2010-01-01T05:24:55Z</time>
      </trkpt>
      <trkpt lat="42.17158" lon="2.72926">
        <ele>141</ele>
        <time>2010-01-01T05:24:56Z</time>
      </trkpt>
      <trkpt lat="42.17164" lon="2.72929">
        <ele>142</ele>
        <time>2010-01-01T05:24:59Z</time>
      </trkpt>
      <trkpt lat="42.17175" lon="2.72933">
        <ele>143</ele>
        <time>2010-01-01T05:25:03Z</time>
      </trkpt>
      <trkpt lat="42.17177" lon="2.72934">
        <ele>143</ele>
        <time>2010-01-01T05:25:04Z</time>
      </trkpt>
      <trkpt lat="42.17189" lon="2.72938">
        <ele>145</ele>
        <time>2010-01-01T05:25:09Z</time>
      </trkpt>
      <trkpt lat="42.17196" lon="2.72941">
        <ele>146</ele>
        <time>2010-01-01T05:25:12Z</time>
      </trkpt>
      <trkpt lat="42.172" lon="2.72942">
        <ele>146</ele>
        <time>2010-01-01T05:25:13Z</time>
      </trkpt>
      <trkpt lat="42.17199" lon="2.72942">
        <ele>146</ele>
        <time>2010-01-01T05:25:14Z</time>
      </trkpt>
      <trkpt lat="42.17205" lon="2.72946">
        <ele>147</ele>
        <time>2010-01-01T05:25:16Z</time>
      </trkpt>
      <trkpt lat="42.17213" lon="2.72946">
        <ele>148</ele>
        <time>2010-01-01T05:25:20Z</time>
      </trkpt>
      <trkpt lat="42.17212" lon="2.72944">
        <ele>148</ele>
        <time>2010-01-01T05:25:20Z</time>
      </trkpt>
      <trkpt lat="42.17212" lon="2.72942">
        <ele>148</ele>
        <time>2010-01-01T05:25:21Z</time>
      </trkpt>
      <trkpt lat="42.17213" lon="2.72944">
        <ele>148</ele>
        <time>2010-01-01T05:25:22Z</time>
      </trkpt>
      <trkpt lat="42.17211" lon="2.72946">
        <ele>148</ele>
        <time>2010-01-01T05:25:23Z</time>
      </trkpt>
      <trkpt lat="42.17189" lon="2.72939">
        <ele>145</ele>
        <time>2010-01-01T05:25:32Z</time>
      </trkpt>
      <trkpt lat="42.17161" lon="2.72929">
        <ele>141</ele>
        <time>2010-01-01T05:25:43Z</time>
      </trkpt>
      <trkpt lat="42.17142" lon="2.72921">
        <ele>140</ele>
        <time>2010-01-01T05:25:51Z</time>
      </trkpt>
      <trkpt lat="42.17129" lon="2.72916">
        <ele>139</ele>
        <time>2010-01-01T05:25:56Z</time>
      </trkpt>
      <trkpt lat="42.17133" lon="2.72918">
        <ele>139</ele>
        <time>2010-01-01T05:25:58Z</time>
      </trkpt>
      <trkpt lat="42.17141" lon="2.72923">
        <ele>139</ele>
        <time>2010-01-01T05:26:01Z</time>
      </trkpt>
      <trkpt lat="42.17166" lon="2.72933">
        <ele>142</ele>
        <time>2010-01-01T05:26:12Z</time>
      </trkpt>
      <trkpt lat="42.17188" lon="2.72942">
        <ele>145</ele>
        <time>2010-01-01T05:26:21Z</time>
      </trkpt>
      <trkpt lat="42.1719" lon="2.72943">
        <ele>145</ele>
        <time>2010-01-01T05:26:22Z</time>
      </trkpt>
      <trkpt lat="42.17193" lon="2.72943">
        <ele>145</ele>
        <time>2010-01-01T05:26:23Z</time>
      </trkpt>
      <trkpt lat="42.17204" lon="2.72945">
        <ele>147</ele>
        <time>2010-01-01T05:26:28Z</time>
      </trkpt>
      <trkpt lat="42.17211" lon="2.72945">
        <ele>148</ele>
        <time>2010-01-01T05:26:30Z</time>
      </trkpt>
      <trkpt lat="42.17221" lon="2.72923">
        <ele>149</ele>
        <time>2010-01-01T05:26:38Z</time>
      </trkpt>
      <trkpt lat="42.17231" lon="2.729">
        <ele>150</ele>
        <time>2010-01-01T05:26:46Z</time>
      </trkpt>
      <trkpt lat="42.17242" lon="2.72863">
        <ele>152</ele>
        <time>2010-01-01T05:26:58Z</time>
      </trkpt>
      <trkpt lat="42.17253" lon="2.72834">
        <ele>155</ele>
        <time>2010-01-01T05:27:08Z</time>
      </trkpt>
      <trkpt lat="42.17253" lon="2.72831">
        <ele>155</ele>
        <time>2010-01-01T05:27:08Z</time>
      </trkpt>
      <trkpt lat="42.17257" lon="2.72811">
        <ele>156</ele>
        <time>2010-01-01T05:27:15Z</time>
      </trkpt>
      <trkpt lat="42.17259" lon="2.72785">
        <ele>158</ele>
        <time>2010-01-01T05:27:22Z</time>
      </trkpt>
      <trkpt lat="42.17258" lon="2.72763">
        <ele>160</ele>
        <time>2010-01-01T05:27:29Z</time>
      </trkpt>
      <trkpt lat="42.17258" lon="2.72762">
        <ele>160</ele>
        <time>2010-01-01T05:27:29Z</time>
      </trkpt>
      <trkpt lat="42.17263" lon="2.72751">
        <ele>162</ele>
        <time>2010-01-01T05:27:33Z</time>
      </trkpt>
      <trkpt lat="42.17267" lon="2.72729">
        <ele>166</ele>
        <time>2010-01-01T05:27:40Z</time>
      </trkpt>
      <trkpt lat="42.17257" lon="2.727">
        <ele>167</ele>
        <time>2010-01-01T05:27:49Z</time>
      </trkpt>
      <trkpt lat="42.17254" lon="2.72694">
        <ele>167</ele>
        <time>2010-01-01T05:27:51Z</time>
      </trkpt>
      <trkpt lat="42.1725" lon="2.72685">
        <ele>166</ele>
        <time>2010-01-01T05:27:55Z</time>
      </trkpt>
      <trkpt lat="42.17251" lon="2.72674">
        <ele>168</ele>
        <time>2010-01-01T05:27:58Z</time>
      </trkpt>
      <trkpt lat="42.17256" lon="2.72674">
        <ele>170</ele>
        <time>2010-01-01T05:28:00Z</time>
      </trkpt>
      <trkpt lat="42.17271" lon="2.72676">
        <ele>176</ele>
        <time>2010-01-01T05:28:06Z</time>
      </trkpt>
      <trkpt lat="42.17281" lon="2.72677">
        <ele>179</ele>
        <time>2010-01-01T05:28:10Z</time>
      </trkpt>
      <trkpt lat="42.17297" lon="2.72672">
        <ele>183</ele>
        <time>2010-01-01T05:28:17Z</time>
      </trkpt>
      <trkpt lat="42.17309" lon="2.72672">
        <ele>185</ele>
        <time>2010-01-01T05:28:21Z</time>
      </trkpt>
      <trkpt lat="42.17311" lon="2.7267">
        <ele>185</ele>
        <time>2010-01-01T05:28:22Z</time>
      </trkpt>
      <trkpt lat="42.1732" lon="2.72662">
        <ele>187</ele>
        <time>2010-01-01T05:28:26Z</time>
      </trkpt>
      <trkpt lat="42.17321" lon="2.72658">
        <ele>188</ele>
        <time>2010-01-01T05:28:28Z</time>
      </trkpt>
      <trkpt lat="42.17317" lon="2.72653">
        <ele>189</ele>
        <time>2010-01-01T05:28:29Z</time>
      </trkpt>
      <trkpt lat="42.1731" lon="2.72644">
        <ele>190</ele>
        <time>2010-01-01T05:28:33Z</time>
      </trkpt>
      <trkpt lat="42.17309" lon="2.72643">
        <ele>190</ele>
        <time>2010-01-01T05:28:34Z</time>
      </trkpt>
      <trkpt lat="42.17308" lon="2.72633">
        <ele>192</ele>
        <time>2010-01-01T05:28:37Z</time>
      </trkpt>
      <trkpt lat="42.17305" lon="2.72625">
        <ele>192</ele>
        <time>2010-01-01T05:28:39Z</time>
      </trkpt>
      <trkpt lat="42.17309" lon="2.72622">
        <ele>193</ele>
        <time>2010-01-01T05:28:41Z</time>
      </trkpt>
      <trkpt lat="42.1731" lon="2.72621">
        <ele>194</ele>
        <time>2010-01-01T05:28:42Z</time>
      </trkpt>
      <trkpt lat="42.17309" lon="2.72606">
        <ele>195</ele>
        <time>2010-01-01T05:28:46Z</time>
      </trkpt>
      <trkpt lat="42.17307" lon="2.72588">
        <ele>197</ele>
        <time>2010-01-01T05:28:52Z</time>
      </trkpt>
      <trkpt lat="42.17306" lon="2.72582">
        <ele>198</ele>
        <time>2010-01-01T05:28:53Z</time>
      </trkpt>
      <trkpt lat="42.17301" lon="2.7256">
        <ele>199</ele>
        <time>2010-01-01T05:29:00Z</time>
      </trkpt>
      <trkpt lat="42.17296" lon="2.72551">
        <ele>199</ele>
        <time>2010-01-01T05:29:03Z</time>
      </trkpt>
      <trkpt lat="42.17291" lon="2.72536">
        <ele>201</ele>
        <time>2010-01-01T05:29:08Z</time>
      </trkpt>
      <trkpt lat="42.17291" lon="2.72535">
        <ele>201</ele>
        <time>2010-01-01T05:29:09Z</time>
      </trkpt>
      <trkpt lat="42.17284" lon="2.72517">
        <ele>203</ele>
        <time>2010-01-01T05:29:15Z</time>
      </trkpt>
      <trkpt lat="42.17285" lon="2.72512">
        <ele>204</ele>
        <time>2010-01-01T05:29:16Z</time>
      </trkpt>
      <trkpt lat="42.17282" lon="2.72498">
        <ele>205</ele>
        <time>2010-01-01T05:29:21Z</time>
      </trkpt>
      <trkpt lat="42.17282" lon="2.72487">
        <ele>206</ele>
        <time>2010-01-01T05:29:24Z</time>
      </trkpt>
      <trkpt lat="42.1728" lon="2.72486">
        <ele>206</ele>
        <time>2010-01-01T05:29:24Z</time>
      </trkpt>
      <trkpt lat="42.17281" lon="2.72467">
        <ele>206</ele>
        <time>2010-01-01T05:29:30Z</time>
      </trkpt>
      <trkpt lat="42.1728" lon="2.72461">
        <ele>206</ele>
        <time>2010-01-01T05:29:32Z</time>
      </trkpt>
      <trkpt lat="42.17283" lon="2.72446">
        <ele>207</ele>
        <time>2010-01-01T05:29:37Z</time>
      </trkpt>
      <trkpt lat="42.17287" lon="2.72437">
        <ele>208</ele>
        <time>2010-01-01T05:29:39Z</time>
      </trkpt>
      <trkpt lat="42.17287" lon="2.72436">
        <ele>208</ele>
        <time>2010-01-01T05:29:40Z</time>
      </trkpt>
      <trkpt lat="42.17303" lon="2.72421">
        <ele>210</ele>
        <time>2010-01-01T05:29:48Z</time>
      </trkpt>
      <trkpt lat="42.17309" lon="2.72417">
        <ele>211</ele>
        <time>2010-01-01T05:29:50Z</time>
      </trkpt>
      <trkpt lat="42.17317" lon="2.72414">
        <ele>211</ele>
        <time>2010-01-01T05:29:54Z</time>
      </trkpt>
      <trkpt lat="42.17334" lon="2.72406">
        <ele>212</ele>
        <time>2010-01-01T05:30:01Z</time>
      </trkpt>
      <trkpt lat="42.17346" lon="2.72401">
        <ele>212</ele>
        <time>2010-01-01T05:30:06Z</time>
      </trkpt>
      <trkpt lat="42.17361" lon="2.72394">
        <ele>213</ele>
        <time>2010-01-01T05:30:12Z</time>
      </trkpt>
      <trkpt lat="42.17363" lon="2.72393">
        <ele>213</ele>
        <time>2010-01-01T05:30:13Z</time>
      </trkpt>
      <trkpt lat="42.17365" lon="2.7239">
        <ele>213</ele>
        <time>2010-01-01T05:30:14Z</time>
      </trkpt>
      <trkpt lat="42.17369" lon="2.72382">
        <ele>213</ele>
        <time>2010-01-01T05:30:17Z</time>
      </trkpt>
      <trkpt lat="42.17381" lon="2.72367">
        <ele>215</ele>
        <time>2010-01-01T05:30:24Z</time>
      </trkpt>
      <trkpt lat="42.17383" lon="2.72365">
        <ele>215</ele>
        <time>2010-01-01T05:30:24Z</time>
      </trkpt>
      <trkpt lat="42.17395" lon="2.72352">
        <ele>216</ele>
        <time>2010-01-01T05:30:31Z</time>
      </trkpt>
      <trkpt lat="42.17402" lon="2.72348">
        <ele>216</ele>
        <time>2010-01-01T05:30:34Z</time>
      </trkpt>
      <trkpt lat="42.17413" lon="2.72341">
        <ele>216</ele>
        <time>2010-01-01T05:30:38Z</time>
      </trkpt>
      <trkpt lat="42.17418" lon="2.72335">
        <ele>216</ele>
        <time>2010-01-01T05:30:42Z</time>
      </trkpt>
      <trkpt lat="42.17428" lon="2.72325">
        <ele>218</ele>
        <time>2010-01-01T05:30:46Z</time>
      </trkpt>
      <trkpt lat="42.17431" lon="2.72315">
        <ele>219</ele>
        <time>2010-01-01T05:30:49Z</time>
      </trkpt>
      <trkpt lat="42.17431" lon="2.7231">
        <ele>220</ele>
        <time>2010-01-01T05:30:51Z</time>
      </trkpt>
      <trkpt lat="42.17428" lon="2.72303">
        <ele>221</ele>
        <time>2010-01-01T05:30:53Z</time>
      </trkpt>
      <trkpt lat="42.17421" lon="2.72287">
        <ele>224</ele>
        <time>2010-01-01T05:30:59Z</time>
      </trkpt>
      <trkpt lat="42.17419" lon="2.72282">
        <ele>225</ele>
        <time>2010-01-01T05:31:01Z</time>
      </trkpt>
      <trkpt lat="42.17418" lon="2.72277">
        <ele>226</ele>
        <time>2010-01-01T05:31:02Z</time>
      </trkpt>
      <trkpt lat="42.17419" lon="2.72261">
        <ele>227</ele>
        <time>2010-01-01T05:31:07Z</time>
      </trkpt>
      <trkpt lat="42.17422" lon="2.72253">
        <ele>228</ele>
        <time>2010-01-01T05:31:10Z</time>
      </trkpt>
      <trkpt lat="42.17425" lon="2.72239">
        <ele>229</ele>
        <time>2010-01-01T05:31:14Z</time>
      </trkpt>
      <trkpt lat="42.17432" lon="2.72222">
        <ele>230</ele>
        <time>2010-01-01T05:31:19Z</time>
      </trkpt>
      <trkpt lat="42.17431" lon="2.72201">
        <ele>231</ele>
        <time>2010-01-01T05:31:26Z</time>
      </trkpt>
      <trkpt lat="42.17432" lon="2.72183">
        <ele>234</ele>
        <time>2010-01-01T05:31:31Z</time>
      </trkpt>
      <trkpt lat="42.17432" lon="2.72177">
        <ele>235</ele>
        <time>2010-01-01T05:31:33Z</time>
      </trkpt>
      <trkpt lat="42.17432" lon="2.72171">
        <ele>235</ele>
        <time>2010-01-01T05:31:35Z</time>
      </trkpt>
      <trkpt lat="42.17418" lon="2.72163">
        <ele>235</ele>
        <time>2010-01-01T05:31:41Z</time>
      </trkpt>
      <trkpt lat="42.17411" lon="2.72155">
        <ele>235</ele>
        <time>2010-01-01T05:31:44Z</time>
      </trkpt>
      <trkpt lat="42.17408" lon="2.7215">
        <ele>235</ele>
        <time>2010-01-01T05:31:46Z</time>
      </trkpt>
      <trkpt lat="42.17415" lon="2.72148">
        <ele>237</ele>
        <time>2010-01-01T05:31:49Z</time>
      </trkpt>
      <trkpt lat="42.17434" lon="2.7215">
        <ele>241</ele>
        <time>2010-01-01T05:31:56Z</time>
      </trkpt>
      <trkpt lat="42.17436" lon="2.72143">
        <ele>243</ele>
        <time>2010-01-01T05:31:59Z</time>
      </trkpt>
      <trkpt lat="42.1743" lon="2.72138">
        <ele>243</ele>
        <time>2010-01-01T05:32:02Z</time>
      </trkpt>
      <trkpt lat="42.17426" lon="2.72135">
        <ele>243</ele>
        <time>2010-01-01T05:32:04Z</time>
      </trkpt>
      <trkpt lat="42.17423" lon="2.72133">
        <ele>243</ele>
        <time>2010-01-01T05:32:05Z</time>
      </trkpt>
      <trkpt lat="42.17419" lon="2.72122">
        <ele>245</ele>
        <time>2010-01-01T05:32:08Z</time>
      </trkpt>
      <trkpt lat="42.17425" lon="2.72114">
        <ele>249</ele>
        <time>2010-01-01T05:32:12Z</time>
      </trkpt>
      <trkpt lat="42.1743" lon="2.72116">
        <ele>249</ele>
        <time>2010-01-01T05:32:14Z</time>
      </trkpt>
      <trkpt lat="42.17435" lon="2.72108">
        <ele>252</ele>
        <time>2010-01-01T05:32:17Z</time>
      </trkpt>
      <trkpt lat="42.17436" lon="2.72095">
        <ele>256</ele>
        <time>2010-01-01T05:32:21Z</time>
      </trkpt>
      <trkpt lat="42.17435" lon="2.72084">
        <ele>259</ele>
        <time>2010-01-01T05:32:24Z</time>
      </trkpt>
      <trkpt lat="42.17437" lon="2.72078">
        <ele>261</ele>
        <time>2010-01-01T05:32:26Z</time>
      </trkpt>
      <trkpt lat="42.17437" lon="2.72069">
        <ele>263</ele>
        <time>2010-01-01T05:32:29Z</time>
      </trkpt>
      <trkpt lat="42.17436" lon="2.72058">
        <ele>266</ele>
        <time>2010-01-01T05:32:32Z</time>
      </trkpt>
      <trkpt lat="42.17434" lon="2.72045">
        <ele>268</ele>
        <time>2010-01-01T05:32:36Z</time>
      </trkpt>
      <trkpt lat="42.17433" lon="2.72033">
        <ele>270</ele>
        <time>2010-01-01T05:32:40Z</time>
      </trkpt>
      <trkpt lat="42.17433" lon="2.72031">
        <ele>270</ele>
        <time>2010-01-01T05:32:40Z</time>
      </trkpt>
      <trkpt lat="42.17434" lon="2.72019">
        <ele>272</ele>
        <time>2010-01-01T05:32:44Z</time>
      </trkpt>
      <trkpt lat="42.17433" lon="2.72008">
        <ele>275</ele>
        <time>2010-01-01T05:32:47Z</time>
      </trkpt>
      <trkpt lat="42.17433" lon="2.71997">
        <ele>278</ele>
        <time>2010-01-01T05:32:50Z</time>
      </trkpt>
      <trkpt lat="42.17428" lon="2.71987">
        <ele>280</ele>
        <time>2010-01-01T05:32:54Z</time>
      </trkpt>
      <trkpt lat="42.17425" lon="2.71984">
        <ele>281</ele>
        <time>2010-01-01T05:32:55Z</time>
      </trkpt>
      <trkpt lat="42.17413" lon="2.71968">
        <ele>285</ele>
        <time>2010-01-01T05:33:02Z</time>
      </trkpt>
      <trkpt lat="42.17403" lon="2.71954">
        <ele>286</ele>
        <time>2010-01-01T05:33:08Z</time>
      </trkpt>
      <trkpt lat="42.174" lon="2.7195">
        <ele>286</ele>
        <time>2010-01-01T05:33:09Z</time>
      </trkpt>
      <trkpt lat="42.17391" lon="2.71932">
        <ele>287</ele>
        <time>2010-01-01T05:33:16Z</time>
      </trkpt>
      <trkpt lat="42.17391" lon="2.71913">
        <ele>288</ele>
        <time>2010-01-01T05:33:22Z</time>
      </trkpt>
      <trkpt lat="42.17388" lon="2.71898">
        <ele>289</ele>
        <time>2010-01-01T05:33:26Z</time>
      </trkpt>
      <trkpt lat="42.17385" lon="2.71875">
        <ele>289</ele>
        <time>2010-01-01T05:33:33Z</time>
      </trkpt>
      <trkpt lat="42.17384" lon="2.71859">
        <ele>290</ele>
        <time>2010-01-01T05:33:38Z</time>
      </trkpt>
      <trkpt lat="42.17382" lon="2.71841">
        <ele>291</ele>
        <time>2010-01-01T05:33:43Z</time>
      </trkpt>
      <trkpt lat="42.17382" lon="2.71834">
        <ele>292</ele>
        <time>2010-01-01T05:33:45Z</time>
      </trkpt>
      <trkpt lat="42.17384" lon="2.71819">
        <ele>292</ele>
        <time>2010-01-01T05:33:50Z</time>
      </trkpt>
      <trkpt lat="42.17383" lon="2.71799">
        <ele>293</ele>
        <time>2010-01-01T05:33:56Z</time>
      </trkpt>
      <trkpt lat="42.17385" lon="2.71778">
        <ele>297</ele>
        <time>2010-01-01T05:34:02Z</time>
      </trkpt>
      <trkpt lat="42.17384" lon="2.71757">
        <ele>298</ele>
        <time>2010-01-01T05:34:09Z</time>
      </trkpt>
      <trkpt lat="42.17389" lon="2.71742">
        <ele>301</ele>
        <time>2010-01-01T05:34:13Z</time>
      </trkpt>
      <trkpt lat="42.17391" lon="2.71725">
        <ele>304</ele>
        <time>2010-01-01T05:34:18Z</time>
      </trkpt>
      <trkpt lat="42.17392" lon="2.71711">
        <ele>307</ele>
        <time>2010-01-01T05:34:23Z</time>
      </trkpt>
      <trkpt lat="42.17392" lon="2.71701">
        <ele>309</ele>
        <time>2010-01-01T05:34:26Z</time>
      </trkpt>
      <trkpt lat="42.17386" lon="2.71691">
        <ele>310</ele>
        <time>2010-01-01T05:34:30Z</time>
      </trkpt>
      <trkpt lat="42.17386" lon="2.71672">
        <ele>314</ele>
        <time>2010-01-01T05:34:35Z</time>
      </trkpt>
      <trkpt lat="42.17386" lon="2.71666">
        <ele>315</ele>
        <time>2010-01-01T05:34:37Z</time>
      </trkpt>
      <trkpt lat="42.17386" lon="2.71663">
        <ele>315</ele>
        <time>2010-01-01T05:34:38Z</time>
      </trkpt>
      <trkpt lat="42.17386" lon="2.71662">
        <ele>315</ele>
        <time>2010-01-01T05:34:38Z</time>
      </trkpt>
      <trkpt lat="42.17385" lon="2.71659">
        <ele>316</ele>
        <time>2010-01-01T05:34:39Z</time>
      </trkpt>
      <trkpt lat="42.17386" lon="2.71652">
        <ele>317</ele>
        <time>2010-01-01T05:34:41Z</time>
      </trkpt>
      <trkpt lat="42.17384" lon="2.71637">
        <ele>319</ele>
        <time>2010-01-01T05:34:46Z</time>
      </trkpt>
      <trkpt lat="42.17383" lon="2.71629">
        <ele>321</ele>
        <time>2010-01-01T05:34:48Z</time>
      </trkpt>
      <trkpt lat="42.17384" lon="2.71628">
        <ele>321</ele>
        <time>2010-01-01T05:34:49Z</time>
      </trkpt>
      <trkpt lat="42.17386" lon="2.71614">
        <ele>323</ele>
        <time>2010-01-01T05:34:53Z</time>
      </trkpt>
      <trkpt lat="42.17383" lon="2.71609">
        <ele>323</ele>
        <time>2010-01-01T05:34:55Z</time>
      </trkpt>
      <trkpt lat="42.17384" lon="2.71593">
        <ele>326</ele>
        <time>2010-01-01T05:35:00Z</time>
      </trkpt>
      <trkpt lat="42.17394" lon="2.71581">
        <ele>328</ele>
        <time>2010-01-01T05:35:05Z</time>
      </trkpt>
      <trkpt lat="42.17394" lon="2.71577">
        <ele>329</ele>
        <time>2010-01-01T05:35:06Z</time>
      </trkpt>
      <trkpt lat="42.17395" lon="2.7157">
        <ele>330</ele>
        <time>2010-01-01T05:35:08Z</time>
      </trkpt>
      <trkpt lat="42.17395" lon="2.71566">
        <ele>330</ele>
        <time>2010-01-01T05:35:10Z</time>
      </trkpt>
      <trkpt lat="42.17396" lon="2.71557">
        <ele>332</ele>
        <time>2010-01-01T05:35:12Z</time>
      </trkpt>
      <trkpt lat="42.174" lon="2.71546">
        <ele>333</ele>
        <time>2010-01-01T05:35:16Z</time>
      </trkpt>
      <trkpt lat="42.17401" lon="2.71537">
        <ele>334</ele>
        <time>2010-01-01T05:35:19Z</time>
      </trkpt>
      <trkpt lat="42.174" lon="2.71534">
        <ele>334</ele>
        <time>2010-01-01T05:35:20Z</time>
      </trkpt>
      <trkpt lat="42.17397" lon="2.71522">
        <ele>334</ele>
        <time>2010-01-01T05:35:24Z</time>
      </trkpt>
      <trkpt lat="42.17398" lon="2.71504">
        <ele>336</ele>
        <time>2010-01-01T05:35:29Z</time>
      </trkpt>
      <trkpt lat="42.17398" lon="2.71492">
        <ele>337</ele>
        <time>2010-01-01T05:35:32Z</time>
      </trkpt>
      <trkpt lat="42.17401" lon="2.71483">
        <ele>338</ele>
        <time>2010-01-01T05:35:35Z</time>
      </trkpt>
      <trkpt lat="42.17401" lon="2.71477">
        <ele>338</ele>
        <time>2010-01-01T05:35:37Z</time>
      </trkpt>
      <trkpt lat="42.17402" lon="2.71465">
        <ele>339</ele>
        <time>2010-01-01T05:35:41Z</time>
      </trkpt>
      <trkpt lat="42.17402" lon="2.71462">
        <ele>339</ele>
        <time>2010-01-01T05:35:42Z</time>
      </trkpt>
      <trkpt lat="42.1741" lon="2.71442">
        <ele>341</ele>
        <time>2010-01-01T05:35:48Z</time>
      </trkpt>
      <trkpt lat="42.17419" lon="2.71424">
        <ele>343</ele>
        <time>2010-01-01T05:35:55Z</time>
      </trkpt>
      <trkpt lat="42.17428" lon="2.714">
        <ele>345</ele>
        <time>2010-01-01T05:36:03Z</time>
      </trkpt>
      <trkpt lat="42.17436" lon="2.71382">
        <ele>348</ele>
        <time>2010-01-01T05:36:09Z</time>
      </trkpt>
      <trkpt lat="42.17442" lon="2.71369">
        <ele>350</ele>
        <time>2010-01-01T05:36:14Z</time>
      </trkpt>
      <trkpt lat="42.17443" lon="2.71352">
        <ele>352</ele>
        <time>2010-01-01T05:36:19Z</time>
      </trkpt>
      <trkpt lat="42.17445" lon="2.71338">
        <ele>355</ele>
        <time>2010-01-01T05:36:23Z</time>
      </trkpt>
      <trkpt lat="42.17452" lon="2.71338">
        <ele>354</ele>
        <time>2010-01-01T05:36:26Z</time>
      </trkpt>
      <trkpt lat="42.17448" lon="2.71344">
        <ele>354</ele>
        <time>2010-01-01T05:36:28Z</time>
      </trkpt>
      <trkpt lat="42.17446" lon="2.71342">
        <ele>354</ele>
        <time>2010-01-01T05:36:29Z</time>
      </trkpt>
      <trkpt lat="42.17452" lon="2.71339">
        <ele>354</ele>
        <time>2010-01-01T05:36:31Z</time>
      </trkpt>
      <trkpt lat="42.17453" lon="2.71316">
        <ele>357</ele>
        <time>2010-01-01T05:36:38Z</time>
      </trkpt>
      <trkpt lat="42.17447" lon="2.71289">
        <ele>360</ele>
        <time>2010-01-01T05:36:46Z</time>
      </trkpt>
      <trkpt lat="42.17443" lon="2.71267">
        <ele>362</ele>
        <time>2010-01-01T05:36:53Z</time>
      </trkpt>
      <trkpt lat="42.17442" lon="2.71247">
        <ele>363</ele>
        <time>2010-01-01T05:36:59Z</time>
      </trkpt>
      <trkpt lat="42.17443" lon="2.71238">
        <ele>364</ele>
        <time>2010-01-01T05:37:02Z</time>
      </trkpt>
      <trkpt lat="42.17444" lon="2.71232">
        <ele>365</ele>
        <time>2010-01-01T05:37:03Z</time>
      </trkpt>
      <trkpt lat="42.17443" lon="2.71229">
        <ele>365</ele>
        <time>2010-01-01T05:37:05Z</time>
      </trkpt>
      <trkpt lat="42.17442" lon="2.71207">
        <ele>366</ele>
        <time>2010-01-01T05:37:11Z</time>
      </trkpt>
      <trkpt lat="42.17442" lon="2.71204">
        <ele>366</ele>
        <time>2010-01-01T05:37:12Z</time>
      </trkpt>
      <trkpt lat="42.17454" lon="2.71188">
        <ele>368</ele>
        <time>2010-01-01T05:37:19Z</time>
      </trkpt>
      <trkpt lat="42.17461" lon="2.71174">
        <ele>370</ele>
        <time>2010-01-01T05:37:24Z</time>
      </trkpt>
      <trkpt lat="42.17462" lon="2.7117">
        <ele>371</ele>
        <time>2010-01-01T05:37:25Z</time>
      </trkpt>
      <trkpt lat="42.17466" lon="2.71154">
        <ele>373</ele>
        <time>2010-01-01T05:37:30Z</time>
      </trkpt>
      <trkpt lat="42.1747" lon="2.7115">
        <ele>374</ele>
        <time>2010-01-01T05:37:32Z</time>
      </trkpt>
      <trkpt lat="42.17483" lon="2.71136">
        <ele>376</ele>
        <time>2010-01-01T05:37:38Z</time>
      </trkpt>
      <trkpt lat="42.17501" lon="2.71127">
        <ele>379</ele>
        <time>2010-01-01T05:37:46Z</time>
      </trkpt>
      <trkpt lat="42.17504" lon="2.71123">
        <ele>380</ele>
        <time>2010-01-01T05:37:48Z</time>
      </trkpt>
      <trkpt lat="42.17515" lon="2.7112">
        <ele>380</ele>
        <time>2010-01-01T05:37:52Z</time>
      </trkpt>
      <trkpt lat="42.1752" lon="2.71116">
        <ele>381</ele>
        <time>2010-01-01T05:37:55Z</time>
      </trkpt>
      <trkpt lat="42.17533" lon="2.71106">
        <ele>382</ele>
        <time>2010-01-01T05:38:01Z</time>
      </trkpt>
      <trkpt lat="42.17544" lon="2.71087">
        <ele>384</ele>
        <time>2010-01-01T05:38:08Z</time>
      </trkpt>
      <trkpt lat="42.17542" lon="2.71082">
        <ele>385</ele>
        <time>2010-01-01T05:38:10Z</time>
      </trkpt>
      <trkpt lat="42.17536" lon="2.71079">
        <ele>387</ele>
        <time>2010-01-01T05:38:12Z</time>
      </trkpt>
      <trkpt lat="42.17531" lon="2.71079">
        <ele>388</ele>
        <time>2010-01-01T05:38:14Z</time>
      </trkpt>
      <trkpt lat="42.1753" lon="2.71078">
        <ele>388</ele>
        <time>2010-01-01T05:38:15Z</time>
      </trkpt>
      <trkpt lat="42.17521" lon="2.71074">
        <ele>390</ele>
        <time>2010-01-01T05:38:19Z</time>
      </trkpt>
      <trkpt lat="42.17513" lon="2.7107">
        <ele>392</ele>
        <time>2010-01-01T05:38:22Z</time>
      </trkpt>
      <trkpt lat="42.17508" lon="2.71064">
        <ele>393</ele>
        <time>2010-01-01T05:38:25Z</time>
      </trkpt>
      <trkpt lat="42.17505" lon="2.71058">
        <ele>394</ele>
        <time>2010-01-01T05:38:27Z</time>
      </trkpt>
      <trkpt lat="42.175" lon="2.71053">
        <ele>395</ele>
        <time>2010-01-01T05:38:29Z</time>
      </trkpt>
      <trkpt lat="42.1749" lon="2.71034">
        <ele>395</ele>
        <time>2010-01-01T05:38:36Z</time>
      </trkpt>
      <trkpt lat="42.17487" lon="2.71017">
        <ele>397</ele>
        <time>2010-01-01T05:38:41Z</time>
      </trkpt>
      <trkpt lat="42.17486" lon="2.71007">
        <ele>398</ele>
        <time>2010-01-01T05:38:44Z</time>
      </trkpt>
      <trkpt lat="42.17482" lon="2.7099">
        <ele>399</ele>
        <time>2010-01-01T05:38:50Z</time>
      </trkpt>
      <trkpt lat="42.1748" lon="2.70984">
        <ele>399</ele>
        <time>2010-01-01T05:38:52Z</time>
      </trkpt>
      <trkpt lat="42.17476" lon="2.70976">
        <ele>399</ele>
        <time>2010-01-01T05:38:55Z</time>
      </trkpt>
      <trkpt lat="42.17476" lon="2.70976">
        <ele>399</ele>
        <time>2010-01-01T05:38:55Z</time>
      </trkpt>
      <trkpt lat="42.17476" lon="2.70975">
        <ele>399</ele>
        <time>2010-01-01T05:38:55Z</time>
      </trkpt>
      <trkpt lat="42.17473" lon="2.70975">
        <ele>398</ele>
        <time>2010-01-01T05:38:56Z</time>
      </trkpt>
      <trkpt lat="42.17473" lon="2.70974">
        <ele>399</ele>
        <time>2010-01-01T05:38:57Z</time>
      </trkpt>
      <trkpt lat="42.17475" lon="2.70978">
        <ele>399</ele>
        <time>2010-01-01T05:38:58Z</time>
      </trkpt>
      <trkpt lat="42.17475" lon="2.70974">
        <ele>399</ele>
        <time>2010-01-01T05:38:59Z</time>
      </trkpt>
      <trkpt lat="42.17477" lon="2.70964">
        <ele>399</ele>
        <time>2010-01-01T05:39:02Z</time>
      </trkpt>
      <trkpt lat="42.17476" lon="2.70954">
        <ele>398</ele>
        <time>2010-01-01T05:39:05Z</time>
      </trkpt>
      <trkpt lat="42.17479" lon="2.7094">
        <ele>396</ele>
        <time>2010-01-01T05:39:10Z</time>
      </trkpt>
      <trkpt lat="42.17483" lon="2.70931">
        <ele>395</ele>
        <time>2010-01-01T05:39:13Z</time>
      </trkpt>
      <trkpt lat="42.17479" lon="2.7092">
        <ele>393</ele>
        <time>2010-01-01T05:39:16Z</time>
      </trkpt>
      <trkpt lat="42.1748" lon="2.70912">
        <ele>392</ele>
        <time>2010-01-01T05:39:19Z</time>
      </trkpt>
      <trkpt lat="42.17475" lon="2.70898">
        <ele>389</ele>
        <time>2010-01-01T05:39:23Z</time>
      </trkpt>
      <trkpt lat="42.17472" lon="2.70884">
        <ele>387</ele>
        <time>2010-01-01T05:39:28Z</time>
      </trkpt>
      <trkpt lat="42.17467" lon="2.70874">
        <ele>385</ele>
        <time>2010-01-01T05:39:31Z</time>
      </trkpt>
      <trkpt lat="42.17465" lon="2.70861">
        <ele>384</ele>
        <time>2010-01-01T05:39:35Z</time>
      </trkpt>
      <trkpt lat="42.17459" lon="2.70851">
        <ele>382</ele>
        <time>2010-01-01T05:39:39Z</time>
      </trkpt>
      <trkpt lat="42.17458" lon="2.70841">
        <ele>382</ele>
        <time>2010-01-01T05:39:42Z</time>
      </trkpt>
      <trkpt lat="42.17457" lon="2.70828">
        <ele>382</ele>
        <time>2010-01-01T05:39:46Z</time>
      </trkpt>
      <trkpt lat="42.17452" lon="2.70815">
        <ele>382</ele>
        <time>2010-01-01T05:39:50Z</time>
      </trkpt>
      <trkpt lat="42.17451" lon="2.70812">
        <ele>382</ele>
        <time>2010-01-01T05:39:51Z</time>
      </trkpt>
      <trkpt lat="42.17449" lon="2.70809">
        <ele>382</ele>
        <time>2010-01-01T05:39:52Z</time>
      </trkpt>
      <trkpt lat="42.17445" lon="2.70804">
        <ele>382</ele>
        <time>2010-01-01T05:39:55Z</time>
      </trkpt>
      <trkpt lat="42.1744" lon="2.70789">
        <ele>380</ele>
        <time>2010-01-01T05:39:59Z</time>
      </trkpt>
      <trkpt lat="42.1744" lon="2.70783">
        <ele>379</ele>
        <time>2010-01-01T05:40:01Z</time>
      </trkpt>
      <trkpt lat="42.17439" lon="2.70776">
        <ele>378</ele>
        <time>2010-01-01T05:40:03Z</time>
      </trkpt>
      <trkpt lat="42.17439" lon="2.70772">
        <ele>378</ele>
        <time>2010-01-01T05:40:05Z</time>
      </trkpt>
      <trkpt lat="42.17438" lon="2.70755">
        <ele>377</ele>
        <time>2010-01-01T05:40:09Z</time>
      </trkpt>
      <trkpt lat="42.17439" lon="2.70753">
        <ele>377</ele>
        <time>2010-01-01T05:40:10Z</time>
      </trkpt>
      <trkpt lat="42.17439" lon="2.70749">
        <ele>377</ele>
        <time>2010-01-01T05:40:11Z</time>
      </trkpt>
      <trkpt lat="42.1744" lon="2.70749">
        <ele>377</ele>
        <time>2010-01-01T05:40:12Z</time>
      </trkpt>
      <trkpt lat="42.1744" lon="2.70741">
        <ele>378</ele>
        <time>2010-01-01T05:40:14Z</time>
      </trkpt>
      <trkpt lat="42.17436" lon="2.70725">
        <ele>379</ele>
        <time>2010-01-01T05:40:19Z</time>
      </trkpt>
      <trkpt lat="42.17434" lon="2.70705">
        <ele>381</ele>
        <time>2010-01-01T05:40:25Z</time>
      </trkpt>
      <trkpt lat="42.17433" lon="2.70681">
        <ele>383</ele>
        <time>2010-01-01T05:40:32Z</time>
      </trkpt>
      <trkpt lat="42.17434" lon="2.70662">
        <ele>384</ele>
        <time>2010-01-01T05:40:38Z</time>
      </trkpt>
      <trkpt lat="42.17433" lon="2.70658">
        <ele>384</ele>
        <time>2010-01-01T05:40:39Z</time>
      </trkpt>
      <trkpt lat="42.17433" lon="2.70653">
        <ele>384</ele>
        <time>2010-01-01T05:40:41Z</time>
      </trkpt>
      <trkpt lat="42.17432" lon="2.70649">
        <ele>384</ele>
        <time>2010-01-01T05:40:42Z</time>
      </trkpt>
      <trkpt lat="42.17431" lon="2.70644">
        <ele>385</ele>
        <time>2010-01-01T05:40:44Z</time>
      </trkpt>
      <trkpt lat="42.17425" lon="2.70623">
        <ele>389</ele>
        <time>2010-01-01T05:40:50Z</time>
      </trkpt>
      <trkpt lat="42.17424" lon="2.70619">
        <ele>390</ele>
        <time>2010-01-01T05:40:51Z</time>
      </trkpt>
      <trkpt lat="42.17421" lon="2.70608">
        <ele>394</ele>
        <time>2010-01-01T05:40:55Z</time>
      </trkpt>
      <trkpt lat="42.17424" lon="2.70585">
        <ele>399</ele>
        <time>2010-01-01T05:41:02Z</time>
      </trkpt>
      <trkpt lat="42.17426" lon="2.7057">
        <ele>403</ele>
        <time>2010-01-01T05:41:06Z</time>
      </trkpt>
      <trkpt lat="42.17433" lon="2.70561">
        <ele>405</ele>
        <time>2010-01-01T05:41:10Z</time>
      </trkpt>
      <trkpt lat="42.17442" lon="2.70549">
        <ele>408</ele>
        <time>2010-01-01T05:41:15Z</time>
      </trkpt>
      <trkpt lat="42.17445" lon="2.70546">
        <ele>409</ele>
        <time>2010-01-01T05:41:17Z</time>
      </trkpt>
      <trkpt lat="42.17448" lon="2.70544">
        <ele>409</ele>
        <time>2010-01-01T05:41:18Z</time>
      </trkpt>
      <trkpt lat="42.1745" lon="2.70542">
        <ele>408</ele>
        <time>2010-01-01T05:41:19Z</time>
      </trkpt>
      <trkpt lat="42.17462" lon="2.70531">
        <ele>408</ele>
        <time>2010-01-01T05:41:25Z</time>
      </trkpt>
      <trkpt lat="42.17464" lon="2.70529">
        <ele>408</ele>
        <time>2010-01-01T05:41:26Z</time>
      </trkpt>
      <trkpt lat="42.17469" lon="2.70527">
        <ele>407</ele>
        <time>2010-01-01T05:41:28Z</time>
      </trkpt>
      <trkpt lat="42.17484" lon="2.70518">
        <ele>403</ele>
        <time>2010-01-01T05:41:35Z</time>
      </trkpt>
      <trkpt lat="42.17489" lon="2.70507">
        <ele>402</ele>
        <time>2010-01-01T05:41:39Z</time>
      </trkpt>
      <trkpt lat="42.1749" lon="2.70493">
        <ele>402</ele>
        <time>2010-01-01T05:41:43Z</time>
      </trkpt>
      <trkpt lat="42.17491" lon="2.70479">
        <ele>401</ele>
        <time>2010-01-01T05:41:47Z</time>
      </trkpt>
      <trkpt lat="42.1749" lon="2.70467">
        <ele>401</ele>
        <time>2010-01-01T05:41:50Z</time>
      </trkpt>
      <trkpt lat="42.17482" lon="2.70447">
        <ele>401</ele>
        <time>2010-01-01T05:41:57Z</time>
      </trkpt>
      <trkpt lat="42.1747" lon="2.70435">
        <ele>404</ele>
        <time>2010-01-01T05:42:03Z</time>
      </trkpt>
      <trkpt lat="42.1746" lon="2.7042">
        <ele>405</ele>
        <time>2010-01-01T05:42:09Z</time>
      </trkpt>
      <trkpt lat="42.17454" lon="2.70396">
        <ele>405</ele>
        <time>2010-01-01T05:42:17Z</time>
      </trkpt>
      <trkpt lat="42.17451" lon="2.70376">
        <ele>403</ele>
        <time>2010-01-01T05:42:23Z</time>
      </trkpt>
      <trkpt lat="42.17447" lon="2.70348">
        <ele>399</ele>
        <time>2010-01-01T05:42:31Z</time>
      </trkpt>
      <trkpt lat="42.17437" lon="2.70338">
        <ele>400</ele>
        <time>2010-01-01T05:42:36Z</time>
      </trkpt>
      <trkpt lat="42.17424" lon="2.70328">
        <ele>403</ele>
        <time>2010-01-01T05:42:42Z</time>
      </trkpt>
      <trkpt lat="42.1741" lon="2.70311">
        <ele>400</ele>
        <time>2010-01-01T05:42:50Z</time>
      </trkpt>
      <trkpt lat="42.17399" lon="2.70295">
        <ele>396</ele>
        <time>2010-01-01T05:42:56Z</time>
      </trkpt>
      <trkpt lat="42.17391" lon="2.70278">
        <ele>393</ele>
        <time>2010-01-01T05:43:02Z</time>
      </trkpt>
      <trkpt lat="42.17384" lon="2.70262">
        <ele>389</ele>
        <time>2010-01-01T05:43:08Z</time>
      </trkpt>
      <trkpt lat="42.17384" lon="2.70261">
        <ele>389</ele>
        <time>2010-01-01T05:43:08Z</time>
      </trkpt>
      <trkpt lat="42.17378" lon="2.70244">
        <ele>386</ele>
        <time>2010-01-01T05:43:14Z</time>
      </trkpt>
      <trkpt lat="42.17372" lon="2.70231">
        <ele>384</ele>
        <time>2010-01-01T05:43:18Z</time>
      </trkpt>
      <trkpt lat="42.17364" lon="2.70207">
        <ele>383</ele>
        <time>2010-01-01T05:43:26Z</time>
      </trkpt>
      <trkpt lat="42.1736" lon="2.70188">
        <ele>383</ele>
        <time>2010-01-01T05:43:32Z</time>
      </trkpt>
      <trkpt lat="42.17354" lon="2.70161">
        <ele>383</ele>
        <time>2010-01-01T05:43:40Z</time>
      </trkpt>
      <trkpt lat="42.17353" lon="2.70156">
        <ele>384</ele>
        <time>2010-01-01T05:43:42Z</time>
      </trkpt>
      <trkpt lat="42.17352" lon="2.70152">
        <ele>385</ele>
        <time>2010-01-01T05:43:43Z</time>
      </trkpt>
      <trkpt lat="42.1735" lon="2.70148">
        <ele>385</ele>
        <time>2010-01-01T05:43:44Z</time>
      </trkpt>
      <trkpt lat="42.17352" lon="2.70146">
        <ele>386</ele>
        <time>2010-01-01T05:43:45Z</time>
      </trkpt>
      <trkpt lat="42.17351" lon="2.70145">
        <ele>386</ele>
        <time>2010-01-01T05:43:46Z</time>
      </trkpt>
      <trkpt lat="42.17351" lon="2.70147">
        <ele>386</ele>
        <time>2010-01-01T05:43:46Z</time>
      </trkpt>
      <trkpt lat="42.17351" lon="2.70146">
        <ele>386</ele>
        <time>2010-01-01T05:43:46Z</time>
      </trkpt>
      <trkpt lat="42.17351" lon="2.70146">
        <ele>386</ele>
        <time>2010-01-01T05:43:46Z</time>
      </trkpt>
      <trkpt lat="42.17351" lon="2.70147">
        <ele>385</ele>
        <time>2010-01-01T05:43:46Z</time>
      </trkpt>
      <trkpt lat="42.17351" lon="2.70147">
        <ele>385</ele>
        <time>2010-01-01T05:43:46Z</time>
      </trkpt>
      <trkpt lat="42.17351" lon="2.70147">
        <ele>385</ele>
        <time>2010-01-01T05:43:47Z</time>
      </trkpt>
      <trkpt lat="42.17349" lon="2.70146">
        <ele>385</ele>
        <time>2010-01-01T05:43:47Z</time>
      </trkpt>
      <trkpt lat="42.17348" lon="2.70146">
        <ele>385</ele>
        <time>2010-01-01T05:43:48Z</time>
      </trkpt>
      <trkpt lat="42.17351" lon="2.70144">
        <ele>386</ele>
        <time>2010-01-01T05:43:49Z</time>
      </trkpt>
      <trkpt lat="42.1735" lon="2.70147">
        <ele>385</ele>
        <time>2010-01-01T05:43:50Z</time>
      </trkpt>
      <trkpt lat="42.1735" lon="2.70147">
        <ele>385</ele>
        <time>2010-01-01T05:43:50Z</time>
      </trkpt>
      <trkpt lat="42.1735" lon="2.70148">
        <ele>385</ele>
        <time>2010-01-01T05:43:50Z</time>
      </trkpt>
      <trkpt lat="42.17351" lon="2.70148">
        <ele>385</ele>
        <time>2010-01-01T05:43:50Z</time>
      </trkpt>
      <trkpt lat="42.17351" lon="2.70148">
        <ele>385</ele>
        <time>2010-01-01T05:43:51Z</time>
      </trkpt>
      <trkpt lat="42.1735" lon="2.70147">
        <ele>385</ele>
        <time>2010-01-01T05:43:51Z</time>
      </trkpt>
      <trkpt lat="42.1735" lon="2.70145">
        <ele>385</ele>
        <time>2010-01-01T05:43:51Z</time>
      </trkpt>
      <trkpt lat="42.1735" lon="2.70146">
        <ele>385</ele>
        <time>2010-01-01T05:43:51Z</time>
      </trkpt>
      <trkpt lat="42.1735" lon="2.70146">
        <ele>385</ele>
        <time>2010-01-01T05:43:51Z</time>
      </trkpt>
      <trkpt lat="42.17351" lon="2.70145">
        <ele>386</ele>
        <time>2010-01-01T05:43:52Z</time>
      </trkpt>
      <trkpt lat="42.17351" lon="2.70145">
        <ele>386</ele>
        <time>2010-01-01T05:43:52Z</time>
      </trkpt>
      <trkpt lat="42.1735" lon="2.70143">
        <ele>386</ele>
        <time>2010-01-01T05:43:53Z</time>
      </trkpt>
      <trkpt lat="42.17353" lon="2.70148">
        <ele>386</ele>
        <time>2010-01-01T05:43:54Z</time>
      </trkpt>
      <trkpt lat="42.1735" lon="2.70148">
        <ele>385</ele>
        <time>2010-01-01T05:43:56Z</time>
      </trkpt>
      <trkpt lat="42.17352" lon="2.7015">
        <ele>385</ele>
        <time>2010-01-01T05:43:57Z</time>
      </trkpt>
      <trkpt lat="42.1736" lon="2.70137">
        <ele>390</ele>
        <time>2010-01-01T05:44:01Z</time>
      </trkpt>
      <trkpt lat="42.1736" lon="2.70135">
        <ele>391</ele>
        <time>2010-01-01T05:44:02Z</time>
      </trkpt>
      <trkpt lat="42.17358" lon="2.7012">
        <ele>391</ele>
        <time>2010-01-01T05:44:07Z</time>
      </trkpt>
      <trkpt lat="42.17358" lon="2.70119">
        <ele>391</ele>
        <time>2010-01-01T05:44:07Z</time>
      </trkpt>
      <trkpt lat="42.17355" lon="2.70108">
        <ele>392</ele>
        <time>2010-01-01T05:44:10Z</time>
      </trkpt>
      <trkpt lat="42.17349" lon="2.70091">
        <ele>394</ele>
        <time>2010-01-01T05:44:16Z</time>
      </trkpt>
      <trkpt lat="42.17349" lon="2.70089">
        <ele>395</ele>
        <time>2010-01-01T05:44:17Z</time>
      </trkpt>
      <trkpt lat="42.17355" lon="2.70069">
        <ele>396</ele>
        <time>2010-01-01T05:44:23Z</time>
      </trkpt>
      <trkpt lat="42.17354" lon="2.70053">
        <ele>396</ele>
        <time>2010-01-01T05:44:28Z</time>
      </trkpt>
      <trkpt lat="42.17348" lon="2.70029">
        <ele>396</ele>
        <time>2010-01-01T05:44:36Z</time>
      </trkpt>
      <trkpt lat="42.17347" lon="2.70021">
        <ele>396</ele>
        <time>2010-01-01T05:44:38Z</time>
      </trkpt>
      <trkpt lat="42.17349" lon="2.70013">
        <ele>396</ele>
        <time>2010-01-01T05:44:41Z</time>
      </trkpt>
      <trkpt lat="42.17351" lon="2.69997">
        <ele>396</ele>
        <time>2010-01-01T05:44:45Z</time>
      </trkpt>
      <trkpt lat="42.17351" lon="2.69991">
        <ele>396</ele>
        <time>2010-01-01T05:44:47Z</time>
      </trkpt>
      <trkpt lat="42.17353" lon="2.69985">
        <ele>396</ele>
        <time>2010-01-01T05:44:49Z</time>
      </trkpt>
      <trkpt lat="42.17353" lon="2.69975">
        <ele>396</ele>
        <time>2010-01-01T05:44:52Z</time>
      </trkpt>
      <trkpt lat="42.17351" lon="2.69967">
        <ele>397</ele>
        <time>2010-01-01T05:44:54Z</time>
      </trkpt>
      <trkpt lat="42.17351" lon="2.69956">
        <ele>398</ele>
        <time>2010-01-01T05:44:58Z</time>
      </trkpt>
      <trkpt lat="42.17363" lon="2.69933">
        <ele>402</ele>
        <time>2010-01-01T05:45:06Z</time>
      </trkpt>
      <trkpt lat="42.17371" lon="2.69922">
        <ele>403</ele>
        <time>2010-01-01T05:45:11Z</time>
      </trkpt>
      <trkpt lat="42.17361" lon="2.69928">
        <ele>402</ele>
        <time>2010-01-01T05:45:15Z</time>
      </trkpt>
      <trkpt lat="42.17369" lon="2.69921">
        <ele>403</ele>
        <time>2010-01-01T05:45:19Z</time>
      </trkpt>
      <trkpt lat="42.17368" lon="2.69903">
        <ele>405</ele>
        <time>2010-01-01T05:45:24Z</time>
      </trkpt>
      <trkpt lat="42.1737" lon="2.69887">
        <ele>407</ele>
        <time>2010-01-01T05:45:29Z</time>
      </trkpt>
      <trkpt lat="42.17372" lon="2.69883">
        <ele>408</ele>
        <time>2010-01-01T05:45:30Z</time>
      </trkpt>
      <trkpt lat="42.17374" lon="2.6988">
        <ele>408</ele>
        <time>2010-01-01T05:45:32Z</time>
      </trkpt>
      <trkpt lat="42.17377" lon="2.69865">
        <ele>411</ele>
        <time>2010-01-01T05:45:36Z</time>
      </trkpt>
      <trkpt lat="42.17376" lon="2.69857">
        <ele>411</ele>
        <time>2010-01-01T05:45:39Z</time>
      </trkpt>
      <trkpt lat="42.17379" lon="2.69837">
        <ele>413</ele>
        <time>2010-01-01T05:45:45Z</time>
      </trkpt>
      <trkpt lat="42.17382" lon="2.69815">
        <ele>414</ele>
        <time>2010-01-01T05:45:51Z</time>
      </trkpt>
      <trkpt lat="42.17383" lon="2.69811">
        <ele>414</ele>
        <time>2010-01-01T05:45:53Z</time>
      </trkpt>
      <trkpt lat="42.17381" lon="2.69796">
        <ele>414</ele>
        <time>2010-01-01T05:45:57Z</time>
      </trkpt>
      <trkpt lat="42.17389" lon="2.69776">
        <ele>417</ele>
        <time>2010-01-01T05:46:04Z</time>
      </trkpt>
      <trkpt lat="42.17388" lon="2.69761">
        <ele>419</ele>
        <time>2010-01-01T05:46:08Z</time>
      </trkpt>
      <trkpt lat="42.17386" lon="2.69754">
        <ele>419</ele>
        <time>2010-01-01T05:46:10Z</time>
      </trkpt>
      <trkpt lat="42.17384" lon="2.69745">
        <ele>420</ele>
        <time>2010-01-01T05:46:13Z</time>
      </trkpt>
      <trkpt lat="42.17388" lon="2.69739">
        <ele>422</ele>
        <time>2010-01-01T05:46:16Z</time>
      </trkpt>
      <trkpt lat="42.17388" lon="2.6973">
        <ele>424</ele>
        <time>2010-01-01T05:46:18Z</time>
      </trkpt>
      <trkpt lat="42.17385" lon="2.69726">
        <ele>424</ele>
        <time>2010-01-01T05:46:20Z</time>
      </trkpt>
      <trkpt lat="42.17382" lon="2.69712">
        <ele>426</ele>
        <time>2010-01-01T05:46:24Z</time>
      </trkpt>
      <trkpt lat="42.1738" lon="2.69709">
        <ele>426</ele>
        <time>2010-01-01T05:46:25Z</time>
      </trkpt>
      <trkpt lat="42.17378" lon="2.69706">
        <ele>427</ele>
        <time>2010-01-01T05:46:27Z</time>
      </trkpt>
      <trkpt lat="42.17378" lon="2.69705">
        <ele>427</ele>
        <time>2010-01-01T05:46:27Z</time>
      </trkpt>
      <trkpt lat="42.17373" lon="2.69702">
        <ele>426</ele>
        <time>2010-01-01T05:46:29Z</time>
      </trkpt>
      <trkpt lat="42.1737" lon="2.69698">
        <ele>426</ele>
        <time>2010-01-01T05:46:31Z</time>
      </trkpt>
      <trkpt lat="42.17371" lon="2.69689">
        <ele>428</ele>
        <time>2010-01-01T05:46:34Z</time>
      </trkpt>
      <trkpt lat="42.17376" lon="2.69673">
        <ele>432</ele>
        <time>2010-01-01T05:46:39Z</time>
      </trkpt>
      <trkpt lat="42.17386" lon="2.69664">
        <ele>436</ele>
        <time>2010-01-01T05:46:44Z</time>
      </trkpt>
      <trkpt lat="42.17387" lon="2.69661">
        <ele>437</ele>
        <time>2010-01-01T05:46:45Z</time>
      </trkpt>
      <trkpt lat="42.17389" lon="2.69654">
        <ele>439</ele>
        <time>2010-01-01T05:46:47Z</time>
      </trkpt>
      <trkpt lat="42.17392" lon="2.69642">
        <ele>442</ele>
        <time>2010-01-01T05:46:51Z</time>
      </trkpt>
      <trkpt lat="42.17392" lon="2.69633">
        <ele>444</ele>
        <time>2010-01-01T05:46:53Z</time>
      </trkpt>
      <trkpt lat="42.17394" lon="2.69625">
        <ele>445</ele>
        <time>2010-01-01T05:46:56Z</time>
      </trkpt>
      <trkpt lat="42.17399" lon="2.69614">
        <ele>447</ele>
        <time>2010-01-01T05:47:00Z</time>
      </trkpt>
      <trkpt lat="42.17413" lon="2.69609">
        <ele>448</ele>
        <time>2010-01-01T05:47:06Z</time>
      </trkpt>
      <trkpt lat="42.17413" lon="2.69595">
        <ele>449</ele>
        <time>2010-01-01T05:47:10Z</time>
      </trkpt>
      <trkpt lat="42.17406" lon="2.69581">
        <ele>449</ele>
        <time>2010-01-01T05:47:15Z</time>
      </trkpt>
      <trkpt lat="42.17399" lon="2.69571">
        <ele>449</ele>
        <time>2010-01-01T05:47:19Z</time>
      </trkpt>
      <trkpt lat="42.17399" lon="2.69559">
        <ele>449</ele>
        <time>2010-01-01T05:47:22Z</time>
      </trkpt>
      <trkpt lat="42.17398" lon="2.69546">
        <ele>447</ele>
        <time>2010-01-01T05:47:26Z</time>
      </trkpt>
      <trkpt lat="42.17396" lon="2.6954">
        <ele>447</ele>
        <time>2010-01-01T05:47:28Z</time>
      </trkpt>
      <trkpt lat="42.17395" lon="2.6954">
        <ele>447</ele>
        <time>2010-01-01T05:47:28Z</time>
      </trkpt>
      <trkpt lat="42.17395" lon="2.69541">
        <ele>447</ele>
        <time>2010-01-01T05:47:29Z</time>
      </trkpt>
      <trkpt lat="42.17393" lon="2.69541">
        <ele>447</ele>
        <time>2010-01-01T05:47:29Z</time>
      </trkpt>
      <trkpt lat="42.1739" lon="2.69533">
        <ele>447</ele>
        <time>2010-01-01T05:47:32Z</time>
      </trkpt>
      <trkpt lat="42.17387" lon="2.69529">
        <ele>446</ele>
        <time>2010-01-01T05:47:34Z</time>
      </trkpt>
      <trkpt lat="42.17384" lon="2.69524">
        <ele>444</ele>
        <time>2010-01-01T05:47:36Z</time>
      </trkpt>
      <trkpt lat="42.17384" lon="2.69527">
        <ele>445</ele>
        <time>2010-01-01T05:47:37Z</time>
      </trkpt>
      <trkpt lat="42.17386" lon="2.69527">
        <ele>445</ele>
        <time>2010-01-01T05:47:37Z</time>
      </trkpt>
      <trkpt lat="42.17385" lon="2.69527">
        <ele>445</ele>
        <time>2010-01-01T05:47:38Z</time>
      </trkpt>
      <trkpt lat="42.17386" lon="2.69528">
        <ele>445</ele>
        <time>2010-01-01T05:47:38Z</time>
      </trkpt>
      <trkpt lat="42.17392" lon="2.6953">
        <ele>446</ele>
        <time>2010-01-01T05:47:41Z</time>
      </trkpt>
      <trkpt lat="42.1739" lon="2.69514">
        <ele>444</ele>
        <time>2010-01-01T05:47:45Z</time>
      </trkpt>
      <trkpt lat="42.1739" lon="2.69512">
        <ele>444</ele>
        <time>2010-01-01T05:47:46Z</time>
      </trkpt>
      <trkpt lat="42.17387" lon="2.69494">
        <ele>441</ele>
        <time>2010-01-01T05:47:51Z</time>
      </trkpt>
      <trkpt lat="42.17387" lon="2.6948">
        <ele>440</ele>
        <time>2010-01-01T05:47:56Z</time>
      </trkpt>
      <trkpt lat="42.17388" lon="2.69467">
        <ele>438</ele>
        <time>2010-01-01T05:47:59Z</time>
      </trkpt>
      <trkpt lat="42.17389" lon="2.69451">
        <ele>435</ele>
        <time>2010-01-01T05:48:04Z</time>
      </trkpt>
      <trkpt lat="42.17386" lon="2.69444">
        <ele>433</ele>
        <time>2010-01-01T05:48:07Z</time>
      </trkpt>
      <trkpt lat="42.1738" lon="2.69429">
        <ele>430</ele>
        <time>2010-01-01T05:48:12Z</time>
      </trkpt>
      <trkpt lat="42.17374" lon="2.69413">
        <ele>429</ele>
        <time>2010-01-01T05:48:17Z</time>
      </trkpt>
      <trkpt lat="42.17371" lon="2.69395">
        <ele>428</ele>
        <time>2010-01-01T05:48:22Z</time>
      </trkpt>
      <trkpt lat="42.17372" lon="2.6938">
        <ele>428</ele>
        <time>2010-01-01T05:48:27Z</time>
      </trkpt>
      <trkpt lat="42.1737" lon="2.69359">
        <ele>427</ele>
        <time>2010-01-01T05:48:33Z</time>
      </trkpt>
      <trkpt lat="42.17367" lon="2.69347">
        <ele>426</ele>
        <time>2010-01-01T05:48:37Z</time>
      </trkpt>
      <trkpt lat="42.17361" lon="2.69332">
        <ele>426</ele>
        <time>2010-01-01T05:48:42Z</time>
      </trkpt>
      <trkpt lat="42.17357" lon="2.69317">
        <ele>424</ele>
        <time>2010-01-01T05:48:47Z</time>
      </trkpt>
      <trkpt lat="42.17351" lon="2.69299">
        <ele>421</ele>
        <time>2010-01-01T05:48:53Z</time>
      </trkpt>
      <trkpt lat="42.17343" lon="2.69286">
        <ele>418</ele>
        <time>2010-01-01T05:48:58Z</time>
      </trkpt>
      <trkpt lat="42.17338" lon="2.69275">
        <ele>417</ele>
        <time>2010-01-01T05:49:02Z</time>
      </trkpt>
      <trkpt lat="42.17332" lon="2.69267">
        <ele>415</ele>
        <time>2010-01-01T05:49:05Z</time>
      </trkpt>
      <trkpt lat="42.17329" lon="2.69268">
        <ele>415</ele>
        <time>2010-01-01T05:49:06Z</time>
      </trkpt>
      <trkpt lat="42.17323" lon="2.6926">
        <ele>412</ele>
        <time>2010-01-01T05:49:10Z</time>
      </trkpt>
      <trkpt lat="42.17314" lon="2.69253">
        <ele>411</ele>
        <time>2010-01-01T05:49:14Z</time>
      </trkpt>
      <trkpt lat="42.17311" lon="2.69244">
        <ele>409</ele>
        <time>2010-01-01T05:49:17Z</time>
      </trkpt>
      <trkpt lat="42.17303" lon="2.69239">
        <ele>408</ele>
        <time>2010-01-01T05:49:20Z</time>
      </trkpt>
      <trkpt lat="42.17295" lon="2.69232">
        <ele>406</ele>
        <time>2010-01-01T05:49:24Z</time>
      </trkpt>
      <trkpt lat="42.17295" lon="2.69232">
        <ele>405</ele>
        <time>2010-01-01T05:49:24Z</time>
      </trkpt>
      <trkpt lat="42.17283" lon="2.69229">
        <ele>404</ele>
        <time>2010-01-01T05:49:29Z</time>
      </trkpt>
      <trkpt lat="42.17277" lon="2.6922">
        <ele>403</ele>
        <time>2010-01-01T05:49:32Z</time>
      </trkpt>
      <trkpt lat="42.1727" lon="2.69206">
        <ele>401</ele>
        <time>2010-01-01T05:49:37Z</time>
      </trkpt>
      <trkpt lat="42.17263" lon="2.69196">
        <ele>400</ele>
        <time>2010-01-01T05:49:41Z</time>
      </trkpt>
      <trkpt lat="42.17262" lon="2.69178">
        <ele>398</ele>
        <time>2010-01-01T05:49:47Z</time>
      </trkpt>
      <trkpt lat="42.17261" lon="2.69178">
        <ele>398</ele>
        <time>2010-01-01T05:49:47Z</time>
      </trkpt>
      <trkpt lat="42.17248" lon="2.69167">
        <ele>397</ele>
        <time>2010-01-01T05:49:53Z</time>
      </trkpt>
      <trkpt lat="42.17243" lon="2.69163">
        <ele>395</ele>
        <time>2010-01-01T05:49:55Z</time>
      </trkpt>
      <trkpt lat="42.17245" lon="2.69159">
        <ele>395</ele>
        <time>2010-01-01T05:49:57Z</time>
      </trkpt>
      <trkpt lat="42.17244" lon="2.69145">
        <ele>394</ele>
        <time>2010-01-01T05:50:01Z</time>
      </trkpt>
      <trkpt lat="42.17238" lon="2.6913">
        <ele>392</ele>
        <time>2010-01-01T05:50:06Z</time>
      </trkpt>
      <trkpt lat="42.17231" lon="2.69115">
        <ele>390</ele>
        <time>2010-01-01T05:50:11Z</time>
      </trkpt>
      <trkpt lat="42.17229" lon="2.691">
        <ele>388</ele>
        <time>2010-01-01T05:50:16Z</time>
      </trkpt>
      <trkpt lat="42.17226" lon="2.6908">
        <ele>386</ele>
        <time>2010-01-01T05:50:21Z</time>
      </trkpt>
      <trkpt lat="42.17219" lon="2.69062">
        <ele>385</ele>
        <time>2010-01-01T05:50:28Z</time>
      </trkpt>
      <trkpt lat="42.17215" lon="2.69043">
        <ele>385</ele>
        <time>2010-01-01T05:50:33Z</time>
      </trkpt>
      <trkpt lat="42.17212" lon="2.69029">
        <ele>385</ele>
        <time>2010-01-01T05:50:38Z</time>
      </trkpt>
      <trkpt lat="42.17208" lon="2.69024">
        <ele>385</ele>
        <time>2010-01-01T05:50:40Z</time>
      </trkpt>
      <trkpt lat="42.17204" lon="2.6901">
        <ele>385</ele>
        <time>2010-01-01T05:50:45Z</time>
      </trkpt>
      <trkpt lat="42.17203" lon="2.69">
        <ele>386</ele>
        <time>2010-01-01T05:50:47Z</time>
      </trkpt>
      <trkpt lat="42.17191" lon="2.6899">
        <ele>386</ele>
        <time>2010-01-01T05:50:53Z</time>
      </trkpt>
      <trkpt lat="42.17185" lon="2.68975">
        <ele>384</ele>
        <time>2010-01-01T05:50:58Z</time>
      </trkpt>
      <trkpt lat="42.17171" lon="2.68965">
        <ele>381</ele>
        <time>2010-01-01T05:51:04Z</time>
      </trkpt>
      <trkpt lat="42.17168" lon="2.68959">
        <ele>381</ele>
        <time>2010-01-01T05:51:07Z</time>
      </trkpt>
      <trkpt lat="42.17166" lon="2.68952">
        <ele>381</ele>
        <time>2010-01-01T05:51:09Z</time>
      </trkpt>
      <trkpt lat="42.17158" lon="2.68938">
        <ele>379</ele>
        <time>2010-01-01T05:51:14Z</time>
      </trkpt>
      <trkpt lat="42.17153" lon="2.6892">
        <ele>376</ele>
        <time>2010-01-01T05:51:20Z</time>
      </trkpt>
      <trkpt lat="42.17153" lon="2.68904">
        <ele>375</ele>
        <time>2010-01-01T05:51:24Z</time>
      </trkpt>
      <trkpt lat="42.17148" lon="2.68886">
        <ele>373</ele>
        <time>2010-01-01T05:51:30Z</time>
      </trkpt>
      <trkpt lat="42.17145" lon="2.68882">
        <ele>372</ele>
        <time>2010-01-01T05:51:32Z</time>
      </trkpt>
      <trkpt lat="42.17141" lon="2.68867">
        <ele>372</ele>
        <time>2010-01-01T05:51:37Z</time>
      </trkpt>
      <trkpt lat="42.17138" lon="2.68861">
        <ele>371</ele>
        <time>2010-01-01T05:51:39Z</time>
      </trkpt>
      <trkpt lat="42.17136" lon="2.68855">
        <ele>371</ele>
        <time>2010-01-01T05:51:41Z</time>
      </trkpt>
      <trkpt lat="42.17135" lon="2.68853">
        <ele>371</ele>
        <time>2010-01-01T05:51:42Z</time>
      </trkpt>
      <trkpt lat="42.17132" lon="2.68836">
        <ele>370</ele>
        <time>2010-01-01T05:51:47Z</time>
      </trkpt>
      <trkpt lat="42.17134" lon="2.68825">
        <ele>371</ele>
        <time>2010-01-01T05:51:50Z</time>
      </trkpt>
      <trkpt lat="42.17135" lon="2.68812">
        <ele>371</ele>
        <time>2010-01-01T05:51:54Z</time>
      </trkpt>
      <trkpt lat="42.17134" lon="2.68799">
        <ele>372</ele>
        <time>2010-01-01T05:51:58Z</time>
      </trkpt>
      <trkpt lat="42.17131" lon="2.68793">
        <ele>371</ele>
        <time>2010-01-01T05:52:00Z</time>
      </trkpt>
      <trkpt lat="42.17135" lon="2.68778">
        <ele>372</ele>
        <time>2010-01-01T05:52:05Z</time>
      </trkpt>
      <trkpt lat="42.17136" lon="2.68772">
        <ele>372</ele>
        <time>2010-01-01T05:52:07Z</time>
      </trkpt>
      <trkpt lat="42.17139" lon="2.68762">
        <ele>372</ele>
        <time>2010-01-01T05:52:10Z</time>
      </trkpt>
      <trkpt lat="42.17135" lon="2.6875">
        <ele>371</ele>
        <time>2010-01-01T05:52:14Z</time>
      </trkpt>
      <trkpt lat="42.17135" lon="2.68741">
        <ele>371</ele>
        <time>2010-01-01T05:52:16Z</time>
      </trkpt>
      <trkpt lat="42.17138" lon="2.68719">
        <ele>370</ele>
        <time>2010-01-01T05:52:23Z</time>
      </trkpt>
      <trkpt lat="42.1714" lon="2.68709">
        <ele>370</ele>
        <time>2010-01-01T05:52:26Z</time>
      </trkpt>
      <trkpt lat="42.17135" lon="2.68689">
        <ele>370</ele>
        <time>2010-01-01T05:52:32Z</time>
      </trkpt>
      <trkpt lat="42.17134" lon="2.6868">
        <ele>371</ele>
        <time>2010-01-01T05:52:35Z</time>
      </trkpt>
      <trkpt lat="42.17131" lon="2.68661">
        <ele>372</ele>
        <time>2010-01-01T05:52:41Z</time>
      </trkpt>
      <trkpt lat="42.17129" lon="2.68643">
        <ele>372</ele>
        <time>2010-01-01T05:52:46Z</time>
      </trkpt>
      <trkpt lat="42.17127" lon="2.6863">
        <ele>372</ele>
        <time>2010-01-01T05:52:50Z</time>
      </trkpt>
      <trkpt lat="42.17128" lon="2.68622">
        <ele>372</ele>
        <time>2010-01-01T05:52:52Z</time>
      </trkpt>
      <trkpt lat="42.1713" lon="2.68615">
        <ele>373</ele>
        <time>2010-01-01T05:52:55Z</time>
      </trkpt>
      <trkpt lat="42.17127" lon="2.68595">
        <ele>375</ele>
        <time>2010-01-01T05:53:01Z</time>
      </trkpt>
      <trkpt lat="42.17125" lon="2.68581">
        <ele>377</ele>
        <time>2010-01-01T05:53:05Z</time>
      </trkpt>
      <trkpt lat="42.17126" lon="2.68578">
        <ele>377</ele>
        <time>2010-01-01T05:53:06Z</time>
      </trkpt>
      <trkpt lat="42.17126" lon="2.68566">
        <ele>378</ele>
        <time>2010-01-01T05:53:10Z</time>
      </trkpt>
      <trkpt lat="42.17125" lon="2.68549">
        <ele>379</ele>
        <time>2010-01-01T05:53:15Z</time>
      </trkpt>
      <trkpt lat="42.17129" lon="2.68542">
        <ele>380</ele>
        <time>2010-01-01T05:53:17Z</time>
      </trkpt>
      <trkpt lat="42.17126" lon="2.68533">
        <ele>381</ele>
        <time>2010-01-01T05:53:20Z</time>
      </trkpt>
      <trkpt lat="42.17117" lon="2.68526">
        <ele>383</ele>
        <time>2010-01-01T05:53:24Z</time>
      </trkpt>
      <trkpt lat="42.17115" lon="2.6852">
        <ele>383</ele>
        <time>2010-01-01T05:53:26Z</time>
      </trkpt>
      <trkpt lat="42.1711" lon="2.68501">
        <ele>385</ele>
        <time>2010-01-01T05:53:32Z</time>
      </trkpt>
      <trkpt lat="42.17107" lon="2.685">
        <ele>385</ele>
        <time>2010-01-01T05:53:34Z</time>
      </trkpt>
      <trkpt lat="42.17103" lon="2.68502">
        <ele>385</ele>
        <time>2010-01-01T05:53:35Z</time>
      </trkpt>
      <trkpt lat="42.17097" lon="2.68501">
        <ele>385</ele>
        <time>2010-01-01T05:53:38Z</time>
      </trkpt>
      <trkpt lat="42.17092" lon="2.68487">
        <ele>387</ele>
        <time>2010-01-01T05:53:43Z</time>
      </trkpt>
      <trkpt lat="42.17092" lon="2.68486">
        <ele>387</ele>
        <time>2010-01-01T05:53:43Z</time>
      </trkpt>
      <trkpt lat="42.17088" lon="2.68475">
        <ele>389</ele>
        <time>2010-01-01T05:53:46Z</time>
      </trkpt>
      <trkpt lat="42.17083" lon="2.68457">
        <ele>391</ele>
        <time>2010-01-01T05:53:52Z</time>
      </trkpt>
      <trkpt lat="42.17083" lon="2.6845">
        <ele>392</ele>
        <time>2010-01-01T05:53:54Z</time>
      </trkpt>
      <trkpt lat="42.17082" lon="2.68444">
        <ele>392</ele>
        <time>2010-01-01T05:53:56Z</time>
      </trkpt>
      <trkpt lat="42.17074" lon="2.68434">
        <ele>392</ele>
        <time>2010-01-01T05:54:00Z</time>
      </trkpt>
      <trkpt lat="42.17069" lon="2.6842">
        <ele>391</ele>
        <time>2010-01-01T05:54:05Z</time>
      </trkpt>
      <trkpt lat="42.17069" lon="2.68414">
        <ele>392</ele>
        <time>2010-01-01T05:54:06Z</time>
      </trkpt>
      <trkpt lat="42.17069" lon="2.68413">
        <ele>392</ele>
        <time>2010-01-01T05:54:07Z</time>
      </trkpt>
      <trkpt lat="42.17073" lon="2.68401">
        <ele>394</ele>
        <time>2010-01-01T05:54:11Z</time>
      </trkpt>
      <trkpt lat="42.17075" lon="2.68392">
        <ele>395</ele>
        <time>2010-01-01T05:54:13Z</time>
      </trkpt>
      <trkpt lat="42.17075" lon="2.68382">
        <ele>397</ele>
        <time>2010-01-01T05:54:16Z</time>
      </trkpt>
      <trkpt lat="42.17078" lon="2.68376">
        <ele>398</ele>
        <time>2010-01-01T05:54:18Z</time>
      </trkpt>
      <trkpt lat="42.17086" lon="2.68366">
        <ele>401</ele>
        <time>2010-01-01T05:54:23Z</time>
      </trkpt>
      <trkpt lat="42.17085" lon="2.68364">
        <ele>401</ele>
        <time>2010-01-01T05:54:23Z</time>
      </trkpt>
      <trkpt lat="42.17084" lon="2.68351">
        <ele>403</ele>
        <time>2010-01-01T05:54:27Z</time>
      </trkpt>
      <trkpt lat="42.17083" lon="2.68342">
        <ele>404</ele>
        <time>2010-01-01T05:54:30Z</time>
      </trkpt>
      <trkpt lat="42.17084" lon="2.68338">
        <ele>405</ele>
        <time>2010-01-01T05:54:31Z</time>
      </trkpt>
      <trkpt lat="42.17084" lon="2.68317">
        <ele>409</ele>
        <time>2010-01-01T05:54:37Z</time>
      </trkpt>
      <trkpt lat="42.17083" lon="2.68315">
        <ele>409</ele>
        <time>2010-01-01T05:54:38Z</time>
      </trkpt>
      <trkpt lat="42.1708" lon="2.68304">
        <ele>411</ele>
        <time>2010-01-01T05:54:42Z</time>
      </trkpt>
      <trkpt lat="42.17076" lon="2.68284">
        <ele>412</ele>
        <time>2010-01-01T05:54:48Z</time>
      </trkpt>
      <trkpt lat="42.17076" lon="2.68278">
        <ele>413</ele>
        <time>2010-01-01T05:54:50Z</time>
      </trkpt>
      <trkpt lat="42.17076" lon="2.68273">
        <ele>414</ele>
        <time>2010-01-01T05:54:51Z</time>
      </trkpt>
      <trkpt lat="42.17073" lon="2.68268">
        <ele>413</ele>
        <time>2010-01-01T05:54:53Z</time>
      </trkpt>
      <trkpt lat="42.17075" lon="2.68253">
        <ele>414</ele>
        <time>2010-01-01T05:54:58Z</time>
      </trkpt>
      <trkpt lat="42.17084" lon="2.68242">
        <ele>414</ele>
        <time>2010-01-01T05:55:03Z</time>
      </trkpt>
      <trkpt lat="42.17092" lon="2.68226">
        <ele>412</ele>
        <time>2010-01-01T05:55:08Z</time>
      </trkpt>
      <trkpt lat="42.17099" lon="2.68217">
        <ele>411</ele>
        <time>2010-01-01T05:55:12Z</time>
      </trkpt>
      <trkpt lat="42.17098" lon="2.68204">
        <ele>410</ele>
        <time>2010-01-01T05:55:16Z</time>
      </trkpt>
      <trkpt lat="42.17102" lon="2.68187">
        <ele>409</ele>
        <time>2010-01-01T05:55:21Z</time>
      </trkpt>
      <trkpt lat="42.17104" lon="2.68177">
        <ele>409</ele>
        <time>2010-01-01T05:55:24Z</time>
      </trkpt>
      <trkpt lat="42.17105" lon="2.68165">
        <ele>408</ele>
        <time>2010-01-01T05:55:28Z</time>
      </trkpt>
      <trkpt lat="42.17108" lon="2.6815">
        <ele>406</ele>
        <time>2010-01-01T05:55:32Z</time>
      </trkpt>
      <trkpt lat="42.1711" lon="2.68131">
        <ele>404</ele>
        <time>2010-01-01T05:55:38Z</time>
      </trkpt>
      <trkpt lat="42.17109" lon="2.68116">
        <ele>401</ele>
        <time>2010-01-01T05:55:43Z</time>
      </trkpt>
      <trkpt lat="42.17112" lon="2.68101">
        <ele>399</ele>
        <time>2010-01-01T05:55:47Z</time>
      </trkpt>
      <trkpt lat="42.17116" lon="2.68082">
        <ele>395</ele>
        <time>2010-01-01T05:55:53Z</time>
      </trkpt>
      <trkpt lat="42.17116" lon="2.68065">
        <ele>392</ele>
        <time>2010-01-01T05:55:58Z</time>
      </trkpt>
      <trkpt lat="42.17115" lon="2.68054">
        <ele>390</ele>
        <time>2010-01-01T05:56:01Z</time>
      </trkpt>
      <trkpt lat="42.17119" lon="2.68044">
        <ele>389</ele>
        <time>2010-01-01T05:56:05Z</time>
      </trkpt>
      <trkpt lat="42.17122" lon="2.6803">
        <ele>388</ele>
        <time>2010-01-01T05:56:09Z</time>
      </trkpt>
      <trkpt lat="42.17134" lon="2.68011">
        <ele>387</ele>
        <time>2010-01-01T05:56:17Z</time>
      </trkpt>
      <trkpt lat="42.17138" lon="2.67988">
        <ele>386</ele>
        <time>2010-01-01T05:56:24Z</time>
      </trkpt>
      <trkpt lat="42.17137" lon="2.67964">
        <ele>383</ele>
        <time>2010-01-01T05:56:31Z</time>
      </trkpt>
      <trkpt lat="42.17132" lon="2.6794">
        <ele>381</ele>
        <time>2010-01-01T05:56:38Z</time>
      </trkpt>
      <trkpt lat="42.17129" lon="2.67918">
        <ele>379</ele>
        <time>2010-01-01T05:56:45Z</time>
      </trkpt>
      <trkpt lat="42.17127" lon="2.67912">
        <ele>379</ele>
        <time>2010-01-01T05:56:47Z</time>
      </trkpt>
      <trkpt lat="42.17119" lon="2.67893">
        <ele>377</ele>
        <time>2010-01-01T05:56:53Z</time>
      </trkpt>
      <trkpt lat="42.17115" lon="2.67873">
        <ele>377</ele>
        <time>2010-01-01T05:56:59Z</time>
      </trkpt>
      <trkpt lat="42.17113" lon="2.67857">
        <ele>377</ele>
        <time>2010-01-01T05:57:04Z</time>
      </trkpt>
      <trkpt lat="42.17113" lon="2.67835">
        <ele>377</ele>
        <time>2010-01-01T05:57:11Z</time>
      </trkpt>
      <trkpt lat="42.17109" lon="2.67807">
        <ele>376</ele>
        <time>2010-01-01T05:57:19Z</time>
      </trkpt>
      <trkpt lat="42.17114" lon="2.67782">
        <ele>377</ele>
        <time>2010-01-01T05:57:27Z</time>
      </trkpt>
      <trkpt lat="42.17117" lon="2.67777">
        <ele>377</ele>
        <time>2010-01-01T05:57:29Z</time>
      </trkpt>
      <trkpt lat="42.17117" lon="2.67776">
        <ele>377</ele>
        <time>2010-01-01T05:57:29Z</time>
      </trkpt>
      <trkpt lat="42.17118" lon="2.67776">
        <ele>377</ele>
        <time>2010-01-01T05:57:30Z</time>
      </trkpt>
      <trkpt lat="42.17118" lon="2.67775">
        <ele>377</ele>
        <time>2010-01-01T05:57:30Z</time>
      </trkpt>
      <trkpt lat="42.17118" lon="2.67774">
        <ele>377</ele>
        <time>2010-01-01T05:57:30Z</time>
      </trkpt>
      <trkpt lat="42.1712" lon="2.67775">
        <ele>377</ele>
        <time>2010-01-01T05:57:31Z</time>
      </trkpt>
      <trkpt lat="42.17123" lon="2.67779">
        <ele>377</ele>
        <time>2010-01-01T05:57:32Z</time>
      </trkpt>
      <trkpt lat="42.17126" lon="2.67782">
        <ele>378</ele>
        <time>2010-01-01T05:57:34Z</time>
      </trkpt>
      <trkpt lat="42.17126" lon="2.67784">
        <ele>378</ele>
        <time>2010-01-01T05:57:35Z</time>
      </trkpt>
      <trkpt lat="42.17126" lon="2.67784">
        <ele>378</ele>
        <time>2010-01-01T05:57:35Z</time>
      </trkpt>
      <trkpt lat="42.17128" lon="2.67785">
        <ele>378</ele>
        <time>2010-01-01T05:57:36Z</time>
      </trkpt>
      <trkpt lat="42.17124" lon="2.67775">
        <ele>378</ele>
        <time>2010-01-01T05:57:39Z</time>
      </trkpt>
      <trkpt lat="42.1713" lon="2.67746">
        <ele>380</ele>
        <time>2010-01-01T05:57:48Z</time>
      </trkpt>
      <trkpt lat="42.17129" lon="2.67741">
        <ele>380</ele>
        <time>2010-01-01T05:57:50Z</time>
      </trkpt>
      <trkpt lat="42.17129" lon="2.67712">
        <ele>381</ele>
        <time>2010-01-01T05:57:58Z</time>
      </trkpt>
      <trkpt lat="42.17129" lon="2.67706">
        <ele>381</ele>
        <time>2010-01-01T05:58:00Z</time>
      </trkpt>
      <trkpt lat="42.17129" lon="2.67702">
        <ele>382</ele>
        <time>2010-01-01T05:58:01Z</time>
      </trkpt>
      <trkpt lat="42.17123" lon="2.67672">
        <ele>383</ele>
        <time>2010-01-01T05:58:10Z</time>
      </trkpt>
      <trkpt lat="42.17118" lon="2.67648">
        <ele>384</ele>
        <time>2010-01-01T05:58:18Z</time>
      </trkpt>
      <trkpt lat="42.17114" lon="2.67621">
        <ele>387</ele>
        <time>2010-01-01T05:58:26Z</time>
      </trkpt>
      <trkpt lat="42.17114" lon="2.67589">
        <ele>391</ele>
        <time>2010-01-01T05:58:35Z</time>
      </trkpt>
      <trkpt lat="42.17116" lon="2.67566">
        <ele>393</ele>
        <time>2010-01-01T05:58:42Z</time>
      </trkpt>
      <trkpt lat="42.17121" lon="2.67532">
        <ele>394</ele>
        <time>2010-01-01T05:58:53Z</time>
      </trkpt>
      <trkpt lat="42.17125" lon="2.67501">
        <ele>392</ele>
        <time>2010-01-01T05:59:02Z</time>
      </trkpt>
      <trkpt lat="42.17127" lon="2.67471">
        <ele>391</ele>
        <time>2010-01-01T05:59:11Z</time>
      </trkpt>
      <trkpt lat="42.17127" lon="2.67459">
        <ele>389</ele>
        <time>2010-01-01T05:59:14Z</time>
      </trkpt>
      <trkpt lat="42.17124" lon="2.67434">
        <ele>386</ele>
        <time>2010-01-01T05:59:22Z</time>
      </trkpt>
      <trkpt lat="42.17122" lon="2.67413">
        <ele>384</ele>
        <time>2010-01-01T05:59:28Z</time>
      </trkpt>
      <trkpt lat="42.17124" lon="2.67385">
        <ele>383</ele>
        <time>2010-01-01T05:59:36Z</time>
      </trkpt>
      <trkpt lat="42.17126" lon="2.67368">
        <ele>383</ele>
        <time>2010-01-01T05:59:42Z</time>
      </trkpt>
      <trkpt lat="42.17125" lon="2.67361">
        <ele>382</ele>
        <time>2010-01-01T05:59:44Z</time>
      </trkpt>
      <trkpt lat="42.17125" lon="2.67346">
        <ele>383</ele>
        <time>2010-01-01T05:59:48Z</time>
      </trkpt>
      <trkpt lat="42.17127" lon="2.67336">
        <ele>384</ele>
        <time>2010-01-01T05:59:51Z</time>
      </trkpt>
      <trkpt lat="42.17129" lon="2.67327">
        <ele>385</ele>
        <time>2010-01-01T05:59:54Z</time>
      </trkpt>
      <trkpt lat="42.17128" lon="2.67323">
        <ele>386</ele>
        <time>2010-01-01T05:59:55Z</time>
      </trkpt>
      <trkpt lat="42.17128" lon="2.6732">
        <ele>386</ele>
        <time>2010-01-01T05:59:56Z</time>
      </trkpt>
      <trkpt lat="42.17129" lon="2.67316">
        <ele>386</ele>
        <time>2010-01-01T05:59:58Z</time>
      </trkpt>
      <trkpt lat="42.17129" lon="2.67313">
        <ele>387</ele>
        <time>2010-01-01T05:59:58Z</time>
      </trkpt>
      <trkpt lat="42.17131" lon="2.67309">
        <ele>387</ele>
        <time>2010-01-01T06:00:00Z</time>
      </trkpt>
      <trkpt lat="42.17133" lon="2.67293">
        <ele>389</ele>
        <time>2010-01-01T06:00:05Z</time>
      </trkpt>
      <trkpt lat="42.17141" lon="2.67284">
        <ele>392</ele>
        <time>2010-01-01T06:00:09Z</time>
      </trkpt>
      <trkpt lat="42.17142" lon="2.67276">
        <ele>393</ele>
        <time>2010-01-01T06:00:11Z</time>
      </trkpt>
      <trkpt lat="42.17144" lon="2.67272">
        <ele>394</ele>
        <time>2010-01-01T06:00:13Z</time>
      </trkpt>
      <trkpt lat="42.17146" lon="2.67269">
        <ele>395</ele>
        <time>2010-01-01T06:00:14Z</time>
      </trkpt>
      <trkpt lat="42.17147" lon="2.67265">
        <ele>395</ele>
        <time>2010-01-01T06:00:15Z</time>
      </trkpt>
      <trkpt lat="42.17146" lon="2.67255">
        <ele>397</ele>
        <time>2010-01-01T06:00:18Z</time>
      </trkpt>
      <trkpt lat="42.17146" lon="2.67252">
        <ele>397</ele>
        <time>2010-01-01T06:00:19Z</time>
      </trkpt>
      <trkpt lat="42.17149" lon="2.67249">
        <ele>398</ele>
        <time>2010-01-01T06:00:20Z</time>
      </trkpt>
      <trkpt lat="42.17153" lon="2.67247">
        <ele>398</ele>
        <time>2010-01-01T06:00:22Z</time>
      </trkpt>
      <trkpt lat="42.17155" lon="2.67242">
        <ele>398</ele>
        <time>2010-01-01T06:00:24Z</time>
      </trkpt>
      <trkpt lat="42.17159" lon="2.67239">
        <ele>398</ele>
        <time>2010-01-01T06:00:26Z</time>
      </trkpt>
      <trkpt lat="42.17166" lon="2.67237">
        <ele>399</ele>
        <time>2010-01-01T06:00:28Z</time>
      </trkpt>
      <trkpt lat="42.17177" lon="2.67219">
        <ele>397</ele>
        <time>2010-01-01T06:00:36Z</time>
      </trkpt>
      <trkpt lat="42.17184" lon="2.67211">
        <ele>396</ele>
        <time>2010-01-01T06:00:39Z</time>
      </trkpt>
      <trkpt lat="42.1719" lon="2.67201">
        <ele>395</ele>
        <time>2010-01-01T06:00:43Z</time>
      </trkpt>
      <trkpt lat="42.17197" lon="2.67183">
        <ele>395</ele>
        <time>2010-01-01T06:00:49Z</time>
      </trkpt>
      <trkpt lat="42.17201" lon="2.67168">
        <ele>394</ele>
        <time>2010-01-01T06:00:54Z</time>
      </trkpt>
      <trkpt lat="42.17208" lon="2.67146">
        <ele>393</ele>
        <time>2010-01-01T06:01:01Z</time>
      </trkpt>
      <trkpt lat="42.1721" lon="2.67137">
        <ele>393</ele>
        <time>2010-01-01T06:01:03Z</time>
      </trkpt>
      <trkpt lat="42.17211" lon="2.67134">
        <ele>392</ele>
        <time>2010-01-01T06:01:05Z</time>
      </trkpt>
      <trkpt lat="42.17217" lon="2.67125">
        <ele>393</ele>
        <time>2010-01-01T06:01:08Z</time>
      </trkpt>
      <trkpt lat="42.17225" lon="2.67114">
        <ele>394</ele>
        <time>2010-01-01T06:01:13Z</time>
      </trkpt>
      <trkpt lat="42.17229" lon="2.67104">
        <ele>394</ele>
        <time>2010-01-01T06:01:16Z</time>
      </trkpt>
      <trkpt lat="42.17238" lon="2.6709">
        <ele>394</ele>
        <time>2010-01-01T06:01:21Z</time>
      </trkpt>
      <trkpt lat="42.17248" lon="2.67072">
        <ele>395</ele>
        <time>2010-01-01T06:01:28Z</time>
      </trkpt>
      <trkpt lat="42.17255" lon="2.67064">
        <ele>395</ele>
        <time>2010-01-01T06:01:32Z</time>
      </trkpt>
      <trkpt lat="42.17258" lon="2.67058">
        <ele>395</ele>
        <time>2010-01-01T06:01:34Z</time>
      </trkpt>
      <trkpt lat="42.17262" lon="2.67045">
        <ele>395</ele>
        <time>2010-01-01T06:01:38Z</time>
      </trkpt>
      <trkpt lat="42.17263" lon="2.67022">
        <ele>395</ele>
        <time>2010-01-01T06:01:45Z</time>
      </trkpt>
      <trkpt lat="42.17263" lon="2.67018">
        <ele>395</ele>
        <time>2010-01-01T06:01:46Z</time>
      </trkpt>
      <trkpt lat="42.17265" lon="2.67">
        <ele>397</ele>
        <time>2010-01-01T06:01:52Z</time>
      </trkpt>
      <trkpt lat="42.17268" lon="2.66987">
        <ele>399</ele>
        <time>2010-01-01T06:01:55Z</time>
      </trkpt>
      <trkpt lat="42.17271" lon="2.66977">
        <ele>401</ele>
        <time>2010-01-01T06:01:59Z</time>
      </trkpt>
      <trkpt lat="42.17275" lon="2.6696">
        <ele>402</ele>
        <time>2010-01-01T06:02:04Z</time>
      </trkpt>
      <trkpt lat="42.17275" lon="2.66952">
        <ele>402</ele>
        <time>2010-01-01T06:02:06Z</time>
      </trkpt>
      <trkpt lat="42.17276" lon="2.66933">
        <ele>401</ele>
        <time>2010-01-01T06:02:12Z</time>
      </trkpt>
      <trkpt lat="42.17279" lon="2.66917">
        <ele>401</ele>
        <time>2010-01-01T06:02:17Z</time>
      </trkpt>
      <trkpt lat="42.17279" lon="2.66903">
        <ele>401</ele>
        <time>2010-01-01T06:02:21Z</time>
      </trkpt>
      <trkpt lat="42.17278" lon="2.66895">
        <ele>401</ele>
        <time>2010-01-01T06:02:24Z</time>
      </trkpt>
      <trkpt lat="42.17275" lon="2.66877">
        <ele>399</ele>
        <time>2010-01-01T06:02:29Z</time>
      </trkpt>
      <trkpt lat="42.17271" lon="2.66863">
        <ele>398</ele>
        <time>2010-01-01T06:02:34Z</time>
      </trkpt>
      <trkpt lat="42.17269" lon="2.66854">
        <ele>397</ele>
        <time>2010-01-01T06:02:36Z</time>
      </trkpt>
      <trkpt lat="42.17267" lon="2.66849">
        <ele>395</ele>
        <time>2010-01-01T06:02:38Z</time>
      </trkpt>
      <trkpt lat="42.17268" lon="2.66842">
        <ele>395</ele>
        <time>2010-01-01T06:02:40Z</time>
      </trkpt>
      <trkpt lat="42.17267" lon="2.66838">
        <ele>395</ele>
        <time>2010-01-01T06:02:42Z</time>
      </trkpt>
      <trkpt lat="42.17258" lon="2.6683">
        <ele>393</ele>
        <time>2010-01-01T06:02:46Z</time>
      </trkpt>
      <trkpt lat="42.17253" lon="2.66815">
        <ele>394</ele>
        <time>2010-01-01T06:02:51Z</time>
      </trkpt>
      <trkpt lat="42.1725" lon="2.6681">
        <ele>394</ele>
        <time>2010-01-01T06:02:53Z</time>
      </trkpt>
      <trkpt lat="42.17249" lon="2.66803">
        <ele>394</ele>
        <time>2010-01-01T06:02:55Z</time>
      </trkpt>
      <trkpt lat="42.17247" lon="2.668">
        <ele>394</ele>
        <time>2010-01-01T06:02:56Z</time>
      </trkpt>
      <trkpt lat="42.17244" lon="2.66795">
        <ele>393</ele>
        <time>2010-01-01T06:02:58Z</time>
      </trkpt>
      <trkpt lat="42.17246" lon="2.66775">
        <ele>395</ele>
        <time>2010-01-01T06:03:04Z</time>
      </trkpt>
      <trkpt lat="42.1724" lon="2.66756">
        <ele>397</ele>
        <time>2010-01-01T06:03:10Z</time>
      </trkpt>
      <trkpt lat="42.17232" lon="2.6674">
        <ele>398</ele>
        <time>2010-01-01T06:03:16Z</time>
      </trkpt>
      <trkpt lat="42.17224" lon="2.66733">
        <ele>398</ele>
        <time>2010-01-01T06:03:20Z</time>
      </trkpt>
      <trkpt lat="42.17221" lon="2.66729">
        <ele>398</ele>
        <time>2010-01-01T06:03:21Z</time>
      </trkpt>
      <trkpt lat="42.17223" lon="2.66711">
        <ele>401</ele>
        <time>2010-01-01T06:03:27Z</time>
      </trkpt>
      <trkpt lat="42.17223" lon="2.66709">
        <ele>401</ele>
        <time>2010-01-01T06:03:27Z</time>
      </trkpt>
      <trkpt lat="42.17227" lon="2.66697">
        <ele>403</ele>
        <time>2010-01-01T06:03:31Z</time>
      </trkpt>
      <trkpt lat="42.17226" lon="2.66691">
        <ele>403</ele>
        <time>2010-01-01T06:03:33Z</time>
      </trkpt>
      <trkpt lat="42.17227" lon="2.66675">
        <ele>405</ele>
        <time>2010-01-01T06:03:38Z</time>
      </trkpt>
      <trkpt lat="42.17229" lon="2.66664">
        <ele>406</ele>
        <time>2010-01-01T06:03:41Z</time>
      </trkpt>
      <trkpt lat="42.17229" lon="2.6666">
        <ele>406</ele>
        <time>2010-01-01T06:03:42Z</time>
      </trkpt>
      <trkpt lat="42.17231" lon="2.66645">
        <ele>406</ele>
        <time>2010-01-01T06:03:47Z</time>
      </trkpt>
      <trkpt lat="42.17229" lon="2.6664">
        <ele>405</ele>
        <time>2010-01-01T06:03:49Z</time>
      </trkpt>
      <trkpt lat="42.17227" lon="2.66634">
        <ele>405</ele>
        <time>2010-01-01T06:03:51Z</time>
      </trkpt>
      <trkpt lat="42.1723" lon="2.66631">
        <ele>405</ele>
        <time>2010-01-01T06:03:52Z</time>
      </trkpt>
      <trkpt lat="42.17231" lon="2.66639">
        <ele>405</ele>
        <time>2010-01-01T06:03:54Z</time>
      </trkpt>
      <trkpt lat="42.1723" lon="2.66639">
        <ele>405</ele>
        <time>2010-01-01T06:03:55Z</time>
      </trkpt>
      <trkpt lat="42.17232" lon="2.66639">
        <ele>406</ele>
        <time>2010-01-01T06:03:56Z</time>
      </trkpt>
      <trkpt lat="42.1723" lon="2.66638">
        <ele>405</ele>
        <time>2010-01-01T06:03:57Z</time>
      </trkpt>
      <trkpt lat="42.17232" lon="2.66637">
        <ele>406</ele>
        <time>2010-01-01T06:03:58Z</time>
      </trkpt>
      <trkpt lat="42.17234" lon="2.66633">
        <ele>406</ele>
        <time>2010-01-01T06:03:59Z</time>
      </trkpt>
      <trkpt lat="42.17241" lon="2.66617">
        <ele>408</ele>
        <time>2010-01-01T06:04:04Z</time>
      </trkpt>
      <trkpt lat="42.17243" lon="2.66608">
        <ele>409</ele>
        <time>2010-01-01T06:04:07Z</time>
      </trkpt>
      <trkpt lat="42.17247" lon="2.66602">
        <ele>410</ele>
        <time>2010-01-01T06:04:09Z</time>
      </trkpt>
      <trkpt lat="42.17254" lon="2.66584">
        <ele>412</ele>
        <time>2010-01-01T06:04:15Z</time>
      </trkpt>
      <trkpt lat="42.17258" lon="2.66577">
        <ele>413</ele>
        <time>2010-01-01T06:04:18Z</time>
      </trkpt>
      <trkpt lat="42.17258" lon="2.66575">
        <ele>413</ele>
        <time>2010-01-01T06:04:19Z</time>
      </trkpt>
      <trkpt lat="42.17261" lon="2.66558">
        <ele>414</ele>
        <time>2010-01-01T06:04:24Z</time>
      </trkpt>
      <trkpt lat="42.1726" lon="2.66539">
        <ele>415</ele>
        <time>2010-01-01T06:04:30Z</time>
      </trkpt>
      <trkpt lat="42.17259" lon="2.66521">
        <ele>415</ele>
        <time>2010-01-01T06:04:35Z</time>
      </trkpt>
      <trkpt lat="42.17259" lon="2.66505">
        <ele>416</ele>
        <time>2010-01-01T06:04:40Z</time>
      </trkpt>
      <trkpt lat="42.1726" lon="2.66493">
        <ele>416</ele>
        <time>2010-01-01T06:04:43Z</time>
      </trkpt>
      <trkpt lat="42.1725" lon="2.66486">
        <ele>415</ele>
        <time>2010-01-01T06:04:48Z</time>
      </trkpt>
      <trkpt lat="42.1724" lon="2.6647">
        <ele>413</ele>
        <time>2010-01-01T06:04:54Z</time>
      </trkpt>
      <trkpt lat="42.1724" lon="2.66468">
        <ele>413</ele>
        <time>2010-01-01T06:04:54Z</time>
      </trkpt>
      <trkpt lat="42.17238" lon="2.66462">
        <ele>413</ele>
        <time>2010-01-01T06:04:56Z</time>
      </trkpt>
      <trkpt lat="42.17239" lon="2.66461">
        <ele>413</ele>
        <time>2010-01-01T06:04:57Z</time>
      </trkpt>
      <trkpt lat="42.17238" lon="2.66457">
        <ele>413</ele>
        <time>2010-01-01T06:04:58Z</time>
      </trkpt>
      <trkpt lat="42.17236" lon="2.66437">
        <ele>413</ele>
        <time>2010-01-01T06:05:04Z</time>
      </trkpt>
      <trkpt lat="42.17232" lon="2.66424">
        <ele>414</ele>
        <time>2010-01-01T06:05:08Z</time>
      </trkpt>
      <trkpt lat="42.17229" lon="2.66412">
        <ele>415</ele>
        <time>2010-01-01T06:05:12Z</time>
      </trkpt>
      <trkpt lat="42.17228" lon="2.66409">
        <ele>415</ele>
        <time>2010-01-01T06:05:13Z</time>
      </trkpt>
      <trkpt lat="42.17221" lon="2.66395">
        <ele>418</ele>
        <time>2010-01-01T06:05:18Z</time>
      </trkpt>
      <trkpt lat="42.17219" lon="2.66386">
        <ele>419</ele>
        <time>2010-01-01T06:05:20Z</time>
      </trkpt>
      <trkpt lat="42.17218" lon="2.66384">
        <ele>419</ele>
        <time>2010-01-01T06:05:21Z</time>
      </trkpt>
      <trkpt lat="42.17214" lon="2.66377">
        <ele>419</ele>
        <time>2010-01-01T06:05:24Z</time>
      </trkpt>
      <trkpt lat="42.17205" lon="2.66367">
        <ele>420</ele>
        <time>2010-01-01T06:05:28Z</time>
      </trkpt>
      <trkpt lat="42.17205" lon="2.66364">
        <ele>420</ele>
        <time>2010-01-01T06:05:29Z</time>
      </trkpt>
      <trkpt lat="42.17202" lon="2.66348">
        <ele>422</ele>
        <time>2010-01-01T06:05:34Z</time>
      </trkpt>
      <trkpt lat="42.172" lon="2.66324">
        <ele>424</ele>
        <time>2010-01-01T06:05:41Z</time>
      </trkpt>
      <trkpt lat="42.17201" lon="2.66305">
        <ele>422</ele>
        <time>2010-01-01T06:05:47Z</time>
      </trkpt>
      <trkpt lat="42.17196" lon="2.66294">
        <ele>423</ele>
        <time>2010-01-01T06:05:51Z</time>
      </trkpt>
      <trkpt lat="42.17188" lon="2.66284">
        <ele>423</ele>
        <time>2010-01-01T06:05:55Z</time>
      </trkpt>
      <trkpt lat="42.17183" lon="2.66266">
        <ele>422</ele>
        <time>2010-01-01T06:06:01Z</time>
      </trkpt>
      <trkpt lat="42.17172" lon="2.66248">
        <ele>424</ele>
        <time>2010-01-01T06:06:08Z</time>
      </trkpt>
      <trkpt lat="42.17168" lon="2.6624">
        <ele>425</ele>
        <time>2010-01-01T06:06:11Z</time>
      </trkpt>
      <trkpt lat="42.17157" lon="2.66236">
        <ele>424</ele>
        <time>2010-01-01T06:06:15Z</time>
      </trkpt>
      <trkpt lat="42.17146" lon="2.6622">
        <ele>425</ele>
        <time>2010-01-01T06:06:21Z</time>
      </trkpt>
      <trkpt lat="42.17142" lon="2.66202">
        <ele>425</ele>
        <time>2010-01-01T06:06:27Z</time>
      </trkpt>
      <trkpt lat="42.17138" lon="2.66184">
        <ele>425</ele>
        <time>2010-01-01T06:06:33Z</time>
      </trkpt>
      <trkpt lat="42.17132" lon="2.66165">
        <ele>424</ele>
        <time>2010-01-01T06:06:39Z</time>
      </trkpt>
      <trkpt lat="42.17125" lon="2.66151">
        <ele>423</ele>
        <time>2010-01-01T06:06:44Z</time>
      </trkpt>
      <trkpt lat="42.17114" lon="2.66134">
        <ele>424</ele>
        <time>2010-01-01T06:06:50Z</time>
      </trkpt>
      <trkpt lat="42.1711" lon="2.66126">
        <ele>423</ele>
        <time>2010-01-01T06:06:53Z</time>
      </trkpt>
      <trkpt lat="42.1711" lon="2.66115">
        <ele>423</ele>
        <time>2010-01-01T06:06:57Z</time>
      </trkpt>
      <trkpt lat="42.17118" lon="2.66102">
        <ele>421</ele>
        <time>2010-01-01T06:07:01Z</time>
      </trkpt>
      <trkpt lat="42.17121" lon="2.66092">
        <ele>420</ele>
        <time>2010-01-01T06:07:05Z</time>
      </trkpt>
      <trkpt lat="42.17129" lon="2.6608">
        <ele>419</ele>
        <time>2010-01-01T06:07:09Z</time>
      </trkpt>
      <trkpt lat="42.17133" lon="2.66068">
        <ele>420</ele>
        <time>2010-01-01T06:07:13Z</time>
      </trkpt>
      <trkpt lat="42.17135" lon="2.66061">
        <ele>420</ele>
        <time>2010-01-01T06:07:16Z</time>
      </trkpt>
      <trkpt lat="42.17137" lon="2.66057">
        <ele>421</ele>
        <time>2010-01-01T06:07:17Z</time>
      </trkpt>
      <trkpt lat="42.17135" lon="2.66047">
        <ele>422</ele>
        <time>2010-01-01T06:07:20Z</time>
      </trkpt>
      <trkpt lat="42.17135" lon="2.66043">
        <ele>422</ele>
        <time>2010-01-01T06:07:21Z</time>
      </trkpt>
      <trkpt lat="42.17136" lon="2.66033">
        <ele>424</ele>
        <time>2010-01-01T06:07:24Z</time>
      </trkpt>
      <trkpt lat="42.17135" lon="2.66031">
        <ele>424</ele>
        <time>2010-01-01T06:07:25Z</time>
      </trkpt>
      <trkpt lat="42.17138" lon="2.66022">
        <ele>425</ele>
        <time>2010-01-01T06:07:28Z</time>
      </trkpt>
      <trkpt lat="42.17138" lon="2.66019">
        <ele>425</ele>
        <time>2010-01-01T06:07:29Z</time>
      </trkpt>
      <trkpt lat="42.17137" lon="2.66018">
        <ele>424</ele>
        <time>2010-01-01T06:07:29Z</time>
      </trkpt>
      <trkpt lat="42.17139" lon="2.66014">
        <ele>425</ele>
        <time>2010-01-01T06:07:30Z</time>
      </trkpt>
      <trkpt lat="42.17146" lon="2.66003">
        <ele>425</ele>
        <time>2010-01-01T06:07:35Z</time>
      </trkpt>
      <trkpt lat="42.17149" lon="2.65983">
        <ele>425</ele>
        <time>2010-01-01T06:07:41Z</time>
      </trkpt>
      <trkpt lat="42.17151" lon="2.65974">
        <ele>425</ele>
        <time>2010-01-01T06:07:44Z</time>
      </trkpt>
      <trkpt lat="42.17152" lon="2.65963">
        <ele>424</ele>
        <time>2010-01-01T06:07:47Z</time>
      </trkpt>
      <trkpt lat="42.17153" lon="2.65943">
        <ele>424</ele>
        <time>2010-01-01T06:07:53Z</time>
      </trkpt>
      <trkpt lat="42.17154" lon="2.65941">
        <ele>424</ele>
        <time>2010-01-01T06:07:54Z</time>
      </trkpt>
      <trkpt lat="42.17158" lon="2.65922">
        <ele>425</ele>
        <time>2010-01-01T06:08:00Z</time>
      </trkpt>
      <trkpt lat="42.17161" lon="2.65898">
        <ele>427</ele>
        <time>2010-01-01T06:08:07Z</time>
      </trkpt>
      <trkpt lat="42.17164" lon="2.65879">
        <ele>431</ele>
        <time>2010-01-01T06:08:12Z</time>
      </trkpt>
      <trkpt lat="42.17163" lon="2.65877">
        <ele>431</ele>
        <time>2010-01-01T06:08:13Z</time>
      </trkpt>
      <trkpt lat="42.17164" lon="2.65855">
        <ele>436</ele>
        <time>2010-01-01T06:08:20Z</time>
      </trkpt>
      <trkpt lat="42.17163" lon="2.65853">
        <ele>437</ele>
        <time>2010-01-01T06:08:20Z</time>
      </trkpt>
      <trkpt lat="42.17161" lon="2.65837">
        <ele>441</ele>
        <time>2010-01-01T06:08:25Z</time>
      </trkpt>
      <trkpt lat="42.17161" lon="2.65833">
        <ele>442</ele>
        <time>2010-01-01T06:08:26Z</time>
      </trkpt>
      <trkpt lat="42.17163" lon="2.65826">
        <ele>445</ele>
        <time>2010-01-01T06:08:29Z</time>
      </trkpt>
      <trkpt lat="42.17165" lon="2.65819">
        <ele>447</ele>
        <time>2010-01-01T06:08:31Z</time>
      </trkpt>
      <trkpt lat="42.17168" lon="2.6581">
        <ele>449</ele>
        <time>2010-01-01T06:08:34Z</time>
      </trkpt>
      <trkpt lat="42.1717" lon="2.65804">
        <ele>450</ele>
        <time>2010-01-01T06:08:36Z</time>
      </trkpt>
      <trkpt lat="42.17173" lon="2.65793">
        <ele>450</ele>
        <time>2010-01-01T06:08:39Z</time>
      </trkpt>
      <trkpt lat="42.17174" lon="2.65786">
        <ele>450</ele>
        <time>2010-01-01T06:08:41Z</time>
      </trkpt>
      <trkpt lat="42.17175" lon="2.65784">
        <ele>450</ele>
        <time>2010-01-01T06:08:42Z</time>
      </trkpt>
      <trkpt lat="42.17172" lon="2.65778">
        <ele>451</ele>
        <time>2010-01-01T06:08:44Z</time>
      </trkpt>
      <trkpt lat="42.17165" lon="2.65765">
        <ele>450</ele>
        <time>2010-01-01T06:08:49Z</time>
      </trkpt>
      <trkpt lat="42.17158" lon="2.65756">
        <ele>447</ele>
        <time>2010-01-01T06:08:53Z</time>
      </trkpt>
      <trkpt lat="42.17157" lon="2.65741">
        <ele>443</ele>
        <time>2010-01-01T06:08:57Z</time>
      </trkpt>
      <trkpt lat="42.17157" lon="2.65726">
        <ele>440</ele>
        <time>2010-01-01T06:09:02Z</time>
      </trkpt>
      <trkpt lat="42.17154" lon="2.6572">
        <ele>437</ele>
        <time>2010-01-01T06:09:04Z</time>
      </trkpt>
      <trkpt lat="42.17153" lon="2.65707">
        <ele>434</ele>
        <time>2010-01-01T06:09:08Z</time>
      </trkpt>
      <trkpt lat="42.17152" lon="2.65696">
        <ele>431</ele>
        <time>2010-01-01T06:09:11Z</time>
      </trkpt>
      <trkpt lat="42.17149" lon="2.65683">
        <ele>428</ele>
        <time>2010-01-01T06:09:15Z</time>
      </trkpt>
      <trkpt lat="42.17146" lon="2.65672">
        <ele>425</ele>
        <time>2010-01-01T06:09:18Z</time>
      </trkpt>
      <trkpt lat="42.17142" lon="2.65671">
        <ele>425</ele>
        <time>2010-01-01T06:09:20Z</time>
      </trkpt>
      <trkpt lat="42.17139" lon="2.6566">
        <ele>423</ele>
        <time>2010-01-01T06:09:24Z</time>
      </trkpt>
      <trkpt lat="42.17137" lon="2.65649">
        <ele>420</ele>
        <time>2010-01-01T06:09:27Z</time>
      </trkpt>
      <trkpt lat="42.17135" lon="2.6564">
        <ele>418</ele>
        <time>2010-01-01T06:09:30Z</time>
      </trkpt>
      <trkpt lat="42.17139" lon="2.65632">
        <ele>419</ele>
        <time>2010-01-01T06:09:33Z</time>
      </trkpt>
      <trkpt lat="42.17139" lon="2.6562">
        <ele>418</ele>
        <time>2010-01-01T06:09:36Z</time>
      </trkpt>
      <trkpt lat="42.17135" lon="2.65611">
        <ele>416</ele>
        <time>2010-01-01T06:09:39Z</time>
      </trkpt>
      <trkpt lat="42.17133" lon="2.65608">
        <ele>416</ele>
        <time>2010-01-01T06:09:41Z</time>
      </trkpt>
      <trkpt lat="42.17134" lon="2.65598">
        <ele>416</ele>
        <time>2010-01-01T06:09:44Z</time>
      </trkpt>
      <trkpt lat="42.17134" lon="2.65583">
        <ele>417</ele>
        <time>2010-01-01T06:09:48Z</time>
      </trkpt>
      <trkpt lat="42.17131" lon="2.65567">
        <ele>417</ele>
        <time>2010-01-01T06:09:53Z</time>
      </trkpt>
      <trkpt lat="42.17131" lon="2.65564">
        <ele>417</ele>
        <time>2010-01-01T06:09:54Z</time>
      </trkpt>
      <trkpt lat="42.1713" lon="2.65559">
        <ele>417</ele>
        <time>2010-01-01T06:09:56Z</time>
      </trkpt>
      <trkpt lat="42.17135" lon="2.6555">
        <ele>419</ele>
        <time>2010-01-01T06:09:59Z</time>
      </trkpt>
      <trkpt lat="42.17135" lon="2.65537">
        <ele>422</ele>
        <time>2010-01-01T06:10:03Z</time>
      </trkpt>
      <trkpt lat="42.17135" lon="2.65527">
        <ele>424</ele>
        <time>2010-01-01T06:10:06Z</time>
      </trkpt>
      <trkpt lat="42.17137" lon="2.65515">
        <ele>426</ele>
        <time>2010-01-01T06:10:09Z</time>
      </trkpt>
      <trkpt lat="42.17136" lon="2.65513">
        <ele>426</ele>
        <time>2010-01-01T06:10:10Z</time>
      </trkpt>
      <trkpt lat="42.17134" lon="2.65499">
        <ele>428</ele>
        <time>2010-01-01T06:10:14Z</time>
      </trkpt>
      <trkpt lat="42.17131" lon="2.65484">
        <ele>426</ele>
        <time>2010-01-01T06:10:19Z</time>
      </trkpt>
      <trkpt lat="42.17124" lon="2.65469">
        <ele>424</ele>
        <time>2010-01-01T06:10:24Z</time>
      </trkpt>
      <trkpt lat="42.1712" lon="2.65454">
        <ele>422</ele>
        <time>2010-01-01T06:10:29Z</time>
      </trkpt>
      <trkpt lat="42.17112" lon="2.65438">
        <ele>421</ele>
        <time>2010-01-01T06:10:34Z</time>
      </trkpt>
      <trkpt lat="42.17106" lon="2.65428">
        <ele>420</ele>
        <time>2010-01-01T06:10:38Z</time>
      </trkpt>
      <trkpt lat="42.17101" lon="2.65411">
        <ele>418</ele>
        <time>2010-01-01T06:10:44Z</time>
      </trkpt>
      <trkpt lat="42.17097" lon="2.65406">
        <ele>417</ele>
        <time>2010-01-01T06:10:46Z</time>
      </trkpt>
      <trkpt lat="42.17096" lon="2.65405">
        <ele>417</ele>
        <time>2010-01-01T06:10:47Z</time>
      </trkpt>
      <trkpt lat="42.17092" lon="2.65392">
        <ele>416</ele>
        <time>2010-01-01T06:10:51Z</time>
      </trkpt>
      <trkpt lat="42.17089" lon="2.65386">
        <ele>416</ele>
        <time>2010-01-01T06:10:53Z</time>
      </trkpt>
      <trkpt lat="42.17087" lon="2.65373">
        <ele>415</ele>
        <time>2010-01-01T06:10:57Z</time>
      </trkpt>
      <trkpt lat="42.17086" lon="2.65366">
        <ele>415</ele>
        <time>2010-01-01T06:10:59Z</time>
      </trkpt>
      <trkpt lat="42.17086" lon="2.65366">
        <ele>415</ele>
        <time>2010-01-01T06:10:59Z</time>
      </trkpt>
      <trkpt lat="42.17084" lon="2.65359">
        <ele>416</ele>
        <time>2010-01-01T06:11:01Z</time>
      </trkpt>
      <trkpt lat="42.17084" lon="2.65359">
        <ele>416</ele>
        <time>2010-01-01T06:11:01Z</time>
      </trkpt>
      <trkpt lat="42.17087" lon="2.65355">
        <ele>416</ele>
        <time>2010-01-01T06:11:03Z</time>
      </trkpt>
      <trkpt lat="42.17093" lon="2.65354">
        <ele>415</ele>
        <time>2010-01-01T06:11:05Z</time>
      </trkpt>
      <trkpt lat="42.17093" lon="2.65353">
        <ele>415</ele>
        <time>2010-01-01T06:11:06Z</time>
      </trkpt>
      <trkpt lat="42.17094" lon="2.65354">
        <ele>415</ele>
        <time>2010-01-01T06:11:06Z</time>
      </trkpt>
      <trkpt lat="42.17093" lon="2.65353">
        <ele>415</ele>
        <time>2010-01-01T06:11:06Z</time>
      </trkpt>
      <trkpt lat="42.17093" lon="2.65353">
        <ele>415</ele>
        <time>2010-01-01T06:11:06Z</time>
      </trkpt>
      <trkpt lat="42.17094" lon="2.65354">
        <ele>415</ele>
        <time>2010-01-01T06:11:07Z</time>
      </trkpt>
      <trkpt lat="42.17093" lon="2.65354">
        <ele>415</ele>
        <time>2010-01-01T06:11:07Z</time>
      </trkpt>
      <trkpt lat="42.17094" lon="2.65354">
        <ele>415</ele>
        <time>2010-01-01T06:11:07Z</time>
      </trkpt>
      <trkpt lat="42.17094" lon="2.65353">
        <ele>415</ele>
        <time>2010-01-01T06:11:07Z</time>
      </trkpt>
      <trkpt lat="42.17095" lon="2.65354">
        <ele>415</ele>
        <time>2010-01-01T06:11:08Z</time>
      </trkpt>
      <trkpt lat="42.17094" lon="2.65354">
        <ele>415</ele>
        <time>2010-01-01T06:11:08Z</time>
      </trkpt>
      <trkpt lat="42.17094" lon="2.65355">
        <ele>415</ele>
        <time>2010-01-01T06:11:08Z</time>
      </trkpt>
      <trkpt lat="42.17094" lon="2.65354">
        <ele>415</ele>
        <time>2010-01-01T06:11:08Z</time>
      </trkpt>
      <trkpt lat="42.17091" lon="2.65352">
        <ele>415</ele>
        <time>2010-01-01T06:11:10Z</time>
      </trkpt>
      <trkpt lat="42.17092" lon="2.65353">
        <ele>415</ele>
        <time>2010-01-01T06:11:11Z</time>
      </trkpt>
      <trkpt lat="42.17091" lon="2.65352">
        <ele>415</ele>
        <time>2010-01-01T06:11:11Z</time>
      </trkpt>
      <trkpt lat="42.17091" lon="2.65352">
        <ele>415</ele>
        <time>2010-01-01T06:11:11Z</time>
      </trkpt>
      <trkpt lat="42.17091" lon="2.65352">
        <ele>415</ele>
        <time>2010-01-01T06:11:12Z</time>
      </trkpt>
      <trkpt lat="42.17092" lon="2.65352">
        <ele>415</ele>
        <time>2010-01-01T06:11:12Z</time>
      </trkpt>
      <trkpt lat="42.17095" lon="2.65353">
        <ele>415</ele>
        <time>2010-01-01T06:11:13Z</time>
      </trkpt>
      <trkpt lat="42.17094" lon="2.65353">
        <ele>415</ele>
        <time>2010-01-01T06:11:13Z</time>
      </trkpt>
      <trkpt lat="42.17095" lon="2.65353">
        <ele>415</ele>
        <time>2010-01-01T06:11:13Z</time>
      </trkpt>
      <trkpt lat="42.17096" lon="2.65351">
        <ele>415</ele>
        <time>2010-01-01T06:11:14Z</time>
      </trkpt>
      <trkpt lat="42.17097" lon="2.65352">
        <ele>415</ele>
        <time>2010-01-01T06:11:15Z</time>
      </trkpt>
      <trkpt lat="42.17097" lon="2.65352">
        <ele>415</ele>
        <time>2010-01-01T06:11:15Z</time>
      </trkpt>
      <trkpt lat="42.17097" lon="2.65352">
        <ele>415</ele>
        <time>2010-01-01T06:11:15Z</time>
      </trkpt>
      <trkpt lat="42.17098" lon="2.65353">
        <ele>414</ele>
        <time>2010-01-01T06:11:15Z</time>
      </trkpt>
      <trkpt lat="42.17098" lon="2.65353">
        <ele>414</ele>
        <time>2010-01-01T06:11:15Z</time>
      </trkpt>
      <trkpt lat="42.17097" lon="2.65352">
        <ele>415</ele>
        <time>2010-01-01T06:11:16Z</time>
      </trkpt>
      <trkpt lat="42.17094" lon="2.65352">
        <ele>415</ele>
        <time>2010-01-01T06:11:17Z</time>
      </trkpt>
      <trkpt lat="42.17087" lon="2.65354">
        <ele>416</ele>
        <time>2010-01-01T06:11:20Z</time>
      </trkpt>
      <trkpt lat="42.17084" lon="2.65356">
        <ele>416</ele>
        <time>2010-01-01T06:11:22Z</time>
      </trkpt>
      <trkpt lat="42.17082" lon="2.65356">
        <ele>416</ele>
        <time>2010-01-01T06:11:22Z</time>
      </trkpt>
      <trkpt lat="42.17092" lon="2.65352">
        <ele>415</ele>
        <time>2010-01-01T06:11:26Z</time>
      </trkpt>
      <trkpt lat="42.17093" lon="2.65351">
        <ele>415</ele>
        <time>2010-01-01T06:11:27Z</time>
      </trkpt>
      <trkpt lat="42.17094" lon="2.6535">
        <ele>415</ele>
        <time>2010-01-01T06:11:27Z</time>
      </trkpt>
      <trkpt lat="42.17093" lon="2.6535">
        <ele>415</ele>
        <time>2010-01-01T06:11:27Z</time>
      </trkpt>
      <trkpt lat="42.17093" lon="2.6535">
        <ele>415</ele>
        <time>2010-01-01T06:11:27Z</time>
      </trkpt>
      <trkpt lat="42.17095" lon="2.65352">
        <ele>415</ele>
        <time>2010-01-01T06:11:28Z</time>
      </trkpt>
      <trkpt lat="42.17096" lon="2.65352">
        <ele>415</ele>
        <time>2010-01-01T06:11:28Z</time>
      </trkpt>
      <trkpt lat="42.17096" lon="2.65352">
        <ele>415</ele>
        <time>2010-01-01T06:11:29Z</time>
      </trkpt>
      <trkpt lat="42.17096" lon="2.65352">
        <ele>415</ele>
        <time>2010-01-01T06:11:29Z</time>
      </trkpt>
      <trkpt lat="42.17092" lon="2.65351">
        <ele>415</ele>
        <time>2010-01-01T06:11:31Z</time>
      </trkpt>
      <trkpt lat="42.17092" lon="2.65351">
        <ele>415</ele>
        <time>2010-01-01T06:11:31Z</time>
      </trkpt>
      <trkpt lat="42.17091" lon="2.65351">
        <ele>415</ele>
        <time>2010-01-01T06:11:31Z</time>
      </trkpt>
      <trkpt lat="42.17083" lon="2.65357">
        <ele>416</ele>
        <time>2010-01-01T06:11:35Z</time>
      </trkpt>
      <trkpt lat="42.17083" lon="2.65353">
        <ele>416</ele>
        <time>2010-01-01T06:11:36Z</time>
      </trkpt>
      <trkpt lat="42.17083" lon="2.65356">
        <ele>416</ele>
        <time>2010-01-01T06:11:37Z</time>
      </trkpt>
      <trkpt lat="42.17084" lon="2.65356">
        <ele>416</ele>
        <time>2010-01-01T06:11:37Z</time>
      </trkpt>
      <trkpt lat="42.17083" lon="2.65353">
        <ele>416</ele>
        <time>2010-01-01T06:11:38Z</time>
      </trkpt>
      <trkpt lat="42.17083" lon="2.65352">
        <ele>416</ele>
        <time>2010-01-01T06:11:38Z</time>
      </trkpt>
      <trkpt lat="42.17082" lon="2.65348">
        <ele>417</ele>
        <time>2010-01-01T06:11:40Z</time>
      </trkpt>
      <trkpt lat="42.17079" lon="2.65341">
        <ele>417</ele>
        <time>2010-01-01T06:11:42Z</time>
      </trkpt>
      <trkpt lat="42.17077" lon="2.65331">
        <ele>419</ele>
        <time>2010-01-01T06:11:45Z</time>
      </trkpt>
      <trkpt lat="42.17072" lon="2.65321">
        <ele>419</ele>
        <time>2010-01-01T06:11:49Z</time>
      </trkpt>
      <trkpt lat="42.17066" lon="2.65313">
        <ele>420</ele>
        <time>2010-01-01T06:11:52Z</time>
      </trkpt>
      <trkpt lat="42.1706" lon="2.65302">
        <ele>422</ele>
        <time>2010-01-01T06:11:56Z</time>
      </trkpt>
      <trkpt lat="42.17057" lon="2.653">
        <ele>422</ele>
        <time>2010-01-01T06:11:57Z</time>
      </trkpt>
      <trkpt lat="42.17051" lon="2.6528">
        <ele>425</ele>
        <time>2010-01-01T06:12:04Z</time>
      </trkpt>
      <trkpt lat="42.17049" lon="2.65278">
        <ele>425</ele>
        <time>2010-01-01T06:12:05Z</time>
      </trkpt>
      <trkpt lat="42.17045" lon="2.65263">
        <ele>426</ele>
        <time>2010-01-01T06:12:09Z</time>
      </trkpt>
      <trkpt lat="42.17043" lon="2.65256">
        <ele>427</ele>
        <time>2010-01-01T06:12:12Z</time>
      </trkpt>
      <trkpt lat="42.17042" lon="2.65246">
        <ele>429</ele>
        <time>2010-01-01T06:12:15Z</time>
      </trkpt>
      <trkpt lat="42.17038" lon="2.65237">
        <ele>430</ele>
        <time>2010-01-01T06:12:18Z</time>
      </trkpt>
      <trkpt lat="42.17037" lon="2.65231">
        <ele>431</ele>
        <time>2010-01-01T06:12:20Z</time>
      </trkpt>
      <trkpt lat="42.17032" lon="2.65228">
        <ele>432</ele>
        <time>2010-01-01T06:12:22Z</time>
      </trkpt>
      <trkpt lat="42.1703" lon="2.65221">
        <ele>433</ele>
        <time>2010-01-01T06:12:24Z</time>
      </trkpt>
      <trkpt lat="42.1703" lon="2.65216">
        <ele>434</ele>
        <time>2010-01-01T06:12:26Z</time>
      </trkpt>
      <trkpt lat="42.17026" lon="2.65206">
        <ele>435</ele>
        <time>2010-01-01T06:12:29Z</time>
      </trkpt>
      <trkpt lat="42.17029" lon="2.65196">
        <ele>437</ele>
        <time>2010-01-01T06:12:32Z</time>
      </trkpt>
      <trkpt lat="42.1703" lon="2.65193">
        <ele>438</ele>
        <time>2010-01-01T06:12:33Z</time>
      </trkpt>
      <trkpt lat="42.17032" lon="2.65172">
        <ele>440</ele>
        <time>2010-01-01T06:12:39Z</time>
      </trkpt>
      <trkpt lat="42.17035" lon="2.65167">
        <ele>441</ele>
        <time>2010-01-01T06:12:41Z</time>
      </trkpt>
      <trkpt lat="42.17036" lon="2.65158">
        <ele>442</ele>
        <time>2010-01-01T06:12:44Z</time>
      </trkpt>
      <trkpt lat="42.17035" lon="2.65143">
        <ele>444</ele>
        <time>2010-01-01T06:12:49Z</time>
      </trkpt>
      <trkpt lat="42.17035" lon="2.65131">
        <ele>445</ele>
        <time>2010-01-01T06:12:52Z</time>
      </trkpt>
      <trkpt lat="42.17031" lon="2.65119">
        <ele>446</ele>
        <time>2010-01-01T06:12:56Z</time>
      </trkpt>
      <trkpt lat="42.17031" lon="2.65114">
        <ele>447</ele>
        <time>2010-01-01T06:12:58Z</time>
      </trkpt>
      <trkpt lat="42.17028" lon="2.65104">
        <ele>448</ele>
        <time>2010-01-01T06:13:01Z</time>
      </trkpt>
      <trkpt lat="42.17022" lon="2.6508">
        <ele>450</ele>
        <time>2010-01-01T06:13:08Z</time>
      </trkpt>
      <trkpt lat="42.17018" lon="2.65059">
        <ele>450</ele>
        <time>2010-01-01T06:13:15Z</time>
      </trkpt>
      <trkpt lat="42.17014" lon="2.65038">
        <ele>453</ele>
        <time>2010-01-01T06:13:21Z</time>
      </trkpt>
      <trkpt lat="42.17018" lon="2.65027">
        <ele>454</ele>
        <time>2010-01-01T06:13:25Z</time>
      </trkpt>
      <trkpt lat="42.17021" lon="2.65023">
        <ele>455</ele>
        <time>2010-01-01T06:13:26Z</time>
      </trkpt>
      <trkpt lat="42.17022" lon="2.65016">
        <ele>456</ele>
        <time>2010-01-01T06:13:29Z</time>
      </trkpt>
      <trkpt lat="42.17027" lon="2.64994">
        <ele>459</ele>
        <time>2010-01-01T06:13:35Z</time>
      </trkpt>
      <trkpt lat="42.17028" lon="2.6499">
        <ele>460</ele>
        <time>2010-01-01T06:13:37Z</time>
      </trkpt>
      <trkpt lat="42.17026" lon="2.64981">
        <ele>462</ele>
        <time>2010-01-01T06:13:40Z</time>
      </trkpt>
      <trkpt lat="42.17023" lon="2.64987">
        <ele>460</ele>
        <time>2010-01-01T06:13:42Z</time>
      </trkpt>
      <trkpt lat="42.17017" lon="2.6499">
        <ele>459</ele>
        <time>2010-01-01T06:13:44Z</time>
      </trkpt>
      <trkpt lat="42.1701" lon="2.64988">
        <ele>459</ele>
        <time>2010-01-01T06:13:47Z</time>
      </trkpt>
      <trkpt lat="42.17004" lon="2.64976">
        <ele>461</ele>
        <time>2010-01-01T06:13:51Z</time>
      </trkpt>
      <trkpt lat="42.17002" lon="2.64974">
        <ele>461</ele>
        <time>2010-01-01T06:13:52Z</time>
      </trkpt>
      <trkpt lat="42.17" lon="2.6496">
        <ele>465</ele>
        <time>2010-01-01T06:13:57Z</time>
      </trkpt>
      <trkpt lat="42.17002" lon="2.64949">
        <ele>468</ele>
        <time>2010-01-01T06:14:00Z</time>
      </trkpt>
      <trkpt lat="42.17001" lon="2.64941">
        <ele>471</ele>
        <time>2010-01-01T06:14:02Z</time>
      </trkpt>
      <trkpt lat="42.17005" lon="2.64936">
        <ele>472</ele>
        <time>2010-01-01T06:14:05Z</time>
      </trkpt>
      <trkpt lat="42.17006" lon="2.64932">
        <ele>474</ele>
        <time>2010-01-01T06:14:06Z</time>
      </trkpt>
      <trkpt lat="42.17004" lon="2.64919">
        <ele>477</ele>
        <time>2010-01-01T06:14:10Z</time>
      </trkpt>
      <trkpt lat="42.17004" lon="2.64918">
        <ele>477</ele>
        <time>2010-01-01T06:14:10Z</time>
      </trkpt>
      <trkpt lat="42.17013" lon="2.64914">
        <ele>479</ele>
        <time>2010-01-01T06:14:14Z</time>
      </trkpt>
      <trkpt lat="42.17013" lon="2.6491">
        <ele>480</ele>
        <time>2010-01-01T06:14:15Z</time>
      </trkpt>
      <trkpt lat="42.17005" lon="2.64895">
        <ele>484</ele>
        <time>2010-01-01T06:14:20Z</time>
      </trkpt>
      <trkpt lat="42.16999" lon="2.64886">
        <ele>487</ele>
        <time>2010-01-01T06:14:24Z</time>
      </trkpt>
      <trkpt lat="42.16997" lon="2.6487">
        <ele>492</ele>
        <time>2010-01-01T06:14:29Z</time>
      </trkpt>
      <trkpt lat="42.16998" lon="2.64868">
        <ele>492</ele>
        <time>2010-01-01T06:14:29Z</time>
      </trkpt>
      <trkpt lat="42.16995" lon="2.64856">
        <ele>495</ele>
        <time>2010-01-01T06:14:33Z</time>
      </trkpt>
      <trkpt lat="42.16996" lon="2.64851">
        <ele>497</ele>
        <time>2010-01-01T06:14:35Z</time>
      </trkpt>
      <trkpt lat="42.16996" lon="2.64832">
        <ele>502</ele>
        <time>2010-01-01T06:14:40Z</time>
      </trkpt>
      <trkpt lat="42.16997" lon="2.64823">
        <ele>505</ele>
        <time>2010-01-01T06:14:43Z</time>
      </trkpt>
      <trkpt lat="42.16997" lon="2.64822">
        <ele>505</ele>
        <time>2010-01-01T06:14:43Z</time>
      </trkpt>
      <trkpt lat="42.16991" lon="2.64809">
        <ele>506</ele>
        <time>2010-01-01T06:14:48Z</time>
      </trkpt>
      <trkpt lat="42.16995" lon="2.64795">
        <ele>510</ele>
        <time>2010-01-01T06:14:52Z</time>
      </trkpt>
      <trkpt lat="42.16995" lon="2.6478">
        <ele>512</ele>
        <time>2010-01-01T06:14:57Z</time>
      </trkpt>
      <trkpt lat="42.16991" lon="2.64761">
        <ele>514</ele>
        <time>2010-01-01T06:15:02Z</time>
      </trkpt>
      <trkpt lat="42.16987" lon="2.64755">
        <ele>514</ele>
        <time>2010-01-01T06:15:05Z</time>
      </trkpt>
      <trkpt lat="42.16985" lon="2.64753">
        <ele>513</ele>
        <time>2010-01-01T06:15:06Z</time>
      </trkpt>
      <trkpt lat="42.16978" lon="2.64742">
        <ele>513</ele>
        <time>2010-01-01T06:15:10Z</time>
      </trkpt>
      <trkpt lat="42.16977" lon="2.64734">
        <ele>514</ele>
        <time>2010-01-01T06:15:12Z</time>
      </trkpt>
      <trkpt lat="42.16978" lon="2.64729">
        <ele>515</ele>
        <time>2010-01-01T06:15:14Z</time>
      </trkpt>
      <trkpt lat="42.16973" lon="2.64719">
        <ele>515</ele>
        <time>2010-01-01T06:15:18Z</time>
      </trkpt>
      <trkpt lat="42.16971" lon="2.64704">
        <ele>515</ele>
        <time>2010-01-01T06:15:22Z</time>
      </trkpt>
      <trkpt lat="42.16968" lon="2.64698">
        <ele>515</ele>
        <time>2010-01-01T06:15:24Z</time>
      </trkpt>
      <trkpt lat="42.16956" lon="2.64673">
        <ele>514</ele>
        <time>2010-01-01T06:15:33Z</time>
      </trkpt>
      <trkpt lat="42.16956" lon="2.64657">
        <ele>515</ele>
        <time>2010-01-01T06:15:38Z</time>
      </trkpt>
      <trkpt lat="42.16953" lon="2.64639">
        <ele>515</ele>
        <time>2010-01-01T06:15:43Z</time>
      </trkpt>
      <trkpt lat="42.1695" lon="2.64624">
        <ele>517</ele>
        <time>2010-01-01T06:15:48Z</time>
      </trkpt>
      <trkpt lat="42.16948" lon="2.64611">
        <ele>517</ele>
        <time>2010-01-01T06:15:52Z</time>
      </trkpt>
      <trkpt lat="42.16941" lon="2.6459">
        <ele>520</ele>
        <time>2010-01-01T06:15:59Z</time>
      </trkpt>
      <trkpt lat="42.16941" lon="2.64583">
        <ele>521</ele>
        <time>2010-01-01T06:16:01Z</time>
      </trkpt>
      <trkpt lat="42.16937" lon="2.64572">
        <ele>520</ele>
        <time>2010-01-01T06:16:04Z</time>
      </trkpt>
      <trkpt lat="42.16925" lon="2.64556">
        <ele>520</ele>
        <time>2010-01-01T06:16:11Z</time>
      </trkpt>
      <trkpt lat="42.16919" lon="2.64536">
        <ele>520</ele>
        <time>2010-01-01T06:16:17Z</time>
      </trkpt>
      <trkpt lat="42.16913" lon="2.64522">
        <ele>520</ele>
        <time>2010-01-01T06:16:22Z</time>
      </trkpt>
      <trkpt lat="42.16914" lon="2.64512">
        <ele>521</ele>
        <time>2010-01-01T06:16:25Z</time>
      </trkpt>
      <trkpt lat="42.1691" lon="2.64501">
        <ele>522</ele>
        <time>2010-01-01T06:16:29Z</time>
      </trkpt>
      <trkpt lat="42.16912" lon="2.64495">
        <ele>524</ele>
        <time>2010-01-01T06:16:31Z</time>
      </trkpt>
      <trkpt lat="42.1691" lon="2.64479">
        <ele>528</ele>
        <time>2010-01-01T06:16:35Z</time>
      </trkpt>
      <trkpt lat="42.1691" lon="2.64474">
        <ele>529</ele>
        <time>2010-01-01T06:16:37Z</time>
      </trkpt>
      <trkpt lat="42.1691" lon="2.64469">
        <ele>530</ele>
        <time>2010-01-01T06:16:38Z</time>
      </trkpt>
      <trkpt lat="42.16912" lon="2.64458">
        <ele>532</ele>
        <time>2010-01-01T06:16:42Z</time>
      </trkpt>
      <trkpt lat="42.16911" lon="2.64456">
        <ele>532</ele>
        <time>2010-01-01T06:16:42Z</time>
      </trkpt>
      <trkpt lat="42.16908" lon="2.64449">
        <ele>533</ele>
        <time>2010-01-01T06:16:45Z</time>
      </trkpt>
      <trkpt lat="42.16906" lon="2.64438">
        <ele>535</ele>
        <time>2010-01-01T06:16:48Z</time>
      </trkpt>
      <trkpt lat="42.16896" lon="2.64428">
        <ele>535</ele>
        <time>2010-01-01T06:16:53Z</time>
      </trkpt>
      <trkpt lat="42.16895" lon="2.6442">
        <ele>536</ele>
        <time>2010-01-01T06:16:55Z</time>
      </trkpt>
      <trkpt lat="42.16894" lon="2.64418">
        <ele>536</ele>
        <time>2010-01-01T06:16:56Z</time>
      </trkpt>
      <trkpt lat="42.16899" lon="2.64402">
        <ele>538</ele>
        <time>2010-01-01T06:17:01Z</time>
      </trkpt>
      <trkpt lat="42.16899" lon="2.64396">
        <ele>539</ele>
        <time>2010-01-01T06:17:03Z</time>
      </trkpt>
      <trkpt lat="42.16898" lon="2.64389">
        <ele>539</ele>
        <time>2010-01-01T06:17:05Z</time>
      </trkpt>
      <trkpt lat="42.169" lon="2.6437">
        <ele>539</ele>
        <time>2010-01-01T06:17:11Z</time>
      </trkpt>
      <trkpt lat="42.169" lon="2.64364">
        <ele>539</ele>
        <time>2010-01-01T06:17:13Z</time>
      </trkpt>
      <trkpt lat="42.16904" lon="2.64347">
        <ele>540</ele>
        <time>2010-01-01T06:17:18Z</time>
      </trkpt>
      <trkpt lat="42.16904" lon="2.64344">
        <ele>540</ele>
        <time>2010-01-01T06:17:19Z</time>
      </trkpt>
      <trkpt lat="42.16904" lon="2.64341">
        <ele>540</ele>
        <time>2010-01-01T06:17:20Z</time>
      </trkpt>
      <trkpt lat="42.1691" lon="2.6432">
        <ele>541</ele>
        <time>2010-01-01T06:17:26Z</time>
      </trkpt>
      <trkpt lat="42.16915" lon="2.64303">
        <ele>543</ele>
        <time>2010-01-01T06:17:32Z</time>
      </trkpt>
      <trkpt lat="42.16918" lon="2.64287">
        <ele>543</ele>
        <time>2010-01-01T06:17:37Z</time>
      </trkpt>
      <trkpt lat="42.1692" lon="2.64265">
        <ele>544</ele>
        <time>2010-01-01T06:17:43Z</time>
      </trkpt>
      <trkpt lat="42.16921" lon="2.64261">
        <ele>544</ele>
        <time>2010-01-01T06:17:44Z</time>
      </trkpt>
      <trkpt lat="42.16918" lon="2.64244">
        <ele>545</ele>
        <time>2010-01-01T06:17:49Z</time>
      </trkpt>
      <trkpt lat="42.16916" lon="2.64241">
        <ele>545</ele>
        <time>2010-01-01T06:17:51Z</time>
      </trkpt>
      <trkpt lat="42.16916" lon="2.64237">
        <ele>545</ele>
        <time>2010-01-01T06:17:52Z</time>
      </trkpt>
      <trkpt lat="42.16922" lon="2.64223">
        <ele>546</ele>
        <time>2010-01-01T06:17:57Z</time>
      </trkpt>
      <trkpt lat="42.16922" lon="2.6422">
        <ele>546</ele>
        <time>2010-01-01T06:17:58Z</time>
      </trkpt>
      <trkpt lat="42.16922" lon="2.64214">
        <ele>547</ele>
        <time>2010-01-01T06:17:59Z</time>
      </trkpt>
      <trkpt lat="42.1692" lon="2.64205">
        <ele>547</ele>
        <time>2010-01-01T06:18:02Z</time>
      </trkpt>
      <trkpt lat="42.1692" lon="2.64183">
        <ele>550</ele>
        <time>2010-01-01T06:18:08Z</time>
      </trkpt>
      <trkpt lat="42.16921" lon="2.64171">
        <ele>552</ele>
        <time>2010-01-01T06:18:12Z</time>
      </trkpt>
      <trkpt lat="42.16924" lon="2.64159">
        <ele>553</ele>
        <time>2010-01-01T06:18:16Z</time>
      </trkpt>
      <trkpt lat="42.1692" lon="2.64145">
        <ele>553</ele>
        <time>2010-01-01T06:18:20Z</time>
      </trkpt>
      <trkpt lat="42.16914" lon="2.6413">
        <ele>550</ele>
        <time>2010-01-01T06:18:25Z</time>
      </trkpt>
      <trkpt lat="42.16913" lon="2.64113">
        <ele>548</ele>
        <time>2010-01-01T06:18:31Z</time>
      </trkpt>
      <trkpt lat="42.16911" lon="2.64095">
        <ele>547</ele>
        <time>2010-01-01T06:18:36Z</time>
      </trkpt>
      <trkpt lat="42.16909" lon="2.64087">
        <ele>546</ele>
        <time>2010-01-01T06:18:38Z</time>
      </trkpt>
      <trkpt lat="42.16903" lon="2.6408">
        <ele>545</ele>
        <time>2010-01-01T06:18:42Z</time>
      </trkpt>
      <trkpt lat="42.16898" lon="2.6406">
        <ele>544</ele>
        <time>2010-01-01T06:18:48Z</time>
      </trkpt>
      <trkpt lat="42.16897" lon="2.64057">
        <ele>544</ele>
        <time>2010-01-01T06:18:49Z</time>
      </trkpt>
      <trkpt lat="42.16897" lon="2.64052">
        <ele>545</ele>
        <time>2010-01-01T06:18:50Z</time>
      </trkpt>
      <trkpt lat="42.16896" lon="2.64049">
        <ele>545</ele>
        <time>2010-01-01T06:18:51Z</time>
      </trkpt>
      <trkpt lat="42.16893" lon="2.64044">
        <ele>545</ele>
        <time>2010-01-01T06:18:53Z</time>
      </trkpt>
      <trkpt lat="42.16892" lon="2.64036">
        <ele>545</ele>
        <time>2010-01-01T06:18:56Z</time>
      </trkpt>
      <trkpt lat="42.16888" lon="2.64027">
        <ele>545</ele>
        <time>2010-01-01T06:18:59Z</time>
      </trkpt>
      <trkpt lat="42.16883" lon="2.64023">
        <ele>544</ele>
        <time>2010-01-01T06:19:01Z</time>
      </trkpt>
      <trkpt lat="42.16877" lon="2.64006">
        <ele>543</ele>
        <time>2010-01-01T06:19:07Z</time>
      </trkpt>
      <trkpt lat="42.16874" lon="2.64004">
        <ele>542</ele>
        <time>2010-01-01T06:19:08Z</time>
      </trkpt>
      <trkpt lat="42.16871" lon="2.63999">
        <ele>542</ele>
        <time>2010-01-01T06:19:10Z</time>
      </trkpt>
      <trkpt lat="42.16868" lon="2.63986">
        <ele>541</ele>
        <time>2010-01-01T06:19:14Z</time>
      </trkpt>
      <trkpt lat="42.16869" lon="2.63973">
        <ele>542</ele>
        <time>2010-01-01T06:19:18Z</time>
      </trkpt>
      <trkpt lat="42.16871" lon="2.63964">
        <ele>541</ele>
        <time>2010-01-01T06:19:21Z</time>
      </trkpt>
      <trkpt lat="42.1687" lon="2.63959">
        <ele>541</ele>
        <time>2010-01-01T06:19:22Z</time>
      </trkpt>
      <trkpt lat="42.16878" lon="2.63953">
        <ele>541</ele>
        <time>2010-01-01T06:19:26Z</time>
      </trkpt>
      <trkpt lat="42.16883" lon="2.63941">
        <ele>540</ele>
        <time>2010-01-01T06:19:30Z</time>
      </trkpt>
      <trkpt lat="42.16886" lon="2.63923">
        <ele>538</ele>
        <time>2010-01-01T06:19:35Z</time>
      </trkpt>
      <trkpt lat="42.16886" lon="2.63918">
        <ele>537</ele>
        <time>2010-01-01T06:19:37Z</time>
      </trkpt>
      <trkpt lat="42.16885" lon="2.63915">
        <ele>536</ele>
        <time>2010-01-01T06:19:38Z</time>
      </trkpt>
      <trkpt lat="42.16883" lon="2.63911">
        <ele>535</ele>
        <time>2010-01-01T06:19:39Z</time>
      </trkpt>
      <trkpt lat="42.16883" lon="2.63896">
        <ele>532</ele>
        <time>2010-01-01T06:19:44Z</time>
      </trkpt>
      <trkpt lat="42.16888" lon="2.63882">
        <ele>531</ele>
        <time>2010-01-01T06:19:48Z</time>
      </trkpt>
      <trkpt lat="42.16889" lon="2.63872">
        <ele>530</ele>
        <time>2010-01-01T06:19:51Z</time>
      </trkpt>
      <trkpt lat="42.16898" lon="2.63856">
        <ele>529</ele>
        <time>2010-01-01T06:19:57Z</time>
      </trkpt>
      <trkpt lat="42.1691" lon="2.63834">
        <ele>528</ele>
        <time>2010-01-01T06:20:05Z</time>
      </trkpt>
      <trkpt lat="42.16917" lon="2.63816">
        <ele>527</ele>
        <time>2010-01-01T06:20:11Z</time>
      </trkpt>
      <trkpt lat="42.16919" lon="2.63803">
        <ele>525</ele>
        <time>2010-01-01T06:20:15Z</time>
      </trkpt>
      <trkpt lat="42.16921" lon="2.63775">
        <ele>521</ele>
        <time>2010-01-01T06:20:24Z</time>
      </trkpt>
      <trkpt lat="42.16922" lon="2.63774">
        <ele>521</ele>
        <time>2010-01-01T06:20:24Z</time>
      </trkpt>
      <trkpt lat="42.16929" lon="2.63769">
        <ele>522</ele>
        <time>2010-01-01T06:20:27Z</time>
      </trkpt>
      <trkpt lat="42.16946" lon="2.63752">
        <ele>523</ele>
        <time>2010-01-01T06:20:36Z</time>
      </trkpt>
      <trkpt lat="42.16957" lon="2.63746">
        <ele>522</ele>
        <time>2010-01-01T06:20:40Z</time>
      </trkpt>
      <trkpt lat="42.16961" lon="2.63733">
        <ele>520</ele>
        <time>2010-01-01T06:20:45Z</time>
      </trkpt>
      <trkpt lat="42.16969" lon="2.63713">
        <ele>519</ele>
        <time>2010-01-01T06:20:51Z</time>
      </trkpt>
      <trkpt lat="42.16974" lon="2.63698">
        <ele>518</ele>
        <time>2010-01-01T06:20:56Z</time>
      </trkpt>
      <trkpt lat="42.16978" lon="2.63689">
        <ele>516</ele>
        <time>2010-01-01T06:20:59Z</time>
      </trkpt>
      <trkpt lat="42.16986" lon="2.63675">
        <ele>515</ele>
        <time>2010-01-01T06:21:05Z</time>
      </trkpt>
      <trkpt lat="42.1699" lon="2.63657">
        <ele>515</ele>
        <time>2010-01-01T06:21:10Z</time>
      </trkpt>
      <trkpt lat="42.16991" lon="2.63654">
        <ele>515</ele>
        <time>2010-01-01T06:21:11Z</time>
      </trkpt>
      <trkpt lat="42.16998" lon="2.63633">
        <ele>515</ele>
        <time>2010-01-01T06:21:18Z</time>
      </trkpt>
      <trkpt lat="42.17002" lon="2.63613">
        <ele>513</ele>
        <time>2010-01-01T06:21:24Z</time>
      </trkpt>
      <trkpt lat="42.17003" lon="2.63601">
        <ele>511</ele>
        <time>2010-01-01T06:21:28Z</time>
      </trkpt>
      <trkpt lat="42.17008" lon="2.63584">
        <ele>509</ele>
        <time>2010-01-01T06:21:33Z</time>
      </trkpt>
      <trkpt lat="42.17015" lon="2.6357">
        <ele>507</ele>
        <time>2010-01-01T06:21:38Z</time>
      </trkpt>
      <trkpt lat="42.17018" lon="2.63556">
        <ele>505</ele>
        <time>2010-01-01T06:21:43Z</time>
      </trkpt>
      <trkpt lat="42.17019" lon="2.63541">
        <ele>504</ele>
        <time>2010-01-01T06:21:47Z</time>
      </trkpt>
      <trkpt lat="42.1701" lon="2.63525">
        <ele>503</ele>
        <time>2010-01-01T06:21:53Z</time>
      </trkpt>
      <trkpt lat="42.17005" lon="2.63516">
        <ele>501</ele>
        <time>2010-01-01T06:21:56Z</time>
      </trkpt>
      <trkpt lat="42.17003" lon="2.635">
        <ele>500</ele>
        <time>2010-01-01T06:22:01Z</time>
      </trkpt>
      <trkpt lat="42.17003" lon="2.63494">
        <ele>500</ele>
        <time>2010-01-01T06:22:03Z</time>
      </trkpt>
      <trkpt lat="42.17003" lon="2.6349">
        <ele>500</ele>
        <time>2010-01-01T06:22:04Z</time>
      </trkpt>
      <trkpt lat="42.17003" lon="2.63483">
        <ele>499</ele>
        <time>2010-01-01T06:22:06Z</time>
      </trkpt>
      <trkpt lat="42.17003" lon="2.63482">
        <ele>499</ele>
        <time>2010-01-01T06:22:07Z</time>
      </trkpt>
      <trkpt lat="42.17003" lon="2.6348">
        <ele>499</ele>
        <time>2010-01-01T06:22:07Z</time>
      </trkpt>
      <trkpt lat="42.17003" lon="2.63479">
        <ele>499</ele>
        <time>2010-01-01T06:22:08Z</time>
      </trkpt>
      <trkpt lat="42.17003" lon="2.63475">
        <ele>499</ele>
        <time>2010-01-01T06:22:09Z</time>
      </trkpt>
      <trkpt lat="42.17004" lon="2.63474">
        <ele>499</ele>
        <time>2010-01-01T06:22:09Z</time>
      </trkpt>
      <trkpt lat="42.17003" lon="2.63474">
        <ele>499</ele>
        <time>2010-01-01T06:22:09Z</time>
      </trkpt>
      <trkpt lat="42.17003" lon="2.63473">
        <ele>499</ele>
        <time>2010-01-01T06:22:10Z</time>
      </trkpt>
      <trkpt lat="42.17002" lon="2.63471">
        <ele>499</ele>
        <time>2010-01-01T06:22:10Z</time>
      </trkpt>
      <trkpt lat="42.17004" lon="2.63471">
        <ele>499</ele>
        <time>2010-01-01T06:22:11Z</time>
      </trkpt>
      <trkpt lat="42.17003" lon="2.63468">
        <ele>499</ele>
        <time>2010-01-01T06:22:12Z</time>
      </trkpt>
      <trkpt lat="42.17003" lon="2.6347">
        <ele>499</ele>
        <time>2010-01-01T06:22:12Z</time>
      </trkpt>
      <trkpt lat="42.17005" lon="2.63465">
        <ele>499</ele>
        <time>2010-01-01T06:22:14Z</time>
      </trkpt>
      <trkpt lat="42.17003" lon="2.63471">
        <ele>499</ele>
        <time>2010-01-01T06:22:16Z</time>
      </trkpt>
      <trkpt lat="42.17001" lon="2.63473">
        <ele>499</ele>
        <time>2010-01-01T06:22:17Z</time>
      </trkpt>
      <trkpt lat="42.17003" lon="2.63472">
        <ele>499</ele>
        <time>2010-01-01T06:22:17Z</time>
      </trkpt>
      <trkpt lat="42.17" lon="2.6347">
        <ele>499</ele>
        <time>2010-01-01T06:22:18Z</time>
      </trkpt>
      <trkpt lat="42.16995" lon="2.63461">
        <ele>497</ele>
        <time>2010-01-01T06:22:22Z</time>
      </trkpt>
      <trkpt lat="42.16994" lon="2.63454">
        <ele>497</ele>
        <time>2010-01-01T06:22:24Z</time>
      </trkpt>
      <trkpt lat="42.16992" lon="2.63447">
        <ele>497</ele>
        <time>2010-01-01T06:22:26Z</time>
      </trkpt>
      <trkpt lat="42.16993" lon="2.63437">
        <ele>498</ele>
        <time>2010-01-01T06:22:29Z</time>
      </trkpt>
      <trkpt lat="42.16989" lon="2.6342">
        <ele>499</ele>
        <time>2010-01-01T06:22:34Z</time>
      </trkpt>
      <trkpt lat="42.16987" lon="2.63416">
        <ele>499</ele>
        <time>2010-01-01T06:22:36Z</time>
      </trkpt>
      <trkpt lat="42.16986" lon="2.63408">
        <ele>499</ele>
        <time>2010-01-01T06:22:38Z</time>
      </trkpt>
      <trkpt lat="42.16985" lon="2.63393">
        <ele>501</ele>
        <time>2010-01-01T06:22:43Z</time>
      </trkpt>
      <trkpt lat="42.16985" lon="2.63381">
        <ele>501</ele>
        <time>2010-01-01T06:22:46Z</time>
      </trkpt>
      <trkpt lat="42.16986" lon="2.63373">
        <ele>502</ele>
        <time>2010-01-01T06:22:49Z</time>
      </trkpt>
      <trkpt lat="42.16986" lon="2.63365">
        <ele>502</ele>
        <time>2010-01-01T06:22:51Z</time>
      </trkpt>
      <trkpt lat="42.1699" lon="2.63341">
        <ele>502</ele>
        <time>2010-01-01T06:22:58Z</time>
      </trkpt>
      <trkpt lat="42.16987" lon="2.63331">
        <ele>501</ele>
        <time>2010-01-01T06:23:01Z</time>
      </trkpt>
      <trkpt lat="42.16986" lon="2.63329">
        <ele>501</ele>
        <time>2010-01-01T06:23:02Z</time>
      </trkpt>
      <trkpt lat="42.16989" lon="2.63321">
        <ele>501</ele>
        <time>2010-01-01T06:23:05Z</time>
      </trkpt>
      <trkpt lat="42.16995" lon="2.63301">
        <ele>502</ele>
        <time>2010-01-01T06:23:11Z</time>
      </trkpt>
      <trkpt lat="42.16999" lon="2.63292">
        <ele>503</ele>
        <time>2010-01-01T06:23:14Z</time>
      </trkpt>
      <trkpt lat="42.17002" lon="2.63271">
        <ele>504</ele>
        <time>2010-01-01T06:23:21Z</time>
      </trkpt>
      <trkpt lat="42.17001" lon="2.63252">
        <ele>504</ele>
        <time>2010-01-01T06:23:26Z</time>
      </trkpt>
      <trkpt lat="42.17003" lon="2.63227">
        <ele>504</ele>
        <time>2010-01-01T06:23:34Z</time>
      </trkpt>
      <trkpt lat="42.17005" lon="2.6322">
        <ele>504</ele>
        <time>2010-01-01T06:23:36Z</time>
      </trkpt>
      <trkpt lat="42.17007" lon="2.63207">
        <ele>504</ele>
        <time>2010-01-01T06:23:40Z</time>
      </trkpt>
      <trkpt lat="42.17009" lon="2.63194">
        <ele>505</ele>
        <time>2010-01-01T06:23:44Z</time>
      </trkpt>
      <trkpt lat="42.17005" lon="2.63178">
        <ele>505</ele>
        <time>2010-01-01T06:23:49Z</time>
      </trkpt>
      <trkpt lat="42.17002" lon="2.63162">
        <ele>506</ele>
        <time>2010-01-01T06:23:54Z</time>
      </trkpt>
      <trkpt lat="42.16998" lon="2.63148">
        <ele>507</ele>
        <time>2010-01-01T06:23:58Z</time>
      </trkpt>
      <trkpt lat="42.16998" lon="2.63143">
        <ele>508</ele>
        <time>2010-01-01T06:24:00Z</time>
      </trkpt>
      <trkpt lat="42.16999" lon="2.63119">
        <ele>510</ele>
        <time>2010-01-01T06:24:07Z</time>
      </trkpt>
      <trkpt lat="42.16999" lon="2.63107">
        <ele>512</ele>
        <time>2010-01-01T06:24:10Z</time>
      </trkpt>
      <trkpt lat="42.17002" lon="2.63098">
        <ele>513</ele>
        <time>2010-01-01T06:24:13Z</time>
      </trkpt>
      <trkpt lat="42.17001" lon="2.63093">
        <ele>514</ele>
        <time>2010-01-01T06:24:15Z</time>
      </trkpt>
      <trkpt lat="42.17003" lon="2.63075">
        <ele>517</ele>
        <time>2010-01-01T06:24:20Z</time>
      </trkpt>
      <trkpt lat="42.17002" lon="2.63068">
        <ele>519</ele>
        <time>2010-01-01T06:24:22Z</time>
      </trkpt>
      <trkpt lat="42.17004" lon="2.63061">
        <ele>520</ele>
        <time>2010-01-01T06:24:24Z</time>
      </trkpt>
      <trkpt lat="42.17003" lon="2.63052">
        <ele>522</ele>
        <time>2010-01-01T06:24:27Z</time>
      </trkpt>
      <trkpt lat="42.17001" lon="2.63039">
        <ele>524</ele>
        <time>2010-01-01T06:24:31Z</time>
      </trkpt>
      <trkpt lat="42.17002" lon="2.63024">
        <ele>527</ele>
        <time>2010-01-01T06:24:36Z</time>
      </trkpt>
      <trkpt lat="42.17001" lon="2.63007">
        <ele>531</ele>
        <time>2010-01-01T06:24:40Z</time>
      </trkpt>
      <trkpt lat="42.16998" lon="2.63">
        <ele>533</ele>
        <time>2010-01-01T06:24:43Z</time>
      </trkpt>
      <trkpt lat="42.16998" lon="2.62985">
        <ele>534</ele>
        <time>2010-01-01T06:24:48Z</time>
      </trkpt>
      <trkpt lat="42.16996" lon="2.62977">
        <ele>534</ele>
        <time>2010-01-01T06:24:50Z</time>
      </trkpt>
      <trkpt lat="42.16995" lon="2.62969">
        <ele>534</ele>
        <time>2010-01-01T06:24:53Z</time>
      </trkpt>
      <trkpt lat="42.16984" lon="2.6296">
        <ele>535</ele>
        <time>2010-01-01T06:24:58Z</time>
      </trkpt>
      <trkpt lat="42.16973" lon="2.62949">
        <ele>538</ele>
        <time>2010-01-01T06:25:03Z</time>
      </trkpt>
      <trkpt lat="42.16971" lon="2.62943">
        <ele>538</ele>
        <time>2010-01-01T06:25:05Z</time>
      </trkpt>
      <trkpt lat="42.16969" lon="2.6294">
        <ele>538</ele>
        <time>2010-01-01T06:25:06Z</time>
      </trkpt>
      <trkpt lat="42.16956" lon="2.62932">
        <ele>537</ele>
        <time>2010-01-01T06:25:12Z</time>
      </trkpt>
      <trkpt lat="42.16949" lon="2.62927">
        <ele>537</ele>
        <time>2010-01-01T06:25:15Z</time>
      </trkpt>
      <trkpt lat="42.16943" lon="2.62917">
        <ele>537</ele>
        <time>2010-01-01T06:25:19Z</time>
      </trkpt>
      <trkpt lat="42.16944" lon="2.62912">
        <ele>536</ele>
        <time>2010-01-01T06:25:21Z</time>
      </trkpt>
      <trkpt lat="42.16947" lon="2.62895">
        <ele>534</ele>
        <time>2010-01-01T06:25:26Z</time>
      </trkpt>
      <trkpt lat="42.16951" lon="2.62886">
        <ele>533</ele>
        <time>2010-01-01T06:25:29Z</time>
      </trkpt>
      <trkpt lat="42.16952" lon="2.62883">
        <ele>532</ele>
        <time>2010-01-01T06:25:30Z</time>
      </trkpt>
      <trkpt lat="42.16953" lon="2.62861">
        <ele>528</ele>
        <time>2010-01-01T06:25:36Z</time>
      </trkpt>
      <trkpt lat="42.16951" lon="2.6285">
        <ele>526</ele>
        <time>2010-01-01T06:25:40Z</time>
      </trkpt>
      <trkpt lat="42.16952" lon="2.62841">
        <ele>525</ele>
        <time>2010-01-01T06:25:42Z</time>
      </trkpt>
      <trkpt lat="42.16951" lon="2.62822">
        <ele>523</ele>
        <time>2010-01-01T06:25:48Z</time>
      </trkpt>
      <trkpt lat="42.16955" lon="2.62805">
        <ele>522</ele>
        <time>2010-01-01T06:25:53Z</time>
      </trkpt>
      <trkpt lat="42.16955" lon="2.62788">
        <ele>523</ele>
        <time>2010-01-01T06:25:58Z</time>
      </trkpt>
      <trkpt lat="42.16953" lon="2.62772">
        <ele>523</ele>
        <time>2010-01-01T06:26:03Z</time>
      </trkpt>
      <trkpt lat="42.16951" lon="2.62765">
        <ele>524</ele>
        <time>2010-01-01T06:26:05Z</time>
      </trkpt>
      <trkpt lat="42.16944" lon="2.62749">
        <ele>523</ele>
        <time>2010-01-01T06:26:11Z</time>
      </trkpt>
      <trkpt lat="42.1694" lon="2.62731">
        <ele>522</ele>
        <time>2010-01-01T06:26:16Z</time>
      </trkpt>
      <trkpt lat="42.16938" lon="2.62725">
        <ele>522</ele>
        <time>2010-01-01T06:26:18Z</time>
      </trkpt>
      <trkpt lat="42.16931" lon="2.62716">
        <ele>520</ele>
        <time>2010-01-01T06:26:22Z</time>
      </trkpt>
      <trkpt lat="42.16928" lon="2.62711">
        <ele>518</ele>
        <time>2010-01-01T06:26:24Z</time>
      </trkpt>
      <trkpt lat="42.16932" lon="2.62696">
        <ele>520</ele>
        <time>2010-01-01T06:26:29Z</time>
      </trkpt>
      <trkpt lat="42.16941" lon="2.62682">
        <ele>521</ele>
        <time>2010-01-01T06:26:35Z</time>
      </trkpt>
      <trkpt lat="42.16946" lon="2.62672">
        <ele>521</ele>
        <time>2010-01-01T06:26:38Z</time>
      </trkpt>
      <trkpt lat="42.1695" lon="2.62658">
        <ele>520</ele>
        <time>2010-01-01T06:26:43Z</time>
      </trkpt>
      <trkpt lat="42.16958" lon="2.62645">
        <ele>521</ele>
        <time>2010-01-01T06:26:48Z</time>
      </trkpt>
      <trkpt lat="42.16959" lon="2.62644">
        <ele>521</ele>
        <time>2010-01-01T06:26:48Z</time>
      </trkpt>
      <trkpt lat="42.16969" lon="2.62639">
        <ele>524</ele>
        <time>2010-01-01T06:26:52Z</time>
      </trkpt>
      <trkpt lat="42.16973" lon="2.62628">
        <ele>523</ele>
        <time>2010-01-01T06:26:56Z</time>
      </trkpt>
      <trkpt lat="42.16977" lon="2.62608">
        <ele>521</ele>
        <time>2010-01-01T06:27:02Z</time>
      </trkpt>
      <trkpt lat="42.16979" lon="2.62597">
        <ele>519</ele>
        <time>2010-01-01T06:27:06Z</time>
      </trkpt>
      <trkpt lat="42.16982" lon="2.62583">
        <ele>518</ele>
        <time>2010-01-01T06:27:10Z</time>
      </trkpt>
      <trkpt lat="42.16985" lon="2.62576">
        <ele>517</ele>
        <time>2010-01-01T06:27:12Z</time>
      </trkpt>
      <trkpt lat="42.1699" lon="2.62556">
        <ele>516</ele>
        <time>2010-01-01T06:27:19Z</time>
      </trkpt>
      <trkpt lat="42.16988" lon="2.62539">
        <ele>513</ele>
        <time>2010-01-01T06:27:24Z</time>
      </trkpt>
      <trkpt lat="42.16989" lon="2.62523">
        <ele>511</ele>
        <time>2010-01-01T06:27:28Z</time>
      </trkpt>
      <trkpt lat="42.16993" lon="2.62501">
        <ele>511</ele>
        <time>2010-01-01T06:27:35Z</time>
      </trkpt>
      <trkpt lat="42.16992" lon="2.62481">
        <ele>508</ele>
        <time>2010-01-01T06:27:41Z</time>
      </trkpt>
      <trkpt lat="42.16992" lon="2.62476">
        <ele>508</ele>
        <time>2010-01-01T06:27:43Z</time>
      </trkpt>
      <trkpt lat="42.16999" lon="2.6246">
        <ele>510</ele>
        <time>2010-01-01T06:27:48Z</time>
      </trkpt>
      <trkpt lat="42.17003" lon="2.62446">
        <ele>510</ele>
        <time>2010-01-01T06:27:52Z</time>
      </trkpt>
      <trkpt lat="42.17009" lon="2.62424">
        <ele>510</ele>
        <time>2010-01-01T06:27:59Z</time>
      </trkpt>
      <trkpt lat="42.17006" lon="2.62409">
        <ele>508</ele>
        <time>2010-01-01T06:28:04Z</time>
      </trkpt>
      <trkpt lat="42.17006" lon="2.62388">
        <ele>507</ele>
        <time>2010-01-01T06:28:10Z</time>
      </trkpt>
      <trkpt lat="42.17004" lon="2.62382">
        <ele>507</ele>
        <time>2010-01-01T06:28:12Z</time>
      </trkpt>
      <trkpt lat="42.17004" lon="2.62372">
        <ele>507</ele>
        <time>2010-01-01T06:28:15Z</time>
      </trkpt>
      <trkpt lat="42.17005" lon="2.62361">
        <ele>507</ele>
        <time>2010-01-01T06:28:18Z</time>
      </trkpt>
      <trkpt lat="42.17008" lon="2.62346">
        <ele>508</ele>
        <time>2010-01-01T06:28:23Z</time>
      </trkpt>
      <trkpt lat="42.17011" lon="2.62336">
        <ele>508</ele>
        <time>2010-01-01T06:28:26Z</time>
      </trkpt>
      <trkpt lat="42.17012" lon="2.6232">
        <ele>507</ele>
        <time>2010-01-01T06:28:31Z</time>
      </trkpt>
      <trkpt lat="42.17015" lon="2.62313">
        <ele>508</ele>
        <time>2010-01-01T06:28:33Z</time>
      </trkpt>
      <trkpt lat="42.17022" lon="2.62291">
        <ele>509</ele>
        <time>2010-01-01T06:28:40Z</time>
      </trkpt>
      <trkpt lat="42.17023" lon="2.62288">
        <ele>509</ele>
        <time>2010-01-01T06:28:42Z</time>
      </trkpt>
      <trkpt lat="42.17019" lon="2.62278">
        <ele>507</ele>
        <time>2010-01-01T06:28:45Z</time>
      </trkpt>
      <trkpt lat="42.17019" lon="2.6227">
        <ele>507</ele>
        <time>2010-01-01T06:28:47Z</time>
      </trkpt>
      <trkpt lat="42.1702" lon="2.62254">
        <ele>508</ele>
        <time>2010-01-01T06:28:52Z</time>
      </trkpt>
      <trkpt lat="42.17021" lon="2.62237">
        <ele>508</ele>
        <time>2010-01-01T06:28:57Z</time>
      </trkpt>
      <trkpt lat="42.17018" lon="2.62221">
        <ele>507</ele>
        <time>2010-01-01T06:29:02Z</time>
      </trkpt>
      <trkpt lat="42.17018" lon="2.62209">
        <ele>506</ele>
        <time>2010-01-01T06:29:05Z</time>
      </trkpt>
      <trkpt lat="42.1702" lon="2.62197">
        <ele>506</ele>
        <time>2010-01-01T06:29:09Z</time>
      </trkpt>
      <trkpt lat="42.17024" lon="2.62179">
        <ele>506</ele>
        <time>2010-01-01T06:29:15Z</time>
      </trkpt>
      <trkpt lat="42.1703" lon="2.62165">
        <ele>507</ele>
        <time>2010-01-01T06:29:19Z</time>
      </trkpt>
      <trkpt lat="42.17031" lon="2.62164">
        <ele>507</ele>
        <time>2010-01-01T06:29:20Z</time>
      </trkpt>
      <trkpt lat="42.17033" lon="2.62147">
        <ele>506</ele>
        <time>2010-01-01T06:29:25Z</time>
      </trkpt>
      <trkpt lat="42.17039" lon="2.6213">
        <ele>506</ele>
        <time>2010-01-01T06:29:31Z</time>
      </trkpt>
      <trkpt lat="42.17044" lon="2.62119">
        <ele>507</ele>
        <time>2010-01-01T06:29:34Z</time>
      </trkpt>
      <trkpt lat="42.17041" lon="2.62114">
        <ele>506</ele>
        <time>2010-01-01T06:29:37Z</time>
      </trkpt>
      <trkpt lat="42.17041" lon="2.62108">
        <ele>505</ele>
        <time>2010-01-01T06:29:38Z</time>
      </trkpt>
      <trkpt lat="42.1704" lon="2.62101">
        <ele>504</ele>
        <time>2010-01-01T06:29:40Z</time>
      </trkpt>
      <trkpt lat="42.17045" lon="2.62084">
        <ele>503</ele>
        <time>2010-01-01T06:29:46Z</time>
      </trkpt>
      <trkpt lat="42.17045" lon="2.62075">
        <ele>500</ele>
        <time>2010-01-01T06:29:49Z</time>
      </trkpt>
      <trkpt lat="42.17041" lon="2.62068">
        <ele>497</ele>
        <time>2010-01-01T06:29:51Z</time>
      </trkpt>
      <trkpt lat="42.17045" lon="2.62052">
        <ele>495</ele>
        <time>2010-01-01T06:29:56Z</time>
      </trkpt>
      <trkpt lat="42.17046" lon="2.62051">
        <ele>495</ele>
        <time>2010-01-01T06:29:57Z</time>
      </trkpt>
      <trkpt lat="42.17058" lon="2.62046">
        <ele>498</ele>
        <time>2010-01-01T06:30:02Z</time>
      </trkpt>
      <trkpt lat="42.17059" lon="2.62045">
        <ele>498</ele>
        <time>2010-01-01T06:30:02Z</time>
      </trkpt>
      <trkpt lat="42.17063" lon="2.62028">
        <ele>497</ele>
        <time>2010-01-01T06:30:08Z</time>
      </trkpt>
      <trkpt lat="42.17065" lon="2.62018">
        <ele>496</ele>
        <time>2010-01-01T06:30:11Z</time>
      </trkpt>
      <trkpt lat="42.17072" lon="2.62012">
        <ele>497</ele>
        <time>2010-01-01T06:30:14Z</time>
      </trkpt>
      <trkpt lat="42.17074" lon="2.62006">
        <ele>497</ele>
        <time>2010-01-01T06:30:16Z</time>
      </trkpt>
      <trkpt lat="42.1708" lon="2.61986">
        <ele>497</ele>
        <time>2010-01-01T06:30:22Z</time>
      </trkpt>
      <trkpt lat="42.17085" lon="2.61978">
        <ele>498</ele>
        <time>2010-01-01T06:30:25Z</time>
      </trkpt>
      <trkpt lat="42.17094" lon="2.61967">
        <ele>498</ele>
        <time>2010-01-01T06:30:30Z</time>
      </trkpt>
      <trkpt lat="42.17098" lon="2.61951">
        <ele>499</ele>
        <time>2010-01-01T06:30:35Z</time>
      </trkpt>
      <trkpt lat="42.17103" lon="2.61945">
        <ele>500</ele>
        <time>2010-01-01T06:30:38Z</time>
      </trkpt>
      <trkpt lat="42.17106" lon="2.61938">
        <ele>502</ele>
        <time>2010-01-01T06:30:40Z</time>
      </trkpt>
      <trkpt lat="42.17105" lon="2.61925">
        <ele>503</ele>
        <time>2010-01-01T06:30:44Z</time>
      </trkpt>
      <trkpt lat="42.17107" lon="2.6191">
        <ele>505</ele>
        <time>2010-01-01T06:30:49Z</time>
      </trkpt>
      <trkpt lat="42.17114" lon="2.61906">
        <ele>507</ele>
        <time>2010-01-01T06:30:52Z</time>
      </trkpt>
      <trkpt lat="42.17126" lon="2.61901">
        <ele>510</ele>
        <time>2010-01-01T06:30:57Z</time>
      </trkpt>
      <trkpt lat="42.17127" lon="2.619">
        <ele>510</ele>
        <time>2010-01-01T06:30:57Z</time>
      </trkpt>
      <trkpt lat="42.17128" lon="2.61887">
        <ele>512</ele>
        <time>2010-01-01T06:31:01Z</time>
      </trkpt>
      <trkpt lat="42.17142" lon="2.61883">
        <ele>515</ele>
        <time>2010-01-01T06:31:07Z</time>
      </trkpt>
      <trkpt lat="42.17146" lon="2.61883">
        <ele>515</ele>
        <time>2010-01-01T06:31:09Z</time>
      </trkpt>
      <trkpt lat="42.1715" lon="2.61868">
        <ele>518</ele>
        <time>2010-01-01T06:31:13Z</time>
      </trkpt>
      <trkpt lat="42.17154" lon="2.61863">
        <ele>518</ele>
        <time>2010-01-01T06:31:16Z</time>
      </trkpt>
      <trkpt lat="42.17155" lon="2.61862">
        <ele>519</ele>
        <time>2010-01-01T06:31:16Z</time>
      </trkpt>
      <trkpt lat="42.17149" lon="2.6185">
        <ele>522</ele>
        <time>2010-01-01T06:31:20Z</time>
      </trkpt>
      <trkpt lat="42.17141" lon="2.61846">
        <ele>524</ele>
        <time>2010-01-01T06:31:23Z</time>
      </trkpt>
      <trkpt lat="42.17135" lon="2.61839">
        <ele>526</ele>
        <time>2010-01-01T06:31:27Z</time>
      </trkpt>
      <trkpt lat="42.17131" lon="2.61832">
        <ele>527</ele>
        <time>2010-01-01T06:31:29Z</time>
      </trkpt>
      <trkpt lat="42.17127" lon="2.61823">
        <ele>530</ele>
        <time>2010-01-01T06:31:33Z</time>
      </trkpt>
      <trkpt lat="42.17128" lon="2.6182">
        <ele>531</ele>
        <time>2010-01-01T06:31:34Z</time>
      </trkpt>
      <trkpt lat="42.17134" lon="2.61812">
        <ele>533</ele>
        <time>2010-01-01T06:31:37Z</time>
      </trkpt>
      <trkpt lat="42.17134" lon="2.61811">
        <ele>534</ele>
        <time>2010-01-01T06:31:37Z</time>
      </trkpt>
      <trkpt lat="42.1713" lon="2.61805">
        <ele>535</ele>
        <time>2010-01-01T06:31:40Z</time>
      </trkpt>
      <trkpt lat="42.17126" lon="2.61799">
        <ele>537</ele>
        <time>2010-01-01T06:31:42Z</time>
      </trkpt>
      <trkpt lat="42.17126" lon="2.6179">
        <ele>540</ele>
        <time>2010-01-01T06:31:45Z</time>
      </trkpt>
      <trkpt lat="42.17126" lon="2.61782">
        <ele>542</ele>
        <time>2010-01-01T06:31:47Z</time>
      </trkpt>
      <trkpt lat="42.17124" lon="2.61767">
        <ele>545</ele>
        <time>2010-01-01T06:31:52Z</time>
      </trkpt>
      <trkpt lat="42.17121" lon="2.61765">
        <ele>545</ele>
        <time>2010-01-01T06:31:53Z</time>
      </trkpt>
      <trkpt lat="42.17114" lon="2.6176">
        <ele>546</ele>
        <time>2010-01-01T06:31:56Z</time>
      </trkpt>
      <trkpt lat="42.17108" lon="2.61737">
        <ele>547</ele>
        <time>2010-01-01T06:32:04Z</time>
      </trkpt>
      <trkpt lat="42.17101" lon="2.61723">
        <ele>548</ele>
        <time>2010-01-01T06:32:08Z</time>
      </trkpt>
      <trkpt lat="42.17096" lon="2.61717">
        <ele>548</ele>
        <time>2010-01-01T06:32:11Z</time>
      </trkpt>
      <trkpt lat="42.17095" lon="2.61711">
        <ele>548</ele>
        <time>2010-01-01T06:32:13Z</time>
      </trkpt>
      <trkpt lat="42.17091" lon="2.617">
        <ele>548</ele>
        <time>2010-01-01T06:32:16Z</time>
      </trkpt>
      <trkpt lat="42.1709" lon="2.61698">
        <ele>548</ele>
        <time>2010-01-01T06:32:17Z</time>
      </trkpt>
      <trkpt lat="42.17091" lon="2.61675">
        <ele>550</ele>
        <time>2010-01-01T06:32:24Z</time>
      </trkpt>
      <trkpt lat="42.17089" lon="2.61669">
        <ele>550</ele>
        <time>2010-01-01T06:32:26Z</time>
      </trkpt>
      <trkpt lat="42.17089" lon="2.61666">
        <ele>550</ele>
        <time>2010-01-01T06:32:27Z</time>
      </trkpt>
      <trkpt lat="42.17093" lon="2.61663">
        <ele>550</ele>
        <time>2010-01-01T06:32:29Z</time>
      </trkpt>
      <trkpt lat="42.17098" lon="2.61658">
        <ele>551</ele>
        <time>2010-01-01T06:32:31Z</time>
      </trkpt>
      <trkpt lat="42.17108" lon="2.61648">
        <ele>551</ele>
        <time>2010-01-01T06:32:36Z</time>
      </trkpt>
      <trkpt lat="42.17112" lon="2.6163">
        <ele>551</ele>
        <time>2010-01-01T06:32:42Z</time>
      </trkpt>
      <trkpt lat="42.17107" lon="2.61615">
        <ele>550</ele>
        <time>2010-01-01T06:32:47Z</time>
      </trkpt>
      <trkpt lat="42.17105" lon="2.61612">
        <ele>550</ele>
        <time>2010-01-01T06:32:48Z</time>
      </trkpt>
      <trkpt lat="42.17099" lon="2.61613">
        <ele>551</ele>
        <time>2010-01-01T06:32:50Z</time>
      </trkpt>
      <trkpt lat="42.17096" lon="2.6161">
        <ele>551</ele>
        <time>2010-01-01T06:32:52Z</time>
      </trkpt>
      <trkpt lat="42.17095" lon="2.61589">
        <ele>552</ele>
        <time>2010-01-01T06:32:58Z</time>
      </trkpt>
      <trkpt lat="42.1709" lon="2.61581">
        <ele>553</ele>
        <time>2010-01-01T06:33:01Z</time>
      </trkpt>
      <trkpt lat="42.17088" lon="2.61572">
        <ele>555</ele>
        <time>2010-01-01T06:33:04Z</time>
      </trkpt>
      <trkpt lat="42.17089" lon="2.61568">
        <ele>555</ele>
        <time>2010-01-01T06:33:05Z</time>
      </trkpt>
      <trkpt lat="42.17089" lon="2.61566">
        <ele>556</ele>
        <time>2010-01-01T06:33:06Z</time>
      </trkpt>
      <trkpt lat="42.17079" lon="2.61551">
        <ele>557</ele>
        <time>2010-01-01T06:33:12Z</time>
      </trkpt>
      <trkpt lat="42.17074" lon="2.61547">
        <ele>556</ele>
        <time>2010-01-01T06:33:14Z</time>
      </trkpt>
      <trkpt lat="42.17073" lon="2.61541">
        <ele>557</ele>
        <time>2010-01-01T06:33:16Z</time>
      </trkpt>
      <trkpt lat="42.17071" lon="2.61528">
        <ele>558</ele>
        <time>2010-01-01T06:33:20Z</time>
      </trkpt>
      <trkpt lat="42.17071" lon="2.61526">
        <ele>559</ele>
        <time>2010-01-01T06:33:20Z</time>
      </trkpt>
      <trkpt lat="42.17068" lon="2.61506">
        <ele>561</ele>
        <time>2010-01-01T06:33:26Z</time>
      </trkpt>
      <trkpt lat="42.17065" lon="2.61494">
        <ele>562</ele>
        <time>2010-01-01T06:33:30Z</time>
      </trkpt>
      <trkpt lat="42.1707" lon="2.61489">
        <ele>564</ele>
        <time>2010-01-01T06:33:33Z</time>
      </trkpt>
      <trkpt lat="42.17071" lon="2.61474">
        <ele>566</ele>
        <time>2010-01-01T06:33:37Z</time>
      </trkpt>
      <trkpt lat="42.17069" lon="2.61467">
        <ele>566</ele>
        <time>2010-01-01T06:33:39Z</time>
      </trkpt>
      <trkpt lat="42.17068" lon="2.61448">
        <ele>567</ele>
        <time>2010-01-01T06:33:45Z</time>
      </trkpt>
      <trkpt lat="42.17069" lon="2.61417">
        <ele>569</ele>
        <time>2010-01-01T06:33:54Z</time>
      </trkpt>
      <trkpt lat="42.17064" lon="2.61394">
        <ele>570</ele>
        <time>2010-01-01T06:34:01Z</time>
      </trkpt>
      <trkpt lat="42.17062" lon="2.61363">
        <ele>573</ele>
        <time>2010-01-01T06:34:10Z</time>
      </trkpt>
      <trkpt lat="42.17061" lon="2.61356">
        <ele>573</ele>
        <time>2010-01-01T06:34:13Z</time>
      </trkpt>
      <trkpt lat="42.17062" lon="2.61345">
        <ele>573</ele>
        <time>2010-01-01T06:34:16Z</time>
      </trkpt>
      <trkpt lat="42.17057" lon="2.61319">
        <ele>574</ele>
        <time>2010-01-01T06:34:24Z</time>
      </trkpt>
      <trkpt lat="42.17046" lon="2.61303">
        <ele>577</ele>
        <time>2010-01-01T06:34:30Z</time>
      </trkpt>
      <trkpt lat="42.17045" lon="2.613">
        <ele>577</ele>
        <time>2010-01-01T06:34:31Z</time>
      </trkpt>
      <trkpt lat="42.17042" lon="2.61299">
        <ele>578</ele>
        <time>2010-01-01T06:34:32Z</time>
      </trkpt>
      <trkpt lat="42.17033" lon="2.61298">
        <ele>580</ele>
        <time>2010-01-01T06:34:36Z</time>
      </trkpt>
      <trkpt lat="42.17033" lon="2.61296">
        <ele>580</ele>
        <time>2010-01-01T06:34:36Z</time>
      </trkpt>
      <trkpt lat="42.17028" lon="2.61298">
        <ele>581</ele>
        <time>2010-01-01T06:34:38Z</time>
      </trkpt>
      <trkpt lat="42.17025" lon="2.61299">
        <ele>582</ele>
        <time>2010-01-01T06:34:40Z</time>
      </trkpt>
      <trkpt lat="42.17026" lon="2.61299">
        <ele>582</ele>
        <time>2010-01-01T06:34:40Z</time>
      </trkpt>
      <trkpt lat="42.17027" lon="2.61303">
        <ele>581</ele>
        <time>2010-01-01T06:34:41Z</time>
      </trkpt>
      <trkpt lat="42.1703" lon="2.61304">
        <ele>580</ele>
        <time>2010-01-01T06:34:43Z</time>
      </trkpt>
      <trkpt lat="42.17028" lon="2.61303">
        <ele>581</ele>
        <time>2010-01-01T06:34:44Z</time>
      </trkpt>
      <trkpt lat="42.1702" lon="2.61294">
        <ele>583</ele>
        <time>2010-01-01T06:34:48Z</time>
      </trkpt>
      <trkpt lat="42.17022" lon="2.61296">
        <ele>582</ele>
        <time>2010-01-01T06:34:49Z</time>
      </trkpt>
      <trkpt lat="42.17015" lon="2.61288">
        <ele>585</ele>
        <time>2010-01-01T06:34:52Z</time>
      </trkpt>
      <trkpt lat="42.17012" lon="2.61284">
        <ele>586</ele>
        <time>2010-01-01T06:34:54Z</time>
      </trkpt>
      <trkpt lat="42.17011" lon="2.61281">
        <ele>587</ele>
        <time>2010-01-01T06:34:55Z</time>
      </trkpt>
      <trkpt lat="42.17007" lon="2.61256">
        <ele>590</ele>
        <time>2010-01-01T06:35:03Z</time>
      </trkpt>
      <trkpt lat="42.17" lon="2.6123">
        <ele>596</ele>
        <time>2010-01-01T06:35:11Z</time>
      </trkpt>
      <trkpt lat="42.16983" lon="2.61199">
        <ele>600</ele>
        <time>2010-01-01T06:35:22Z</time>
      </trkpt>
      <trkpt lat="42.16966" lon="2.61181">
        <ele>602</ele>
        <time>2010-01-01T06:35:31Z</time>
      </trkpt>
      <trkpt lat="42.1695" lon="2.6118">
        <ele>605</ele>
        <time>2010-01-01T06:35:38Z</time>
      </trkpt>
      <trkpt lat="42.16949" lon="2.61183">
        <ele>606</ele>
        <time>2010-01-01T06:35:39Z</time>
      </trkpt>
      <trkpt lat="42.16947" lon="2.6121">
        <ele>605</ele>
        <time>2010-01-01T06:35:47Z</time>
      </trkpt>
      <trkpt lat="42.16931" lon="2.61214">
        <ele>606</ele>
        <time>2010-01-01T06:35:53Z</time>
      </trkpt>
      <trkpt lat="42.16927" lon="2.6121">
        <ele>607</ele>
        <time>2010-01-01T06:35:55Z</time>
      </trkpt>
      <trkpt lat="42.16916" lon="2.61186">
        <ele>611</ele>
        <time>2010-01-01T06:36:04Z</time>
      </trkpt>
      <trkpt lat="42.16916" lon="2.61179">
        <ele>612</ele>
        <time>2010-01-01T06:36:06Z</time>
      </trkpt>
      <trkpt lat="42.16913" lon="2.61161">
        <ele>614</ele>
        <time>2010-01-01T06:36:11Z</time>
      </trkpt>
      <trkpt lat="42.16906" lon="2.6113">
        <ele>619</ele>
        <time>2010-01-01T06:36:21Z</time>
      </trkpt>
      <trkpt lat="42.16898" lon="2.61105">
        <ele>622</ele>
        <time>2010-01-01T06:36:29Z</time>
      </trkpt>
      <trkpt lat="42.16893" lon="2.61072">
        <ele>625</ele>
        <time>2010-01-01T06:36:39Z</time>
      </trkpt>
      <trkpt lat="42.16891" lon="2.61041">
        <ele>626</ele>
        <time>2010-01-01T06:36:48Z</time>
      </trkpt>
      <trkpt lat="42.16884" lon="2.61019">
        <ele>628</ele>
        <time>2010-01-01T06:36:55Z</time>
      </trkpt>
      <trkpt lat="42.16879" lon="2.61004">
        <ele>629</ele>
        <time>2010-01-01T06:37:00Z</time>
      </trkpt>
      <trkpt lat="42.16875" lon="2.60977">
        <ele>630</ele>
        <time>2010-01-01T06:37:08Z</time>
      </trkpt>
      <trkpt lat="42.16868" lon="2.60948">
        <ele>631</ele>
        <time>2010-01-01T06:37:17Z</time>
      </trkpt>
      <trkpt lat="42.16853" lon="2.60923">
        <ele>633</ele>
        <time>2010-01-01T06:37:27Z</time>
      </trkpt>
      <trkpt lat="42.16842" lon="2.60897">
        <ele>633</ele>
        <time>2010-01-01T06:37:35Z</time>
      </trkpt>
      <trkpt lat="42.1684" lon="2.60886">
        <ele>633</ele>
        <time>2010-01-01T06:37:39Z</time>
      </trkpt>
      <trkpt lat="42.1684" lon="2.60882">
        <ele>634</ele>
        <time>2010-01-01T06:37:40Z</time>
      </trkpt>
      <trkpt lat="42.16838" lon="2.60867">
        <ele>635</ele>
        <time>2010-01-01T06:37:45Z</time>
      </trkpt>
      <trkpt lat="42.16843" lon="2.60859">
        <ele>638</ele>
        <time>2010-01-01T06:37:48Z</time>
      </trkpt>
      <trkpt lat="42.16846" lon="2.60856">
        <ele>639</ele>
        <time>2010-01-01T06:37:49Z</time>
      </trkpt>
      <trkpt lat="42.16855" lon="2.60848">
        <ele>643</ele>
        <time>2010-01-01T06:37:54Z</time>
      </trkpt>
      <trkpt lat="42.16862" lon="2.60837">
        <ele>647</ele>
        <time>2010-01-01T06:37:58Z</time>
      </trkpt>
      <trkpt lat="42.16856" lon="2.60837">
        <ele>645</ele>
        <time>2010-01-01T06:38:00Z</time>
      </trkpt>
      <trkpt lat="42.16847" lon="2.6084">
        <ele>642</ele>
        <time>2010-01-01T06:38:04Z</time>
      </trkpt>
      <trkpt lat="42.16853" lon="2.60831">
        <ele>645</ele>
        <time>2010-01-01T06:38:08Z</time>
      </trkpt>
      <trkpt lat="42.16849" lon="2.60824">
        <ele>645</ele>
        <time>2010-01-01T06:38:10Z</time>
      </trkpt>
      <trkpt lat="42.16848" lon="2.60817">
        <ele>646</ele>
        <time>2010-01-01T06:38:12Z</time>
      </trkpt>
      <trkpt lat="42.16849" lon="2.60804">
        <ele>649</ele>
        <time>2010-01-01T06:38:16Z</time>
      </trkpt>
      <trkpt lat="42.16848" lon="2.60795">
        <ele>650</ele>
        <time>2010-01-01T06:38:19Z</time>
      </trkpt>
      <trkpt lat="42.16842" lon="2.60768">
        <ele>652</ele>
        <time>2010-01-01T06:38:27Z</time>
      </trkpt>
      <trkpt lat="42.16836" lon="2.60748">
        <ele>652</ele>
        <time>2010-01-01T06:38:34Z</time>
      </trkpt>
      <trkpt lat="42.1683" lon="2.60741">
        <ele>650</ele>
        <time>2010-01-01T06:38:37Z</time>
      </trkpt>
      <trkpt lat="42.16833" lon="2.60712">
        <ele>651</ele>
        <time>2010-01-01T06:38:45Z</time>
      </trkpt>
      <trkpt lat="42.16835" lon="2.60708">
        <ele>653</ele>
        <time>2010-01-01T06:38:47Z</time>
      </trkpt>
      <trkpt lat="42.16846" lon="2.60705">
        <ele>656</ele>
        <time>2010-01-01T06:38:51Z</time>
      </trkpt>
      <trkpt lat="42.16863" lon="2.60691">
        <ele>661</ele>
        <time>2010-01-01T06:38:59Z</time>
      </trkpt>
      <trkpt lat="42.16872" lon="2.60659">
        <ele>663</ele>
        <time>2010-01-01T06:39:10Z</time>
      </trkpt>
      <trkpt lat="42.16883" lon="2.60628">
        <ele>667</ele>
        <time>2010-01-01T06:39:20Z</time>
      </trkpt>
      <trkpt lat="42.1689" lon="2.60617">
        <ele>669</ele>
        <time>2010-01-01T06:39:24Z</time>
      </trkpt>
      <trkpt lat="42.16896" lon="2.60596">
        <ele>671</ele>
        <time>2010-01-01T06:39:31Z</time>
      </trkpt>
      <trkpt lat="42.16908" lon="2.60569">
        <ele>674</ele>
        <time>2010-01-01T06:39:40Z</time>
      </trkpt>
      <trkpt lat="42.16919" lon="2.60556">
        <ele>675</ele>
        <time>2010-01-01T06:39:46Z</time>
      </trkpt>
      <trkpt lat="42.16944" lon="2.60541">
        <ele>673</ele>
        <time>2010-01-01T06:39:57Z</time>
      </trkpt>
      <trkpt lat="42.16961" lon="2.60533">
        <ele>673</ele>
        <time>2010-01-01T06:40:04Z</time>
      </trkpt>
      <trkpt lat="42.16973" lon="2.6053">
        <ele>673</ele>
        <time>2010-01-01T06:40:09Z</time>
      </trkpt>
      <trkpt lat="42.16986" lon="2.60535">
        <ele>674</ele>
        <time>2010-01-01T06:40:14Z</time>
      </trkpt>
      <trkpt lat="42.16986" lon="2.60543">
        <ele>674</ele>
        <time>2010-01-01T06:40:17Z</time>
      </trkpt>
      <trkpt lat="42.16983" lon="2.60544">
        <ele>674</ele>
        <time>2010-01-01T06:40:18Z</time>
      </trkpt>
      <trkpt lat="42.1698" lon="2.60546">
        <ele>674</ele>
        <time>2010-01-01T06:40:19Z</time>
      </trkpt>
      <trkpt lat="42.1698" lon="2.60546">
        <ele>674</ele>
        <time>2010-01-01T06:40:19Z</time>
      </trkpt>
      <trkpt lat="42.16981" lon="2.60545">
        <ele>674</ele>
        <time>2010-01-01T06:40:19Z</time>
      </trkpt>
      <trkpt lat="42.1698" lon="2.60547">
        <ele>674</ele>
        <time>2010-01-01T06:40:20Z</time>
      </trkpt>
      <trkpt lat="42.16979" lon="2.60547">
        <ele>674</ele>
        <time>2010-01-01T06:40:20Z</time>
      </trkpt>
      <trkpt lat="42.16979" lon="2.60547">
        <ele>674</ele>
        <time>2010-01-01T06:40:20Z</time>
      </trkpt>
      <trkpt lat="42.16979" lon="2.60547">
        <ele>674</ele>
        <time>2010-01-01T06:40:20Z</time>
      </trkpt>
      <trkpt lat="42.1698" lon="2.60545">
        <ele>674</ele>
        <time>2010-01-01T06:40:21Z</time>
      </trkpt>
      <trkpt lat="42.16979" lon="2.60544">
        <ele>674</ele>
        <time>2010-01-01T06:40:22Z</time>
      </trkpt>
      <trkpt lat="42.16979" lon="2.60542">
        <ele>673</ele>
        <time>2010-01-01T06:40:22Z</time>
      </trkpt>
      <trkpt lat="42.16982" lon="2.60552">
        <ele>674</ele>
        <time>2010-01-01T06:40:25Z</time>
      </trkpt>
      <trkpt lat="42.16983" lon="2.60554">
        <ele>674</ele>
        <time>2010-01-01T06:40:26Z</time>
      </trkpt>
      <trkpt lat="42.16979" lon="2.60554">
        <ele>674</ele>
        <time>2010-01-01T06:40:28Z</time>
      </trkpt>
      <trkpt lat="42.16981" lon="2.60561">
        <ele>674</ele>
        <time>2010-01-01T06:40:30Z</time>
      </trkpt>
      <trkpt lat="42.16982" lon="2.60556">
        <ele>674</ele>
        <time>2010-01-01T06:40:32Z</time>
      </trkpt>
      <trkpt lat="42.16986" lon="2.60558">
        <ele>674</ele>
        <time>2010-01-01T06:40:33Z</time>
      </trkpt>
      <trkpt lat="42.16994" lon="2.60552">
        <ele>675</ele>
        <time>2010-01-01T06:40:37Z</time>
      </trkpt>
      <trkpt lat="42.16994" lon="2.6054">
        <ele>674</ele>
        <time>2010-01-01T06:40:41Z</time>
      </trkpt>
      <trkpt lat="42.17" lon="2.6053">
        <ele>675</ele>
        <time>2010-01-01T06:40:45Z</time>
      </trkpt>
      <trkpt lat="42.17003" lon="2.60524">
        <ele>674</ele>
        <time>2010-01-01T06:40:47Z</time>
      </trkpt>
      <trkpt lat="42.17006" lon="2.60521">
        <ele>674</ele>
        <time>2010-01-01T06:40:48Z</time>
      </trkpt>
      <trkpt lat="42.17009" lon="2.60515">
        <ele>673</ele>
        <time>2010-01-01T06:40:50Z</time>
      </trkpt>
      <trkpt lat="42.17015" lon="2.60499">
        <ele>672</ele>
        <time>2010-01-01T06:40:56Z</time>
      </trkpt>
      <trkpt lat="42.17014" lon="2.60494">
        <ele>673</ele>
        <time>2010-01-01T06:40:57Z</time>
      </trkpt>
      <trkpt lat="42.17003" lon="2.60475">
        <ele>674</ele>
        <time>2010-01-01T06:41:04Z</time>
      </trkpt>
      <trkpt lat="42.16989" lon="2.60459">
        <ele>675</ele>
        <time>2010-01-01T06:41:12Z</time>
      </trkpt>
      <trkpt lat="42.16986" lon="2.60447">
        <ele>675</ele>
        <time>2010-01-01T06:41:15Z</time>
      </trkpt>
      <trkpt lat="42.1698" lon="2.60436">
        <ele>675</ele>
        <time>2010-01-01T06:41:20Z</time>
      </trkpt>
      <trkpt lat="42.16976" lon="2.60416">
        <ele>675</ele>
        <time>2010-01-01T06:41:26Z</time>
      </trkpt>
      <trkpt lat="42.16976" lon="2.60412">
        <ele>675</ele>
        <time>2010-01-01T06:41:27Z</time>
      </trkpt>
      <trkpt lat="42.16979" lon="2.60396">
        <ele>676</ele>
        <time>2010-01-01T06:41:32Z</time>
      </trkpt>
      <trkpt lat="42.16986" lon="2.60374">
        <ele>677</ele>
        <time>2010-01-01T06:41:39Z</time>
      </trkpt>
      <trkpt lat="42.16986" lon="2.60371">
        <ele>677</ele>
        <time>2010-01-01T06:41:40Z</time>
      </trkpt>
      <trkpt lat="42.1699" lon="2.60356">
        <ele>678</ele>
        <time>2010-01-01T06:41:45Z</time>
      </trkpt>
      <trkpt lat="42.16991" lon="2.60352">
        <ele>678</ele>
        <time>2010-01-01T06:41:46Z</time>
      </trkpt>
      <trkpt lat="42.16995" lon="2.60325">
        <ele>681</ele>
        <time>2010-01-01T06:41:54Z</time>
      </trkpt>
      <trkpt lat="42.16998" lon="2.60304">
        <ele>684</ele>
        <time>2010-01-01T06:42:00Z</time>
      </trkpt>
      <trkpt lat="42.17" lon="2.603">
        <ele>684</ele>
        <time>2010-01-01T06:42:02Z</time>
      </trkpt>
      <trkpt lat="42.17003" lon="2.60298">
        <ele>685</ele>
        <time>2010-01-01T06:42:03Z</time>
      </trkpt>
      <trkpt lat="42.17008" lon="2.60302">
        <ele>684</ele>
        <time>2010-01-01T06:42:05Z</time>
      </trkpt>
      <trkpt lat="42.17012" lon="2.60304">
        <ele>684</ele>
        <time>2010-01-01T06:42:07Z</time>
      </trkpt>
      <trkpt lat="42.17031" lon="2.60305">
        <ele>683</ele>
        <time>2010-01-01T06:42:14Z</time>
      </trkpt>
      <trkpt lat="42.17035" lon="2.60302">
        <ele>683</ele>
        <time>2010-01-01T06:42:16Z</time>
      </trkpt>
      <trkpt lat="42.17054" lon="2.60298">
        <ele>682</ele>
        <time>2010-01-01T06:42:24Z</time>
      </trkpt>
      <trkpt lat="42.17053" lon="2.6029">
        <ele>682</ele>
        <time>2010-01-01T06:42:26Z</time>
      </trkpt>
      <trkpt lat="42.17051" lon="2.60281">
        <ele>684</ele>
        <time>2010-01-01T06:42:29Z</time>
      </trkpt>
      <trkpt lat="42.17043" lon="2.6027">
        <ele>685</ele>
        <time>2010-01-01T06:42:34Z</time>
      </trkpt>
      <trkpt lat="42.17032" lon="2.60261">
        <ele>688</ele>
        <time>2010-01-01T06:42:39Z</time>
      </trkpt>
      <trkpt lat="42.17029" lon="2.60254">
        <ele>690</ele>
        <time>2010-01-01T06:42:41Z</time>
      </trkpt>
      <trkpt lat="42.17025" lon="2.60235">
        <ele>692</ele>
        <time>2010-01-01T06:42:47Z</time>
      </trkpt>
      <trkpt lat="42.17023" lon="2.60233">
        <ele>693</ele>
        <time>2010-01-01T06:42:48Z</time>
      </trkpt>
      <trkpt lat="42.17024" lon="2.60217">
        <ele>695</ele>
        <time>2010-01-01T06:42:53Z</time>
      </trkpt>
      <trkpt lat="42.17026" lon="2.60195">
        <ele>698</ele>
        <time>2010-01-01T06:42:59Z</time>
      </trkpt>
      <trkpt lat="42.17024" lon="2.60188">
        <ele>700</ele>
        <time>2010-01-01T06:43:02Z</time>
      </trkpt>
      <trkpt lat="42.17023" lon="2.60186">
        <ele>700</ele>
        <time>2010-01-01T06:43:02Z</time>
      </trkpt>
      <trkpt lat="42.17028" lon="2.60173">
        <ele>701</ele>
        <time>2010-01-01T06:43:07Z</time>
      </trkpt>
      <trkpt lat="42.17032" lon="2.6016">
        <ele>703</ele>
        <time>2010-01-01T06:43:11Z</time>
      </trkpt>
      <trkpt lat="42.17036" lon="2.60143">
        <ele>705</ele>
        <time>2010-01-01T06:43:16Z</time>
      </trkpt>
      <trkpt lat="42.17042" lon="2.6013">
        <ele>706</ele>
        <time>2010-01-01T06:43:20Z</time>
      </trkpt>
      <trkpt lat="42.1705" lon="2.60123">
        <ele>705</ele>
        <time>2010-01-01T06:43:24Z</time>
      </trkpt>
      <trkpt lat="42.17056" lon="2.60113">
        <ele>705</ele>
        <time>2010-01-01T06:43:28Z</time>
      </trkpt>
      <trkpt lat="42.17059" lon="2.60104">
        <ele>705</ele>
        <time>2010-01-01T06:43:31Z</time>
      </trkpt>
      <trkpt lat="42.17058" lon="2.60089">
        <ele>708</ele>
        <time>2010-01-01T06:43:36Z</time>
      </trkpt>
      <trkpt lat="42.17059" lon="2.60088">
        <ele>708</ele>
        <time>2010-01-01T06:43:36Z</time>
      </trkpt>
      <trkpt lat="42.17046" lon="2.60071">
        <ele>715</ele>
        <time>2010-01-01T06:43:43Z</time>
      </trkpt>
      <trkpt lat="42.17045" lon="2.6007">
        <ele>715</ele>
        <time>2010-01-01T06:43:44Z</time>
      </trkpt>
      <trkpt lat="42.17039" lon="2.6006">
        <ele>719</ele>
        <time>2010-01-01T06:43:48Z</time>
      </trkpt>
      <trkpt lat="42.17027" lon="2.60041">
        <ele>725</ele>
        <time>2010-01-01T06:43:55Z</time>
      </trkpt>
      <trkpt lat="42.17025" lon="2.60035">
        <ele>727</ele>
        <time>2010-01-01T06:43:57Z</time>
      </trkpt>
      <trkpt lat="42.17026" lon="2.60019">
        <ele>728</ele>
        <time>2010-01-01T06:44:02Z</time>
      </trkpt>
      <trkpt lat="42.17027" lon="2.59998">
        <ele>730</ele>
        <time>2010-01-01T06:44:08Z</time>
      </trkpt>
      <trkpt lat="42.1703" lon="2.59996">
        <ele>730</ele>
        <time>2010-01-01T06:44:09Z</time>
      </trkpt>
      <trkpt lat="42.17036" lon="2.59989">
        <ele>729</ele>
        <time>2010-01-01T06:44:12Z</time>
      </trkpt>
      <trkpt lat="42.17051" lon="2.59978">
        <ele>727</ele>
        <time>2010-01-01T06:44:19Z</time>
      </trkpt>
      <trkpt lat="42.17053" lon="2.59975">
        <ele>727</ele>
        <time>2010-01-01T06:44:20Z</time>
      </trkpt>
      <trkpt lat="42.17063" lon="2.59966">
        <ele>725</ele>
        <time>2010-01-01T06:44:25Z</time>
      </trkpt>
      <trkpt lat="42.17069" lon="2.59958">
        <ele>725</ele>
        <time>2010-01-01T06:44:29Z</time>
      </trkpt>
      <trkpt lat="42.17081" lon="2.59935">
        <ele>724</ele>
        <time>2010-01-01T06:44:37Z</time>
      </trkpt>
      <trkpt lat="42.17082" lon="2.5993">
        <ele>725</ele>
        <time>2010-01-01T06:44:38Z</time>
      </trkpt>
      <trkpt lat="42.1708" lon="2.59918">
        <ele>727</ele>
        <time>2010-01-01T06:44:42Z</time>
      </trkpt>
      <trkpt lat="42.1708" lon="2.59912">
        <ele>727</ele>
        <time>2010-01-01T06:44:44Z</time>
      </trkpt>
      <trkpt lat="42.17084" lon="2.59906">
        <ele>725</ele>
        <time>2010-01-01T06:44:46Z</time>
      </trkpt>
      <trkpt lat="42.17089" lon="2.59891">
        <ele>723</ele>
        <time>2010-01-01T06:44:51Z</time>
      </trkpt>
      <trkpt lat="42.17089" lon="2.59889">
        <ele>723</ele>
        <time>2010-01-01T06:44:52Z</time>
      </trkpt>
      <trkpt lat="42.17082" lon="2.59873">
        <ele>726</ele>
        <time>2010-01-01T06:44:57Z</time>
      </trkpt>
      <trkpt lat="42.17076" lon="2.5986">
        <ele>729</ele>
        <time>2010-01-01T06:45:02Z</time>
      </trkpt>
      <trkpt lat="42.17074" lon="2.59854">
        <ele>731</ele>
        <time>2010-01-01T06:45:04Z</time>
      </trkpt>
      <trkpt lat="42.17068" lon="2.59848">
        <ele>734</ele>
        <time>2010-01-01T06:45:07Z</time>
      </trkpt>
      <trkpt lat="42.17067" lon="2.59846">
        <ele>734</ele>
        <time>2010-01-01T06:45:08Z</time>
      </trkpt>
      <trkpt lat="42.17057" lon="2.59829">
        <ele>739</ele>
        <time>2010-01-01T06:45:14Z</time>
      </trkpt>
      <trkpt lat="42.17059" lon="2.59823">
        <ele>738</ele>
        <time>2010-01-01T06:45:16Z</time>
      </trkpt>
      <trkpt lat="42.1705" lon="2.59808">
        <ele>741</ele>
        <time>2010-01-01T06:45:22Z</time>
      </trkpt>
      <trkpt lat="42.1705" lon="2.59807">
        <ele>741</ele>
        <time>2010-01-01T06:45:22Z</time>
      </trkpt>
      <trkpt lat="42.17046" lon="2.59794">
        <ele>742</ele>
        <time>2010-01-01T06:45:26Z</time>
      </trkpt>
      <trkpt lat="42.17045" lon="2.59791">
        <ele>742</ele>
        <time>2010-01-01T06:45:27Z</time>
      </trkpt>
      <trkpt lat="42.17044" lon="2.59785">
        <ele>742</ele>
        <time>2010-01-01T06:45:29Z</time>
      </trkpt>
      <trkpt lat="42.17041" lon="2.59767">
        <ele>744</ele>
        <time>2010-01-01T06:45:34Z</time>
      </trkpt>
      <trkpt lat="42.17041" lon="2.59754">
        <ele>746</ele>
        <time>2010-01-01T06:45:38Z</time>
      </trkpt>
      <trkpt lat="42.1704" lon="2.59748">
        <ele>747</ele>
        <time>2010-01-01T06:45:40Z</time>
      </trkpt>
      <trkpt lat="42.17044" lon="2.59733">
        <ele>749</ele>
        <time>2010-01-01T06:45:45Z</time>
      </trkpt>
      <trkpt lat="42.17048" lon="2.59728">
        <ele>749</ele>
        <time>2010-01-01T06:45:47Z</time>
      </trkpt>
      <trkpt lat="42.17053" lon="2.59711">
        <ele>752</ele>
        <time>2010-01-01T06:45:52Z</time>
      </trkpt>
      <trkpt lat="42.17061" lon="2.59707">
        <ele>750</ele>
        <time>2010-01-01T06:45:56Z</time>
      </trkpt>
      <trkpt lat="42.17062" lon="2.59685">
        <ele>753</ele>
        <time>2010-01-01T06:46:02Z</time>
      </trkpt>
      <trkpt lat="42.17065" lon="2.59677">
        <ele>753</ele>
        <time>2010-01-01T06:46:05Z</time>
      </trkpt>
      <trkpt lat="42.1707" lon="2.59665">
        <ele>754</ele>
        <time>2010-01-01T06:46:09Z</time>
      </trkpt>
      <trkpt lat="42.17076" lon="2.59644">
        <ele>755</ele>
        <time>2010-01-01T06:46:15Z</time>
      </trkpt>
      <trkpt lat="42.17077" lon="2.59639">
        <ele>755</ele>
        <time>2010-01-01T06:46:17Z</time>
      </trkpt>
      <trkpt lat="42.17079" lon="2.59614">
        <ele>758</ele>
        <time>2010-01-01T06:46:25Z</time>
      </trkpt>
      <trkpt lat="42.17079" lon="2.59599">
        <ele>759</ele>
        <time>2010-01-01T06:46:29Z</time>
      </trkpt>
      <trkpt lat="42.17078" lon="2.59585">
        <ele>760</ele>
        <time>2010-01-01T06:46:33Z</time>
      </trkpt>
      <trkpt lat="42.17084" lon="2.59569">
        <ele>758</ele>
        <time>2010-01-01T06:46:38Z</time>
      </trkpt>
      <trkpt lat="42.17085" lon="2.59563">
        <ele>758</ele>
        <time>2010-01-01T06:46:40Z</time>
      </trkpt>
      <trkpt lat="42.17082" lon="2.59558">
        <ele>759</ele>
        <time>2010-01-01T06:46:42Z</time>
      </trkpt>
      <trkpt lat="42.17081" lon="2.59555">
        <ele>759</ele>
        <time>2010-01-01T06:46:43Z</time>
      </trkpt>
      <trkpt lat="42.17079" lon="2.59549">
        <ele>759</ele>
        <time>2010-01-01T06:46:45Z</time>
      </trkpt>
      <trkpt lat="42.17075" lon="2.59529">
        <ele>758</ele>
        <time>2010-01-01T06:46:51Z</time>
      </trkpt>
      <trkpt lat="42.17078" lon="2.59514">
        <ele>759</ele>
        <time>2010-01-01T06:46:56Z</time>
      </trkpt>
      <trkpt lat="42.17077" lon="2.59488">
        <ele>759</ele>
        <time>2010-01-01T06:47:04Z</time>
      </trkpt>
      <trkpt lat="42.17076" lon="2.59479">
        <ele>758</ele>
        <time>2010-01-01T06:47:06Z</time>
      </trkpt>
      <trkpt lat="42.17071" lon="2.59462">
        <ele>758</ele>
        <time>2010-01-01T06:47:12Z</time>
      </trkpt>
      <trkpt lat="42.1707" lon="2.59458">
        <ele>757</ele>
        <time>2010-01-01T06:47:13Z</time>
      </trkpt>
      <trkpt lat="42.17069" lon="2.59444">
        <ele>758</ele>
        <time>2010-01-01T06:47:17Z</time>
      </trkpt>
      <trkpt lat="42.17073" lon="2.59437">
        <ele>759</ele>
        <time>2010-01-01T06:47:20Z</time>
      </trkpt>
      <trkpt lat="42.17077" lon="2.59427">
        <ele>761</ele>
        <time>2010-01-01T06:47:23Z</time>
      </trkpt>
      <trkpt lat="42.17079" lon="2.59423">
        <ele>761</ele>
        <time>2010-01-01T06:47:25Z</time>
      </trkpt>
      <trkpt lat="42.17087" lon="2.5941">
        <ele>762</ele>
        <time>2010-01-01T06:47:30Z</time>
      </trkpt>
      <trkpt lat="42.17097" lon="2.5939">
        <ele>760</ele>
        <time>2010-01-01T06:47:37Z</time>
      </trkpt>
      <trkpt lat="42.17099" lon="2.59374">
        <ele>760</ele>
        <time>2010-01-01T06:47:42Z</time>
      </trkpt>
      <trkpt lat="42.17104" lon="2.59357">
        <ele>760</ele>
        <time>2010-01-01T06:47:47Z</time>
      </trkpt>
      <trkpt lat="42.17106" lon="2.59337">
        <ele>759</ele>
        <time>2010-01-01T06:47:53Z</time>
      </trkpt>
      <trkpt lat="42.17102" lon="2.59313">
        <ele>761</ele>
        <time>2010-01-01T06:48:00Z</time>
      </trkpt>
      <trkpt lat="42.17105" lon="2.59299">
        <ele>760</ele>
        <time>2010-01-01T06:48:05Z</time>
      </trkpt>
      <trkpt lat="42.17106" lon="2.59293">
        <ele>760</ele>
        <time>2010-01-01T06:48:06Z</time>
      </trkpt>
      <trkpt lat="42.17103" lon="2.59269">
        <ele>759</ele>
        <time>2010-01-01T06:48:14Z</time>
      </trkpt>
      <trkpt lat="42.17107" lon="2.59254">
        <ele>759</ele>
        <time>2010-01-01T06:48:19Z</time>
      </trkpt>
      <trkpt lat="42.17112" lon="2.59236">
        <ele>759</ele>
        <time>2010-01-01T06:48:24Z</time>
      </trkpt>
      <trkpt lat="42.17112" lon="2.5922">
        <ele>758</ele>
        <time>2010-01-01T06:48:29Z</time>
      </trkpt>
      <trkpt lat="42.17106" lon="2.59196">
        <ele>757</ele>
        <time>2010-01-01T06:48:36Z</time>
      </trkpt>
      <trkpt lat="42.17105" lon="2.59183">
        <ele>756</ele>
        <time>2010-01-01T06:48:40Z</time>
      </trkpt>
      <trkpt lat="42.17103" lon="2.59167">
        <ele>756</ele>
        <time>2010-01-01T06:48:45Z</time>
      </trkpt>
      <trkpt lat="42.17104" lon="2.59154">
        <ele>754</ele>
        <time>2010-01-01T06:48:49Z</time>
      </trkpt>
      <trkpt lat="42.17102" lon="2.59127">
        <ele>751</ele>
        <time>2010-01-01T06:48:57Z</time>
      </trkpt>
      <trkpt lat="42.17103" lon="2.59112">
        <ele>750</ele>
        <time>2010-01-01T06:49:01Z</time>
      </trkpt>
      <trkpt lat="42.17106" lon="2.59091">
        <ele>751</ele>
        <time>2010-01-01T06:49:08Z</time>
      </trkpt>
      <trkpt lat="42.17109" lon="2.5907">
        <ele>752</ele>
        <time>2010-01-01T06:49:14Z</time>
      </trkpt>
      <trkpt lat="42.17102" lon="2.5904">
        <ele>748</ele>
        <time>2010-01-01T06:49:23Z</time>
      </trkpt>
      <trkpt lat="42.17107" lon="2.59021">
        <ele>749</ele>
        <time>2010-01-01T06:49:29Z</time>
      </trkpt>
      <trkpt lat="42.1711" lon="2.59002">
        <ele>748</ele>
        <time>2010-01-01T06:49:35Z</time>
      </trkpt>
      <trkpt lat="42.17115" lon="2.58982">
        <ele>748</ele>
        <time>2010-01-01T06:49:41Z</time>
      </trkpt>
      <trkpt lat="42.17117" lon="2.58974">
        <ele>748</ele>
        <time>2010-01-01T06:49:44Z</time>
      </trkpt>
      <trkpt lat="42.17118" lon="2.58949">
        <ele>748</ele>
        <time>2010-01-01T06:49:51Z</time>
      </trkpt>
      <trkpt lat="42.17116" lon="2.58929">
        <ele>748</ele>
        <time>2010-01-01T06:49:57Z</time>
      </trkpt>
      <trkpt lat="42.17111" lon="2.58922">
        <ele>747</ele>
        <time>2010-01-01T06:50:00Z</time>
      </trkpt>
      <trkpt lat="42.17115" lon="2.58911">
        <ele>748</ele>
        <time>2010-01-01T06:50:04Z</time>
      </trkpt>
      <trkpt lat="42.17113" lon="2.58899">
        <ele>749</ele>
        <time>2010-01-01T06:50:07Z</time>
      </trkpt>
      <trkpt lat="42.17111" lon="2.58896">
        <ele>749</ele>
        <time>2010-01-01T06:50:09Z</time>
      </trkpt>
      <trkpt lat="42.17111" lon="2.5889">
        <ele>749</ele>
        <time>2010-01-01T06:50:10Z</time>
      </trkpt>
      <trkpt lat="42.17114" lon="2.58881">
        <ele>750</ele>
        <time>2010-01-01T06:50:13Z</time>
      </trkpt>
      <trkpt lat="42.1711" lon="2.58875">
        <ele>751</ele>
        <time>2010-01-01T06:50:16Z</time>
      </trkpt>
      <trkpt lat="42.17104" lon="2.58864">
        <ele>751</ele>
        <time>2010-01-01T06:50:20Z</time>
      </trkpt>
      <trkpt lat="42.17103" lon="2.58862">
        <ele>751</ele>
        <time>2010-01-01T06:50:21Z</time>
      </trkpt>
      <trkpt lat="42.17099" lon="2.58859">
        <ele>751</ele>
        <time>2010-01-01T06:50:22Z</time>
      </trkpt>
      <trkpt lat="42.17099" lon="2.58859">
        <ele>751</ele>
        <time>2010-01-01T06:50:22Z</time>
      </trkpt>
      <trkpt lat="42.17095" lon="2.58856">
        <ele>751</ele>
        <time>2010-01-01T06:50:24Z</time>
      </trkpt>
      <trkpt lat="42.1709" lon="2.58853">
        <ele>751</ele>
        <time>2010-01-01T06:50:26Z</time>
      </trkpt>
      <trkpt lat="42.17099" lon="2.58856">
        <ele>751</ele>
        <time>2010-01-01T06:50:30Z</time>
      </trkpt>
      <trkpt lat="42.17106" lon="2.58857">
        <ele>752</ele>
        <time>2010-01-01T06:50:33Z</time>
      </trkpt>
      <trkpt lat="42.17107" lon="2.58849">
        <ele>754</ele>
        <time>2010-01-01T06:50:35Z</time>
      </trkpt>
      <trkpt lat="42.17111" lon="2.58837">
        <ele>757</ele>
        <time>2010-01-01T06:50:39Z</time>
      </trkpt>
      <trkpt lat="42.17113" lon="2.5882">
        <ele>761</ele>
        <time>2010-01-01T06:50:44Z</time>
      </trkpt>
      <trkpt lat="42.17117" lon="2.5881">
        <ele>763</ele>
        <time>2010-01-01T06:50:48Z</time>
      </trkpt>
      <trkpt lat="42.17129" lon="2.58806">
        <ele>762</ele>
        <time>2010-01-01T06:50:53Z</time>
      </trkpt>
      <trkpt lat="42.17137" lon="2.58798">
        <ele>764</ele>
        <time>2010-01-01T06:50:56Z</time>
      </trkpt>
      <trkpt lat="42.17144" lon="2.58791">
        <ele>763</ele>
        <time>2010-01-01T06:51:00Z</time>
      </trkpt>
      <trkpt lat="42.17146" lon="2.58788">
        <ele>763</ele>
        <time>2010-01-01T06:51:01Z</time>
      </trkpt>
      <trkpt lat="42.1715" lon="2.58771">
        <ele>764</ele>
        <time>2010-01-01T06:51:06Z</time>
      </trkpt>
      <trkpt lat="42.17152" lon="2.58762">
        <ele>765</ele>
        <time>2010-01-01T06:51:09Z</time>
      </trkpt>
      <trkpt lat="42.17151" lon="2.58754">
        <ele>766</ele>
        <time>2010-01-01T06:51:12Z</time>
      </trkpt>
      <trkpt lat="42.17152" lon="2.58749">
        <ele>767</ele>
        <time>2010-01-01T06:51:13Z</time>
      </trkpt>
      <trkpt lat="42.17147" lon="2.58733">
        <ele>773</ele>
        <time>2010-01-01T06:51:18Z</time>
      </trkpt>
      <trkpt lat="42.17157" lon="2.58717">
        <ele>769</ele>
        <time>2010-01-01T06:51:24Z</time>
      </trkpt>
      <trkpt lat="42.17157" lon="2.58714">
        <ele>769</ele>
        <time>2010-01-01T06:51:25Z</time>
      </trkpt>
      <trkpt lat="42.17159" lon="2.58701">
        <ele>769</ele>
        <time>2010-01-01T06:51:29Z</time>
      </trkpt>
      <trkpt lat="42.17155" lon="2.58687">
        <ele>773</ele>
        <time>2010-01-01T06:51:34Z</time>
      </trkpt>
      <trkpt lat="42.17149" lon="2.58678">
        <ele>777</ele>
        <time>2010-01-01T06:51:37Z</time>
      </trkpt>
      <trkpt lat="42.17147" lon="2.58666">
        <ele>779</ele>
        <time>2010-01-01T06:51:41Z</time>
      </trkpt>
      <trkpt lat="42.17154" lon="2.58653">
        <ele>774</ele>
        <time>2010-01-01T06:51:46Z</time>
      </trkpt>
      <trkpt lat="42.17147" lon="2.58639">
        <ele>779</ele>
        <time>2010-01-01T06:51:51Z</time>
      </trkpt>
      <trkpt lat="42.17145" lon="2.58627">
        <ele>782</ele>
        <time>2010-01-01T06:51:54Z</time>
      </trkpt>
      <trkpt lat="42.17147" lon="2.58613">
        <ele>782</ele>
        <time>2010-01-01T06:51:58Z</time>
      </trkpt>
      <trkpt lat="42.17154" lon="2.58606">
        <ele>781</ele>
        <time>2010-01-01T06:52:02Z</time>
      </trkpt>
      <trkpt lat="42.17165" lon="2.58596">
        <ele>779</ele>
        <time>2010-01-01T06:52:07Z</time>
      </trkpt>
      <trkpt lat="42.17168" lon="2.58592">
        <ele>780</ele>
        <time>2010-01-01T06:52:09Z</time>
      </trkpt>
      <trkpt lat="42.17178" lon="2.58582">
        <ele>779</ele>
        <time>2010-01-01T06:52:14Z</time>
      </trkpt>
      <trkpt lat="42.1718" lon="2.5858">
        <ele>778</ele>
        <time>2010-01-01T06:52:15Z</time>
      </trkpt>
      <trkpt lat="42.17196" lon="2.58567">
        <ele>773</ele>
        <time>2010-01-01T06:52:23Z</time>
      </trkpt>
      <trkpt lat="42.17196" lon="2.58554">
        <ele>776</ele>
        <time>2010-01-01T06:52:26Z</time>
      </trkpt>
      <trkpt lat="42.17196" lon="2.58549">
        <ele>776</ele>
        <time>2010-01-01T06:52:28Z</time>
      </trkpt>
      <trkpt lat="42.17195" lon="2.58537">
        <ele>778</ele>
        <time>2010-01-01T06:52:31Z</time>
      </trkpt>
      <trkpt lat="42.17201" lon="2.58522">
        <ele>776</ele>
        <time>2010-01-01T06:52:36Z</time>
      </trkpt>
      <trkpt lat="42.17192" lon="2.58513">
        <ele>782</ele>
        <time>2010-01-01T06:52:41Z</time>
      </trkpt>
      <trkpt lat="42.17184" lon="2.58496">
        <ele>789</ele>
        <time>2010-01-01T06:52:47Z</time>
      </trkpt>
      <trkpt lat="42.17183" lon="2.58484">
        <ele>790</ele>
        <time>2010-01-01T06:52:50Z</time>
      </trkpt>
      <trkpt lat="42.1718" lon="2.58471">
        <ele>793</ele>
        <time>2010-01-01T06:52:55Z</time>
      </trkpt>
      <trkpt lat="42.17172" lon="2.58463">
        <ele>798</ele>
        <time>2010-01-01T06:52:59Z</time>
      </trkpt>
      <trkpt lat="42.17171" lon="2.58452">
        <ele>800</ele>
        <time>2010-01-01T06:53:02Z</time>
      </trkpt>
      <trkpt lat="42.1717" lon="2.58436">
        <ele>801</ele>
        <time>2010-01-01T06:53:07Z</time>
      </trkpt>
      <trkpt lat="42.17168" lon="2.5843">
        <ele>802</ele>
        <time>2010-01-01T06:53:09Z</time>
      </trkpt>
      <trkpt lat="42.17164" lon="2.58415">
        <ele>804</ele>
        <time>2010-01-01T06:53:13Z</time>
      </trkpt>
      <trkpt lat="42.17161" lon="2.58403">
        <ele>805</ele>
        <time>2010-01-01T06:53:17Z</time>
      </trkpt>
      <trkpt lat="42.17165" lon="2.58392">
        <ele>801</ele>
        <time>2010-01-01T06:53:21Z</time>
      </trkpt>
      <trkpt lat="42.17168" lon="2.5838">
        <ele>800</ele>
        <time>2010-01-01T06:53:25Z</time>
      </trkpt>
      <trkpt lat="42.17167" lon="2.58362">
        <ele>803</ele>
        <time>2010-01-01T06:53:30Z</time>
      </trkpt>
      <trkpt lat="42.17168" lon="2.5835">
        <ele>805</ele>
        <time>2010-01-01T06:53:33Z</time>
      </trkpt>
      <trkpt lat="42.17168" lon="2.58338">
        <ele>807</ele>
        <time>2010-01-01T06:53:37Z</time>
      </trkpt>
      <trkpt lat="42.17165" lon="2.58328">
        <ele>811</ele>
        <time>2010-01-01T06:53:40Z</time>
      </trkpt>
      <trkpt lat="42.17161" lon="2.58313">
        <ele>816</ele>
        <time>2010-01-01T06:53:45Z</time>
      </trkpt>
      <trkpt lat="42.17159" lon="2.58304">
        <ele>818</ele>
        <time>2010-01-01T06:53:48Z</time>
      </trkpt>
      <trkpt lat="42.17157" lon="2.5829">
        <ele>820</ele>
        <time>2010-01-01T06:53:52Z</time>
      </trkpt>
      <trkpt lat="42.17158" lon="2.58287">
        <ele>819</ele>
        <time>2010-01-01T06:53:53Z</time>
      </trkpt>
      <trkpt lat="42.17154" lon="2.58276">
        <ele>823</ele>
        <time>2010-01-01T06:53:57Z</time>
      </trkpt>
      <trkpt lat="42.17151" lon="2.58268">
        <ele>824</ele>
        <time>2010-01-01T06:53:59Z</time>
      </trkpt>
      <trkpt lat="42.17148" lon="2.58252">
        <ele>825</ele>
        <time>2010-01-01T06:54:04Z</time>
      </trkpt>
      <trkpt lat="42.17144" lon="2.58238">
        <ele>828</ele>
        <time>2010-01-01T06:54:09Z</time>
      </trkpt>
      <trkpt lat="42.17144" lon="2.58235">
        <ele>828</ele>
        <time>2010-01-01T06:54:10Z</time>
      </trkpt>
      <trkpt lat="42.1714" lon="2.58214">
        <ele>829</ele>
        <time>2010-01-01T06:54:16Z</time>
      </trkpt>
      <trkpt lat="42.1713" lon="2.58192">
        <ele>830</ele>
        <time>2010-01-01T06:54:24Z</time>
      </trkpt>
      <trkpt lat="42.17119" lon="2.58169">
        <ele>831</ele>
        <time>2010-01-01T06:54:32Z</time>
      </trkpt>
      <trkpt lat="42.1711" lon="2.58159">
        <ele>832</ele>
        <time>2010-01-01T06:54:37Z</time>
      </trkpt>
      <trkpt lat="42.17097" lon="2.58156">
        <ele>833</ele>
        <time>2010-01-01T06:54:42Z</time>
      </trkpt>
      <trkpt lat="42.17078" lon="2.58149">
        <ele>835</ele>
        <time>2010-01-01T06:54:50Z</time>
      </trkpt>
      <trkpt lat="42.17071" lon="2.58146">
        <ele>835</ele>
        <time>2010-01-01T06:54:53Z</time>
      </trkpt>
      <trkpt lat="42.1706" lon="2.58143">
        <ele>836</ele>
        <time>2010-01-01T06:54:57Z</time>
      </trkpt>
      <trkpt lat="42.17053" lon="2.58141">
        <ele>837</ele>
        <time>2010-01-01T06:55:00Z</time>
      </trkpt>
      <trkpt lat="42.17052" lon="2.5814">
        <ele>837</ele>
        <time>2010-01-01T06:55:01Z</time>
      </trkpt>
      <trkpt lat="42.17043" lon="2.58138">
        <ele>839</ele>
        <time>2010-01-01T06:55:04Z</time>
      </trkpt>
      <trkpt lat="42.17035" lon="2.58141">
        <ele>840</ele>
        <time>2010-01-01T06:55:08Z</time>
      </trkpt>
      <trkpt lat="42.17024" lon="2.58148">
        <ele>843</ele>
        <time>2010-01-01T06:55:12Z</time>
      </trkpt>
      <trkpt lat="42.17012" lon="2.58149">
        <ele>844</ele>
        <time>2010-01-01T06:55:17Z</time>
      </trkpt>
      <trkpt lat="42.16998" lon="2.58148">
        <ele>845</ele>
        <time>2010-01-01T06:55:23Z</time>
      </trkpt>
      <trkpt lat="42.16998" lon="2.58142">
        <ele>845</ele>
        <time>2010-01-01T06:55:25Z</time>
      </trkpt>
      <trkpt lat="42.16995" lon="2.58135">
        <ele>845</ele>
        <time>2010-01-01T06:55:27Z</time>
      </trkpt>
      <trkpt lat="42.16983" lon="2.58119">
        <ele>846</ele>
        <time>2010-01-01T06:55:34Z</time>
      </trkpt>
      <trkpt lat="42.16979" lon="2.58113">
        <ele>846</ele>
        <time>2010-01-01T06:55:36Z</time>
      </trkpt>
      <trkpt lat="42.16969" lon="2.58099">
        <ele>848</ele>
        <time>2010-01-01T06:55:42Z</time>
      </trkpt>
      <trkpt lat="42.16972" lon="2.58091">
        <ele>850</ele>
        <time>2010-01-01T06:55:44Z</time>
      </trkpt>
      <trkpt lat="42.16972" lon="2.58088">
        <ele>851</ele>
        <time>2010-01-01T06:55:45Z</time>
      </trkpt>
      <trkpt lat="42.16981" lon="2.58072">
        <ele>853</ele>
        <time>2010-01-01T06:55:51Z</time>
      </trkpt>
      <trkpt lat="42.16987" lon="2.58055">
        <ele>856</ele>
        <time>2010-01-01T06:55:57Z</time>
      </trkpt>
      <trkpt lat="42.16988" lon="2.58049">
        <ele>857</ele>
        <time>2010-01-01T06:55:59Z</time>
      </trkpt>
      <trkpt lat="42.16987" lon="2.58047">
        <ele>857</ele>
        <time>2010-01-01T06:56:00Z</time>
      </trkpt>
      <trkpt lat="42.16989" lon="2.58021">
        <ele>861</ele>
        <time>2010-01-01T06:56:07Z</time>
      </trkpt>
      <trkpt lat="42.16987" lon="2.58017">
        <ele>862</ele>
        <time>2010-01-01T06:56:09Z</time>
      </trkpt>
      <trkpt lat="42.16989" lon="2.5801">
        <ele>862</ele>
        <time>2010-01-01T06:56:11Z</time>
      </trkpt>
      <trkpt lat="42.1699" lon="2.58005">
        <ele>862</ele>
        <time>2010-01-01T06:56:13Z</time>
      </trkpt>
      <trkpt lat="42.16989" lon="2.57982">
        <ele>866</ele>
        <time>2010-01-01T06:56:19Z</time>
      </trkpt>
      <trkpt lat="42.16994" lon="2.57965">
        <ele>867</ele>
        <time>2010-01-01T06:56:25Z</time>
      </trkpt>
      <trkpt lat="42.16995" lon="2.57945">
        <ele>870</ele>
        <time>2010-01-01T06:56:31Z</time>
      </trkpt>
      <trkpt lat="42.16993" lon="2.57936">
        <ele>871</ele>
        <time>2010-01-01T06:56:33Z</time>
      </trkpt>
      <trkpt lat="42.16997" lon="2.57927">
        <ele>871</ele>
        <time>2010-01-01T06:56:36Z</time>
      </trkpt>
      <trkpt lat="42.17002" lon="2.5791">
        <ele>872</ele>
        <time>2010-01-01T06:56:42Z</time>
      </trkpt>
      <trkpt lat="42.17008" lon="2.57903">
        <ele>874</ele>
        <time>2010-01-01T06:56:45Z</time>
      </trkpt>
      <trkpt lat="42.17019" lon="2.57899">
        <ele>875</ele>
        <time>2010-01-01T06:56:50Z</time>
      </trkpt>
      <trkpt lat="42.17026" lon="2.579">
        <ele>875</ele>
        <time>2010-01-01T06:56:52Z</time>
      </trkpt>
      <trkpt lat="42.17039" lon="2.57908">
        <ele>877</ele>
        <time>2010-01-01T06:56:58Z</time>
      </trkpt>
      <trkpt lat="42.17041" lon="2.57909">
        <ele>877</ele>
        <time>2010-01-01T06:56:59Z</time>
      </trkpt>
      <trkpt lat="42.17056" lon="2.57924">
        <ele>877</ele>
        <time>2010-01-01T06:57:06Z</time>
      </trkpt>
      <trkpt lat="42.17069" lon="2.57938">
        <ele>877</ele>
        <time>2010-01-01T06:57:13Z</time>
      </trkpt>
      <trkpt lat="42.17082" lon="2.57953">
        <ele>875</ele>
        <time>2010-01-01T06:57:20Z</time>
      </trkpt>
      <trkpt lat="42.17101" lon="2.57966">
        <ele>876</ele>
        <time>2010-01-01T06:57:28Z</time>
      </trkpt>
      <trkpt lat="42.17121" lon="2.57964">
        <ele>878</ele>
        <time>2010-01-01T06:57:36Z</time>
      </trkpt>
      <trkpt lat="42.17128" lon="2.57961">
        <ele>879</ele>
        <time>2010-01-01T06:57:39Z</time>
      </trkpt>
      <trkpt lat="42.17146" lon="2.57947">
        <ele>883</ele>
        <time>2010-01-01T06:57:48Z</time>
      </trkpt>
      <trkpt lat="42.17165" lon="2.57932">
        <ele>883</ele>
        <time>2010-01-01T06:57:56Z</time>
      </trkpt>
      <trkpt lat="42.17179" lon="2.57921">
        <ele>882</ele>
        <time>2010-01-01T06:58:03Z</time>
      </trkpt>
      <trkpt lat="42.17181" lon="2.57915">
        <ele>883</ele>
        <time>2010-01-01T06:58:05Z</time>
      </trkpt>
      <trkpt lat="42.17185" lon="2.57907">
        <ele>882</ele>
        <time>2010-01-01T06:58:08Z</time>
      </trkpt>
      <trkpt lat="42.17186" lon="2.57905">
        <ele>882</ele>
        <time>2010-01-01T06:58:09Z</time>
      </trkpt>
      <trkpt lat="42.1719" lon="2.57888">
        <ele>883</ele>
        <time>2010-01-01T06:58:14Z</time>
      </trkpt>
      <trkpt lat="42.17191" lon="2.57883">
        <ele>883</ele>
        <time>2010-01-01T06:58:15Z</time>
      </trkpt>
      <trkpt lat="42.17193" lon="2.57879">
        <ele>883</ele>
        <time>2010-01-01T06:58:17Z</time>
      </trkpt>
      <trkpt lat="42.17194" lon="2.57873">
        <ele>883</ele>
        <time>2010-01-01T06:58:19Z</time>
      </trkpt>
      <trkpt lat="42.17194" lon="2.5787">
        <ele>884</ele>
        <time>2010-01-01T06:58:20Z</time>
      </trkpt>
      <trkpt lat="42.17198" lon="2.57851">
        <ele>884</ele>
        <time>2010-01-01T06:58:25Z</time>
      </trkpt>
      <trkpt lat="42.17201" lon="2.57843">
        <ele>885</ele>
        <time>2010-01-01T06:58:28Z</time>
      </trkpt>
      <trkpt lat="42.1721" lon="2.57835">
        <ele>885</ele>
        <time>2010-01-01T06:58:32Z</time>
      </trkpt>
      <trkpt lat="42.17228" lon="2.57827">
        <ele>887</ele>
        <time>2010-01-01T06:58:40Z</time>
      </trkpt>
      <trkpt lat="42.17244" lon="2.57821">
        <ele>888</ele>
        <time>2010-01-01T06:58:47Z</time>
      </trkpt>
      <trkpt lat="42.1726" lon="2.57813">
        <ele>892</ele>
        <time>2010-01-01T06:58:54Z</time>
      </trkpt>
      <trkpt lat="42.17264" lon="2.57812">
        <ele>892</ele>
        <time>2010-01-01T06:58:55Z</time>
      </trkpt>
      <trkpt lat="42.17279" lon="2.57807">
        <ele>895</ele>
        <time>2010-01-01T06:59:01Z</time>
      </trkpt>
      <trkpt lat="42.17296" lon="2.57802">
        <ele>896</ele>
        <time>2010-01-01T06:59:08Z</time>
      </trkpt>
      <trkpt lat="42.17314" lon="2.57794">
        <ele>897</ele>
        <time>2010-01-01T06:59:16Z</time>
      </trkpt>
      <trkpt lat="42.17317" lon="2.57794">
        <ele>897</ele>
        <time>2010-01-01T06:59:17Z</time>
      </trkpt>
      <trkpt lat="42.17326" lon="2.57791">
        <ele>897</ele>
        <time>2010-01-01T06:59:21Z</time>
      </trkpt>
      <trkpt lat="42.17342" lon="2.57785">
        <ele>899</ele>
        <time>2010-01-01T06:59:27Z</time>
      </trkpt>
      <trkpt lat="42.17345" lon="2.57783">
        <ele>899</ele>
        <time>2010-01-01T06:59:28Z</time>
      </trkpt>
      <trkpt lat="42.17356" lon="2.57773">
        <ele>901</ele>
        <time>2010-01-01T06:59:34Z</time>
      </trkpt>
      <trkpt lat="42.1737" lon="2.57772">
        <ele>901</ele>
        <time>2010-01-01T06:59:39Z</time>
      </trkpt>
      <trkpt lat="42.17382" lon="2.57775">
        <ele>901</ele>
        <time>2010-01-01T06:59:44Z</time>
      </trkpt>
      <trkpt lat="42.17397" lon="2.57778">
        <ele>901</ele>
        <time>2010-01-01T06:59:50Z</time>
      </trkpt>
      <trkpt lat="42.17403" lon="2.57784">
        <ele>900</ele>
        <time>2010-01-01T06:59:53Z</time>
      </trkpt>
      <trkpt lat="42.17402" lon="2.57785">
        <ele>900</ele>
        <time>2010-01-01T06:59:54Z</time>
      </trkpt>
      <trkpt lat="42.17403" lon="2.5779">
        <ele>900</ele>
        <time>2010-01-01T06:59:55Z</time>
      </trkpt>
      <trkpt lat="42.17402" lon="2.57791">
        <ele>900</ele>
        <time>2010-01-01T06:59:56Z</time>
      </trkpt>
      <trkpt lat="42.17402" lon="2.5779">
        <ele>900</ele>
        <time>2010-01-01T06:59:56Z</time>
      </trkpt>
      <trkpt lat="42.17402" lon="2.5779">
        <ele>900</ele>
        <time>2010-01-01T06:59:56Z</time>
      </trkpt>
      <trkpt lat="42.17401" lon="2.5779">
        <ele>900</ele>
        <time>2010-01-01T06:59:56Z</time>
      </trkpt>
      <trkpt lat="42.17402" lon="2.57793">
        <ele>900</ele>
        <time>2010-01-01T06:59:57Z</time>
      </trkpt>
      <trkpt lat="42.17402" lon="2.57788">
        <ele>900</ele>
        <time>2010-01-01T06:59:58Z</time>
      </trkpt>
      <trkpt lat="42.17401" lon="2.57787">
        <ele>900</ele>
        <time>2010-01-01T06:59:59Z</time>
      </trkpt>
      <trkpt lat="42.17401" lon="2.57787">
        <ele>900</ele>
        <time>2010-01-01T06:59:59Z</time>
      </trkpt>
      <trkpt lat="42.17402" lon="2.57789">
        <ele>900</ele>
        <time>2010-01-01T06:59:59Z</time>
      </trkpt>
      <trkpt lat="42.17402" lon="2.57791">
        <ele>900</ele>
        <time>2010-01-01T07:00:00Z</time>
      </trkpt>
      <trkpt lat="42.17402" lon="2.57791">
        <ele>900</ele>
        <time>2010-01-01T07:00:00Z</time>
      </trkpt>
      <trkpt lat="42.17402" lon="2.5779">
        <ele>900</ele>
        <time>2010-01-01T07:00:00Z</time>
      </trkpt>
      <trkpt lat="42.17403" lon="2.57792">
        <ele>900</ele>
        <time>2010-01-01T07:00:01Z</time>
      </trkpt>
      <trkpt lat="42.17407" lon="2.57797">
        <ele>900</ele>
        <time>2010-01-01T07:00:03Z</time>
      </trkpt>
      <trkpt lat="42.17412" lon="2.57796">
        <ele>900</ele>
        <time>2010-01-01T07:00:05Z</time>
      </trkpt>
      <trkpt lat="42.17415" lon="2.57798">
        <ele>900</ele>
        <time>2010-01-01T07:00:07Z</time>
      </trkpt>
      <trkpt lat="42.17421" lon="2.57799">
        <ele>899</ele>
        <time>2010-01-01T07:00:09Z</time>
      </trkpt>
      <trkpt lat="42.17417" lon="2.578">
        <ele>900</ele>
        <time>2010-01-01T07:00:11Z</time>
      </trkpt>
      <trkpt lat="42.17416" lon="2.57795">
        <ele>900</ele>
        <time>2010-01-01T07:00:12Z</time>
      </trkpt>
      <trkpt lat="42.17414" lon="2.57793">
        <ele>900</ele>
        <time>2010-01-01T07:00:13Z</time>
      </trkpt>
      <trkpt lat="42.17412" lon="2.57787">
        <ele>900</ele>
        <time>2010-01-01T07:00:15Z</time>
      </trkpt>
      <trkpt lat="42.17417" lon="2.57781">
        <ele>900</ele>
        <time>2010-01-01T07:00:18Z</time>
      </trkpt>
      <trkpt lat="42.17425" lon="2.57776">
        <ele>896</ele>
        <time>2010-01-01T07:00:21Z</time>
      </trkpt>
      <trkpt lat="42.17436" lon="2.5778">
        <ele>893</ele>
        <time>2010-01-01T07:00:26Z</time>
      </trkpt>
      <trkpt lat="42.17438" lon="2.5778">
        <ele>892</ele>
        <time>2010-01-01T07:00:26Z</time>
      </trkpt>
      <trkpt lat="42.17446" lon="2.57786">
        <ele>890</ele>
        <time>2010-01-01T07:00:30Z</time>
      </trkpt>
      <trkpt lat="42.17456" lon="2.57787">
        <ele>888</ele>
        <time>2010-01-01T07:00:34Z</time>
      </trkpt>
      <trkpt lat="42.17459" lon="2.57789">
        <ele>887</ele>
        <time>2010-01-01T07:00:35Z</time>
      </trkpt>
      <trkpt lat="42.17468" lon="2.57787">
        <ele>885</ele>
        <time>2010-01-01T07:00:39Z</time>
      </trkpt>
      <trkpt lat="42.17479" lon="2.57781">
        <ele>883</ele>
        <time>2010-01-01T07:00:44Z</time>
      </trkpt>
      <trkpt lat="42.17489" lon="2.57772">
        <ele>881</ele>
        <time>2010-01-01T07:00:49Z</time>
      </trkpt>
      <trkpt lat="42.1749" lon="2.57772">
        <ele>881</ele>
        <time>2010-01-01T07:00:49Z</time>
      </trkpt>
      <trkpt lat="42.17491" lon="2.57772">
        <ele>881</ele>
        <time>2010-01-01T07:00:50Z</time>
      </trkpt>
      <trkpt lat="42.17492" lon="2.57772">
        <ele>881</ele>
        <time>2010-01-01T07:00:50Z</time>
      </trkpt>
      <trkpt lat="42.17493" lon="2.57772">
        <ele>880</ele>
        <time>2010-01-01T07:00:50Z</time>
      </trkpt>
      <trkpt lat="42.17498" lon="2.5777">
        <ele>880</ele>
        <time>2010-01-01T07:00:53Z</time>
      </trkpt>
      <trkpt lat="42.17497" lon="2.57763">
        <ele>881</ele>
        <time>2010-01-01T07:00:55Z</time>
      </trkpt>
      <trkpt lat="42.175" lon="2.57753">
        <ele>882</ele>
        <time>2010-01-01T07:00:58Z</time>
      </trkpt>
      <trkpt lat="42.17503" lon="2.57741">
        <ele>881</ele>
        <time>2010-01-01T07:01:02Z</time>
      </trkpt>
      <trkpt lat="42.17497" lon="2.57727">
        <ele>880</ele>
        <time>2010-01-01T07:01:06Z</time>
      </trkpt>
      <trkpt lat="42.17487" lon="2.57721">
        <ele>880</ele>
        <time>2010-01-01T07:01:11Z</time>
      </trkpt>
      <trkpt lat="42.17476" lon="2.57708">
        <ele>877</ele>
        <time>2010-01-01T07:01:17Z</time>
      </trkpt>
      <trkpt lat="42.17467" lon="2.577">
        <ele>876</ele>
        <time>2010-01-01T07:01:21Z</time>
      </trkpt>
      <trkpt lat="42.17452" lon="2.57693">
        <ele>873</ele>
        <time>2010-01-01T07:01:27Z</time>
      </trkpt>
      <trkpt lat="42.17441" lon="2.57681">
        <ele>870</ele>
        <time>2010-01-01T07:01:33Z</time>
      </trkpt>
      <trkpt lat="42.17433" lon="2.5767">
        <ele>868</ele>
        <time>2010-01-01T07:01:38Z</time>
      </trkpt>
      <trkpt lat="42.17423" lon="2.57665">
        <ele>867</ele>
        <time>2010-01-01T07:01:42Z</time>
      </trkpt>
      <trkpt lat="42.17412" lon="2.5766">
        <ele>866</ele>
        <time>2010-01-01T07:01:46Z</time>
      </trkpt>
      <trkpt lat="42.17405" lon="2.57655">
        <ele>866</ele>
        <time>2010-01-01T07:01:50Z</time>
      </trkpt>
      <trkpt lat="42.174" lon="2.57646">
        <ele>864</ele>
        <time>2010-01-01T07:01:53Z</time>
      </trkpt>
      <trkpt lat="42.17391" lon="2.57633">
        <ele>861</ele>
        <time>2010-01-01T07:01:58Z</time>
      </trkpt>
      <trkpt lat="42.17385" lon="2.57624">
        <ele>859</ele>
        <time>2010-01-01T07:02:02Z</time>
      </trkpt>
      <trkpt lat="42.17381" lon="2.57615">
        <ele>858</ele>
        <time>2010-01-01T07:02:05Z</time>
      </trkpt>
      <trkpt lat="42.17378" lon="2.57606">
        <ele>856</ele>
        <time>2010-01-01T07:02:08Z</time>
      </trkpt>
      <trkpt lat="42.17374" lon="2.57591">
        <ele>853</ele>
        <time>2010-01-01T07:02:13Z</time>
      </trkpt>
      <trkpt lat="42.17373" lon="2.57585">
        <ele>852</ele>
        <time>2010-01-01T07:02:14Z</time>
      </trkpt>
      <trkpt lat="42.17373" lon="2.57584">
        <ele>851</ele>
        <time>2010-01-01T07:02:15Z</time>
      </trkpt>
      <trkpt lat="42.17369" lon="2.57567">
        <ele>849</ele>
        <time>2010-01-01T07:02:20Z</time>
      </trkpt>
      <trkpt lat="42.17358" lon="2.5755">
        <ele>849</ele>
        <time>2010-01-01T07:02:27Z</time>
      </trkpt>
      <trkpt lat="42.17351" lon="2.57539">
        <ele>846</ele>
        <time>2010-01-01T07:02:31Z</time>
      </trkpt>
      <trkpt lat="42.17336" lon="2.57528">
        <ele>846</ele>
        <time>2010-01-01T07:02:38Z</time>
      </trkpt>
      <trkpt lat="42.17323" lon="2.57523">
        <ele>843</ele>
        <time>2010-01-01T07:02:44Z</time>
      </trkpt>
      <trkpt lat="42.1732" lon="2.57519">
        <ele>842</ele>
        <time>2010-01-01T07:02:45Z</time>
      </trkpt>
      <trkpt lat="42.17317" lon="2.57518">
        <ele>841</ele>
        <time>2010-01-01T07:02:46Z</time>
      </trkpt>
      <trkpt lat="42.17309" lon="2.57514">
        <ele>839</ele>
        <time>2010-01-01T07:02:49Z</time>
      </trkpt>
      <trkpt lat="42.17303" lon="2.57505">
        <ele>835</ele>
        <time>2010-01-01T07:02:53Z</time>
      </trkpt>
      <trkpt lat="42.173" lon="2.57499">
        <ele>833</ele>
        <time>2010-01-01T07:02:55Z</time>
      </trkpt>
      <trkpt lat="42.17302" lon="2.57485">
        <ele>830</ele>
        <time>2010-01-01T07:02:59Z</time>
      </trkpt>
      <trkpt lat="42.17308" lon="2.57476">
        <ele>828</ele>
        <time>2010-01-01T07:03:03Z</time>
      </trkpt>
      <trkpt lat="42.17307" lon="2.57459">
        <ele>824</ele>
        <time>2010-01-01T07:03:08Z</time>
      </trkpt>
      <trkpt lat="42.17302" lon="2.57451">
        <ele>821</ele>
        <time>2010-01-01T07:03:11Z</time>
      </trkpt>
      <trkpt lat="42.17298" lon="2.57442">
        <ele>818</ele>
        <time>2010-01-01T07:03:14Z</time>
      </trkpt>
      <trkpt lat="42.17296" lon="2.57437">
        <ele>816</ele>
        <time>2010-01-01T07:03:16Z</time>
      </trkpt>
      <trkpt lat="42.17291" lon="2.57436">
        <ele>815</ele>
        <time>2010-01-01T07:03:18Z</time>
      </trkpt>
      <trkpt lat="42.17282" lon="2.57443">
        <ele>814</ele>
        <time>2010-01-01T07:03:22Z</time>
      </trkpt>
      <trkpt lat="42.17272" lon="2.57452">
        <ele>815</ele>
        <time>2010-01-01T07:03:27Z</time>
      </trkpt>
      <trkpt lat="42.17265" lon="2.57455">
        <ele>814</ele>
        <time>2010-01-01T07:03:30Z</time>
      </trkpt>
      <trkpt lat="42.17256" lon="2.57466">
        <ele>816</ele>
        <time>2010-01-01T07:03:35Z</time>
      </trkpt>
      <trkpt lat="42.17256" lon="2.57466">
        <ele>816</ele>
        <time>2010-01-01T07:03:35Z</time>
      </trkpt>
      <trkpt lat="42.17248" lon="2.57469">
        <ele>816</ele>
        <time>2010-01-01T07:03:38Z</time>
      </trkpt>
      <trkpt lat="42.17245" lon="2.57464">
        <ele>815</ele>
        <time>2010-01-01T07:03:40Z</time>
      </trkpt>
      <trkpt lat="42.17235" lon="2.57448">
        <ele>810</ele>
        <time>2010-01-01T07:03:46Z</time>
      </trkpt>
      <trkpt lat="42.17225" lon="2.57435">
        <ele>808</ele>
        <time>2010-01-01T07:03:52Z</time>
      </trkpt>
      <trkpt lat="42.17218" lon="2.57417">
        <ele>805</ele>
        <time>2010-01-01T07:03:58Z</time>
      </trkpt>
      <trkpt lat="42.17211" lon="2.57399">
        <ele>805</ele>
        <time>2010-01-01T07:04:04Z</time>
      </trkpt>
      <trkpt lat="42.17208" lon="2.57387">
        <ele>804</ele>
        <time>2010-01-01T07:04:08Z</time>
      </trkpt>
      <trkpt lat="42.17206" lon="2.57376">
        <ele>801</ele>
        <time>2010-01-01T07:04:11Z</time>
      </trkpt>
      <trkpt lat="42.17198" lon="2.57359">
        <ele>800</ele>
        <time>2010-01-01T07:04:17Z</time>
      </trkpt>
      <trkpt lat="42.17186" lon="2.57341">
        <ele>798</ele>
        <time>2010-01-01T07:04:24Z</time>
      </trkpt>
      <trkpt lat="42.17179" lon="2.57326">
        <ele>795</ele>
        <time>2010-01-01T07:04:30Z</time>
      </trkpt>
      <trkpt lat="42.17174" lon="2.5731">
        <ele>791</ele>
        <time>2010-01-01T07:04:35Z</time>
      </trkpt>
      <trkpt lat="42.17169" lon="2.57295">
        <ele>790</ele>
        <time>2010-01-01T07:04:40Z</time>
      </trkpt>
      <trkpt lat="42.17164" lon="2.57284">
        <ele>790</ele>
        <time>2010-01-01T07:04:43Z</time>
      </trkpt>
      <trkpt lat="42.1716" lon="2.5727">
        <ele>788</ele>
        <time>2010-01-01T07:04:48Z</time>
      </trkpt>
      <trkpt lat="42.17157" lon="2.57255">
        <ele>785</ele>
        <time>2010-01-01T07:04:52Z</time>
      </trkpt>
      <trkpt lat="42.17158" lon="2.57243">
        <ele>782</ele>
        <time>2010-01-01T07:04:56Z</time>
      </trkpt>
      <trkpt lat="42.17158" lon="2.57226">
        <ele>778</ele>
        <time>2010-01-01T07:05:01Z</time>
      </trkpt>
      <trkpt lat="42.17161" lon="2.57213">
        <ele>776</ele>
        <time>2010-01-01T07:05:05Z</time>
      </trkpt>
      <trkpt lat="42.17161" lon="2.57197">
        <ele>772</ele>
        <time>2010-01-01T07:05:10Z</time>
      </trkpt>
      <trkpt lat="42.17157" lon="2.57183">
        <ele>771</ele>
        <time>2010-01-01T07:05:14Z</time>
      </trkpt>
      <trkpt lat="42.17158" lon="2.57167">
        <ele>769</ele>
        <time>2010-01-01T07:05:19Z</time>
      </trkpt>
      <trkpt lat="42.17155" lon="2.57147">
        <ele>766</ele>
        <time>2010-01-01T07:05:25Z</time>
      </trkpt>
      <trkpt lat="42.1715" lon="2.57127">
        <ele>764</ele>
        <time>2010-01-01T07:05:31Z</time>
      </trkpt>
      <trkpt lat="42.1714" lon="2.57112">
        <ele>762</ele>
        <time>2010-01-01T07:05:37Z</time>
      </trkpt>
      <trkpt lat="42.17129" lon="2.57105">
        <ele>759</ele>
        <time>2010-01-01T07:05:42Z</time>
      </trkpt>
      <trkpt lat="42.17128" lon="2.57104">
        <ele>759</ele>
        <time>2010-01-01T07:05:42Z</time>
      </trkpt>
      <trkpt lat="42.17117" lon="2.57092">
        <ele>757</ele>
        <time>2010-01-01T07:05:48Z</time>
      </trkpt>
      <trkpt lat="42.17104" lon="2.57078">
        <ele>755</ele>
        <time>2010-01-01T07:05:55Z</time>
      </trkpt>
      <trkpt lat="42.1709" lon="2.57058">
        <ele>756</ele>
        <time>2010-01-01T07:06:03Z</time>
      </trkpt>
      <trkpt lat="42.17083" lon="2.57048">
        <ele>754</ele>
        <time>2010-01-01T07:06:07Z</time>
      </trkpt>
      <trkpt lat="42.17082" lon="2.57048">
        <ele>754</ele>
        <time>2010-01-01T07:06:07Z</time>
      </trkpt>
      <trkpt lat="42.17075" lon="2.57037">
        <ele>751</ele>
        <time>2010-01-01T07:06:12Z</time>
      </trkpt>
      <trkpt lat="42.17072" lon="2.57032">
        <ele>750</ele>
        <time>2010-01-01T07:06:14Z</time>
      </trkpt>
      <trkpt lat="42.17068" lon="2.57015">
        <ele>749</ele>
        <time>2010-01-01T07:06:19Z</time>
      </trkpt>
      <trkpt lat="42.17067" lon="2.56998">
        <ele>749</ele>
        <time>2010-01-01T07:06:24Z</time>
      </trkpt>
      <trkpt lat="42.17065" lon="2.56985">
        <ele>749</ele>
        <time>2010-01-01T07:06:28Z</time>
      </trkpt>
      <trkpt lat="42.17062" lon="2.56969">
        <ele>749</ele>
        <time>2010-01-01T07:06:33Z</time>
      </trkpt>
      <trkpt lat="42.17062" lon="2.56966">
        <ele>748</ele>
        <time>2010-01-01T07:06:34Z</time>
      </trkpt>
      <trkpt lat="42.17064" lon="2.56955">
        <ele>748</ele>
        <time>2010-01-01T07:06:37Z</time>
      </trkpt>
      <trkpt lat="42.17072" lon="2.56939">
        <ele>748</ele>
        <time>2010-01-01T07:06:43Z</time>
      </trkpt>
      <trkpt lat="42.17076" lon="2.56933">
        <ele>747</ele>
        <time>2010-01-01T07:06:45Z</time>
      </trkpt>
      <trkpt lat="42.17081" lon="2.56923">
        <ele>746</ele>
        <time>2010-01-01T07:06:49Z</time>
      </trkpt>
      <trkpt lat="42.17087" lon="2.56918">
        <ele>745</ele>
        <time>2010-01-01T07:06:51Z</time>
      </trkpt>
      <trkpt lat="42.17089" lon="2.5691">
        <ele>743</ele>
        <time>2010-01-01T07:06:54Z</time>
      </trkpt>
      <trkpt lat="42.17089" lon="2.56894">
        <ele>737</ele>
        <time>2010-01-01T07:06:59Z</time>
      </trkpt>
      <trkpt lat="42.17097" lon="2.56882">
        <ele>734</ele>
        <time>2010-01-01T07:07:03Z</time>
      </trkpt>
      <trkpt lat="42.17099" lon="2.56873">
        <ele>731</ele>
        <time>2010-01-01T07:07:06Z</time>
      </trkpt>
      <trkpt lat="42.17106" lon="2.56861">
        <ele>729</ele>
        <time>2010-01-01T07:07:11Z</time>
      </trkpt>
      <trkpt lat="42.17108" lon="2.56848">
        <ele>726</ele>
        <time>2010-01-01T07:07:15Z</time>
      </trkpt>
      <trkpt lat="42.1711" lon="2.56834">
        <ele>723</ele>
        <time>2010-01-01T07:07:19Z</time>
      </trkpt>
      <trkpt lat="42.17113" lon="2.56817">
        <ele>719</ele>
        <time>2010-01-01T07:07:24Z</time>
      </trkpt>
      <trkpt lat="42.17113" lon="2.56804">
        <ele>716</ele>
        <time>2010-01-01T07:07:28Z</time>
      </trkpt>
      <trkpt lat="42.17114" lon="2.56795">
        <ele>713</ele>
        <time>2010-01-01T07:07:31Z</time>
      </trkpt>
      <trkpt lat="42.17119" lon="2.56783">
        <ele>712</ele>
        <time>2010-01-01T07:07:34Z</time>
      </trkpt>
      <trkpt lat="42.17125" lon="2.5677">
        <ele>710</ele>
        <time>2010-01-01T07:07:39Z</time>
      </trkpt>
      <trkpt lat="42.17128" lon="2.56757">
        <ele>707</ele>
        <time>2010-01-01T07:07:43Z</time>
      </trkpt>
      <trkpt lat="42.17132" lon="2.56743">
        <ele>704</ele>
        <time>2010-01-01T07:07:48Z</time>
      </trkpt>
      <trkpt lat="42.17133" lon="2.56742">
        <ele>704</ele>
        <time>2010-01-01T07:07:48Z</time>
      </trkpt>
      <trkpt lat="42.17136" lon="2.56727">
        <ele>701</ele>
        <time>2010-01-01T07:07:53Z</time>
      </trkpt>
      <trkpt lat="42.17139" lon="2.56715">
        <ele>699</ele>
        <time>2010-01-01T07:07:57Z</time>
      </trkpt>
      <trkpt lat="42.17146" lon="2.56701">
        <ele>697</ele>
        <time>2010-01-01T07:08:01Z</time>
      </trkpt>
      <trkpt lat="42.17154" lon="2.56691">
        <ele>695</ele>
        <time>2010-01-01T07:08:06Z</time>
      </trkpt>
      <trkpt lat="42.17163" lon="2.56684">
        <ele>693</ele>
        <time>2010-01-01T07:08:10Z</time>
      </trkpt>
      <trkpt lat="42.17166" lon="2.56669">
        <ele>691</ele>
        <time>2010-01-01T07:08:14Z</time>
      </trkpt>
      <trkpt lat="42.17163" lon="2.56652">
        <ele>687</ele>
        <time>2010-01-01T07:08:20Z</time>
      </trkpt>
      <trkpt lat="42.17157" lon="2.5664">
        <ele>683</ele>
        <time>2010-01-01T07:08:24Z</time>
      </trkpt>
      <trkpt lat="42.17153" lon="2.56633">
        <ele>681</ele>
        <time>2010-01-01T07:08:27Z</time>
      </trkpt>
      <trkpt lat="42.17151" lon="2.56622">
        <ele>679</ele>
        <time>2010-01-01T07:08:30Z</time>
      </trkpt>
      <trkpt lat="42.17144" lon="2.56613">
        <ele>677</ele>
        <time>2010-01-01T07:08:34Z</time>
      </trkpt>
      <trkpt lat="42.17141" lon="2.56607">
        <ele>676</ele>
        <time>2010-01-01T07:08:36Z</time>
      </trkpt>
      <trkpt lat="42.17139" lon="2.566">
        <ele>675</ele>
        <time>2010-01-01T07:08:38Z</time>
      </trkpt>
      <trkpt lat="42.1714" lon="2.56589">
        <ele>673</ele>
        <time>2010-01-01T07:08:41Z</time>
      </trkpt>
      <trkpt lat="42.17137" lon="2.56573">
        <ele>671</ele>
        <time>2010-01-01T07:08:46Z</time>
      </trkpt>
      <trkpt lat="42.17138" lon="2.56553">
        <ele>669</ele>
        <time>2010-01-01T07:08:52Z</time>
      </trkpt>
      <trkpt lat="42.1714" lon="2.56533">
        <ele>667</ele>
        <time>2010-01-01T07:08:58Z</time>
      </trkpt>
      <trkpt lat="42.1714" lon="2.56527">
        <ele>666</ele>
        <time>2010-01-01T07:09:00Z</time>
      </trkpt>
      <trkpt lat="42.17147" lon="2.56516">
        <ele>665</ele>
        <time>2010-01-01T07:09:04Z</time>
      </trkpt>
      <trkpt lat="42.17156" lon="2.56498">
        <ele>665</ele>
        <time>2010-01-01T07:09:11Z</time>
      </trkpt>
      <trkpt lat="42.17162" lon="2.56472">
        <ele>667</ele>
        <time>2010-01-01T07:09:19Z</time>
      </trkpt>
      <trkpt lat="42.17166" lon="2.56465">
        <ele>668</ele>
        <time>2010-01-01T07:09:21Z</time>
      </trkpt>
      <trkpt lat="42.17178" lon="2.56444">
        <ele>669</ele>
        <time>2010-01-01T07:09:29Z</time>
      </trkpt>
      <trkpt lat="42.17181" lon="2.5644">
        <ele>668</ele>
        <time>2010-01-01T07:09:31Z</time>
      </trkpt>
      <trkpt lat="42.1719" lon="2.5642">
        <ele>670</ele>
        <time>2010-01-01T07:09:38Z</time>
      </trkpt>
      <trkpt lat="42.17196" lon="2.564">
        <ele>671</ele>
        <time>2010-01-01T07:09:44Z</time>
      </trkpt>
      <trkpt lat="42.17195" lon="2.56384">
        <ele>674</ele>
        <time>2010-01-01T07:09:49Z</time>
      </trkpt>
      <trkpt lat="42.17195" lon="2.56383">
        <ele>674</ele>
        <time>2010-01-01T07:09:49Z</time>
      </trkpt>
      <trkpt lat="42.17198" lon="2.56364">
        <ele>676</ele>
        <time>2010-01-01T07:09:55Z</time>
      </trkpt>
      <trkpt lat="42.17198" lon="2.56356">
        <ele>678</ele>
        <time>2010-01-01T07:09:58Z</time>
      </trkpt>
      <trkpt lat="42.17198" lon="2.56352">
        <ele>678</ele>
        <time>2010-01-01T07:09:59Z</time>
      </trkpt>
      <trkpt lat="42.17204" lon="2.56344">
        <ele>679</ele>
        <time>2010-01-01T07:10:02Z</time>
      </trkpt>
      <trkpt lat="42.17214" lon="2.56329">
        <ele>680</ele>
        <time>2010-01-01T07:10:08Z</time>
      </trkpt>
      <trkpt lat="42.17215" lon="2.56327">
        <ele>680</ele>
        <time>2010-01-01T07:10:09Z</time>
      </trkpt>
      <trkpt lat="42.1721" lon="2.56317">
        <ele>683</ele>
        <time>2010-01-01T07:10:12Z</time>
      </trkpt>
      <trkpt lat="42.17208" lon="2.5631">
        <ele>686</ele>
        <time>2010-01-01T07:10:15Z</time>
      </trkpt>
      <trkpt lat="42.17201" lon="2.56311">
        <ele>687</ele>
        <time>2010-01-01T07:10:17Z</time>
      </trkpt>
      <trkpt lat="42.172" lon="2.56302">
        <ele>689</ele>
        <time>2010-01-01T07:10:20Z</time>
      </trkpt>
      <trkpt lat="42.17197" lon="2.56298">
        <ele>691</ele>
        <time>2010-01-01T07:10:22Z</time>
      </trkpt>
      <trkpt lat="42.17189" lon="2.56299">
        <ele>691</ele>
        <time>2010-01-01T07:10:25Z</time>
      </trkpt>
      <trkpt lat="42.17184" lon="2.56301">
        <ele>691</ele>
        <time>2010-01-01T07:10:27Z</time>
      </trkpt>
      <trkpt lat="42.17181" lon="2.56299">
        <ele>691</ele>
        <time>2010-01-01T07:10:29Z</time>
      </trkpt>
      <trkpt lat="42.17173" lon="2.56293">
        <ele>692</ele>
        <time>2010-01-01T07:10:32Z</time>
      </trkpt>
      <trkpt lat="42.17176" lon="2.56286">
        <ele>695</ele>
        <time>2010-01-01T07:10:35Z</time>
      </trkpt>
      <trkpt lat="42.17177" lon="2.56283">
        <ele>695</ele>
        <time>2010-01-01T07:10:35Z</time>
      </trkpt>
      <trkpt lat="42.17178" lon="2.56274">
        <ele>698</ele>
        <time>2010-01-01T07:10:38Z</time>
      </trkpt>
      <trkpt lat="42.17176" lon="2.56256">
        <ele>703</ele>
        <time>2010-01-01T07:10:44Z</time>
      </trkpt>
      <trkpt lat="42.17176" lon="2.56253">
        <ele>704</ele>
        <time>2010-01-01T07:10:44Z</time>
      </trkpt>
      <trkpt lat="42.1717" lon="2.56242">
        <ele>708</ele>
        <time>2010-01-01T07:10:48Z</time>
      </trkpt>
      <trkpt lat="42.17169" lon="2.56239">
        <ele>709</ele>
        <time>2010-01-01T07:10:50Z</time>
      </trkpt>
      <trkpt lat="42.17167" lon="2.56234">
        <ele>711</ele>
        <time>2010-01-01T07:10:51Z</time>
      </trkpt>
      <trkpt lat="42.17169" lon="2.56222">
        <ele>715</ele>
        <time>2010-01-01T07:10:55Z</time>
      </trkpt>
      <trkpt lat="42.17171" lon="2.56219">
        <ele>715</ele>
        <time>2010-01-01T07:10:56Z</time>
      </trkpt>
      <trkpt lat="42.17173" lon="2.56207">
        <ele>719</ele>
        <time>2010-01-01T07:11:00Z</time>
      </trkpt>
      <trkpt lat="42.17168" lon="2.56205">
        <ele>720</ele>
        <time>2010-01-01T07:11:01Z</time>
      </trkpt>
      <trkpt lat="42.17161" lon="2.562">
        <ele>721</ele>
        <time>2010-01-01T07:11:05Z</time>
      </trkpt>
      <trkpt lat="42.17158" lon="2.56196">
        <ele>722</ele>
        <time>2010-01-01T07:11:07Z</time>
      </trkpt>
      <trkpt lat="42.17156" lon="2.56189">
        <ele>724</ele>
        <time>2010-01-01T07:11:09Z</time>
      </trkpt>
      <trkpt lat="42.17157" lon="2.56183">
        <ele>726</ele>
        <time>2010-01-01T07:11:11Z</time>
      </trkpt>
      <trkpt lat="42.1716" lon="2.56174">
        <ele>730</ele>
        <time>2010-01-01T07:11:14Z</time>
      </trkpt>
      <trkpt lat="42.17164" lon="2.56168">
        <ele>733</ele>
        <time>2010-01-01T07:11:16Z</time>
      </trkpt>
      <trkpt lat="42.17164" lon="2.56161">
        <ele>735</ele>
        <time>2010-01-01T07:11:18Z</time>
      </trkpt>
      <trkpt lat="42.1717" lon="2.56154">
        <ele>737</ele>
        <time>2010-01-01T07:11:21Z</time>
      </trkpt>
      <trkpt lat="42.1717" lon="2.56147">
        <ele>739</ele>
        <time>2010-01-01T07:11:24Z</time>
      </trkpt>
      <trkpt lat="42.17168" lon="2.5614">
        <ele>740</ele>
        <time>2010-01-01T07:11:26Z</time>
      </trkpt>
      <trkpt lat="42.17165" lon="2.5613">
        <ele>741</ele>
        <time>2010-01-01T07:11:29Z</time>
      </trkpt>
      <trkpt lat="42.17163" lon="2.56123">
        <ele>742</ele>
        <time>2010-01-01T07:11:31Z</time>
      </trkpt>
      <trkpt lat="42.17169" lon="2.56113">
        <ele>745</ele>
        <time>2010-01-01T07:11:35Z</time>
      </trkpt>
      <trkpt lat="42.17173" lon="2.56108">
        <ele>746</ele>
        <time>2010-01-01T07:11:37Z</time>
      </trkpt>
      <trkpt lat="42.17183" lon="2.56099">
        <ele>748</ele>
        <time>2010-01-01T07:11:42Z</time>
      </trkpt>
      <trkpt lat="42.17185" lon="2.56094">
        <ele>749</ele>
        <time>2010-01-01T07:11:44Z</time>
      </trkpt>
      <trkpt lat="42.17197" lon="2.56088">
        <ele>751</ele>
        <time>2010-01-01T07:11:49Z</time>
      </trkpt>
      <trkpt lat="42.17202" lon="2.56082">
        <ele>752</ele>
        <time>2010-01-01T07:11:51Z</time>
      </trkpt>
      <trkpt lat="42.17208" lon="2.56068">
        <ele>753</ele>
        <time>2010-01-01T07:11:56Z</time>
      </trkpt>
      <trkpt lat="42.17209" lon="2.5606">
        <ele>754</ele>
        <time>2010-01-01T07:11:58Z</time>
      </trkpt>
      <trkpt lat="42.17218" lon="2.56062">
        <ele>756</ele>
        <time>2010-01-01T07:12:02Z</time>
      </trkpt>
      <trkpt lat="42.17222" lon="2.56059">
        <ele>758</ele>
        <time>2010-01-01T07:12:04Z</time>
      </trkpt>
      <trkpt lat="42.17231" lon="2.56048">
        <ele>759</ele>
        <time>2010-01-01T07:12:08Z</time>
      </trkpt>
      <trkpt lat="42.17232" lon="2.56047">
        <ele>759</ele>
        <time>2010-01-01T07:12:09Z</time>
      </trkpt>
      <trkpt lat="42.17232" lon="2.56034">
        <ele>759</ele>
        <time>2010-01-01T07:12:13Z</time>
      </trkpt>
      <trkpt lat="42.17232" lon="2.56033">
        <ele>759</ele>
        <time>2010-01-01T07:12:13Z</time>
      </trkpt>
      <trkpt lat="42.17235" lon="2.56019">
        <ele>760</ele>
        <time>2010-01-01T07:12:17Z</time>
      </trkpt>
      <trkpt lat="42.17233" lon="2.56012">
        <ele>760</ele>
        <time>2010-01-01T07:12:20Z</time>
      </trkpt>
      <trkpt lat="42.17229" lon="2.56007">
        <ele>760</ele>
        <time>2010-01-01T07:12:22Z</time>
      </trkpt>
      <trkpt lat="42.17228" lon="2.56005">
        <ele>760</ele>
        <time>2010-01-01T07:12:23Z</time>
      </trkpt>
      <trkpt lat="42.17229" lon="2.56003">
        <ele>760</ele>
        <time>2010-01-01T07:12:23Z</time>
      </trkpt>
      <trkpt lat="42.17229" lon="2.56005">
        <ele>760</ele>
        <time>2010-01-01T07:12:24Z</time>
      </trkpt>
      <trkpt lat="42.17228" lon="2.56003">
        <ele>760</ele>
        <time>2010-01-01T07:12:24Z</time>
      </trkpt>
      <trkpt lat="42.17227" lon="2.56002">
        <ele>759</ele>
        <time>2010-01-01T07:12:25Z</time>
      </trkpt>
      <trkpt lat="42.17219" lon="2.56007">
        <ele>757</ele>
        <time>2010-01-01T07:12:28Z</time>
      </trkpt>
      <trkpt lat="42.17223" lon="2.55999">
        <ele>759</ele>
        <time>2010-01-01T07:12:31Z</time>
      </trkpt>
      <trkpt lat="42.17223" lon="2.56">
        <ele>759</ele>
        <time>2010-01-01T07:12:31Z</time>
      </trkpt>
      <trkpt lat="42.1723" lon="2.56009">
        <ele>760</ele>
        <time>2010-01-01T07:12:35Z</time>
      </trkpt>
      <trkpt lat="42.17235" lon="2.56004">
        <ele>761</ele>
        <time>2010-01-01T07:12:38Z</time>
      </trkpt>
      <trkpt lat="42.17236" lon="2.56002">
        <ele>761</ele>
        <time>2010-01-01T07:12:39Z</time>
      </trkpt>
      <trkpt lat="42.17235" lon="2.56003">
        <ele>761</ele>
        <time>2010-01-01T07:12:39Z</time>
      </trkpt>
      <trkpt lat="42.17229" lon="2.56004">
        <ele>760</ele>
        <time>2010-01-01T07:12:42Z</time>
      </trkpt>
      <trkpt lat="42.17226" lon="2.56007">
        <ele>759</ele>
        <time>2010-01-01T07:12:43Z</time>
      </trkpt>
      <trkpt lat="42.17227" lon="2.56008">
        <ele>759</ele>
        <time>2010-01-01T07:12:44Z</time>
      </trkpt>
      <trkpt lat="42.17227" lon="2.56008">
        <ele>759</ele>
        <time>2010-01-01T07:12:44Z</time>
      </trkpt>
      <trkpt lat="42.17233" lon="2.56007">
        <ele>760</ele>
        <time>2010-01-01T07:12:46Z</time>
      </trkpt>
      <trkpt lat="42.17231" lon="2.55993">
        <ele>760</ele>
        <time>2010-01-01T07:12:50Z</time>
      </trkpt>
      <trkpt lat="42.17232" lon="2.55973">
        <ele>760</ele>
        <time>2010-01-01T07:12:56Z</time>
      </trkpt>
      <trkpt lat="42.1724" lon="2.55962">
        <ele>761</ele>
        <time>2010-01-01T07:13:01Z</time>
      </trkpt>
      <trkpt lat="42.17241" lon="2.55956">
        <ele>761</ele>
        <time>2010-01-01T07:13:02Z</time>
      </trkpt>
      <trkpt lat="42.17245" lon="2.55941">
        <ele>760</ele>
        <time>2010-01-01T07:13:07Z</time>
      </trkpt>
      <trkpt lat="42.17248" lon="2.55926">
        <ele>758</ele>
        <time>2010-01-01T07:13:12Z</time>
      </trkpt>
      <trkpt lat="42.17249" lon="2.55923">
        <ele>758</ele>
        <time>2010-01-01T07:13:13Z</time>
      </trkpt>
      <trkpt lat="42.17249" lon="2.55918">
        <ele>757</ele>
        <time>2010-01-01T07:13:14Z</time>
      </trkpt>
      <trkpt lat="42.17238" lon="2.55905">
        <ele>754</ele>
        <time>2010-01-01T07:13:20Z</time>
      </trkpt>
      <trkpt lat="42.17233" lon="2.559">
        <ele>753</ele>
        <time>2010-01-01T07:13:22Z</time>
      </trkpt>
      <trkpt lat="42.17231" lon="2.55891">
        <ele>751</ele>
        <time>2010-01-01T07:13:25Z</time>
      </trkpt>
      <trkpt lat="42.17228" lon="2.55875">
        <ele>749</ele>
        <time>2010-01-01T07:13:30Z</time>
      </trkpt>
      <trkpt lat="42.17229" lon="2.55863">
        <ele>748</ele>
        <time>2010-01-01T07:13:34Z</time>
      </trkpt>
      <trkpt lat="42.17227" lon="2.55851">
        <ele>746</ele>
        <time>2010-01-01T07:13:37Z</time>
      </trkpt>
      <trkpt lat="42.17235" lon="2.55837">
        <ele>745</ele>
        <time>2010-01-01T07:13:43Z</time>
      </trkpt>
      <trkpt lat="42.17236" lon="2.55834">
        <ele>745</ele>
        <time>2010-01-01T07:13:44Z</time>
      </trkpt>
      <trkpt lat="42.17238" lon="2.55814">
        <ele>742</ele>
        <time>2010-01-01T07:13:50Z</time>
      </trkpt>
      <trkpt lat="42.17234" lon="2.55804">
        <ele>740</ele>
        <time>2010-01-01T07:13:53Z</time>
      </trkpt>
      <trkpt lat="42.17232" lon="2.55789">
        <ele>738</ele>
        <time>2010-01-01T07:13:58Z</time>
      </trkpt>
      <trkpt lat="42.17232" lon="2.55769">
        <ele>736</ele>
        <time>2010-01-01T07:14:04Z</time>
      </trkpt>
      <trkpt lat="42.17232" lon="2.55757">
        <ele>734</ele>
        <time>2010-01-01T07:14:07Z</time>
      </trkpt>
      <trkpt lat="42.17234" lon="2.55742">
        <ele>733</ele>
        <time>2010-01-01T07:14:12Z</time>
      </trkpt>
      <trkpt lat="42.17236" lon="2.55737">
        <ele>732</ele>
        <time>2010-01-01T07:14:13Z</time>
      </trkpt>
      <trkpt lat="42.17236" lon="2.55715">
        <ele>730</ele>
        <time>2010-01-01T07:14:20Z</time>
      </trkpt>
      <trkpt lat="42.17233" lon="2.55697">
        <ele>728</ele>
        <time>2010-01-01T07:14:25Z</time>
      </trkpt>
      <trkpt lat="42.17232" lon="2.55689">
        <ele>727</ele>
        <time>2010-01-01T07:14:28Z</time>
      </trkpt>
      <trkpt lat="42.17236" lon="2.55677">
        <ele>727</ele>
        <time>2010-01-01T07:14:32Z</time>
      </trkpt>
      <trkpt lat="42.17236" lon="2.55669">
        <ele>727</ele>
        <time>2010-01-01T07:14:34Z</time>
      </trkpt>
      <trkpt lat="42.17233" lon="2.55661">
        <ele>726</ele>
        <time>2010-01-01T07:14:37Z</time>
      </trkpt>
      <trkpt lat="42.1723" lon="2.55654">
        <ele>725</ele>
        <time>2010-01-01T07:14:39Z</time>
      </trkpt>
      <trkpt lat="42.17227" lon="2.55656">
        <ele>725</ele>
        <time>2010-01-01T07:14:40Z</time>
      </trkpt>
      <trkpt lat="42.17225" lon="2.55643">
        <ele>725</ele>
        <time>2010-01-01T07:14:44Z</time>
      </trkpt>
      <trkpt lat="42.17223" lon="2.55632">
        <ele>724</ele>
        <time>2010-01-01T07:14:47Z</time>
      </trkpt>
      <trkpt lat="42.17222" lon="2.55626">
        <ele>724</ele>
        <time>2010-01-01T07:14:49Z</time>
      </trkpt>
      <trkpt lat="42.17231" lon="2.55617">
        <ele>723</ele>
        <time>2010-01-01T07:14:54Z</time>
      </trkpt>
      <trkpt lat="42.1722" lon="2.55599">
        <ele>722</ele>
        <time>2010-01-01T07:15:00Z</time>
      </trkpt>
      <trkpt lat="42.1722" lon="2.55585">
        <ele>723</ele>
        <time>2010-01-01T07:15:05Z</time>
      </trkpt>
      <trkpt lat="42.17215" lon="2.55566">
        <ele>721</ele>
        <time>2010-01-01T07:15:10Z</time>
      </trkpt>
      <trkpt lat="42.17211" lon="2.55561">
        <ele>719</ele>
        <time>2010-01-01T07:15:13Z</time>
      </trkpt>
      <trkpt lat="42.17214" lon="2.55552">
        <ele>720</ele>
        <time>2010-01-01T07:15:15Z</time>
      </trkpt>
      <trkpt lat="42.17207" lon="2.5553">
        <ele>720</ele>
        <time>2010-01-01T07:15:23Z</time>
      </trkpt>
      <trkpt lat="42.17204" lon="2.55526">
        <ele>720</ele>
        <time>2010-01-01T07:15:24Z</time>
      </trkpt>
      <trkpt lat="42.172" lon="2.5551">
        <ele>720</ele>
        <time>2010-01-01T07:15:29Z</time>
      </trkpt>
      <trkpt lat="42.17203" lon="2.55486">
        <ele>722</ele>
        <time>2010-01-01T07:15:36Z</time>
      </trkpt>
      <trkpt lat="42.17207" lon="2.55468">
        <ele>724</ele>
        <time>2010-01-01T07:15:42Z</time>
      </trkpt>
      <trkpt lat="42.17207" lon="2.55461">
        <ele>725</ele>
        <time>2010-01-01T07:15:44Z</time>
      </trkpt>
      <trkpt lat="42.17202" lon="2.55446">
        <ele>727</ele>
        <time>2010-01-01T07:15:49Z</time>
      </trkpt>
      <trkpt lat="42.17198" lon="2.55438">
        <ele>728</ele>
        <time>2010-01-01T07:15:52Z</time>
      </trkpt>
      <trkpt lat="42.1719" lon="2.55433">
        <ele>728</ele>
        <time>2010-01-01T07:15:55Z</time>
      </trkpt>
      <trkpt lat="42.17177" lon="2.55415">
        <ele>729</ele>
        <time>2010-01-01T07:16:03Z</time>
      </trkpt>
      <trkpt lat="42.17176" lon="2.5541">
        <ele>728</ele>
        <time>2010-01-01T07:16:04Z</time>
      </trkpt>
      <trkpt lat="42.17174" lon="2.55404">
        <ele>728</ele>
        <time>2010-01-01T07:16:06Z</time>
      </trkpt>
      <trkpt lat="42.17184" lon="2.55395">
        <ele>729</ele>
        <time>2010-01-01T07:16:11Z</time>
      </trkpt>
      <trkpt lat="42.17195" lon="2.55377">
        <ele>729</ele>
        <time>2010-01-01T07:16:18Z</time>
      </trkpt>
      <trkpt lat="42.172" lon="2.55367">
        <ele>729</ele>
        <time>2010-01-01T07:16:21Z</time>
      </trkpt>
      <trkpt lat="42.17199" lon="2.55358">
        <ele>727</ele>
        <time>2010-01-01T07:16:24Z</time>
      </trkpt>
      <trkpt lat="42.17206" lon="2.55346">
        <ele>726</ele>
        <time>2010-01-01T07:16:28Z</time>
      </trkpt>
      <trkpt lat="42.17216" lon="2.55336">
        <ele>726</ele>
        <time>2010-01-01T07:16:33Z</time>
      </trkpt>
      <trkpt lat="42.17223" lon="2.55319">
        <ele>724</ele>
        <time>2010-01-01T07:16:39Z</time>
      </trkpt>
      <trkpt lat="42.17225" lon="2.55306">
        <ele>721</ele>
        <time>2010-01-01T07:16:43Z</time>
      </trkpt>
      <trkpt lat="42.1723" lon="2.55293">
        <ele>719</ele>
        <time>2010-01-01T07:16:48Z</time>
      </trkpt>
      <trkpt lat="42.17231" lon="2.55279">
        <ele>716</ele>
        <time>2010-01-01T07:16:52Z</time>
      </trkpt>
      <trkpt lat="42.1724" lon="2.55258">
        <ele>716</ele>
        <time>2010-01-01T07:16:59Z</time>
      </trkpt>
      <trkpt lat="42.17245" lon="2.55237">
        <ele>714</ele>
        <time>2010-01-01T07:17:06Z</time>
      </trkpt>
      <trkpt lat="42.17245" lon="2.55216">
        <ele>712</ele>
        <time>2010-01-01T07:17:12Z</time>
      </trkpt>
      <trkpt lat="42.17244" lon="2.55207">
        <ele>710</ele>
        <time>2010-01-01T07:17:14Z</time>
      </trkpt>
      <trkpt lat="42.17247" lon="2.55191">
        <ele>708</ele>
        <time>2010-01-01T07:17:19Z</time>
      </trkpt>
      <trkpt lat="42.17251" lon="2.55175">
        <ele>707</ele>
        <time>2010-01-01T07:17:25Z</time>
      </trkpt>
      <trkpt lat="42.17251" lon="2.55163">
        <ele>706</ele>
        <time>2010-01-01T07:17:28Z</time>
      </trkpt>
      <trkpt lat="42.17252" lon="2.55145">
        <ele>703</ele>
        <time>2010-01-01T07:17:33Z</time>
      </trkpt>
      <trkpt lat="42.17249" lon="2.55129">
        <ele>702</ele>
        <time>2010-01-01T07:17:38Z</time>
      </trkpt>
      <trkpt lat="42.17251" lon="2.55117">
        <ele>701</ele>
        <time>2010-01-01T07:17:42Z</time>
      </trkpt>
      <trkpt lat="42.17253" lon="2.55116">
        <ele>701</ele>
        <time>2010-01-01T07:17:42Z</time>
      </trkpt>
      <trkpt lat="42.17263" lon="2.55106">
        <ele>700</ele>
        <time>2010-01-01T07:17:48Z</time>
      </trkpt>
      <trkpt lat="42.17261" lon="2.55094">
        <ele>700</ele>
        <time>2010-01-01T07:17:51Z</time>
      </trkpt>
      <trkpt lat="42.1726" lon="2.55084">
        <ele>700</ele>
        <time>2010-01-01T07:17:54Z</time>
      </trkpt>
      <trkpt lat="42.17261" lon="2.5508">
        <ele>699</ele>
        <time>2010-01-01T07:17:55Z</time>
      </trkpt>
      <trkpt lat="42.17264" lon="2.55064">
        <ele>697</ele>
        <time>2010-01-01T07:18:00Z</time>
      </trkpt>
      <trkpt lat="42.17262" lon="2.55045">
        <ele>694</ele>
        <time>2010-01-01T07:18:06Z</time>
      </trkpt>
      <trkpt lat="42.17259" lon="2.5503">
        <ele>690</ele>
        <time>2010-01-01T07:18:11Z</time>
      </trkpt>
      <trkpt lat="42.17258" lon="2.55025">
        <ele>689</ele>
        <time>2010-01-01T07:18:12Z</time>
      </trkpt>
      <trkpt lat="42.17263" lon="2.55016">
        <ele>687</ele>
        <time>2010-01-01T07:18:15Z</time>
      </trkpt>
      <trkpt lat="42.17259" lon="2.55">
        <ele>682</ele>
        <time>2010-01-01T07:18:21Z</time>
      </trkpt>
      <trkpt lat="42.17261" lon="2.54985">
        <ele>679</ele>
        <time>2010-01-01T07:18:25Z</time>
      </trkpt>
      <trkpt lat="42.1726" lon="2.54983">
        <ele>679</ele>
        <time>2010-01-01T07:18:26Z</time>
      </trkpt>
      <trkpt lat="42.17256" lon="2.54971">
        <ele>676</ele>
        <time>2010-01-01T07:18:30Z</time>
      </trkpt>
      <trkpt lat="42.17256" lon="2.54957">
        <ele>674</ele>
        <time>2010-01-01T07:18:34Z</time>
      </trkpt>
      <trkpt lat="42.17257" lon="2.54943">
        <ele>673</ele>
        <time>2010-01-01T07:18:38Z</time>
      </trkpt>
      <trkpt lat="42.17257" lon="2.54933">
        <ele>672</ele>
        <time>2010-01-01T07:18:41Z</time>
      </trkpt>
      <trkpt lat="42.17261" lon="2.54925">
        <ele>672</ele>
        <time>2010-01-01T07:18:44Z</time>
      </trkpt>
      <trkpt lat="42.1726" lon="2.54918">
        <ele>672</ele>
        <time>2010-01-01T07:18:46Z</time>
      </trkpt>
      <trkpt lat="42.17261" lon="2.54914">
        <ele>672</ele>
        <time>2010-01-01T07:18:47Z</time>
      </trkpt>
      <trkpt lat="42.17274" lon="2.54903">
        <ele>675</ele>
        <time>2010-01-01T07:18:53Z</time>
      </trkpt>
      <trkpt lat="42.17276" lon="2.549">
        <ele>675</ele>
        <time>2010-01-01T07:18:54Z</time>
      </trkpt>
      <trkpt lat="42.17296" lon="2.54885">
        <ele>676</ele>
        <time>2010-01-01T07:19:03Z</time>
      </trkpt>
      <trkpt lat="42.173" lon="2.5488">
        <ele>677</ele>
        <time>2010-01-01T07:19:06Z</time>
      </trkpt>
      <trkpt lat="42.17314" lon="2.54867">
        <ele>675</ele>
        <time>2010-01-01T07:19:13Z</time>
      </trkpt>
      <trkpt lat="42.17323" lon="2.54855">
        <ele>674</ele>
        <time>2010-01-01T07:19:18Z</time>
      </trkpt>
      <trkpt lat="42.17333" lon="2.5484">
        <ele>672</ele>
        <time>2010-01-01T07:19:24Z</time>
      </trkpt>
      <trkpt lat="42.17344" lon="2.54821">
        <ele>670</ele>
        <time>2010-01-01T07:19:31Z</time>
      </trkpt>
      <trkpt lat="42.17344" lon="2.54805">
        <ele>674</ele>
        <time>2010-01-01T07:19:36Z</time>
      </trkpt>
      <trkpt lat="42.17343" lon="2.54782">
        <ele>677</ele>
        <time>2010-01-01T07:19:42Z</time>
      </trkpt>
      <trkpt lat="42.17339" lon="2.54772">
        <ele>681</ele>
        <time>2010-01-01T07:19:45Z</time>
      </trkpt>
      <trkpt lat="42.17337" lon="2.54764">
        <ele>683</ele>
        <time>2010-01-01T07:19:48Z</time>
      </trkpt>
      <trkpt lat="42.17336" lon="2.54762">
        <ele>684</ele>
        <time>2010-01-01T07:19:49Z</time>
      </trkpt>
      <trkpt lat="42.17341" lon="2.54742">
        <ele>684</ele>
        <time>2010-01-01T07:19:55Z</time>
      </trkpt>
      <trkpt lat="42.1735" lon="2.54726">
        <ele>681</ele>
        <time>2010-01-01T07:20:01Z</time>
      </trkpt>
      <trkpt lat="42.17352" lon="2.54718">
        <ele>681</ele>
        <time>2010-01-01T07:20:03Z</time>
      </trkpt>
      <trkpt lat="42.17359" lon="2.54687">
        <ele>681</ele>
        <time>2010-01-01T07:20:13Z</time>
      </trkpt>
      <trkpt lat="42.17362" lon="2.54668">
        <ele>684</ele>
        <time>2010-01-01T07:20:19Z</time>
      </trkpt>
      <trkpt lat="42.1737" lon="2.54654">
        <ele>684</ele>
        <time>2010-01-01T07:20:24Z</time>
      </trkpt>
      <trkpt lat="42.17385" lon="2.54649">
        <ele>678</ele>
        <time>2010-01-01T07:20:30Z</time>
      </trkpt>
      <trkpt lat="42.17389" lon="2.54645">
        <ele>678</ele>
        <time>2010-01-01T07:20:32Z</time>
      </trkpt>
      <trkpt lat="42.17395" lon="2.54639">
        <ele>678</ele>
        <time>2010-01-01T07:20:35Z</time>
      </trkpt>
      <trkpt lat="42.17396" lon="2.54632">
        <ele>680</ele>
        <time>2010-01-01T07:20:37Z</time>
      </trkpt>
      <trkpt lat="42.17404" lon="2.54621">
        <ele>683</ele>
        <time>2010-01-01T07:20:42Z</time>
      </trkpt>
      <trkpt lat="42.17414" lon="2.54611">
        <ele>685</ele>
        <time>2010-01-01T07:20:47Z</time>
      </trkpt>
      <trkpt lat="42.17422" lon="2.54607">
        <ele>685</ele>
        <time>2010-01-01T07:20:50Z</time>
      </trkpt>
      <trkpt lat="42.17432" lon="2.54605">
        <ele>684</ele>
        <time>2010-01-01T07:20:54Z</time>
      </trkpt>
      <trkpt lat="42.1744" lon="2.54606">
        <ele>682</ele>
        <time>2010-01-01T07:20:57Z</time>
      </trkpt>
      <trkpt lat="42.17442" lon="2.54607">
        <ele>681</ele>
        <time>2010-01-01T07:20:58Z</time>
      </trkpt>
      <trkpt lat="42.17459" lon="2.54608">
        <ele>674</ele>
        <time>2010-01-01T07:21:05Z</time>
      </trkpt>
      <trkpt lat="42.17473" lon="2.54596">
        <ele>675</ele>
        <time>2010-01-01T07:21:12Z</time>
      </trkpt>
      <trkpt lat="42.17484" lon="2.54572">
        <ele>681</ele>
        <time>2010-01-01T07:21:20Z</time>
      </trkpt>
      <trkpt lat="42.17493" lon="2.54567">
        <ele>678</ele>
        <time>2010-01-01T07:21:24Z</time>
      </trkpt>
      <trkpt lat="42.17505" lon="2.5456">
        <ele>676</ele>
        <time>2010-01-01T07:21:29Z</time>
      </trkpt>
      <trkpt lat="42.17511" lon="2.54548">
        <ele>678</ele>
        <time>2010-01-01T07:21:34Z</time>
      </trkpt>
      <trkpt lat="42.17512" lon="2.54541">
        <ele>681</ele>
        <time>2010-01-01T07:21:36Z</time>
      </trkpt>
      <trkpt lat="42.17516" lon="2.54531">
        <ele>683</ele>
        <time>2010-01-01T07:21:39Z</time>
      </trkpt>
      <trkpt lat="42.17523" lon="2.54522">
        <ele>682</ele>
        <time>2010-01-01T07:21:43Z</time>
      </trkpt>
      <trkpt lat="42.17526" lon="2.54502">
        <ele>687</ele>
        <time>2010-01-01T07:21:49Z</time>
      </trkpt>
      <trkpt lat="42.17537" lon="2.5449">
        <ele>684</ele>
        <time>2010-01-01T07:21:54Z</time>
      </trkpt>
      <trkpt lat="42.17538" lon="2.54487">
        <ele>684</ele>
        <time>2010-01-01T07:21:56Z</time>
      </trkpt>
      <trkpt lat="42.17546" lon="2.54475">
        <ele>682</ele>
        <time>2010-01-01T07:22:00Z</time>
      </trkpt>
      <trkpt lat="42.17545" lon="2.54465">
        <ele>685</ele>
        <time>2010-01-01T07:22:03Z</time>
      </trkpt>
      <trkpt lat="42.17547" lon="2.54465">
        <ele>684</ele>
        <time>2010-01-01T07:22:04Z</time>
      </trkpt>
      <trkpt lat="42.17547" lon="2.54464">
        <ele>684</ele>
        <time>2010-01-01T07:22:04Z</time>
      </trkpt>
      <trkpt lat="42.17548" lon="2.54462">
        <ele>684</ele>
        <time>2010-01-01T07:22:05Z</time>
      </trkpt>
      <trkpt lat="42.17552" lon="2.54463">
        <ele>681</ele>
        <time>2010-01-01T07:22:06Z</time>
      </trkpt>
      <trkpt lat="42.17554" lon="2.54463">
        <ele>680</ele>
        <time>2010-01-01T07:22:07Z</time>
      </trkpt>
      <trkpt lat="42.17552" lon="2.54461">
        <ele>682</ele>
        <time>2010-01-01T07:22:08Z</time>
      </trkpt>
      <trkpt lat="42.17551" lon="2.54457">
        <ele>684</ele>
        <time>2010-01-01T07:22:09Z</time>
      </trkpt>
      <trkpt lat="42.17557" lon="2.54441">
        <ele>685</ele>
        <time>2010-01-01T07:22:15Z</time>
      </trkpt>
      <trkpt lat="42.17556" lon="2.54437">
        <ele>686</ele>
        <time>2010-01-01T07:22:16Z</time>
      </trkpt>
      <trkpt lat="42.17555" lon="2.54432">
        <ele>688</ele>
        <time>2010-01-01T07:22:17Z</time>
      </trkpt>
      <trkpt lat="42.17555" lon="2.54415">
        <ele>691</ele>
        <time>2010-01-01T07:22:22Z</time>
      </trkpt>
      <trkpt lat="42.17555" lon="2.54414">
        <ele>692</ele>
        <time>2010-01-01T07:22:23Z</time>
      </trkpt>
      <trkpt lat="42.17563" lon="2.5439">
        <ele>691</ele>
        <time>2010-01-01T07:22:31Z</time>
      </trkpt>
      <trkpt lat="42.17573" lon="2.5437">
        <ele>688</ele>
        <time>2010-01-01T07:22:38Z</time>
      </trkpt>
      <trkpt lat="42.17583" lon="2.54352">
        <ele>684</ele>
        <time>2010-01-01T07:22:45Z</time>
      </trkpt>
      <trkpt lat="42.17575" lon="2.54326">
        <ele>691</ele>
        <time>2010-01-01T07:22:53Z</time>
      </trkpt>
      <trkpt lat="42.17568" lon="2.54303">
        <ele>695</ele>
        <time>2010-01-01T07:23:00Z</time>
      </trkpt>
      <trkpt lat="42.17569" lon="2.54297">
        <ele>694</ele>
        <time>2010-01-01T07:23:02Z</time>
      </trkpt>
      <trkpt lat="42.17565" lon="2.54284">
        <ele>694</ele>
        <time>2010-01-01T07:23:06Z</time>
      </trkpt>
      <trkpt lat="42.17553" lon="2.54263">
        <ele>696</ele>
        <time>2010-01-01T07:23:14Z</time>
      </trkpt>
      <trkpt lat="42.17545" lon="2.5425">
        <ele>697</ele>
        <time>2010-01-01T07:23:19Z</time>
      </trkpt>
      <trkpt lat="42.17539" lon="2.54235">
        <ele>698</ele>
        <time>2010-01-01T07:23:24Z</time>
      </trkpt>
      <trkpt lat="42.17524" lon="2.54221">
        <ele>702</ele>
        <time>2010-01-01T07:23:32Z</time>
      </trkpt>
      <trkpt lat="42.17518" lon="2.5422">
        <ele>704</ele>
        <time>2010-01-01T07:23:34Z</time>
      </trkpt>
      <trkpt lat="42.1751" lon="2.542">
        <ele>707</ele>
        <time>2010-01-01T07:23:41Z</time>
      </trkpt>
      <trkpt lat="42.17503" lon="2.54193">
        <ele>709</ele>
        <time>2010-01-01T07:23:44Z</time>
      </trkpt>
      <trkpt lat="42.17511" lon="2.5418">
        <ele>707</ele>
        <time>2010-01-01T07:23:49Z</time>
      </trkpt>
      <trkpt lat="42.17513" lon="2.54175">
        <ele>707</ele>
        <time>2010-01-01T07:23:51Z</time>
      </trkpt>
      <trkpt lat="42.17515" lon="2.5417">
        <ele>706</ele>
        <time>2010-01-01T07:23:53Z</time>
      </trkpt>
      <trkpt lat="42.17524" lon="2.54148">
        <ele>705</ele>
        <time>2010-01-01T07:24:00Z</time>
      </trkpt>
      <trkpt lat="42.17527" lon="2.54131">
        <ele>707</ele>
        <time>2010-01-01T07:24:05Z</time>
      </trkpt>
      <trkpt lat="42.17529" lon="2.54129">
        <ele>707</ele>
        <time>2010-01-01T07:24:06Z</time>
      </trkpt>
      <trkpt lat="42.17539" lon="2.54113">
        <ele>706</ele>
        <time>2010-01-01T07:24:12Z</time>
      </trkpt>
      <trkpt lat="42.17553" lon="2.54097">
        <ele>703</ele>
        <time>2010-01-01T07:24:20Z</time>
      </trkpt>
      <trkpt lat="42.17553" lon="2.54093">
        <ele>704</ele>
        <time>2010-01-01T07:24:21Z</time>
      </trkpt>
      <trkpt lat="42.17556" lon="2.54086">
        <ele>705</ele>
        <time>2010-01-01T07:24:23Z</time>
      </trkpt>
      <trkpt lat="42.17558" lon="2.54077">
        <ele>706</ele>
        <time>2010-01-01T07:24:26Z</time>
      </trkpt>
      <trkpt lat="42.17553" lon="2.54052">
        <ele>712</ele>
        <time>2010-01-01T07:24:34Z</time>
      </trkpt>
      <trkpt lat="42.17553" lon="2.54029">
        <ele>714</ele>
        <time>2010-01-01T07:24:40Z</time>
      </trkpt>
      <trkpt lat="42.17552" lon="2.54016">
        <ele>716</ele>
        <time>2010-01-01T07:24:44Z</time>
      </trkpt>
      <trkpt lat="42.17547" lon="2.54008">
        <ele>718</ele>
        <time>2010-01-01T07:24:48Z</time>
      </trkpt>
      <trkpt lat="42.17547" lon="2.54004">
        <ele>718</ele>
        <time>2010-01-01T07:24:49Z</time>
      </trkpt>
      <trkpt lat="42.17552" lon="2.5399">
        <ele>718</ele>
        <time>2010-01-01T07:24:53Z</time>
      </trkpt>
      <trkpt lat="42.17554" lon="2.53985">
        <ele>718</ele>
        <time>2010-01-01T07:24:55Z</time>
      </trkpt>
      <trkpt lat="42.17567" lon="2.53967">
        <ele>716</ele>
        <time>2010-01-01T07:25:03Z</time>
      </trkpt>
      <trkpt lat="42.17578" lon="2.5396">
        <ele>714</ele>
        <time>2010-01-01T07:25:07Z</time>
      </trkpt>
      <trkpt lat="42.17591" lon="2.53939">
        <ele>713</ele>
        <time>2010-01-01T07:25:15Z</time>
      </trkpt>
      <trkpt lat="42.17594" lon="2.53929">
        <ele>713</ele>
        <time>2010-01-01T07:25:19Z</time>
      </trkpt>
      <trkpt lat="42.17598" lon="2.53903">
        <ele>714</ele>
        <time>2010-01-01T07:25:27Z</time>
      </trkpt>
      <trkpt lat="42.17594" lon="2.53893">
        <ele>715</ele>
        <time>2010-01-01T07:25:30Z</time>
      </trkpt>
      <trkpt lat="42.17594" lon="2.5389">
        <ele>716</ele>
        <time>2010-01-01T07:25:31Z</time>
      </trkpt>
      <trkpt lat="42.17591" lon="2.53874">
        <ele>717</ele>
        <time>2010-01-01T07:25:36Z</time>
      </trkpt>
      <trkpt lat="42.17585" lon="2.53859">
        <ele>719</ele>
        <time>2010-01-01T07:25:41Z</time>
      </trkpt>
      <trkpt lat="42.17585" lon="2.53852">
        <ele>719</ele>
        <time>2010-01-01T07:25:43Z</time>
      </trkpt>
      <trkpt lat="42.17587" lon="2.53836">
        <ele>719</ele>
        <time>2010-01-01T07:25:48Z</time>
      </trkpt>
      <trkpt lat="42.1759" lon="2.53813">
        <ele>721</ele>
        <time>2010-01-01T07:25:55Z</time>
      </trkpt>
      <trkpt lat="42.17588" lon="2.53798">
        <ele>723</ele>
        <time>2010-01-01T07:25:59Z</time>
      </trkpt>
      <trkpt lat="42.17587" lon="2.53793">
        <ele>724</ele>
        <time>2010-01-01T07:26:01Z</time>
      </trkpt>
      <trkpt lat="42.17581" lon="2.53768">
        <ele>729</ele>
        <time>2010-01-01T07:26:08Z</time>
      </trkpt>
      <trkpt lat="42.17587" lon="2.53751">
        <ele>729</ele>
        <time>2010-01-01T07:26:14Z</time>
      </trkpt>
      <trkpt lat="42.17591" lon="2.53748">
        <ele>729</ele>
        <time>2010-01-01T07:26:16Z</time>
      </trkpt>
      <trkpt lat="42.17597" lon="2.53745">
        <ele>728</ele>
        <time>2010-01-01T07:26:18Z</time>
      </trkpt>
      <trkpt lat="42.17598" lon="2.53742">
        <ele>729</ele>
        <time>2010-01-01T07:26:19Z</time>
      </trkpt>
      <trkpt lat="42.17608" lon="2.53735">
        <ele>728</ele>
        <time>2010-01-01T07:26:24Z</time>
      </trkpt>
      <trkpt lat="42.17619" lon="2.53719">
        <ele>729</ele>
        <time>2010-01-01T07:26:30Z</time>
      </trkpt>
      <trkpt lat="42.17632" lon="2.53702">
        <ele>729</ele>
        <time>2010-01-01T07:26:38Z</time>
      </trkpt>
      <trkpt lat="42.17637" lon="2.53694">
        <ele>729</ele>
        <time>2010-01-01T07:26:41Z</time>
      </trkpt>
      <trkpt lat="42.17644" lon="2.53681">
        <ele>729</ele>
        <time>2010-01-01T07:26:45Z</time>
      </trkpt>
      <trkpt lat="42.17649" lon="2.53659">
        <ele>730</ele>
        <time>2010-01-01T07:26:52Z</time>
      </trkpt>
      <trkpt lat="42.17651" lon="2.53655">
        <ele>729</ele>
        <time>2010-01-01T07:26:54Z</time>
      </trkpt>
      <trkpt lat="42.17655" lon="2.53633">
        <ele>730</ele>
        <time>2010-01-01T07:27:00Z</time>
      </trkpt>
      <trkpt lat="42.17663" lon="2.53612">
        <ele>730</ele>
        <time>2010-01-01T07:27:07Z</time>
      </trkpt>
      <trkpt lat="42.17674" lon="2.53593">
        <ele>727</ele>
        <time>2010-01-01T07:27:14Z</time>
      </trkpt>
      <trkpt lat="42.17678" lon="2.53584">
        <ele>726</ele>
        <time>2010-01-01T07:27:18Z</time>
      </trkpt>
      <trkpt lat="42.17681" lon="2.5358">
        <ele>725</ele>
        <time>2010-01-01T07:27:19Z</time>
      </trkpt>
      <trkpt lat="42.17682" lon="2.53573">
        <ele>725</ele>
        <time>2010-01-01T07:27:21Z</time>
      </trkpt>
      <trkpt lat="42.17688" lon="2.53543">
        <ele>726</ele>
        <time>2010-01-01T07:27:31Z</time>
      </trkpt>
      <trkpt lat="42.17687" lon="2.53532">
        <ele>726</ele>
        <time>2010-01-01T07:27:34Z</time>
      </trkpt>
      <trkpt lat="42.17685" lon="2.5352">
        <ele>727</ele>
        <time>2010-01-01T07:27:38Z</time>
      </trkpt>
      <trkpt lat="42.17686" lon="2.53518">
        <ele>727</ele>
        <time>2010-01-01T07:27:39Z</time>
      </trkpt>
      <trkpt lat="42.17687" lon="2.53517">
        <ele>727</ele>
        <time>2010-01-01T07:27:39Z</time>
      </trkpt>
      <trkpt lat="42.17692" lon="2.53496">
        <ele>726</ele>
        <time>2010-01-01T07:27:46Z</time>
      </trkpt>
      <trkpt lat="42.17695" lon="2.5347">
        <ele>724</ele>
        <time>2010-01-01T07:27:53Z</time>
      </trkpt>
      <trkpt lat="42.17685" lon="2.53446">
        <ele>723</ele>
        <time>2010-01-01T07:28:01Z</time>
      </trkpt>
      <trkpt lat="42.17676" lon="2.53433">
        <ele>723</ele>
        <time>2010-01-01T07:28:07Z</time>
      </trkpt>
      <trkpt lat="42.1767" lon="2.5341">
        <ele>720</ele>
        <time>2010-01-01T07:28:14Z</time>
      </trkpt>
      <trkpt lat="42.17663" lon="2.53398">
        <ele>718</ele>
        <time>2010-01-01T07:28:18Z</time>
      </trkpt>
      <trkpt lat="42.17652" lon="2.53381">
        <ele>716</ele>
        <time>2010-01-01T07:28:25Z</time>
      </trkpt>
      <trkpt lat="42.17648" lon="2.53378">
        <ele>716</ele>
        <time>2010-01-01T07:28:27Z</time>
      </trkpt>
      <trkpt lat="42.1764" lon="2.53371">
        <ele>716</ele>
        <time>2010-01-01T07:28:31Z</time>
      </trkpt>
      <trkpt lat="42.17636" lon="2.53367">
        <ele>716</ele>
        <time>2010-01-01T07:28:32Z</time>
      </trkpt>
      <trkpt lat="42.17622" lon="2.53364">
        <ele>717</ele>
        <time>2010-01-01T07:28:38Z</time>
      </trkpt>
      <trkpt lat="42.17607" lon="2.53356">
        <ele>719</ele>
        <time>2010-01-01T07:28:45Z</time>
      </trkpt>
      <trkpt lat="42.17594" lon="2.5335">
        <ele>720</ele>
        <time>2010-01-01T07:28:50Z</time>
      </trkpt>
      <trkpt lat="42.1758" lon="2.53343">
        <ele>721</ele>
        <time>2010-01-01T07:28:56Z</time>
      </trkpt>
      <trkpt lat="42.17568" lon="2.53342">
        <ele>722</ele>
        <time>2010-01-01T07:29:01Z</time>
      </trkpt>
      <trkpt lat="42.17546" lon="2.53328">
        <ele>722</ele>
        <time>2010-01-01T07:29:11Z</time>
      </trkpt>
      <trkpt lat="42.17522" lon="2.53316">
        <ele>723</ele>
        <time>2010-01-01T07:29:21Z</time>
      </trkpt>
      <trkpt lat="42.17517" lon="2.53313">
        <ele>723</ele>
        <time>2010-01-01T07:29:23Z</time>
      </trkpt>
      <trkpt lat="42.17516" lon="2.53313">
        <ele>723</ele>
        <time>2010-01-01T07:29:24Z</time>
      </trkpt>
      <trkpt lat="42.17498" lon="2.5331">
        <ele>724</ele>
        <time>2010-01-01T07:29:31Z</time>
      </trkpt>
      <trkpt lat="42.17475" lon="2.53304">
        <ele>724</ele>
        <time>2010-01-01T07:29:40Z</time>
      </trkpt>
      <trkpt lat="42.17463" lon="2.53286">
        <ele>724</ele>
        <time>2010-01-01T07:29:47Z</time>
      </trkpt>
      <trkpt lat="42.17453" lon="2.53272">
        <ele>724</ele>
        <time>2010-01-01T07:29:53Z</time>
      </trkpt>
      <trkpt lat="42.17446" lon="2.53251">
        <ele>724</ele>
        <time>2010-01-01T07:30:00Z</time>
      </trkpt>
      <trkpt lat="42.17437" lon="2.53229">
        <ele>726</ele>
        <time>2010-01-01T07:30:08Z</time>
      </trkpt>
      <trkpt lat="42.17432" lon="2.5322">
        <ele>727</ele>
        <time>2010-01-01T07:30:11Z</time>
      </trkpt>
      <trkpt lat="42.17414" lon="2.53201">
        <ele>727</ele>
        <time>2010-01-01T07:30:20Z</time>
      </trkpt>
      <trkpt lat="42.17414" lon="2.53169">
        <ele>727</ele>
        <time>2010-01-01T07:30:30Z</time>
      </trkpt>
      <trkpt lat="42.17424" lon="2.53133">
        <ele>725</ele>
        <time>2010-01-01T07:30:41Z</time>
      </trkpt>
      <trkpt lat="42.17427" lon="2.53124">
        <ele>725</ele>
        <time>2010-01-01T07:30:44Z</time>
      </trkpt>
      <trkpt lat="42.17434" lon="2.53106">
        <ele>723</ele>
        <time>2010-01-01T07:30:50Z</time>
      </trkpt>
      <trkpt lat="42.17441" lon="2.53079">
        <ele>721</ele>
        <time>2010-01-01T07:30:58Z</time>
      </trkpt>
      <trkpt lat="42.17447" lon="2.53046">
        <ele>720</ele>
        <time>2010-01-01T07:31:09Z</time>
      </trkpt>
      <trkpt lat="42.17447" lon="2.53015">
        <ele>722</ele>
        <time>2010-01-01T07:31:18Z</time>
      </trkpt>
      <trkpt lat="42.17441" lon="2.52986">
        <ele>724</ele>
        <time>2010-01-01T07:31:27Z</time>
      </trkpt>
      <trkpt lat="42.17441" lon="2.52978">
        <ele>724</ele>
        <time>2010-01-01T07:31:29Z</time>
      </trkpt>
      <trkpt lat="42.17443" lon="2.52972">
        <ele>725</ele>
        <time>2010-01-01T07:31:31Z</time>
      </trkpt>
      <trkpt lat="42.17462" lon="2.52957">
        <ele>726</ele>
        <time>2010-01-01T07:31:40Z</time>
      </trkpt>
      <trkpt lat="42.17469" lon="2.52953">
        <ele>726</ele>
        <time>2010-01-01T07:31:43Z</time>
      </trkpt>
      <trkpt lat="42.17484" lon="2.52932">
        <ele>726</ele>
        <time>2010-01-01T07:31:52Z</time>
      </trkpt>
      <trkpt lat="42.17489" lon="2.52923">
        <ele>726</ele>
        <time>2010-01-01T07:31:55Z</time>
      </trkpt>
      <trkpt lat="42.175" lon="2.52908">
        <ele>725</ele>
        <time>2010-01-01T07:32:01Z</time>
      </trkpt>
      <trkpt lat="42.17501" lon="2.5289">
        <ele>724</ele>
        <time>2010-01-01T07:32:07Z</time>
      </trkpt>
      <trkpt lat="42.17502" lon="2.52886">
        <ele>724</ele>
        <time>2010-01-01T07:32:08Z</time>
      </trkpt>
      <trkpt lat="42.17502" lon="2.52871">
        <ele>724</ele>
        <time>2010-01-01T07:32:12Z</time>
      </trkpt>
      <trkpt lat="42.175" lon="2.52857">
        <ele>725</ele>
        <time>2010-01-01T07:32:17Z</time>
      </trkpt>
      <trkpt lat="42.17504" lon="2.52845">
        <ele>724</ele>
        <time>2010-01-01T07:32:20Z</time>
      </trkpt>
      <trkpt lat="42.17498" lon="2.52841">
        <ele>725</ele>
        <time>2010-01-01T07:32:23Z</time>
      </trkpt>
      <trkpt lat="42.17497" lon="2.52841">
        <ele>725</ele>
        <time>2010-01-01T07:32:23Z</time>
      </trkpt>
      <trkpt lat="42.17497" lon="2.52841">
        <ele>725</ele>
        <time>2010-01-01T07:32:24Z</time>
      </trkpt>
      <trkpt lat="42.17497" lon="2.5284">
        <ele>725</ele>
        <time>2010-01-01T07:32:24Z</time>
      </trkpt>
      <trkpt lat="42.17498" lon="2.52841">
        <ele>725</ele>
        <time>2010-01-01T07:32:24Z</time>
      </trkpt>
      <trkpt lat="42.175" lon="2.5284">
        <ele>724</ele>
        <time>2010-01-01T07:32:25Z</time>
      </trkpt>
      <trkpt lat="42.17502" lon="2.52841">
        <ele>724</ele>
        <time>2010-01-01T07:32:26Z</time>
      </trkpt>
      <trkpt lat="42.17499" lon="2.5284">
        <ele>725</ele>
        <time>2010-01-01T07:32:28Z</time>
      </trkpt>
      <trkpt lat="42.17499" lon="2.5284">
        <ele>725</ele>
        <time>2010-01-01T07:32:28Z</time>
      </trkpt>
      <trkpt lat="42.17499" lon="2.52843">
        <ele>725</ele>
        <time>2010-01-01T07:32:29Z</time>
      </trkpt>
      <trkpt lat="42.17499" lon="2.52841">
        <ele>725</ele>
        <time>2010-01-01T07:32:29Z</time>
      </trkpt>
      <trkpt lat="42.175" lon="2.52844">
        <ele>725</ele>
        <time>2010-01-01T07:32:30Z</time>
      </trkpt>
      <trkpt lat="42.17501" lon="2.52844">
        <ele>724</ele>
        <time>2010-01-01T07:32:30Z</time>
      </trkpt>
      <trkpt lat="42.17506" lon="2.52835">
        <ele>724</ele>
        <time>2010-01-01T07:32:34Z</time>
      </trkpt>
      <trkpt lat="42.17507" lon="2.52826">
        <ele>724</ele>
        <time>2010-01-01T07:32:36Z</time>
      </trkpt>
      <trkpt lat="42.17512" lon="2.52803">
        <ele>723</ele>
        <time>2010-01-01T07:32:44Z</time>
      </trkpt>
      <trkpt lat="42.1753" lon="2.52808">
        <ele>721</ele>
        <time>2010-01-01T07:32:51Z</time>
      </trkpt>
      <trkpt lat="42.17548" lon="2.52813">
        <ele>720</ele>
        <time>2010-01-01T07:32:58Z</time>
      </trkpt>
      <trkpt lat="42.17562" lon="2.52816">
        <ele>718</ele>
        <time>2010-01-01T07:33:04Z</time>
      </trkpt>
      <trkpt lat="42.17569" lon="2.52819">
        <ele>717</ele>
        <time>2010-01-01T07:33:07Z</time>
      </trkpt>
      <trkpt lat="42.17579" lon="2.52831">
        <ele>716</ele>
        <time>2010-01-01T07:33:12Z</time>
      </trkpt>
      <trkpt lat="42.17595" lon="2.52837">
        <ele>715</ele>
        <time>2010-01-01T07:33:19Z</time>
      </trkpt>
      <trkpt lat="42.17604" lon="2.52838">
        <ele>715</ele>
        <time>2010-01-01T07:33:22Z</time>
      </trkpt>
      <trkpt lat="42.17611" lon="2.52841">
        <ele>715</ele>
        <time>2010-01-01T07:33:25Z</time>
      </trkpt>
      <trkpt lat="42.17611" lon="2.52843">
        <ele>715</ele>
        <time>2010-01-01T07:33:26Z</time>
      </trkpt>
      <trkpt lat="42.17622" lon="2.52854">
        <ele>714</ele>
        <time>2010-01-01T07:33:31Z</time>
      </trkpt>
      <trkpt lat="42.17632" lon="2.52861">
        <ele>712</ele>
        <time>2010-01-01T07:33:36Z</time>
      </trkpt>
      <trkpt lat="42.17637" lon="2.52869">
        <ele>711</ele>
        <time>2010-01-01T07:33:39Z</time>
      </trkpt>
      <trkpt lat="42.1764" lon="2.52876">
        <ele>709</ele>
        <time>2010-01-01T07:33:41Z</time>
      </trkpt>
      <trkpt lat="42.17644" lon="2.52887">
        <ele>706</ele>
        <time>2010-01-01T07:33:45Z</time>
      </trkpt>
      <trkpt lat="42.17648" lon="2.52901">
        <ele>704</ele>
        <time>2010-01-01T07:33:49Z</time>
      </trkpt>
      <trkpt lat="42.1765" lon="2.52917">
        <ele>702</ele>
        <time>2010-01-01T07:33:54Z</time>
      </trkpt>
      <trkpt lat="42.17651" lon="2.52936">
        <ele>701</ele>
        <time>2010-01-01T07:34:00Z</time>
      </trkpt>
      <trkpt lat="42.17655" lon="2.52947">
        <ele>698</ele>
        <time>2010-01-01T07:34:03Z</time>
      </trkpt>
      <trkpt lat="42.17657" lon="2.5295">
        <ele>698</ele>
        <time>2010-01-01T07:34:04Z</time>
      </trkpt>
      <trkpt lat="42.17663" lon="2.52951">
        <ele>695</ele>
        <time>2010-01-01T07:34:07Z</time>
      </trkpt>
      <trkpt lat="42.17668" lon="2.52932">
        <ele>694</ele>
        <time>2010-01-01T07:34:13Z</time>
      </trkpt>
      <trkpt lat="42.17676" lon="2.52915">
        <ele>693</ele>
        <time>2010-01-01T07:34:19Z</time>
      </trkpt>
      <trkpt lat="42.17681" lon="2.52906">
        <ele>692</ele>
        <time>2010-01-01T07:34:22Z</time>
      </trkpt>
      <trkpt lat="42.17685" lon="2.52902">
        <ele>690</ele>
        <time>2010-01-01T07:34:24Z</time>
      </trkpt>
      <trkpt lat="42.17683" lon="2.52917">
        <ele>690</ele>
        <time>2010-01-01T07:34:29Z</time>
      </trkpt>
      <trkpt lat="42.17684" lon="2.52928">
        <ele>690</ele>
        <time>2010-01-01T07:34:32Z</time>
      </trkpt>
      <trkpt lat="42.17682" lon="2.52945">
        <ele>690</ele>
        <time>2010-01-01T07:34:37Z</time>
      </trkpt>
      <trkpt lat="42.17689" lon="2.52963">
        <ele>688</ele>
        <time>2010-01-01T07:34:43Z</time>
      </trkpt>
      <trkpt lat="42.17695" lon="2.52984">
        <ele>687</ele>
        <time>2010-01-01T07:34:50Z</time>
      </trkpt>
      <trkpt lat="42.17698" lon="2.53003">
        <ele>686</ele>
        <time>2010-01-01T07:34:56Z</time>
      </trkpt>
      <trkpt lat="42.17709" lon="2.53016">
        <ele>683</ele>
        <time>2010-01-01T07:35:01Z</time>
      </trkpt>
      <trkpt lat="42.17717" lon="2.53023">
        <ele>681</ele>
        <time>2010-01-01T07:35:05Z</time>
      </trkpt>
      <trkpt lat="42.17727" lon="2.5302">
        <ele>679</ele>
        <time>2010-01-01T07:35:09Z</time>
      </trkpt>
      <trkpt lat="42.17732" lon="2.53003">
        <ele>677</ele>
        <time>2010-01-01T07:35:15Z</time>
      </trkpt>
      <trkpt lat="42.17735" lon="2.52987">
        <ele>676</ele>
        <time>2010-01-01T07:35:20Z</time>
      </trkpt>
      <trkpt lat="42.17745" lon="2.5297">
        <ele>672</ele>
        <time>2010-01-01T07:35:26Z</time>
      </trkpt>
      <trkpt lat="42.17749" lon="2.52954">
        <ele>671</ele>
        <time>2010-01-01T07:35:31Z</time>
      </trkpt>
      <trkpt lat="42.17757" lon="2.52935">
        <ele>669</ele>
        <time>2010-01-01T07:35:38Z</time>
      </trkpt>
      <trkpt lat="42.17763" lon="2.52921">
        <ele>666</ele>
        <time>2010-01-01T07:35:42Z</time>
      </trkpt>
      <trkpt lat="42.17768" lon="2.52906">
        <ele>663</ele>
        <time>2010-01-01T07:35:47Z</time>
      </trkpt>
      <trkpt lat="42.1777" lon="2.52902">
        <ele>662</ele>
        <time>2010-01-01T07:35:49Z</time>
      </trkpt>
      <trkpt lat="42.17774" lon="2.52891">
        <ele>660</ele>
        <time>2010-01-01T07:35:53Z</time>
      </trkpt>
      <trkpt lat="42.17777" lon="2.52872">
        <ele>658</ele>
        <time>2010-01-01T07:35:58Z</time>
      </trkpt>
      <trkpt lat="42.17779" lon="2.5287">
        <ele>657</ele>
        <time>2010-01-01T07:35:59Z</time>
      </trkpt>
      <trkpt lat="42.17782" lon="2.5288">
        <ele>657</ele>
        <time>2010-01-01T07:36:02Z</time>
      </trkpt>
      <trkpt lat="42.1778" lon="2.529">
        <ele>659</ele>
        <time>2010-01-01T07:36:09Z</time>
      </trkpt>
      <trkpt lat="42.17782" lon="2.52914">
        <ele>659</ele>
        <time>2010-01-01T07:36:13Z</time>
      </trkpt>
      <trkpt lat="42.17782" lon="2.52936">
        <ele>660</ele>
        <time>2010-01-01T07:36:19Z</time>
      </trkpt>
      <trkpt lat="42.17784" lon="2.5295">
        <ele>659</ele>
        <time>2010-01-01T07:36:24Z</time>
      </trkpt>
      <trkpt lat="42.17786" lon="2.5296">
        <ele>660</ele>
        <time>2010-01-01T07:36:27Z</time>
      </trkpt>
      <trkpt lat="42.17799" lon="2.52952">
        <ele>654</ele>
        <time>2010-01-01T07:36:33Z</time>
      </trkpt>
      <trkpt lat="42.17807" lon="2.52935">
        <ele>650</ele>
        <time>2010-01-01T07:36:38Z</time>
      </trkpt>
      <trkpt lat="42.1781" lon="2.52922">
        <ele>648</ele>
        <time>2010-01-01T07:36:42Z</time>
      </trkpt>
      <trkpt lat="42.17814" lon="2.52907">
        <ele>647</ele>
        <time>2010-01-01T07:36:47Z</time>
      </trkpt>
      <trkpt lat="42.17822" lon="2.52893">
        <ele>645</ele>
        <time>2010-01-01T07:36:52Z</time>
      </trkpt>
      <trkpt lat="42.17828" lon="2.52893">
        <ele>643</ele>
        <time>2010-01-01T07:36:55Z</time>
      </trkpt>
      <trkpt lat="42.17827" lon="2.52908">
        <ele>643</ele>
        <time>2010-01-01T07:36:59Z</time>
      </trkpt>
      <trkpt lat="42.17826" lon="2.52919">
        <ele>644</ele>
        <time>2010-01-01T07:37:03Z</time>
      </trkpt>
      <trkpt lat="42.17833" lon="2.52926">
        <ele>642</ele>
        <time>2010-01-01T07:37:06Z</time>
      </trkpt>
      <trkpt lat="42.17843" lon="2.52909">
        <ele>639</ele>
        <time>2010-01-01T07:37:13Z</time>
      </trkpt>
      <trkpt lat="42.17844" lon="2.52906">
        <ele>639</ele>
        <time>2010-01-01T07:37:14Z</time>
      </trkpt>
      <trkpt lat="42.17849" lon="2.52897">
        <ele>638</ele>
        <time>2010-01-01T07:37:17Z</time>
      </trkpt>
      <trkpt lat="42.1785" lon="2.52893">
        <ele>638</ele>
        <time>2010-01-01T07:37:18Z</time>
      </trkpt>
      <trkpt lat="42.17852" lon="2.52889">
        <ele>638</ele>
        <time>2010-01-01T07:37:19Z</time>
      </trkpt>
      <trkpt lat="42.1786" lon="2.52865">
        <ele>636</ele>
        <time>2010-01-01T07:37:27Z</time>
      </trkpt>
      <trkpt lat="42.17859" lon="2.52861">
        <ele>636</ele>
        <time>2010-01-01T07:37:29Z</time>
      </trkpt>
      <trkpt lat="42.17857" lon="2.52849">
        <ele>636</ele>
        <time>2010-01-01T07:37:32Z</time>
      </trkpt>
      <trkpt lat="42.17856" lon="2.52821">
        <ele>636</ele>
        <time>2010-01-01T07:37:40Z</time>
      </trkpt>
      <trkpt lat="42.17855" lon="2.5282">
        <ele>637</ele>
        <time>2010-01-01T07:37:41Z</time>
      </trkpt>
      <trkpt lat="42.17857" lon="2.52801">
        <ele>637</ele>
        <time>2010-01-01T07:37:47Z</time>
      </trkpt>
      <trkpt lat="42.17862" lon="2.52788">
        <ele>636</ele>
        <time>2010-01-01T07:37:51Z</time>
      </trkpt>
      <trkpt lat="42.17869" lon="2.52776">
        <ele>635</ele>
        <time>2010-01-01T07:37:56Z</time>
      </trkpt>
      <trkpt lat="42.17866" lon="2.52772">
        <ele>637</ele>
        <time>2010-01-01T07:37:57Z</time>
      </trkpt>
      <trkpt lat="42.17858" lon="2.52768">
        <ele>640</ele>
        <time>2010-01-01T07:38:01Z</time>
      </trkpt>
      <trkpt lat="42.17858" lon="2.52762">
        <ele>642</ele>
        <time>2010-01-01T07:38:02Z</time>
      </trkpt>
      <trkpt lat="42.17862" lon="2.52767">
        <ele>639</ele>
        <time>2010-01-01T07:38:04Z</time>
      </trkpt>
      <trkpt lat="42.1786" lon="2.52764">
        <ele>640</ele>
        <time>2010-01-01T07:38:06Z</time>
      </trkpt>
      <trkpt lat="42.17863" lon="2.52769">
        <ele>638</ele>
        <time>2010-01-01T07:38:08Z</time>
      </trkpt>
      <trkpt lat="42.17859" lon="2.52765">
        <ele>641</ele>
        <time>2010-01-01T07:38:10Z</time>
      </trkpt>
      <trkpt lat="42.17861" lon="2.52769">
        <ele>639</ele>
        <time>2010-01-01T07:38:11Z</time>
      </trkpt>
      <trkpt lat="42.17871" lon="2.52764">
        <ele>637</ele>
        <time>2010-01-01T07:38:15Z</time>
      </trkpt>
      <trkpt lat="42.17882" lon="2.52757">
        <ele>634</ele>
        <time>2010-01-01T07:38:20Z</time>
      </trkpt>
      <trkpt lat="42.17886" lon="2.52751">
        <ele>633</ele>
        <time>2010-01-01T07:38:23Z</time>
      </trkpt>
      <trkpt lat="42.17885" lon="2.52749">
        <ele>634</ele>
        <time>2010-01-01T07:38:23Z</time>
      </trkpt>
      <trkpt lat="42.17883" lon="2.52748">
        <ele>635</ele>
        <time>2010-01-01T07:38:24Z</time>
      </trkpt>
      <trkpt lat="42.17884" lon="2.52743">
        <ele>635</ele>
        <time>2010-01-01T07:38:25Z</time>
      </trkpt>
      <trkpt lat="42.17884" lon="2.52742">
        <ele>635</ele>
        <time>2010-01-01T07:38:26Z</time>
      </trkpt>
      <trkpt lat="42.17885" lon="2.52741">
        <ele>635</ele>
        <time>2010-01-01T07:38:26Z</time>
      </trkpt>
      <trkpt lat="42.17885" lon="2.5274">
        <ele>635</ele>
        <time>2010-01-01T07:38:27Z</time>
      </trkpt>
      <trkpt lat="42.17886" lon="2.52736">
        <ele>635</ele>
        <time>2010-01-01T07:38:28Z</time>
      </trkpt>
      <trkpt lat="42.17888" lon="2.52731">
        <ele>636</ele>
        <time>2010-01-01T07:38:29Z</time>
      </trkpt>
      <trkpt lat="42.17887" lon="2.5272">
        <ele>638</ele>
        <time>2010-01-01T07:38:33Z</time>
      </trkpt>
      <trkpt lat="42.17888" lon="2.52717">
        <ele>637</ele>
        <time>2010-01-01T07:38:34Z</time>
      </trkpt>
      <trkpt lat="42.17893" lon="2.52704">
        <ele>637</ele>
        <time>2010-01-01T07:38:38Z</time>
      </trkpt>
      <trkpt lat="42.17894" lon="2.52699">
        <ele>637</ele>
        <time>2010-01-01T07:38:40Z</time>
      </trkpt>
      <trkpt lat="42.17894" lon="2.52696">
        <ele>637</ele>
        <time>2010-01-01T07:38:41Z</time>
      </trkpt>
      <trkpt lat="42.17896" lon="2.52688">
        <ele>637</ele>
        <time>2010-01-01T07:38:43Z</time>
      </trkpt>
      <trkpt lat="42.17894" lon="2.52676">
        <ele>639</ele>
        <time>2010-01-01T07:38:47Z</time>
      </trkpt>
      <trkpt lat="42.17895" lon="2.52667">
        <ele>640</ele>
        <time>2010-01-01T07:38:49Z</time>
      </trkpt>
      <trkpt lat="42.17897" lon="2.52651">
        <ele>640</ele>
        <time>2010-01-01T07:38:54Z</time>
      </trkpt>
      <trkpt lat="42.17901" lon="2.52635">
        <ele>640</ele>
        <time>2010-01-01T07:38:59Z</time>
      </trkpt>
      <trkpt lat="42.1791" lon="2.52617">
        <ele>638</ele>
        <time>2010-01-01T07:39:06Z</time>
      </trkpt>
      <trkpt lat="42.17916" lon="2.5261">
        <ele>636</ele>
        <time>2010-01-01T07:39:09Z</time>
      </trkpt>
      <trkpt lat="42.17928" lon="2.52591">
        <ele>633</ele>
        <time>2010-01-01T07:39:16Z</time>
      </trkpt>
      <trkpt lat="42.17934" lon="2.5258">
        <ele>632</ele>
        <time>2010-01-01T07:39:20Z</time>
      </trkpt>
      <trkpt lat="42.17942" lon="2.52569">
        <ele>631</ele>
        <time>2010-01-01T07:39:25Z</time>
      </trkpt>
      <trkpt lat="42.17944" lon="2.52568">
        <ele>631</ele>
        <time>2010-01-01T07:39:26Z</time>
      </trkpt>
      <trkpt lat="42.17955" lon="2.52552">
        <ele>629</ele>
        <time>2010-01-01T07:39:32Z</time>
      </trkpt>
      <trkpt lat="42.17963" lon="2.52536">
        <ele>628</ele>
        <time>2010-01-01T07:39:38Z</time>
      </trkpt>
      <trkpt lat="42.17973" lon="2.52517">
        <ele>626</ele>
        <time>2010-01-01T07:39:45Z</time>
      </trkpt>
      <trkpt lat="42.17978" lon="2.52503">
        <ele>626</ele>
        <time>2010-01-01T07:39:49Z</time>
      </trkpt>
      <trkpt lat="42.17979" lon="2.52498">
        <ele>626</ele>
        <time>2010-01-01T07:39:51Z</time>
      </trkpt>
      <trkpt lat="42.17988" lon="2.52479">
        <ele>626</ele>
        <time>2010-01-01T07:39:58Z</time>
      </trkpt>
      <trkpt lat="42.1799" lon="2.52474">
        <ele>625</ele>
        <time>2010-01-01T07:39:59Z</time>
      </trkpt>
      <trkpt lat="42.17992" lon="2.52466">
        <ele>625</ele>
        <time>2010-01-01T07:40:02Z</time>
      </trkpt>
      <trkpt lat="42.17994" lon="2.52456">
        <ele>625</ele>
        <time>2010-01-01T07:40:05Z</time>
      </trkpt>
      <trkpt lat="42.17994" lon="2.52453">
        <ele>626</ele>
        <time>2010-01-01T07:40:06Z</time>
      </trkpt>
      <trkpt lat="42.18001" lon="2.5244">
        <ele>625</ele>
        <time>2010-01-01T07:40:11Z</time>
      </trkpt>
      <trkpt lat="42.18001" lon="2.52434">
        <ele>626</ele>
        <time>2010-01-01T07:40:12Z</time>
      </trkpt>
      <trkpt lat="42.18004" lon="2.52424">
        <ele>627</ele>
        <time>2010-01-01T07:40:15Z</time>
      </trkpt>
      <trkpt lat="42.18024" lon="2.52405">
        <ele>623</ele>
        <time>2010-01-01T07:40:25Z</time>
      </trkpt>
      <trkpt lat="42.18033" lon="2.52392">
        <ele>624</ele>
        <time>2010-01-01T07:40:31Z</time>
      </trkpt>
      <trkpt lat="42.18045" lon="2.52376">
        <ele>624</ele>
        <time>2010-01-01T07:40:37Z</time>
      </trkpt>
      <trkpt lat="42.18055" lon="2.52354">
        <ele>626</ele>
        <time>2010-01-01T07:40:45Z</time>
      </trkpt>
      <trkpt lat="42.18064" lon="2.52343">
        <ele>625</ele>
        <time>2010-01-01T07:40:50Z</time>
      </trkpt>
      <trkpt lat="42.18068" lon="2.52336">
        <ele>625</ele>
        <time>2010-01-01T07:40:52Z</time>
      </trkpt>
      <trkpt lat="42.18068" lon="2.52334">
        <ele>626</ele>
        <time>2010-01-01T07:40:53Z</time>
      </trkpt>
      <trkpt lat="42.18072" lon="2.52335">
        <ele>625</ele>
        <time>2010-01-01T07:40:55Z</time>
      </trkpt>
      <trkpt lat="42.18084" lon="2.52333">
        <ele>622</ele>
        <time>2010-01-01T07:41:00Z</time>
      </trkpt>
      <trkpt lat="42.18092" lon="2.52316">
        <ele>620</ele>
        <time>2010-01-01T07:41:06Z</time>
      </trkpt>
      <trkpt lat="42.18093" lon="2.52299">
        <ele>620</ele>
        <time>2010-01-01T07:41:11Z</time>
      </trkpt>
      <trkpt lat="42.18097" lon="2.52283">
        <ele>618</ele>
        <time>2010-01-01T07:41:16Z</time>
      </trkpt>
      <trkpt lat="42.18102" lon="2.52259">
        <ele>615</ele>
        <time>2010-01-01T07:41:23Z</time>
      </trkpt>
      <trkpt lat="42.18102" lon="2.52258">
        <ele>615</ele>
        <time>2010-01-01T07:41:23Z</time>
      </trkpt>
      <trkpt lat="42.18104" lon="2.52256">
        <ele>614</ele>
        <time>2010-01-01T07:41:24Z</time>
      </trkpt>
      <trkpt lat="42.18103" lon="2.52238">
        <ele>612</ele>
        <time>2010-01-01T07:41:30Z</time>
      </trkpt>
      <trkpt lat="42.181" lon="2.5223">
        <ele>612</ele>
        <time>2010-01-01T07:41:32Z</time>
      </trkpt>
      <trkpt lat="42.18096" lon="2.52214">
        <ele>613</ele>
        <time>2010-01-01T07:41:37Z</time>
      </trkpt>
      <trkpt lat="42.18088" lon="2.5219">
        <ele>615</ele>
        <time>2010-01-01T07:41:45Z</time>
      </trkpt>
      <trkpt lat="42.18085" lon="2.52181">
        <ele>616</ele>
        <time>2010-01-01T07:41:48Z</time>
      </trkpt>
      <trkpt lat="42.18087" lon="2.52178">
        <ele>615</ele>
        <time>2010-01-01T07:41:49Z</time>
      </trkpt>
      <trkpt lat="42.18096" lon="2.52154">
        <ele>612</ele>
        <time>2010-01-01T07:41:57Z</time>
      </trkpt>
      <trkpt lat="42.18101" lon="2.52132">
        <ele>610</ele>
        <time>2010-01-01T07:42:04Z</time>
      </trkpt>
      <trkpt lat="42.181" lon="2.52111">
        <ele>611</ele>
        <time>2010-01-01T07:42:10Z</time>
      </trkpt>
      <trkpt lat="42.18101" lon="2.52105">
        <ele>610</ele>
        <time>2010-01-01T07:42:12Z</time>
      </trkpt>
      <trkpt lat="42.18108" lon="2.52095">
        <ele>607</ele>
        <time>2010-01-01T07:42:16Z</time>
      </trkpt>
      <trkpt lat="42.18109" lon="2.52087">
        <ele>607</ele>
        <time>2010-01-01T07:42:18Z</time>
      </trkpt>
      <trkpt lat="42.18115" lon="2.52074">
        <ele>604</ele>
        <time>2010-01-01T07:42:23Z</time>
      </trkpt>
      <trkpt lat="42.18121" lon="2.52067">
        <ele>602</ele>
        <time>2010-01-01T07:42:26Z</time>
      </trkpt>
      <trkpt lat="42.18126" lon="2.5206">
        <ele>601</ele>
        <time>2010-01-01T07:42:29Z</time>
      </trkpt>
      <trkpt lat="42.18128" lon="2.5205">
        <ele>600</ele>
        <time>2010-01-01T07:42:32Z</time>
      </trkpt>
      <trkpt lat="42.18135" lon="2.52047">
        <ele>598</ele>
        <time>2010-01-01T07:42:35Z</time>
      </trkpt>
      <trkpt lat="42.18141" lon="2.52041">
        <ele>596</ele>
        <time>2010-01-01T07:42:38Z</time>
      </trkpt>
      <trkpt lat="42.18145" lon="2.52032">
        <ele>595</ele>
        <time>2010-01-01T07:42:41Z</time>
      </trkpt>
      <trkpt lat="42.18156" lon="2.52021">
        <ele>594</ele>
        <time>2010-01-01T07:42:47Z</time>
      </trkpt>
      <trkpt lat="42.18162" lon="2.52018">
        <ele>593</ele>
        <time>2010-01-01T07:42:49Z</time>
      </trkpt>
      <trkpt lat="42.18169" lon="2.51999">
        <ele>593</ele>
        <time>2010-01-01T07:42:55Z</time>
      </trkpt>
      <trkpt lat="42.18173" lon="2.51981">
        <ele>594</ele>
        <time>2010-01-01T07:43:01Z</time>
      </trkpt>
      <trkpt lat="42.1818" lon="2.51969">
        <ele>593</ele>
        <time>2010-01-01T07:43:06Z</time>
      </trkpt>
      <trkpt lat="42.18189" lon="2.51945">
        <ele>593</ele>
        <time>2010-01-01T07:43:13Z</time>
      </trkpt>
      <trkpt lat="42.1819" lon="2.51929">
        <ele>594</ele>
        <time>2010-01-01T07:43:18Z</time>
      </trkpt>
      <trkpt lat="42.18191" lon="2.5192">
        <ele>595</ele>
        <time>2010-01-01T07:43:21Z</time>
      </trkpt>
      <trkpt lat="42.18195" lon="2.51903">
        <ele>596</ele>
        <time>2010-01-01T07:43:26Z</time>
      </trkpt>
      <trkpt lat="42.18206" lon="2.51889">
        <ele>595</ele>
        <time>2010-01-01T07:43:32Z</time>
      </trkpt>
      <trkpt lat="42.18211" lon="2.5188">
        <ele>595</ele>
        <time>2010-01-01T07:43:36Z</time>
      </trkpt>
      <trkpt lat="42.18219" lon="2.51869">
        <ele>595</ele>
        <time>2010-01-01T07:43:40Z</time>
      </trkpt>
      <trkpt lat="42.18225" lon="2.51862">
        <ele>594</ele>
        <time>2010-01-01T07:43:43Z</time>
      </trkpt>
      <trkpt lat="42.18237" lon="2.51852">
        <ele>593</ele>
        <time>2010-01-01T07:43:49Z</time>
      </trkpt>
      <trkpt lat="42.18248" lon="2.51847">
        <ele>592</ele>
        <time>2010-01-01T07:43:54Z</time>
      </trkpt>
      <trkpt lat="42.18259" lon="2.51841">
        <ele>590</ele>
        <time>2010-01-01T07:43:59Z</time>
      </trkpt>
      <trkpt lat="42.18267" lon="2.51834">
        <ele>590</ele>
        <time>2010-01-01T07:44:02Z</time>
      </trkpt>
      <trkpt lat="42.18277" lon="2.51826">
        <ele>590</ele>
        <time>2010-01-01T07:44:07Z</time>
      </trkpt>
      <trkpt lat="42.1829" lon="2.51816">
        <ele>590</ele>
        <time>2010-01-01T07:44:13Z</time>
      </trkpt>
      <trkpt lat="42.18295" lon="2.51809">
        <ele>591</ele>
        <time>2010-01-01T07:44:16Z</time>
      </trkpt>
      <trkpt lat="42.18298" lon="2.51807">
        <ele>591</ele>
        <time>2010-01-01T07:44:17Z</time>
      </trkpt>
      <trkpt lat="42.18304" lon="2.51802">
        <ele>591</ele>
        <time>2010-01-01T07:44:20Z</time>
      </trkpt>
      <trkpt lat="42.18306" lon="2.51801">
        <ele>591</ele>
        <time>2010-01-01T07:44:21Z</time>
      </trkpt>
      <trkpt lat="42.1832" lon="2.51793">
        <ele>590</ele>
        <time>2010-01-01T07:44:27Z</time>
      </trkpt>
      <trkpt lat="42.18331" lon="2.5178">
        <ele>591</ele>
        <time>2010-01-01T07:44:33Z</time>
      </trkpt>
      <trkpt lat="42.18341" lon="2.51763">
        <ele>592</ele>
        <time>2010-01-01T07:44:39Z</time>
      </trkpt>
      <trkpt lat="42.1835" lon="2.51751">
        <ele>593</ele>
        <time>2010-01-01T07:44:44Z</time>
      </trkpt>
      <trkpt lat="42.18357" lon="2.5174">
        <ele>594</ele>
        <time>2010-01-01T07:44:48Z</time>
      </trkpt>
      <trkpt lat="42.18359" lon="2.51736">
        <ele>595</ele>
        <time>2010-01-01T07:44:50Z</time>
      </trkpt>
      <trkpt lat="42.18374" lon="2.51726">
        <ele>593</ele>
        <time>2010-01-01T07:44:57Z</time>
      </trkpt>
      <trkpt lat="42.18384" lon="2.5171">
        <ele>593</ele>
        <time>2010-01-01T07:45:03Z</time>
      </trkpt>
      <trkpt lat="42.18388" lon="2.517">
        <ele>594</ele>
        <time>2010-01-01T07:45:06Z</time>
      </trkpt>
      <trkpt lat="42.18389" lon="2.51673">
        <ele>594</ele>
        <time>2010-01-01T07:45:14Z</time>
      </trkpt>
      <trkpt lat="42.18389" lon="2.51665">
        <ele>593</ele>
        <time>2010-01-01T07:45:17Z</time>
      </trkpt>
      <trkpt lat="42.18383" lon="2.51644">
        <ele>593</ele>
        <time>2010-01-01T07:45:23Z</time>
      </trkpt>
      <trkpt lat="42.1837" lon="2.51628">
        <ele>596</ele>
        <time>2010-01-01T07:45:30Z</time>
      </trkpt>
      <trkpt lat="42.18368" lon="2.51616">
        <ele>595</ele>
        <time>2010-01-01T07:45:34Z</time>
      </trkpt>
      <trkpt lat="42.18358" lon="2.51608">
        <ele>599</ele>
        <time>2010-01-01T07:45:39Z</time>
      </trkpt>
      <trkpt lat="42.18352" lon="2.51594">
        <ele>602</ele>
        <time>2010-01-01T07:45:43Z</time>
      </trkpt>
      <trkpt lat="42.18352" lon="2.51591">
        <ele>602</ele>
        <time>2010-01-01T07:45:44Z</time>
      </trkpt>
      <trkpt lat="42.18357" lon="2.5157">
        <ele>600</ele>
        <time>2010-01-01T07:45:51Z</time>
      </trkpt>
      <trkpt lat="42.18361" lon="2.51569">
        <ele>598</ele>
        <time>2010-01-01T07:45:53Z</time>
      </trkpt>
      <trkpt lat="42.18362" lon="2.51555">
        <ele>598</ele>
        <time>2010-01-01T07:45:57Z</time>
      </trkpt>
      <trkpt lat="42.18368" lon="2.51547">
        <ele>596</ele>
        <time>2010-01-01T07:46:00Z</time>
      </trkpt>
      <trkpt lat="42.18384" lon="2.5153">
        <ele>591</ele>
        <time>2010-01-01T07:46:08Z</time>
      </trkpt>
      <trkpt lat="42.18384" lon="2.51527">
        <ele>591</ele>
        <time>2010-01-01T07:46:09Z</time>
      </trkpt>
      <trkpt lat="42.18386" lon="2.51512">
        <ele>592</ele>
        <time>2010-01-01T07:46:14Z</time>
      </trkpt>
      <trkpt lat="42.18397" lon="2.51494">
        <ele>588</ele>
        <time>2010-01-01T07:46:20Z</time>
      </trkpt>
      <trkpt lat="42.18399" lon="2.51485">
        <ele>587</ele>
        <time>2010-01-01T07:46:23Z</time>
      </trkpt>
      <trkpt lat="42.18403" lon="2.51464">
        <ele>584</ele>
        <time>2010-01-01T07:46:30Z</time>
      </trkpt>
      <trkpt lat="42.18401" lon="2.5144">
        <ele>583</ele>
        <time>2010-01-01T07:46:37Z</time>
      </trkpt>
      <trkpt lat="42.18398" lon="2.5143">
        <ele>583</ele>
        <time>2010-01-01T07:46:40Z</time>
      </trkpt>
      <trkpt lat="42.18396" lon="2.51407">
        <ele>582</ele>
        <time>2010-01-01T07:46:47Z</time>
      </trkpt>
      <trkpt lat="42.18392" lon="2.51391">
        <ele>584</ele>
        <time>2010-01-01T07:46:52Z</time>
      </trkpt>
      <trkpt lat="42.18393" lon="2.51369">
        <ele>582</ele>
        <time>2010-01-01T07:46:58Z</time>
      </trkpt>
      <trkpt lat="42.18392" lon="2.51366">
        <ele>583</ele>
        <time>2010-01-01T07:47:00Z</time>
      </trkpt>
      <trkpt lat="42.18391" lon="2.51361">
        <ele>583</ele>
        <time>2010-01-01T07:47:01Z</time>
      </trkpt>
      <trkpt lat="42.1839" lon="2.51346">
        <ele>585</ele>
        <time>2010-01-01T07:47:06Z</time>
      </trkpt>
      <trkpt lat="42.18387" lon="2.51325">
        <ele>587</ele>
        <time>2010-01-01T07:47:12Z</time>
      </trkpt>
      <trkpt lat="42.18395" lon="2.51305">
        <ele>584</ele>
        <time>2010-01-01T07:47:18Z</time>
      </trkpt>
      <trkpt lat="42.18403" lon="2.51285">
        <ele>582</ele>
        <time>2010-01-01T07:47:25Z</time>
      </trkpt>
      <trkpt lat="42.18405" lon="2.51264">
        <ele>582</ele>
        <time>2010-01-01T07:47:32Z</time>
      </trkpt>
      <trkpt lat="42.18406" lon="2.51261">
        <ele>582</ele>
        <time>2010-01-01T07:47:32Z</time>
      </trkpt>
      <trkpt lat="42.18415" lon="2.51243">
        <ele>577</ele>
        <time>2010-01-01T07:47:39Z</time>
      </trkpt>
      <trkpt lat="42.18419" lon="2.51236">
        <ele>575</ele>
        <time>2010-01-01T07:47:42Z</time>
      </trkpt>
      <trkpt lat="42.18424" lon="2.51231">
        <ele>572</ele>
        <time>2010-01-01T07:47:44Z</time>
      </trkpt>
      <trkpt lat="42.1843" lon="2.51223">
        <ele>570</ele>
        <time>2010-01-01T07:47:47Z</time>
      </trkpt>
      <trkpt lat="42.1843" lon="2.51222">
        <ele>570</ele>
        <time>2010-01-01T07:47:48Z</time>
      </trkpt>
      <trkpt lat="42.18433" lon="2.51214">
        <ele>569</ele>
        <time>2010-01-01T07:47:50Z</time>
      </trkpt>
      <trkpt lat="42.1843" lon="2.51199">
        <ele>572</ele>
        <time>2010-01-01T07:47:55Z</time>
      </trkpt>
      <trkpt lat="42.18429" lon="2.51184">
        <ele>574</ele>
        <time>2010-01-01T07:47:59Z</time>
      </trkpt>
      <trkpt lat="42.1843" lon="2.51181">
        <ele>574</ele>
        <time>2010-01-01T07:48:00Z</time>
      </trkpt>
      <trkpt lat="42.18429" lon="2.51179">
        <ele>575</ele>
        <time>2010-01-01T07:48:01Z</time>
      </trkpt>
      <trkpt lat="42.1843" lon="2.51164">
        <ele>576</ele>
        <time>2010-01-01T07:48:05Z</time>
      </trkpt>
      <trkpt lat="42.18437" lon="2.51153">
        <ele>570</ele>
        <time>2010-01-01T07:48:10Z</time>
      </trkpt>
      <trkpt lat="42.18433" lon="2.51153">
        <ele>573</ele>
        <time>2010-01-01T07:48:11Z</time>
      </trkpt>
      <trkpt lat="42.18435" lon="2.51153">
        <ele>572</ele>
        <time>2010-01-01T07:48:12Z</time>
      </trkpt>
      <trkpt lat="42.18434" lon="2.51154">
        <ele>572</ele>
        <time>2010-01-01T07:48:12Z</time>
      </trkpt>
      <trkpt lat="42.18432" lon="2.51155">
        <ele>574</ele>
        <time>2010-01-01T07:48:13Z</time>
      </trkpt>
      <trkpt lat="42.18428" lon="2.51157">
        <ele>577</ele>
        <time>2010-01-01T07:48:15Z</time>
      </trkpt>
      <trkpt lat="42.18435" lon="2.51161">
        <ele>573</ele>
        <time>2010-01-01T07:48:18Z</time>
      </trkpt>
      <trkpt lat="42.18433" lon="2.51102">
        <ele>572</ele>
        <time>2010-01-01T07:48:35Z</time>
      </trkpt>
      <trkpt lat="42.18431" lon="2.51077">
        <ele>573</ele>
        <time>2010-01-01T07:48:43Z</time>
      </trkpt>
      <trkpt lat="42.18434" lon="2.51057">
        <ele>569</ele>
        <time>2010-01-01T07:48:49Z</time>
      </trkpt>
      <trkpt lat="42.18433" lon="2.51044">
        <ele>567</ele>
        <time>2010-01-01T07:48:53Z</time>
      </trkpt>
      <trkpt lat="42.18431" lon="2.5103">
        <ele>565</ele>
        <time>2010-01-01T07:48:57Z</time>
      </trkpt>
      <trkpt lat="42.18429" lon="2.5102">
        <ele>563</ele>
        <time>2010-01-01T07:49:00Z</time>
      </trkpt>
      <trkpt lat="42.18422" lon="2.51006">
        <ele>563</ele>
        <time>2010-01-01T07:49:05Z</time>
      </trkpt>
      <trkpt lat="42.18415" lon="2.50998">
        <ele>565</ele>
        <time>2010-01-01T07:49:09Z</time>
      </trkpt>
      <trkpt lat="42.18408" lon="2.50985">
        <ele>566</ele>
        <time>2010-01-01T07:49:13Z</time>
      </trkpt>
      <trkpt lat="42.18401" lon="2.50974">
        <ele>566</ele>
        <time>2010-01-01T07:49:17Z</time>
      </trkpt>
      <trkpt lat="42.18397" lon="2.50965">
        <ele>566</ele>
        <time>2010-01-01T07:49:21Z</time>
      </trkpt>
      <trkpt lat="42.18385" lon="2.50945">
        <ele>566</ele>
        <time>2010-01-01T07:49:28Z</time>
      </trkpt>
      <trkpt lat="42.18374" lon="2.50934">
        <ele>564</ele>
        <time>2010-01-01T07:49:34Z</time>
      </trkpt>
      <trkpt lat="42.18362" lon="2.50928">
        <ele>564</ele>
        <time>2010-01-01T07:49:39Z</time>
      </trkpt>
      <trkpt lat="42.18348" lon="2.5093">
        <ele>563</ele>
        <time>2010-01-01T07:49:44Z</time>
      </trkpt>
      <trkpt lat="42.18345" lon="2.50928">
        <ele>562</ele>
        <time>2010-01-01T07:49:46Z</time>
      </trkpt>
      <trkpt lat="42.18335" lon="2.50926">
        <ele>561</ele>
        <time>2010-01-01T07:49:50Z</time>
      </trkpt>
      <trkpt lat="42.18322" lon="2.50907">
        <ele>556</ele>
        <time>2010-01-01T07:49:58Z</time>
      </trkpt>
      <trkpt lat="42.18321" lon="2.50906">
        <ele>556</ele>
        <time>2010-01-01T07:49:58Z</time>
      </trkpt>
      <trkpt lat="42.1832" lon="2.50894">
        <ele>555</ele>
        <time>2010-01-01T07:50:02Z</time>
      </trkpt>
      <trkpt lat="42.18315" lon="2.5089">
        <ele>554</ele>
        <time>2010-01-01T07:50:04Z</time>
      </trkpt>
      <trkpt lat="42.18302" lon="2.50883">
        <ele>552</ele>
        <time>2010-01-01T07:50:10Z</time>
      </trkpt>
      <trkpt lat="42.18301" lon="2.50876">
        <ele>551</ele>
        <time>2010-01-01T07:50:12Z</time>
      </trkpt>
      <trkpt lat="42.18297" lon="2.5087">
        <ele>550</ele>
        <time>2010-01-01T07:50:14Z</time>
      </trkpt>
      <trkpt lat="42.18284" lon="2.50858">
        <ele>548</ele>
        <time>2010-01-01T07:50:20Z</time>
      </trkpt>
      <trkpt lat="42.18279" lon="2.50847">
        <ele>546</ele>
        <time>2010-01-01T07:50:24Z</time>
      </trkpt>
      <trkpt lat="42.18271" lon="2.50834">
        <ele>544</ele>
        <time>2010-01-01T07:50:29Z</time>
      </trkpt>
      <trkpt lat="42.18269" lon="2.50832">
        <ele>544</ele>
        <time>2010-01-01T07:50:30Z</time>
      </trkpt>
      <trkpt lat="42.18267" lon="2.50832">
        <ele>544</ele>
        <time>2010-01-01T07:50:31Z</time>
      </trkpt>
      <trkpt lat="42.18261" lon="2.50827">
        <ele>543</ele>
        <time>2010-01-01T07:50:34Z</time>
      </trkpt>
      <trkpt lat="42.18268" lon="2.50811">
        <ele>541</ele>
        <time>2010-01-01T07:50:39Z</time>
      </trkpt>
      <trkpt lat="42.18276" lon="2.50793">
        <ele>538</ele>
        <time>2010-01-01T07:50:45Z</time>
      </trkpt>
      <trkpt lat="42.18279" lon="2.50773">
        <ele>536</ele>
        <time>2010-01-01T07:50:51Z</time>
      </trkpt>
      <trkpt lat="42.1828" lon="2.50768">
        <ele>536</ele>
        <time>2010-01-01T07:50:53Z</time>
      </trkpt>
      <trkpt lat="42.183" lon="2.50753">
        <ele>535</ele>
        <time>2010-01-01T07:51:02Z</time>
      </trkpt>
      <trkpt lat="42.18305" lon="2.50746">
        <ele>535</ele>
        <time>2010-01-01T07:51:05Z</time>
      </trkpt>
      <trkpt lat="42.18311" lon="2.50739">
        <ele>534</ele>
        <time>2010-01-01T07:51:08Z</time>
      </trkpt>
      <trkpt lat="42.18319" lon="2.50723">
        <ele>533</ele>
        <time>2010-01-01T07:51:14Z</time>
      </trkpt>
      <trkpt lat="42.18329" lon="2.50707">
        <ele>530</ele>
        <time>2010-01-01T07:51:20Z</time>
      </trkpt>
      <trkpt lat="42.18329" lon="2.50701">
        <ele>529</ele>
        <time>2010-01-01T07:51:22Z</time>
      </trkpt>
      <trkpt lat="42.18327" lon="2.50695">
        <ele>528</ele>
        <time>2010-01-01T07:51:24Z</time>
      </trkpt>
      <trkpt lat="42.18335" lon="2.50688">
        <ele>528</ele>
        <time>2010-01-01T07:51:27Z</time>
      </trkpt>
      <trkpt lat="42.18359" lon="2.50679">
        <ele>528</ele>
        <time>2010-01-01T07:51:37Z</time>
      </trkpt>
      <trkpt lat="42.1837" lon="2.50666">
        <ele>528</ele>
        <time>2010-01-01T07:51:43Z</time>
      </trkpt>
      <trkpt lat="42.18378" lon="2.50649">
        <ele>527</ele>
        <time>2010-01-01T07:51:49Z</time>
      </trkpt>
      <trkpt lat="42.18379" lon="2.50646">
        <ele>527</ele>
        <time>2010-01-01T07:51:50Z</time>
      </trkpt>
      <trkpt lat="42.18384" lon="2.50635">
        <ele>526</ele>
        <time>2010-01-01T07:51:54Z</time>
      </trkpt>
      <trkpt lat="42.18383" lon="2.50617">
        <ele>523</ele>
        <time>2010-01-01T07:51:59Z</time>
      </trkpt>
      <trkpt lat="42.18369" lon="2.50611">
        <ele>521</ele>
        <time>2010-01-01T07:52:05Z</time>
      </trkpt>
      <trkpt lat="42.18367" lon="2.50612">
        <ele>521</ele>
        <time>2010-01-01T07:52:06Z</time>
      </trkpt>
      <trkpt lat="42.18359" lon="2.50611">
        <ele>520</ele>
        <time>2010-01-01T07:52:09Z</time>
      </trkpt>
      <trkpt lat="42.18353" lon="2.50602">
        <ele>519</ele>
        <time>2010-01-01T07:52:13Z</time>
      </trkpt>
      <trkpt lat="42.18347" lon="2.50585">
        <ele>517</ele>
        <time>2010-01-01T07:52:18Z</time>
      </trkpt>
      <trkpt lat="42.18341" lon="2.50573">
        <ele>515</ele>
        <time>2010-01-01T07:52:22Z</time>
      </trkpt>
      <trkpt lat="42.1834" lon="2.50557">
        <ele>514</ele>
        <time>2010-01-01T07:52:27Z</time>
      </trkpt>
      <trkpt lat="42.18339" lon="2.50536">
        <ele>513</ele>
        <time>2010-01-01T07:52:33Z</time>
      </trkpt>
      <trkpt lat="42.18336" lon="2.50521">
        <ele>512</ele>
        <time>2010-01-01T07:52:38Z</time>
      </trkpt>
      <trkpt lat="42.18341" lon="2.50494">
        <ele>511</ele>
        <time>2010-01-01T07:52:46Z</time>
      </trkpt>
      <trkpt lat="42.18348" lon="2.50487">
        <ele>509</ele>
        <time>2010-01-01T07:52:50Z</time>
      </trkpt>
      <trkpt lat="42.18351" lon="2.50476">
        <ele>508</ele>
        <time>2010-01-01T07:52:53Z</time>
      </trkpt>
      <trkpt lat="42.18349" lon="2.50455">
        <ele>508</ele>
        <time>2010-01-01T07:52:59Z</time>
      </trkpt>
      <trkpt lat="42.18346" lon="2.50442">
        <ele>509</ele>
        <time>2010-01-01T07:53:03Z</time>
      </trkpt>
      <trkpt lat="42.18347" lon="2.50442">
        <ele>509</ele>
        <time>2010-01-01T07:53:04Z</time>
      </trkpt>
      <trkpt lat="42.1835" lon="2.50431">
        <ele>508</ele>
        <time>2010-01-01T07:53:07Z</time>
      </trkpt>
      <trkpt lat="42.18351" lon="2.50426">
        <ele>508</ele>
        <time>2010-01-01T07:53:09Z</time>
      </trkpt>
      <trkpt lat="42.18354" lon="2.50426">
        <ele>506</ele>
        <time>2010-01-01T07:53:10Z</time>
      </trkpt>
      <trkpt lat="42.18358" lon="2.50422">
        <ele>505</ele>
        <time>2010-01-01T07:53:12Z</time>
      </trkpt>
      <trkpt lat="42.18361" lon="2.50425">
        <ele>504</ele>
        <time>2010-01-01T07:53:14Z</time>
      </trkpt>
      <trkpt lat="42.18364" lon="2.50422">
        <ele>502</ele>
        <time>2010-01-01T07:53:15Z</time>
      </trkpt>
      <trkpt lat="42.18365" lon="2.50424">
        <ele>502</ele>
        <time>2010-01-01T07:53:16Z</time>
      </trkpt>
      <trkpt lat="42.18369" lon="2.50423">
        <ele>500</ele>
        <time>2010-01-01T07:53:17Z</time>
      </trkpt>
      <trkpt lat="42.18365" lon="2.50433">
        <ele>502</ele>
        <time>2010-01-01T07:53:21Z</time>
      </trkpt>
      <trkpt lat="42.18369" lon="2.50431">
        <ele>501</ele>
        <time>2010-01-01T07:53:22Z</time>
      </trkpt>
      <trkpt lat="42.1837" lon="2.50432">
        <ele>500</ele>
        <time>2010-01-01T07:53:23Z</time>
      </trkpt>
      <trkpt lat="42.18374" lon="2.50436">
        <ele>499</ele>
        <time>2010-01-01T07:53:25Z</time>
      </trkpt>
      <trkpt lat="42.18377" lon="2.50437">
        <ele>498</ele>
        <time>2010-01-01T07:53:26Z</time>
      </trkpt>
      <trkpt lat="42.18389" lon="2.50438">
        <ele>494</ele>
        <time>2010-01-01T07:53:31Z</time>
      </trkpt>
      <trkpt lat="42.18391" lon="2.50433">
        <ele>494</ele>
        <time>2010-01-01T07:53:33Z</time>
      </trkpt>
      <trkpt lat="42.18395" lon="2.50425">
        <ele>491</ele>
        <time>2010-01-01T07:53:36Z</time>
      </trkpt>
      <trkpt lat="42.18396" lon="2.50424">
        <ele>491</ele>
        <time>2010-01-01T07:53:36Z</time>
      </trkpt>
      <trkpt lat="42.184" lon="2.50419">
        <ele>490</ele>
        <time>2010-01-01T07:53:38Z</time>
      </trkpt>
      <trkpt lat="42.18411" lon="2.50416">
        <ele>488</ele>
        <time>2010-01-01T07:53:43Z</time>
      </trkpt>
      <trkpt lat="42.18421" lon="2.50402">
        <ele>485</ele>
        <time>2010-01-01T07:53:48Z</time>
      </trkpt>
      <trkpt lat="42.18425" lon="2.50393">
        <ele>484</ele>
        <time>2010-01-01T07:53:51Z</time>
      </trkpt>
      <trkpt lat="42.1843" lon="2.5039">
        <ele>483</ele>
        <time>2010-01-01T07:53:54Z</time>
      </trkpt>
      <trkpt lat="42.18434" lon="2.50384">
        <ele>482</ele>
        <time>2010-01-01T07:53:56Z</time>
      </trkpt>
      <trkpt lat="42.18438" lon="2.50373">
        <ele>481</ele>
        <time>2010-01-01T07:54:00Z</time>
      </trkpt>
      <trkpt lat="42.18447" lon="2.5036">
        <ele>480</ele>
        <time>2010-01-01T07:54:05Z</time>
      </trkpt>
      <trkpt lat="42.1846" lon="2.50344">
        <ele>478</ele>
        <time>2010-01-01T07:54:12Z</time>
      </trkpt>
      <trkpt lat="42.18471" lon="2.50328">
        <ele>478</ele>
        <time>2010-01-01T07:54:18Z</time>
      </trkpt>
      <trkpt lat="42.18482" lon="2.5031">
        <ele>480</ele>
        <time>2010-01-01T07:54:25Z</time>
      </trkpt>
      <trkpt lat="42.18491" lon="2.50291">
        <ele>482</ele>
        <time>2010-01-01T07:54:32Z</time>
      </trkpt>
      <trkpt lat="42.18493" lon="2.50288">
        <ele>482</ele>
        <time>2010-01-01T07:54:33Z</time>
      </trkpt>
      <trkpt lat="42.18494" lon="2.50277">
        <ele>483</ele>
        <time>2010-01-01T07:54:37Z</time>
      </trkpt>
      <trkpt lat="42.18509" lon="2.50265">
        <ele>482</ele>
        <time>2010-01-01T07:54:44Z</time>
      </trkpt>
      <trkpt lat="42.1851" lon="2.50264">
        <ele>482</ele>
        <time>2010-01-01T07:54:44Z</time>
      </trkpt>
      <trkpt lat="42.1852" lon="2.50258">
        <ele>480</ele>
        <time>2010-01-01T07:54:48Z</time>
      </trkpt>
      <trkpt lat="42.18524" lon="2.50251">
        <ele>480</ele>
        <time>2010-01-01T07:54:51Z</time>
      </trkpt>
      <trkpt lat="42.18532" lon="2.50244">
        <ele>478</ele>
        <time>2010-01-01T07:54:55Z</time>
      </trkpt>
      <trkpt lat="42.18545" lon="2.50226">
        <ele>473</ele>
        <time>2010-01-01T07:55:02Z</time>
      </trkpt>
      <trkpt lat="42.1854" lon="2.50199">
        <ele>475</ele>
        <time>2010-01-01T07:55:11Z</time>
      </trkpt>
      <trkpt lat="42.18539" lon="2.50196">
        <ele>475</ele>
        <time>2010-01-01T07:55:12Z</time>
      </trkpt>
      <trkpt lat="42.18547" lon="2.50177">
        <ele>471</ele>
        <time>2010-01-01T07:55:18Z</time>
      </trkpt>
      <trkpt lat="42.18555" lon="2.5016">
        <ele>468</ele>
        <time>2010-01-01T07:55:24Z</time>
      </trkpt>
      <trkpt lat="42.18559" lon="2.50149">
        <ele>467</ele>
        <time>2010-01-01T07:55:28Z</time>
      </trkpt>
      <trkpt lat="42.18561" lon="2.50145">
        <ele>466</ele>
        <time>2010-01-01T07:55:29Z</time>
      </trkpt>
      <trkpt lat="42.18563" lon="2.50136">
        <ele>465</ele>
        <time>2010-01-01T07:55:32Z</time>
      </trkpt>
      <trkpt lat="42.18563" lon="2.50134">
        <ele>464</ele>
        <time>2010-01-01T07:55:33Z</time>
      </trkpt>
      <trkpt lat="42.18566" lon="2.50132">
        <ele>464</ele>
        <time>2010-01-01T07:55:34Z</time>
      </trkpt>
      <trkpt lat="42.18578" lon="2.5012">
        <ele>461</ele>
        <time>2010-01-01T07:55:40Z</time>
      </trkpt>
      <trkpt lat="42.18585" lon="2.50106">
        <ele>459</ele>
        <time>2010-01-01T07:55:45Z</time>
      </trkpt>
      <trkpt lat="42.18585" lon="2.50103">
        <ele>458</ele>
        <time>2010-01-01T07:55:46Z</time>
      </trkpt>
      <trkpt lat="42.18585" lon="2.50097">
        <ele>457</ele>
        <time>2010-01-01T07:55:48Z</time>
      </trkpt>
      <trkpt lat="42.18585" lon="2.50097">
        <ele>457</ele>
        <time>2010-01-01T07:55:48Z</time>
      </trkpt>
      <trkpt lat="42.18585" lon="2.50097">
        <ele>457</ele>
        <time>2010-01-01T07:55:48Z</time>
      </trkpt>
      <trkpt lat="42.18587" lon="2.50093">
        <ele>457</ele>
        <time>2010-01-01T07:55:49Z</time>
      </trkpt>
      <trkpt lat="42.18596" lon="2.5008">
        <ele>454</ele>
        <time>2010-01-01T07:55:54Z</time>
      </trkpt>
      <trkpt lat="42.18604" lon="2.5007">
        <ele>452</ele>
        <time>2010-01-01T07:55:59Z</time>
      </trkpt>
      <trkpt lat="42.18618" lon="2.50062">
        <ele>448</ele>
        <time>2010-01-01T07:56:05Z</time>
      </trkpt>
      <trkpt lat="42.18632" lon="2.50058">
        <ele>445</ele>
        <time>2010-01-01T07:56:10Z</time>
      </trkpt>
      <trkpt lat="42.1864" lon="2.50054">
        <ele>442</ele>
        <time>2010-01-01T07:56:14Z</time>
      </trkpt>
      <trkpt lat="42.18643" lon="2.50051">
        <ele>440</ele>
        <time>2010-01-01T07:56:16Z</time>
      </trkpt>
      <trkpt lat="42.18648" lon="2.50042">
        <ele>438</ele>
        <time>2010-01-01T07:56:19Z</time>
      </trkpt>
      <trkpt lat="42.18653" lon="2.50042">
        <ele>437</ele>
        <time>2010-01-01T07:56:21Z</time>
      </trkpt>
      <trkpt lat="42.18657" lon="2.50044">
        <ele>436</ele>
        <time>2010-01-01T07:56:22Z</time>
      </trkpt>
      <trkpt lat="42.18665" lon="2.50045">
        <ele>435</ele>
        <time>2010-01-01T07:56:26Z</time>
      </trkpt>
      <trkpt lat="42.18674" lon="2.50053">
        <ele>434</ele>
        <time>2010-01-01T07:56:30Z</time>
      </trkpt>
      <trkpt lat="42.18683" lon="2.50052">
        <ele>433</ele>
        <time>2010-01-01T07:56:34Z</time>
      </trkpt>
      <trkpt lat="42.18686" lon="2.50053">
        <ele>433</ele>
        <time>2010-01-01T07:56:35Z</time>
      </trkpt>
      <trkpt lat="42.18694" lon="2.50051">
        <ele>432</ele>
        <time>2010-01-01T07:56:38Z</time>
      </trkpt>
      <trkpt lat="42.18699" lon="2.50046">
        <ele>430</ele>
        <time>2010-01-01T07:56:41Z</time>
      </trkpt>
      <trkpt lat="42.18695" lon="2.50033">
        <ele>430</ele>
        <time>2010-01-01T07:56:45Z</time>
      </trkpt>
      <trkpt lat="42.18684" lon="2.50021">
        <ele>429</ele>
        <time>2010-01-01T07:56:51Z</time>
      </trkpt>
      <trkpt lat="42.18675" lon="2.5002">
        <ele>430</ele>
        <time>2010-01-01T07:56:54Z</time>
      </trkpt>
      <trkpt lat="42.18654" lon="2.5001">
        <ele>430</ele>
        <time>2010-01-01T07:57:03Z</time>
      </trkpt>
      <trkpt lat="42.18652" lon="2.50008">
        <ele>430</ele>
        <time>2010-01-01T07:57:04Z</time>
      </trkpt>
      <trkpt lat="42.1865" lon="2.50006">
        <ele>430</ele>
        <time>2010-01-01T07:57:05Z</time>
      </trkpt>
      <trkpt lat="42.18648" lon="2.50004">
        <ele>430</ele>
        <time>2010-01-01T07:57:06Z</time>
      </trkpt>
      <trkpt lat="42.18637" lon="2.49998">
        <ele>430</ele>
        <time>2010-01-01T07:57:11Z</time>
      </trkpt>
      <trkpt lat="42.18626" lon="2.50004">
        <ele>433</ele>
        <time>2010-01-01T07:57:16Z</time>
      </trkpt>
      <trkpt lat="42.18622" lon="2.50003">
        <ele>433</ele>
        <time>2010-01-01T07:57:17Z</time>
      </trkpt>
      <trkpt lat="42.18616" lon="2.50001">
        <ele>433</ele>
        <time>2010-01-01T07:57:20Z</time>
      </trkpt>
      <trkpt lat="42.18607" lon="2.49998">
        <ele>434</ele>
        <time>2010-01-01T07:57:23Z</time>
      </trkpt>
      <trkpt lat="42.18596" lon="2.49983">
        <ele>432</ele>
        <time>2010-01-01T07:57:30Z</time>
      </trkpt>
      <trkpt lat="42.18587" lon="2.4997">
        <ele>431</ele>
        <time>2010-01-01T07:57:35Z</time>
      </trkpt>
      <trkpt lat="42.18579" lon="2.49952">
        <ele>427</ele>
        <time>2010-01-01T07:57:41Z</time>
      </trkpt>
      <trkpt lat="42.18569" lon="2.49936">
        <ele>425</ele>
        <time>2010-01-01T07:57:47Z</time>
      </trkpt>
      <trkpt lat="42.18559" lon="2.49909">
        <ele>421</ele>
        <time>2010-01-01T07:57:56Z</time>
      </trkpt>
      <trkpt lat="42.18557" lon="2.49904">
        <ele>421</ele>
        <time>2010-01-01T07:57:58Z</time>
      </trkpt>
      <trkpt lat="42.18559" lon="2.499">
        <ele>420</ele>
        <time>2010-01-01T07:57:59Z</time>
      </trkpt>
      <trkpt lat="42.18576" lon="2.499">
        <ele>418</ele>
        <time>2010-01-01T07:58:07Z</time>
      </trkpt>
      <trkpt lat="42.18578" lon="2.499">
        <ele>418</ele>
        <time>2010-01-01T07:58:07Z</time>
      </trkpt>
      <trkpt lat="42.1858" lon="2.49899">
        <ele>418</ele>
        <time>2010-01-01T07:58:08Z</time>
      </trkpt>
      <trkpt lat="42.18601" lon="2.49902">
        <ele>417</ele>
        <time>2010-01-01T07:58:16Z</time>
      </trkpt>
      <trkpt lat="42.18623" lon="2.49904">
        <ele>418</ele>
        <time>2010-01-01T07:58:25Z</time>
      </trkpt>
      <trkpt lat="42.18635" lon="2.49903">
        <ele>419</ele>
        <time>2010-01-01T07:58:30Z</time>
      </trkpt>
      <trkpt lat="42.18649" lon="2.49905">
        <ele>420</ele>
        <time>2010-01-01T07:58:36Z</time>
      </trkpt>
      <trkpt lat="42.18656" lon="2.49904">
        <ele>421</ele>
        <time>2010-01-01T07:58:39Z</time>
      </trkpt>
      <trkpt lat="42.18661" lon="2.49903">
        <ele>421</ele>
        <time>2010-01-01T07:58:40Z</time>
      </trkpt>
      <trkpt lat="42.18679" lon="2.49889">
        <ele>421</ele>
        <time>2010-01-01T07:58:49Z</time>
      </trkpt>
      <trkpt lat="42.18682" lon="2.49886">
        <ele>421</ele>
        <time>2010-01-01T07:58:50Z</time>
      </trkpt>
      <trkpt lat="42.18687" lon="2.49879">
        <ele>421</ele>
        <time>2010-01-01T07:58:53Z</time>
      </trkpt>
      <trkpt lat="42.18677" lon="2.49867">
        <ele>420</ele>
        <time>2010-01-01T07:58:58Z</time>
      </trkpt>
      <trkpt lat="42.18671" lon="2.49847">
        <ele>419</ele>
        <time>2010-01-01T07:59:05Z</time>
      </trkpt>
      <trkpt lat="42.18667" lon="2.49843">
        <ele>419</ele>
        <time>2010-01-01T07:59:07Z</time>
      </trkpt>
      <trkpt lat="42.18666" lon="2.49844">
        <ele>419</ele>
        <time>2010-01-01T07:59:07Z</time>
      </trkpt>
    </trkseg>
  </trk>
</gpx>